<?xml version="1.0" encoding="ISO-8859-1"?>
<gpx version="1.1" 
creator="Memory-Map 5.4.2.1089 http://www.memory-map.com"
 xmlns:xsi="http://www.w3.org/2001/XMLSchema-instance"
 xmlns="http://www.topografix.com/GPX/1/1"
 xsi:schemaLocation="http://www.topografix.com/GPX/1/1 http://www.topografix.com/GPX/1/1/gpx.xsd">
<trk>
<name>User Track</name>
<type>Track</type>
<trkseg>
<trkpt lat="53.0118820000" lon="-4.1059980000"><ele>56</ele><time>2016-09-30T09:04:05Z</time></trkpt>
<trkpt lat="53.0118810000" lon="-4.1059930000"><ele>56</ele><time>2016-09-30T09:04:06Z</time></trkpt>
<trkpt lat="53.0118810000" lon="-4.1059930000"><ele>56</ele><time>2016-09-30T09:04:07Z</time></trkpt>
<trkpt lat="53.0118800000" lon="-4.1059930000"><ele>56</ele><time>2016-09-30T09:04:08Z</time></trkpt>
<trkpt lat="53.0118800000" lon="-4.1059930000"><ele>57</ele><time>2016-09-30T09:04:09Z</time></trkpt>
<trkpt lat="53.0118800000" lon="-4.1059920000"><ele>57</ele></trkpt>
<trkpt lat="53.0118800000" lon="-4.1059920000"><ele>57</ele><time>2016-09-30T09:04:11Z</time></trkpt>
<trkpt lat="53.0118560000" lon="-4.1059560000"><ele>57</ele><time>2016-09-30T09:05:29Z</time></trkpt>
<trkpt lat="53.0117610000" lon="-4.1058900000"><ele>56</ele><time>2016-09-30T09:05:31Z</time></trkpt>
<trkpt lat="53.0117390000" lon="-4.1058590000"><ele>56</ele><time>2016-09-30T09:05:34Z</time></trkpt>
<trkpt lat="53.0117220000" lon="-4.1058280000"><ele>55</ele><time>2016-09-30T09:05:42Z</time></trkpt>
<trkpt lat="53.0117020000" lon="-4.1057990000"><ele>52</ele><time>2016-09-30T09:05:52Z</time></trkpt>
<trkpt lat="53.0116840000" lon="-4.1057780000"><ele>51</ele><time>2016-09-30T09:05:56Z</time></trkpt>
<trkpt lat="53.0115630000" lon="-4.1056350000"><ele>50</ele><time>2016-09-30T09:05:58Z</time></trkpt>
<trkpt lat="53.0115460000" lon="-4.1056070000"><ele>50</ele><time>2016-09-30T09:05:59Z</time></trkpt>
<trkpt lat="53.0115410000" lon="-4.1055930000"><ele>50</ele><time>2016-09-30T09:06:01Z</time></trkpt>
<trkpt lat="53.0115360000" lon="-4.1055750000"><ele>50</ele><time>2016-09-30T09:06:02Z</time></trkpt>
<trkpt lat="53.0115360000" lon="-4.1055750000"><ele>50</ele><time>2016-09-30T09:06:03Z</time></trkpt>
<trkpt lat="53.0115360000" lon="-4.1055750000"><ele>50</ele><time>2016-09-30T09:06:04Z</time></trkpt>
<trkpt lat="53.0115360000" lon="-4.1055740000"><ele>49</ele><time>2016-09-30T09:06:05Z</time></trkpt>
<trkpt lat="53.0115360000" lon="-4.1055730000"><ele>49</ele></trkpt>
<trkpt lat="53.0115360000" lon="-4.1055720000"><ele>49</ele><time>2016-09-30T09:06:07Z</time></trkpt>
<trkpt lat="53.0115350000" lon="-4.1055700000"><ele>49</ele><time>2016-09-30T09:06:08Z</time></trkpt>
<trkpt lat="53.0115350000" lon="-4.1055670000"><ele>49</ele><time>2016-09-30T09:06:09Z</time></trkpt>
<trkpt lat="53.0115350000" lon="-4.1055630000"><ele>49</ele><time>2016-09-30T09:06:10Z</time></trkpt>
<trkpt lat="53.0115340000" lon="-4.1055580000"><ele>48</ele><time>2016-09-30T09:06:11Z</time></trkpt>
<trkpt lat="53.0115330000" lon="-4.1055520000"><ele>48</ele><time>2016-09-30T09:06:12Z</time></trkpt>
<trkpt lat="53.0115320000" lon="-4.1055450000"><ele>48</ele><time>2016-09-30T09:06:13Z</time></trkpt>
<trkpt lat="53.0115310000" lon="-4.1055360000"><ele>47</ele><time>2016-09-30T09:06:14Z</time></trkpt>
<trkpt lat="53.0115300000" lon="-4.1055270000"><ele>47</ele><time>2016-09-30T09:06:15Z</time></trkpt>
<trkpt lat="53.0115270000" lon="-4.1055170000"><ele>47</ele><time>2016-09-30T09:06:16Z</time></trkpt>
<trkpt lat="53.0115250000" lon="-4.1055060000"><ele>46</ele><time>2016-09-30T09:06:17Z</time></trkpt>
<trkpt lat="53.0115220000" lon="-4.1054950000"><ele>46</ele><time>2016-09-30T09:06:18Z</time></trkpt>
<trkpt lat="53.0115180000" lon="-4.1054830000"><ele>46</ele></trkpt>
<trkpt lat="53.0115140000" lon="-4.1054700000"><ele>45</ele><time>2016-09-30T09:06:20Z</time></trkpt>
<trkpt lat="53.0115090000" lon="-4.1054570000"><ele>45</ele><time>2016-09-30T09:06:21Z</time></trkpt>
<trkpt lat="53.0115050000" lon="-4.1054440000"><ele>44</ele><time>2016-09-30T09:06:22Z</time></trkpt>
<trkpt lat="53.0115010000" lon="-4.1054300000"><ele>44</ele><time>2016-09-30T09:06:23Z</time></trkpt>
<trkpt lat="53.0114350000" lon="-4.1051580000"><ele>43</ele><time>2016-09-30T09:06:24Z</time></trkpt>
<trkpt lat="53.0114400000" lon="-4.1051380000"><ele>43</ele></trkpt>
<trkpt lat="53.0114460000" lon="-4.1051180000"><ele>42</ele><time>2016-09-30T09:06:26Z</time></trkpt>
<trkpt lat="53.0114530000" lon="-4.1050970000"><ele>42</ele><time>2016-09-30T09:06:27Z</time></trkpt>
<trkpt lat="53.0114590000" lon="-4.1050770000"><ele>41</ele><time>2016-09-30T09:06:28Z</time></trkpt>
<trkpt lat="53.0114670000" lon="-4.1050590000"><ele>41</ele><time>2016-09-30T09:06:29Z</time></trkpt>
<trkpt lat="53.0114750000" lon="-4.1050410000"><ele>41</ele><time>2016-09-30T09:06:30Z</time></trkpt>
<trkpt lat="53.0114810000" lon="-4.1050270000"><ele>40</ele></trkpt>
<trkpt lat="53.0114850000" lon="-4.1050120000"><ele>40</ele><time>2016-09-30T09:06:32Z</time></trkpt>
<trkpt lat="53.0114850000" lon="-4.1050120000"><ele>40</ele><time>2016-09-30T09:06:33Z</time></trkpt>
<trkpt lat="53.0114850000" lon="-4.1050120000"><ele>39</ele><time>2016-09-30T09:06:34Z</time></trkpt>
<trkpt lat="53.0114850000" lon="-4.1050110000"><ele>39</ele><time>2016-09-30T09:06:35Z</time></trkpt>
<trkpt lat="53.0114850000" lon="-4.1050100000"><ele>39</ele><time>2016-09-30T09:06:36Z</time></trkpt>
<trkpt lat="53.0114860000" lon="-4.1050090000"><ele>39</ele><time>2016-09-30T09:06:37Z</time></trkpt>
<trkpt lat="53.0114860000" lon="-4.1050070000"><ele>38</ele></trkpt>
<trkpt lat="53.0114860000" lon="-4.1050020000"><ele>38</ele><time>2016-09-30T09:06:40Z</time></trkpt>
<trkpt lat="53.0114860000" lon="-4.1049980000"><ele>38</ele><time>2016-09-30T09:06:41Z</time></trkpt>
<trkpt lat="53.0114870000" lon="-4.1049940000"><ele>37</ele><time>2016-09-30T09:06:42Z</time></trkpt>
<trkpt lat="53.0114870000" lon="-4.1049890000"><ele>37</ele><time>2016-09-30T09:06:43Z</time></trkpt>
<trkpt lat="53.0114880000" lon="-4.1049840000"><ele>37</ele><time>2016-09-30T09:06:44Z</time></trkpt>
<trkpt lat="53.0114890000" lon="-4.1049770000"><ele>37</ele><time>2016-09-30T09:06:45Z</time></trkpt>
<trkpt lat="53.0114900000" lon="-4.1049700000"><ele>37</ele></trkpt>
<trkpt lat="53.0114910000" lon="-4.1049620000"><ele>37</ele><time>2016-09-30T09:06:47Z</time></trkpt>
<trkpt lat="53.0114930000" lon="-4.1049530000"><ele>37</ele><time>2016-09-30T09:06:48Z</time></trkpt>
<trkpt lat="53.0114940000" lon="-4.1049430000"><ele>37</ele><time>2016-09-30T09:06:49Z</time></trkpt>
<trkpt lat="53.0115330000" lon="-4.1047270000"><ele>36</ele><time>2016-09-30T09:06:50Z</time></trkpt>
<trkpt lat="53.0115360000" lon="-4.1047060000"><ele>36</ele><time>2016-09-30T09:06:51Z</time></trkpt>
<trkpt lat="53.0115390000" lon="-4.1046840000"><ele>36</ele><time>2016-09-30T09:06:52Z</time></trkpt>
<trkpt lat="53.0115420000" lon="-4.1046640000"><ele>36</ele><time>2016-09-30T09:06:53Z</time></trkpt>
<trkpt lat="53.0115430000" lon="-4.1046420000"><ele>36</ele><time>2016-09-30T09:06:54Z</time></trkpt>
<trkpt lat="53.0115430000" lon="-4.1046210000"><ele>36</ele><time>2016-09-30T09:06:55Z</time></trkpt>
<trkpt lat="53.0115430000" lon="-4.1046070000"><ele>36</ele><time>2016-09-30T09:06:56Z</time></trkpt>
<trkpt lat="53.0115430000" lon="-4.1045920000"><ele>36</ele><time>2016-09-30T09:06:57Z</time></trkpt>
<trkpt lat="53.0115420000" lon="-4.1045000000"><ele>36</ele><time>2016-09-30T09:07:01Z</time></trkpt>
<trkpt lat="53.0115440000" lon="-4.1044590000"><ele>36</ele><time>2016-09-30T09:07:03Z</time></trkpt>
<trkpt lat="53.0115430000" lon="-4.1044390000"><ele>36</ele><time>2016-09-30T09:07:04Z</time></trkpt>
<trkpt lat="53.0115430000" lon="-4.1044200000"><ele>36</ele></trkpt>
<trkpt lat="53.0115430000" lon="-4.1043980000"><ele>36</ele><time>2016-09-30T09:07:06Z</time></trkpt>
<trkpt lat="53.0115430000" lon="-4.1043770000"><ele>36</ele><time>2016-09-30T09:07:07Z</time></trkpt>
<trkpt lat="53.0115430000" lon="-4.1043600000"><ele>36</ele><time>2016-09-30T09:07:08Z</time></trkpt>
<trkpt lat="53.0115440000" lon="-4.1043410000"><ele>36</ele><time>2016-09-30T09:07:09Z</time></trkpt>
<trkpt lat="53.0115440000" lon="-4.1043190000"><ele>36</ele><time>2016-09-30T09:07:10Z</time></trkpt>
<trkpt lat="53.0115440000" lon="-4.1042960000"><ele>36</ele></trkpt>
<trkpt lat="53.0115420000" lon="-4.1042760000"><ele>36</ele><time>2016-09-30T09:07:12Z</time></trkpt>
<trkpt lat="53.0115430000" lon="-4.1042560000"><ele>36</ele><time>2016-09-30T09:07:13Z</time></trkpt>
<trkpt lat="53.0115430000" lon="-4.1042380000"><ele>36</ele><time>2016-09-30T09:07:14Z</time></trkpt>
<trkpt lat="53.0115430000" lon="-4.1042170000"><ele>36</ele><time>2016-09-30T09:07:15Z</time></trkpt>
<trkpt lat="53.0115420000" lon="-4.1041950000"><ele>36</ele><time>2016-09-30T09:07:16Z</time></trkpt>
<trkpt lat="53.0115400000" lon="-4.1041710000"><ele>36</ele><time>2016-09-30T09:07:17Z</time></trkpt>
<trkpt lat="53.0115400000" lon="-4.1041490000"><ele>36</ele><time>2016-09-30T09:07:18Z</time></trkpt>
<trkpt lat="53.0115400000" lon="-4.1041300000"><ele>36</ele><time>2016-09-30T09:07:19Z</time></trkpt>
<trkpt lat="53.0115400000" lon="-4.1041080000"><ele>36</ele><time>2016-09-30T09:07:20Z</time></trkpt>
<trkpt lat="53.0115420000" lon="-4.1040860000"><ele>36</ele><time>2016-09-30T09:07:21Z</time></trkpt>
<trkpt lat="53.0115440000" lon="-4.1040650000"><ele>36</ele><time>2016-09-30T09:07:22Z</time></trkpt>
<trkpt lat="53.0115450000" lon="-4.1040420000"><ele>36</ele><time>2016-09-30T09:07:23Z</time></trkpt>
<trkpt lat="53.0115460000" lon="-4.1040200000"><ele>36</ele></trkpt>
<trkpt lat="53.0115480000" lon="-4.1039990000"><ele>36</ele><time>2016-09-30T09:07:25Z</time></trkpt>
<trkpt lat="53.0115480000" lon="-4.1039800000"><ele>36</ele><time>2016-09-30T09:07:26Z</time></trkpt>
<trkpt lat="53.0115490000" lon="-4.1039590000"><ele>36</ele><time>2016-09-30T09:07:27Z</time></trkpt>
<trkpt lat="53.0115510000" lon="-4.1039400000"><ele>36</ele><time>2016-09-30T09:07:28Z</time></trkpt>
<trkpt lat="53.0115520000" lon="-4.1039180000"><ele>36</ele><time>2016-09-30T09:07:29Z</time></trkpt>
<trkpt lat="53.0115530000" lon="-4.1038950000"><ele>36</ele></trkpt>
<trkpt lat="53.0115540000" lon="-4.1038760000"><ele>36</ele><time>2016-09-30T09:07:31Z</time></trkpt>
<trkpt lat="53.0115550000" lon="-4.1038610000"><ele>36</ele><time>2016-09-30T09:07:32Z</time></trkpt>
<trkpt lat="53.0115550000" lon="-4.1038610000"><ele>36</ele><time>2016-09-30T09:07:33Z</time></trkpt>
<trkpt lat="53.0115550000" lon="-4.1038600000"><ele>37</ele><time>2016-09-30T09:07:34Z</time></trkpt>
<trkpt lat="53.0115550000" lon="-4.1038590000"><ele>37</ele><time>2016-09-30T09:07:35Z</time></trkpt>
<trkpt lat="53.0115550000" lon="-4.1038580000"><ele>37</ele><time>2016-09-30T09:07:36Z</time></trkpt>
<trkpt lat="53.0115550000" lon="-4.1038550000"><ele>37</ele><time>2016-09-30T09:07:37Z</time></trkpt>
<trkpt lat="53.0115550000" lon="-4.1038530000"><ele>37</ele><time>2016-09-30T09:07:38Z</time></trkpt>
<trkpt lat="53.0115560000" lon="-4.1038440000"><ele>38</ele><time>2016-09-30T09:07:40Z</time></trkpt>
<trkpt lat="53.0115560000" lon="-4.1038390000"><ele>38</ele><time>2016-09-30T09:07:41Z</time></trkpt>
<trkpt lat="53.0115570000" lon="-4.1038330000"><ele>38</ele><time>2016-09-30T09:07:42Z</time></trkpt>
<trkpt lat="53.0115570000" lon="-4.1038260000"><ele>38</ele><time>2016-09-30T09:07:43Z</time></trkpt>
<trkpt lat="53.0115580000" lon="-4.1038180000"><ele>39</ele><time>2016-09-30T09:07:44Z</time></trkpt>
<trkpt lat="53.0115590000" lon="-4.1038100000"><ele>39</ele><time>2016-09-30T09:07:45Z</time></trkpt>
<trkpt lat="53.0115590000" lon="-4.1038010000"><ele>39</ele><time>2016-09-30T09:07:46Z</time></trkpt>
<trkpt lat="53.0115610000" lon="-4.1037910000"><ele>39</ele><time>2016-09-30T09:07:47Z</time></trkpt>
<trkpt lat="53.0115620000" lon="-4.1037810000"><ele>39</ele><time>2016-09-30T09:07:48Z</time></trkpt>
<trkpt lat="53.0115640000" lon="-4.1037710000"><ele>39</ele><time>2016-09-30T09:07:49Z</time></trkpt>
<trkpt lat="53.0115650000" lon="-4.1037600000"><ele>39</ele><time>2016-09-30T09:07:50Z</time></trkpt>
<trkpt lat="53.0115670000" lon="-4.1037490000"><ele>39</ele><time>2016-09-30T09:07:51Z</time></trkpt>
<trkpt lat="53.0115680000" lon="-4.1037380000"><ele>40</ele><time>2016-09-30T09:07:52Z</time></trkpt>
<trkpt lat="53.0115690000" lon="-4.1037270000"><ele>40</ele></trkpt>
<trkpt lat="53.0115710000" lon="-4.1037150000"><ele>40</ele><time>2016-09-30T09:07:54Z</time></trkpt>
<trkpt lat="53.0115720000" lon="-4.1037020000"><ele>40</ele><time>2016-09-30T09:07:55Z</time></trkpt>
<trkpt lat="53.0115730000" lon="-4.1036890000"><ele>40</ele><time>2016-09-30T09:07:56Z</time></trkpt>
<trkpt lat="53.0115750000" lon="-4.1036760000"><ele>40</ele><time>2016-09-30T09:07:57Z</time></trkpt>
<trkpt lat="53.0115770000" lon="-4.1036630000"><ele>40</ele><time>2016-09-30T09:07:58Z</time></trkpt>
<trkpt lat="53.0115780000" lon="-4.1036490000"><ele>41</ele></trkpt>
<trkpt lat="53.0115800000" lon="-4.1036350000"><ele>41</ele><time>2016-09-30T09:08:00Z</time></trkpt>
<trkpt lat="53.0115820000" lon="-4.1036210000"><ele>41</ele><time>2016-09-30T09:08:01Z</time></trkpt>
<trkpt lat="53.0115840000" lon="-4.1036070000"><ele>41</ele><time>2016-09-30T09:08:02Z</time></trkpt>
<trkpt lat="53.0115850000" lon="-4.1035920000"><ele>41</ele><time>2016-09-30T09:08:03Z</time></trkpt>
<trkpt lat="53.0115870000" lon="-4.1035770000"><ele>41</ele><time>2016-09-30T09:08:04Z</time></trkpt>
<trkpt lat="53.0115890000" lon="-4.1035630000"><ele>42</ele></trkpt>
<trkpt lat="53.0115910000" lon="-4.1035480000"><ele>42</ele><time>2016-09-30T09:08:06Z</time></trkpt>
<trkpt lat="53.0115970000" lon="-4.1034890000"><ele>43</ele><time>2016-09-30T09:08:10Z</time></trkpt>
<trkpt lat="53.0116250000" lon="-4.1032110000"><ele>43</ele><time>2016-09-30T09:08:11Z</time></trkpt>
<trkpt lat="53.0116210000" lon="-4.1031710000"><ele>43</ele><time>2016-09-30T09:08:13Z</time></trkpt>
<trkpt lat="53.0116180000" lon="-4.1031300000"><ele>43</ele><time>2016-09-30T09:08:15Z</time></trkpt>
<trkpt lat="53.0116200000" lon="-4.1031110000"><ele>43</ele><time>2016-09-30T09:08:16Z</time></trkpt>
<trkpt lat="53.0116240000" lon="-4.1030920000"><ele>43</ele><time>2016-09-30T09:08:17Z</time></trkpt>
<trkpt lat="53.0116260000" lon="-4.1030750000"><ele>43</ele></trkpt>
<trkpt lat="53.0116300000" lon="-4.1030550000"><ele>43</ele><time>2016-09-30T09:08:19Z</time></trkpt>
<trkpt lat="53.0116300000" lon="-4.1030550000"><ele>43</ele><time>2016-09-30T09:08:20Z</time></trkpt>
<trkpt lat="53.0116300000" lon="-4.1030550000"><ele>43</ele><time>2016-09-30T09:08:21Z</time></trkpt>
<trkpt lat="53.0116300000" lon="-4.1030540000"><ele>43</ele><time>2016-09-30T09:08:22Z</time></trkpt>
<trkpt lat="53.0116300000" lon="-4.1030520000"><ele>43</ele><time>2016-09-30T09:08:23Z</time></trkpt>
<trkpt lat="53.0116310000" lon="-4.1030500000"><ele>43</ele></trkpt>
<trkpt lat="53.0116310000" lon="-4.1030470000"><ele>43</ele><time>2016-09-30T09:08:25Z</time></trkpt>
<trkpt lat="53.0116320000" lon="-4.1030430000"><ele>43</ele><time>2016-09-30T09:08:26Z</time></trkpt>
<trkpt lat="53.0116330000" lon="-4.1030390000"><ele>43</ele><time>2016-09-30T09:08:27Z</time></trkpt>
<trkpt lat="53.0116340000" lon="-4.1030330000"><ele>42</ele><time>2016-09-30T09:08:28Z</time></trkpt>
<trkpt lat="53.0116360000" lon="-4.1030270000"><ele>42</ele><time>2016-09-30T09:08:29Z</time></trkpt>
<trkpt lat="53.0116370000" lon="-4.1030190000"><ele>42</ele></trkpt>
<trkpt lat="53.0116390000" lon="-4.1030120000"><ele>42</ele><time>2016-09-30T09:08:31Z</time></trkpt>
<trkpt lat="53.0116410000" lon="-4.1030020000"><ele>42</ele><time>2016-09-30T09:08:32Z</time></trkpt>
<trkpt lat="53.0116970000" lon="-4.1027430000"><ele>41</ele><time>2016-09-30T09:08:33Z</time></trkpt>
<trkpt lat="53.0117010000" lon="-4.1027190000"><ele>41</ele><time>2016-09-30T09:08:34Z</time></trkpt>
<trkpt lat="53.0117050000" lon="-4.1026920000"><ele>41</ele><time>2016-09-30T09:08:35Z</time></trkpt>
<trkpt lat="53.0117080000" lon="-4.1026670000"><ele>41</ele><time>2016-09-30T09:08:36Z</time></trkpt>
<trkpt lat="53.0117100000" lon="-4.1026440000"><ele>40</ele></trkpt>
<trkpt lat="53.0117110000" lon="-4.1026180000"><ele>40</ele><time>2016-09-30T09:08:38Z</time></trkpt>
<trkpt lat="53.0117050000" lon="-4.1025740000"><ele>40</ele><time>2016-09-30T09:08:40Z</time></trkpt>
<trkpt lat="53.0117010000" lon="-4.1025540000"><ele>40</ele><time>2016-09-30T09:08:41Z</time></trkpt>
<trkpt lat="53.0116980000" lon="-4.1025340000"><ele>39</ele><time>2016-09-30T09:08:42Z</time></trkpt>
<trkpt lat="53.0116930000" lon="-4.1025150000"><ele>39</ele><time>2016-09-30T09:08:43Z</time></trkpt>
<trkpt lat="53.0116900000" lon="-4.1024960000"><ele>39</ele><time>2016-09-30T09:08:44Z</time></trkpt>
<trkpt lat="53.0116860000" lon="-4.1024770000"><ele>39</ele><time>2016-09-30T09:08:45Z</time></trkpt>
<trkpt lat="53.0116820000" lon="-4.1024590000"><ele>38</ele><time>2016-09-30T09:08:46Z</time></trkpt>
<trkpt lat="53.0116790000" lon="-4.1024440000"><ele>38</ele><time>2016-09-30T09:08:47Z</time></trkpt>
<trkpt lat="53.0116790000" lon="-4.1024440000"><ele>38</ele><time>2016-09-30T09:08:48Z</time></trkpt>
<trkpt lat="53.0116790000" lon="-4.1024440000"><ele>38</ele><time>2016-09-30T09:08:49Z</time></trkpt>
<trkpt lat="53.0116790000" lon="-4.1024430000"><ele>37</ele><time>2016-09-30T09:08:50Z</time></trkpt>
<trkpt lat="53.0116790000" lon="-4.1024420000"><ele>37</ele><time>2016-09-30T09:08:51Z</time></trkpt>
<trkpt lat="53.0116780000" lon="-4.1024410000"><ele>37</ele><time>2016-09-30T09:08:52Z</time></trkpt>
<trkpt lat="53.0116780000" lon="-4.1024380000"><ele>37</ele></trkpt>
<trkpt lat="53.0116770000" lon="-4.1024350000"><ele>37</ele><time>2016-09-30T09:08:54Z</time></trkpt>
<trkpt lat="53.0116760000" lon="-4.1024300000"><ele>37</ele><time>2016-09-30T09:08:55Z</time></trkpt>
<trkpt lat="53.0116760000" lon="-4.1024260000"><ele>36</ele><time>2016-09-30T09:08:56Z</time></trkpt>
<trkpt lat="53.0116750000" lon="-4.1024200000"><ele>36</ele><time>2016-09-30T09:08:57Z</time></trkpt>
<trkpt lat="53.0116740000" lon="-4.1024130000"><ele>36</ele><time>2016-09-30T09:08:58Z</time></trkpt>
<trkpt lat="53.0116720000" lon="-4.1024060000"><ele>36</ele></trkpt>
<trkpt lat="53.0116710000" lon="-4.1023980000"><ele>36</ele><time>2016-09-30T09:09:00Z</time></trkpt>
<trkpt lat="53.0116690000" lon="-4.1023880000"><ele>36</ele><time>2016-09-30T09:09:01Z</time></trkpt>
<trkpt lat="53.0116680000" lon="-4.1023780000"><ele>36</ele><time>2016-09-30T09:09:02Z</time></trkpt>
<trkpt lat="53.0116660000" lon="-4.1023680000"><ele>36</ele><time>2016-09-30T09:09:03Z</time></trkpt>
<trkpt lat="53.0116640000" lon="-4.1023560000"><ele>35</ele><time>2016-09-30T09:09:04Z</time></trkpt>
<trkpt lat="53.0116610000" lon="-4.1023430000"><ele>35</ele></trkpt>
<trkpt lat="53.0116590000" lon="-4.1023300000"><ele>35</ele><time>2016-09-30T09:09:06Z</time></trkpt>
<trkpt lat="53.0116570000" lon="-4.1023150000"><ele>35</ele><time>2016-09-30T09:09:07Z</time></trkpt>
<trkpt lat="53.0116090000" lon="-4.1020070000"><ele>35</ele><time>2016-09-30T09:09:08Z</time></trkpt>
<trkpt lat="53.0116060000" lon="-4.1019830000"><ele>35</ele><time>2016-09-30T09:09:09Z</time></trkpt>
<trkpt lat="53.0116040000" lon="-4.1019630000"><ele>35</ele><time>2016-09-30T09:09:10Z</time></trkpt>
<trkpt lat="53.0116010000" lon="-4.1019390000"><ele>36</ele><time>2016-09-30T09:09:11Z</time></trkpt>
<trkpt lat="53.0115960000" lon="-4.1019150000"><ele>36</ele><time>2016-09-30T09:09:12Z</time></trkpt>
<trkpt lat="53.0115920000" lon="-4.1018920000"><ele>36</ele><time>2016-09-30T09:09:13Z</time></trkpt>
<trkpt lat="53.0115880000" lon="-4.1018740000"><ele>36</ele><time>2016-09-30T09:09:14Z</time></trkpt>
<trkpt lat="53.0115870000" lon="-4.1018540000"><ele>36</ele><time>2016-09-30T09:09:15Z</time></trkpt>
<trkpt lat="53.0115860000" lon="-4.1018340000"><ele>36</ele><time>2016-09-30T09:09:16Z</time></trkpt>
<trkpt lat="53.0115850000" lon="-4.1018150000"><ele>36</ele><time>2016-09-30T09:09:17Z</time></trkpt>
<trkpt lat="53.0115840000" lon="-4.1017940000"><ele>36</ele></trkpt>
<trkpt lat="53.0115820000" lon="-4.1017750000"><ele>36</ele><time>2016-09-30T09:09:19Z</time></trkpt>
<trkpt lat="53.0115800000" lon="-4.1017570000"><ele>36</ele><time>2016-09-30T09:09:20Z</time></trkpt>
<trkpt lat="53.0115800000" lon="-4.1017560000"><ele>36</ele><time>2016-09-30T09:09:21Z</time></trkpt>
<trkpt lat="53.0115800000" lon="-4.1017560000"><ele>36</ele><time>2016-09-30T09:09:22Z</time></trkpt>
<trkpt lat="53.0115800000" lon="-4.1017550000"><ele>36</ele><time>2016-09-30T09:09:23Z</time></trkpt>
<trkpt lat="53.0115800000" lon="-4.1017540000"><ele>36</ele></trkpt>
<trkpt lat="53.0115800000" lon="-4.1017520000"><ele>36</ele><time>2016-09-30T09:09:25Z</time></trkpt>
<trkpt lat="53.0115790000" lon="-4.1017500000"><ele>36</ele><time>2016-09-30T09:09:26Z</time></trkpt>
<trkpt lat="53.0115790000" lon="-4.1017460000"><ele>36</ele><time>2016-09-30T09:09:27Z</time></trkpt>
<trkpt lat="53.0115790000" lon="-4.1017420000"><ele>37</ele><time>2016-09-30T09:09:28Z</time></trkpt>
<trkpt lat="53.0115780000" lon="-4.1017370000"><ele>37</ele><time>2016-09-30T09:09:29Z</time></trkpt>
<trkpt lat="53.0115770000" lon="-4.1017310000"><ele>37</ele><time>2016-09-30T09:09:30Z</time></trkpt>
<trkpt lat="53.0115760000" lon="-4.1017250000"><ele>37</ele><time>2016-09-30T09:09:31Z</time></trkpt>
<trkpt lat="53.0115750000" lon="-4.1017180000"><ele>37</ele><time>2016-09-30T09:09:32Z</time></trkpt>
<trkpt lat="53.0115740000" lon="-4.1017110000"><ele>38</ele><time>2016-09-30T09:09:33Z</time></trkpt>
<trkpt lat="53.0115110000" lon="-4.1016430000"><ele>22</ele><time>2016-09-30T09:11:13Z</time></trkpt>
<trkpt lat="53.0115140000" lon="-4.1015050000"><ele>26</ele><time>2016-09-30T09:11:17Z</time></trkpt>
<trkpt lat="53.0115190000" lon="-4.1014210000"><ele>28</ele><time>2016-09-30T09:11:20Z</time></trkpt>
<trkpt lat="53.0115090000" lon="-4.1013630000"><ele>30</ele><time>2016-09-30T09:11:23Z</time></trkpt>
<trkpt lat="53.0115020000" lon="-4.1013140000"><ele>31</ele><time>2016-09-30T09:11:24Z</time></trkpt>
<trkpt lat="53.0115070000" lon="-4.1012750000"><ele>35</ele><time>2016-09-30T09:11:36Z</time></trkpt>
<trkpt lat="53.0115220000" lon="-4.1011470000"><ele>36</ele><time>2016-09-30T09:11:38Z</time></trkpt>
<trkpt lat="53.0115220000" lon="-4.1011340000"><ele>36</ele><time>2016-09-30T09:11:40Z</time></trkpt>
<trkpt lat="53.0115220000" lon="-4.1011330000"><ele>37</ele><time>2016-09-30T09:11:43Z</time></trkpt>
<trkpt lat="53.0115220000" lon="-4.1011330000"><ele>37</ele><time>2016-09-30T09:11:44Z</time></trkpt>
<trkpt lat="53.0115230000" lon="-4.1011330000"><ele>37</ele><time>2016-09-30T09:11:45Z</time></trkpt>
<trkpt lat="53.0115230000" lon="-4.1011330000"><ele>37</ele><time>2016-09-30T09:11:46Z</time></trkpt>
<trkpt lat="53.0115230000" lon="-4.1011330000"><ele>37</ele><time>2016-09-30T09:11:47Z</time></trkpt>
<trkpt lat="53.0115230000" lon="-4.1011320000"><ele>37</ele><time>2016-09-30T09:11:48Z</time></trkpt>
<trkpt lat="53.0115240000" lon="-4.1011300000"><ele>37</ele><time>2016-09-30T09:11:49Z</time></trkpt>
<trkpt lat="53.0115240000" lon="-4.1011280000"><ele>38</ele><time>2016-09-30T09:11:50Z</time></trkpt>
<trkpt lat="53.0115250000" lon="-4.1011260000"><ele>38</ele><time>2016-09-30T09:11:51Z</time></trkpt>
<trkpt lat="53.0115250000" lon="-4.1011240000"><ele>38</ele><time>2016-09-30T09:11:52Z</time></trkpt>
<trkpt lat="53.0115250000" lon="-4.1011220000"><ele>38</ele></trkpt>
<trkpt lat="53.0115260000" lon="-4.1011200000"><ele>38</ele><time>2016-09-30T09:11:54Z</time></trkpt>
<trkpt lat="53.0115260000" lon="-4.1011170000"><ele>38</ele><time>2016-09-30T09:11:55Z</time></trkpt>
<trkpt lat="53.0115260000" lon="-4.1011150000"><ele>38</ele><time>2016-09-30T09:11:56Z</time></trkpt>
<trkpt lat="53.0115270000" lon="-4.1011120000"><ele>39</ele><time>2016-09-30T09:11:57Z</time></trkpt>
<trkpt lat="53.0115270000" lon="-4.1011100000"><ele>39</ele><time>2016-09-30T09:11:58Z</time></trkpt>
<trkpt lat="53.0115270000" lon="-4.1011090000"><ele>39</ele></trkpt>
<trkpt lat="53.0115270000" lon="-4.1011070000"><ele>39</ele><time>2016-09-30T09:12:00Z</time></trkpt>
<trkpt lat="53.0115270000" lon="-4.1011050000"><ele>39</ele><time>2016-09-30T09:12:01Z</time></trkpt>
<trkpt lat="53.0115270000" lon="-4.1011030000"><ele>40</ele><time>2016-09-30T09:12:02Z</time></trkpt>
<trkpt lat="53.0115270000" lon="-4.1011000000"><ele>40</ele><time>2016-09-30T09:12:03Z</time></trkpt>
<trkpt lat="53.0115280000" lon="-4.1010970000"><ele>40</ele><time>2016-09-30T09:12:04Z</time></trkpt>
<trkpt lat="53.0115290000" lon="-4.1010930000"><ele>40</ele></trkpt>
<trkpt lat="53.0115300000" lon="-4.1010890000"><ele>40</ele><time>2016-09-30T09:12:06Z</time></trkpt>
<trkpt lat="53.0115300000" lon="-4.1010850000"><ele>40</ele><time>2016-09-30T09:12:07Z</time></trkpt>
<trkpt lat="53.0115310000" lon="-4.1010800000"><ele>40</ele><time>2016-09-30T09:12:08Z</time></trkpt>
<trkpt lat="53.0115320000" lon="-4.1010740000"><ele>40</ele><time>2016-09-30T09:12:09Z</time></trkpt>
<trkpt lat="53.0115330000" lon="-4.1010690000"><ele>40</ele><time>2016-09-30T09:12:10Z</time></trkpt>
<trkpt lat="53.0115330000" lon="-4.1010630000"><ele>40</ele><time>2016-09-30T09:12:11Z</time></trkpt>
<trkpt lat="53.0115340000" lon="-4.1010580000"><ele>41</ele><time>2016-09-30T09:12:12Z</time></trkpt>
<trkpt lat="53.0115350000" lon="-4.1010520000"><ele>41</ele><time>2016-09-30T09:12:13Z</time></trkpt>
<trkpt lat="53.0115360000" lon="-4.1010470000"><ele>41</ele><time>2016-09-30T09:12:14Z</time></trkpt>
<trkpt lat="53.0115360000" lon="-4.1010420000"><ele>41</ele><time>2016-09-30T09:12:15Z</time></trkpt>
<trkpt lat="53.0115360000" lon="-4.1010380000"><ele>41</ele><time>2016-09-30T09:12:16Z</time></trkpt>
<trkpt lat="53.0115360000" lon="-4.1010340000"><ele>41</ele><time>2016-09-30T09:12:17Z</time></trkpt>
<trkpt lat="53.0115350000" lon="-4.1010310000"><ele>41</ele></trkpt>
<trkpt lat="53.0115350000" lon="-4.1010270000"><ele>41</ele><time>2016-09-30T09:12:19Z</time></trkpt>
<trkpt lat="53.0115350000" lon="-4.1010240000"><ele>41</ele><time>2016-09-30T09:12:20Z</time></trkpt>
<trkpt lat="53.0115350000" lon="-4.1010200000"><ele>41</ele><time>2016-09-30T09:12:21Z</time></trkpt>
<trkpt lat="53.0115350000" lon="-4.1010150000"><ele>41</ele><time>2016-09-30T09:12:22Z</time></trkpt>
<trkpt lat="53.0115360000" lon="-4.1010110000"><ele>41</ele><time>2016-09-30T09:12:23Z</time></trkpt>
<trkpt lat="53.0115360000" lon="-4.1010060000"><ele>41</ele></trkpt>
<trkpt lat="53.0115370000" lon="-4.1010000000"><ele>41</ele><time>2016-09-30T09:12:25Z</time></trkpt>
<trkpt lat="53.0115390000" lon="-4.1009940000"><ele>41</ele><time>2016-09-30T09:12:26Z</time></trkpt>
<trkpt lat="53.0115400000" lon="-4.1009880000"><ele>41</ele><time>2016-09-30T09:12:27Z</time></trkpt>
<trkpt lat="53.0115420000" lon="-4.1009810000"><ele>41</ele><time>2016-09-30T09:12:28Z</time></trkpt>
<trkpt lat="53.0115440000" lon="-4.1009730000"><ele>41</ele><time>2016-09-30T09:12:29Z</time></trkpt>
<trkpt lat="53.0115470000" lon="-4.1009650000"><ele>41</ele><time>2016-09-30T09:12:30Z</time></trkpt>
<trkpt lat="53.0115500000" lon="-4.1009560000"><ele>41</ele><time>2016-09-30T09:12:31Z</time></trkpt>
<trkpt lat="53.0115530000" lon="-4.1009470000"><ele>40</ele><time>2016-09-30T09:12:32Z</time></trkpt>
<trkpt lat="53.0115560000" lon="-4.1009380000"><ele>40</ele><time>2016-09-30T09:12:33Z</time></trkpt>
<trkpt lat="53.0115610000" lon="-4.1009290000"><ele>40</ele></trkpt>
<trkpt lat="53.0115650000" lon="-4.1009190000"><ele>40</ele><time>2016-09-30T09:12:35Z</time></trkpt>
<trkpt lat="53.0115700000" lon="-4.1009090000"><ele>40</ele><time>2016-09-30T09:12:36Z</time></trkpt>
<trkpt lat="53.0115750000" lon="-4.1008990000"><ele>40</ele><time>2016-09-30T09:12:37Z</time></trkpt>
<trkpt lat="53.0115810000" lon="-4.1008890000"><ele>40</ele><time>2016-09-30T09:12:38Z</time></trkpt>
<trkpt lat="53.0115980000" lon="-4.1008630000"><ele>40</ele><time>2016-09-30T09:12:41Z</time></trkpt>
<trkpt lat="53.0117250000" lon="-4.1006820000"><ele>40</ele><time>2016-09-30T09:12:43Z</time></trkpt>
<trkpt lat="53.0117460000" lon="-4.1006540000"><ele>40</ele><time>2016-09-30T09:12:45Z</time></trkpt>
<trkpt lat="53.0117630000" lon="-4.1006330000"><ele>39</ele><time>2016-09-30T09:12:54Z</time></trkpt>
<trkpt lat="53.0118020000" lon="-4.1006130000"><ele>37</ele><time>2016-09-30T09:13:03Z</time></trkpt>
<trkpt lat="53.0119590000" lon="-4.1005500000"><ele>37</ele><time>2016-09-30T09:13:04Z</time></trkpt>
<trkpt lat="53.0119830000" lon="-4.1005460000"><ele>37</ele><time>2016-09-30T09:13:08Z</time></trkpt>
<trkpt lat="53.0120060000" lon="-4.1005320000"><ele>37</ele><time>2016-09-30T09:13:09Z</time></trkpt>
<trkpt lat="53.0120280000" lon="-4.1005130000"><ele>37</ele><time>2016-09-30T09:13:12Z</time></trkpt>
<trkpt lat="53.0120700000" lon="-4.1004840000"><ele>38</ele><time>2016-09-30T09:13:14Z</time></trkpt>
<trkpt lat="53.0120980000" lon="-4.1004590000"><ele>38</ele><time>2016-09-30T09:13:16Z</time></trkpt>
<trkpt lat="53.0121180000" lon="-4.1004360000"><ele>38</ele><time>2016-09-30T09:13:18Z</time></trkpt>
<trkpt lat="53.0121330000" lon="-4.1004170000"><ele>40</ele><time>2016-09-30T09:13:27Z</time></trkpt>
<trkpt lat="53.0122380000" lon="-4.1003090000"><ele>40</ele><time>2016-09-30T09:13:29Z</time></trkpt>
<trkpt lat="53.0122430000" lon="-4.1002580000"><ele>40</ele><time>2016-09-30T09:13:32Z</time></trkpt>
<trkpt lat="53.0122480000" lon="-4.1002230000"><ele>40</ele><time>2016-09-30T09:13:34Z</time></trkpt>
<trkpt lat="53.0122460000" lon="-4.1002050000"><ele>40</ele><time>2016-09-30T09:13:37Z</time></trkpt>
<trkpt lat="53.0122460000" lon="-4.1002040000"><ele>40</ele><time>2016-09-30T09:13:39Z</time></trkpt>
<trkpt lat="53.0122450000" lon="-4.1002020000"><ele>40</ele><time>2016-09-30T09:13:40Z</time></trkpt>
<trkpt lat="53.0122440000" lon="-4.1002000000"><ele>40</ele><time>2016-09-30T09:13:41Z</time></trkpt>
<trkpt lat="53.0122430000" lon="-4.1001970000"><ele>40</ele><time>2016-09-30T09:13:42Z</time></trkpt>
<trkpt lat="53.0122420000" lon="-4.1001930000"><ele>40</ele><time>2016-09-30T09:13:43Z</time></trkpt>
<trkpt lat="53.0122400000" lon="-4.1001890000"><ele>40</ele></trkpt>
<trkpt lat="53.0122380000" lon="-4.1001840000"><ele>40</ele><time>2016-09-30T09:13:45Z</time></trkpt>
<trkpt lat="53.0122350000" lon="-4.1001780000"><ele>40</ele><time>2016-09-30T09:13:46Z</time></trkpt>
<trkpt lat="53.0122320000" lon="-4.1001710000"><ele>40</ele><time>2016-09-30T09:13:47Z</time></trkpt>
<trkpt lat="53.0122290000" lon="-4.1001650000"><ele>40</ele><time>2016-09-30T09:13:48Z</time></trkpt>
<trkpt lat="53.0122260000" lon="-4.1001570000"><ele>40</ele><time>2016-09-30T09:13:49Z</time></trkpt>
<trkpt lat="53.0122220000" lon="-4.1001490000"><ele>40</ele><time>2016-09-30T09:13:50Z</time></trkpt>
<trkpt lat="53.0122180000" lon="-4.1001400000"><ele>40</ele><time>2016-09-30T09:13:51Z</time></trkpt>
<trkpt lat="53.0122130000" lon="-4.1001300000"><ele>40</ele><time>2016-09-30T09:13:52Z</time></trkpt>
<trkpt lat="53.0122080000" lon="-4.1001200000"><ele>40</ele><time>2016-09-30T09:13:53Z</time></trkpt>
<trkpt lat="53.0122030000" lon="-4.1001090000"><ele>40</ele><time>2016-09-30T09:13:54Z</time></trkpt>
<trkpt lat="53.0121980000" lon="-4.1000980000"><ele>41</ele><time>2016-09-30T09:13:55Z</time></trkpt>
<trkpt lat="53.0121920000" lon="-4.1000860000"><ele>41</ele><time>2016-09-30T09:13:56Z</time></trkpt>
<trkpt lat="53.0121860000" lon="-4.1000740000"><ele>41</ele><time>2016-09-30T09:13:57Z</time></trkpt>
<trkpt lat="53.0121800000" lon="-4.1000610000"><ele>41</ele><time>2016-09-30T09:13:58Z</time></trkpt>
<trkpt lat="53.0121740000" lon="-4.1000480000"><ele>41</ele><time>2016-09-30T09:13:59Z</time></trkpt>
<trkpt lat="53.0120540000" lon="-4.0997950000"><ele>41</ele><time>2016-09-30T09:14:00Z</time></trkpt>
<trkpt lat="53.0120470000" lon="-4.0997800000"><ele>41</ele><time>2016-09-30T09:14:01Z</time></trkpt>
<trkpt lat="53.0120390000" lon="-4.0997640000"><ele>42</ele><time>2016-09-30T09:14:02Z</time></trkpt>
<trkpt lat="53.0120310000" lon="-4.0997500000"><ele>42</ele></trkpt>
<trkpt lat="53.0120240000" lon="-4.0997340000"><ele>42</ele><time>2016-09-30T09:14:04Z</time></trkpt>
<trkpt lat="53.0120190000" lon="-4.0997180000"><ele>42</ele><time>2016-09-30T09:14:05Z</time></trkpt>
<trkpt lat="53.0120190000" lon="-4.0997170000"><ele>42</ele><time>2016-09-30T09:14:07Z</time></trkpt>
<trkpt lat="53.0120180000" lon="-4.0997160000"><ele>42</ele><time>2016-09-30T09:14:08Z</time></trkpt>
<trkpt lat="53.0120180000" lon="-4.0997150000"><ele>42</ele></trkpt>
<trkpt lat="53.0120170000" lon="-4.0997140000"><ele>42</ele><time>2016-09-30T09:14:10Z</time></trkpt>
<trkpt lat="53.0120160000" lon="-4.0997120000"><ele>42</ele><time>2016-09-30T09:14:11Z</time></trkpt>
<trkpt lat="53.0120140000" lon="-4.0997090000"><ele>42</ele><time>2016-09-30T09:14:12Z</time></trkpt>
<trkpt lat="53.0120020000" lon="-4.0996840000"><ele>42</ele><time>2016-09-30T09:14:17Z</time></trkpt>
<trkpt lat="53.0119990000" lon="-4.0996770000"><ele>42</ele><time>2016-09-30T09:14:18Z</time></trkpt>
<trkpt lat="53.0119010000" lon="-4.0994790000"><ele>42</ele><time>2016-09-30T09:14:19Z</time></trkpt>
<trkpt lat="53.0118900000" lon="-4.0994620000"><ele>42</ele><time>2016-09-30T09:14:20Z</time></trkpt>
<trkpt lat="53.0118820000" lon="-4.0994450000"><ele>41</ele><time>2016-09-30T09:14:21Z</time></trkpt>
<trkpt lat="53.0118760000" lon="-4.0994280000"><ele>41</ele></trkpt>
<trkpt lat="53.0118710000" lon="-4.0994100000"><ele>41</ele><time>2016-09-30T09:14:23Z</time></trkpt>
<trkpt lat="53.0118660000" lon="-4.0993910000"><ele>41</ele><time>2016-09-30T09:14:24Z</time></trkpt>
<trkpt lat="53.0118620000" lon="-4.0993720000"><ele>41</ele><time>2016-09-30T09:14:25Z</time></trkpt>
<trkpt lat="53.0118540000" lon="-4.0993540000"><ele>41</ele><time>2016-09-30T09:14:26Z</time></trkpt>
<trkpt lat="53.0118470000" lon="-4.0993390000"><ele>41</ele><time>2016-09-30T09:14:27Z</time></trkpt>
<trkpt lat="53.0118250000" lon="-4.0992980000"><ele>39</ele><time>2016-09-30T09:14:43Z</time></trkpt>
<trkpt lat="53.0117180000" lon="-4.0990940000"><ele>39</ele><time>2016-09-30T09:14:46Z</time></trkpt>
<trkpt lat="53.0117000000" lon="-4.0990360000"><ele>39</ele><time>2016-09-30T09:14:49Z</time></trkpt>
<trkpt lat="53.0116840000" lon="-4.0989920000"><ele>39</ele><time>2016-09-30T09:14:52Z</time></trkpt>
<trkpt lat="53.0117390000" lon="-4.0985890000"><ele>50</ele><time>2016-09-30T09:16:03Z</time></trkpt>
<trkpt lat="53.0117670000" lon="-4.0983980000"><ele>52</ele><time>2016-09-30T09:16:20Z</time></trkpt>
<trkpt lat="53.0117320000" lon="-4.0981980000"><ele>61</ele><time>2016-09-30T09:18:07Z</time></trkpt>
<trkpt lat="53.0117690000" lon="-4.0980820000"><ele>63</ele><time>2016-09-30T09:18:32Z</time></trkpt>
<trkpt lat="53.0118340000" lon="-4.0978100000"><ele>75</ele><time>2016-09-30T09:19:40Z</time></trkpt>
<trkpt lat="53.0118740000" lon="-4.0977970000"><ele>75</ele><time>2016-09-30T09:19:41Z</time></trkpt>
<trkpt lat="53.0118760000" lon="-4.0977950000"><ele>76</ele><time>2016-09-30T09:19:42Z</time></trkpt>
<trkpt lat="53.0118770000" lon="-4.0977950000"><ele>76</ele><time>2016-09-30T09:19:43Z</time></trkpt>
<trkpt lat="53.0118770000" lon="-4.0977950000"><ele>76</ele><time>2016-09-30T09:19:48Z</time></trkpt>
<trkpt lat="53.0118770000" lon="-4.0977950000"><ele>76</ele><time>2016-09-30T09:19:49Z</time></trkpt>
<trkpt lat="53.0118770000" lon="-4.0977950000"><ele>76</ele><time>2016-09-30T09:19:50Z</time></trkpt>
<trkpt lat="53.0118770000" lon="-4.0977950000"><ele>76</ele><time>2016-09-30T09:19:51Z</time></trkpt>
<trkpt lat="53.0118770000" lon="-4.0977940000"><ele>75</ele><time>2016-09-30T09:19:52Z</time></trkpt>
<trkpt lat="53.0118770000" lon="-4.0977930000"><ele>75</ele></trkpt>
<trkpt lat="53.0118780000" lon="-4.0977930000"><ele>75</ele><time>2016-09-30T09:19:54Z</time></trkpt>
<trkpt lat="53.0118780000" lon="-4.0977920000"><ele>75</ele><time>2016-09-30T09:19:55Z</time></trkpt>
<trkpt lat="53.0118780000" lon="-4.0977900000"><ele>75</ele><time>2016-09-30T09:19:56Z</time></trkpt>
<trkpt lat="53.0118780000" lon="-4.0977890000"><ele>75</ele><time>2016-09-30T09:19:57Z</time></trkpt>
<trkpt lat="53.0118780000" lon="-4.0977870000"><ele>75</ele><time>2016-09-30T09:19:58Z</time></trkpt>
<trkpt lat="53.0118780000" lon="-4.0977860000"><ele>75</ele></trkpt>
<trkpt lat="53.0118780000" lon="-4.0977840000"><ele>75</ele><time>2016-09-30T09:20:00Z</time></trkpt>
<trkpt lat="53.0118780000" lon="-4.0977820000"><ele>74</ele><time>2016-09-30T09:20:01Z</time></trkpt>
<trkpt lat="53.0118790000" lon="-4.0977800000"><ele>74</ele><time>2016-09-30T09:20:02Z</time></trkpt>
<trkpt lat="53.0118790000" lon="-4.0977770000"><ele>74</ele><time>2016-09-30T09:20:03Z</time></trkpt>
<trkpt lat="53.0118800000" lon="-4.0977740000"><ele>74</ele><time>2016-09-30T09:20:04Z</time></trkpt>
<trkpt lat="53.0118800000" lon="-4.0977700000"><ele>74</ele><time>2016-09-30T09:20:05Z</time></trkpt>
<trkpt lat="53.0118820000" lon="-4.0977630000"><ele>75</ele><time>2016-09-30T09:20:07Z</time></trkpt>
<trkpt lat="53.0118830000" lon="-4.0977590000"><ele>75</ele><time>2016-09-30T09:20:08Z</time></trkpt>
<trkpt lat="53.0118840000" lon="-4.0977560000"><ele>75</ele><time>2016-09-30T09:20:09Z</time></trkpt>
<trkpt lat="53.0118860000" lon="-4.0977520000"><ele>75</ele><time>2016-09-30T09:20:10Z</time></trkpt>
<trkpt lat="53.0118870000" lon="-4.0977480000"><ele>75</ele><time>2016-09-30T09:20:11Z</time></trkpt>
<trkpt lat="53.0118890000" lon="-4.0977440000"><ele>75</ele><time>2016-09-30T09:20:12Z</time></trkpt>
<trkpt lat="53.0118900000" lon="-4.0977410000"><ele>76</ele><time>2016-09-30T09:20:13Z</time></trkpt>
<trkpt lat="53.0118920000" lon="-4.0977380000"><ele>76</ele><time>2016-09-30T09:20:14Z</time></trkpt>
<trkpt lat="53.0118940000" lon="-4.0977340000"><ele>76</ele></trkpt>
<trkpt lat="53.0118960000" lon="-4.0977310000"><ele>77</ele><time>2016-09-30T09:20:16Z</time></trkpt>
<trkpt lat="53.0118980000" lon="-4.0977280000"><ele>77</ele><time>2016-09-30T09:20:17Z</time></trkpt>
<trkpt lat="53.0119210000" lon="-4.0976840000"><ele>80</ele><time>2016-09-30T09:20:26Z</time></trkpt>
<trkpt lat="53.0119420000" lon="-4.0975940000"><ele>81</ele><time>2016-09-30T09:20:28Z</time></trkpt>
<trkpt lat="53.0119410000" lon="-4.0975880000"><ele>81</ele><time>2016-09-30T09:20:29Z</time></trkpt>
<trkpt lat="53.0119510000" lon="-4.0975510000"><ele>87</ele><time>2016-09-30T09:20:50Z</time></trkpt>
<trkpt lat="53.0120030000" lon="-4.0974760000"><ele>87</ele><time>2016-09-30T09:20:51Z</time></trkpt>
<trkpt lat="53.0120130000" lon="-4.0974540000"><ele>89</ele><time>2016-09-30T09:21:00Z</time></trkpt>
<trkpt lat="53.0120150000" lon="-4.0974520000"><ele>90</ele><time>2016-09-30T09:21:01Z</time></trkpt>
<trkpt lat="53.0120160000" lon="-4.0974510000"><ele>90</ele><time>2016-09-30T09:21:02Z</time></trkpt>
<trkpt lat="53.0120180000" lon="-4.0974500000"><ele>90</ele><time>2016-09-30T09:21:03Z</time></trkpt>
<trkpt lat="53.0120190000" lon="-4.0974480000"><ele>90</ele><time>2016-09-30T09:21:04Z</time></trkpt>
<trkpt lat="53.0120210000" lon="-4.0974460000"><ele>90</ele></trkpt>
<trkpt lat="53.0120220000" lon="-4.0974450000"><ele>91</ele><time>2016-09-30T09:21:07Z</time></trkpt>
<trkpt lat="53.0120390000" lon="-4.0974200000"><ele>91</ele><time>2016-09-30T09:21:14Z</time></trkpt>
<trkpt lat="53.0121210000" lon="-4.0972860000"><ele>92</ele><time>2016-09-30T09:21:16Z</time></trkpt>
<trkpt lat="53.0121300000" lon="-4.0972640000"><ele>92</ele><time>2016-09-30T09:21:19Z</time></trkpt>
<trkpt lat="53.0121300000" lon="-4.0972630000"><ele>92</ele><time>2016-09-30T09:21:22Z</time></trkpt>
<trkpt lat="53.0121300000" lon="-4.0972630000"><ele>92</ele><time>2016-09-30T09:21:23Z</time></trkpt>
<trkpt lat="53.0121290000" lon="-4.0972630000"><ele>93</ele><time>2016-09-30T09:21:24Z</time></trkpt>
<trkpt lat="53.0121290000" lon="-4.0972620000"><ele>93</ele><time>2016-09-30T09:21:25Z</time></trkpt>
<trkpt lat="53.0121290000" lon="-4.0972620000"><ele>93</ele><time>2016-09-30T09:21:26Z</time></trkpt>
<trkpt lat="53.0121290000" lon="-4.0972610000"><ele>93</ele></trkpt>
<trkpt lat="53.0121280000" lon="-4.0972590000"><ele>93</ele><time>2016-09-30T09:21:28Z</time></trkpt>
<trkpt lat="53.0121280000" lon="-4.0972570000"><ele>93</ele><time>2016-09-30T09:21:29Z</time></trkpt>
<trkpt lat="53.0121270000" lon="-4.0972560000"><ele>93</ele><time>2016-09-30T09:21:30Z</time></trkpt>
<trkpt lat="53.0121270000" lon="-4.0972540000"><ele>93</ele><time>2016-09-30T09:21:31Z</time></trkpt>
<trkpt lat="53.0121270000" lon="-4.0972510000"><ele>94</ele><time>2016-09-30T09:21:32Z</time></trkpt>
<trkpt lat="53.0121270000" lon="-4.0972490000"><ele>94</ele><time>2016-09-30T09:21:33Z</time></trkpt>
<trkpt lat="53.0121280000" lon="-4.0972470000"><ele>94</ele><time>2016-09-30T09:21:34Z</time></trkpt>
<trkpt lat="53.0121280000" lon="-4.0972440000"><ele>94</ele><time>2016-09-30T09:21:35Z</time></trkpt>
<trkpt lat="53.0121280000" lon="-4.0972420000"><ele>94</ele><time>2016-09-30T09:21:36Z</time></trkpt>
<trkpt lat="53.0121290000" lon="-4.0972390000"><ele>95</ele><time>2016-09-30T09:21:37Z</time></trkpt>
<trkpt lat="53.0121290000" lon="-4.0972370000"><ele>95</ele><time>2016-09-30T09:21:38Z</time></trkpt>
<trkpt lat="53.0121290000" lon="-4.0972340000"><ele>95</ele><time>2016-09-30T09:21:39Z</time></trkpt>
<trkpt lat="53.0121280000" lon="-4.0972320000"><ele>95</ele></trkpt>
<trkpt lat="53.0121270000" lon="-4.0972290000"><ele>96</ele><time>2016-09-30T09:21:41Z</time></trkpt>
<trkpt lat="53.0121270000" lon="-4.0972280000"><ele>96</ele><time>2016-09-30T09:21:42Z</time></trkpt>
<trkpt lat="53.0121260000" lon="-4.0972260000"><ele>96</ele><time>2016-09-30T09:21:43Z</time></trkpt>
<trkpt lat="53.0121250000" lon="-4.0972240000"><ele>96</ele><time>2016-09-30T09:21:44Z</time></trkpt>
<trkpt lat="53.0121060000" lon="-4.0972110000"><ele>98</ele><time>2016-09-30T09:21:53Z</time></trkpt>
<trkpt lat="53.0121030000" lon="-4.0972110000"><ele>98</ele><time>2016-09-30T09:21:54Z</time></trkpt>
<trkpt lat="53.0120990000" lon="-4.0972120000"><ele>99</ele><time>2016-09-30T09:21:55Z</time></trkpt>
<trkpt lat="53.0120960000" lon="-4.0972120000"><ele>99</ele><time>2016-09-30T09:21:56Z</time></trkpt>
<trkpt lat="53.0120910000" lon="-4.0972130000"><ele>99</ele><time>2016-09-30T09:21:57Z</time></trkpt>
<trkpt lat="53.0120870000" lon="-4.0972140000"><ele>99</ele><time>2016-09-30T09:21:58Z</time></trkpt>
<trkpt lat="53.0120830000" lon="-4.0972150000"><ele>99</ele></trkpt>
<trkpt lat="53.0120780000" lon="-4.0972170000"><ele>99</ele><time>2016-09-30T09:22:00Z</time></trkpt>
<trkpt lat="53.0120730000" lon="-4.0972180000"><ele>100</ele><time>2016-09-30T09:22:01Z</time></trkpt>
<trkpt lat="53.0120700000" lon="-4.0972180000"><ele>100</ele><time>2016-09-30T09:22:02Z</time></trkpt>
<trkpt lat="53.0120670000" lon="-4.0972180000"><ele>100</ele><time>2016-09-30T09:22:03Z</time></trkpt>
<trkpt lat="53.0120640000" lon="-4.0972170000"><ele>100</ele><time>2016-09-30T09:22:04Z</time></trkpt>
<trkpt lat="53.0120460000" lon="-4.0971980000"><ele>101</ele><time>2016-09-30T09:22:13Z</time></trkpt>
<trkpt lat="53.0120440000" lon="-4.0971950000"><ele>101</ele><time>2016-09-30T09:22:14Z</time></trkpt>
<trkpt lat="53.0120430000" lon="-4.0971920000"><ele>101</ele><time>2016-09-30T09:22:15Z</time></trkpt>
<trkpt lat="53.0120330000" lon="-4.0971720000"><ele>101</ele><time>2016-09-30T09:22:20Z</time></trkpt>
<trkpt lat="53.0120030000" lon="-4.0971440000"><ele>100</ele><time>2016-09-30T09:22:31Z</time></trkpt>
<trkpt lat="53.0119350000" lon="-4.0971160000"><ele>100</ele><time>2016-09-30T09:22:32Z</time></trkpt>
<trkpt lat="53.0119290000" lon="-4.0971180000"><ele>101</ele><time>2016-09-30T09:22:33Z</time></trkpt>
<trkpt lat="53.0119220000" lon="-4.0971190000"><ele>101</ele><time>2016-09-30T09:22:34Z</time></trkpt>
<trkpt lat="53.0119220000" lon="-4.0971190000"><ele>101</ele><time>2016-09-30T09:22:35Z</time></trkpt>
<trkpt lat="53.0119220000" lon="-4.0971190000"><ele>101</ele><time>2016-09-30T09:22:36Z</time></trkpt>
<trkpt lat="53.0119220000" lon="-4.0971190000"><ele>101</ele><time>2016-09-30T09:22:37Z</time></trkpt>
<trkpt lat="53.0119220000" lon="-4.0971190000"><ele>101</ele><time>2016-09-30T09:22:38Z</time></trkpt>
<trkpt lat="53.0119210000" lon="-4.0971190000"><ele>101</ele><time>2016-09-30T09:22:39Z</time></trkpt>
<trkpt lat="53.0119210000" lon="-4.0971180000"><ele>101</ele></trkpt>
<trkpt lat="53.0119200000" lon="-4.0971180000"><ele>101</ele><time>2016-09-30T09:22:41Z</time></trkpt>
<trkpt lat="53.0119190000" lon="-4.0971180000"><ele>101</ele><time>2016-09-30T09:22:42Z</time></trkpt>
<trkpt lat="53.0119180000" lon="-4.0971170000"><ele>101</ele><time>2016-09-30T09:22:43Z</time></trkpt>
<trkpt lat="53.0119160000" lon="-4.0971170000"><ele>101</ele><time>2016-09-30T09:22:44Z</time></trkpt>
<trkpt lat="53.0119150000" lon="-4.0971170000"><ele>101</ele><time>2016-09-30T09:22:45Z</time></trkpt>
<trkpt lat="53.0119130000" lon="-4.0971170000"><ele>102</ele></trkpt>
<trkpt lat="53.0119110000" lon="-4.0971160000"><ele>102</ele><time>2016-09-30T09:22:47Z</time></trkpt>
<trkpt lat="53.0119090000" lon="-4.0971160000"><ele>102</ele><time>2016-09-30T09:22:48Z</time></trkpt>
<trkpt lat="53.0119060000" lon="-4.0971160000"><ele>102</ele><time>2016-09-30T09:22:49Z</time></trkpt>
<trkpt lat="53.0119030000" lon="-4.0971160000"><ele>102</ele><time>2016-09-30T09:22:50Z</time></trkpt>
<trkpt lat="53.0119000000" lon="-4.0971160000"><ele>102</ele><time>2016-09-30T09:22:51Z</time></trkpt>
<trkpt lat="53.0118960000" lon="-4.0971160000"><ele>103</ele></trkpt>
<trkpt lat="53.0118920000" lon="-4.0971160000"><ele>103</ele><time>2016-09-30T09:22:53Z</time></trkpt>
<trkpt lat="53.0118880000" lon="-4.0971160000"><ele>103</ele><time>2016-09-30T09:22:54Z</time></trkpt>
<trkpt lat="53.0118830000" lon="-4.0971160000"><ele>104</ele><time>2016-09-30T09:22:55Z</time></trkpt>
<trkpt lat="53.0118790000" lon="-4.0971160000"><ele>104</ele><time>2016-09-30T09:22:56Z</time></trkpt>
<trkpt lat="53.0118740000" lon="-4.0971160000"><ele>104</ele><time>2016-09-30T09:22:57Z</time></trkpt>
<trkpt lat="53.0118690000" lon="-4.0971160000"><ele>104</ele><time>2016-09-30T09:22:58Z</time></trkpt>
<trkpt lat="53.0118640000" lon="-4.0971160000"><ele>105</ele><time>2016-09-30T09:22:59Z</time></trkpt>
<trkpt lat="53.0118590000" lon="-4.0971160000"><ele>105</ele><time>2016-09-30T09:23:00Z</time></trkpt>
<trkpt lat="53.0118540000" lon="-4.0971160000"><ele>105</ele><time>2016-09-30T09:23:01Z</time></trkpt>
<trkpt lat="53.0118490000" lon="-4.0971160000"><ele>106</ele><time>2016-09-30T09:23:02Z</time></trkpt>
<trkpt lat="53.0118440000" lon="-4.0971160000"><ele>106</ele><time>2016-09-30T09:23:03Z</time></trkpt>
<trkpt lat="53.0118390000" lon="-4.0971150000"><ele>106</ele><time>2016-09-30T09:23:04Z</time></trkpt>
<trkpt lat="53.0118340000" lon="-4.0971140000"><ele>106</ele></trkpt>
<trkpt lat="53.0118250000" lon="-4.0971110000"><ele>107</ele><time>2016-09-30T09:23:07Z</time></trkpt>
<trkpt lat="53.0118200000" lon="-4.0971100000"><ele>107</ele><time>2016-09-30T09:23:08Z</time></trkpt>
<trkpt lat="53.0118150000" lon="-4.0971080000"><ele>107</ele><time>2016-09-30T09:23:09Z</time></trkpt>
<trkpt lat="53.0118100000" lon="-4.0971050000"><ele>108</ele><time>2016-09-30T09:23:10Z</time></trkpt>
<trkpt lat="53.0118050000" lon="-4.0971030000"><ele>108</ele><time>2016-09-30T09:23:11Z</time></trkpt>
<trkpt lat="53.0118000000" lon="-4.0971000000"><ele>108</ele><time>2016-09-30T09:23:12Z</time></trkpt>
<trkpt lat="53.0117950000" lon="-4.0970980000"><ele>108</ele><time>2016-09-30T09:23:13Z</time></trkpt>
<trkpt lat="53.0117900000" lon="-4.0970950000"><ele>108</ele><time>2016-09-30T09:23:14Z</time></trkpt>
<trkpt lat="53.0117850000" lon="-4.0970920000"><ele>109</ele></trkpt>
<trkpt lat="53.0117800000" lon="-4.0970890000"><ele>109</ele><time>2016-09-30T09:23:16Z</time></trkpt>
<trkpt lat="53.0117750000" lon="-4.0970860000"><ele>109</ele><time>2016-09-30T09:23:17Z</time></trkpt>
<trkpt lat="53.0117700000" lon="-4.0970830000"><ele>109</ele><time>2016-09-30T09:23:18Z</time></trkpt>
<trkpt lat="53.0117660000" lon="-4.0970790000"><ele>109</ele><time>2016-09-30T09:23:19Z</time></trkpt>
<trkpt lat="53.0117620000" lon="-4.0970750000"><ele>110</ele><time>2016-09-30T09:23:20Z</time></trkpt>
<trkpt lat="53.0117590000" lon="-4.0970710000"><ele>110</ele></trkpt>
<trkpt lat="53.0117560000" lon="-4.0970660000"><ele>110</ele><time>2016-09-30T09:23:22Z</time></trkpt>
<trkpt lat="53.0117540000" lon="-4.0970620000"><ele>110</ele><time>2016-09-30T09:23:23Z</time></trkpt>
<trkpt lat="53.0117520000" lon="-4.0970570000"><ele>111</ele><time>2016-09-30T09:23:24Z</time></trkpt>
<trkpt lat="53.0117510000" lon="-4.0970530000"><ele>111</ele><time>2016-09-30T09:23:25Z</time></trkpt>
<trkpt lat="53.0117500000" lon="-4.0970480000"><ele>111</ele><time>2016-09-30T09:23:26Z</time></trkpt>
<trkpt lat="53.0117500000" lon="-4.0970440000"><ele>111</ele></trkpt>
<trkpt lat="53.0117500000" lon="-4.0970400000"><ele>111</ele><time>2016-09-30T09:23:28Z</time></trkpt>
<trkpt lat="53.0117500000" lon="-4.0970360000"><ele>112</ele><time>2016-09-30T09:23:29Z</time></trkpt>
<trkpt lat="53.0117510000" lon="-4.0970320000"><ele>112</ele><time>2016-09-30T09:23:30Z</time></trkpt>
<trkpt lat="53.0117510000" lon="-4.0970280000"><ele>112</ele><time>2016-09-30T09:23:31Z</time></trkpt>
<trkpt lat="53.0117520000" lon="-4.0970240000"><ele>112</ele><time>2016-09-30T09:23:32Z</time></trkpt>
<trkpt lat="53.0117530000" lon="-4.0970200000"><ele>112</ele><time>2016-09-30T09:23:33Z</time></trkpt>
<trkpt lat="53.0117540000" lon="-4.0970150000"><ele>112</ele><time>2016-09-30T09:23:34Z</time></trkpt>
<trkpt lat="53.0117540000" lon="-4.0970110000"><ele>113</ele><time>2016-09-30T09:23:35Z</time></trkpt>
<trkpt lat="53.0117550000" lon="-4.0970070000"><ele>113</ele><time>2016-09-30T09:23:36Z</time></trkpt>
<trkpt lat="53.0117560000" lon="-4.0970030000"><ele>113</ele><time>2016-09-30T09:23:37Z</time></trkpt>
<trkpt lat="53.0117570000" lon="-4.0969990000"><ele>113</ele><time>2016-09-30T09:23:38Z</time></trkpt>
<trkpt lat="53.0117590000" lon="-4.0969950000"><ele>113</ele><time>2016-09-30T09:23:39Z</time></trkpt>
<trkpt lat="53.0117600000" lon="-4.0969900000"><ele>113</ele></trkpt>
<trkpt lat="53.0117610000" lon="-4.0969860000"><ele>114</ele><time>2016-09-30T09:23:41Z</time></trkpt>
<trkpt lat="53.0117620000" lon="-4.0969810000"><ele>114</ele><time>2016-09-30T09:23:42Z</time></trkpt>
<trkpt lat="53.0117630000" lon="-4.0969760000"><ele>114</ele><time>2016-09-30T09:23:43Z</time></trkpt>
<trkpt lat="53.0117640000" lon="-4.0969710000"><ele>114</ele><time>2016-09-30T09:23:44Z</time></trkpt>
<trkpt lat="53.0117640000" lon="-4.0969660000"><ele>115</ele><time>2016-09-30T09:23:45Z</time></trkpt>
<trkpt lat="53.0117650000" lon="-4.0969610000"><ele>115</ele></trkpt>
<trkpt lat="53.0117660000" lon="-4.0969560000"><ele>115</ele><time>2016-09-30T09:23:47Z</time></trkpt>
<trkpt lat="53.0117660000" lon="-4.0969510000"><ele>115</ele><time>2016-09-30T09:23:48Z</time></trkpt>
<trkpt lat="53.0117670000" lon="-4.0969460000"><ele>115</ele><time>2016-09-30T09:23:49Z</time></trkpt>
<trkpt lat="53.0117660000" lon="-4.0969420000"><ele>115</ele><time>2016-09-30T09:23:50Z</time></trkpt>
<trkpt lat="53.0117660000" lon="-4.0969380000"><ele>116</ele><time>2016-09-30T09:23:51Z</time></trkpt>
<trkpt lat="53.0117650000" lon="-4.0969340000"><ele>116</ele><time>2016-09-30T09:23:52Z</time></trkpt>
<trkpt lat="53.0117640000" lon="-4.0969300000"><ele>116</ele><time>2016-09-30T09:23:53Z</time></trkpt>
<trkpt lat="53.0117630000" lon="-4.0969260000"><ele>116</ele><time>2016-09-30T09:23:54Z</time></trkpt>
<trkpt lat="53.0117610000" lon="-4.0969220000"><ele>116</ele><time>2016-09-30T09:23:55Z</time></trkpt>
<trkpt lat="53.0117590000" lon="-4.0969180000"><ele>116</ele><time>2016-09-30T09:23:56Z</time></trkpt>
<trkpt lat="53.0117570000" lon="-4.0969150000"><ele>116</ele><time>2016-09-30T09:23:57Z</time></trkpt>
<trkpt lat="53.0117550000" lon="-4.0969110000"><ele>117</ele><time>2016-09-30T09:23:58Z</time></trkpt>
<trkpt lat="53.0117520000" lon="-4.0969070000"><ele>117</ele></trkpt>
<trkpt lat="53.0117500000" lon="-4.0969040000"><ele>117</ele><time>2016-09-30T09:24:00Z</time></trkpt>
<trkpt lat="53.0117480000" lon="-4.0969000000"><ele>117</ele><time>2016-09-30T09:24:01Z</time></trkpt>
<trkpt lat="53.0117450000" lon="-4.0968970000"><ele>117</ele><time>2016-09-30T09:24:02Z</time></trkpt>
<trkpt lat="53.0117430000" lon="-4.0968930000"><ele>117</ele><time>2016-09-30T09:24:03Z</time></trkpt>
<trkpt lat="53.0117400000" lon="-4.0968890000"><ele>118</ele><time>2016-09-30T09:24:04Z</time></trkpt>
<trkpt lat="53.0117370000" lon="-4.0968860000"><ele>118</ele></trkpt>
<trkpt lat="53.0117320000" lon="-4.0968790000"><ele>118</ele><time>2016-09-30T09:24:07Z</time></trkpt>
<trkpt lat="53.0117290000" lon="-4.0968750000"><ele>119</ele><time>2016-09-30T09:24:08Z</time></trkpt>
<trkpt lat="53.0117250000" lon="-4.0968710000"><ele>119</ele></trkpt>
<trkpt lat="53.0117220000" lon="-4.0968670000"><ele>119</ele><time>2016-09-30T09:24:10Z</time></trkpt>
<trkpt lat="53.0117200000" lon="-4.0968630000"><ele>119</ele><time>2016-09-30T09:24:11Z</time></trkpt>
<trkpt lat="53.0117170000" lon="-4.0968590000"><ele>120</ele><time>2016-09-30T09:24:12Z</time></trkpt>
<trkpt lat="53.0117140000" lon="-4.0968550000"><ele>120</ele><time>2016-09-30T09:24:13Z</time></trkpt>
<trkpt lat="53.0117120000" lon="-4.0968510000"><ele>120</ele><time>2016-09-30T09:24:14Z</time></trkpt>
<trkpt lat="53.0117090000" lon="-4.0968470000"><ele>120</ele><time>2016-09-30T09:24:15Z</time></trkpt>
<trkpt lat="53.0117070000" lon="-4.0968430000"><ele>121</ele><time>2016-09-30T09:24:16Z</time></trkpt>
<trkpt lat="53.0117050000" lon="-4.0968390000"><ele>121</ele><time>2016-09-30T09:24:17Z</time></trkpt>
<trkpt lat="53.0117030000" lon="-4.0968350000"><ele>121</ele><time>2016-09-30T09:24:18Z</time></trkpt>
<trkpt lat="53.0117010000" lon="-4.0968320000"><ele>121</ele><time>2016-09-30T09:24:19Z</time></trkpt>
<trkpt lat="53.0116990000" lon="-4.0968290000"><ele>122</ele><time>2016-09-30T09:24:20Z</time></trkpt>
<trkpt lat="53.0116970000" lon="-4.0968250000"><ele>122</ele><time>2016-09-30T09:24:21Z</time></trkpt>
<trkpt lat="53.0116950000" lon="-4.0968220000"><ele>122</ele></trkpt>
<trkpt lat="53.0116930000" lon="-4.0968190000"><ele>122</ele><time>2016-09-30T09:24:23Z</time></trkpt>
<trkpt lat="53.0116920000" lon="-4.0968160000"><ele>122</ele><time>2016-09-30T09:24:24Z</time></trkpt>
<trkpt lat="53.0116900000" lon="-4.0968130000"><ele>122</ele><time>2016-09-30T09:24:25Z</time></trkpt>
<trkpt lat="53.0116890000" lon="-4.0968100000"><ele>123</ele><time>2016-09-30T09:24:26Z</time></trkpt>
<trkpt lat="53.0116880000" lon="-4.0968070000"><ele>123</ele><time>2016-09-30T09:24:27Z</time></trkpt>
<trkpt lat="53.0116860000" lon="-4.0968030000"><ele>123</ele></trkpt>
<trkpt lat="53.0116850000" lon="-4.0968010000"><ele>123</ele><time>2016-09-30T09:24:29Z</time></trkpt>
<trkpt lat="53.0116840000" lon="-4.0967970000"><ele>123</ele><time>2016-09-30T09:24:30Z</time></trkpt>
<trkpt lat="53.0116830000" lon="-4.0967940000"><ele>123</ele><time>2016-09-30T09:24:31Z</time></trkpt>
<trkpt lat="53.0116810000" lon="-4.0967910000"><ele>124</ele><time>2016-09-30T09:24:32Z</time></trkpt>
<trkpt lat="53.0116790000" lon="-4.0967880000"><ele>124</ele><time>2016-09-30T09:24:33Z</time></trkpt>
<trkpt lat="53.0116780000" lon="-4.0967850000"><ele>124</ele></trkpt>
<trkpt lat="53.0116750000" lon="-4.0967820000"><ele>125</ele><time>2016-09-30T09:24:35Z</time></trkpt>
<trkpt lat="53.0116730000" lon="-4.0967790000"><ele>125</ele><time>2016-09-30T09:24:36Z</time></trkpt>
<trkpt lat="53.0116710000" lon="-4.0967760000"><ele>125</ele><time>2016-09-30T09:24:37Z</time></trkpt>
<trkpt lat="53.0116690000" lon="-4.0967740000"><ele>125</ele><time>2016-09-30T09:24:38Z</time></trkpt>
<trkpt lat="53.0116660000" lon="-4.0967710000"><ele>126</ele><time>2016-09-30T09:24:39Z</time></trkpt>
<trkpt lat="53.0116640000" lon="-4.0967680000"><ele>126</ele><time>2016-09-30T09:24:40Z</time></trkpt>
<trkpt lat="53.0116620000" lon="-4.0967660000"><ele>126</ele><time>2016-09-30T09:24:41Z</time></trkpt>
<trkpt lat="53.0116600000" lon="-4.0967630000"><ele>126</ele><time>2016-09-30T09:24:42Z</time></trkpt>
<trkpt lat="53.0116580000" lon="-4.0967610000"><ele>126</ele><time>2016-09-30T09:24:43Z</time></trkpt>
<trkpt lat="53.0116550000" lon="-4.0967590000"><ele>127</ele><time>2016-09-30T09:24:44Z</time></trkpt>
<trkpt lat="53.0116530000" lon="-4.0967570000"><ele>127</ele><time>2016-09-30T09:24:45Z</time></trkpt>
<trkpt lat="53.0116500000" lon="-4.0967550000"><ele>127</ele><time>2016-09-30T09:24:46Z</time></trkpt>
<trkpt lat="53.0116470000" lon="-4.0967530000"><ele>127</ele></trkpt>
<trkpt lat="53.0116450000" lon="-4.0967510000"><ele>127</ele><time>2016-09-30T09:24:48Z</time></trkpt>
<trkpt lat="53.0116420000" lon="-4.0967490000"><ele>128</ele><time>2016-09-30T09:24:49Z</time></trkpt>
<trkpt lat="53.0116390000" lon="-4.0967470000"><ele>128</ele><time>2016-09-30T09:24:50Z</time></trkpt>
<trkpt lat="53.0116370000" lon="-4.0967450000"><ele>128</ele><time>2016-09-30T09:24:51Z</time></trkpt>
<trkpt lat="53.0116340000" lon="-4.0967430000"><ele>128</ele><time>2016-09-30T09:24:52Z</time></trkpt>
<trkpt lat="53.0116320000" lon="-4.0967420000"><ele>129</ele></trkpt>
<trkpt lat="53.0116300000" lon="-4.0967410000"><ele>129</ele><time>2016-09-30T09:24:54Z</time></trkpt>
<trkpt lat="53.0116270000" lon="-4.0967400000"><ele>129</ele><time>2016-09-30T09:24:55Z</time></trkpt>
<trkpt lat="53.0116250000" lon="-4.0967390000"><ele>129</ele><time>2016-09-30T09:24:56Z</time></trkpt>
<trkpt lat="53.0116230000" lon="-4.0967380000"><ele>129</ele><time>2016-09-30T09:24:57Z</time></trkpt>
<trkpt lat="53.0116210000" lon="-4.0967370000"><ele>130</ele><time>2016-09-30T09:24:58Z</time></trkpt>
<trkpt lat="53.0116180000" lon="-4.0967360000"><ele>130</ele><time>2016-09-30T09:24:59Z</time></trkpt>
<trkpt lat="53.0116160000" lon="-4.0967340000"><ele>130</ele><time>2016-09-30T09:25:00Z</time></trkpt>
<trkpt lat="53.0116140000" lon="-4.0967320000"><ele>130</ele><time>2016-09-30T09:25:01Z</time></trkpt>
<trkpt lat="53.0116130000" lon="-4.0967300000"><ele>130</ele><time>2016-09-30T09:25:02Z</time></trkpt>
<trkpt lat="53.0116120000" lon="-4.0967270000"><ele>130</ele><time>2016-09-30T09:25:03Z</time></trkpt>
<trkpt lat="53.0116100000" lon="-4.0967240000"><ele>130</ele><time>2016-09-30T09:25:04Z</time></trkpt>
<trkpt lat="53.0116090000" lon="-4.0967210000"><ele>130</ele><time>2016-09-30T09:25:05Z</time></trkpt>
<trkpt lat="53.0116080000" lon="-4.0967130000"><ele>131</ele><time>2016-09-30T09:25:07Z</time></trkpt>
<trkpt lat="53.0116070000" lon="-4.0967100000"><ele>131</ele></trkpt>
<trkpt lat="53.0116070000" lon="-4.0967060000"><ele>131</ele><time>2016-09-30T09:25:09Z</time></trkpt>
<trkpt lat="53.0116060000" lon="-4.0967020000"><ele>131</ele><time>2016-09-30T09:25:10Z</time></trkpt>
<trkpt lat="53.0116060000" lon="-4.0966980000"><ele>131</ele><time>2016-09-30T09:25:11Z</time></trkpt>
<trkpt lat="53.0116060000" lon="-4.0966950000"><ele>131</ele><time>2016-09-30T09:25:12Z</time></trkpt>
<trkpt lat="53.0116060000" lon="-4.0966910000"><ele>131</ele><time>2016-09-30T09:25:13Z</time></trkpt>
<trkpt lat="53.0116070000" lon="-4.0966870000"><ele>131</ele></trkpt>
<trkpt lat="53.0116070000" lon="-4.0966840000"><ele>131</ele><time>2016-09-30T09:25:15Z</time></trkpt>
<trkpt lat="53.0116070000" lon="-4.0966800000"><ele>131</ele><time>2016-09-30T09:25:16Z</time></trkpt>
<trkpt lat="53.0116080000" lon="-4.0966760000"><ele>131</ele><time>2016-09-30T09:25:17Z</time></trkpt>
<trkpt lat="53.0116080000" lon="-4.0966710000"><ele>131</ele><time>2016-09-30T09:25:18Z</time></trkpt>
<trkpt lat="53.0116090000" lon="-4.0966660000"><ele>131</ele><time>2016-09-30T09:25:19Z</time></trkpt>
<trkpt lat="53.0116090000" lon="-4.0966610000"><ele>131</ele><time>2016-09-30T09:25:20Z</time></trkpt>
<trkpt lat="53.0116100000" lon="-4.0966570000"><ele>131</ele><time>2016-09-30T09:25:21Z</time></trkpt>
<trkpt lat="53.0116110000" lon="-4.0966510000"><ele>131</ele><time>2016-09-30T09:25:22Z</time></trkpt>
<trkpt lat="53.0116130000" lon="-4.0966460000"><ele>131</ele><time>2016-09-30T09:25:23Z</time></trkpt>
<trkpt lat="53.0116140000" lon="-4.0966410000"><ele>131</ele><time>2016-09-30T09:25:24Z</time></trkpt>
<trkpt lat="53.0116150000" lon="-4.0966360000"><ele>131</ele><time>2016-09-30T09:25:25Z</time></trkpt>
<trkpt lat="53.0116170000" lon="-4.0966300000"><ele>131</ele><time>2016-09-30T09:25:26Z</time></trkpt>
<trkpt lat="53.0116170000" lon="-4.0966260000"><ele>131</ele></trkpt>
<trkpt lat="53.0116180000" lon="-4.0966200000"><ele>131</ele><time>2016-09-30T09:25:28Z</time></trkpt>
<trkpt lat="53.0116180000" lon="-4.0966150000"><ele>131</ele><time>2016-09-30T09:25:29Z</time></trkpt>
<trkpt lat="53.0116180000" lon="-4.0966100000"><ele>131</ele><time>2016-09-30T09:25:30Z</time></trkpt>
<trkpt lat="53.0116180000" lon="-4.0966070000"><ele>131</ele><time>2016-09-30T09:25:31Z</time></trkpt>
<trkpt lat="53.0116170000" lon="-4.0966020000"><ele>131</ele><time>2016-09-30T09:25:32Z</time></trkpt>
<trkpt lat="53.0116170000" lon="-4.0965970000"><ele>131</ele></trkpt>
<trkpt lat="53.0116160000" lon="-4.0965930000"><ele>131</ele><time>2016-09-30T09:25:34Z</time></trkpt>
<trkpt lat="53.0116150000" lon="-4.0965880000"><ele>131</ele><time>2016-09-30T09:25:35Z</time></trkpt>
<trkpt lat="53.0116140000" lon="-4.0965840000"><ele>131</ele><time>2016-09-30T09:25:36Z</time></trkpt>
<trkpt lat="53.0116130000" lon="-4.0965800000"><ele>131</ele><time>2016-09-30T09:25:37Z</time></trkpt>
<trkpt lat="53.0116110000" lon="-4.0965770000"><ele>131</ele><time>2016-09-30T09:25:38Z</time></trkpt>
<trkpt lat="53.0116090000" lon="-4.0965730000"><ele>131</ele><time>2016-09-30T09:25:39Z</time></trkpt>
<trkpt lat="53.0116070000" lon="-4.0965690000"><ele>131</ele><time>2016-09-30T09:25:40Z</time></trkpt>
<trkpt lat="53.0116040000" lon="-4.0965660000"><ele>131</ele><time>2016-09-30T09:25:41Z</time></trkpt>
<trkpt lat="53.0116020000" lon="-4.0965620000"><ele>131</ele><time>2016-09-30T09:25:42Z</time></trkpt>
<trkpt lat="53.0115990000" lon="-4.0965590000"><ele>131</ele><time>2016-09-30T09:25:43Z</time></trkpt>
<trkpt lat="53.0115960000" lon="-4.0965550000"><ele>131</ele><time>2016-09-30T09:25:44Z</time></trkpt>
<trkpt lat="53.0115940000" lon="-4.0965520000"><ele>131</ele><time>2016-09-30T09:25:45Z</time></trkpt>
<trkpt lat="53.0115910000" lon="-4.0965490000"><ele>131</ele></trkpt>
<trkpt lat="53.0115880000" lon="-4.0965450000"><ele>131</ele><time>2016-09-30T09:25:47Z</time></trkpt>
<trkpt lat="53.0115850000" lon="-4.0965410000"><ele>132</ele><time>2016-09-30T09:25:48Z</time></trkpt>
<trkpt lat="53.0115820000" lon="-4.0965370000"><ele>132</ele><time>2016-09-30T09:25:49Z</time></trkpt>
<trkpt lat="53.0115800000" lon="-4.0965330000"><ele>132</ele><time>2016-09-30T09:25:50Z</time></trkpt>
<trkpt lat="53.0115780000" lon="-4.0965290000"><ele>132</ele><time>2016-09-30T09:25:51Z</time></trkpt>
<trkpt lat="53.0115760000" lon="-4.0965250000"><ele>132</ele></trkpt>
<trkpt lat="53.0115740000" lon="-4.0965210000"><ele>132</ele><time>2016-09-30T09:25:53Z</time></trkpt>
<trkpt lat="53.0115730000" lon="-4.0965170000"><ele>133</ele><time>2016-09-30T09:25:54Z</time></trkpt>
<trkpt lat="53.0115710000" lon="-4.0965130000"><ele>133</ele><time>2016-09-30T09:25:55Z</time></trkpt>
<trkpt lat="53.0115700000" lon="-4.0965090000"><ele>133</ele><time>2016-09-30T09:25:56Z</time></trkpt>
<trkpt lat="53.0115680000" lon="-4.0965050000"><ele>133</ele><time>2016-09-30T09:25:57Z</time></trkpt>
<trkpt lat="53.0115670000" lon="-4.0965000000"><ele>134</ele></trkpt>
<trkpt lat="53.0115650000" lon="-4.0964950000"><ele>134</ele><time>2016-09-30T09:25:59Z</time></trkpt>
<trkpt lat="53.0115640000" lon="-4.0964910000"><ele>134</ele><time>2016-09-30T09:26:00Z</time></trkpt>
<trkpt lat="53.0115630000" lon="-4.0964870000"><ele>134</ele><time>2016-09-30T09:26:01Z</time></trkpt>
<trkpt lat="53.0115630000" lon="-4.0964830000"><ele>134</ele><time>2016-09-30T09:26:02Z</time></trkpt>
<trkpt lat="53.0115620000" lon="-4.0964790000"><ele>135</ele><time>2016-09-30T09:26:03Z</time></trkpt>
<trkpt lat="53.0115610000" lon="-4.0964750000"><ele>135</ele><time>2016-09-30T09:26:04Z</time></trkpt>
<trkpt lat="53.0115600000" lon="-4.0964710000"><ele>135</ele><time>2016-09-30T09:26:05Z</time></trkpt>
<trkpt lat="53.0115600000" lon="-4.0964650000"><ele>135</ele><time>2016-09-30T09:26:07Z</time></trkpt>
<trkpt lat="53.0115600000" lon="-4.0964620000"><ele>135</ele></trkpt>
<trkpt lat="53.0115600000" lon="-4.0964600000"><ele>135</ele><time>2016-09-30T09:26:09Z</time></trkpt>
<trkpt lat="53.0115600000" lon="-4.0964570000"><ele>135</ele><time>2016-09-30T09:26:10Z</time></trkpt>
<trkpt lat="53.0115600000" lon="-4.0964540000"><ele>135</ele><time>2016-09-30T09:26:11Z</time></trkpt>
<trkpt lat="53.0115600000" lon="-4.0964510000"><ele>136</ele><time>2016-09-30T09:26:12Z</time></trkpt>
<trkpt lat="53.0115610000" lon="-4.0964480000"><ele>136</ele><time>2016-09-30T09:26:13Z</time></trkpt>
<trkpt lat="53.0115610000" lon="-4.0964460000"><ele>136</ele><time>2016-09-30T09:26:14Z</time></trkpt>
<trkpt lat="53.0115620000" lon="-4.0964430000"><ele>136</ele><time>2016-09-30T09:26:15Z</time></trkpt>
<trkpt lat="53.0115620000" lon="-4.0964400000"><ele>136</ele><time>2016-09-30T09:26:16Z</time></trkpt>
<trkpt lat="53.0115620000" lon="-4.0964370000"><ele>137</ele><time>2016-09-30T09:26:17Z</time></trkpt>
<trkpt lat="53.0115630000" lon="-4.0964350000"><ele>137</ele><time>2016-09-30T09:26:18Z</time></trkpt>
<trkpt lat="53.0115630000" lon="-4.0964320000"><ele>137</ele><time>2016-09-30T09:26:19Z</time></trkpt>
<trkpt lat="53.0115640000" lon="-4.0964290000"><ele>137</ele><time>2016-09-30T09:26:20Z</time></trkpt>
<trkpt lat="53.0115640000" lon="-4.0964260000"><ele>137</ele></trkpt>
<trkpt lat="53.0115640000" lon="-4.0964230000"><ele>138</ele><time>2016-09-30T09:26:22Z</time></trkpt>
<trkpt lat="53.0115640000" lon="-4.0964200000"><ele>138</ele><time>2016-09-30T09:26:23Z</time></trkpt>
<trkpt lat="53.0115650000" lon="-4.0964170000"><ele>138</ele><time>2016-09-30T09:26:24Z</time></trkpt>
<trkpt lat="53.0115650000" lon="-4.0964140000"><ele>138</ele><time>2016-09-30T09:26:25Z</time></trkpt>
<trkpt lat="53.0115650000" lon="-4.0964110000"><ele>138</ele><time>2016-09-30T09:26:26Z</time></trkpt>
<trkpt lat="53.0115650000" lon="-4.0964070000"><ele>138</ele></trkpt>
<trkpt lat="53.0115650000" lon="-4.0964030000"><ele>139</ele><time>2016-09-30T09:26:28Z</time></trkpt>
<trkpt lat="53.0115650000" lon="-4.0963990000"><ele>139</ele><time>2016-09-30T09:26:29Z</time></trkpt>
<trkpt lat="53.0115640000" lon="-4.0963950000"><ele>139</ele><time>2016-09-30T09:26:30Z</time></trkpt>
<trkpt lat="53.0115630000" lon="-4.0963910000"><ele>139</ele><time>2016-09-30T09:26:31Z</time></trkpt>
<trkpt lat="53.0115620000" lon="-4.0963880000"><ele>139</ele><time>2016-09-30T09:26:32Z</time></trkpt>
<trkpt lat="53.0115610000" lon="-4.0963840000"><ele>139</ele><time>2016-09-30T09:26:33Z</time></trkpt>
<trkpt lat="53.0115600000" lon="-4.0963790000"><ele>140</ele><time>2016-09-30T09:26:34Z</time></trkpt>
<trkpt lat="53.0115580000" lon="-4.0963750000"><ele>140</ele><time>2016-09-30T09:26:35Z</time></trkpt>
<trkpt lat="53.0115570000" lon="-4.0963710000"><ele>140</ele><time>2016-09-30T09:26:36Z</time></trkpt>
<trkpt lat="53.0115560000" lon="-4.0963660000"><ele>140</ele><time>2016-09-30T09:26:37Z</time></trkpt>
<trkpt lat="53.0115550000" lon="-4.0963620000"><ele>140</ele><time>2016-09-30T09:26:38Z</time></trkpt>
<trkpt lat="53.0115550000" lon="-4.0963570000"><ele>140</ele><time>2016-09-30T09:26:39Z</time></trkpt>
<trkpt lat="53.0115540000" lon="-4.0963530000"><ele>140</ele></trkpt>
<trkpt lat="53.0115530000" lon="-4.0963480000"><ele>140</ele><time>2016-09-30T09:26:41Z</time></trkpt>
<trkpt lat="53.0115530000" lon="-4.0963440000"><ele>140</ele><time>2016-09-30T09:26:42Z</time></trkpt>
<trkpt lat="53.0115520000" lon="-4.0963390000"><ele>141</ele><time>2016-09-30T09:26:43Z</time></trkpt>
<trkpt lat="53.0115520000" lon="-4.0963350000"><ele>141</ele><time>2016-09-30T09:26:44Z</time></trkpt>
<trkpt lat="53.0115520000" lon="-4.0963300000"><ele>141</ele><time>2016-09-30T09:26:45Z</time></trkpt>
<trkpt lat="53.0115520000" lon="-4.0963270000"><ele>141</ele></trkpt>
<trkpt lat="53.0115520000" lon="-4.0963220000"><ele>141</ele><time>2016-09-30T09:26:47Z</time></trkpt>
<trkpt lat="53.0115520000" lon="-4.0963180000"><ele>141</ele><time>2016-09-30T09:26:48Z</time></trkpt>
<trkpt lat="53.0115520000" lon="-4.0963130000"><ele>141</ele><time>2016-09-30T09:26:49Z</time></trkpt>
<trkpt lat="53.0115520000" lon="-4.0963090000"><ele>142</ele><time>2016-09-30T09:26:50Z</time></trkpt>
<trkpt lat="53.0115520000" lon="-4.0963040000"><ele>142</ele><time>2016-09-30T09:26:51Z</time></trkpt>
<trkpt lat="53.0115510000" lon="-4.0962990000"><ele>142</ele></trkpt>
<trkpt lat="53.0115510000" lon="-4.0962940000"><ele>142</ele><time>2016-09-30T09:26:53Z</time></trkpt>
<trkpt lat="53.0115510000" lon="-4.0962890000"><ele>142</ele><time>2016-09-30T09:26:54Z</time></trkpt>
<trkpt lat="53.0115500000" lon="-4.0962840000"><ele>142</ele><time>2016-09-30T09:26:55Z</time></trkpt>
<trkpt lat="53.0115500000" lon="-4.0962790000"><ele>142</ele><time>2016-09-30T09:26:56Z</time></trkpt>
<trkpt lat="53.0115490000" lon="-4.0962750000"><ele>142</ele><time>2016-09-30T09:26:57Z</time></trkpt>
<trkpt lat="53.0115480000" lon="-4.0962700000"><ele>142</ele><time>2016-09-30T09:26:58Z</time></trkpt>
<trkpt lat="53.0115470000" lon="-4.0962640000"><ele>142</ele><time>2016-09-30T09:26:59Z</time></trkpt>
<trkpt lat="53.0115470000" lon="-4.0962580000"><ele>142</ele><time>2016-09-30T09:27:00Z</time></trkpt>
<trkpt lat="53.0115470000" lon="-4.0962520000"><ele>142</ele><time>2016-09-30T09:27:01Z</time></trkpt>
<trkpt lat="53.0115470000" lon="-4.0962450000"><ele>142</ele><time>2016-09-30T09:27:02Z</time></trkpt>
<trkpt lat="53.0115460000" lon="-4.0962390000"><ele>142</ele><time>2016-09-30T09:27:03Z</time></trkpt>
<trkpt lat="53.0115460000" lon="-4.0962310000"><ele>142</ele><time>2016-09-30T09:27:04Z</time></trkpt>
<trkpt lat="53.0115460000" lon="-4.0962240000"><ele>142</ele></trkpt>
<trkpt lat="53.0115470000" lon="-4.0962080000"><ele>142</ele><time>2016-09-30T09:27:07Z</time></trkpt>
<trkpt lat="53.0115480000" lon="-4.0962000000"><ele>142</ele></trkpt>
<trkpt lat="53.0115480000" lon="-4.0961920000"><ele>142</ele><time>2016-09-30T09:27:09Z</time></trkpt>
<trkpt lat="53.0115470000" lon="-4.0961860000"><ele>143</ele><time>2016-09-30T09:27:10Z</time></trkpt>
<trkpt lat="53.0115470000" lon="-4.0961790000"><ele>143</ele><time>2016-09-30T09:27:11Z</time></trkpt>
<trkpt lat="53.0115460000" lon="-4.0961720000"><ele>143</ele><time>2016-09-30T09:27:12Z</time></trkpt>
<trkpt lat="53.0115450000" lon="-4.0961640000"><ele>143</ele><time>2016-09-30T09:27:13Z</time></trkpt>
<trkpt lat="53.0115440000" lon="-4.0961560000"><ele>143</ele><time>2016-09-30T09:27:14Z</time></trkpt>
<trkpt lat="53.0115430000" lon="-4.0961470000"><ele>143</ele><time>2016-09-30T09:27:15Z</time></trkpt>
<trkpt lat="53.0115410000" lon="-4.0961390000"><ele>143</ele><time>2016-09-30T09:27:16Z</time></trkpt>
<trkpt lat="53.0115390000" lon="-4.0961310000"><ele>143</ele><time>2016-09-30T09:27:17Z</time></trkpt>
<trkpt lat="53.0115370000" lon="-4.0961230000"><ele>143</ele><time>2016-09-30T09:27:18Z</time></trkpt>
<trkpt lat="53.0115350000" lon="-4.0961150000"><ele>143</ele><time>2016-09-30T09:27:19Z</time></trkpt>
<trkpt lat="53.0115330000" lon="-4.0961070000"><ele>143</ele><time>2016-09-30T09:27:20Z</time></trkpt>
<trkpt lat="53.0115310000" lon="-4.0960990000"><ele>143</ele></trkpt>
<trkpt lat="53.0115290000" lon="-4.0960920000"><ele>143</ele><time>2016-09-30T09:27:22Z</time></trkpt>
<trkpt lat="53.0115270000" lon="-4.0960840000"><ele>143</ele><time>2016-09-30T09:27:23Z</time></trkpt>
<trkpt lat="53.0115260000" lon="-4.0960770000"><ele>143</ele><time>2016-09-30T09:27:24Z</time></trkpt>
<trkpt lat="53.0115250000" lon="-4.0960710000"><ele>143</ele><time>2016-09-30T09:27:25Z</time></trkpt>
<trkpt lat="53.0115240000" lon="-4.0960650000"><ele>143</ele><time>2016-09-30T09:27:26Z</time></trkpt>
<trkpt lat="53.0115220000" lon="-4.0960580000"><ele>144</ele></trkpt>
<trkpt lat="53.0115220000" lon="-4.0960510000"><ele>144</ele><time>2016-09-30T09:27:28Z</time></trkpt>
<trkpt lat="53.0115210000" lon="-4.0960440000"><ele>144</ele><time>2016-09-30T09:27:29Z</time></trkpt>
<trkpt lat="53.0115200000" lon="-4.0960370000"><ele>144</ele><time>2016-09-30T09:27:30Z</time></trkpt>
<trkpt lat="53.0115200000" lon="-4.0960310000"><ele>144</ele><time>2016-09-30T09:27:31Z</time></trkpt>
<trkpt lat="53.0115190000" lon="-4.0960240000"><ele>144</ele><time>2016-09-30T09:27:32Z</time></trkpt>
<trkpt lat="53.0115190000" lon="-4.0960180000"><ele>145</ele><time>2016-09-30T09:27:33Z</time></trkpt>
<trkpt lat="53.0115190000" lon="-4.0960120000"><ele>145</ele><time>2016-09-30T09:27:34Z</time></trkpt>
<trkpt lat="53.0115190000" lon="-4.0960060000"><ele>145</ele><time>2016-09-30T09:27:35Z</time></trkpt>
<trkpt lat="53.0115190000" lon="-4.0960000000"><ele>145</ele><time>2016-09-30T09:27:36Z</time></trkpt>
<trkpt lat="53.0115190000" lon="-4.0959950000"><ele>145</ele><time>2016-09-30T09:27:37Z</time></trkpt>
<trkpt lat="53.0115190000" lon="-4.0959890000"><ele>146</ele><time>2016-09-30T09:27:38Z</time></trkpt>
<trkpt lat="53.0115200000" lon="-4.0959840000"><ele>146</ele><time>2016-09-30T09:27:39Z</time></trkpt>
<trkpt lat="53.0115210000" lon="-4.0959780000"><ele>146</ele></trkpt>
<trkpt lat="53.0115220000" lon="-4.0959720000"><ele>146</ele><time>2016-09-30T09:27:41Z</time></trkpt>
<trkpt lat="53.0115230000" lon="-4.0959670000"><ele>147</ele><time>2016-09-30T09:27:42Z</time></trkpt>
<trkpt lat="53.0115250000" lon="-4.0959610000"><ele>147</ele><time>2016-09-30T09:27:43Z</time></trkpt>
<trkpt lat="53.0115270000" lon="-4.0959550000"><ele>147</ele><time>2016-09-30T09:27:44Z</time></trkpt>
<trkpt lat="53.0115290000" lon="-4.0959490000"><ele>147</ele><time>2016-09-30T09:27:45Z</time></trkpt>
<trkpt lat="53.0115300000" lon="-4.0959420000"><ele>148</ele></trkpt>
<trkpt lat="53.0115320000" lon="-4.0959350000"><ele>148</ele><time>2016-09-30T09:27:47Z</time></trkpt>
<trkpt lat="53.0115340000" lon="-4.0959280000"><ele>148</ele><time>2016-09-30T09:27:48Z</time></trkpt>
<trkpt lat="53.0115360000" lon="-4.0959200000"><ele>148</ele><time>2016-09-30T09:27:49Z</time></trkpt>
<trkpt lat="53.0115380000" lon="-4.0959120000"><ele>149</ele><time>2016-09-30T09:27:50Z</time></trkpt>
<trkpt lat="53.0115390000" lon="-4.0959030000"><ele>149</ele><time>2016-09-30T09:27:51Z</time></trkpt>
<trkpt lat="53.0115410000" lon="-4.0958940000"><ele>149</ele></trkpt>
<trkpt lat="53.0115430000" lon="-4.0958850000"><ele>149</ele><time>2016-09-30T09:27:53Z</time></trkpt>
<trkpt lat="53.0115440000" lon="-4.0958760000"><ele>150</ele><time>2016-09-30T09:27:54Z</time></trkpt>
<trkpt lat="53.0115460000" lon="-4.0958670000"><ele>150</ele><time>2016-09-30T09:27:55Z</time></trkpt>
<trkpt lat="53.0115470000" lon="-4.0958580000"><ele>150</ele><time>2016-09-30T09:27:56Z</time></trkpt>
<trkpt lat="53.0115480000" lon="-4.0958490000"><ele>150</ele><time>2016-09-30T09:27:57Z</time></trkpt>
<trkpt lat="53.0115490000" lon="-4.0958390000"><ele>150</ele><time>2016-09-30T09:27:58Z</time></trkpt>
<trkpt lat="53.0115490000" lon="-4.0958300000"><ele>151</ele><time>2016-09-30T09:27:59Z</time></trkpt>
<trkpt lat="53.0115500000" lon="-4.0958210000"><ele>151</ele><time>2016-09-30T09:28:00Z</time></trkpt>
<trkpt lat="53.0115500000" lon="-4.0958120000"><ele>151</ele><time>2016-09-30T09:28:01Z</time></trkpt>
<trkpt lat="53.0115500000" lon="-4.0958030000"><ele>151</ele><time>2016-09-30T09:28:02Z</time></trkpt>
<trkpt lat="53.0115500000" lon="-4.0957940000"><ele>152</ele><time>2016-09-30T09:28:03Z</time></trkpt>
<trkpt lat="53.0115500000" lon="-4.0957840000"><ele>152</ele><time>2016-09-30T09:28:04Z</time></trkpt>
<trkpt lat="53.0115500000" lon="-4.0957750000"><ele>152</ele></trkpt>
<trkpt lat="53.0115510000" lon="-4.0957560000"><ele>152</ele><time>2016-09-30T09:28:07Z</time></trkpt>
<trkpt lat="53.0115510000" lon="-4.0957460000"><ele>153</ele></trkpt>
<trkpt lat="53.0115510000" lon="-4.0957360000"><ele>153</ele><time>2016-09-30T09:28:09Z</time></trkpt>
<trkpt lat="53.0115500000" lon="-4.0957260000"><ele>153</ele><time>2016-09-30T09:28:10Z</time></trkpt>
<trkpt lat="53.0115500000" lon="-4.0957160000"><ele>153</ele><time>2016-09-30T09:28:11Z</time></trkpt>
<trkpt lat="53.0115500000" lon="-4.0957060000"><ele>153</ele><time>2016-09-30T09:28:12Z</time></trkpt>
<trkpt lat="53.0115500000" lon="-4.0956960000"><ele>154</ele><time>2016-09-30T09:28:13Z</time></trkpt>
<trkpt lat="53.0115490000" lon="-4.0956850000"><ele>154</ele><time>2016-09-30T09:28:14Z</time></trkpt>
<trkpt lat="53.0115490000" lon="-4.0956750000"><ele>154</ele><time>2016-09-30T09:28:15Z</time></trkpt>
<trkpt lat="53.0115490000" lon="-4.0956640000"><ele>154</ele><time>2016-09-30T09:28:16Z</time></trkpt>
<trkpt lat="53.0115480000" lon="-4.0956540000"><ele>154</ele><time>2016-09-30T09:28:17Z</time></trkpt>
<trkpt lat="53.0115480000" lon="-4.0956450000"><ele>154</ele><time>2016-09-30T09:28:18Z</time></trkpt>
<trkpt lat="53.0115480000" lon="-4.0956360000"><ele>154</ele><time>2016-09-30T09:28:19Z</time></trkpt>
<trkpt lat="53.0115470000" lon="-4.0956280000"><ele>154</ele><time>2016-09-30T09:28:20Z</time></trkpt>
<trkpt lat="53.0115470000" lon="-4.0956190000"><ele>155</ele></trkpt>
<trkpt lat="53.0115470000" lon="-4.0956120000"><ele>155</ele><time>2016-09-30T09:28:22Z</time></trkpt>
<trkpt lat="53.0115460000" lon="-4.0956050000"><ele>155</ele><time>2016-09-30T09:28:23Z</time></trkpt>
<trkpt lat="53.0115460000" lon="-4.0955980000"><ele>155</ele><time>2016-09-30T09:28:24Z</time></trkpt>
<trkpt lat="53.0115460000" lon="-4.0955910000"><ele>155</ele><time>2016-09-30T09:28:25Z</time></trkpt>
<trkpt lat="53.0115450000" lon="-4.0955850000"><ele>155</ele><time>2016-09-30T09:28:26Z</time></trkpt>
<trkpt lat="53.0115440000" lon="-4.0955800000"><ele>155</ele></trkpt>
<trkpt lat="53.0115430000" lon="-4.0955750000"><ele>155</ele><time>2016-09-30T09:28:28Z</time></trkpt>
<trkpt lat="53.0115410000" lon="-4.0955710000"><ele>155</ele><time>2016-09-30T09:28:29Z</time></trkpt>
<trkpt lat="53.0115400000" lon="-4.0955680000"><ele>155</ele><time>2016-09-30T09:28:30Z</time></trkpt>
<trkpt lat="53.0115380000" lon="-4.0955650000"><ele>155</ele><time>2016-09-30T09:28:31Z</time></trkpt>
<trkpt lat="53.0115370000" lon="-4.0955620000"><ele>155</ele><time>2016-09-30T09:28:32Z</time></trkpt>
<trkpt lat="53.0115350000" lon="-4.0955590000"><ele>155</ele><time>2016-09-30T09:28:33Z</time></trkpt>
<trkpt lat="53.0115340000" lon="-4.0955570000"><ele>155</ele><time>2016-09-30T09:28:34Z</time></trkpt>
<trkpt lat="53.0115320000" lon="-4.0955550000"><ele>155</ele><time>2016-09-30T09:28:35Z</time></trkpt>
<trkpt lat="53.0115300000" lon="-4.0955530000"><ele>155</ele><time>2016-09-30T09:28:36Z</time></trkpt>
<trkpt lat="53.0115280000" lon="-4.0955510000"><ele>155</ele><time>2016-09-30T09:28:37Z</time></trkpt>
<trkpt lat="53.0115270000" lon="-4.0955480000"><ele>155</ele><time>2016-09-30T09:28:38Z</time></trkpt>
<trkpt lat="53.0115250000" lon="-4.0955460000"><ele>156</ele><time>2016-09-30T09:28:39Z</time></trkpt>
<trkpt lat="53.0115240000" lon="-4.0955440000"><ele>156</ele></trkpt>
<trkpt lat="53.0115230000" lon="-4.0955420000"><ele>156</ele><time>2016-09-30T09:28:41Z</time></trkpt>
<trkpt lat="53.0115220000" lon="-4.0955400000"><ele>156</ele><time>2016-09-30T09:28:42Z</time></trkpt>
<trkpt lat="53.0115210000" lon="-4.0955370000"><ele>157</ele><time>2016-09-30T09:28:43Z</time></trkpt>
<trkpt lat="53.0115200000" lon="-4.0955350000"><ele>157</ele><time>2016-09-30T09:28:44Z</time></trkpt>
<trkpt lat="53.0115190000" lon="-4.0955330000"><ele>157</ele><time>2016-09-30T09:28:45Z</time></trkpt>
<trkpt lat="53.0115180000" lon="-4.0955300000"><ele>158</ele></trkpt>
<trkpt lat="53.0115170000" lon="-4.0955270000"><ele>158</ele><time>2016-09-30T09:28:47Z</time></trkpt>
<trkpt lat="53.0115170000" lon="-4.0955250000"><ele>158</ele><time>2016-09-30T09:28:48Z</time></trkpt>
<trkpt lat="53.0115160000" lon="-4.0955220000"><ele>159</ele><time>2016-09-30T09:28:49Z</time></trkpt>
<trkpt lat="53.0115150000" lon="-4.0955190000"><ele>159</ele><time>2016-09-30T09:28:50Z</time></trkpt>
<trkpt lat="53.0115130000" lon="-4.0955160000"><ele>159</ele><time>2016-09-30T09:28:51Z</time></trkpt>
<trkpt lat="53.0115120000" lon="-4.0955130000"><ele>159</ele></trkpt>
<trkpt lat="53.0115110000" lon="-4.0955090000"><ele>160</ele><time>2016-09-30T09:28:53Z</time></trkpt>
<trkpt lat="53.0115090000" lon="-4.0955050000"><ele>160</ele><time>2016-09-30T09:28:54Z</time></trkpt>
<trkpt lat="53.0115080000" lon="-4.0955000000"><ele>160</ele><time>2016-09-30T09:28:55Z</time></trkpt>
<trkpt lat="53.0115070000" lon="-4.0954950000"><ele>160</ele><time>2016-09-30T09:28:56Z</time></trkpt>
<trkpt lat="53.0115060000" lon="-4.0954890000"><ele>160</ele><time>2016-09-30T09:28:57Z</time></trkpt>
<trkpt lat="53.0115060000" lon="-4.0954840000"><ele>160</ele><time>2016-09-30T09:28:58Z</time></trkpt>
<trkpt lat="53.0115050000" lon="-4.0954770000"><ele>160</ele><time>2016-09-30T09:28:59Z</time></trkpt>
<trkpt lat="53.0115050000" lon="-4.0954710000"><ele>160</ele><time>2016-09-30T09:29:00Z</time></trkpt>
<trkpt lat="53.0115050000" lon="-4.0954640000"><ele>160</ele><time>2016-09-30T09:29:01Z</time></trkpt>
<trkpt lat="53.0115050000" lon="-4.0954560000"><ele>161</ele><time>2016-09-30T09:29:02Z</time></trkpt>
<trkpt lat="53.0115050000" lon="-4.0954480000"><ele>161</ele><time>2016-09-30T09:29:03Z</time></trkpt>
<trkpt lat="53.0115050000" lon="-4.0954400000"><ele>161</ele><time>2016-09-30T09:29:04Z</time></trkpt>
<trkpt lat="53.0115050000" lon="-4.0954320000"><ele>161</ele></trkpt>
<trkpt lat="53.0115050000" lon="-4.0954140000"><ele>161</ele><time>2016-09-30T09:29:07Z</time></trkpt>
<trkpt lat="53.0115050000" lon="-4.0954050000"><ele>161</ele><time>2016-09-30T09:29:08Z</time></trkpt>
<trkpt lat="53.0115040000" lon="-4.0953960000"><ele>161</ele></trkpt>
<trkpt lat="53.0115040000" lon="-4.0953870000"><ele>161</ele><time>2016-09-30T09:29:10Z</time></trkpt>
<trkpt lat="53.0115020000" lon="-4.0953770000"><ele>161</ele><time>2016-09-30T09:29:11Z</time></trkpt>
<trkpt lat="53.0115010000" lon="-4.0953670000"><ele>161</ele><time>2016-09-30T09:29:12Z</time></trkpt>
<trkpt lat="53.0115000000" lon="-4.0953580000"><ele>161</ele><time>2016-09-30T09:29:13Z</time></trkpt>
<trkpt lat="53.0114980000" lon="-4.0953480000"><ele>161</ele><time>2016-09-30T09:29:14Z</time></trkpt>
<trkpt lat="53.0114960000" lon="-4.0953380000"><ele>161</ele><time>2016-09-30T09:29:15Z</time></trkpt>
<trkpt lat="53.0114940000" lon="-4.0953280000"><ele>161</ele><time>2016-09-30T09:29:16Z</time></trkpt>
<trkpt lat="53.0114920000" lon="-4.0953180000"><ele>161</ele><time>2016-09-30T09:29:17Z</time></trkpt>
<trkpt lat="53.0114900000" lon="-4.0953080000"><ele>161</ele><time>2016-09-30T09:29:18Z</time></trkpt>
<trkpt lat="53.0114870000" lon="-4.0952980000"><ele>161</ele><time>2016-09-30T09:29:19Z</time></trkpt>
<trkpt lat="53.0114840000" lon="-4.0952880000"><ele>161</ele><time>2016-09-30T09:29:20Z</time></trkpt>
<trkpt lat="53.0114810000" lon="-4.0952780000"><ele>161</ele><time>2016-09-30T09:29:21Z</time></trkpt>
<trkpt lat="53.0114780000" lon="-4.0952680000"><ele>161</ele><time>2016-09-30T09:29:22Z</time></trkpt>
<trkpt lat="53.0114750000" lon="-4.0952590000"><ele>161</ele><time>2016-09-30T09:29:23Z</time></trkpt>
<trkpt lat="53.0114710000" lon="-4.0952490000"><ele>160</ele><time>2016-09-30T09:29:24Z</time></trkpt>
<trkpt lat="53.0114670000" lon="-4.0952390000"><ele>160</ele><time>2016-09-30T09:29:25Z</time></trkpt>
<trkpt lat="53.0114630000" lon="-4.0952290000"><ele>161</ele><time>2016-09-30T09:29:26Z</time></trkpt>
<trkpt lat="53.0114590000" lon="-4.0952190000"><ele>161</ele><time>2016-09-30T09:29:27Z</time></trkpt>
<trkpt lat="53.0114550000" lon="-4.0952090000"><ele>161</ele></trkpt>
<trkpt lat="53.0114510000" lon="-4.0951980000"><ele>161</ele><time>2016-09-30T09:29:29Z</time></trkpt>
<trkpt lat="53.0114460000" lon="-4.0951870000"><ele>161</ele><time>2016-09-30T09:29:30Z</time></trkpt>
<trkpt lat="53.0114410000" lon="-4.0951760000"><ele>161</ele><time>2016-09-30T09:29:31Z</time></trkpt>
<trkpt lat="53.0114370000" lon="-4.0951650000"><ele>161</ele><time>2016-09-30T09:29:32Z</time></trkpt>
<trkpt lat="53.0114320000" lon="-4.0951540000"><ele>161</ele><time>2016-09-30T09:29:33Z</time></trkpt>
<trkpt lat="53.0114280000" lon="-4.0951430000"><ele>161</ele></trkpt>
<trkpt lat="53.0114240000" lon="-4.0951330000"><ele>161</ele><time>2016-09-30T09:29:35Z</time></trkpt>
<trkpt lat="53.0114200000" lon="-4.0951230000"><ele>161</ele><time>2016-09-30T09:29:36Z</time></trkpt>
<trkpt lat="53.0114160000" lon="-4.0951140000"><ele>161</ele><time>2016-09-30T09:29:37Z</time></trkpt>
<trkpt lat="53.0114120000" lon="-4.0951050000"><ele>161</ele><time>2016-09-30T09:29:38Z</time></trkpt>
<trkpt lat="53.0114090000" lon="-4.0950970000"><ele>161</ele><time>2016-09-30T09:29:39Z</time></trkpt>
<trkpt lat="53.0114050000" lon="-4.0950880000"><ele>161</ele><time>2016-09-30T09:29:40Z</time></trkpt>
<trkpt lat="53.0114020000" lon="-4.0950800000"><ele>161</ele><time>2016-09-30T09:29:41Z</time></trkpt>
<trkpt lat="53.0113990000" lon="-4.0950720000"><ele>161</ele><time>2016-09-30T09:29:42Z</time></trkpt>
<trkpt lat="53.0113950000" lon="-4.0950630000"><ele>161</ele><time>2016-09-30T09:29:43Z</time></trkpt>
<trkpt lat="53.0113920000" lon="-4.0950540000"><ele>161</ele><time>2016-09-30T09:29:44Z</time></trkpt>
<trkpt lat="53.0113890000" lon="-4.0950460000"><ele>162</ele><time>2016-09-30T09:29:45Z</time></trkpt>
<trkpt lat="53.0113860000" lon="-4.0950370000"><ele>162</ele><time>2016-09-30T09:29:46Z</time></trkpt>
<trkpt lat="53.0113830000" lon="-4.0950300000"><ele>162</ele><time>2016-09-30T09:29:47Z</time></trkpt>
<trkpt lat="53.0113800000" lon="-4.0950230000"><ele>162</ele><time>2016-09-30T09:29:48Z</time></trkpt>
<trkpt lat="53.0113760000" lon="-4.0950160000"><ele>162</ele><time>2016-09-30T09:29:49Z</time></trkpt>
<trkpt lat="53.0113730000" lon="-4.0950090000"><ele>162</ele><time>2016-09-30T09:29:50Z</time></trkpt>
<trkpt lat="53.0113690000" lon="-4.0950020000"><ele>162</ele><time>2016-09-30T09:29:51Z</time></trkpt>
<trkpt lat="53.0113660000" lon="-4.0949950000"><ele>162</ele><time>2016-09-30T09:29:52Z</time></trkpt>
<trkpt lat="53.0113620000" lon="-4.0949880000"><ele>162</ele></trkpt>
<trkpt lat="53.0113590000" lon="-4.0949800000"><ele>162</ele><time>2016-09-30T09:29:54Z</time></trkpt>
<trkpt lat="53.0113560000" lon="-4.0949720000"><ele>163</ele><time>2016-09-30T09:29:55Z</time></trkpt>
<trkpt lat="53.0113540000" lon="-4.0949630000"><ele>163</ele><time>2016-09-30T09:29:56Z</time></trkpt>
<trkpt lat="53.0113510000" lon="-4.0949540000"><ele>163</ele><time>2016-09-30T09:29:57Z</time></trkpt>
<trkpt lat="53.0113500000" lon="-4.0949450000"><ele>163</ele><time>2016-09-30T09:29:58Z</time></trkpt>
<trkpt lat="53.0113480000" lon="-4.0949360000"><ele>163</ele></trkpt>
<trkpt lat="53.0113470000" lon="-4.0949280000"><ele>163</ele><time>2016-09-30T09:30:00Z</time></trkpt>
<trkpt lat="53.0113450000" lon="-4.0949190000"><ele>163</ele><time>2016-09-30T09:30:01Z</time></trkpt>
<trkpt lat="53.0113450000" lon="-4.0949110000"><ele>163</ele><time>2016-09-30T09:30:02Z</time></trkpt>
<trkpt lat="53.0113440000" lon="-4.0949030000"><ele>163</ele><time>2016-09-30T09:30:03Z</time></trkpt>
<trkpt lat="53.0113430000" lon="-4.0948950000"><ele>163</ele><time>2016-09-30T09:30:04Z</time></trkpt>
<trkpt lat="53.0113420000" lon="-4.0948870000"><ele>163</ele><time>2016-09-30T09:30:05Z</time></trkpt>
<trkpt lat="53.0113400000" lon="-4.0948720000"><ele>163</ele><time>2016-09-30T09:30:07Z</time></trkpt>
<trkpt lat="53.0113390000" lon="-4.0948650000"><ele>164</ele></trkpt>
<trkpt lat="53.0113370000" lon="-4.0948570000"><ele>164</ele><time>2016-09-30T09:30:09Z</time></trkpt>
<trkpt lat="53.0113360000" lon="-4.0948500000"><ele>164</ele><time>2016-09-30T09:30:10Z</time></trkpt>
<trkpt lat="53.0113340000" lon="-4.0948430000"><ele>164</ele><time>2016-09-30T09:30:11Z</time></trkpt>
<trkpt lat="53.0113330000" lon="-4.0948370000"><ele>164</ele><time>2016-09-30T09:30:12Z</time></trkpt>
<trkpt lat="53.0113310000" lon="-4.0948310000"><ele>164</ele><time>2016-09-30T09:30:13Z</time></trkpt>
<trkpt lat="53.0113290000" lon="-4.0948250000"><ele>164</ele></trkpt>
<trkpt lat="53.0113270000" lon="-4.0948200000"><ele>164</ele><time>2016-09-30T09:30:15Z</time></trkpt>
<trkpt lat="53.0113250000" lon="-4.0948150000"><ele>164</ele><time>2016-09-30T09:30:16Z</time></trkpt>
<trkpt lat="53.0113230000" lon="-4.0948100000"><ele>164</ele><time>2016-09-30T09:30:17Z</time></trkpt>
<trkpt lat="53.0113220000" lon="-4.0948050000"><ele>164</ele><time>2016-09-30T09:30:18Z</time></trkpt>
<trkpt lat="53.0113200000" lon="-4.0947990000"><ele>165</ele><time>2016-09-30T09:30:19Z</time></trkpt>
<trkpt lat="53.0113190000" lon="-4.0947950000"><ele>165</ele><time>2016-09-30T09:30:20Z</time></trkpt>
<trkpt lat="53.0113180000" lon="-4.0947900000"><ele>165</ele><time>2016-09-30T09:30:21Z</time></trkpt>
<trkpt lat="53.0113160000" lon="-4.0947850000"><ele>165</ele><time>2016-09-30T09:30:22Z</time></trkpt>
<trkpt lat="53.0113150000" lon="-4.0947800000"><ele>165</ele><time>2016-09-30T09:30:23Z</time></trkpt>
<trkpt lat="53.0113140000" lon="-4.0947760000"><ele>165</ele><time>2016-09-30T09:30:24Z</time></trkpt>
<trkpt lat="53.0113130000" lon="-4.0947720000"><ele>166</ele><time>2016-09-30T09:30:25Z</time></trkpt>
<trkpt lat="53.0113120000" lon="-4.0947680000"><ele>166</ele><time>2016-09-30T09:30:26Z</time></trkpt>
<trkpt lat="53.0113110000" lon="-4.0947640000"><ele>166</ele><time>2016-09-30T09:30:27Z</time></trkpt>
<trkpt lat="53.0113100000" lon="-4.0947600000"><ele>166</ele><time>2016-09-30T09:30:28Z</time></trkpt>
<trkpt lat="53.0113090000" lon="-4.0947560000"><ele>166</ele><time>2016-09-30T09:30:29Z</time></trkpt>
<trkpt lat="53.0113080000" lon="-4.0947530000"><ele>167</ele><time>2016-09-30T09:30:30Z</time></trkpt>
<trkpt lat="53.0113070000" lon="-4.0947500000"><ele>167</ele><time>2016-09-30T09:30:31Z</time></trkpt>
<trkpt lat="53.0113070000" lon="-4.0947470000"><ele>167</ele><time>2016-09-30T09:30:32Z</time></trkpt>
<trkpt lat="53.0113060000" lon="-4.0947440000"><ele>167</ele></trkpt>
<trkpt lat="53.0113060000" lon="-4.0947420000"><ele>168</ele><time>2016-09-30T09:30:34Z</time></trkpt>
<trkpt lat="53.0113050000" lon="-4.0947400000"><ele>168</ele><time>2016-09-30T09:30:35Z</time></trkpt>
<trkpt lat="53.0113050000" lon="-4.0947380000"><ele>168</ele><time>2016-09-30T09:30:36Z</time></trkpt>
<trkpt lat="53.0113040000" lon="-4.0947360000"><ele>168</ele><time>2016-09-30T09:30:37Z</time></trkpt>
<trkpt lat="53.0113030000" lon="-4.0947350000"><ele>168</ele><time>2016-09-30T09:30:38Z</time></trkpt>
<trkpt lat="53.0113030000" lon="-4.0947330000"><ele>168</ele></trkpt>
<trkpt lat="53.0113020000" lon="-4.0947320000"><ele>169</ele><time>2016-09-30T09:30:40Z</time></trkpt>
<trkpt lat="53.0113020000" lon="-4.0947310000"><ele>169</ele><time>2016-09-30T09:30:41Z</time></trkpt>
<trkpt lat="53.0113010000" lon="-4.0947300000"><ele>169</ele><time>2016-09-30T09:30:42Z</time></trkpt>
<trkpt lat="53.0113010000" lon="-4.0947290000"><ele>169</ele><time>2016-09-30T09:30:43Z</time></trkpt>
<trkpt lat="53.0113000000" lon="-4.0947270000"><ele>169</ele><time>2016-09-30T09:30:44Z</time></trkpt>
<trkpt lat="53.0112990000" lon="-4.0947260000"><ele>169</ele><time>2016-09-30T09:30:45Z</time></trkpt>
<trkpt lat="53.0112980000" lon="-4.0947240000"><ele>169</ele><time>2016-09-30T09:30:46Z</time></trkpt>
<trkpt lat="53.0112980000" lon="-4.0947220000"><ele>169</ele><time>2016-09-30T09:30:47Z</time></trkpt>
<trkpt lat="53.0112970000" lon="-4.0947200000"><ele>169</ele><time>2016-09-30T09:30:48Z</time></trkpt>
<trkpt lat="53.0112960000" lon="-4.0947170000"><ele>169</ele><time>2016-09-30T09:30:49Z</time></trkpt>
<trkpt lat="53.0112960000" lon="-4.0947150000"><ele>169</ele><time>2016-09-30T09:30:50Z</time></trkpt>
<trkpt lat="53.0112950000" lon="-4.0947120000"><ele>169</ele><time>2016-09-30T09:30:51Z</time></trkpt>
<trkpt lat="53.0112940000" lon="-4.0947100000"><ele>169</ele></trkpt>
<trkpt lat="53.0112940000" lon="-4.0947070000"><ele>169</ele><time>2016-09-30T09:30:53Z</time></trkpt>
<trkpt lat="53.0112930000" lon="-4.0947040000"><ele>169</ele><time>2016-09-30T09:30:54Z</time></trkpt>
<trkpt lat="53.0112920000" lon="-4.0947010000"><ele>169</ele><time>2016-09-30T09:30:55Z</time></trkpt>
<trkpt lat="53.0112910000" lon="-4.0946980000"><ele>169</ele><time>2016-09-30T09:30:56Z</time></trkpt>
<trkpt lat="53.0112900000" lon="-4.0946950000"><ele>169</ele><time>2016-09-30T09:30:57Z</time></trkpt>
<trkpt lat="53.0112890000" lon="-4.0946920000"><ele>169</ele></trkpt>
<trkpt lat="53.0112870000" lon="-4.0946880000"><ele>169</ele><time>2016-09-30T09:30:59Z</time></trkpt>
<trkpt lat="53.0112860000" lon="-4.0946850000"><ele>169</ele><time>2016-09-30T09:31:00Z</time></trkpt>
<trkpt lat="53.0112850000" lon="-4.0946810000"><ele>169</ele><time>2016-09-30T09:31:01Z</time></trkpt>
<trkpt lat="53.0112840000" lon="-4.0946780000"><ele>169</ele><time>2016-09-30T09:31:02Z</time></trkpt>
<trkpt lat="53.0112840000" lon="-4.0946740000"><ele>169</ele><time>2016-09-30T09:31:03Z</time></trkpt>
<trkpt lat="53.0112830000" lon="-4.0946690000"><ele>169</ele></trkpt>
<trkpt lat="53.0112820000" lon="-4.0946650000"><ele>169</ele><time>2016-09-30T09:31:05Z</time></trkpt>
<trkpt lat="53.0112820000" lon="-4.0946550000"><ele>169</ele><time>2016-09-30T09:31:07Z</time></trkpt>
<trkpt lat="53.0112820000" lon="-4.0946490000"><ele>169</ele></trkpt>
<trkpt lat="53.0112820000" lon="-4.0946430000"><ele>170</ele><time>2016-09-30T09:31:09Z</time></trkpt>
<trkpt lat="53.0112820000" lon="-4.0946370000"><ele>170</ele><time>2016-09-30T09:31:10Z</time></trkpt>
<trkpt lat="53.0112820000" lon="-4.0946300000"><ele>170</ele><time>2016-09-30T09:31:11Z</time></trkpt>
<trkpt lat="53.0112810000" lon="-4.0946230000"><ele>170</ele><time>2016-09-30T09:31:12Z</time></trkpt>
<trkpt lat="53.0112810000" lon="-4.0946160000"><ele>170</ele><time>2016-09-30T09:31:13Z</time></trkpt>
<trkpt lat="53.0112800000" lon="-4.0946090000"><ele>170</ele><time>2016-09-30T09:31:14Z</time></trkpt>
<trkpt lat="53.0112790000" lon="-4.0946020000"><ele>170</ele><time>2016-09-30T09:31:15Z</time></trkpt>
<trkpt lat="53.0112780000" lon="-4.0945940000"><ele>170</ele><time>2016-09-30T09:31:16Z</time></trkpt>
<trkpt lat="53.0112780000" lon="-4.0945880000"><ele>170</ele><time>2016-09-30T09:31:17Z</time></trkpt>
<trkpt lat="53.0112770000" lon="-4.0945800000"><ele>170</ele><time>2016-09-30T09:31:18Z</time></trkpt>
<trkpt lat="53.0112770000" lon="-4.0945730000"><ele>170</ele><time>2016-09-30T09:31:19Z</time></trkpt>
<trkpt lat="53.0112760000" lon="-4.0945660000"><ele>170</ele><time>2016-09-30T09:31:20Z</time></trkpt>
<trkpt lat="53.0112760000" lon="-4.0945580000"><ele>171</ele><time>2016-09-30T09:31:21Z</time></trkpt>
<trkpt lat="53.0112750000" lon="-4.0945510000"><ele>171</ele><time>2016-09-30T09:31:22Z</time></trkpt>
<trkpt lat="53.0112750000" lon="-4.0945440000"><ele>171</ele><time>2016-09-30T09:31:23Z</time></trkpt>
<trkpt lat="53.0112740000" lon="-4.0945370000"><ele>171</ele><time>2016-09-30T09:31:24Z</time></trkpt>
<trkpt lat="53.0112740000" lon="-4.0945310000"><ele>171</ele><time>2016-09-30T09:31:25Z</time></trkpt>
<trkpt lat="53.0112740000" lon="-4.0945250000"><ele>171</ele><time>2016-09-30T09:31:26Z</time></trkpt>
<trkpt lat="53.0112740000" lon="-4.0945190000"><ele>171</ele></trkpt>
<trkpt lat="53.0112740000" lon="-4.0945130000"><ele>172</ele><time>2016-09-30T09:31:28Z</time></trkpt>
<trkpt lat="53.0112730000" lon="-4.0945090000"><ele>172</ele><time>2016-09-30T09:31:29Z</time></trkpt>
<trkpt lat="53.0112730000" lon="-4.0945050000"><ele>172</ele><time>2016-09-30T09:31:30Z</time></trkpt>
<trkpt lat="53.0112730000" lon="-4.0945000000"><ele>172</ele><time>2016-09-30T09:31:31Z</time></trkpt>
<trkpt lat="53.0112730000" lon="-4.0944950000"><ele>172</ele><time>2016-09-30T09:31:32Z</time></trkpt>
<trkpt lat="53.0112720000" lon="-4.0944910000"><ele>172</ele></trkpt>
<trkpt lat="53.0112720000" lon="-4.0944860000"><ele>172</ele><time>2016-09-30T09:31:34Z</time></trkpt>
<trkpt lat="53.0112710000" lon="-4.0944820000"><ele>172</ele><time>2016-09-30T09:31:35Z</time></trkpt>
<trkpt lat="53.0112700000" lon="-4.0944780000"><ele>173</ele><time>2016-09-30T09:31:36Z</time></trkpt>
<trkpt lat="53.0112690000" lon="-4.0944730000"><ele>173</ele><time>2016-09-30T09:31:37Z</time></trkpt>
<trkpt lat="53.0112670000" lon="-4.0944690000"><ele>173</ele><time>2016-09-30T09:31:38Z</time></trkpt>
<trkpt lat="53.0112660000" lon="-4.0944640000"><ele>173</ele><time>2016-09-30T09:31:39Z</time></trkpt>
<trkpt lat="53.0112640000" lon="-4.0944600000"><ele>173</ele><time>2016-09-30T09:31:40Z</time></trkpt>
<trkpt lat="53.0112610000" lon="-4.0944560000"><ele>173</ele><time>2016-09-30T09:31:41Z</time></trkpt>
<trkpt lat="53.0112590000" lon="-4.0944520000"><ele>173</ele><time>2016-09-30T09:31:42Z</time></trkpt>
<trkpt lat="53.0112570000" lon="-4.0944480000"><ele>173</ele><time>2016-09-30T09:31:43Z</time></trkpt>
<trkpt lat="53.0112550000" lon="-4.0944440000"><ele>174</ele><time>2016-09-30T09:31:44Z</time></trkpt>
<trkpt lat="53.0112530000" lon="-4.0944400000"><ele>174</ele><time>2016-09-30T09:31:45Z</time></trkpt>
<trkpt lat="53.0112520000" lon="-4.0944360000"><ele>174</ele></trkpt>
<trkpt lat="53.0112500000" lon="-4.0944310000"><ele>174</ele><time>2016-09-30T09:31:47Z</time></trkpt>
<trkpt lat="53.0112480000" lon="-4.0944270000"><ele>174</ele><time>2016-09-30T09:31:48Z</time></trkpt>
<trkpt lat="53.0112470000" lon="-4.0944220000"><ele>174</ele><time>2016-09-30T09:31:49Z</time></trkpt>
<trkpt lat="53.0112450000" lon="-4.0944180000"><ele>174</ele><time>2016-09-30T09:31:50Z</time></trkpt>
<trkpt lat="53.0112430000" lon="-4.0944140000"><ele>174</ele><time>2016-09-30T09:31:51Z</time></trkpt>
<trkpt lat="53.0112420000" lon="-4.0944090000"><ele>174</ele></trkpt>
<trkpt lat="53.0112400000" lon="-4.0944050000"><ele>174</ele><time>2016-09-30T09:31:53Z</time></trkpt>
<trkpt lat="53.0112380000" lon="-4.0944020000"><ele>174</ele><time>2016-09-30T09:31:54Z</time></trkpt>
<trkpt lat="53.0112360000" lon="-4.0943980000"><ele>174</ele><time>2016-09-30T09:31:55Z</time></trkpt>
<trkpt lat="53.0112340000" lon="-4.0943940000"><ele>174</ele><time>2016-09-30T09:31:56Z</time></trkpt>
<trkpt lat="53.0112310000" lon="-4.0943900000"><ele>174</ele><time>2016-09-30T09:31:57Z</time></trkpt>
<trkpt lat="53.0112280000" lon="-4.0943860000"><ele>174</ele><time>2016-09-30T09:31:58Z</time></trkpt>
<trkpt lat="53.0112240000" lon="-4.0943830000"><ele>174</ele><time>2016-09-30T09:31:59Z</time></trkpt>
<trkpt lat="53.0112190000" lon="-4.0943790000"><ele>174</ele><time>2016-09-30T09:32:00Z</time></trkpt>
<trkpt lat="53.0112160000" lon="-4.0943770000"><ele>174</ele><time>2016-09-30T09:32:01Z</time></trkpt>
<trkpt lat="53.0112110000" lon="-4.0943740000"><ele>174</ele><time>2016-09-30T09:32:02Z</time></trkpt>
<trkpt lat="53.0112070000" lon="-4.0943700000"><ele>174</ele><time>2016-09-30T09:32:03Z</time></trkpt>
<trkpt lat="53.0112020000" lon="-4.0943670000"><ele>174</ele><time>2016-09-30T09:32:04Z</time></trkpt>
<trkpt lat="53.0111980000" lon="-4.0943640000"><ele>175</ele><time>2016-09-30T09:32:05Z</time></trkpt>
<trkpt lat="53.0111870000" lon="-4.0943580000"><ele>175</ele><time>2016-09-30T09:32:07Z</time></trkpt>
<trkpt lat="53.0111810000" lon="-4.0943550000"><ele>175</ele></trkpt>
<trkpt lat="53.0111750000" lon="-4.0943520000"><ele>175</ele><time>2016-09-30T09:32:09Z</time></trkpt>
<trkpt lat="53.0111690000" lon="-4.0943500000"><ele>175</ele><time>2016-09-30T09:32:10Z</time></trkpt>
<trkpt lat="53.0111630000" lon="-4.0943460000"><ele>175</ele><time>2016-09-30T09:32:11Z</time></trkpt>
<trkpt lat="53.0111570000" lon="-4.0943420000"><ele>175</ele><time>2016-09-30T09:32:12Z</time></trkpt>
<trkpt lat="53.0111500000" lon="-4.0943380000"><ele>175</ele><time>2016-09-30T09:32:13Z</time></trkpt>
<trkpt lat="53.0111440000" lon="-4.0943330000"><ele>176</ele><time>2016-09-30T09:32:14Z</time></trkpt>
<trkpt lat="53.0111390000" lon="-4.0943270000"><ele>176</ele><time>2016-09-30T09:32:15Z</time></trkpt>
<trkpt lat="53.0111330000" lon="-4.0943200000"><ele>176</ele><time>2016-09-30T09:32:16Z</time></trkpt>
<trkpt lat="53.0111290000" lon="-4.0943130000"><ele>176</ele><time>2016-09-30T09:32:17Z</time></trkpt>
<trkpt lat="53.0111240000" lon="-4.0943060000"><ele>176</ele><time>2016-09-30T09:32:18Z</time></trkpt>
<trkpt lat="53.0111200000" lon="-4.0942970000"><ele>176</ele><time>2016-09-30T09:32:19Z</time></trkpt>
<trkpt lat="53.0111150000" lon="-4.0942880000"><ele>176</ele><time>2016-09-30T09:32:20Z</time></trkpt>
<trkpt lat="53.0111100000" lon="-4.0942790000"><ele>176</ele></trkpt>
<trkpt lat="53.0111050000" lon="-4.0942690000"><ele>176</ele><time>2016-09-30T09:32:22Z</time></trkpt>
<trkpt lat="53.0111010000" lon="-4.0942600000"><ele>177</ele><time>2016-09-30T09:32:23Z</time></trkpt>
<trkpt lat="53.0110950000" lon="-4.0942500000"><ele>177</ele><time>2016-09-30T09:32:24Z</time></trkpt>
<trkpt lat="53.0110900000" lon="-4.0942410000"><ele>177</ele><time>2016-09-30T09:32:25Z</time></trkpt>
<trkpt lat="53.0110850000" lon="-4.0942320000"><ele>177</ele><time>2016-09-30T09:32:26Z</time></trkpt>
<trkpt lat="53.0110800000" lon="-4.0942230000"><ele>177</ele></trkpt>
<trkpt lat="53.0110760000" lon="-4.0942150000"><ele>177</ele><time>2016-09-30T09:32:28Z</time></trkpt>
<trkpt lat="53.0110710000" lon="-4.0942060000"><ele>178</ele><time>2016-09-30T09:32:29Z</time></trkpt>
<trkpt lat="53.0110670000" lon="-4.0941980000"><ele>178</ele><time>2016-09-30T09:32:30Z</time></trkpt>
<trkpt lat="53.0110620000" lon="-4.0941890000"><ele>178</ele><time>2016-09-30T09:32:31Z</time></trkpt>
<trkpt lat="53.0110580000" lon="-4.0941800000"><ele>178</ele><time>2016-09-30T09:32:32Z</time></trkpt>
<trkpt lat="53.0110530000" lon="-4.0941710000"><ele>179</ele><time>2016-09-30T09:32:33Z</time></trkpt>
<trkpt lat="53.0110480000" lon="-4.0941610000"><ele>179</ele><time>2016-09-30T09:32:34Z</time></trkpt>
<trkpt lat="53.0110420000" lon="-4.0941520000"><ele>179</ele><time>2016-09-30T09:32:35Z</time></trkpt>
<trkpt lat="53.0110370000" lon="-4.0941420000"><ele>179</ele><time>2016-09-30T09:32:36Z</time></trkpt>
<trkpt lat="53.0110320000" lon="-4.0941320000"><ele>179</ele><time>2016-09-30T09:32:37Z</time></trkpt>
<trkpt lat="53.0110260000" lon="-4.0941220000"><ele>179</ele><time>2016-09-30T09:32:38Z</time></trkpt>
<trkpt lat="53.0110210000" lon="-4.0941120000"><ele>179</ele><time>2016-09-30T09:32:39Z</time></trkpt>
<trkpt lat="53.0110160000" lon="-4.0941030000"><ele>179</ele><time>2016-09-30T09:32:40Z</time></trkpt>
<trkpt lat="53.0110110000" lon="-4.0940930000"><ele>180</ele><time>2016-09-30T09:32:41Z</time></trkpt>
<trkpt lat="53.0110070000" lon="-4.0940830000"><ele>180</ele><time>2016-09-30T09:32:42Z</time></trkpt>
<trkpt lat="53.0110030000" lon="-4.0940730000"><ele>180</ele><time>2016-09-30T09:32:43Z</time></trkpt>
<trkpt lat="53.0109980000" lon="-4.0940630000"><ele>180</ele><time>2016-09-30T09:32:44Z</time></trkpt>
<trkpt lat="53.0109940000" lon="-4.0940540000"><ele>180</ele><time>2016-09-30T09:32:45Z</time></trkpt>
<trkpt lat="53.0109900000" lon="-4.0940470000"><ele>180</ele></trkpt>
<trkpt lat="53.0109860000" lon="-4.0940380000"><ele>181</ele><time>2016-09-30T09:32:47Z</time></trkpt>
<trkpt lat="53.0109820000" lon="-4.0940310000"><ele>181</ele><time>2016-09-30T09:32:48Z</time></trkpt>
<trkpt lat="53.0109770000" lon="-4.0940240000"><ele>181</ele><time>2016-09-30T09:32:49Z</time></trkpt>
<trkpt lat="53.0109720000" lon="-4.0940170000"><ele>181</ele><time>2016-09-30T09:32:50Z</time></trkpt>
<trkpt lat="53.0109670000" lon="-4.0940120000"><ele>181</ele><time>2016-09-30T09:32:51Z</time></trkpt>
<trkpt lat="53.0109620000" lon="-4.0940060000"><ele>182</ele></trkpt>
<trkpt lat="53.0109560000" lon="-4.0940000000"><ele>182</ele><time>2016-09-30T09:32:53Z</time></trkpt>
<trkpt lat="53.0109510000" lon="-4.0939940000"><ele>182</ele><time>2016-09-30T09:32:54Z</time></trkpt>
<trkpt lat="53.0109460000" lon="-4.0939870000"><ele>182</ele><time>2016-09-30T09:32:55Z</time></trkpt>
<trkpt lat="53.0109410000" lon="-4.0939800000"><ele>182</ele><time>2016-09-30T09:32:56Z</time></trkpt>
<trkpt lat="53.0109370000" lon="-4.0939730000"><ele>183</ele><time>2016-09-30T09:32:57Z</time></trkpt>
<trkpt lat="53.0109330000" lon="-4.0939650000"><ele>183</ele><time>2016-09-30T09:32:58Z</time></trkpt>
<trkpt lat="53.0109300000" lon="-4.0939580000"><ele>183</ele><time>2016-09-30T09:32:59Z</time></trkpt>
<trkpt lat="53.0109270000" lon="-4.0939500000"><ele>183</ele><time>2016-09-30T09:33:00Z</time></trkpt>
<trkpt lat="53.0109230000" lon="-4.0939420000"><ele>183</ele><time>2016-09-30T09:33:01Z</time></trkpt>
<trkpt lat="53.0109210000" lon="-4.0939340000"><ele>183</ele><time>2016-09-30T09:33:02Z</time></trkpt>
<trkpt lat="53.0109180000" lon="-4.0939250000"><ele>184</ele><time>2016-09-30T09:33:03Z</time></trkpt>
<trkpt lat="53.0109160000" lon="-4.0939160000"><ele>184</ele><time>2016-09-30T09:33:04Z</time></trkpt>
<trkpt lat="53.0109130000" lon="-4.0939070000"><ele>184</ele></trkpt>
<trkpt lat="53.0109080000" lon="-4.0938890000"><ele>184</ele><time>2016-09-30T09:33:07Z</time></trkpt>
<trkpt lat="53.0109050000" lon="-4.0938800000"><ele>184</ele><time>2016-09-30T09:33:08Z</time></trkpt>
<trkpt lat="53.0109030000" lon="-4.0938710000"><ele>184</ele><time>2016-09-30T09:33:09Z</time></trkpt>
<trkpt lat="53.0109000000" lon="-4.0938620000"><ele>184</ele><time>2016-09-30T09:33:10Z</time></trkpt>
<trkpt lat="53.0108980000" lon="-4.0938530000"><ele>185</ele><time>2016-09-30T09:33:11Z</time></trkpt>
<trkpt lat="53.0108970000" lon="-4.0938450000"><ele>185</ele><time>2016-09-30T09:33:12Z</time></trkpt>
<trkpt lat="53.0108960000" lon="-4.0938370000"><ele>185</ele><time>2016-09-30T09:33:13Z</time></trkpt>
<trkpt lat="53.0108940000" lon="-4.0938290000"><ele>185</ele><time>2016-09-30T09:33:14Z</time></trkpt>
<trkpt lat="53.0108930000" lon="-4.0938220000"><ele>185</ele><time>2016-09-30T09:33:15Z</time></trkpt>
<trkpt lat="53.0108920000" lon="-4.0938160000"><ele>185</ele><time>2016-09-30T09:33:16Z</time></trkpt>
<trkpt lat="53.0108910000" lon="-4.0938100000"><ele>185</ele><time>2016-09-30T09:33:17Z</time></trkpt>
<trkpt lat="53.0108890000" lon="-4.0938040000"><ele>185</ele><time>2016-09-30T09:33:18Z</time></trkpt>
<trkpt lat="53.0108880000" lon="-4.0937980000"><ele>185</ele><time>2016-09-30T09:33:19Z</time></trkpt>
<trkpt lat="53.0108870000" lon="-4.0937920000"><ele>185</ele><time>2016-09-30T09:33:20Z</time></trkpt>
<trkpt lat="53.0108860000" lon="-4.0937860000"><ele>185</ele></trkpt>
<trkpt lat="53.0108850000" lon="-4.0937800000"><ele>185</ele><time>2016-09-30T09:33:22Z</time></trkpt>
<trkpt lat="53.0108840000" lon="-4.0937730000"><ele>185</ele><time>2016-09-30T09:33:23Z</time></trkpt>
<trkpt lat="53.0108830000" lon="-4.0937660000"><ele>186</ele><time>2016-09-30T09:33:24Z</time></trkpt>
<trkpt lat="53.0108820000" lon="-4.0937580000"><ele>186</ele><time>2016-09-30T09:33:25Z</time></trkpt>
<trkpt lat="53.0108810000" lon="-4.0937500000"><ele>186</ele><time>2016-09-30T09:33:26Z</time></trkpt>
<trkpt lat="53.0108800000" lon="-4.0937410000"><ele>186</ele></trkpt>
<trkpt lat="53.0108780000" lon="-4.0937330000"><ele>186</ele><time>2016-09-30T09:33:28Z</time></trkpt>
<trkpt lat="53.0108770000" lon="-4.0937240000"><ele>186</ele><time>2016-09-30T09:33:29Z</time></trkpt>
<trkpt lat="53.0108750000" lon="-4.0937150000"><ele>187</ele><time>2016-09-30T09:33:30Z</time></trkpt>
<trkpt lat="53.0108730000" lon="-4.0937050000"><ele>187</ele><time>2016-09-30T09:33:31Z</time></trkpt>
<trkpt lat="53.0108710000" lon="-4.0936960000"><ele>187</ele><time>2016-09-30T09:33:32Z</time></trkpt>
<trkpt lat="53.0108680000" lon="-4.0936870000"><ele>187</ele><time>2016-09-30T09:33:33Z</time></trkpt>
<trkpt lat="53.0108660000" lon="-4.0936770000"><ele>187</ele><time>2016-09-30T09:33:34Z</time></trkpt>
<trkpt lat="53.0108630000" lon="-4.0936680000"><ele>187</ele><time>2016-09-30T09:33:35Z</time></trkpt>
<trkpt lat="53.0108610000" lon="-4.0936580000"><ele>187</ele><time>2016-09-30T09:33:36Z</time></trkpt>
<trkpt lat="53.0108580000" lon="-4.0936480000"><ele>187</ele><time>2016-09-30T09:33:37Z</time></trkpt>
<trkpt lat="53.0108560000" lon="-4.0936370000"><ele>188</ele><time>2016-09-30T09:33:38Z</time></trkpt>
<trkpt lat="53.0108530000" lon="-4.0936270000"><ele>188</ele><time>2016-09-30T09:33:39Z</time></trkpt>
<trkpt lat="53.0108510000" lon="-4.0936160000"><ele>188</ele><time>2016-09-30T09:33:40Z</time></trkpt>
<trkpt lat="53.0108490000" lon="-4.0936050000"><ele>188</ele><time>2016-09-30T09:33:41Z</time></trkpt>
<trkpt lat="53.0108460000" lon="-4.0935950000"><ele>188</ele><time>2016-09-30T09:33:42Z</time></trkpt>
<trkpt lat="53.0108440000" lon="-4.0935840000"><ele>188</ele><time>2016-09-30T09:33:43Z</time></trkpt>
<trkpt lat="53.0108420000" lon="-4.0935730000"><ele>188</ele><time>2016-09-30T09:33:44Z</time></trkpt>
<trkpt lat="53.0108390000" lon="-4.0935620000"><ele>188</ele><time>2016-09-30T09:33:45Z</time></trkpt>
<trkpt lat="53.0108370000" lon="-4.0935520000"><ele>188</ele></trkpt>
<trkpt lat="53.0108340000" lon="-4.0935410000"><ele>188</ele><time>2016-09-30T09:33:47Z</time></trkpt>
<trkpt lat="53.0108320000" lon="-4.0935300000"><ele>188</ele><time>2016-09-30T09:33:48Z</time></trkpt>
<trkpt lat="53.0108290000" lon="-4.0935190000"><ele>188</ele><time>2016-09-30T09:33:49Z</time></trkpt>
<trkpt lat="53.0108270000" lon="-4.0935090000"><ele>188</ele><time>2016-09-30T09:33:50Z</time></trkpt>
<trkpt lat="53.0108240000" lon="-4.0934990000"><ele>189</ele><time>2016-09-30T09:33:51Z</time></trkpt>
<trkpt lat="53.0108210000" lon="-4.0934900000"><ele>189</ele><time>2016-09-30T09:33:52Z</time></trkpt>
<trkpt lat="53.0108180000" lon="-4.0934800000"><ele>189</ele><time>2016-09-30T09:33:53Z</time></trkpt>
<trkpt lat="53.0108150000" lon="-4.0934720000"><ele>189</ele><time>2016-09-30T09:33:54Z</time></trkpt>
<trkpt lat="53.0108120000" lon="-4.0934630000"><ele>189</ele><time>2016-09-30T09:33:55Z</time></trkpt>
<trkpt lat="53.0108080000" lon="-4.0934540000"><ele>189</ele><time>2016-09-30T09:33:56Z</time></trkpt>
<trkpt lat="53.0108050000" lon="-4.0934450000"><ele>189</ele><time>2016-09-30T09:33:57Z</time></trkpt>
<trkpt lat="53.0108010000" lon="-4.0934370000"><ele>189</ele><time>2016-09-30T09:33:58Z</time></trkpt>
<trkpt lat="53.0107980000" lon="-4.0934290000"><ele>189</ele><time>2016-09-30T09:33:59Z</time></trkpt>
<trkpt lat="53.0107940000" lon="-4.0934200000"><ele>190</ele><time>2016-09-30T09:34:00Z</time></trkpt>
<trkpt lat="53.0107910000" lon="-4.0934120000"><ele>190</ele><time>2016-09-30T09:34:01Z</time></trkpt>
<trkpt lat="53.0107870000" lon="-4.0934030000"><ele>190</ele><time>2016-09-30T09:34:02Z</time></trkpt>
<trkpt lat="53.0107830000" lon="-4.0933950000"><ele>190</ele><time>2016-09-30T09:34:03Z</time></trkpt>
<trkpt lat="53.0107790000" lon="-4.0933880000"><ele>190</ele><time>2016-09-30T09:34:04Z</time></trkpt>
<trkpt lat="53.0107750000" lon="-4.0933800000"><ele>190</ele></trkpt>
<trkpt lat="53.0107670000" lon="-4.0933670000"><ele>190</ele><time>2016-09-30T09:34:07Z</time></trkpt>
<trkpt lat="53.0107620000" lon="-4.0933610000"><ele>190</ele><time>2016-09-30T09:34:08Z</time></trkpt>
<trkpt lat="53.0107580000" lon="-4.0933560000"><ele>191</ele></trkpt>
<trkpt lat="53.0107530000" lon="-4.0933520000"><ele>191</ele><time>2016-09-30T09:34:10Z</time></trkpt>
<trkpt lat="53.0107480000" lon="-4.0933490000"><ele>191</ele><time>2016-09-30T09:34:11Z</time></trkpt>
<trkpt lat="53.0107430000" lon="-4.0933460000"><ele>191</ele><time>2016-09-30T09:34:12Z</time></trkpt>
<trkpt lat="53.0107380000" lon="-4.0933440000"><ele>191</ele><time>2016-09-30T09:34:13Z</time></trkpt>
<trkpt lat="53.0107330000" lon="-4.0933430000"><ele>191</ele><time>2016-09-30T09:34:14Z</time></trkpt>
<trkpt lat="53.0107280000" lon="-4.0933420000"><ele>191</ele></trkpt>
<trkpt lat="53.0107240000" lon="-4.0933420000"><ele>191</ele><time>2016-09-30T09:34:16Z</time></trkpt>
<trkpt lat="53.0107190000" lon="-4.0933430000"><ele>191</ele><time>2016-09-30T09:34:17Z</time></trkpt>
<trkpt lat="53.0107140000" lon="-4.0933440000"><ele>191</ele><time>2016-09-30T09:34:18Z</time></trkpt>
<trkpt lat="53.0107090000" lon="-4.0933460000"><ele>191</ele><time>2016-09-30T09:34:19Z</time></trkpt>
<trkpt lat="53.0107040000" lon="-4.0933480000"><ele>192</ele><time>2016-09-30T09:34:20Z</time></trkpt>
<trkpt lat="53.0106990000" lon="-4.0933500000"><ele>192</ele><time>2016-09-30T09:34:21Z</time></trkpt>
<trkpt lat="53.0106940000" lon="-4.0933520000"><ele>192</ele><time>2016-09-30T09:34:22Z</time></trkpt>
<trkpt lat="53.0106890000" lon="-4.0933540000"><ele>192</ele><time>2016-09-30T09:34:23Z</time></trkpt>
<trkpt lat="53.0106840000" lon="-4.0933570000"><ele>192</ele><time>2016-09-30T09:34:24Z</time></trkpt>
<trkpt lat="53.0106790000" lon="-4.0933600000"><ele>192</ele><time>2016-09-30T09:34:25Z</time></trkpt>
<trkpt lat="53.0106740000" lon="-4.0933620000"><ele>193</ele><time>2016-09-30T09:34:26Z</time></trkpt>
<trkpt lat="53.0106680000" lon="-4.0933640000"><ele>193</ele><time>2016-09-30T09:34:27Z</time></trkpt>
<trkpt lat="53.0106630000" lon="-4.0933660000"><ele>193</ele></trkpt>
<trkpt lat="53.0106580000" lon="-4.0933680000"><ele>193</ele><time>2016-09-30T09:34:29Z</time></trkpt>
<trkpt lat="53.0106530000" lon="-4.0933700000"><ele>193</ele><time>2016-09-30T09:34:30Z</time></trkpt>
<trkpt lat="53.0106480000" lon="-4.0933720000"><ele>193</ele><time>2016-09-30T09:34:31Z</time></trkpt>
<trkpt lat="53.0106430000" lon="-4.0933730000"><ele>194</ele><time>2016-09-30T09:34:32Z</time></trkpt>
<trkpt lat="53.0106380000" lon="-4.0933750000"><ele>194</ele><time>2016-09-30T09:34:33Z</time></trkpt>
<trkpt lat="53.0106330000" lon="-4.0933760000"><ele>194</ele></trkpt>
<trkpt lat="53.0106280000" lon="-4.0933770000"><ele>194</ele><time>2016-09-30T09:34:35Z</time></trkpt>
<trkpt lat="53.0106240000" lon="-4.0933780000"><ele>194</ele><time>2016-09-30T09:34:36Z</time></trkpt>
<trkpt lat="53.0106200000" lon="-4.0933780000"><ele>194</ele><time>2016-09-30T09:34:37Z</time></trkpt>
<trkpt lat="53.0106160000" lon="-4.0933780000"><ele>195</ele><time>2016-09-30T09:34:38Z</time></trkpt>
<trkpt lat="53.0106130000" lon="-4.0933780000"><ele>195</ele><time>2016-09-30T09:34:39Z</time></trkpt>
<trkpt lat="53.0106090000" lon="-4.0933780000"><ele>195</ele><time>2016-09-30T09:34:40Z</time></trkpt>
<trkpt lat="53.0106060000" lon="-4.0933780000"><ele>195</ele><time>2016-09-30T09:34:41Z</time></trkpt>
<trkpt lat="53.0106030000" lon="-4.0933790000"><ele>196</ele><time>2016-09-30T09:34:42Z</time></trkpt>
<trkpt lat="53.0106000000" lon="-4.0933790000"><ele>196</ele><time>2016-09-30T09:34:43Z</time></trkpt>
<trkpt lat="53.0105970000" lon="-4.0933790000"><ele>196</ele><time>2016-09-30T09:34:44Z</time></trkpt>
<trkpt lat="53.0105940000" lon="-4.0933790000"><ele>197</ele><time>2016-09-30T09:34:45Z</time></trkpt>
<trkpt lat="53.0105920000" lon="-4.0933800000"><ele>197</ele><time>2016-09-30T09:34:46Z</time></trkpt>
<trkpt lat="53.0105890000" lon="-4.0933810000"><ele>197</ele><time>2016-09-30T09:34:47Z</time></trkpt>
<trkpt lat="53.0105870000" lon="-4.0933810000"><ele>197</ele><time>2016-09-30T09:34:48Z</time></trkpt>
<trkpt lat="53.0105850000" lon="-4.0933820000"><ele>197</ele><time>2016-09-30T09:34:49Z</time></trkpt>
<trkpt lat="53.0105830000" lon="-4.0933810000"><ele>198</ele><time>2016-09-30T09:34:50Z</time></trkpt>
<trkpt lat="53.0105800000" lon="-4.0933810000"><ele>198</ele><time>2016-09-30T09:34:51Z</time></trkpt>
<trkpt lat="53.0105780000" lon="-4.0933810000"><ele>198</ele><time>2016-09-30T09:34:52Z</time></trkpt>
<trkpt lat="53.0105760000" lon="-4.0933810000"><ele>198</ele></trkpt>
<trkpt lat="53.0105730000" lon="-4.0933820000"><ele>198</ele><time>2016-09-30T09:34:54Z</time></trkpt>
<trkpt lat="53.0105710000" lon="-4.0933820000"><ele>198</ele><time>2016-09-30T09:34:55Z</time></trkpt>
<trkpt lat="53.0105680000" lon="-4.0933830000"><ele>198</ele><time>2016-09-30T09:34:56Z</time></trkpt>
<trkpt lat="53.0105660000" lon="-4.0933840000"><ele>198</ele><time>2016-09-30T09:34:57Z</time></trkpt>
<trkpt lat="53.0105630000" lon="-4.0933850000"><ele>198</ele><time>2016-09-30T09:34:58Z</time></trkpt>
<trkpt lat="53.0105610000" lon="-4.0933860000"><ele>198</ele></trkpt>
<trkpt lat="53.0105580000" lon="-4.0933870000"><ele>198</ele><time>2016-09-30T09:35:00Z</time></trkpt>
<trkpt lat="53.0105550000" lon="-4.0933880000"><ele>198</ele><time>2016-09-30T09:35:01Z</time></trkpt>
<trkpt lat="53.0105520000" lon="-4.0933880000"><ele>198</ele><time>2016-09-30T09:35:02Z</time></trkpt>
<trkpt lat="53.0105490000" lon="-4.0933890000"><ele>198</ele><time>2016-09-30T09:35:03Z</time></trkpt>
<trkpt lat="53.0105470000" lon="-4.0933900000"><ele>198</ele><time>2016-09-30T09:35:04Z</time></trkpt>
<trkpt lat="53.0105440000" lon="-4.0933910000"><ele>198</ele><time>2016-09-30T09:35:05Z</time></trkpt>
<trkpt lat="53.0105400000" lon="-4.0933920000"><ele>198</ele><time>2016-09-30T09:35:07Z</time></trkpt>
<trkpt lat="53.0105390000" lon="-4.0933930000"><ele>199</ele></trkpt>
<trkpt lat="53.0105370000" lon="-4.0933940000"><ele>199</ele><time>2016-09-30T09:35:09Z</time></trkpt>
<trkpt lat="53.0105360000" lon="-4.0933950000"><ele>199</ele><time>2016-09-30T09:35:10Z</time></trkpt>
<trkpt lat="53.0105350000" lon="-4.0933960000"><ele>199</ele><time>2016-09-30T09:35:11Z</time></trkpt>
<trkpt lat="53.0105340000" lon="-4.0933970000"><ele>199</ele><time>2016-09-30T09:35:12Z</time></trkpt>
<trkpt lat="53.0105340000" lon="-4.0933970000"><ele>199</ele><time>2016-09-30T09:35:13Z</time></trkpt>
<trkpt lat="53.0105330000" lon="-4.0933980000"><ele>199</ele></trkpt>
<trkpt lat="53.0105330000" lon="-4.0933990000"><ele>200</ele><time>2016-09-30T09:35:15Z</time></trkpt>
<trkpt lat="53.0105330000" lon="-4.0933990000"><ele>200</ele><time>2016-09-30T09:35:16Z</time></trkpt>
<trkpt lat="53.0105330000" lon="-4.0934000000"><ele>200</ele><time>2016-09-30T09:35:17Z</time></trkpt>
<trkpt lat="53.0105330000" lon="-4.0934010000"><ele>200</ele><time>2016-09-30T09:35:18Z</time></trkpt>
<trkpt lat="53.0105320000" lon="-4.0934010000"><ele>200</ele><time>2016-09-30T09:35:19Z</time></trkpt>
<trkpt lat="53.0105320000" lon="-4.0934020000"><ele>200</ele><time>2016-09-30T09:35:20Z</time></trkpt>
<trkpt lat="53.0105320000" lon="-4.0934030000"><ele>201</ele><time>2016-09-30T09:35:21Z</time></trkpt>
<trkpt lat="53.0105320000" lon="-4.0934040000"><ele>201</ele><time>2016-09-30T09:35:22Z</time></trkpt>
<trkpt lat="53.0105330000" lon="-4.0934050000"><ele>201</ele><time>2016-09-30T09:35:23Z</time></trkpt>
<trkpt lat="53.0105330000" lon="-4.0934050000"><ele>201</ele><time>2016-09-30T09:35:24Z</time></trkpt>
<trkpt lat="53.0105330000" lon="-4.0934060000"><ele>201</ele><time>2016-09-30T09:35:25Z</time></trkpt>
<trkpt lat="53.0105340000" lon="-4.0934070000"><ele>201</ele><time>2016-09-30T09:35:26Z</time></trkpt>
<trkpt lat="53.0105340000" lon="-4.0934080000"><ele>201</ele><time>2016-09-30T09:35:27Z</time></trkpt>
<trkpt lat="53.0105340000" lon="-4.0934090000"><ele>201</ele><time>2016-09-30T09:35:28Z</time></trkpt>
<trkpt lat="53.0105340000" lon="-4.0934100000"><ele>202</ele><time>2016-09-30T09:35:29Z</time></trkpt>
<trkpt lat="53.0105340000" lon="-4.0934100000"><ele>202</ele><time>2016-09-30T09:35:30Z</time></trkpt>
<trkpt lat="53.0105340000" lon="-4.0934110000"><ele>202</ele><time>2016-09-30T09:35:31Z</time></trkpt>
<trkpt lat="53.0105340000" lon="-4.0934120000"><ele>202</ele><time>2016-09-30T09:35:32Z</time></trkpt>
<trkpt lat="53.0105340000" lon="-4.0934130000"><ele>202</ele></trkpt>
<trkpt lat="53.0105340000" lon="-4.0934140000"><ele>202</ele><time>2016-09-30T09:35:34Z</time></trkpt>
<trkpt lat="53.0105340000" lon="-4.0934140000"><ele>202</ele><time>2016-09-30T09:35:35Z</time></trkpt>
<trkpt lat="53.0105340000" lon="-4.0934140000"><ele>202</ele><time>2016-09-30T09:35:36Z</time></trkpt>
<trkpt lat="53.0105340000" lon="-4.0934150000"><ele>202</ele><time>2016-09-30T09:35:37Z</time></trkpt>
<trkpt lat="53.0105330000" lon="-4.0934150000"><ele>202</ele><time>2016-09-30T09:35:38Z</time></trkpt>
<trkpt lat="53.0105330000" lon="-4.0934150000"><ele>202</ele><time>2016-09-30T09:35:39Z</time></trkpt>
<trkpt lat="53.0105330000" lon="-4.0934160000"><ele>202</ele><time>2016-09-30T09:35:40Z</time></trkpt>
<trkpt lat="53.0105330000" lon="-4.0934170000"><ele>202</ele><time>2016-09-30T09:35:41Z</time></trkpt>
<trkpt lat="53.0105330000" lon="-4.0934170000"><ele>202</ele><time>2016-09-30T09:35:42Z</time></trkpt>
<trkpt lat="53.0105330000" lon="-4.0934180000"><ele>202</ele><time>2016-09-30T09:35:43Z</time></trkpt>
<trkpt lat="53.0105320000" lon="-4.0934190000"><ele>202</ele><time>2016-09-30T09:35:44Z</time></trkpt>
<trkpt lat="53.0105320000" lon="-4.0934200000"><ele>202</ele><time>2016-09-30T09:35:45Z</time></trkpt>
<trkpt lat="53.0105320000" lon="-4.0934210000"><ele>202</ele><time>2016-09-30T09:35:46Z</time></trkpt>
<trkpt lat="53.0105320000" lon="-4.0934220000"><ele>202</ele><time>2016-09-30T09:35:47Z</time></trkpt>
<trkpt lat="53.0105310000" lon="-4.0934220000"><ele>202</ele><time>2016-09-30T09:35:48Z</time></trkpt>
<trkpt lat="53.0105310000" lon="-4.0934230000"><ele>202</ele><time>2016-09-30T09:35:49Z</time></trkpt>
<trkpt lat="53.0105300000" lon="-4.0934230000"><ele>202</ele><time>2016-09-30T09:35:50Z</time></trkpt>
<trkpt lat="53.0105300000" lon="-4.0934240000"><ele>202</ele><time>2016-09-30T09:35:51Z</time></trkpt>
<trkpt lat="53.0105290000" lon="-4.0934250000"><ele>202</ele></trkpt>
<trkpt lat="53.0105290000" lon="-4.0934250000"><ele>202</ele><time>2016-09-30T09:35:53Z</time></trkpt>
<trkpt lat="53.0105280000" lon="-4.0934260000"><ele>202</ele><time>2016-09-30T09:35:54Z</time></trkpt>
<trkpt lat="53.0105270000" lon="-4.0934260000"><ele>202</ele><time>2016-09-30T09:35:55Z</time></trkpt>
<trkpt lat="53.0105260000" lon="-4.0934270000"><ele>202</ele><time>2016-09-30T09:35:56Z</time></trkpt>
<trkpt lat="53.0105250000" lon="-4.0934270000"><ele>202</ele><time>2016-09-30T09:35:57Z</time></trkpt>
<trkpt lat="53.0105250000" lon="-4.0934270000"><ele>202</ele></trkpt>
<trkpt lat="53.0105240000" lon="-4.0934270000"><ele>202</ele><time>2016-09-30T09:35:59Z</time></trkpt>
<trkpt lat="53.0105230000" lon="-4.0934270000"><ele>202</ele><time>2016-09-30T09:36:00Z</time></trkpt>
<trkpt lat="53.0105230000" lon="-4.0934270000"><ele>202</ele><time>2016-09-30T09:36:01Z</time></trkpt>
<trkpt lat="53.0105220000" lon="-4.0934270000"><ele>202</ele><time>2016-09-30T09:36:02Z</time></trkpt>
<trkpt lat="53.0105210000" lon="-4.0934280000"><ele>202</ele><time>2016-09-30T09:36:03Z</time></trkpt>
<trkpt lat="53.0105210000" lon="-4.0934280000"><ele>202</ele><time>2016-09-30T09:36:04Z</time></trkpt>
<trkpt lat="53.0105200000" lon="-4.0934280000"><ele>202</ele><time>2016-09-30T09:36:05Z</time></trkpt>
<trkpt lat="53.0105180000" lon="-4.0934280000"><ele>201</ele><time>2016-09-30T09:36:07Z</time></trkpt>
<trkpt lat="53.0105180000" lon="-4.0934280000"><ele>201</ele></trkpt>
<trkpt lat="53.0105170000" lon="-4.0934290000"><ele>201</ele><time>2016-09-30T09:36:09Z</time></trkpt>
<trkpt lat="53.0105160000" lon="-4.0934290000"><ele>201</ele><time>2016-09-30T09:36:10Z</time></trkpt>
<trkpt lat="53.0105150000" lon="-4.0934300000"><ele>201</ele><time>2016-09-30T09:36:11Z</time></trkpt>
<trkpt lat="53.0105140000" lon="-4.0934300000"><ele>201</ele><time>2016-09-30T09:36:12Z</time></trkpt>
<trkpt lat="53.0105130000" lon="-4.0934310000"><ele>201</ele><time>2016-09-30T09:36:13Z</time></trkpt>
<trkpt lat="53.0105120000" lon="-4.0934310000"><ele>200</ele><time>2016-09-30T09:36:14Z</time></trkpt>
<trkpt lat="53.0105110000" lon="-4.0934310000"><ele>200</ele><time>2016-09-30T09:36:15Z</time></trkpt>
<trkpt lat="53.0105100000" lon="-4.0934320000"><ele>200</ele><time>2016-09-30T09:36:16Z</time></trkpt>
<trkpt lat="53.0105090000" lon="-4.0934320000"><ele>200</ele><time>2016-09-30T09:36:17Z</time></trkpt>
<trkpt lat="53.0105080000" lon="-4.0934330000"><ele>200</ele><time>2016-09-30T09:36:18Z</time></trkpt>
<trkpt lat="53.0105060000" lon="-4.0934340000"><ele>200</ele><time>2016-09-30T09:36:19Z</time></trkpt>
<trkpt lat="53.0105050000" lon="-4.0934350000"><ele>200</ele><time>2016-09-30T09:36:20Z</time></trkpt>
<trkpt lat="53.0105040000" lon="-4.0934360000"><ele>200</ele><time>2016-09-30T09:36:21Z</time></trkpt>
<trkpt lat="53.0105030000" lon="-4.0934370000"><ele>200</ele><time>2016-09-30T09:36:22Z</time></trkpt>
<trkpt lat="53.0105020000" lon="-4.0934380000"><ele>200</ele><time>2016-09-30T09:36:23Z</time></trkpt>
<trkpt lat="53.0105010000" lon="-4.0934400000"><ele>200</ele><time>2016-09-30T09:36:24Z</time></trkpt>
<trkpt lat="53.0105000000" lon="-4.0934410000"><ele>200</ele><time>2016-09-30T09:36:25Z</time></trkpt>
<trkpt lat="53.0105000000" lon="-4.0934420000"><ele>200</ele><time>2016-09-30T09:36:26Z</time></trkpt>
<trkpt lat="53.0104990000" lon="-4.0934440000"><ele>200</ele><time>2016-09-30T09:36:27Z</time></trkpt>
<trkpt lat="53.0104990000" lon="-4.0934460000"><ele>200</ele><time>2016-09-30T09:36:28Z</time></trkpt>
<trkpt lat="53.0104990000" lon="-4.0934480000"><ele>200</ele><time>2016-09-30T09:36:29Z</time></trkpt>
<trkpt lat="53.0104990000" lon="-4.0934490000"><ele>200</ele><time>2016-09-30T09:36:30Z</time></trkpt>
<trkpt lat="53.0104990000" lon="-4.0934500000"><ele>200</ele><time>2016-09-30T09:36:31Z</time></trkpt>
<trkpt lat="53.0104990000" lon="-4.0934510000"><ele>200</ele><time>2016-09-30T09:36:32Z</time></trkpt>
<trkpt lat="53.0104990000" lon="-4.0934520000"><ele>200</ele></trkpt>
<trkpt lat="53.0104990000" lon="-4.0934540000"><ele>201</ele><time>2016-09-30T09:36:34Z</time></trkpt>
<trkpt lat="53.0104990000" lon="-4.0934550000"><ele>201</ele><time>2016-09-30T09:36:35Z</time></trkpt>
<trkpt lat="53.0104990000" lon="-4.0934560000"><ele>201</ele><time>2016-09-30T09:36:36Z</time></trkpt>
<trkpt lat="53.0104990000" lon="-4.0934580000"><ele>201</ele><time>2016-09-30T09:36:37Z</time></trkpt>
<trkpt lat="53.0104990000" lon="-4.0934590000"><ele>201</ele><time>2016-09-30T09:36:38Z</time></trkpt>
<trkpt lat="53.0104980000" lon="-4.0934610000"><ele>201</ele><time>2016-09-30T09:36:39Z</time></trkpt>
<trkpt lat="53.0104980000" lon="-4.0934620000"><ele>201</ele><time>2016-09-30T09:36:40Z</time></trkpt>
<trkpt lat="53.0104980000" lon="-4.0934640000"><ele>201</ele><time>2016-09-30T09:36:41Z</time></trkpt>
<trkpt lat="53.0104980000" lon="-4.0934660000"><ele>201</ele><time>2016-09-30T09:36:42Z</time></trkpt>
<trkpt lat="53.0104980000" lon="-4.0934670000"><ele>201</ele><time>2016-09-30T09:36:43Z</time></trkpt>
<trkpt lat="53.0104970000" lon="-4.0934690000"><ele>201</ele><time>2016-09-30T09:36:44Z</time></trkpt>
<trkpt lat="53.0104960000" lon="-4.0934710000"><ele>201</ele><time>2016-09-30T09:36:45Z</time></trkpt>
<trkpt lat="53.0104960000" lon="-4.0934720000"><ele>201</ele><time>2016-09-30T09:36:46Z</time></trkpt>
<trkpt lat="53.0104950000" lon="-4.0934740000"><ele>201</ele><time>2016-09-30T09:36:47Z</time></trkpt>
<trkpt lat="53.0104940000" lon="-4.0934760000"><ele>201</ele><time>2016-09-30T09:36:48Z</time></trkpt>
<trkpt lat="53.0104940000" lon="-4.0934770000"><ele>201</ele><time>2016-09-30T09:36:49Z</time></trkpt>
<trkpt lat="53.0104930000" lon="-4.0934790000"><ele>201</ele><time>2016-09-30T09:36:50Z</time></trkpt>
<trkpt lat="53.0104920000" lon="-4.0934810000"><ele>201</ele><time>2016-09-30T09:36:51Z</time></trkpt>
<trkpt lat="53.0104920000" lon="-4.0934830000"><ele>201</ele><time>2016-09-30T09:36:52Z</time></trkpt>
<trkpt lat="53.0104910000" lon="-4.0934850000"><ele>201</ele><time>2016-09-30T09:36:53Z</time></trkpt>
<trkpt lat="53.0104900000" lon="-4.0934870000"><ele>201</ele><time>2016-09-30T09:36:54Z</time></trkpt>
<trkpt lat="53.0104900000" lon="-4.0934880000"><ele>201</ele><time>2016-09-30T09:36:55Z</time></trkpt>
<trkpt lat="53.0104900000" lon="-4.0934900000"><ele>201</ele><time>2016-09-30T09:36:56Z</time></trkpt>
<trkpt lat="53.0104900000" lon="-4.0934920000"><ele>201</ele><time>2016-09-30T09:36:57Z</time></trkpt>
<trkpt lat="53.0104900000" lon="-4.0934930000"><ele>201</ele><time>2016-09-30T09:36:58Z</time></trkpt>
<trkpt lat="53.0104890000" lon="-4.0934940000"><ele>201</ele><time>2016-09-30T09:36:59Z</time></trkpt>
<trkpt lat="53.0104890000" lon="-4.0934950000"><ele>202</ele><time>2016-09-30T09:37:00Z</time></trkpt>
<trkpt lat="53.0104890000" lon="-4.0934960000"><ele>202</ele><time>2016-09-30T09:37:01Z</time></trkpt>
<trkpt lat="53.0104890000" lon="-4.0934970000"><ele>202</ele><time>2016-09-30T09:37:02Z</time></trkpt>
<trkpt lat="53.0104900000" lon="-4.0934980000"><ele>202</ele><time>2016-09-30T09:37:03Z</time></trkpt>
<trkpt lat="53.0104900000" lon="-4.0934990000"><ele>202</ele><time>2016-09-30T09:37:04Z</time></trkpt>
<trkpt lat="53.0104900000" lon="-4.0935000000"><ele>202</ele><time>2016-09-30T09:37:05Z</time></trkpt>
<trkpt lat="53.0104900000" lon="-4.0935020000"><ele>202</ele><time>2016-09-30T09:37:07Z</time></trkpt>
<trkpt lat="53.0104900000" lon="-4.0935020000"><ele>202</ele></trkpt>
<trkpt lat="53.0104900000" lon="-4.0935020000"><ele>202</ele><time>2016-09-30T09:37:09Z</time></trkpt>
<trkpt lat="53.0104900000" lon="-4.0935030000"><ele>202</ele><time>2016-09-30T09:37:10Z</time></trkpt>
<trkpt lat="53.0104900000" lon="-4.0935040000"><ele>203</ele><time>2016-09-30T09:37:11Z</time></trkpt>
<trkpt lat="53.0104810000" lon="-4.0935140000"><ele>203</ele><time>2016-09-30T09:37:31Z</time></trkpt>
<trkpt lat="53.0104800000" lon="-4.0935150000"><ele>203</ele><time>2016-09-30T09:37:32Z</time></trkpt>
<trkpt lat="53.0104790000" lon="-4.0935150000"><ele>203</ele><time>2016-09-30T09:37:33Z</time></trkpt>
<trkpt lat="53.0104780000" lon="-4.0935150000"><ele>203</ele><time>2016-09-30T09:37:34Z</time></trkpt>
<trkpt lat="53.0104770000" lon="-4.0935160000"><ele>203</ele><time>2016-09-30T09:37:35Z</time></trkpt>
<trkpt lat="53.0104760000" lon="-4.0935160000"><ele>203</ele><time>2016-09-30T09:37:36Z</time></trkpt>
<trkpt lat="53.0104750000" lon="-4.0935170000"><ele>203</ele><time>2016-09-30T09:37:37Z</time></trkpt>
<trkpt lat="53.0104730000" lon="-4.0935180000"><ele>203</ele><time>2016-09-30T09:37:38Z</time></trkpt>
<trkpt lat="53.0104710000" lon="-4.0935190000"><ele>203</ele><time>2016-09-30T09:37:39Z</time></trkpt>
<trkpt lat="53.0104700000" lon="-4.0935200000"><ele>203</ele><time>2016-09-30T09:37:40Z</time></trkpt>
<trkpt lat="53.0104680000" lon="-4.0935210000"><ele>203</ele><time>2016-09-30T09:37:41Z</time></trkpt>
<trkpt lat="53.0104660000" lon="-4.0935210000"><ele>203</ele><time>2016-09-30T09:37:42Z</time></trkpt>
<trkpt lat="53.0104640000" lon="-4.0935220000"><ele>204</ele><time>2016-09-30T09:37:43Z</time></trkpt>
<trkpt lat="53.0104620000" lon="-4.0935230000"><ele>204</ele><time>2016-09-30T09:37:44Z</time></trkpt>
<trkpt lat="53.0104590000" lon="-4.0935230000"><ele>204</ele><time>2016-09-30T09:37:45Z</time></trkpt>
<trkpt lat="53.0104570000" lon="-4.0935230000"><ele>204</ele><time>2016-09-30T09:37:46Z</time></trkpt>
<trkpt lat="53.0104540000" lon="-4.0935230000"><ele>204</ele><time>2016-09-30T09:37:47Z</time></trkpt>
<trkpt lat="53.0104520000" lon="-4.0935220000"><ele>204</ele><time>2016-09-30T09:37:48Z</time></trkpt>
<trkpt lat="53.0104500000" lon="-4.0935210000"><ele>204</ele><time>2016-09-30T09:37:49Z</time></trkpt>
<trkpt lat="53.0104470000" lon="-4.0935190000"><ele>204</ele><time>2016-09-30T09:37:50Z</time></trkpt>
<trkpt lat="53.0104450000" lon="-4.0935180000"><ele>204</ele><time>2016-09-30T09:37:51Z</time></trkpt>
<trkpt lat="53.0104430000" lon="-4.0935160000"><ele>205</ele></trkpt>
<trkpt lat="53.0104410000" lon="-4.0935140000"><ele>205</ele><time>2016-09-30T09:37:53Z</time></trkpt>
<trkpt lat="53.0104390000" lon="-4.0935130000"><ele>205</ele><time>2016-09-30T09:37:54Z</time></trkpt>
<trkpt lat="53.0104360000" lon="-4.0935120000"><ele>205</ele><time>2016-09-30T09:37:55Z</time></trkpt>
<trkpt lat="53.0104330000" lon="-4.0935100000"><ele>205</ele><time>2016-09-30T09:37:56Z</time></trkpt>
<trkpt lat="53.0104300000" lon="-4.0935090000"><ele>205</ele><time>2016-09-30T09:37:57Z</time></trkpt>
<trkpt lat="53.0104270000" lon="-4.0935080000"><ele>205</ele><time>2016-09-30T09:37:58Z</time></trkpt>
<trkpt lat="53.0104240000" lon="-4.0935060000"><ele>205</ele><time>2016-09-30T09:37:59Z</time></trkpt>
<trkpt lat="53.0104210000" lon="-4.0935050000"><ele>205</ele><time>2016-09-30T09:38:00Z</time></trkpt>
<trkpt lat="53.0104180000" lon="-4.0935030000"><ele>205</ele><time>2016-09-30T09:38:01Z</time></trkpt>
<trkpt lat="53.0104150000" lon="-4.0935010000"><ele>205</ele><time>2016-09-30T09:38:02Z</time></trkpt>
<trkpt lat="53.0104120000" lon="-4.0934990000"><ele>205</ele><time>2016-09-30T09:38:03Z</time></trkpt>
<trkpt lat="53.0104080000" lon="-4.0934970000"><ele>205</ele><time>2016-09-30T09:38:04Z</time></trkpt>
<trkpt lat="53.0104050000" lon="-4.0934950000"><ele>205</ele><time>2016-09-30T09:38:05Z</time></trkpt>
<trkpt lat="53.0103980000" lon="-4.0934940000"><ele>205</ele><time>2016-09-30T09:38:07Z</time></trkpt>
<trkpt lat="53.0103950000" lon="-4.0934930000"><ele>205</ele></trkpt>
<trkpt lat="53.0103920000" lon="-4.0934920000"><ele>205</ele><time>2016-09-30T09:38:09Z</time></trkpt>
<trkpt lat="53.0103890000" lon="-4.0934910000"><ele>205</ele><time>2016-09-30T09:38:10Z</time></trkpt>
<trkpt lat="53.0103850000" lon="-4.0934890000"><ele>205</ele><time>2016-09-30T09:38:11Z</time></trkpt>
<trkpt lat="53.0103820000" lon="-4.0934880000"><ele>205</ele><time>2016-09-30T09:38:12Z</time></trkpt>
<trkpt lat="53.0103790000" lon="-4.0934870000"><ele>205</ele><time>2016-09-30T09:38:13Z</time></trkpt>
<trkpt lat="53.0103750000" lon="-4.0934850000"><ele>205</ele><time>2016-09-30T09:38:14Z</time></trkpt>
<trkpt lat="53.0103720000" lon="-4.0934840000"><ele>206</ele><time>2016-09-30T09:38:15Z</time></trkpt>
<trkpt lat="53.0103680000" lon="-4.0934840000"><ele>206</ele><time>2016-09-30T09:38:16Z</time></trkpt>
<trkpt lat="53.0103640000" lon="-4.0934830000"><ele>206</ele><time>2016-09-30T09:38:17Z</time></trkpt>
<trkpt lat="53.0103600000" lon="-4.0934830000"><ele>206</ele><time>2016-09-30T09:38:18Z</time></trkpt>
<trkpt lat="53.0103560000" lon="-4.0934830000"><ele>206</ele><time>2016-09-30T09:38:19Z</time></trkpt>
<trkpt lat="53.0103530000" lon="-4.0934820000"><ele>206</ele><time>2016-09-30T09:38:20Z</time></trkpt>
<trkpt lat="53.0103490000" lon="-4.0934820000"><ele>206</ele><time>2016-09-30T09:38:21Z</time></trkpt>
<trkpt lat="53.0103450000" lon="-4.0934820000"><ele>206</ele><time>2016-09-30T09:38:22Z</time></trkpt>
<trkpt lat="53.0103420000" lon="-4.0934820000"><ele>206</ele><time>2016-09-30T09:38:23Z</time></trkpt>
<trkpt lat="53.0103380000" lon="-4.0934820000"><ele>206</ele><time>2016-09-30T09:38:24Z</time></trkpt>
<trkpt lat="53.0103340000" lon="-4.0934820000"><ele>206</ele><time>2016-09-30T09:38:25Z</time></trkpt>
<trkpt lat="53.0103290000" lon="-4.0934820000"><ele>206</ele><time>2016-09-30T09:38:26Z</time></trkpt>
<trkpt lat="53.0103260000" lon="-4.0934810000"><ele>206</ele><time>2016-09-30T09:38:27Z</time></trkpt>
<trkpt lat="53.0103220000" lon="-4.0934800000"><ele>206</ele><time>2016-09-30T09:38:28Z</time></trkpt>
<trkpt lat="53.0103180000" lon="-4.0934790000"><ele>207</ele><time>2016-09-30T09:38:29Z</time></trkpt>
<trkpt lat="53.0103140000" lon="-4.0934770000"><ele>207</ele><time>2016-09-30T09:38:30Z</time></trkpt>
<trkpt lat="53.0103100000" lon="-4.0934760000"><ele>207</ele><time>2016-09-30T09:38:31Z</time></trkpt>
<trkpt lat="53.0103060000" lon="-4.0934750000"><ele>207</ele><time>2016-09-30T09:38:32Z</time></trkpt>
<trkpt lat="53.0103020000" lon="-4.0934740000"><ele>207</ele></trkpt>
<trkpt lat="53.0102980000" lon="-4.0934730000"><ele>207</ele><time>2016-09-30T09:38:34Z</time></trkpt>
<trkpt lat="53.0102940000" lon="-4.0934730000"><ele>207</ele><time>2016-09-30T09:38:35Z</time></trkpt>
<trkpt lat="53.0102900000" lon="-4.0934720000"><ele>207</ele><time>2016-09-30T09:38:36Z</time></trkpt>
<trkpt lat="53.0102860000" lon="-4.0934710000"><ele>207</ele><time>2016-09-30T09:38:37Z</time></trkpt>
<trkpt lat="53.0102810000" lon="-4.0934690000"><ele>207</ele><time>2016-09-30T09:38:38Z</time></trkpt>
<trkpt lat="53.0102770000" lon="-4.0934680000"><ele>208</ele><time>2016-09-30T09:38:39Z</time></trkpt>
<trkpt lat="53.0102730000" lon="-4.0934650000"><ele>208</ele><time>2016-09-30T09:38:40Z</time></trkpt>
<trkpt lat="53.0102700000" lon="-4.0934630000"><ele>208</ele><time>2016-09-30T09:38:41Z</time></trkpt>
<trkpt lat="53.0102660000" lon="-4.0934610000"><ele>208</ele><time>2016-09-30T09:38:42Z</time></trkpt>
<trkpt lat="53.0102620000" lon="-4.0934590000"><ele>208</ele><time>2016-09-30T09:38:43Z</time></trkpt>
<trkpt lat="53.0102580000" lon="-4.0934570000"><ele>208</ele><time>2016-09-30T09:38:44Z</time></trkpt>
<trkpt lat="53.0102540000" lon="-4.0934550000"><ele>209</ele><time>2016-09-30T09:38:45Z</time></trkpt>
<trkpt lat="53.0102500000" lon="-4.0934530000"><ele>209</ele><time>2016-09-30T09:38:46Z</time></trkpt>
<trkpt lat="53.0102450000" lon="-4.0934520000"><ele>209</ele><time>2016-09-30T09:38:47Z</time></trkpt>
<trkpt lat="53.0102410000" lon="-4.0934510000"><ele>209</ele><time>2016-09-30T09:38:48Z</time></trkpt>
<trkpt lat="53.0102370000" lon="-4.0934500000"><ele>209</ele><time>2016-09-30T09:38:49Z</time></trkpt>
<trkpt lat="53.0102330000" lon="-4.0934500000"><ele>209</ele><time>2016-09-30T09:38:50Z</time></trkpt>
<trkpt lat="53.0102290000" lon="-4.0934510000"><ele>210</ele><time>2016-09-30T09:38:51Z</time></trkpt>
<trkpt lat="53.0102260000" lon="-4.0934510000"><ele>210</ele><time>2016-09-30T09:38:52Z</time></trkpt>
<trkpt lat="53.0102220000" lon="-4.0934520000"><ele>210</ele><time>2016-09-30T09:38:53Z</time></trkpt>
<trkpt lat="53.0102180000" lon="-4.0934530000"><ele>210</ele><time>2016-09-30T09:38:54Z</time></trkpt>
<trkpt lat="53.0102150000" lon="-4.0934540000"><ele>210</ele><time>2016-09-30T09:38:55Z</time></trkpt>
<trkpt lat="53.0102110000" lon="-4.0934560000"><ele>211</ele><time>2016-09-30T09:38:56Z</time></trkpt>
<trkpt lat="53.0102070000" lon="-4.0934570000"><ele>211</ele><time>2016-09-30T09:38:57Z</time></trkpt>
<trkpt lat="53.0102030000" lon="-4.0934590000"><ele>211</ele><time>2016-09-30T09:38:58Z</time></trkpt>
<trkpt lat="53.0102000000" lon="-4.0934600000"><ele>211</ele><time>2016-09-30T09:38:59Z</time></trkpt>
<trkpt lat="53.0101970000" lon="-4.0934620000"><ele>211</ele><time>2016-09-30T09:39:00Z</time></trkpt>
<trkpt lat="53.0101930000" lon="-4.0934630000"><ele>211</ele><time>2016-09-30T09:39:01Z</time></trkpt>
<trkpt lat="53.0101890000" lon="-4.0934650000"><ele>212</ele><time>2016-09-30T09:39:02Z</time></trkpt>
<trkpt lat="53.0101850000" lon="-4.0934670000"><ele>212</ele><time>2016-09-30T09:39:03Z</time></trkpt>
<trkpt lat="53.0101810000" lon="-4.0934690000"><ele>212</ele><time>2016-09-30T09:39:04Z</time></trkpt>
<trkpt lat="53.0101760000" lon="-4.0934720000"><ele>212</ele><time>2016-09-30T09:39:05Z</time></trkpt>
<trkpt lat="53.0101670000" lon="-4.0934780000"><ele>213</ele><time>2016-09-30T09:39:07Z</time></trkpt>
<trkpt lat="53.0101610000" lon="-4.0934810000"><ele>213</ele><time>2016-09-30T09:39:08Z</time></trkpt>
<trkpt lat="53.0101560000" lon="-4.0934850000"><ele>213</ele><time>2016-09-30T09:39:09Z</time></trkpt>
<trkpt lat="53.0101500000" lon="-4.0934880000"><ele>213</ele><time>2016-09-30T09:39:10Z</time></trkpt>
<trkpt lat="53.0101450000" lon="-4.0934910000"><ele>213</ele><time>2016-09-30T09:39:11Z</time></trkpt>
<trkpt lat="53.0101390000" lon="-4.0934950000"><ele>214</ele><time>2016-09-30T09:39:12Z</time></trkpt>
<trkpt lat="53.0101330000" lon="-4.0934980000"><ele>214</ele><time>2016-09-30T09:39:13Z</time></trkpt>
<trkpt lat="53.0101270000" lon="-4.0935010000"><ele>214</ele><time>2016-09-30T09:39:14Z</time></trkpt>
<trkpt lat="53.0101210000" lon="-4.0935040000"><ele>214</ele><time>2016-09-30T09:39:15Z</time></trkpt>
<trkpt lat="53.0101150000" lon="-4.0935080000"><ele>214</ele><time>2016-09-30T09:39:16Z</time></trkpt>
<trkpt lat="53.0101090000" lon="-4.0935110000"><ele>214</ele><time>2016-09-30T09:39:17Z</time></trkpt>
<trkpt lat="53.0101030000" lon="-4.0935150000"><ele>214</ele><time>2016-09-30T09:39:18Z</time></trkpt>
<trkpt lat="53.0100970000" lon="-4.0935190000"><ele>215</ele><time>2016-09-30T09:39:19Z</time></trkpt>
<trkpt lat="53.0100900000" lon="-4.0935230000"><ele>215</ele><time>2016-09-30T09:39:20Z</time></trkpt>
<trkpt lat="53.0100840000" lon="-4.0935270000"><ele>215</ele><time>2016-09-30T09:39:21Z</time></trkpt>
<trkpt lat="53.0100780000" lon="-4.0935310000"><ele>215</ele><time>2016-09-30T09:39:22Z</time></trkpt>
<trkpt lat="53.0100720000" lon="-4.0935350000"><ele>215</ele><time>2016-09-30T09:39:23Z</time></trkpt>
<trkpt lat="53.0100660000" lon="-4.0935380000"><ele>215</ele><time>2016-09-30T09:39:24Z</time></trkpt>
<trkpt lat="53.0100590000" lon="-4.0935410000"><ele>216</ele><time>2016-09-30T09:39:25Z</time></trkpt>
<trkpt lat="53.0100530000" lon="-4.0935440000"><ele>216</ele><time>2016-09-30T09:39:26Z</time></trkpt>
<trkpt lat="53.0100470000" lon="-4.0935470000"><ele>216</ele><time>2016-09-30T09:39:27Z</time></trkpt>
<trkpt lat="53.0100400000" lon="-4.0935490000"><ele>216</ele><time>2016-09-30T09:39:28Z</time></trkpt>
<trkpt lat="53.0100340000" lon="-4.0935510000"><ele>216</ele><time>2016-09-30T09:39:29Z</time></trkpt>
<trkpt lat="53.0100280000" lon="-4.0935540000"><ele>217</ele><time>2016-09-30T09:39:30Z</time></trkpt>
<trkpt lat="53.0100220000" lon="-4.0935570000"><ele>217</ele><time>2016-09-30T09:39:31Z</time></trkpt>
<trkpt lat="53.0100150000" lon="-4.0935600000"><ele>217</ele><time>2016-09-30T09:39:32Z</time></trkpt>
<trkpt lat="53.0100090000" lon="-4.0935630000"><ele>217</ele><time>2016-09-30T09:39:33Z</time></trkpt>
<trkpt lat="53.0100030000" lon="-4.0935660000"><ele>218</ele><time>2016-09-30T09:39:34Z</time></trkpt>
<trkpt lat="53.0099970000" lon="-4.0935700000"><ele>218</ele><time>2016-09-30T09:39:35Z</time></trkpt>
<trkpt lat="53.0099910000" lon="-4.0935730000"><ele>218</ele><time>2016-09-30T09:39:36Z</time></trkpt>
<trkpt lat="53.0099860000" lon="-4.0935770000"><ele>218</ele><time>2016-09-30T09:39:37Z</time></trkpt>
<trkpt lat="53.0099800000" lon="-4.0935810000"><ele>218</ele><time>2016-09-30T09:39:38Z</time></trkpt>
<trkpt lat="53.0099740000" lon="-4.0935860000"><ele>218</ele><time>2016-09-30T09:39:39Z</time></trkpt>
<trkpt lat="53.0099680000" lon="-4.0935900000"><ele>219</ele></trkpt>
<trkpt lat="53.0099620000" lon="-4.0935950000"><ele>219</ele><time>2016-09-30T09:39:41Z</time></trkpt>
<trkpt lat="53.0099550000" lon="-4.0935990000"><ele>219</ele><time>2016-09-30T09:39:42Z</time></trkpt>
<trkpt lat="53.0099490000" lon="-4.0936040000"><ele>219</ele><time>2016-09-30T09:39:43Z</time></trkpt>
<trkpt lat="53.0099430000" lon="-4.0936090000"><ele>219</ele><time>2016-09-30T09:39:44Z</time></trkpt>
<trkpt lat="53.0099370000" lon="-4.0936130000"><ele>219</ele><time>2016-09-30T09:39:45Z</time></trkpt>
<trkpt lat="53.0099310000" lon="-4.0936180000"><ele>220</ele><time>2016-09-30T09:39:46Z</time></trkpt>
<trkpt lat="53.0099250000" lon="-4.0936220000"><ele>220</ele><time>2016-09-30T09:39:47Z</time></trkpt>
<trkpt lat="53.0099190000" lon="-4.0936260000"><ele>220</ele><time>2016-09-30T09:39:48Z</time></trkpt>
<trkpt lat="53.0099130000" lon="-4.0936300000"><ele>220</ele><time>2016-09-30T09:39:49Z</time></trkpt>
<trkpt lat="53.0099080000" lon="-4.0936330000"><ele>220</ele><time>2016-09-30T09:39:50Z</time></trkpt>
<trkpt lat="53.0099020000" lon="-4.0936370000"><ele>221</ele><time>2016-09-30T09:39:51Z</time></trkpt>
<trkpt lat="53.0098960000" lon="-4.0936410000"><ele>221</ele><time>2016-09-30T09:39:52Z</time></trkpt>
<trkpt lat="53.0098910000" lon="-4.0936440000"><ele>221</ele><time>2016-09-30T09:39:53Z</time></trkpt>
<trkpt lat="53.0098860000" lon="-4.0936480000"><ele>221</ele><time>2016-09-30T09:39:54Z</time></trkpt>
<trkpt lat="53.0098800000" lon="-4.0936510000"><ele>221</ele><time>2016-09-30T09:39:55Z</time></trkpt>
<trkpt lat="53.0098750000" lon="-4.0936550000"><ele>221</ele><time>2016-09-30T09:39:56Z</time></trkpt>
<trkpt lat="53.0098700000" lon="-4.0936590000"><ele>221</ele><time>2016-09-30T09:39:57Z</time></trkpt>
<trkpt lat="53.0098650000" lon="-4.0936640000"><ele>222</ele><time>2016-09-30T09:39:58Z</time></trkpt>
<trkpt lat="53.0098600000" lon="-4.0936680000"><ele>222</ele><time>2016-09-30T09:39:59Z</time></trkpt>
<trkpt lat="53.0098550000" lon="-4.0936730000"><ele>222</ele><time>2016-09-30T09:40:00Z</time></trkpt>
<trkpt lat="53.0098500000" lon="-4.0936780000"><ele>222</ele><time>2016-09-30T09:40:01Z</time></trkpt>
<trkpt lat="53.0098450000" lon="-4.0936830000"><ele>222</ele><time>2016-09-30T09:40:02Z</time></trkpt>
<trkpt lat="53.0098400000" lon="-4.0936870000"><ele>222</ele><time>2016-09-30T09:40:03Z</time></trkpt>
<trkpt lat="53.0098350000" lon="-4.0936910000"><ele>222</ele><time>2016-09-30T09:40:04Z</time></trkpt>
<trkpt lat="53.0098300000" lon="-4.0936950000"><ele>222</ele><time>2016-09-30T09:40:05Z</time></trkpt>
<trkpt lat="53.0098200000" lon="-4.0937010000"><ele>223</ele><time>2016-09-30T09:40:07Z</time></trkpt>
<trkpt lat="53.0098150000" lon="-4.0937040000"><ele>223</ele></trkpt>
<trkpt lat="53.0098100000" lon="-4.0937080000"><ele>223</ele><time>2016-09-30T09:40:09Z</time></trkpt>
<trkpt lat="53.0098040000" lon="-4.0937110000"><ele>223</ele><time>2016-09-30T09:40:10Z</time></trkpt>
<trkpt lat="53.0097990000" lon="-4.0937140000"><ele>223</ele><time>2016-09-30T09:40:11Z</time></trkpt>
<trkpt lat="53.0097930000" lon="-4.0937170000"><ele>223</ele><time>2016-09-30T09:40:12Z</time></trkpt>
<trkpt lat="53.0097880000" lon="-4.0937200000"><ele>223</ele><time>2016-09-30T09:40:13Z</time></trkpt>
<trkpt lat="53.0097830000" lon="-4.0937230000"><ele>224</ele><time>2016-09-30T09:40:14Z</time></trkpt>
<trkpt lat="53.0097770000" lon="-4.0937250000"><ele>224</ele><time>2016-09-30T09:40:15Z</time></trkpt>
<trkpt lat="53.0097720000" lon="-4.0937280000"><ele>224</ele><time>2016-09-30T09:40:16Z</time></trkpt>
<trkpt lat="53.0097660000" lon="-4.0937300000"><ele>224</ele><time>2016-09-30T09:40:17Z</time></trkpt>
<trkpt lat="53.0097600000" lon="-4.0937320000"><ele>224</ele><time>2016-09-30T09:40:18Z</time></trkpt>
<trkpt lat="53.0097550000" lon="-4.0937340000"><ele>225</ele><time>2016-09-30T09:40:19Z</time></trkpt>
<trkpt lat="53.0097490000" lon="-4.0937360000"><ele>225</ele><time>2016-09-30T09:40:20Z</time></trkpt>
<trkpt lat="53.0097430000" lon="-4.0937380000"><ele>225</ele><time>2016-09-30T09:40:21Z</time></trkpt>
<trkpt lat="53.0097380000" lon="-4.0937390000"><ele>225</ele><time>2016-09-30T09:40:22Z</time></trkpt>
<trkpt lat="53.0097320000" lon="-4.0937410000"><ele>225</ele><time>2016-09-30T09:40:23Z</time></trkpt>
<trkpt lat="53.0097270000" lon="-4.0937420000"><ele>226</ele><time>2016-09-30T09:40:24Z</time></trkpt>
<trkpt lat="53.0097220000" lon="-4.0937440000"><ele>226</ele><time>2016-09-30T09:40:25Z</time></trkpt>
<trkpt lat="53.0097160000" lon="-4.0937450000"><ele>226</ele><time>2016-09-30T09:40:26Z</time></trkpt>
<trkpt lat="53.0097110000" lon="-4.0937470000"><ele>226</ele><time>2016-09-30T09:40:27Z</time></trkpt>
<trkpt lat="53.0097050000" lon="-4.0937490000"><ele>226</ele><time>2016-09-30T09:40:28Z</time></trkpt>
<trkpt lat="53.0097000000" lon="-4.0937510000"><ele>226</ele><time>2016-09-30T09:40:29Z</time></trkpt>
<trkpt lat="53.0096940000" lon="-4.0937530000"><ele>226</ele><time>2016-09-30T09:40:30Z</time></trkpt>
<trkpt lat="53.0096880000" lon="-4.0937550000"><ele>226</ele><time>2016-09-30T09:40:31Z</time></trkpt>
<trkpt lat="53.0096820000" lon="-4.0937580000"><ele>226</ele><time>2016-09-30T09:40:32Z</time></trkpt>
<trkpt lat="53.0096760000" lon="-4.0937600000"><ele>226</ele><time>2016-09-30T09:40:33Z</time></trkpt>
<trkpt lat="53.0096700000" lon="-4.0937620000"><ele>227</ele><time>2016-09-30T09:40:34Z</time></trkpt>
<trkpt lat="53.0096640000" lon="-4.0937650000"><ele>227</ele><time>2016-09-30T09:40:35Z</time></trkpt>
<trkpt lat="53.0096580000" lon="-4.0937670000"><ele>227</ele><time>2016-09-30T09:40:36Z</time></trkpt>
<trkpt lat="53.0096520000" lon="-4.0937690000"><ele>227</ele><time>2016-09-30T09:40:37Z</time></trkpt>
<trkpt lat="53.0096460000" lon="-4.0937710000"><ele>227</ele><time>2016-09-30T09:40:38Z</time></trkpt>
<trkpt lat="53.0096400000" lon="-4.0937740000"><ele>227</ele><time>2016-09-30T09:40:39Z</time></trkpt>
<trkpt lat="53.0096350000" lon="-4.0937760000"><ele>227</ele><time>2016-09-30T09:40:40Z</time></trkpt>
<trkpt lat="53.0096290000" lon="-4.0937790000"><ele>227</ele><time>2016-09-30T09:40:41Z</time></trkpt>
<trkpt lat="53.0096230000" lon="-4.0937810000"><ele>227</ele><time>2016-09-30T09:40:42Z</time></trkpt>
<trkpt lat="53.0096180000" lon="-4.0937840000"><ele>228</ele><time>2016-09-30T09:40:43Z</time></trkpt>
<trkpt lat="53.0096130000" lon="-4.0937870000"><ele>228</ele><time>2016-09-30T09:40:44Z</time></trkpt>
<trkpt lat="53.0096080000" lon="-4.0937900000"><ele>228</ele><time>2016-09-30T09:40:45Z</time></trkpt>
<trkpt lat="53.0096030000" lon="-4.0937930000"><ele>228</ele><time>2016-09-30T09:40:46Z</time></trkpt>
<trkpt lat="53.0095980000" lon="-4.0937960000"><ele>228</ele><time>2016-09-30T09:40:47Z</time></trkpt>
<trkpt lat="53.0095930000" lon="-4.0937990000"><ele>228</ele><time>2016-09-30T09:40:48Z</time></trkpt>
<trkpt lat="53.0095890000" lon="-4.0938020000"><ele>228</ele><time>2016-09-30T09:40:49Z</time></trkpt>
<trkpt lat="53.0095850000" lon="-4.0938050000"><ele>228</ele><time>2016-09-30T09:40:50Z</time></trkpt>
<trkpt lat="53.0095810000" lon="-4.0938080000"><ele>228</ele><time>2016-09-30T09:40:51Z</time></trkpt>
<trkpt lat="53.0095770000" lon="-4.0938100000"><ele>229</ele><time>2016-09-30T09:40:52Z</time></trkpt>
<trkpt lat="53.0095730000" lon="-4.0938130000"><ele>229</ele><time>2016-09-30T09:40:53Z</time></trkpt>
<trkpt lat="53.0095700000" lon="-4.0938150000"><ele>229</ele><time>2016-09-30T09:40:54Z</time></trkpt>
<trkpt lat="53.0095660000" lon="-4.0938170000"><ele>229</ele><time>2016-09-30T09:40:55Z</time></trkpt>
<trkpt lat="53.0095630000" lon="-4.0938190000"><ele>229</ele><time>2016-09-30T09:40:56Z</time></trkpt>
<trkpt lat="53.0095600000" lon="-4.0938210000"><ele>229</ele><time>2016-09-30T09:40:57Z</time></trkpt>
<trkpt lat="53.0095570000" lon="-4.0938230000"><ele>230</ele><time>2016-09-30T09:40:58Z</time></trkpt>
<trkpt lat="53.0095530000" lon="-4.0938250000"><ele>230</ele><time>2016-09-30T09:40:59Z</time></trkpt>
<trkpt lat="53.0095500000" lon="-4.0938270000"><ele>230</ele><time>2016-09-30T09:41:00Z</time></trkpt>
<trkpt lat="53.0095460000" lon="-4.0938300000"><ele>230</ele><time>2016-09-30T09:41:01Z</time></trkpt>
<trkpt lat="53.0095420000" lon="-4.0938330000"><ele>230</ele><time>2016-09-30T09:41:02Z</time></trkpt>
<trkpt lat="53.0095380000" lon="-4.0938370000"><ele>230</ele><time>2016-09-30T09:41:03Z</time></trkpt>
<trkpt lat="53.0095330000" lon="-4.0938400000"><ele>230</ele><time>2016-09-30T09:41:04Z</time></trkpt>
<trkpt lat="53.0095290000" lon="-4.0938440000"><ele>230</ele><time>2016-09-30T09:41:05Z</time></trkpt>
<trkpt lat="53.0095200000" lon="-4.0938510000"><ele>230</ele><time>2016-09-30T09:41:07Z</time></trkpt>
<trkpt lat="53.0095150000" lon="-4.0938550000"><ele>230</ele><time>2016-09-30T09:41:08Z</time></trkpt>
<trkpt lat="53.0095100000" lon="-4.0938590000"><ele>230</ele><time>2016-09-30T09:41:09Z</time></trkpt>
<trkpt lat="53.0095060000" lon="-4.0938620000"><ele>230</ele><time>2016-09-30T09:41:10Z</time></trkpt>
<trkpt lat="53.0095010000" lon="-4.0938660000"><ele>230</ele><time>2016-09-30T09:41:11Z</time></trkpt>
<trkpt lat="53.0094970000" lon="-4.0938690000"><ele>230</ele><time>2016-09-30T09:41:12Z</time></trkpt>
<trkpt lat="53.0094920000" lon="-4.0938720000"><ele>230</ele><time>2016-09-30T09:41:13Z</time></trkpt>
<trkpt lat="53.0094870000" lon="-4.0938750000"><ele>230</ele><time>2016-09-30T09:41:14Z</time></trkpt>
<trkpt lat="53.0094820000" lon="-4.0938780000"><ele>231</ele><time>2016-09-30T09:41:15Z</time></trkpt>
<trkpt lat="53.0094770000" lon="-4.0938810000"><ele>231</ele><time>2016-09-30T09:41:16Z</time></trkpt>
<trkpt lat="53.0094730000" lon="-4.0938830000"><ele>231</ele><time>2016-09-30T09:41:17Z</time></trkpt>
<trkpt lat="53.0094690000" lon="-4.0938850000"><ele>231</ele><time>2016-09-30T09:41:18Z</time></trkpt>
<trkpt lat="53.0094640000" lon="-4.0938870000"><ele>231</ele><time>2016-09-30T09:41:19Z</time></trkpt>
<trkpt lat="53.0094600000" lon="-4.0938890000"><ele>231</ele><time>2016-09-30T09:41:20Z</time></trkpt>
<trkpt lat="53.0094550000" lon="-4.0938910000"><ele>231</ele><time>2016-09-30T09:41:21Z</time></trkpt>
<trkpt lat="53.0094510000" lon="-4.0938930000"><ele>231</ele><time>2016-09-30T09:41:22Z</time></trkpt>
<trkpt lat="53.0094460000" lon="-4.0938950000"><ele>231</ele><time>2016-09-30T09:41:23Z</time></trkpt>
<trkpt lat="53.0094410000" lon="-4.0938980000"><ele>231</ele><time>2016-09-30T09:41:24Z</time></trkpt>
<trkpt lat="53.0094360000" lon="-4.0939000000"><ele>231</ele><time>2016-09-30T09:41:25Z</time></trkpt>
<trkpt lat="53.0094310000" lon="-4.0939020000"><ele>231</ele><time>2016-09-30T09:41:26Z</time></trkpt>
<trkpt lat="53.0094270000" lon="-4.0939050000"><ele>231</ele><time>2016-09-30T09:41:27Z</time></trkpt>
<trkpt lat="53.0094230000" lon="-4.0939070000"><ele>231</ele><time>2016-09-30T09:41:28Z</time></trkpt>
<trkpt lat="53.0094190000" lon="-4.0939100000"><ele>231</ele><time>2016-09-30T09:41:29Z</time></trkpt>
<trkpt lat="53.0094150000" lon="-4.0939120000"><ele>231</ele><time>2016-09-30T09:41:30Z</time></trkpt>
<trkpt lat="53.0094110000" lon="-4.0939150000"><ele>231</ele><time>2016-09-30T09:41:31Z</time></trkpt>
<trkpt lat="53.0094070000" lon="-4.0939180000"><ele>231</ele><time>2016-09-30T09:41:32Z</time></trkpt>
<trkpt lat="53.0094020000" lon="-4.0939220000"><ele>231</ele><time>2016-09-30T09:41:33Z</time></trkpt>
<trkpt lat="53.0093970000" lon="-4.0939250000"><ele>231</ele><time>2016-09-30T09:41:34Z</time></trkpt>
<trkpt lat="53.0093920000" lon="-4.0939280000"><ele>231</ele><time>2016-09-30T09:41:35Z</time></trkpt>
<trkpt lat="53.0093870000" lon="-4.0939310000"><ele>231</ele><time>2016-09-30T09:41:36Z</time></trkpt>
<trkpt lat="53.0093810000" lon="-4.0939340000"><ele>231</ele><time>2016-09-30T09:41:37Z</time></trkpt>
<trkpt lat="53.0093750000" lon="-4.0939370000"><ele>231</ele><time>2016-09-30T09:41:38Z</time></trkpt>
<trkpt lat="53.0093690000" lon="-4.0939390000"><ele>231</ele><time>2016-09-30T09:41:39Z</time></trkpt>
<trkpt lat="53.0093630000" lon="-4.0939420000"><ele>230</ele><time>2016-09-30T09:41:40Z</time></trkpt>
<trkpt lat="53.0093570000" lon="-4.0939430000"><ele>230</ele><time>2016-09-30T09:41:41Z</time></trkpt>
<trkpt lat="53.0093520000" lon="-4.0939450000"><ele>230</ele><time>2016-09-30T09:41:42Z</time></trkpt>
<trkpt lat="53.0093470000" lon="-4.0939470000"><ele>230</ele><time>2016-09-30T09:41:43Z</time></trkpt>
<trkpt lat="53.0093410000" lon="-4.0939480000"><ele>230</ele><time>2016-09-30T09:41:44Z</time></trkpt>
<trkpt lat="53.0093360000" lon="-4.0939500000"><ele>230</ele><time>2016-09-30T09:41:45Z</time></trkpt>
<trkpt lat="53.0093300000" lon="-4.0939510000"><ele>230</ele><time>2016-09-30T09:41:46Z</time></trkpt>
<trkpt lat="53.0093240000" lon="-4.0939530000"><ele>230</ele><time>2016-09-30T09:41:47Z</time></trkpt>
<trkpt lat="53.0093190000" lon="-4.0939540000"><ele>230</ele><time>2016-09-30T09:41:48Z</time></trkpt>
<trkpt lat="53.0093130000" lon="-4.0939560000"><ele>230</ele><time>2016-09-30T09:41:49Z</time></trkpt>
<trkpt lat="53.0093070000" lon="-4.0939570000"><ele>230</ele><time>2016-09-30T09:41:50Z</time></trkpt>
<trkpt lat="53.0093010000" lon="-4.0939570000"><ele>230</ele><time>2016-09-30T09:41:51Z</time></trkpt>
<trkpt lat="53.0092950000" lon="-4.0939580000"><ele>231</ele><time>2016-09-30T09:41:52Z</time></trkpt>
<trkpt lat="53.0092880000" lon="-4.0939580000"><ele>231</ele><time>2016-09-30T09:41:53Z</time></trkpt>
<trkpt lat="53.0092820000" lon="-4.0939590000"><ele>231</ele><time>2016-09-30T09:41:54Z</time></trkpt>
<trkpt lat="53.0092760000" lon="-4.0939600000"><ele>231</ele><time>2016-09-30T09:41:55Z</time></trkpt>
<trkpt lat="53.0092690000" lon="-4.0939610000"><ele>231</ele><time>2016-09-30T09:41:56Z</time></trkpt>
<trkpt lat="53.0092630000" lon="-4.0939620000"><ele>231</ele><time>2016-09-30T09:41:57Z</time></trkpt>
<trkpt lat="53.0092570000" lon="-4.0939620000"><ele>231</ele><time>2016-09-30T09:41:58Z</time></trkpt>
<trkpt lat="53.0092510000" lon="-4.0939620000"><ele>231</ele><time>2016-09-30T09:41:59Z</time></trkpt>
<trkpt lat="53.0092450000" lon="-4.0939620000"><ele>231</ele><time>2016-09-30T09:42:00Z</time></trkpt>
<trkpt lat="53.0092390000" lon="-4.0939620000"><ele>231</ele><time>2016-09-30T09:42:01Z</time></trkpt>
<trkpt lat="53.0092330000" lon="-4.0939600000"><ele>231</ele><time>2016-09-30T09:42:02Z</time></trkpt>
<trkpt lat="53.0092280000" lon="-4.0939590000"><ele>231</ele><time>2016-09-30T09:42:03Z</time></trkpt>
<trkpt lat="53.0092230000" lon="-4.0939570000"><ele>232</ele><time>2016-09-30T09:42:04Z</time></trkpt>
<trkpt lat="53.0092170000" lon="-4.0939560000"><ele>232</ele><time>2016-09-30T09:42:05Z</time></trkpt>
<trkpt lat="53.0092070000" lon="-4.0939540000"><ele>232</ele><time>2016-09-30T09:42:07Z</time></trkpt>
<trkpt lat="53.0092020000" lon="-4.0939530000"><ele>232</ele><time>2016-09-30T09:42:08Z</time></trkpt>
<trkpt lat="53.0091970000" lon="-4.0939520000"><ele>232</ele><time>2016-09-30T09:42:09Z</time></trkpt>
<trkpt lat="53.0091930000" lon="-4.0939520000"><ele>232</ele><time>2016-09-30T09:42:10Z</time></trkpt>
<trkpt lat="53.0091890000" lon="-4.0939510000"><ele>232</ele><time>2016-09-30T09:42:11Z</time></trkpt>
<trkpt lat="53.0091850000" lon="-4.0939510000"><ele>232</ele><time>2016-09-30T09:42:12Z</time></trkpt>
<trkpt lat="53.0091800000" lon="-4.0939510000"><ele>233</ele><time>2016-09-30T09:42:13Z</time></trkpt>
<trkpt lat="53.0091760000" lon="-4.0939510000"><ele>233</ele><time>2016-09-30T09:42:14Z</time></trkpt>
<trkpt lat="53.0091720000" lon="-4.0939510000"><ele>233</ele><time>2016-09-30T09:42:15Z</time></trkpt>
<trkpt lat="53.0091690000" lon="-4.0939510000"><ele>233</ele><time>2016-09-30T09:42:16Z</time></trkpt>
<trkpt lat="53.0091650000" lon="-4.0939510000"><ele>233</ele><time>2016-09-30T09:42:17Z</time></trkpt>
<trkpt lat="53.0091610000" lon="-4.0939500000"><ele>233</ele><time>2016-09-30T09:42:18Z</time></trkpt>
<trkpt lat="53.0091580000" lon="-4.0939500000"><ele>233</ele><time>2016-09-30T09:42:19Z</time></trkpt>
<trkpt lat="53.0091540000" lon="-4.0939500000"><ele>233</ele><time>2016-09-30T09:42:20Z</time></trkpt>
<trkpt lat="53.0091510000" lon="-4.0939490000"><ele>233</ele><time>2016-09-30T09:42:21Z</time></trkpt>
<trkpt lat="53.0091470000" lon="-4.0939490000"><ele>233</ele><time>2016-09-30T09:42:22Z</time></trkpt>
<trkpt lat="53.0091440000" lon="-4.0939480000"><ele>233</ele><time>2016-09-30T09:42:23Z</time></trkpt>
<trkpt lat="53.0091410000" lon="-4.0939460000"><ele>233</ele><time>2016-09-30T09:42:24Z</time></trkpt>
<trkpt lat="53.0091370000" lon="-4.0939450000"><ele>233</ele><time>2016-09-30T09:42:25Z</time></trkpt>
<trkpt lat="53.0091340000" lon="-4.0939440000"><ele>233</ele><time>2016-09-30T09:42:26Z</time></trkpt>
<trkpt lat="53.0091310000" lon="-4.0939440000"><ele>234</ele><time>2016-09-30T09:42:27Z</time></trkpt>
<trkpt lat="53.0091270000" lon="-4.0939430000"><ele>234</ele><time>2016-09-30T09:42:28Z</time></trkpt>
<trkpt lat="53.0091240000" lon="-4.0939430000"><ele>234</ele><time>2016-09-30T09:42:29Z</time></trkpt>
<trkpt lat="53.0091200000" lon="-4.0939430000"><ele>234</ele><time>2016-09-30T09:42:30Z</time></trkpt>
<trkpt lat="53.0091160000" lon="-4.0939430000"><ele>234</ele><time>2016-09-30T09:42:31Z</time></trkpt>
<trkpt lat="53.0091110000" lon="-4.0939440000"><ele>234</ele><time>2016-09-30T09:42:32Z</time></trkpt>
<trkpt lat="53.0091070000" lon="-4.0939440000"><ele>234</ele><time>2016-09-30T09:42:33Z</time></trkpt>
<trkpt lat="53.0091020000" lon="-4.0939450000"><ele>234</ele><time>2016-09-30T09:42:34Z</time></trkpt>
<trkpt lat="53.0090970000" lon="-4.0939460000"><ele>234</ele><time>2016-09-30T09:42:35Z</time></trkpt>
<trkpt lat="53.0090920000" lon="-4.0939470000"><ele>235</ele><time>2016-09-30T09:42:36Z</time></trkpt>
<trkpt lat="53.0090860000" lon="-4.0939470000"><ele>235</ele><time>2016-09-30T09:42:37Z</time></trkpt>
<trkpt lat="53.0090800000" lon="-4.0939480000"><ele>235</ele><time>2016-09-30T09:42:38Z</time></trkpt>
<trkpt lat="53.0090740000" lon="-4.0939480000"><ele>235</ele><time>2016-09-30T09:42:39Z</time></trkpt>
<trkpt lat="53.0090680000" lon="-4.0939490000"><ele>235</ele><time>2016-09-30T09:42:40Z</time></trkpt>
<trkpt lat="53.0090610000" lon="-4.0939490000"><ele>235</ele><time>2016-09-30T09:42:41Z</time></trkpt>
<trkpt lat="53.0090540000" lon="-4.0939500000"><ele>235</ele><time>2016-09-30T09:42:42Z</time></trkpt>
<trkpt lat="53.0090480000" lon="-4.0939500000"><ele>235</ele><time>2016-09-30T09:42:43Z</time></trkpt>
<trkpt lat="53.0090410000" lon="-4.0939510000"><ele>235</ele><time>2016-09-30T09:42:44Z</time></trkpt>
<trkpt lat="53.0090330000" lon="-4.0939510000"><ele>236</ele><time>2016-09-30T09:42:45Z</time></trkpt>
<trkpt lat="53.0090260000" lon="-4.0939510000"><ele>236</ele><time>2016-09-30T09:42:46Z</time></trkpt>
<trkpt lat="53.0090190000" lon="-4.0939520000"><ele>236</ele><time>2016-09-30T09:42:47Z</time></trkpt>
<trkpt lat="53.0090110000" lon="-4.0939520000"><ele>236</ele><time>2016-09-30T09:42:48Z</time></trkpt>
<trkpt lat="53.0090040000" lon="-4.0939520000"><ele>236</ele><time>2016-09-30T09:42:49Z</time></trkpt>
<trkpt lat="53.0089970000" lon="-4.0939520000"><ele>236</ele><time>2016-09-30T09:42:50Z</time></trkpt>
<trkpt lat="53.0089900000" lon="-4.0939520000"><ele>237</ele><time>2016-09-30T09:42:51Z</time></trkpt>
<trkpt lat="53.0089830000" lon="-4.0939520000"><ele>237</ele><time>2016-09-30T09:42:52Z</time></trkpt>
<trkpt lat="53.0089770000" lon="-4.0939520000"><ele>237</ele><time>2016-09-30T09:42:53Z</time></trkpt>
<trkpt lat="53.0089700000" lon="-4.0939520000"><ele>237</ele><time>2016-09-30T09:42:54Z</time></trkpt>
<trkpt lat="53.0089630000" lon="-4.0939520000"><ele>237</ele><time>2016-09-30T09:42:55Z</time></trkpt>
<trkpt lat="53.0089560000" lon="-4.0939530000"><ele>237</ele><time>2016-09-30T09:42:56Z</time></trkpt>
<trkpt lat="53.0089500000" lon="-4.0939530000"><ele>238</ele><time>2016-09-30T09:42:57Z</time></trkpt>
<trkpt lat="53.0089430000" lon="-4.0939530000"><ele>238</ele><time>2016-09-30T09:42:58Z</time></trkpt>
<trkpt lat="53.0089360000" lon="-4.0939540000"><ele>238</ele><time>2016-09-30T09:42:59Z</time></trkpt>
<trkpt lat="53.0089290000" lon="-4.0939540000"><ele>238</ele><time>2016-09-30T09:43:00Z</time></trkpt>
<trkpt lat="53.0089230000" lon="-4.0939550000"><ele>238</ele><time>2016-09-30T09:43:01Z</time></trkpt>
<trkpt lat="53.0089160000" lon="-4.0939550000"><ele>239</ele><time>2016-09-30T09:43:02Z</time></trkpt>
<trkpt lat="53.0089100000" lon="-4.0939560000"><ele>239</ele><time>2016-09-30T09:43:03Z</time></trkpt>
<trkpt lat="53.0089030000" lon="-4.0939560000"><ele>239</ele><time>2016-09-30T09:43:04Z</time></trkpt>
<trkpt lat="53.0088970000" lon="-4.0939570000"><ele>239</ele><time>2016-09-30T09:43:05Z</time></trkpt>
<trkpt lat="53.0088840000" lon="-4.0939570000"><ele>240</ele><time>2016-09-30T09:43:07Z</time></trkpt>
<trkpt lat="53.0088790000" lon="-4.0939560000"><ele>240</ele><time>2016-09-30T09:43:08Z</time></trkpt>
<trkpt lat="53.0088730000" lon="-4.0939560000"><ele>241</ele><time>2016-09-30T09:43:09Z</time></trkpt>
<trkpt lat="53.0088670000" lon="-4.0939560000"><ele>241</ele><time>2016-09-30T09:43:10Z</time></trkpt>
<trkpt lat="53.0088600000" lon="-4.0939550000"><ele>241</ele><time>2016-09-30T09:43:11Z</time></trkpt>
<trkpt lat="53.0088550000" lon="-4.0939550000"><ele>241</ele><time>2016-09-30T09:43:12Z</time></trkpt>
<trkpt lat="53.0088480000" lon="-4.0939550000"><ele>242</ele><time>2016-09-30T09:43:13Z</time></trkpt>
<trkpt lat="53.0088410000" lon="-4.0939550000"><ele>242</ele><time>2016-09-30T09:43:14Z</time></trkpt>
<trkpt lat="53.0088340000" lon="-4.0939550000"><ele>242</ele><time>2016-09-30T09:43:15Z</time></trkpt>
<trkpt lat="53.0088270000" lon="-4.0939550000"><ele>242</ele><time>2016-09-30T09:43:16Z</time></trkpt>
<trkpt lat="53.0088200000" lon="-4.0939550000"><ele>242</ele><time>2016-09-30T09:43:17Z</time></trkpt>
<trkpt lat="53.0088130000" lon="-4.0939560000"><ele>243</ele><time>2016-09-30T09:43:18Z</time></trkpt>
<trkpt lat="53.0088060000" lon="-4.0939570000"><ele>243</ele><time>2016-09-30T09:43:19Z</time></trkpt>
<trkpt lat="53.0087990000" lon="-4.0939580000"><ele>243</ele><time>2016-09-30T09:43:20Z</time></trkpt>
<trkpt lat="53.0087910000" lon="-4.0939600000"><ele>243</ele><time>2016-09-30T09:43:21Z</time></trkpt>
<trkpt lat="53.0087840000" lon="-4.0939620000"><ele>243</ele><time>2016-09-30T09:43:22Z</time></trkpt>
<trkpt lat="53.0087770000" lon="-4.0939640000"><ele>243</ele><time>2016-09-30T09:43:23Z</time></trkpt>
<trkpt lat="53.0087700000" lon="-4.0939660000"><ele>244</ele><time>2016-09-30T09:43:24Z</time></trkpt>
<trkpt lat="53.0087630000" lon="-4.0939670000"><ele>244</ele><time>2016-09-30T09:43:25Z</time></trkpt>
<trkpt lat="53.0087560000" lon="-4.0939690000"><ele>244</ele><time>2016-09-30T09:43:26Z</time></trkpt>
<trkpt lat="53.0087510000" lon="-4.0939700000"><ele>244</ele><time>2016-09-30T09:43:27Z</time></trkpt>
<trkpt lat="53.0087440000" lon="-4.0939710000"><ele>245</ele><time>2016-09-30T09:43:28Z</time></trkpt>
<trkpt lat="53.0087380000" lon="-4.0939720000"><ele>245</ele><time>2016-09-30T09:43:29Z</time></trkpt>
<trkpt lat="53.0087320000" lon="-4.0939740000"><ele>245</ele><time>2016-09-30T09:43:30Z</time></trkpt>
<trkpt lat="53.0087260000" lon="-4.0939760000"><ele>245</ele><time>2016-09-30T09:43:31Z</time></trkpt>
<trkpt lat="53.0087200000" lon="-4.0939780000"><ele>245</ele><time>2016-09-30T09:43:32Z</time></trkpt>
<trkpt lat="53.0087140000" lon="-4.0939800000"><ele>245</ele><time>2016-09-30T09:43:33Z</time></trkpt>
<trkpt lat="53.0087080000" lon="-4.0939820000"><ele>245</ele><time>2016-09-30T09:43:34Z</time></trkpt>
<trkpt lat="53.0087020000" lon="-4.0939840000"><ele>246</ele><time>2016-09-30T09:43:35Z</time></trkpt>
<trkpt lat="53.0086960000" lon="-4.0939870000"><ele>246</ele><time>2016-09-30T09:43:36Z</time></trkpt>
<trkpt lat="53.0086900000" lon="-4.0939890000"><ele>246</ele><time>2016-09-30T09:43:37Z</time></trkpt>
<trkpt lat="53.0086840000" lon="-4.0939910000"><ele>246</ele><time>2016-09-30T09:43:38Z</time></trkpt>
<trkpt lat="53.0086780000" lon="-4.0939930000"><ele>246</ele><time>2016-09-30T09:43:39Z</time></trkpt>
<trkpt lat="53.0086720000" lon="-4.0939950000"><ele>246</ele><time>2016-09-30T09:43:40Z</time></trkpt>
<trkpt lat="53.0086650000" lon="-4.0939980000"><ele>246</ele><time>2016-09-30T09:43:41Z</time></trkpt>
<trkpt lat="53.0086590000" lon="-4.0940000000"><ele>247</ele><time>2016-09-30T09:43:42Z</time></trkpt>
<trkpt lat="53.0086530000" lon="-4.0940020000"><ele>247</ele><time>2016-09-30T09:43:43Z</time></trkpt>
<trkpt lat="53.0086470000" lon="-4.0940050000"><ele>247</ele><time>2016-09-30T09:43:44Z</time></trkpt>
<trkpt lat="53.0086400000" lon="-4.0940070000"><ele>247</ele><time>2016-09-30T09:43:45Z</time></trkpt>
<trkpt lat="53.0086340000" lon="-4.0940090000"><ele>247</ele><time>2016-09-30T09:43:46Z</time></trkpt>
<trkpt lat="53.0086280000" lon="-4.0940110000"><ele>247</ele><time>2016-09-30T09:43:47Z</time></trkpt>
<trkpt lat="53.0086220000" lon="-4.0940130000"><ele>247</ele><time>2016-09-30T09:43:48Z</time></trkpt>
<trkpt lat="53.0086160000" lon="-4.0940160000"><ele>247</ele><time>2016-09-30T09:43:49Z</time></trkpt>
<trkpt lat="53.0086100000" lon="-4.0940180000"><ele>248</ele><time>2016-09-30T09:43:50Z</time></trkpt>
<trkpt lat="53.0086040000" lon="-4.0940210000"><ele>248</ele><time>2016-09-30T09:43:51Z</time></trkpt>
<trkpt lat="53.0085980000" lon="-4.0940230000"><ele>248</ele><time>2016-09-30T09:43:52Z</time></trkpt>
<trkpt lat="53.0085920000" lon="-4.0940250000"><ele>248</ele><time>2016-09-30T09:43:53Z</time></trkpt>
<trkpt lat="53.0085860000" lon="-4.0940260000"><ele>248</ele><time>2016-09-30T09:43:54Z</time></trkpt>
<trkpt lat="53.0085810000" lon="-4.0940280000"><ele>248</ele><time>2016-09-30T09:43:55Z</time></trkpt>
<trkpt lat="53.0085750000" lon="-4.0940290000"><ele>248</ele><time>2016-09-30T09:43:56Z</time></trkpt>
<trkpt lat="53.0085690000" lon="-4.0940300000"><ele>248</ele><time>2016-09-30T09:43:57Z</time></trkpt>
<trkpt lat="53.0085640000" lon="-4.0940310000"><ele>248</ele><time>2016-09-30T09:43:58Z</time></trkpt>
<trkpt lat="53.0085590000" lon="-4.0940320000"><ele>248</ele><time>2016-09-30T09:43:59Z</time></trkpt>
<trkpt lat="53.0085540000" lon="-4.0940330000"><ele>249</ele><time>2016-09-30T09:44:00Z</time></trkpt>
<trkpt lat="53.0085490000" lon="-4.0940340000"><ele>249</ele><time>2016-09-30T09:44:01Z</time></trkpt>
<trkpt lat="53.0085440000" lon="-4.0940350000"><ele>249</ele><time>2016-09-30T09:44:02Z</time></trkpt>
<trkpt lat="53.0085390000" lon="-4.0940350000"><ele>249</ele><time>2016-09-30T09:44:03Z</time></trkpt>
<trkpt lat="53.0085350000" lon="-4.0940350000"><ele>249</ele><time>2016-09-30T09:44:04Z</time></trkpt>
<trkpt lat="53.0085300000" lon="-4.0940350000"><ele>249</ele><time>2016-09-30T09:44:05Z</time></trkpt>
<trkpt lat="53.0085220000" lon="-4.0940350000"><ele>249</ele><time>2016-09-30T09:44:07Z</time></trkpt>
<trkpt lat="53.0085180000" lon="-4.0940350000"><ele>249</ele><time>2016-09-30T09:44:08Z</time></trkpt>
<trkpt lat="53.0085140000" lon="-4.0940350000"><ele>249</ele><time>2016-09-30T09:44:09Z</time></trkpt>
<trkpt lat="53.0085100000" lon="-4.0940350000"><ele>249</ele><time>2016-09-30T09:44:10Z</time></trkpt>
<trkpt lat="53.0085060000" lon="-4.0940360000"><ele>249</ele><time>2016-09-30T09:44:11Z</time></trkpt>
<trkpt lat="53.0085020000" lon="-4.0940360000"><ele>249</ele><time>2016-09-30T09:44:12Z</time></trkpt>
<trkpt lat="53.0084970000" lon="-4.0940360000"><ele>249</ele><time>2016-09-30T09:44:13Z</time></trkpt>
<trkpt lat="53.0084930000" lon="-4.0940360000"><ele>250</ele><time>2016-09-30T09:44:14Z</time></trkpt>
<trkpt lat="53.0084880000" lon="-4.0940370000"><ele>250</ele><time>2016-09-30T09:44:15Z</time></trkpt>
<trkpt lat="53.0084830000" lon="-4.0940370000"><ele>250</ele><time>2016-09-30T09:44:16Z</time></trkpt>
<trkpt lat="53.0084790000" lon="-4.0940370000"><ele>250</ele><time>2016-09-30T09:44:17Z</time></trkpt>
<trkpt lat="53.0084740000" lon="-4.0940370000"><ele>250</ele><time>2016-09-30T09:44:18Z</time></trkpt>
<trkpt lat="53.0084700000" lon="-4.0940370000"><ele>250</ele><time>2016-09-30T09:44:19Z</time></trkpt>
<trkpt lat="53.0084650000" lon="-4.0940360000"><ele>250</ele><time>2016-09-30T09:44:20Z</time></trkpt>
<trkpt lat="53.0084610000" lon="-4.0940360000"><ele>250</ele><time>2016-09-30T09:44:21Z</time></trkpt>
<trkpt lat="53.0084570000" lon="-4.0940350000"><ele>250</ele><time>2016-09-30T09:44:22Z</time></trkpt>
<trkpt lat="53.0084520000" lon="-4.0940350000"><ele>250</ele><time>2016-09-30T09:44:23Z</time></trkpt>
<trkpt lat="53.0084480000" lon="-4.0940340000"><ele>250</ele><time>2016-09-30T09:44:24Z</time></trkpt>
<trkpt lat="53.0084440000" lon="-4.0940330000"><ele>250</ele><time>2016-09-30T09:44:25Z</time></trkpt>
<trkpt lat="53.0084400000" lon="-4.0940320000"><ele>251</ele><time>2016-09-30T09:44:26Z</time></trkpt>
<trkpt lat="53.0084370000" lon="-4.0940320000"><ele>251</ele><time>2016-09-30T09:44:27Z</time></trkpt>
<trkpt lat="53.0084330000" lon="-4.0940310000"><ele>251</ele><time>2016-09-30T09:44:28Z</time></trkpt>
<trkpt lat="53.0084290000" lon="-4.0940300000"><ele>251</ele><time>2016-09-30T09:44:29Z</time></trkpt>
<trkpt lat="53.0084250000" lon="-4.0940290000"><ele>251</ele><time>2016-09-30T09:44:30Z</time></trkpt>
<trkpt lat="53.0084210000" lon="-4.0940280000"><ele>251</ele><time>2016-09-30T09:44:31Z</time></trkpt>
<trkpt lat="53.0084170000" lon="-4.0940280000"><ele>251</ele><time>2016-09-30T09:44:32Z</time></trkpt>
<trkpt lat="53.0084120000" lon="-4.0940270000"><ele>251</ele><time>2016-09-30T09:44:33Z</time></trkpt>
<trkpt lat="53.0084080000" lon="-4.0940260000"><ele>251</ele><time>2016-09-30T09:44:34Z</time></trkpt>
<trkpt lat="53.0084040000" lon="-4.0940250000"><ele>251</ele><time>2016-09-30T09:44:35Z</time></trkpt>
<trkpt lat="53.0084000000" lon="-4.0940240000"><ele>251</ele><time>2016-09-30T09:44:36Z</time></trkpt>
<trkpt lat="53.0083960000" lon="-4.0940220000"><ele>251</ele><time>2016-09-30T09:44:37Z</time></trkpt>
<trkpt lat="53.0083920000" lon="-4.0940210000"><ele>252</ele><time>2016-09-30T09:44:38Z</time></trkpt>
<trkpt lat="53.0083880000" lon="-4.0940190000"><ele>252</ele><time>2016-09-30T09:44:39Z</time></trkpt>
<trkpt lat="53.0083850000" lon="-4.0940170000"><ele>252</ele><time>2016-09-30T09:44:40Z</time></trkpt>
<trkpt lat="53.0083820000" lon="-4.0940150000"><ele>252</ele><time>2016-09-30T09:44:41Z</time></trkpt>
<trkpt lat="53.0083790000" lon="-4.0940130000"><ele>252</ele><time>2016-09-30T09:44:42Z</time></trkpt>
<trkpt lat="53.0083750000" lon="-4.0940110000"><ele>253</ele><time>2016-09-30T09:44:43Z</time></trkpt>
<trkpt lat="53.0083720000" lon="-4.0940090000"><ele>253</ele><time>2016-09-30T09:44:44Z</time></trkpt>
<trkpt lat="53.0083690000" lon="-4.0940070000"><ele>253</ele><time>2016-09-30T09:44:45Z</time></trkpt>
<trkpt lat="53.0083650000" lon="-4.0940050000"><ele>253</ele><time>2016-09-30T09:44:46Z</time></trkpt>
<trkpt lat="53.0083620000" lon="-4.0940030000"><ele>253</ele><time>2016-09-30T09:44:47Z</time></trkpt>
<trkpt lat="53.0083590000" lon="-4.0940000000"><ele>254</ele><time>2016-09-30T09:44:48Z</time></trkpt>
<trkpt lat="53.0083550000" lon="-4.0939980000"><ele>254</ele><time>2016-09-30T09:44:49Z</time></trkpt>
<trkpt lat="53.0083520000" lon="-4.0939960000"><ele>254</ele><time>2016-09-30T09:44:50Z</time></trkpt>
<trkpt lat="53.0083490000" lon="-4.0939930000"><ele>254</ele><time>2016-09-30T09:44:51Z</time></trkpt>
<trkpt lat="53.0083460000" lon="-4.0939910000"><ele>254</ele><time>2016-09-30T09:44:52Z</time></trkpt>
<trkpt lat="53.0083420000" lon="-4.0939890000"><ele>254</ele><time>2016-09-30T09:44:53Z</time></trkpt>
<trkpt lat="53.0083390000" lon="-4.0939870000"><ele>255</ele><time>2016-09-30T09:44:54Z</time></trkpt>
<trkpt lat="53.0083360000" lon="-4.0939840000"><ele>255</ele><time>2016-09-30T09:44:55Z</time></trkpt>
<trkpt lat="53.0083330000" lon="-4.0939820000"><ele>255</ele><time>2016-09-30T09:44:56Z</time></trkpt>
<trkpt lat="53.0083300000" lon="-4.0939790000"><ele>255</ele><time>2016-09-30T09:44:57Z</time></trkpt>
<trkpt lat="53.0083280000" lon="-4.0939760000"><ele>255</ele><time>2016-09-30T09:44:58Z</time></trkpt>
<trkpt lat="53.0083250000" lon="-4.0939730000"><ele>256</ele><time>2016-09-30T09:44:59Z</time></trkpt>
<trkpt lat="53.0083220000" lon="-4.0939700000"><ele>256</ele><time>2016-09-30T09:45:00Z</time></trkpt>
<trkpt lat="53.0083200000" lon="-4.0939670000"><ele>256</ele><time>2016-09-30T09:45:01Z</time></trkpt>
<trkpt lat="53.0083170000" lon="-4.0939640000"><ele>256</ele><time>2016-09-30T09:45:02Z</time></trkpt>
<trkpt lat="53.0083140000" lon="-4.0939610000"><ele>256</ele><time>2016-09-30T09:45:03Z</time></trkpt>
<trkpt lat="53.0083120000" lon="-4.0939590000"><ele>256</ele><time>2016-09-30T09:45:04Z</time></trkpt>
<trkpt lat="53.0083090000" lon="-4.0939570000"><ele>257</ele><time>2016-09-30T09:45:05Z</time></trkpt>
<trkpt lat="53.0083030000" lon="-4.0939520000"><ele>257</ele><time>2016-09-30T09:45:07Z</time></trkpt>
<trkpt lat="53.0083010000" lon="-4.0939500000"><ele>257</ele><time>2016-09-30T09:45:08Z</time></trkpt>
<trkpt lat="53.0082980000" lon="-4.0939490000"><ele>257</ele><time>2016-09-30T09:45:09Z</time></trkpt>
<trkpt lat="53.0082950000" lon="-4.0939470000"><ele>257</ele><time>2016-09-30T09:45:10Z</time></trkpt>
<trkpt lat="53.0082920000" lon="-4.0939450000"><ele>257</ele><time>2016-09-30T09:45:11Z</time></trkpt>
<trkpt lat="53.0082900000" lon="-4.0939430000"><ele>257</ele><time>2016-09-30T09:45:12Z</time></trkpt>
<trkpt lat="53.0082870000" lon="-4.0939410000"><ele>257</ele><time>2016-09-30T09:45:13Z</time></trkpt>
<trkpt lat="53.0082840000" lon="-4.0939390000"><ele>257</ele><time>2016-09-30T09:45:14Z</time></trkpt>
<trkpt lat="53.0082810000" lon="-4.0939360000"><ele>257</ele><time>2016-09-30T09:45:15Z</time></trkpt>
<trkpt lat="53.0082790000" lon="-4.0939340000"><ele>257</ele><time>2016-09-30T09:45:16Z</time></trkpt>
<trkpt lat="53.0082760000" lon="-4.0939320000"><ele>258</ele><time>2016-09-30T09:45:17Z</time></trkpt>
<trkpt lat="53.0082740000" lon="-4.0939290000"><ele>258</ele><time>2016-09-30T09:45:18Z</time></trkpt>
<trkpt lat="53.0082720000" lon="-4.0939270000"><ele>258</ele><time>2016-09-30T09:45:19Z</time></trkpt>
<trkpt lat="53.0082700000" lon="-4.0939240000"><ele>258</ele><time>2016-09-30T09:45:20Z</time></trkpt>
<trkpt lat="53.0082690000" lon="-4.0939210000"><ele>258</ele><time>2016-09-30T09:45:21Z</time></trkpt>
<trkpt lat="53.0082680000" lon="-4.0939180000"><ele>258</ele><time>2016-09-30T09:45:22Z</time></trkpt>
<trkpt lat="53.0082660000" lon="-4.0939140000"><ele>259</ele><time>2016-09-30T09:45:23Z</time></trkpt>
<trkpt lat="53.0082650000" lon="-4.0939100000"><ele>259</ele><time>2016-09-30T09:45:24Z</time></trkpt>
<trkpt lat="53.0082640000" lon="-4.0939060000"><ele>259</ele><time>2016-09-30T09:45:25Z</time></trkpt>
<trkpt lat="53.0082630000" lon="-4.0939020000"><ele>259</ele><time>2016-09-30T09:45:26Z</time></trkpt>
<trkpt lat="53.0082610000" lon="-4.0938980000"><ele>259</ele><time>2016-09-30T09:45:27Z</time></trkpt>
<trkpt lat="53.0082600000" lon="-4.0938940000"><ele>259</ele><time>2016-09-30T09:45:28Z</time></trkpt>
<trkpt lat="53.0082590000" lon="-4.0938900000"><ele>259</ele><time>2016-09-30T09:45:29Z</time></trkpt>
<trkpt lat="53.0082580000" lon="-4.0938860000"><ele>259</ele><time>2016-09-30T09:45:30Z</time></trkpt>
<trkpt lat="53.0082570000" lon="-4.0938810000"><ele>259</ele><time>2016-09-30T09:45:31Z</time></trkpt>
<trkpt lat="53.0082560000" lon="-4.0938770000"><ele>259</ele><time>2016-09-30T09:45:32Z</time></trkpt>
<trkpt lat="53.0082560000" lon="-4.0938730000"><ele>259</ele><time>2016-09-30T09:45:33Z</time></trkpt>
<trkpt lat="53.0082550000" lon="-4.0938690000"><ele>259</ele><time>2016-09-30T09:45:34Z</time></trkpt>
<trkpt lat="53.0082550000" lon="-4.0938640000"><ele>260</ele><time>2016-09-30T09:45:35Z</time></trkpt>
<trkpt lat="53.0082550000" lon="-4.0938600000"><ele>260</ele><time>2016-09-30T09:45:36Z</time></trkpt>
<trkpt lat="53.0082550000" lon="-4.0938560000"><ele>260</ele><time>2016-09-30T09:45:37Z</time></trkpt>
<trkpt lat="53.0082560000" lon="-4.0938520000"><ele>260</ele><time>2016-09-30T09:45:38Z</time></trkpt>
<trkpt lat="53.0082570000" lon="-4.0938480000"><ele>260</ele><time>2016-09-30T09:45:39Z</time></trkpt>
<trkpt lat="53.0082570000" lon="-4.0938430000"><ele>260</ele><time>2016-09-30T09:45:40Z</time></trkpt>
<trkpt lat="53.0082590000" lon="-4.0938390000"><ele>260</ele><time>2016-09-30T09:45:41Z</time></trkpt>
<trkpt lat="53.0082600000" lon="-4.0938340000"><ele>260</ele><time>2016-09-30T09:45:42Z</time></trkpt>
<trkpt lat="53.0082610000" lon="-4.0938300000"><ele>260</ele><time>2016-09-30T09:45:43Z</time></trkpt>
<trkpt lat="53.0082620000" lon="-4.0938250000"><ele>261</ele><time>2016-09-30T09:45:44Z</time></trkpt>
<trkpt lat="53.0082640000" lon="-4.0938210000"><ele>261</ele><time>2016-09-30T09:45:45Z</time></trkpt>
<trkpt lat="53.0082650000" lon="-4.0938170000"><ele>261</ele><time>2016-09-30T09:45:46Z</time></trkpt>
<trkpt lat="53.0082660000" lon="-4.0938130000"><ele>261</ele><time>2016-09-30T09:45:47Z</time></trkpt>
<trkpt lat="53.0082670000" lon="-4.0938080000"><ele>261</ele><time>2016-09-30T09:45:48Z</time></trkpt>
<trkpt lat="53.0082690000" lon="-4.0938040000"><ele>261</ele><time>2016-09-30T09:45:49Z</time></trkpt>
<trkpt lat="53.0082700000" lon="-4.0938010000"><ele>262</ele><time>2016-09-30T09:45:50Z</time></trkpt>
<trkpt lat="53.0082710000" lon="-4.0937970000"><ele>262</ele><time>2016-09-30T09:45:51Z</time></trkpt>
<trkpt lat="53.0082720000" lon="-4.0937940000"><ele>262</ele><time>2016-09-30T09:45:52Z</time></trkpt>
<trkpt lat="53.0082720000" lon="-4.0937920000"><ele>262</ele><time>2016-09-30T09:45:53Z</time></trkpt>
<trkpt lat="53.0082730000" lon="-4.0937890000"><ele>262</ele><time>2016-09-30T09:45:54Z</time></trkpt>
<trkpt lat="53.0082740000" lon="-4.0937860000"><ele>262</ele><time>2016-09-30T09:45:55Z</time></trkpt>
<trkpt lat="53.0082750000" lon="-4.0937840000"><ele>262</ele><time>2016-09-30T09:45:56Z</time></trkpt>
<trkpt lat="53.0082760000" lon="-4.0937810000"><ele>262</ele><time>2016-09-30T09:45:57Z</time></trkpt>
<trkpt lat="53.0082770000" lon="-4.0937790000"><ele>262</ele><time>2016-09-30T09:45:58Z</time></trkpt>
<trkpt lat="53.0082780000" lon="-4.0937770000"><ele>262</ele><time>2016-09-30T09:45:59Z</time></trkpt>
<trkpt lat="53.0082780000" lon="-4.0937750000"><ele>262</ele><time>2016-09-30T09:46:00Z</time></trkpt>
<trkpt lat="53.0082790000" lon="-4.0937730000"><ele>262</ele><time>2016-09-30T09:46:01Z</time></trkpt>
<trkpt lat="53.0082800000" lon="-4.0937710000"><ele>262</ele><time>2016-09-30T09:46:02Z</time></trkpt>
<trkpt lat="53.0082800000" lon="-4.0937690000"><ele>262</ele><time>2016-09-30T09:46:03Z</time></trkpt>
<trkpt lat="53.0082810000" lon="-4.0937670000"><ele>262</ele><time>2016-09-30T09:46:04Z</time></trkpt>
<trkpt lat="53.0082810000" lon="-4.0937650000"><ele>262</ele><time>2016-09-30T09:46:05Z</time></trkpt>
<trkpt lat="53.0082820000" lon="-4.0937610000"><ele>262</ele><time>2016-09-30T09:46:07Z</time></trkpt>
<trkpt lat="53.0082830000" lon="-4.0937590000"><ele>263</ele><time>2016-09-30T09:46:08Z</time></trkpt>
<trkpt lat="53.0082830000" lon="-4.0937570000"><ele>263</ele><time>2016-09-30T09:46:09Z</time></trkpt>
<trkpt lat="53.0082840000" lon="-4.0937560000"><ele>263</ele><time>2016-09-30T09:46:10Z</time></trkpt>
<trkpt lat="53.0082840000" lon="-4.0937540000"><ele>263</ele><time>2016-09-30T09:46:11Z</time></trkpt>
<trkpt lat="53.0082840000" lon="-4.0937530000"><ele>263</ele><time>2016-09-30T09:46:12Z</time></trkpt>
<trkpt lat="53.0082850000" lon="-4.0937510000"><ele>263</ele><time>2016-09-30T09:46:13Z</time></trkpt>
<trkpt lat="53.0082850000" lon="-4.0937500000"><ele>263</ele><time>2016-09-30T09:46:14Z</time></trkpt>
<trkpt lat="53.0082850000" lon="-4.0937490000"><ele>264</ele><time>2016-09-30T09:46:15Z</time></trkpt>
<trkpt lat="53.0082860000" lon="-4.0937470000"><ele>264</ele><time>2016-09-30T09:46:16Z</time></trkpt>
<trkpt lat="53.0082860000" lon="-4.0937460000"><ele>264</ele><time>2016-09-30T09:46:17Z</time></trkpt>
<trkpt lat="53.0082860000" lon="-4.0937450000"><ele>264</ele><time>2016-09-30T09:46:18Z</time></trkpt>
<trkpt lat="53.0082870000" lon="-4.0937440000"><ele>264</ele><time>2016-09-30T09:46:19Z</time></trkpt>
<trkpt lat="53.0082870000" lon="-4.0937430000"><ele>264</ele><time>2016-09-30T09:46:20Z</time></trkpt>
<trkpt lat="53.0082870000" lon="-4.0937420000"><ele>264</ele><time>2016-09-30T09:46:21Z</time></trkpt>
<trkpt lat="53.0082870000" lon="-4.0937410000"><ele>264</ele><time>2016-09-30T09:46:22Z</time></trkpt>
<trkpt lat="53.0082870000" lon="-4.0937410000"><ele>264</ele><time>2016-09-30T09:46:23Z</time></trkpt>
<trkpt lat="53.0082870000" lon="-4.0937410000"><ele>264</ele><time>2016-09-30T09:46:24Z</time></trkpt>
<trkpt lat="53.0082860000" lon="-4.0937400000"><ele>264</ele><time>2016-09-30T09:46:25Z</time></trkpt>
<trkpt lat="53.0082860000" lon="-4.0937400000"><ele>264</ele><time>2016-09-30T09:46:26Z</time></trkpt>
<trkpt lat="53.0082860000" lon="-4.0937400000"><ele>264</ele><time>2016-09-30T09:46:27Z</time></trkpt>
<trkpt lat="53.0082860000" lon="-4.0937400000"><ele>264</ele><time>2016-09-30T09:46:28Z</time></trkpt>
<trkpt lat="53.0082860000" lon="-4.0937410000"><ele>264</ele><time>2016-09-30T09:46:29Z</time></trkpt>
<trkpt lat="53.0082860000" lon="-4.0937410000"><ele>264</ele><time>2016-09-30T09:46:30Z</time></trkpt>
<trkpt lat="53.0082850000" lon="-4.0937410000"><ele>264</ele><time>2016-09-30T09:46:31Z</time></trkpt>
<trkpt lat="53.0082850000" lon="-4.0937420000"><ele>264</ele><time>2016-09-30T09:46:32Z</time></trkpt>
<trkpt lat="53.0082850000" lon="-4.0937420000"><ele>264</ele><time>2016-09-30T09:46:33Z</time></trkpt>
<trkpt lat="53.0082840000" lon="-4.0937430000"><ele>264</ele><time>2016-09-30T09:46:34Z</time></trkpt>
<trkpt lat="53.0082840000" lon="-4.0937440000"><ele>264</ele><time>2016-09-30T09:46:35Z</time></trkpt>
<trkpt lat="53.0082840000" lon="-4.0937440000"><ele>264</ele><time>2016-09-30T09:46:36Z</time></trkpt>
<trkpt lat="53.0082830000" lon="-4.0937440000"><ele>264</ele><time>2016-09-30T09:46:37Z</time></trkpt>
<trkpt lat="53.0082830000" lon="-4.0937450000"><ele>264</ele><time>2016-09-30T09:46:38Z</time></trkpt>
<trkpt lat="53.0082820000" lon="-4.0937450000"><ele>264</ele><time>2016-09-30T09:46:39Z</time></trkpt>
<trkpt lat="53.0082820000" lon="-4.0937450000"><ele>264</ele><time>2016-09-30T09:46:40Z</time></trkpt>
<trkpt lat="53.0082820000" lon="-4.0937450000"><ele>264</ele><time>2016-09-30T09:46:41Z</time></trkpt>
<trkpt lat="53.0082820000" lon="-4.0937440000"><ele>264</ele><time>2016-09-30T09:46:42Z</time></trkpt>
<trkpt lat="53.0082820000" lon="-4.0937440000"><ele>264</ele><time>2016-09-30T09:46:43Z</time></trkpt>
<trkpt lat="53.0082820000" lon="-4.0937440000"><ele>264</ele><time>2016-09-30T09:46:44Z</time></trkpt>
<trkpt lat="53.0082820000" lon="-4.0937430000"><ele>264</ele><time>2016-09-30T09:46:45Z</time></trkpt>
<trkpt lat="53.0082820000" lon="-4.0937420000"><ele>264</ele><time>2016-09-30T09:46:46Z</time></trkpt>
<trkpt lat="53.0082830000" lon="-4.0937410000"><ele>265</ele><time>2016-09-30T09:46:47Z</time></trkpt>
<trkpt lat="53.0082830000" lon="-4.0937400000"><ele>265</ele><time>2016-09-30T09:46:48Z</time></trkpt>
<trkpt lat="53.0082830000" lon="-4.0937390000"><ele>265</ele><time>2016-09-30T09:46:49Z</time></trkpt>
<trkpt lat="53.0082830000" lon="-4.0937380000"><ele>265</ele><time>2016-09-30T09:46:50Z</time></trkpt>
<trkpt lat="53.0082830000" lon="-4.0937370000"><ele>265</ele><time>2016-09-30T09:46:51Z</time></trkpt>
<trkpt lat="53.0082830000" lon="-4.0937360000"><ele>265</ele><time>2016-09-30T09:46:52Z</time></trkpt>
<trkpt lat="53.0082830000" lon="-4.0937350000"><ele>265</ele><time>2016-09-30T09:46:53Z</time></trkpt>
<trkpt lat="53.0082830000" lon="-4.0937340000"><ele>265</ele><time>2016-09-30T09:46:54Z</time></trkpt>
<trkpt lat="53.0082830000" lon="-4.0937330000"><ele>265</ele><time>2016-09-30T09:46:55Z</time></trkpt>
<trkpt lat="53.0082830000" lon="-4.0937320000"><ele>265</ele><time>2016-09-30T09:46:56Z</time></trkpt>
<trkpt lat="53.0082830000" lon="-4.0937310000"><ele>264</ele><time>2016-09-30T09:46:57Z</time></trkpt>
<trkpt lat="53.0082830000" lon="-4.0937290000"><ele>264</ele><time>2016-09-30T09:46:58Z</time></trkpt>
<trkpt lat="53.0082830000" lon="-4.0937280000"><ele>264</ele><time>2016-09-30T09:46:59Z</time></trkpt>
<trkpt lat="53.0082820000" lon="-4.0937270000"><ele>264</ele><time>2016-09-30T09:47:00Z</time></trkpt>
<trkpt lat="53.0082810000" lon="-4.0937250000"><ele>264</ele><time>2016-09-30T09:47:01Z</time></trkpt>
<trkpt lat="53.0082800000" lon="-4.0937240000"><ele>264</ele><time>2016-09-30T09:47:02Z</time></trkpt>
<trkpt lat="53.0082800000" lon="-4.0937230000"><ele>264</ele><time>2016-09-30T09:47:03Z</time></trkpt>
<trkpt lat="53.0082780000" lon="-4.0937230000"><ele>264</ele><time>2016-09-30T09:47:04Z</time></trkpt>
<trkpt lat="53.0082770000" lon="-4.0937220000"><ele>264</ele><time>2016-09-30T09:47:05Z</time></trkpt>
<trkpt lat="53.0082760000" lon="-4.0937210000"><ele>264</ele><time>2016-09-30T09:47:07Z</time></trkpt>
<trkpt lat="53.0082750000" lon="-4.0937200000"><ele>263</ele><time>2016-09-30T09:47:08Z</time></trkpt>
<trkpt lat="53.0082740000" lon="-4.0937190000"><ele>263</ele><time>2016-09-30T09:47:09Z</time></trkpt>
<trkpt lat="53.0082730000" lon="-4.0937190000"><ele>263</ele><time>2016-09-30T09:47:10Z</time></trkpt>
<trkpt lat="53.0082720000" lon="-4.0937180000"><ele>263</ele><time>2016-09-30T09:47:11Z</time></trkpt>
<trkpt lat="53.0082710000" lon="-4.0937170000"><ele>263</ele><time>2016-09-30T09:47:12Z</time></trkpt>
<trkpt lat="53.0082700000" lon="-4.0937170000"><ele>263</ele><time>2016-09-30T09:47:13Z</time></trkpt>
<trkpt lat="53.0082690000" lon="-4.0937160000"><ele>263</ele><time>2016-09-30T09:47:14Z</time></trkpt>
<trkpt lat="53.0082680000" lon="-4.0937160000"><ele>263</ele><time>2016-09-30T09:47:15Z</time></trkpt>
<trkpt lat="53.0082670000" lon="-4.0937150000"><ele>263</ele><time>2016-09-30T09:47:16Z</time></trkpt>
<trkpt lat="53.0082660000" lon="-4.0937150000"><ele>263</ele><time>2016-09-30T09:47:17Z</time></trkpt>
<trkpt lat="53.0082640000" lon="-4.0937140000"><ele>263</ele><time>2016-09-30T09:47:18Z</time></trkpt>
<trkpt lat="53.0082630000" lon="-4.0937130000"><ele>264</ele><time>2016-09-30T09:47:19Z</time></trkpt>
<trkpt lat="53.0082610000" lon="-4.0937120000"><ele>264</ele><time>2016-09-30T09:47:20Z</time></trkpt>
<trkpt lat="53.0082590000" lon="-4.0937110000"><ele>264</ele><time>2016-09-30T09:47:21Z</time></trkpt>
<trkpt lat="53.0082560000" lon="-4.0937100000"><ele>264</ele><time>2016-09-30T09:47:22Z</time></trkpt>
<trkpt lat="53.0082540000" lon="-4.0937090000"><ele>264</ele><time>2016-09-30T09:47:23Z</time></trkpt>
<trkpt lat="53.0082510000" lon="-4.0937080000"><ele>264</ele><time>2016-09-30T09:47:24Z</time></trkpt>
<trkpt lat="53.0082490000" lon="-4.0937080000"><ele>264</ele><time>2016-09-30T09:47:25Z</time></trkpt>
<trkpt lat="53.0082460000" lon="-4.0937080000"><ele>264</ele><time>2016-09-30T09:47:26Z</time></trkpt>
<trkpt lat="53.0082430000" lon="-4.0937080000"><ele>264</ele><time>2016-09-30T09:47:27Z</time></trkpt>
<trkpt lat="53.0082400000" lon="-4.0937090000"><ele>264</ele><time>2016-09-30T09:47:28Z</time></trkpt>
<trkpt lat="53.0082370000" lon="-4.0937100000"><ele>264</ele><time>2016-09-30T09:47:29Z</time></trkpt>
<trkpt lat="53.0082330000" lon="-4.0937110000"><ele>264</ele><time>2016-09-30T09:47:30Z</time></trkpt>
<trkpt lat="53.0082300000" lon="-4.0937120000"><ele>264</ele><time>2016-09-30T09:47:31Z</time></trkpt>
<trkpt lat="53.0082270000" lon="-4.0937130000"><ele>264</ele><time>2016-09-30T09:47:32Z</time></trkpt>
<trkpt lat="53.0082240000" lon="-4.0937140000"><ele>264</ele><time>2016-09-30T09:47:33Z</time></trkpt>
<trkpt lat="53.0082210000" lon="-4.0937150000"><ele>264</ele><time>2016-09-30T09:47:34Z</time></trkpt>
<trkpt lat="53.0082190000" lon="-4.0937160000"><ele>264</ele><time>2016-09-30T09:47:35Z</time></trkpt>
<trkpt lat="53.0082160000" lon="-4.0937170000"><ele>265</ele><time>2016-09-30T09:47:36Z</time></trkpt>
<trkpt lat="53.0082130000" lon="-4.0937180000"><ele>265</ele><time>2016-09-30T09:47:37Z</time></trkpt>
<trkpt lat="53.0082100000" lon="-4.0937190000"><ele>265</ele><time>2016-09-30T09:47:38Z</time></trkpt>
<trkpt lat="53.0082080000" lon="-4.0937200000"><ele>265</ele><time>2016-09-30T09:47:39Z</time></trkpt>
<trkpt lat="53.0082060000" lon="-4.0937220000"><ele>265</ele><time>2016-09-30T09:47:40Z</time></trkpt>
<trkpt lat="53.0082030000" lon="-4.0937230000"><ele>265</ele><time>2016-09-30T09:47:41Z</time></trkpt>
<trkpt lat="53.0082010000" lon="-4.0937240000"><ele>265</ele><time>2016-09-30T09:47:42Z</time></trkpt>
<trkpt lat="53.0081990000" lon="-4.0937250000"><ele>265</ele><time>2016-09-30T09:47:43Z</time></trkpt>
<trkpt lat="53.0081960000" lon="-4.0937260000"><ele>266</ele><time>2016-09-30T09:47:44Z</time></trkpt>
<trkpt lat="53.0081940000" lon="-4.0937270000"><ele>266</ele><time>2016-09-30T09:47:45Z</time></trkpt>
<trkpt lat="53.0081920000" lon="-4.0937280000"><ele>266</ele><time>2016-09-30T09:47:46Z</time></trkpt>
<trkpt lat="53.0081900000" lon="-4.0937280000"><ele>266</ele><time>2016-09-30T09:47:47Z</time></trkpt>
<trkpt lat="53.0081890000" lon="-4.0937290000"><ele>266</ele><time>2016-09-30T09:47:48Z</time></trkpt>
<trkpt lat="53.0081870000" lon="-4.0937290000"><ele>267</ele><time>2016-09-30T09:47:49Z</time></trkpt>
<trkpt lat="53.0081850000" lon="-4.0937300000"><ele>267</ele><time>2016-09-30T09:47:50Z</time></trkpt>
<trkpt lat="53.0081840000" lon="-4.0937300000"><ele>267</ele><time>2016-09-30T09:47:51Z</time></trkpt>
<trkpt lat="53.0081820000" lon="-4.0937300000"><ele>267</ele><time>2016-09-30T09:47:52Z</time></trkpt>
<trkpt lat="53.0081810000" lon="-4.0937290000"><ele>267</ele><time>2016-09-30T09:47:53Z</time></trkpt>
<trkpt lat="53.0081790000" lon="-4.0937290000"><ele>267</ele><time>2016-09-30T09:47:54Z</time></trkpt>
<trkpt lat="53.0081780000" lon="-4.0937280000"><ele>267</ele><time>2016-09-30T09:47:55Z</time></trkpt>
<trkpt lat="53.0081760000" lon="-4.0937270000"><ele>267</ele><time>2016-09-30T09:47:56Z</time></trkpt>
<trkpt lat="53.0081740000" lon="-4.0937260000"><ele>268</ele><time>2016-09-30T09:47:57Z</time></trkpt>
<trkpt lat="53.0081720000" lon="-4.0937250000"><ele>268</ele><time>2016-09-30T09:47:58Z</time></trkpt>
<trkpt lat="53.0081700000" lon="-4.0937240000"><ele>268</ele><time>2016-09-30T09:47:59Z</time></trkpt>
<trkpt lat="53.0081670000" lon="-4.0937240000"><ele>268</ele><time>2016-09-30T09:48:00Z</time></trkpt>
<trkpt lat="53.0081640000" lon="-4.0937240000"><ele>268</ele><time>2016-09-30T09:48:01Z</time></trkpt>
<trkpt lat="53.0081600000" lon="-4.0937230000"><ele>268</ele><time>2016-09-30T09:48:02Z</time></trkpt>
<trkpt lat="53.0081570000" lon="-4.0937230000"><ele>268</ele><time>2016-09-30T09:48:03Z</time></trkpt>
<trkpt lat="53.0081530000" lon="-4.0937220000"><ele>268</ele><time>2016-09-30T09:48:04Z</time></trkpt>
<trkpt lat="53.0081500000" lon="-4.0937210000"><ele>268</ele><time>2016-09-30T09:48:05Z</time></trkpt>
<trkpt lat="53.0081430000" lon="-4.0937170000"><ele>269</ele><time>2016-09-30T09:48:07Z</time></trkpt>
<trkpt lat="53.0081400000" lon="-4.0937160000"><ele>269</ele><time>2016-09-30T09:48:08Z</time></trkpt>
<trkpt lat="53.0081370000" lon="-4.0937130000"><ele>269</ele><time>2016-09-30T09:48:09Z</time></trkpt>
<trkpt lat="53.0081340000" lon="-4.0937110000"><ele>269</ele><time>2016-09-30T09:48:10Z</time></trkpt>
<trkpt lat="53.0081310000" lon="-4.0937080000"><ele>269</ele><time>2016-09-30T09:48:11Z</time></trkpt>
<trkpt lat="53.0081280000" lon="-4.0937060000"><ele>269</ele><time>2016-09-30T09:48:12Z</time></trkpt>
<trkpt lat="53.0081240000" lon="-4.0937030000"><ele>269</ele><time>2016-09-30T09:48:13Z</time></trkpt>
<trkpt lat="53.0081210000" lon="-4.0937010000"><ele>269</ele><time>2016-09-30T09:48:14Z</time></trkpt>
<trkpt lat="53.0081160000" lon="-4.0936990000"><ele>269</ele><time>2016-09-30T09:48:15Z</time></trkpt>
<trkpt lat="53.0081130000" lon="-4.0936970000"><ele>269</ele><time>2016-09-30T09:48:16Z</time></trkpt>
<trkpt lat="53.0081080000" lon="-4.0936950000"><ele>269</ele><time>2016-09-30T09:48:17Z</time></trkpt>
<trkpt lat="53.0081030000" lon="-4.0936930000"><ele>269</ele><time>2016-09-30T09:48:18Z</time></trkpt>
<trkpt lat="53.0080990000" lon="-4.0936920000"><ele>269</ele><time>2016-09-30T09:48:19Z</time></trkpt>
<trkpt lat="53.0080940000" lon="-4.0936900000"><ele>269</ele><time>2016-09-30T09:48:20Z</time></trkpt>
<trkpt lat="53.0080890000" lon="-4.0936880000"><ele>269</ele><time>2016-09-30T09:48:21Z</time></trkpt>
<trkpt lat="53.0080840000" lon="-4.0936860000"><ele>269</ele><time>2016-09-30T09:48:22Z</time></trkpt>
<trkpt lat="53.0080790000" lon="-4.0936840000"><ele>269</ele><time>2016-09-30T09:48:23Z</time></trkpt>
<trkpt lat="53.0080740000" lon="-4.0936810000"><ele>270</ele><time>2016-09-30T09:48:24Z</time></trkpt>
<trkpt lat="53.0080700000" lon="-4.0936790000"><ele>270</ele><time>2016-09-30T09:48:25Z</time></trkpt>
<trkpt lat="53.0080650000" lon="-4.0936760000"><ele>270</ele><time>2016-09-30T09:48:26Z</time></trkpt>
<trkpt lat="53.0080610000" lon="-4.0936740000"><ele>270</ele><time>2016-09-30T09:48:27Z</time></trkpt>
<trkpt lat="53.0080570000" lon="-4.0936710000"><ele>270</ele><time>2016-09-30T09:48:28Z</time></trkpt>
<trkpt lat="53.0080530000" lon="-4.0936690000"><ele>270</ele><time>2016-09-30T09:48:29Z</time></trkpt>
<trkpt lat="53.0080500000" lon="-4.0936660000"><ele>270</ele><time>2016-09-30T09:48:30Z</time></trkpt>
<trkpt lat="53.0080460000" lon="-4.0936640000"><ele>270</ele><time>2016-09-30T09:48:31Z</time></trkpt>
<trkpt lat="53.0080420000" lon="-4.0936610000"><ele>271</ele><time>2016-09-30T09:48:32Z</time></trkpt>
<trkpt lat="53.0080390000" lon="-4.0936590000"><ele>271</ele><time>2016-09-30T09:48:33Z</time></trkpt>
<trkpt lat="53.0080350000" lon="-4.0936560000"><ele>271</ele><time>2016-09-30T09:48:34Z</time></trkpt>
<trkpt lat="53.0080320000" lon="-4.0936540000"><ele>271</ele><time>2016-09-30T09:48:35Z</time></trkpt>
<trkpt lat="53.0080280000" lon="-4.0936510000"><ele>271</ele><time>2016-09-30T09:48:36Z</time></trkpt>
<trkpt lat="53.0080240000" lon="-4.0936480000"><ele>271</ele><time>2016-09-30T09:48:37Z</time></trkpt>
<trkpt lat="53.0080210000" lon="-4.0936450000"><ele>271</ele><time>2016-09-30T09:48:38Z</time></trkpt>
<trkpt lat="53.0080180000" lon="-4.0936420000"><ele>272</ele><time>2016-09-30T09:48:39Z</time></trkpt>
<trkpt lat="53.0080150000" lon="-4.0936390000"><ele>272</ele><time>2016-09-30T09:48:40Z</time></trkpt>
<trkpt lat="53.0080120000" lon="-4.0936370000"><ele>272</ele><time>2016-09-30T09:48:41Z</time></trkpt>
<trkpt lat="53.0080100000" lon="-4.0936350000"><ele>272</ele><time>2016-09-30T09:48:42Z</time></trkpt>
<trkpt lat="53.0080080000" lon="-4.0936330000"><ele>272</ele><time>2016-09-30T09:48:43Z</time></trkpt>
<trkpt lat="53.0080060000" lon="-4.0936310000"><ele>272</ele><time>2016-09-30T09:48:44Z</time></trkpt>
<trkpt lat="53.0080040000" lon="-4.0936290000"><ele>272</ele><time>2016-09-30T09:48:45Z</time></trkpt>
<trkpt lat="53.0080030000" lon="-4.0936270000"><ele>272</ele><time>2016-09-30T09:48:46Z</time></trkpt>
<trkpt lat="53.0080010000" lon="-4.0936250000"><ele>273</ele><time>2016-09-30T09:48:47Z</time></trkpt>
<trkpt lat="53.0080000000" lon="-4.0936230000"><ele>273</ele><time>2016-09-30T09:48:48Z</time></trkpt>
<trkpt lat="53.0079990000" lon="-4.0936210000"><ele>273</ele><time>2016-09-30T09:48:49Z</time></trkpt>
<trkpt lat="53.0079980000" lon="-4.0936190000"><ele>273</ele><time>2016-09-30T09:48:50Z</time></trkpt>
<trkpt lat="53.0079970000" lon="-4.0936170000"><ele>273</ele><time>2016-09-30T09:48:51Z</time></trkpt>
<trkpt lat="53.0079960000" lon="-4.0936160000"><ele>273</ele><time>2016-09-30T09:48:52Z</time></trkpt>
<trkpt lat="53.0079950000" lon="-4.0936140000"><ele>273</ele><time>2016-09-30T09:48:53Z</time></trkpt>
<trkpt lat="53.0079940000" lon="-4.0936130000"><ele>274</ele><time>2016-09-30T09:48:54Z</time></trkpt>
<trkpt lat="53.0079920000" lon="-4.0936120000"><ele>274</ele><time>2016-09-30T09:48:55Z</time></trkpt>
<trkpt lat="53.0079910000" lon="-4.0936110000"><ele>274</ele><time>2016-09-30T09:48:56Z</time></trkpt>
<trkpt lat="53.0079900000" lon="-4.0936100000"><ele>274</ele><time>2016-09-30T09:48:57Z</time></trkpt>
<trkpt lat="53.0079890000" lon="-4.0936090000"><ele>274</ele><time>2016-09-30T09:48:58Z</time></trkpt>
<trkpt lat="53.0079880000" lon="-4.0936090000"><ele>274</ele><time>2016-09-30T09:48:59Z</time></trkpt>
<trkpt lat="53.0079860000" lon="-4.0936080000"><ele>274</ele><time>2016-09-30T09:49:00Z</time></trkpt>
<trkpt lat="53.0079850000" lon="-4.0936080000"><ele>275</ele><time>2016-09-30T09:49:01Z</time></trkpt>
<trkpt lat="53.0079840000" lon="-4.0936070000"><ele>275</ele><time>2016-09-30T09:49:02Z</time></trkpt>
<trkpt lat="53.0079820000" lon="-4.0936070000"><ele>275</ele><time>2016-09-30T09:49:03Z</time></trkpt>
<trkpt lat="53.0079810000" lon="-4.0936060000"><ele>275</ele><time>2016-09-30T09:49:04Z</time></trkpt>
<trkpt lat="53.0079800000" lon="-4.0936060000"><ele>275</ele><time>2016-09-30T09:49:05Z</time></trkpt>
<trkpt lat="53.0079780000" lon="-4.0936050000"><ele>275</ele><time>2016-09-30T09:49:07Z</time></trkpt>
<trkpt lat="53.0079760000" lon="-4.0936050000"><ele>275</ele><time>2016-09-30T09:49:08Z</time></trkpt>
<trkpt lat="53.0079750000" lon="-4.0936050000"><ele>275</ele><time>2016-09-30T09:49:09Z</time></trkpt>
<trkpt lat="53.0079740000" lon="-4.0936050000"><ele>276</ele><time>2016-09-30T09:49:10Z</time></trkpt>
<trkpt lat="53.0079730000" lon="-4.0936050000"><ele>276</ele><time>2016-09-30T09:49:11Z</time></trkpt>
<trkpt lat="53.0079720000" lon="-4.0936050000"><ele>276</ele><time>2016-09-30T09:49:12Z</time></trkpt>
<trkpt lat="53.0079720000" lon="-4.0936050000"><ele>276</ele><time>2016-09-30T09:49:13Z</time></trkpt>
<trkpt lat="53.0079720000" lon="-4.0936050000"><ele>276</ele><time>2016-09-30T09:49:14Z</time></trkpt>
<trkpt lat="53.0079720000" lon="-4.0936040000"><ele>276</ele><time>2016-09-30T09:49:15Z</time></trkpt>
<trkpt lat="53.0079820000" lon="-4.0935810000"><ele>277</ele><time>2016-09-30T09:49:54Z</time></trkpt>
<trkpt lat="53.0079830000" lon="-4.0935820000"><ele>277</ele><time>2016-09-30T09:49:55Z</time></trkpt>
<trkpt lat="53.0079750000" lon="-4.0935910000"><ele>277</ele><time>2016-09-30T09:50:36Z</time></trkpt>
<trkpt lat="53.0079740000" lon="-4.0935920000"><ele>277</ele><time>2016-09-30T09:50:37Z</time></trkpt>
<trkpt lat="53.0079730000" lon="-4.0935930000"><ele>277</ele><time>2016-09-30T09:50:38Z</time></trkpt>
<trkpt lat="53.0079710000" lon="-4.0935950000"><ele>277</ele><time>2016-09-30T09:50:39Z</time></trkpt>
<trkpt lat="53.0079700000" lon="-4.0935970000"><ele>277</ele><time>2016-09-30T09:50:40Z</time></trkpt>
<trkpt lat="53.0079680000" lon="-4.0935990000"><ele>278</ele><time>2016-09-30T09:50:42Z</time></trkpt>
<trkpt lat="53.0079670000" lon="-4.0936000000"><ele>278</ele><time>2016-09-30T09:50:43Z</time></trkpt>
<trkpt lat="53.0079660000" lon="-4.0936020000"><ele>278</ele><time>2016-09-30T09:50:44Z</time></trkpt>
<trkpt lat="53.0079660000" lon="-4.0936030000"><ele>278</ele><time>2016-09-30T09:50:45Z</time></trkpt>
<trkpt lat="53.0079650000" lon="-4.0936040000"><ele>279</ele><time>2016-09-30T09:50:46Z</time></trkpt>
<trkpt lat="53.0079640000" lon="-4.0936060000"><ele>279</ele><time>2016-09-30T09:50:47Z</time></trkpt>
<trkpt lat="53.0079640000" lon="-4.0936070000"><ele>279</ele><time>2016-09-30T09:50:48Z</time></trkpt>
<trkpt lat="53.0079630000" lon="-4.0936080000"><ele>280</ele><time>2016-09-30T09:50:49Z</time></trkpt>
<trkpt lat="53.0079630000" lon="-4.0936090000"><ele>280</ele><time>2016-09-30T09:50:50Z</time></trkpt>
<trkpt lat="53.0079620000" lon="-4.0936100000"><ele>280</ele><time>2016-09-30T09:50:51Z</time></trkpt>
<trkpt lat="53.0079620000" lon="-4.0936110000"><ele>280</ele><time>2016-09-30T09:50:52Z</time></trkpt>
<trkpt lat="53.0079610000" lon="-4.0936120000"><ele>280</ele><time>2016-09-30T09:50:53Z</time></trkpt>
<trkpt lat="53.0079610000" lon="-4.0936130000"><ele>280</ele><time>2016-09-30T09:50:54Z</time></trkpt>
<trkpt lat="53.0079600000" lon="-4.0936140000"><ele>280</ele><time>2016-09-30T09:50:55Z</time></trkpt>
<trkpt lat="53.0079600000" lon="-4.0936150000"><ele>280</ele><time>2016-09-30T09:50:56Z</time></trkpt>
<trkpt lat="53.0079590000" lon="-4.0936160000"><ele>281</ele><time>2016-09-30T09:50:57Z</time></trkpt>
<trkpt lat="53.0079590000" lon="-4.0936170000"><ele>281</ele><time>2016-09-30T09:50:58Z</time></trkpt>
<trkpt lat="53.0079580000" lon="-4.0936180000"><ele>281</ele><time>2016-09-30T09:50:59Z</time></trkpt>
<trkpt lat="53.0079570000" lon="-4.0936180000"><ele>281</ele><time>2016-09-30T09:51:00Z</time></trkpt>
<trkpt lat="53.0079560000" lon="-4.0936190000"><ele>280</ele><time>2016-09-30T09:51:01Z</time></trkpt>
<trkpt lat="53.0079550000" lon="-4.0936200000"><ele>280</ele><time>2016-09-30T09:51:02Z</time></trkpt>
<trkpt lat="53.0079540000" lon="-4.0936220000"><ele>280</ele><time>2016-09-30T09:51:03Z</time></trkpt>
<trkpt lat="53.0079520000" lon="-4.0936230000"><ele>280</ele><time>2016-09-30T09:51:04Z</time></trkpt>
<trkpt lat="53.0079500000" lon="-4.0936250000"><ele>280</ele><time>2016-09-30T09:51:05Z</time></trkpt>
<trkpt lat="53.0079460000" lon="-4.0936280000"><ele>280</ele><time>2016-09-30T09:51:07Z</time></trkpt>
<trkpt lat="53.0079430000" lon="-4.0936290000"><ele>280</ele><time>2016-09-30T09:51:08Z</time></trkpt>
<trkpt lat="53.0079400000" lon="-4.0936300000"><ele>280</ele><time>2016-09-30T09:51:09Z</time></trkpt>
<trkpt lat="53.0079360000" lon="-4.0936310000"><ele>280</ele><time>2016-09-30T09:51:10Z</time></trkpt>
<trkpt lat="53.0079320000" lon="-4.0936310000"><ele>279</ele><time>2016-09-30T09:51:11Z</time></trkpt>
<trkpt lat="53.0079280000" lon="-4.0936310000"><ele>279</ele><time>2016-09-30T09:51:12Z</time></trkpt>
<trkpt lat="53.0079230000" lon="-4.0936320000"><ele>279</ele><time>2016-09-30T09:51:13Z</time></trkpt>
<trkpt lat="53.0079170000" lon="-4.0936330000"><ele>279</ele><time>2016-09-30T09:51:14Z</time></trkpt>
<trkpt lat="53.0079120000" lon="-4.0936330000"><ele>279</ele><time>2016-09-30T09:51:15Z</time></trkpt>
<trkpt lat="53.0079060000" lon="-4.0936340000"><ele>279</ele><time>2016-09-30T09:51:16Z</time></trkpt>
<trkpt lat="53.0079000000" lon="-4.0936350000"><ele>279</ele><time>2016-09-30T09:51:17Z</time></trkpt>
<trkpt lat="53.0078940000" lon="-4.0936360000"><ele>279</ele><time>2016-09-30T09:51:18Z</time></trkpt>
<trkpt lat="53.0078870000" lon="-4.0936370000"><ele>279</ele><time>2016-09-30T09:51:19Z</time></trkpt>
<trkpt lat="53.0078810000" lon="-4.0936380000"><ele>278</ele><time>2016-09-30T09:51:20Z</time></trkpt>
<trkpt lat="53.0078740000" lon="-4.0936390000"><ele>278</ele><time>2016-09-30T09:51:21Z</time></trkpt>
<trkpt lat="53.0078670000" lon="-4.0936400000"><ele>278</ele><time>2016-09-30T09:51:22Z</time></trkpt>
<trkpt lat="53.0078600000" lon="-4.0936400000"><ele>278</ele><time>2016-09-30T09:51:23Z</time></trkpt>
<trkpt lat="53.0078530000" lon="-4.0936410000"><ele>278</ele><time>2016-09-30T09:51:24Z</time></trkpt>
<trkpt lat="53.0078470000" lon="-4.0936410000"><ele>278</ele><time>2016-09-30T09:51:25Z</time></trkpt>
<trkpt lat="53.0078400000" lon="-4.0936410000"><ele>278</ele><time>2016-09-30T09:51:26Z</time></trkpt>
<trkpt lat="53.0078340000" lon="-4.0936410000"><ele>278</ele><time>2016-09-30T09:51:27Z</time></trkpt>
<trkpt lat="53.0078280000" lon="-4.0936400000"><ele>278</ele><time>2016-09-30T09:51:28Z</time></trkpt>
<trkpt lat="53.0078220000" lon="-4.0936380000"><ele>278</ele><time>2016-09-30T09:51:29Z</time></trkpt>
<trkpt lat="53.0078160000" lon="-4.0936370000"><ele>277</ele><time>2016-09-30T09:51:30Z</time></trkpt>
<trkpt lat="53.0078100000" lon="-4.0936350000"><ele>277</ele><time>2016-09-30T09:51:31Z</time></trkpt>
<trkpt lat="53.0078050000" lon="-4.0936330000"><ele>277</ele><time>2016-09-30T09:51:32Z</time></trkpt>
<trkpt lat="53.0078000000" lon="-4.0936310000"><ele>277</ele><time>2016-09-30T09:51:33Z</time></trkpt>
<trkpt lat="53.0077950000" lon="-4.0936290000"><ele>277</ele><time>2016-09-30T09:51:34Z</time></trkpt>
<trkpt lat="53.0077900000" lon="-4.0936260000"><ele>277</ele><time>2016-09-30T09:51:35Z</time></trkpt>
<trkpt lat="53.0077860000" lon="-4.0936240000"><ele>277</ele><time>2016-09-30T09:51:36Z</time></trkpt>
<trkpt lat="53.0077810000" lon="-4.0936210000"><ele>277</ele><time>2016-09-30T09:51:37Z</time></trkpt>
<trkpt lat="53.0077770000" lon="-4.0936180000"><ele>277</ele><time>2016-09-30T09:51:38Z</time></trkpt>
<trkpt lat="53.0077730000" lon="-4.0936150000"><ele>277</ele><time>2016-09-30T09:51:39Z</time></trkpt>
<trkpt lat="53.0077680000" lon="-4.0936120000"><ele>277</ele><time>2016-09-30T09:51:40Z</time></trkpt>
<trkpt lat="53.0077640000" lon="-4.0936090000"><ele>277</ele><time>2016-09-30T09:51:41Z</time></trkpt>
<trkpt lat="53.0077600000" lon="-4.0936060000"><ele>277</ele><time>2016-09-30T09:51:42Z</time></trkpt>
<trkpt lat="53.0077550000" lon="-4.0936030000"><ele>277</ele><time>2016-09-30T09:51:43Z</time></trkpt>
<trkpt lat="53.0077510000" lon="-4.0936000000"><ele>277</ele><time>2016-09-30T09:51:44Z</time></trkpt>
<trkpt lat="53.0077460000" lon="-4.0935970000"><ele>277</ele><time>2016-09-30T09:51:45Z</time></trkpt>
<trkpt lat="53.0077420000" lon="-4.0935940000"><ele>277</ele><time>2016-09-30T09:51:46Z</time></trkpt>
<trkpt lat="53.0077380000" lon="-4.0935920000"><ele>278</ele><time>2016-09-30T09:51:47Z</time></trkpt>
<trkpt lat="53.0077330000" lon="-4.0935890000"><ele>278</ele><time>2016-09-30T09:51:48Z</time></trkpt>
<trkpt lat="53.0077300000" lon="-4.0935870000"><ele>278</ele><time>2016-09-30T09:51:49Z</time></trkpt>
<trkpt lat="53.0077260000" lon="-4.0935840000"><ele>278</ele><time>2016-09-30T09:51:50Z</time></trkpt>
<trkpt lat="53.0077220000" lon="-4.0935810000"><ele>278</ele><time>2016-09-30T09:51:51Z</time></trkpt>
<trkpt lat="53.0077190000" lon="-4.0935790000"><ele>278</ele><time>2016-09-30T09:51:52Z</time></trkpt>
<trkpt lat="53.0077150000" lon="-4.0935770000"><ele>278</ele><time>2016-09-30T09:51:53Z</time></trkpt>
<trkpt lat="53.0077110000" lon="-4.0935750000"><ele>278</ele><time>2016-09-30T09:51:54Z</time></trkpt>
<trkpt lat="53.0077080000" lon="-4.0935730000"><ele>278</ele><time>2016-09-30T09:51:55Z</time></trkpt>
<trkpt lat="53.0077040000" lon="-4.0935710000"><ele>278</ele><time>2016-09-30T09:51:56Z</time></trkpt>
<trkpt lat="53.0077000000" lon="-4.0935700000"><ele>279</ele><time>2016-09-30T09:51:57Z</time></trkpt>
<trkpt lat="53.0076970000" lon="-4.0935680000"><ele>279</ele><time>2016-09-30T09:51:58Z</time></trkpt>
<trkpt lat="53.0076930000" lon="-4.0935660000"><ele>279</ele><time>2016-09-30T09:51:59Z</time></trkpt>
<trkpt lat="53.0076900000" lon="-4.0935640000"><ele>279</ele><time>2016-09-30T09:52:00Z</time></trkpt>
<trkpt lat="53.0076860000" lon="-4.0935620000"><ele>279</ele><time>2016-09-30T09:52:01Z</time></trkpt>
<trkpt lat="53.0076830000" lon="-4.0935590000"><ele>279</ele><time>2016-09-30T09:52:02Z</time></trkpt>
<trkpt lat="53.0076790000" lon="-4.0935570000"><ele>279</ele><time>2016-09-30T09:52:03Z</time></trkpt>
<trkpt lat="53.0076760000" lon="-4.0935540000"><ele>279</ele><time>2016-09-30T09:52:04Z</time></trkpt>
<trkpt lat="53.0076720000" lon="-4.0935510000"><ele>279</ele><time>2016-09-30T09:52:05Z</time></trkpt>
<trkpt lat="53.0076650000" lon="-4.0935450000"><ele>280</ele><time>2016-09-30T09:52:07Z</time></trkpt>
<trkpt lat="53.0076620000" lon="-4.0935420000"><ele>280</ele><time>2016-09-30T09:52:08Z</time></trkpt>
<trkpt lat="53.0076590000" lon="-4.0935390000"><ele>280</ele><time>2016-09-30T09:52:09Z</time></trkpt>
<trkpt lat="53.0076550000" lon="-4.0935360000"><ele>280</ele><time>2016-09-30T09:52:10Z</time></trkpt>
<trkpt lat="53.0076510000" lon="-4.0935330000"><ele>280</ele><time>2016-09-30T09:52:11Z</time></trkpt>
<trkpt lat="53.0076460000" lon="-4.0935310000"><ele>280</ele><time>2016-09-30T09:52:12Z</time></trkpt>
<trkpt lat="53.0076420000" lon="-4.0935290000"><ele>280</ele><time>2016-09-30T09:52:13Z</time></trkpt>
<trkpt lat="53.0076370000" lon="-4.0935280000"><ele>280</ele><time>2016-09-30T09:52:14Z</time></trkpt>
<trkpt lat="53.0076320000" lon="-4.0935270000"><ele>281</ele><time>2016-09-30T09:52:15Z</time></trkpt>
<trkpt lat="53.0076270000" lon="-4.0935270000"><ele>281</ele><time>2016-09-30T09:52:16Z</time></trkpt>
<trkpt lat="53.0076220000" lon="-4.0935260000"><ele>281</ele><time>2016-09-30T09:52:17Z</time></trkpt>
<trkpt lat="53.0076160000" lon="-4.0935260000"><ele>281</ele><time>2016-09-30T09:52:18Z</time></trkpt>
<trkpt lat="53.0076110000" lon="-4.0935260000"><ele>281</ele><time>2016-09-30T09:52:19Z</time></trkpt>
<trkpt lat="53.0076060000" lon="-4.0935260000"><ele>281</ele><time>2016-09-30T09:52:20Z</time></trkpt>
<trkpt lat="53.0076010000" lon="-4.0935250000"><ele>282</ele><time>2016-09-30T09:52:21Z</time></trkpt>
<trkpt lat="53.0075960000" lon="-4.0935240000"><ele>282</ele><time>2016-09-30T09:52:22Z</time></trkpt>
<trkpt lat="53.0075910000" lon="-4.0935230000"><ele>282</ele><time>2016-09-30T09:52:23Z</time></trkpt>
<trkpt lat="53.0075860000" lon="-4.0935220000"><ele>282</ele><time>2016-09-30T09:52:24Z</time></trkpt>
<trkpt lat="53.0075800000" lon="-4.0935220000"><ele>282</ele><time>2016-09-30T09:52:25Z</time></trkpt>
<trkpt lat="53.0075750000" lon="-4.0935210000"><ele>282</ele><time>2016-09-30T09:52:26Z</time></trkpt>
<trkpt lat="53.0075700000" lon="-4.0935210000"><ele>282</ele><time>2016-09-30T09:52:27Z</time></trkpt>
<trkpt lat="53.0075650000" lon="-4.0935210000"><ele>282</ele><time>2016-09-30T09:52:28Z</time></trkpt>
<trkpt lat="53.0075600000" lon="-4.0935210000"><ele>282</ele><time>2016-09-30T09:52:29Z</time></trkpt>
<trkpt lat="53.0075540000" lon="-4.0935220000"><ele>282</ele><time>2016-09-30T09:52:30Z</time></trkpt>
<trkpt lat="53.0075500000" lon="-4.0935220000"><ele>282</ele><time>2016-09-30T09:52:31Z</time></trkpt>
<trkpt lat="53.0075450000" lon="-4.0935210000"><ele>282</ele><time>2016-09-30T09:52:32Z</time></trkpt>
<trkpt lat="53.0075410000" lon="-4.0935210000"><ele>282</ele><time>2016-09-30T09:52:33Z</time></trkpt>
<trkpt lat="53.0075370000" lon="-4.0935200000"><ele>282</ele><time>2016-09-30T09:52:34Z</time></trkpt>
<trkpt lat="53.0075320000" lon="-4.0935190000"><ele>282</ele><time>2016-09-30T09:52:35Z</time></trkpt>
<trkpt lat="53.0075280000" lon="-4.0935180000"><ele>282</ele><time>2016-09-30T09:52:36Z</time></trkpt>
<trkpt lat="53.0075230000" lon="-4.0935170000"><ele>283</ele><time>2016-09-30T09:52:37Z</time></trkpt>
<trkpt lat="53.0075180000" lon="-4.0935160000"><ele>283</ele><time>2016-09-30T09:52:38Z</time></trkpt>
<trkpt lat="53.0075120000" lon="-4.0935150000"><ele>283</ele><time>2016-09-30T09:52:39Z</time></trkpt>
<trkpt lat="53.0075070000" lon="-4.0935140000"><ele>283</ele><time>2016-09-30T09:52:40Z</time></trkpt>
<trkpt lat="53.0075010000" lon="-4.0935120000"><ele>283</ele><time>2016-09-30T09:52:41Z</time></trkpt>
<trkpt lat="53.0074950000" lon="-4.0935110000"><ele>283</ele><time>2016-09-30T09:52:42Z</time></trkpt>
<trkpt lat="53.0074880000" lon="-4.0935100000"><ele>283</ele><time>2016-09-30T09:52:43Z</time></trkpt>
<trkpt lat="53.0074820000" lon="-4.0935080000"><ele>283</ele><time>2016-09-30T09:52:44Z</time></trkpt>
<trkpt lat="53.0074760000" lon="-4.0935070000"><ele>283</ele><time>2016-09-30T09:52:45Z</time></trkpt>
<trkpt lat="53.0074700000" lon="-4.0935050000"><ele>283</ele><time>2016-09-30T09:52:46Z</time></trkpt>
<trkpt lat="53.0074640000" lon="-4.0935030000"><ele>283</ele><time>2016-09-30T09:52:47Z</time></trkpt>
<trkpt lat="53.0074580000" lon="-4.0935010000"><ele>283</ele><time>2016-09-30T09:52:48Z</time></trkpt>
<trkpt lat="53.0074530000" lon="-4.0934990000"><ele>283</ele><time>2016-09-30T09:52:49Z</time></trkpt>
<trkpt lat="53.0074470000" lon="-4.0934970000"><ele>283</ele><time>2016-09-30T09:52:50Z</time></trkpt>
<trkpt lat="53.0074410000" lon="-4.0934950000"><ele>283</ele><time>2016-09-30T09:52:51Z</time></trkpt>
<trkpt lat="53.0074350000" lon="-4.0934930000"><ele>283</ele><time>2016-09-30T09:52:52Z</time></trkpt>
<trkpt lat="53.0074290000" lon="-4.0934920000"><ele>283</ele><time>2016-09-30T09:52:53Z</time></trkpt>
<trkpt lat="53.0074220000" lon="-4.0934900000"><ele>283</ele><time>2016-09-30T09:52:54Z</time></trkpt>
<trkpt lat="53.0074160000" lon="-4.0934890000"><ele>283</ele><time>2016-09-30T09:52:55Z</time></trkpt>
<trkpt lat="53.0074090000" lon="-4.0934880000"><ele>283</ele><time>2016-09-30T09:52:56Z</time></trkpt>
<trkpt lat="53.0074010000" lon="-4.0934870000"><ele>283</ele><time>2016-09-30T09:52:57Z</time></trkpt>
<trkpt lat="53.0073940000" lon="-4.0934860000"><ele>283</ele><time>2016-09-30T09:52:58Z</time></trkpt>
<trkpt lat="53.0073870000" lon="-4.0934850000"><ele>283</ele><time>2016-09-30T09:52:59Z</time></trkpt>
<trkpt lat="53.0073790000" lon="-4.0934840000"><ele>283</ele><time>2016-09-30T09:53:00Z</time></trkpt>
<trkpt lat="53.0073720000" lon="-4.0934830000"><ele>283</ele><time>2016-09-30T09:53:01Z</time></trkpt>
<trkpt lat="53.0073640000" lon="-4.0934820000"><ele>283</ele><time>2016-09-30T09:53:02Z</time></trkpt>
<trkpt lat="53.0073560000" lon="-4.0934810000"><ele>284</ele><time>2016-09-30T09:53:03Z</time></trkpt>
<trkpt lat="53.0073490000" lon="-4.0934800000"><ele>284</ele><time>2016-09-30T09:53:04Z</time></trkpt>
<trkpt lat="53.0073410000" lon="-4.0934800000"><ele>284</ele><time>2016-09-30T09:53:05Z</time></trkpt>
<trkpt lat="53.0073280000" lon="-4.0934790000"><ele>284</ele><time>2016-09-30T09:53:07Z</time></trkpt>
<trkpt lat="53.0073220000" lon="-4.0934790000"><ele>284</ele><time>2016-09-30T09:53:08Z</time></trkpt>
<trkpt lat="53.0073160000" lon="-4.0934790000"><ele>284</ele><time>2016-09-30T09:53:09Z</time></trkpt>
<trkpt lat="53.0073100000" lon="-4.0934790000"><ele>284</ele><time>2016-09-30T09:53:10Z</time></trkpt>
<trkpt lat="53.0073040000" lon="-4.0934790000"><ele>284</ele><time>2016-09-30T09:53:11Z</time></trkpt>
<trkpt lat="53.0072990000" lon="-4.0934790000"><ele>284</ele><time>2016-09-30T09:53:12Z</time></trkpt>
<trkpt lat="53.0072930000" lon="-4.0934790000"><ele>284</ele><time>2016-09-30T09:53:13Z</time></trkpt>
<trkpt lat="53.0072880000" lon="-4.0934790000"><ele>284</ele><time>2016-09-30T09:53:14Z</time></trkpt>
<trkpt lat="53.0072830000" lon="-4.0934790000"><ele>284</ele><time>2016-09-30T09:53:15Z</time></trkpt>
<trkpt lat="53.0072780000" lon="-4.0934790000"><ele>285</ele><time>2016-09-30T09:53:16Z</time></trkpt>
<trkpt lat="53.0072730000" lon="-4.0934790000"><ele>285</ele><time>2016-09-30T09:53:17Z</time></trkpt>
<trkpt lat="53.0072690000" lon="-4.0934790000"><ele>285</ele><time>2016-09-30T09:53:18Z</time></trkpt>
<trkpt lat="53.0072640000" lon="-4.0934790000"><ele>285</ele><time>2016-09-30T09:53:19Z</time></trkpt>
<trkpt lat="53.0072600000" lon="-4.0934790000"><ele>285</ele><time>2016-09-30T09:53:20Z</time></trkpt>
<trkpt lat="53.0072560000" lon="-4.0934790000"><ele>285</ele><time>2016-09-30T09:53:21Z</time></trkpt>
<trkpt lat="53.0072510000" lon="-4.0934790000"><ele>285</ele><time>2016-09-30T09:53:22Z</time></trkpt>
<trkpt lat="53.0072460000" lon="-4.0934800000"><ele>285</ele><time>2016-09-30T09:53:23Z</time></trkpt>
<trkpt lat="53.0072410000" lon="-4.0934800000"><ele>285</ele><time>2016-09-30T09:53:24Z</time></trkpt>
<trkpt lat="53.0072370000" lon="-4.0934800000"><ele>285</ele><time>2016-09-30T09:53:25Z</time></trkpt>
<trkpt lat="53.0072320000" lon="-4.0934800000"><ele>285</ele><time>2016-09-30T09:53:26Z</time></trkpt>
<trkpt lat="53.0072280000" lon="-4.0934810000"><ele>285</ele><time>2016-09-30T09:53:27Z</time></trkpt>
<trkpt lat="53.0072240000" lon="-4.0934810000"><ele>286</ele><time>2016-09-30T09:53:28Z</time></trkpt>
<trkpt lat="53.0072200000" lon="-4.0934810000"><ele>286</ele><time>2016-09-30T09:53:29Z</time></trkpt>
<trkpt lat="53.0072160000" lon="-4.0934810000"><ele>286</ele><time>2016-09-30T09:53:30Z</time></trkpt>
<trkpt lat="53.0072130000" lon="-4.0934820000"><ele>286</ele><time>2016-09-30T09:53:31Z</time></trkpt>
<trkpt lat="53.0072090000" lon="-4.0934820000"><ele>286</ele><time>2016-09-30T09:53:32Z</time></trkpt>
<trkpt lat="53.0072050000" lon="-4.0934830000"><ele>286</ele><time>2016-09-30T09:53:33Z</time></trkpt>
<trkpt lat="53.0072010000" lon="-4.0934830000"><ele>287</ele><time>2016-09-30T09:53:34Z</time></trkpt>
<trkpt lat="53.0071960000" lon="-4.0934850000"><ele>287</ele><time>2016-09-30T09:53:35Z</time></trkpt>
<trkpt lat="53.0071920000" lon="-4.0934850000"><ele>287</ele><time>2016-09-30T09:53:36Z</time></trkpt>
<trkpt lat="53.0071880000" lon="-4.0934860000"><ele>287</ele><time>2016-09-30T09:53:37Z</time></trkpt>
<trkpt lat="53.0071840000" lon="-4.0934860000"><ele>287</ele><time>2016-09-30T09:53:38Z</time></trkpt>
<trkpt lat="53.0071800000" lon="-4.0934850000"><ele>288</ele><time>2016-09-30T09:53:39Z</time></trkpt>
<trkpt lat="53.0071760000" lon="-4.0934840000"><ele>288</ele><time>2016-09-30T09:53:40Z</time></trkpt>
<trkpt lat="53.0071720000" lon="-4.0934830000"><ele>288</ele><time>2016-09-30T09:53:41Z</time></trkpt>
<trkpt lat="53.0071680000" lon="-4.0934820000"><ele>288</ele><time>2016-09-30T09:53:42Z</time></trkpt>
<trkpt lat="53.0071640000" lon="-4.0934810000"><ele>288</ele><time>2016-09-30T09:53:43Z</time></trkpt>
<trkpt lat="53.0071600000" lon="-4.0934800000"><ele>288</ele><time>2016-09-30T09:53:44Z</time></trkpt>
<trkpt lat="53.0071560000" lon="-4.0934780000"><ele>289</ele><time>2016-09-30T09:53:45Z</time></trkpt>
<trkpt lat="53.0071510000" lon="-4.0934770000"><ele>289</ele><time>2016-09-30T09:53:46Z</time></trkpt>
<trkpt lat="53.0071470000" lon="-4.0934760000"><ele>289</ele><time>2016-09-30T09:53:47Z</time></trkpt>
<trkpt lat="53.0071430000" lon="-4.0934730000"><ele>289</ele><time>2016-09-30T09:53:48Z</time></trkpt>
<trkpt lat="53.0071390000" lon="-4.0934710000"><ele>289</ele><time>2016-09-30T09:53:49Z</time></trkpt>
<trkpt lat="53.0071350000" lon="-4.0934670000"><ele>289</ele><time>2016-09-30T09:53:50Z</time></trkpt>
<trkpt lat="53.0071310000" lon="-4.0934630000"><ele>289</ele><time>2016-09-30T09:53:51Z</time></trkpt>
<trkpt lat="53.0071270000" lon="-4.0934590000"><ele>289</ele><time>2016-09-30T09:53:52Z</time></trkpt>
<trkpt lat="53.0071230000" lon="-4.0934550000"><ele>289</ele><time>2016-09-30T09:53:53Z</time></trkpt>
<trkpt lat="53.0071180000" lon="-4.0934500000"><ele>290</ele><time>2016-09-30T09:53:54Z</time></trkpt>
<trkpt lat="53.0071130000" lon="-4.0934450000"><ele>290</ele><time>2016-09-30T09:53:55Z</time></trkpt>
<trkpt lat="53.0071080000" lon="-4.0934400000"><ele>290</ele><time>2016-09-30T09:53:56Z</time></trkpt>
<trkpt lat="53.0071030000" lon="-4.0934350000"><ele>290</ele><time>2016-09-30T09:53:57Z</time></trkpt>
<trkpt lat="53.0070970000" lon="-4.0934310000"><ele>290</ele><time>2016-09-30T09:53:58Z</time></trkpt>
<trkpt lat="53.0070910000" lon="-4.0934260000"><ele>290</ele><time>2016-09-30T09:53:59Z</time></trkpt>
<trkpt lat="53.0070850000" lon="-4.0934220000"><ele>290</ele><time>2016-09-30T09:54:00Z</time></trkpt>
<trkpt lat="53.0070790000" lon="-4.0934170000"><ele>290</ele><time>2016-09-30T09:54:01Z</time></trkpt>
<trkpt lat="53.0070730000" lon="-4.0934130000"><ele>290</ele><time>2016-09-30T09:54:02Z</time></trkpt>
<trkpt lat="53.0070670000" lon="-4.0934090000"><ele>290</ele><time>2016-09-30T09:54:03Z</time></trkpt>
<trkpt lat="53.0070620000" lon="-4.0934050000"><ele>290</ele><time>2016-09-30T09:54:04Z</time></trkpt>
<trkpt lat="53.0070570000" lon="-4.0934020000"><ele>290</ele><time>2016-09-30T09:54:05Z</time></trkpt>
<trkpt lat="53.0070450000" lon="-4.0933950000"><ele>290</ele><time>2016-09-30T09:54:07Z</time></trkpt>
<trkpt lat="53.0070390000" lon="-4.0933920000"><ele>290</ele><time>2016-09-30T09:54:08Z</time></trkpt>
<trkpt lat="53.0070340000" lon="-4.0933900000"><ele>291</ele><time>2016-09-30T09:54:09Z</time></trkpt>
<trkpt lat="53.0070280000" lon="-4.0933870000"><ele>291</ele><time>2016-09-30T09:54:10Z</time></trkpt>
<trkpt lat="53.0070230000" lon="-4.0933850000"><ele>291</ele><time>2016-09-30T09:54:11Z</time></trkpt>
<trkpt lat="53.0070170000" lon="-4.0933830000"><ele>291</ele><time>2016-09-30T09:54:12Z</time></trkpt>
<trkpt lat="53.0070120000" lon="-4.0933820000"><ele>291</ele><time>2016-09-30T09:54:13Z</time></trkpt>
<trkpt lat="53.0070060000" lon="-4.0933800000"><ele>291</ele><time>2016-09-30T09:54:14Z</time></trkpt>
<trkpt lat="53.0070000000" lon="-4.0933790000"><ele>292</ele><time>2016-09-30T09:54:15Z</time></trkpt>
<trkpt lat="53.0069950000" lon="-4.0933780000"><ele>292</ele><time>2016-09-30T09:54:16Z</time></trkpt>
<trkpt lat="53.0069890000" lon="-4.0933770000"><ele>292</ele><time>2016-09-30T09:54:17Z</time></trkpt>
<trkpt lat="53.0069830000" lon="-4.0933770000"><ele>292</ele><time>2016-09-30T09:54:18Z</time></trkpt>
<trkpt lat="53.0069780000" lon="-4.0933760000"><ele>292</ele><time>2016-09-30T09:54:19Z</time></trkpt>
<trkpt lat="53.0069720000" lon="-4.0933750000"><ele>292</ele><time>2016-09-30T09:54:20Z</time></trkpt>
<trkpt lat="53.0069660000" lon="-4.0933740000"><ele>293</ele><time>2016-09-30T09:54:21Z</time></trkpt>
<trkpt lat="53.0069610000" lon="-4.0933720000"><ele>293</ele><time>2016-09-30T09:54:22Z</time></trkpt>
<trkpt lat="53.0069550000" lon="-4.0933710000"><ele>293</ele><time>2016-09-30T09:54:23Z</time></trkpt>
<trkpt lat="53.0069490000" lon="-4.0933700000"><ele>293</ele><time>2016-09-30T09:54:24Z</time></trkpt>
<trkpt lat="53.0069430000" lon="-4.0933690000"><ele>293</ele><time>2016-09-30T09:54:25Z</time></trkpt>
<trkpt lat="53.0069370000" lon="-4.0933680000"><ele>293</ele><time>2016-09-30T09:54:26Z</time></trkpt>
<trkpt lat="53.0069330000" lon="-4.0933680000"><ele>294</ele><time>2016-09-30T09:54:27Z</time></trkpt>
<trkpt lat="53.0069270000" lon="-4.0933680000"><ele>294</ele><time>2016-09-30T09:54:28Z</time></trkpt>
<trkpt lat="53.0069210000" lon="-4.0933670000"><ele>294</ele><time>2016-09-30T09:54:29Z</time></trkpt>
<trkpt lat="53.0069150000" lon="-4.0933670000"><ele>294</ele><time>2016-09-30T09:54:30Z</time></trkpt>
<trkpt lat="53.0069090000" lon="-4.0933670000"><ele>294</ele><time>2016-09-30T09:54:31Z</time></trkpt>
<trkpt lat="53.0069040000" lon="-4.0933660000"><ele>295</ele><time>2016-09-30T09:54:32Z</time></trkpt>
<trkpt lat="53.0068990000" lon="-4.0933660000"><ele>295</ele><time>2016-09-30T09:54:33Z</time></trkpt>
<trkpt lat="53.0068930000" lon="-4.0933670000"><ele>295</ele><time>2016-09-30T09:54:34Z</time></trkpt>
<trkpt lat="53.0068870000" lon="-4.0933680000"><ele>295</ele><time>2016-09-30T09:54:35Z</time></trkpt>
<trkpt lat="53.0068800000" lon="-4.0933690000"><ele>295</ele><time>2016-09-30T09:54:36Z</time></trkpt>
<trkpt lat="53.0068740000" lon="-4.0933700000"><ele>295</ele><time>2016-09-30T09:54:37Z</time></trkpt>
<trkpt lat="53.0068680000" lon="-4.0933710000"><ele>295</ele><time>2016-09-30T09:54:38Z</time></trkpt>
<trkpt lat="53.0068620000" lon="-4.0933720000"><ele>295</ele><time>2016-09-30T09:54:39Z</time></trkpt>
<trkpt lat="53.0068560000" lon="-4.0933740000"><ele>295</ele><time>2016-09-30T09:54:40Z</time></trkpt>
<trkpt lat="53.0068500000" lon="-4.0933760000"><ele>295</ele><time>2016-09-30T09:54:41Z</time></trkpt>
<trkpt lat="53.0068440000" lon="-4.0933770000"><ele>295</ele><time>2016-09-30T09:54:42Z</time></trkpt>
<trkpt lat="53.0068370000" lon="-4.0933790000"><ele>295</ele><time>2016-09-30T09:54:43Z</time></trkpt>
<trkpt lat="53.0068310000" lon="-4.0933790000"><ele>296</ele><time>2016-09-30T09:54:44Z</time></trkpt>
<trkpt lat="53.0068250000" lon="-4.0933800000"><ele>296</ele><time>2016-09-30T09:54:45Z</time></trkpt>
<trkpt lat="53.0068190000" lon="-4.0933790000"><ele>296</ele><time>2016-09-30T09:54:46Z</time></trkpt>
<trkpt lat="53.0068130000" lon="-4.0933780000"><ele>296</ele><time>2016-09-30T09:54:47Z</time></trkpt>
<trkpt lat="53.0068070000" lon="-4.0933760000"><ele>296</ele><time>2016-09-30T09:54:48Z</time></trkpt>
<trkpt lat="53.0068010000" lon="-4.0933750000"><ele>296</ele><time>2016-09-30T09:54:49Z</time></trkpt>
<trkpt lat="53.0067950000" lon="-4.0933740000"><ele>297</ele><time>2016-09-30T09:54:50Z</time></trkpt>
<trkpt lat="53.0067890000" lon="-4.0933730000"><ele>297</ele><time>2016-09-30T09:54:51Z</time></trkpt>
<trkpt lat="53.0067830000" lon="-4.0933730000"><ele>297</ele><time>2016-09-30T09:54:52Z</time></trkpt>
<trkpt lat="53.0067760000" lon="-4.0933720000"><ele>297</ele><time>2016-09-30T09:54:53Z</time></trkpt>
<trkpt lat="53.0067700000" lon="-4.0933720000"><ele>297</ele><time>2016-09-30T09:54:54Z</time></trkpt>
<trkpt lat="53.0067630000" lon="-4.0933710000"><ele>297</ele><time>2016-09-30T09:54:55Z</time></trkpt>
<trkpt lat="53.0067560000" lon="-4.0933710000"><ele>298</ele><time>2016-09-30T09:54:56Z</time></trkpt>
<trkpt lat="53.0067500000" lon="-4.0933700000"><ele>298</ele><time>2016-09-30T09:54:57Z</time></trkpt>
<trkpt lat="53.0067430000" lon="-4.0933680000"><ele>298</ele><time>2016-09-30T09:54:58Z</time></trkpt>
<trkpt lat="53.0067370000" lon="-4.0933670000"><ele>298</ele><time>2016-09-30T09:54:59Z</time></trkpt>
<trkpt lat="53.0067320000" lon="-4.0933650000"><ele>299</ele><time>2016-09-30T09:55:00Z</time></trkpt>
<trkpt lat="53.0067270000" lon="-4.0933630000"><ele>299</ele><time>2016-09-30T09:55:01Z</time></trkpt>
<trkpt lat="53.0067220000" lon="-4.0933610000"><ele>299</ele><time>2016-09-30T09:55:02Z</time></trkpt>
<trkpt lat="53.0067170000" lon="-4.0933600000"><ele>299</ele><time>2016-09-30T09:55:03Z</time></trkpt>
<trkpt lat="53.0067120000" lon="-4.0933580000"><ele>300</ele><time>2016-09-30T09:55:04Z</time></trkpt>
<trkpt lat="53.0067080000" lon="-4.0933560000"><ele>300</ele><time>2016-09-30T09:55:05Z</time></trkpt>
<trkpt lat="53.0067000000" lon="-4.0933530000"><ele>300</ele><time>2016-09-30T09:55:07Z</time></trkpt>
<trkpt lat="53.0066960000" lon="-4.0933520000"><ele>300</ele><time>2016-09-30T09:55:08Z</time></trkpt>
<trkpt lat="53.0066930000" lon="-4.0933510000"><ele>300</ele><time>2016-09-30T09:55:09Z</time></trkpt>
<trkpt lat="53.0066890000" lon="-4.0933500000"><ele>301</ele><time>2016-09-30T09:55:10Z</time></trkpt>
<trkpt lat="53.0066840000" lon="-4.0933490000"><ele>301</ele><time>2016-09-30T09:55:11Z</time></trkpt>
<trkpt lat="53.0066800000" lon="-4.0933480000"><ele>301</ele><time>2016-09-30T09:55:12Z</time></trkpt>
<trkpt lat="53.0066750000" lon="-4.0933460000"><ele>301</ele><time>2016-09-30T09:55:13Z</time></trkpt>
<trkpt lat="53.0066700000" lon="-4.0933450000"><ele>301</ele><time>2016-09-30T09:55:14Z</time></trkpt>
<trkpt lat="53.0066660000" lon="-4.0933440000"><ele>301</ele><time>2016-09-30T09:55:15Z</time></trkpt>
<trkpt lat="53.0066610000" lon="-4.0933430000"><ele>301</ele><time>2016-09-30T09:55:16Z</time></trkpt>
<trkpt lat="53.0066560000" lon="-4.0933420000"><ele>301</ele><time>2016-09-30T09:55:17Z</time></trkpt>
<trkpt lat="53.0066510000" lon="-4.0933410000"><ele>301</ele><time>2016-09-30T09:55:18Z</time></trkpt>
<trkpt lat="53.0066460000" lon="-4.0933410000"><ele>301</ele><time>2016-09-30T09:55:19Z</time></trkpt>
<trkpt lat="53.0066410000" lon="-4.0933410000"><ele>301</ele><time>2016-09-30T09:55:20Z</time></trkpt>
<trkpt lat="53.0066350000" lon="-4.0933410000"><ele>301</ele><time>2016-09-30T09:55:21Z</time></trkpt>
<trkpt lat="53.0066300000" lon="-4.0933410000"><ele>301</ele><time>2016-09-30T09:55:22Z</time></trkpt>
<trkpt lat="53.0066240000" lon="-4.0933410000"><ele>301</ele><time>2016-09-30T09:55:23Z</time></trkpt>
<trkpt lat="53.0066180000" lon="-4.0933410000"><ele>301</ele><time>2016-09-30T09:55:24Z</time></trkpt>
<trkpt lat="53.0066120000" lon="-4.0933400000"><ele>301</ele><time>2016-09-30T09:55:25Z</time></trkpt>
<trkpt lat="53.0066060000" lon="-4.0933400000"><ele>301</ele><time>2016-09-30T09:55:26Z</time></trkpt>
<trkpt lat="53.0066000000" lon="-4.0933400000"><ele>301</ele><time>2016-09-30T09:55:27Z</time></trkpt>
<trkpt lat="53.0065930000" lon="-4.0933390000"><ele>301</ele><time>2016-09-30T09:55:28Z</time></trkpt>
<trkpt lat="53.0065850000" lon="-4.0933380000"><ele>301</ele><time>2016-09-30T09:55:29Z</time></trkpt>
<trkpt lat="53.0065780000" lon="-4.0933370000"><ele>301</ele><time>2016-09-30T09:55:30Z</time></trkpt>
<trkpt lat="53.0065700000" lon="-4.0933360000"><ele>301</ele><time>2016-09-30T09:55:31Z</time></trkpt>
<trkpt lat="53.0065630000" lon="-4.0933340000"><ele>301</ele><time>2016-09-30T09:55:32Z</time></trkpt>
<trkpt lat="53.0065580000" lon="-4.0933320000"><ele>302</ele><time>2016-09-30T09:55:33Z</time></trkpt>
<trkpt lat="53.0065520000" lon="-4.0933300000"><ele>302</ele><time>2016-09-30T09:55:34Z</time></trkpt>
<trkpt lat="53.0065470000" lon="-4.0933270000"><ele>302</ele><time>2016-09-30T09:55:35Z</time></trkpt>
<trkpt lat="53.0065420000" lon="-4.0933250000"><ele>302</ele><time>2016-09-30T09:55:36Z</time></trkpt>
<trkpt lat="53.0065370000" lon="-4.0933210000"><ele>302</ele><time>2016-09-30T09:55:37Z</time></trkpt>
<trkpt lat="53.0065300000" lon="-4.0933170000"><ele>302</ele><time>2016-09-30T09:55:38Z</time></trkpt>
<trkpt lat="53.0065240000" lon="-4.0933130000"><ele>303</ele><time>2016-09-30T09:55:39Z</time></trkpt>
<trkpt lat="53.0065190000" lon="-4.0933090000"><ele>303</ele><time>2016-09-30T09:55:40Z</time></trkpt>
<trkpt lat="53.0065150000" lon="-4.0933050000"><ele>303</ele><time>2016-09-30T09:55:41Z</time></trkpt>
<trkpt lat="53.0065110000" lon="-4.0933000000"><ele>303</ele><time>2016-09-30T09:55:42Z</time></trkpt>
<trkpt lat="53.0065060000" lon="-4.0932960000"><ele>303</ele><time>2016-09-30T09:55:43Z</time></trkpt>
<trkpt lat="53.0065030000" lon="-4.0932910000"><ele>303</ele><time>2016-09-30T09:55:44Z</time></trkpt>
<trkpt lat="53.0065000000" lon="-4.0932860000"><ele>303</ele><time>2016-09-30T09:55:45Z</time></trkpt>
<trkpt lat="53.0064600000" lon="-4.0931970000"><ele>303</ele><time>2016-09-30T09:55:46Z</time></trkpt>
<trkpt lat="53.0064610000" lon="-4.0931960000"><ele>303</ele><time>2016-09-30T09:55:47Z</time></trkpt>
<trkpt lat="53.0064630000" lon="-4.0931900000"><ele>303</ele><time>2016-09-30T09:55:48Z</time></trkpt>
<trkpt lat="53.0064630000" lon="-4.0931900000"><ele>303</ele><time>2016-09-30T09:55:50Z</time></trkpt>
<trkpt lat="53.0064630000" lon="-4.0931900000"><ele>303</ele><time>2016-09-30T09:55:51Z</time></trkpt>
<trkpt lat="53.0064630000" lon="-4.0931900000"><ele>303</ele><time>2016-09-30T09:55:52Z</time></trkpt>
<trkpt lat="53.0064640000" lon="-4.0931890000"><ele>303</ele><time>2016-09-30T09:55:53Z</time></trkpt>
<trkpt lat="53.0064640000" lon="-4.0931890000"><ele>303</ele><time>2016-09-30T09:55:54Z</time></trkpt>
<trkpt lat="53.0064640000" lon="-4.0931880000"><ele>304</ele><time>2016-09-30T09:55:55Z</time></trkpt>
<trkpt lat="53.0064640000" lon="-4.0931870000"><ele>304</ele><time>2016-09-30T09:55:56Z</time></trkpt>
<trkpt lat="53.0064650000" lon="-4.0931850000"><ele>304</ele><time>2016-09-30T09:55:57Z</time></trkpt>
<trkpt lat="53.0064660000" lon="-4.0931840000"><ele>304</ele><time>2016-09-30T09:55:58Z</time></trkpt>
<trkpt lat="53.0064670000" lon="-4.0931810000"><ele>304</ele><time>2016-09-30T09:55:59Z</time></trkpt>
<trkpt lat="53.0064680000" lon="-4.0931790000"><ele>304</ele><time>2016-09-30T09:56:00Z</time></trkpt>
<trkpt lat="53.0064700000" lon="-4.0931760000"><ele>304</ele><time>2016-09-30T09:56:01Z</time></trkpt>
<trkpt lat="53.0064710000" lon="-4.0931730000"><ele>304</ele><time>2016-09-30T09:56:02Z</time></trkpt>
<trkpt lat="53.0064730000" lon="-4.0931690000"><ele>305</ele><time>2016-09-30T09:56:03Z</time></trkpt>
<trkpt lat="53.0064750000" lon="-4.0931660000"><ele>305</ele><time>2016-09-30T09:56:04Z</time></trkpt>
<trkpt lat="53.0064770000" lon="-4.0931620000"><ele>305</ele><time>2016-09-30T09:56:05Z</time></trkpt>
<trkpt lat="53.0064810000" lon="-4.0931540000"><ele>305</ele><time>2016-09-30T09:56:07Z</time></trkpt>
<trkpt lat="53.0064840000" lon="-4.0931500000"><ele>305</ele><time>2016-09-30T09:56:08Z</time></trkpt>
<trkpt lat="53.0064860000" lon="-4.0931460000"><ele>306</ele><time>2016-09-30T09:56:09Z</time></trkpt>
<trkpt lat="53.0064890000" lon="-4.0931420000"><ele>306</ele><time>2016-09-30T09:56:10Z</time></trkpt>
<trkpt lat="53.0064920000" lon="-4.0931380000"><ele>306</ele><time>2016-09-30T09:56:11Z</time></trkpt>
<trkpt lat="53.0064940000" lon="-4.0931360000"><ele>306</ele><time>2016-09-30T09:56:12Z</time></trkpt>
<trkpt lat="53.0064970000" lon="-4.0931320000"><ele>306</ele><time>2016-09-30T09:56:13Z</time></trkpt>
<trkpt lat="53.0065000000" lon="-4.0931280000"><ele>306</ele><time>2016-09-30T09:56:14Z</time></trkpt>
<trkpt lat="53.0065040000" lon="-4.0931240000"><ele>307</ele><time>2016-09-30T09:56:15Z</time></trkpt>
<trkpt lat="53.0065080000" lon="-4.0931200000"><ele>307</ele><time>2016-09-30T09:56:16Z</time></trkpt>
<trkpt lat="53.0065120000" lon="-4.0931150000"><ele>307</ele><time>2016-09-30T09:56:17Z</time></trkpt>
<trkpt lat="53.0065160000" lon="-4.0931110000"><ele>307</ele><time>2016-09-30T09:56:18Z</time></trkpt>
<trkpt lat="53.0065210000" lon="-4.0931070000"><ele>307</ele><time>2016-09-30T09:56:19Z</time></trkpt>
<trkpt lat="53.0065270000" lon="-4.0931030000"><ele>307</ele><time>2016-09-30T09:56:20Z</time></trkpt>
<trkpt lat="53.0065320000" lon="-4.0930990000"><ele>307</ele><time>2016-09-30T09:56:21Z</time></trkpt>
<trkpt lat="53.0065380000" lon="-4.0930960000"><ele>307</ele><time>2016-09-30T09:56:22Z</time></trkpt>
<trkpt lat="53.0065440000" lon="-4.0930920000"><ele>307</ele><time>2016-09-30T09:56:23Z</time></trkpt>
<trkpt lat="53.0065500000" lon="-4.0930890000"><ele>307</ele><time>2016-09-30T09:56:24Z</time></trkpt>
<trkpt lat="53.0065560000" lon="-4.0930860000"><ele>307</ele><time>2016-09-30T09:56:25Z</time></trkpt>
<trkpt lat="53.0065620000" lon="-4.0930830000"><ele>307</ele><time>2016-09-30T09:56:26Z</time></trkpt>
<trkpt lat="53.0065680000" lon="-4.0930810000"><ele>308</ele><time>2016-09-30T09:56:27Z</time></trkpt>
<trkpt lat="53.0065730000" lon="-4.0930780000"><ele>308</ele><time>2016-09-30T09:56:28Z</time></trkpt>
<trkpt lat="53.0065780000" lon="-4.0930760000"><ele>308</ele><time>2016-09-30T09:56:29Z</time></trkpt>
<trkpt lat="53.0066080000" lon="-4.0930610000"><ele>309</ele><time>2016-09-30T09:56:35Z</time></trkpt>
<trkpt lat="53.0067140000" lon="-4.0929810000"><ele>309</ele><time>2016-09-30T09:56:36Z</time></trkpt>
<trkpt lat="53.0067360000" lon="-4.0929850000"><ele>310</ele><time>2016-09-30T09:56:39Z</time></trkpt>
<trkpt lat="53.0067500000" lon="-4.0929900000"><ele>311</ele><time>2016-09-30T09:56:58Z</time></trkpt>
<trkpt lat="53.0067490000" lon="-4.0929900000"><ele>310</ele><time>2016-09-30T09:56:59Z</time></trkpt>
<trkpt lat="53.0067480000" lon="-4.0929900000"><ele>310</ele><time>2016-09-30T09:57:00Z</time></trkpt>
<trkpt lat="53.0067480000" lon="-4.0929900000"><ele>310</ele><time>2016-09-30T09:57:01Z</time></trkpt>
<trkpt lat="53.0067470000" lon="-4.0929900000"><ele>309</ele><time>2016-09-30T09:57:02Z</time></trkpt>
<trkpt lat="53.0067460000" lon="-4.0929900000"><ele>309</ele><time>2016-09-30T09:57:03Z</time></trkpt>
<trkpt lat="53.0067460000" lon="-4.0929900000"><ele>308</ele><time>2016-09-30T09:57:04Z</time></trkpt>
<trkpt lat="53.0067460000" lon="-4.0929900000"><ele>308</ele><time>2016-09-30T09:57:05Z</time></trkpt>
<trkpt lat="53.0067460000" lon="-4.0929900000"><ele>308</ele><time>2016-09-30T09:57:06Z</time></trkpt>
<trkpt lat="53.0067470000" lon="-4.0929890000"><ele>308</ele><time>2016-09-30T09:57:07Z</time></trkpt>
<trkpt lat="53.0067470000" lon="-4.0929880000"><ele>307</ele><time>2016-09-30T09:57:08Z</time></trkpt>
<trkpt lat="53.0067480000" lon="-4.0929880000"><ele>307</ele><time>2016-09-30T09:57:09Z</time></trkpt>
<trkpt lat="53.0067490000" lon="-4.0929880000"><ele>307</ele><time>2016-09-30T09:57:10Z</time></trkpt>
<trkpt lat="53.0067500000" lon="-4.0929880000"><ele>307</ele><time>2016-09-30T09:57:11Z</time></trkpt>
<trkpt lat="53.0067520000" lon="-4.0929870000"><ele>307</ele><time>2016-09-30T09:57:12Z</time></trkpt>
<trkpt lat="53.0067550000" lon="-4.0929870000"><ele>306</ele><time>2016-09-30T09:57:13Z</time></trkpt>
<trkpt lat="53.0067580000" lon="-4.0929850000"><ele>306</ele><time>2016-09-30T09:57:14Z</time></trkpt>
<trkpt lat="53.0067610000" lon="-4.0929840000"><ele>306</ele><time>2016-09-30T09:57:15Z</time></trkpt>
<trkpt lat="53.0067650000" lon="-4.0929820000"><ele>306</ele><time>2016-09-30T09:57:16Z</time></trkpt>
<trkpt lat="53.0067680000" lon="-4.0929800000"><ele>306</ele><time>2016-09-30T09:57:17Z</time></trkpt>
<trkpt lat="53.0067720000" lon="-4.0929780000"><ele>306</ele><time>2016-09-30T09:57:18Z</time></trkpt>
<trkpt lat="53.0067760000" lon="-4.0929750000"><ele>306</ele><time>2016-09-30T09:57:19Z</time></trkpt>
<trkpt lat="53.0067800000" lon="-4.0929730000"><ele>306</ele><time>2016-09-30T09:57:20Z</time></trkpt>
<trkpt lat="53.0067840000" lon="-4.0929710000"><ele>306</ele><time>2016-09-30T09:57:21Z</time></trkpt>
<trkpt lat="53.0067880000" lon="-4.0929680000"><ele>306</ele><time>2016-09-30T09:57:22Z</time></trkpt>
<trkpt lat="53.0067930000" lon="-4.0929650000"><ele>306</ele><time>2016-09-30T09:57:23Z</time></trkpt>
<trkpt lat="53.0067970000" lon="-4.0929630000"><ele>306</ele><time>2016-09-30T09:57:24Z</time></trkpt>
<trkpt lat="53.0068020000" lon="-4.0929600000"><ele>306</ele><time>2016-09-30T09:57:25Z</time></trkpt>
<trkpt lat="53.0068060000" lon="-4.0929580000"><ele>306</ele><time>2016-09-30T09:57:26Z</time></trkpt>
<trkpt lat="53.0068100000" lon="-4.0929550000"><ele>307</ele><time>2016-09-30T09:57:27Z</time></trkpt>
<trkpt lat="53.0068140000" lon="-4.0929530000"><ele>307</ele><time>2016-09-30T09:57:28Z</time></trkpt>
<trkpt lat="53.0068180000" lon="-4.0929510000"><ele>307</ele><time>2016-09-30T09:57:29Z</time></trkpt>
<trkpt lat="53.0068220000" lon="-4.0929500000"><ele>307</ele><time>2016-09-30T09:57:30Z</time></trkpt>
<trkpt lat="53.0068250000" lon="-4.0929480000"><ele>307</ele><time>2016-09-30T09:57:31Z</time></trkpt>
<trkpt lat="53.0068280000" lon="-4.0929460000"><ele>307</ele><time>2016-09-30T09:57:32Z</time></trkpt>
<trkpt lat="53.0068310000" lon="-4.0929440000"><ele>308</ele><time>2016-09-30T09:57:33Z</time></trkpt>
<trkpt lat="53.0068340000" lon="-4.0929430000"><ele>308</ele><time>2016-09-30T09:57:34Z</time></trkpt>
<trkpt lat="53.0068370000" lon="-4.0929410000"><ele>308</ele><time>2016-09-30T09:57:35Z</time></trkpt>
<trkpt lat="53.0068390000" lon="-4.0929400000"><ele>308</ele><time>2016-09-30T09:57:36Z</time></trkpt>
<trkpt lat="53.0068420000" lon="-4.0929380000"><ele>308</ele><time>2016-09-30T09:57:37Z</time></trkpt>
<trkpt lat="53.0068450000" lon="-4.0929370000"><ele>308</ele><time>2016-09-30T09:57:38Z</time></trkpt>
<trkpt lat="53.0068480000" lon="-4.0929360000"><ele>308</ele><time>2016-09-30T09:57:39Z</time></trkpt>
<trkpt lat="53.0068500000" lon="-4.0929350000"><ele>309</ele><time>2016-09-30T09:57:40Z</time></trkpt>
<trkpt lat="53.0068520000" lon="-4.0929340000"><ele>309</ele><time>2016-09-30T09:57:41Z</time></trkpt>
<trkpt lat="53.0068540000" lon="-4.0929340000"><ele>309</ele><time>2016-09-30T09:57:42Z</time></trkpt>
<trkpt lat="53.0068560000" lon="-4.0929330000"><ele>309</ele><time>2016-09-30T09:57:43Z</time></trkpt>
<trkpt lat="53.0068570000" lon="-4.0929330000"><ele>309</ele><time>2016-09-30T09:57:44Z</time></trkpt>
<trkpt lat="53.0068580000" lon="-4.0929320000"><ele>309</ele><time>2016-09-30T09:57:45Z</time></trkpt>
<trkpt lat="53.0068590000" lon="-4.0929320000"><ele>309</ele><time>2016-09-30T09:57:46Z</time></trkpt>
<trkpt lat="53.0068610000" lon="-4.0929310000"><ele>309</ele><time>2016-09-30T09:57:47Z</time></trkpt>
<trkpt lat="53.0068620000" lon="-4.0929310000"><ele>309</ele><time>2016-09-30T09:57:48Z</time></trkpt>
<trkpt lat="53.0068630000" lon="-4.0929300000"><ele>309</ele><time>2016-09-30T09:57:49Z</time></trkpt>
<trkpt lat="53.0068640000" lon="-4.0929300000"><ele>309</ele><time>2016-09-30T09:57:50Z</time></trkpt>
<trkpt lat="53.0068650000" lon="-4.0929290000"><ele>310</ele><time>2016-09-30T09:57:51Z</time></trkpt>
<trkpt lat="53.0068650000" lon="-4.0929290000"><ele>310</ele><time>2016-09-30T09:57:53Z</time></trkpt>
<trkpt lat="53.0068660000" lon="-4.0929280000"><ele>310</ele></trkpt>
<trkpt lat="53.0068670000" lon="-4.0929270000"><ele>310</ele><time>2016-09-30T09:57:54Z</time></trkpt>
<trkpt lat="53.0068680000" lon="-4.0929260000"><ele>310</ele><time>2016-09-30T09:57:55Z</time></trkpt>
<trkpt lat="53.0068690000" lon="-4.0929250000"><ele>310</ele><time>2016-09-30T09:57:56Z</time></trkpt>
<trkpt lat="53.0068690000" lon="-4.0929240000"><ele>310</ele><time>2016-09-30T09:57:57Z</time></trkpt>
<trkpt lat="53.0068700000" lon="-4.0929220000"><ele>310</ele><time>2016-09-30T09:57:58Z</time></trkpt>
<trkpt lat="53.0068700000" lon="-4.0929210000"><ele>310</ele><time>2016-09-30T09:57:59Z</time></trkpt>
<trkpt lat="53.0068700000" lon="-4.0929190000"><ele>310</ele><time>2016-09-30T09:58:00Z</time></trkpt>
<trkpt lat="53.0068700000" lon="-4.0929180000"><ele>310</ele><time>2016-09-30T09:58:01Z</time></trkpt>
<trkpt lat="53.0068700000" lon="-4.0929160000"><ele>310</ele><time>2016-09-30T09:58:02Z</time></trkpt>
<trkpt lat="53.0068690000" lon="-4.0929140000"><ele>310</ele><time>2016-09-30T09:58:03Z</time></trkpt>
<trkpt lat="53.0068690000" lon="-4.0929120000"><ele>309</ele><time>2016-09-30T09:58:04Z</time></trkpt>
<trkpt lat="53.0068690000" lon="-4.0929110000"><ele>309</ele><time>2016-09-30T09:58:05Z</time></trkpt>
<trkpt lat="53.0068680000" lon="-4.0929100000"><ele>309</ele><time>2016-09-30T09:58:06Z</time></trkpt>
<trkpt lat="53.0068680000" lon="-4.0929080000"><ele>309</ele><time>2016-09-30T09:58:07Z</time></trkpt>
<trkpt lat="53.0068680000" lon="-4.0929070000"><ele>309</ele><time>2016-09-30T09:58:08Z</time></trkpt>
<trkpt lat="53.0068680000" lon="-4.0929060000"><ele>309</ele><time>2016-09-30T09:58:09Z</time></trkpt>
<trkpt lat="53.0068680000" lon="-4.0929050000"><ele>309</ele><time>2016-09-30T09:58:10Z</time></trkpt>
<trkpt lat="53.0068670000" lon="-4.0929040000"><ele>309</ele><time>2016-09-30T09:58:11Z</time></trkpt>
<trkpt lat="53.0068670000" lon="-4.0929040000"><ele>309</ele><time>2016-09-30T09:58:12Z</time></trkpt>
<trkpt lat="53.0068670000" lon="-4.0929040000"><ele>309</ele><time>2016-09-30T09:58:13Z</time></trkpt>
<trkpt lat="53.0068670000" lon="-4.0929040000"><ele>309</ele><time>2016-09-30T09:58:14Z</time></trkpt>
<trkpt lat="53.0068660000" lon="-4.0929040000"><ele>309</ele><time>2016-09-30T09:58:15Z</time></trkpt>
<trkpt lat="53.0068660000" lon="-4.0929040000"><ele>309</ele><time>2016-09-30T09:58:16Z</time></trkpt>
<trkpt lat="53.0068660000" lon="-4.0929040000"><ele>309</ele><time>2016-09-30T09:58:17Z</time></trkpt>
<trkpt lat="53.0068650000" lon="-4.0929050000"><ele>309</ele><time>2016-09-30T09:58:18Z</time></trkpt>
<trkpt lat="53.0068650000" lon="-4.0929050000"><ele>309</ele><time>2016-09-30T09:58:19Z</time></trkpt>
<trkpt lat="53.0068650000" lon="-4.0929050000"><ele>309</ele><time>2016-09-30T09:58:20Z</time></trkpt>
<trkpt lat="53.0068650000" lon="-4.0929060000"><ele>309</ele><time>2016-09-30T09:58:21Z</time></trkpt>
<trkpt lat="53.0068640000" lon="-4.0929060000"><ele>309</ele><time>2016-09-30T09:58:22Z</time></trkpt>
<trkpt lat="53.0068640000" lon="-4.0929070000"><ele>309</ele><time>2016-09-30T09:58:23Z</time></trkpt>
<trkpt lat="53.0068640000" lon="-4.0929070000"><ele>309</ele><time>2016-09-30T09:58:24Z</time></trkpt>
<trkpt lat="53.0068640000" lon="-4.0929070000"><ele>310</ele><time>2016-09-30T09:58:25Z</time></trkpt>
<trkpt lat="53.0068640000" lon="-4.0929070000"><ele>310</ele><time>2016-09-30T09:58:26Z</time></trkpt>
<trkpt lat="53.0068640000" lon="-4.0929070000"><ele>310</ele><time>2016-09-30T09:58:27Z</time></trkpt>
<trkpt lat="53.0068640000" lon="-4.0929070000"><ele>310</ele><time>2016-09-30T09:58:28Z</time></trkpt>
<trkpt lat="53.0068640000" lon="-4.0929070000"><ele>310</ele><time>2016-09-30T09:58:29Z</time></trkpt>
<trkpt lat="53.0068630000" lon="-4.0929070000"><ele>310</ele><time>2016-09-30T09:58:30Z</time></trkpt>
<trkpt lat="53.0068630000" lon="-4.0929070000"><ele>310</ele><time>2016-09-30T09:58:31Z</time></trkpt>
<trkpt lat="53.0068630000" lon="-4.0929070000"><ele>310</ele><time>2016-09-30T09:58:32Z</time></trkpt>
<trkpt lat="53.0068640000" lon="-4.0929070000"><ele>310</ele><time>2016-09-30T09:58:33Z</time></trkpt>
<trkpt lat="53.0068640000" lon="-4.0929070000"><ele>310</ele><time>2016-09-30T09:58:34Z</time></trkpt>
<trkpt lat="53.0068640000" lon="-4.0929070000"><ele>310</ele><time>2016-09-30T09:58:35Z</time></trkpt>
<trkpt lat="53.0068650000" lon="-4.0929060000"><ele>310</ele><time>2016-09-30T09:58:36Z</time></trkpt>
<trkpt lat="53.0068650000" lon="-4.0929060000"><ele>310</ele><time>2016-09-30T09:58:37Z</time></trkpt>
<trkpt lat="53.0068660000" lon="-4.0929060000"><ele>310</ele><time>2016-09-30T09:58:38Z</time></trkpt>
<trkpt lat="53.0068660000" lon="-4.0929060000"><ele>310</ele><time>2016-09-30T09:58:39Z</time></trkpt>
<trkpt lat="53.0068670000" lon="-4.0929060000"><ele>310</ele><time>2016-09-30T09:58:40Z</time></trkpt>
<trkpt lat="53.0068670000" lon="-4.0929070000"><ele>310</ele><time>2016-09-30T09:58:41Z</time></trkpt>
<trkpt lat="53.0068680000" lon="-4.0929070000"><ele>310</ele><time>2016-09-30T09:58:42Z</time></trkpt>
<trkpt lat="53.0068690000" lon="-4.0929070000"><ele>311</ele><time>2016-09-30T09:58:43Z</time></trkpt>
<trkpt lat="53.0068690000" lon="-4.0929070000"><ele>311</ele><time>2016-09-30T09:58:44Z</time></trkpt>
<trkpt lat="53.0068700000" lon="-4.0929070000"><ele>311</ele><time>2016-09-30T09:58:45Z</time></trkpt>
<trkpt lat="53.0068700000" lon="-4.0929070000"><ele>311</ele><time>2016-09-30T09:58:46Z</time></trkpt>
<trkpt lat="53.0068710000" lon="-4.0929150000"><ele>310</ele><time>2016-09-30T09:58:59Z</time></trkpt>
<trkpt lat="53.0068710000" lon="-4.0929150000"><ele>310</ele><time>2016-09-30T09:59:00Z</time></trkpt>
<trkpt lat="53.0068710000" lon="-4.0929160000"><ele>309</ele><time>2016-09-30T09:59:01Z</time></trkpt>
<trkpt lat="53.0068720000" lon="-4.0929150000"><ele>309</ele><time>2016-09-30T09:59:02Z</time></trkpt>
<trkpt lat="53.0068720000" lon="-4.0929150000"><ele>309</ele><time>2016-09-30T09:59:03Z</time></trkpt>
<trkpt lat="53.0068730000" lon="-4.0929140000"><ele>309</ele><time>2016-09-30T09:59:04Z</time></trkpt>
<trkpt lat="53.0068730000" lon="-4.0929120000"><ele>309</ele><time>2016-09-30T09:59:05Z</time></trkpt>
<trkpt lat="53.0068730000" lon="-4.0929100000"><ele>309</ele><time>2016-09-30T09:59:06Z</time></trkpt>
<trkpt lat="53.0068730000" lon="-4.0929070000"><ele>310</ele><time>2016-09-30T09:59:07Z</time></trkpt>
<trkpt lat="53.0068730000" lon="-4.0929050000"><ele>310</ele><time>2016-09-30T09:59:08Z</time></trkpt>
<trkpt lat="53.0068730000" lon="-4.0929040000"><ele>310</ele><time>2016-09-30T09:59:09Z</time></trkpt>
<trkpt lat="53.0068730000" lon="-4.0929020000"><ele>310</ele><time>2016-09-30T09:59:10Z</time></trkpt>
<trkpt lat="53.0068740000" lon="-4.0929010000"><ele>310</ele><time>2016-09-30T09:59:11Z</time></trkpt>
<trkpt lat="53.0068740000" lon="-4.0929000000"><ele>310</ele><time>2016-09-30T09:59:12Z</time></trkpt>
<trkpt lat="53.0068740000" lon="-4.0928990000"><ele>310</ele><time>2016-09-30T09:59:13Z</time></trkpt>
<trkpt lat="53.0068740000" lon="-4.0928970000"><ele>310</ele><time>2016-09-30T09:59:14Z</time></trkpt>
<trkpt lat="53.0068750000" lon="-4.0928950000"><ele>310</ele><time>2016-09-30T09:59:15Z</time></trkpt>
<trkpt lat="53.0068750000" lon="-4.0928940000"><ele>310</ele><time>2016-09-30T09:59:16Z</time></trkpt>
<trkpt lat="53.0068760000" lon="-4.0928920000"><ele>311</ele><time>2016-09-30T09:59:17Z</time></trkpt>
<trkpt lat="53.0068760000" lon="-4.0928910000"><ele>311</ele><time>2016-09-30T09:59:18Z</time></trkpt>
<trkpt lat="53.0068770000" lon="-4.0928890000"><ele>311</ele><time>2016-09-30T09:59:19Z</time></trkpt>
<trkpt lat="53.0068770000" lon="-4.0928880000"><ele>311</ele><time>2016-09-30T09:59:20Z</time></trkpt>
<trkpt lat="53.0068780000" lon="-4.0928870000"><ele>311</ele><time>2016-09-30T09:59:21Z</time></trkpt>
<trkpt lat="53.0068780000" lon="-4.0928860000"><ele>311</ele><time>2016-09-30T09:59:22Z</time></trkpt>
<trkpt lat="53.0068780000" lon="-4.0928850000"><ele>312</ele></trkpt>
<trkpt lat="53.0068780000" lon="-4.0928840000"><ele>312</ele><time>2016-09-30T09:59:24Z</time></trkpt>
<trkpt lat="53.0068780000" lon="-4.0928830000"><ele>312</ele><time>2016-09-30T09:59:25Z</time></trkpt>
<trkpt lat="53.0068780000" lon="-4.0928830000"><ele>312</ele><time>2016-09-30T09:59:26Z</time></trkpt>
<trkpt lat="53.0068770000" lon="-4.0928820000"><ele>312</ele><time>2016-09-30T09:59:27Z</time></trkpt>
<trkpt lat="53.0068770000" lon="-4.0928810000"><ele>312</ele><time>2016-09-30T09:59:28Z</time></trkpt>
<trkpt lat="53.0068770000" lon="-4.0928800000"><ele>312</ele></trkpt>
<trkpt lat="53.0068760000" lon="-4.0928790000"><ele>312</ele><time>2016-09-30T09:59:30Z</time></trkpt>
<trkpt lat="53.0068760000" lon="-4.0928780000"><ele>312</ele><time>2016-09-30T09:59:31Z</time></trkpt>
<trkpt lat="53.0068760000" lon="-4.0928780000"><ele>312</ele><time>2016-09-30T09:59:32Z</time></trkpt>
<trkpt lat="53.0068760000" lon="-4.0928770000"><ele>312</ele><time>2016-09-30T09:59:33Z</time></trkpt>
<trkpt lat="53.0068760000" lon="-4.0928770000"><ele>312</ele><time>2016-09-30T09:59:34Z</time></trkpt>
<trkpt lat="53.0068760000" lon="-4.0928760000"><ele>312</ele><time>2016-09-30T09:59:35Z</time></trkpt>
<trkpt lat="53.0068760000" lon="-4.0928750000"><ele>311</ele><time>2016-09-30T09:59:36Z</time></trkpt>
<trkpt lat="53.0068760000" lon="-4.0928750000"><ele>311</ele><time>2016-09-30T09:59:37Z</time></trkpt>
<trkpt lat="53.0068760000" lon="-4.0928740000"><ele>311</ele><time>2016-09-30T09:59:38Z</time></trkpt>
<trkpt lat="53.0068760000" lon="-4.0928730000"><ele>311</ele><time>2016-09-30T09:59:39Z</time></trkpt>
<trkpt lat="53.0068760000" lon="-4.0928720000"><ele>311</ele><time>2016-09-30T09:59:40Z</time></trkpt>
<trkpt lat="53.0068760000" lon="-4.0928720000"><ele>311</ele><time>2016-09-30T09:59:41Z</time></trkpt>
<trkpt lat="53.0068760000" lon="-4.0928710000"><ele>311</ele><time>2016-09-30T09:59:42Z</time></trkpt>
<trkpt lat="53.0068760000" lon="-4.0928710000"><ele>311</ele><time>2016-09-30T09:59:43Z</time></trkpt>
<trkpt lat="53.0068760000" lon="-4.0928700000"><ele>311</ele><time>2016-09-30T09:59:44Z</time></trkpt>
<trkpt lat="53.0068760000" lon="-4.0928700000"><ele>311</ele><time>2016-09-30T09:59:45Z</time></trkpt>
<trkpt lat="53.0068760000" lon="-4.0928700000"><ele>311</ele><time>2016-09-30T09:59:46Z</time></trkpt>
<trkpt lat="53.0068760000" lon="-4.0928700000"><ele>311</ele><time>2016-09-30T09:59:47Z</time></trkpt>
<trkpt lat="53.0068760000" lon="-4.0928690000"><ele>311</ele></trkpt>
<trkpt lat="53.0068760000" lon="-4.0928690000"><ele>311</ele><time>2016-09-30T09:59:49Z</time></trkpt>
<trkpt lat="53.0068770000" lon="-4.0928690000"><ele>311</ele><time>2016-09-30T09:59:50Z</time></trkpt>
<trkpt lat="53.0068770000" lon="-4.0928690000"><ele>312</ele><time>2016-09-30T09:59:51Z</time></trkpt>
<trkpt lat="53.0068770000" lon="-4.0928690000"><ele>312</ele><time>2016-09-30T09:59:53Z</time></trkpt>
<trkpt lat="53.0068770000" lon="-4.0928690000"><ele>312</ele></trkpt>
<trkpt lat="53.0068780000" lon="-4.0928690000"><ele>312</ele><time>2016-09-30T09:59:54Z</time></trkpt>
<trkpt lat="53.0068780000" lon="-4.0928690000"><ele>312</ele><time>2016-09-30T09:59:55Z</time></trkpt>
<trkpt lat="53.0068780000" lon="-4.0928690000"><ele>312</ele><time>2016-09-30T09:59:56Z</time></trkpt>
<trkpt lat="53.0068780000" lon="-4.0928690000"><ele>312</ele><time>2016-09-30T09:59:57Z</time></trkpt>
<trkpt lat="53.0068790000" lon="-4.0928690000"><ele>312</ele><time>2016-09-30T09:59:58Z</time></trkpt>
<trkpt lat="53.0068790000" lon="-4.0928690000"><ele>312</ele><time>2016-09-30T09:59:59Z</time></trkpt>
<trkpt lat="53.0068790000" lon="-4.0928700000"><ele>312</ele><time>2016-09-30T10:00:00Z</time></trkpt>
<trkpt lat="53.0068800000" lon="-4.0928700000"><ele>312</ele><time>2016-09-30T10:00:01Z</time></trkpt>
<trkpt lat="53.0068800000" lon="-4.0928700000"><ele>312</ele><time>2016-09-30T10:00:02Z</time></trkpt>
<trkpt lat="53.0068800000" lon="-4.0928700000"><ele>312</ele><time>2016-09-30T10:00:03Z</time></trkpt>
<trkpt lat="53.0068810000" lon="-4.0928710000"><ele>312</ele><time>2016-09-30T10:00:04Z</time></trkpt>
<trkpt lat="53.0068810000" lon="-4.0928710000"><ele>312</ele><time>2016-09-30T10:00:05Z</time></trkpt>
<trkpt lat="53.0068820000" lon="-4.0928710000"><ele>312</ele><time>2016-09-30T10:00:06Z</time></trkpt>
<trkpt lat="53.0068820000" lon="-4.0928710000"><ele>312</ele><time>2016-09-30T10:00:07Z</time></trkpt>
<trkpt lat="53.0068820000" lon="-4.0928710000"><ele>312</ele><time>2016-09-30T10:00:08Z</time></trkpt>
<trkpt lat="53.0068820000" lon="-4.0928710000"><ele>312</ele><time>2016-09-30T10:00:09Z</time></trkpt>
<trkpt lat="53.0068830000" lon="-4.0928710000"><ele>312</ele><time>2016-09-30T10:00:10Z</time></trkpt>
<trkpt lat="53.0068830000" lon="-4.0928710000"><ele>312</ele><time>2016-09-30T10:00:11Z</time></trkpt>
<trkpt lat="53.0068830000" lon="-4.0928710000"><ele>312</ele><time>2016-09-30T10:00:12Z</time></trkpt>
<trkpt lat="53.0068830000" lon="-4.0928710000"><ele>312</ele><time>2016-09-30T10:00:13Z</time></trkpt>
<trkpt lat="53.0068830000" lon="-4.0928700000"><ele>312</ele><time>2016-09-30T10:00:14Z</time></trkpt>
<trkpt lat="53.0068830000" lon="-4.0928700000"><ele>313</ele><time>2016-09-30T10:00:15Z</time></trkpt>
<trkpt lat="53.0068830000" lon="-4.0928690000"><ele>313</ele><time>2016-09-30T10:00:16Z</time></trkpt>
<trkpt lat="53.0068830000" lon="-4.0928680000"><ele>313</ele><time>2016-09-30T10:00:17Z</time></trkpt>
<trkpt lat="53.0068820000" lon="-4.0928670000"><ele>313</ele><time>2016-09-30T10:00:18Z</time></trkpt>
<trkpt lat="53.0068820000" lon="-4.0928660000"><ele>313</ele><time>2016-09-30T10:00:19Z</time></trkpt>
<trkpt lat="53.0068820000" lon="-4.0928650000"><ele>313</ele><time>2016-09-30T10:00:20Z</time></trkpt>
<trkpt lat="53.0068820000" lon="-4.0928650000"><ele>313</ele><time>2016-09-30T10:00:21Z</time></trkpt>
<trkpt lat="53.0068830000" lon="-4.0928640000"><ele>313</ele><time>2016-09-30T10:00:22Z</time></trkpt>
<trkpt lat="53.0068830000" lon="-4.0928640000"><ele>313</ele><time>2016-09-30T10:00:23Z</time></trkpt>
<trkpt lat="53.0068830000" lon="-4.0928640000"><ele>313</ele><time>2016-09-30T10:00:24Z</time></trkpt>
<trkpt lat="53.0068840000" lon="-4.0928640000"><ele>313</ele><time>2016-09-30T10:00:25Z</time></trkpt>
<trkpt lat="53.0068840000" lon="-4.0928640000"><ele>313</ele><time>2016-09-30T10:00:26Z</time></trkpt>
<trkpt lat="53.0068840000" lon="-4.0928650000"><ele>313</ele><time>2016-09-30T10:00:27Z</time></trkpt>
<trkpt lat="53.0068850000" lon="-4.0928650000"><ele>313</ele><time>2016-09-30T10:00:28Z</time></trkpt>
<trkpt lat="53.0068850000" lon="-4.0928660000"><ele>313</ele><time>2016-09-30T10:00:29Z</time></trkpt>
<trkpt lat="53.0068850000" lon="-4.0928660000"><ele>313</ele><time>2016-09-30T10:00:30Z</time></trkpt>
<trkpt lat="53.0068850000" lon="-4.0928670000"><ele>313</ele><time>2016-09-30T10:00:31Z</time></trkpt>
<trkpt lat="53.0068860000" lon="-4.0928670000"><ele>313</ele><time>2016-09-30T10:00:32Z</time></trkpt>
<trkpt lat="53.0068860000" lon="-4.0928680000"><ele>313</ele><time>2016-09-30T10:00:33Z</time></trkpt>
<trkpt lat="53.0068860000" lon="-4.0928690000"><ele>313</ele><time>2016-09-30T10:00:34Z</time></trkpt>
<trkpt lat="53.0068870000" lon="-4.0928700000"><ele>313</ele><time>2016-09-30T10:00:35Z</time></trkpt>
<trkpt lat="53.0068870000" lon="-4.0928710000"><ele>313</ele><time>2016-09-30T10:00:36Z</time></trkpt>
<trkpt lat="53.0068870000" lon="-4.0928720000"><ele>313</ele></trkpt>
<trkpt lat="53.0068870000" lon="-4.0928730000"><ele>313</ele><time>2016-09-30T10:00:38Z</time></trkpt>
<trkpt lat="53.0068880000" lon="-4.0928740000"><ele>313</ele><time>2016-09-30T10:00:39Z</time></trkpt>
<trkpt lat="53.0068880000" lon="-4.0928740000"><ele>313</ele><time>2016-09-30T10:00:40Z</time></trkpt>
<trkpt lat="53.0068880000" lon="-4.0928750000"><ele>313</ele><time>2016-09-30T10:00:41Z</time></trkpt>
<trkpt lat="53.0068880000" lon="-4.0928750000"><ele>313</ele><time>2016-09-30T10:00:42Z</time></trkpt>
<trkpt lat="53.0068880000" lon="-4.0928760000"><ele>313</ele><time>2016-09-30T10:00:43Z</time></trkpt>
<trkpt lat="53.0068880000" lon="-4.0928760000"><ele>313</ele><time>2016-09-30T10:00:44Z</time></trkpt>
<trkpt lat="53.0068880000" lon="-4.0928770000"><ele>313</ele><time>2016-09-30T10:00:45Z</time></trkpt>
<trkpt lat="53.0068880000" lon="-4.0928770000"><ele>313</ele><time>2016-09-30T10:00:46Z</time></trkpt>
<trkpt lat="53.0068880000" lon="-4.0928780000"><ele>313</ele><time>2016-09-30T10:00:47Z</time></trkpt>
<trkpt lat="53.0068880000" lon="-4.0928780000"><ele>313</ele><time>2016-09-30T10:00:48Z</time></trkpt>
<trkpt lat="53.0068880000" lon="-4.0928790000"><ele>313</ele><time>2016-09-30T10:00:49Z</time></trkpt>
<trkpt lat="53.0068880000" lon="-4.0928800000"><ele>313</ele><time>2016-09-30T10:00:50Z</time></trkpt>
<trkpt lat="53.0068880000" lon="-4.0928800000"><ele>313</ele><time>2016-09-30T10:00:51Z</time></trkpt>
<trkpt lat="53.0068880000" lon="-4.0928810000"><ele>313</ele><time>2016-09-30T10:00:52Z</time></trkpt>
<trkpt lat="53.0068880000" lon="-4.0928810000"><ele>313</ele><time>2016-09-30T10:00:53Z</time></trkpt>
<trkpt lat="53.0068880000" lon="-4.0928820000"><ele>313</ele><time>2016-09-30T10:00:54Z</time></trkpt>
<trkpt lat="53.0068880000" lon="-4.0928820000"><ele>313</ele><time>2016-09-30T10:00:55Z</time></trkpt>
<trkpt lat="53.0068880000" lon="-4.0928830000"><ele>313</ele><time>2016-09-30T10:00:56Z</time></trkpt>
<trkpt lat="53.0068880000" lon="-4.0928830000"><ele>313</ele><time>2016-09-30T10:00:57Z</time></trkpt>
<trkpt lat="53.0068880000" lon="-4.0928830000"><ele>313</ele><time>2016-09-30T10:00:58Z</time></trkpt>
<trkpt lat="53.0068880000" lon="-4.0928840000"><ele>313</ele><time>2016-09-30T10:00:59Z</time></trkpt>
<trkpt lat="53.0068880000" lon="-4.0928850000"><ele>313</ele><time>2016-09-30T10:01:00Z</time></trkpt>
<trkpt lat="53.0068880000" lon="-4.0928860000"><ele>313</ele><time>2016-09-30T10:01:01Z</time></trkpt>
<trkpt lat="53.0068830000" lon="-4.0929090000"><ele>310</ele><time>2016-09-30T10:01:21Z</time></trkpt>
<trkpt lat="53.0068830000" lon="-4.0929100000"><ele>310</ele><time>2016-09-30T10:01:23Z</time></trkpt>
<trkpt lat="53.0068790000" lon="-4.0929160000"><ele>309</ele><time>2016-09-30T10:01:38Z</time></trkpt>
<trkpt lat="53.0068790000" lon="-4.0929100000"><ele>310</ele><time>2016-09-30T10:01:44Z</time></trkpt>
<trkpt lat="53.0068790000" lon="-4.0929090000"><ele>310</ele><time>2016-09-30T10:01:45Z</time></trkpt>
<trkpt lat="53.0068790000" lon="-4.0929090000"><ele>310</ele><time>2016-09-30T10:01:46Z</time></trkpt>
<trkpt lat="53.0068790000" lon="-4.0929080000"><ele>311</ele><time>2016-09-30T10:01:47Z</time></trkpt>
<trkpt lat="53.0068790000" lon="-4.0929070000"><ele>311</ele><time>2016-09-30T10:01:48Z</time></trkpt>
<trkpt lat="53.0068800000" lon="-4.0929070000"><ele>311</ele><time>2016-09-30T10:01:49Z</time></trkpt>
<trkpt lat="53.0068800000" lon="-4.0929060000"><ele>311</ele><time>2016-09-30T10:01:50Z</time></trkpt>
<trkpt lat="53.0068800000" lon="-4.0929060000"><ele>311</ele><time>2016-09-30T10:01:51Z</time></trkpt>
<trkpt lat="53.0068800000" lon="-4.0929050000"><ele>311</ele><time>2016-09-30T10:01:52Z</time></trkpt>
<trkpt lat="53.0068800000" lon="-4.0929050000"><ele>312</ele><time>2016-09-30T10:01:53Z</time></trkpt>
<trkpt lat="53.0068800000" lon="-4.0929050000"><ele>312</ele><time>2016-09-30T10:01:54Z</time></trkpt>
<trkpt lat="53.0068810000" lon="-4.0929040000"><ele>312</ele><time>2016-09-30T10:01:55Z</time></trkpt>
<trkpt lat="53.0068810000" lon="-4.0929040000"><ele>312</ele><time>2016-09-30T10:01:56Z</time></trkpt>
<trkpt lat="53.0068810000" lon="-4.0929030000"><ele>312</ele><time>2016-09-30T10:01:57Z</time></trkpt>
<trkpt lat="53.0068810000" lon="-4.0929020000"><ele>312</ele><time>2016-09-30T10:01:58Z</time></trkpt>
<trkpt lat="53.0068810000" lon="-4.0929020000"><ele>312</ele><time>2016-09-30T10:01:59Z</time></trkpt>
<trkpt lat="53.0068810000" lon="-4.0929010000"><ele>312</ele></trkpt>
<trkpt lat="53.0068810000" lon="-4.0929010000"><ele>312</ele><time>2016-09-30T10:02:01Z</time></trkpt>
<trkpt lat="53.0068810000" lon="-4.0929010000"><ele>312</ele><time>2016-09-30T10:02:02Z</time></trkpt>
<trkpt lat="53.0068810000" lon="-4.0929010000"><ele>312</ele><time>2016-09-30T10:02:03Z</time></trkpt>
<trkpt lat="53.0068810000" lon="-4.0929010000"><ele>312</ele><time>2016-09-30T10:02:04Z</time></trkpt>
<trkpt lat="53.0068810000" lon="-4.0929010000"><ele>312</ele><time>2016-09-30T10:02:05Z</time></trkpt>
<trkpt lat="53.0068810000" lon="-4.0929020000"><ele>312</ele><time>2016-09-30T10:02:06Z</time></trkpt>
<trkpt lat="53.0068810000" lon="-4.0929020000"><ele>312</ele><time>2016-09-30T10:02:07Z</time></trkpt>
<trkpt lat="53.0068810000" lon="-4.0929030000"><ele>312</ele><time>2016-09-30T10:02:08Z</time></trkpt>
<trkpt lat="53.0068810000" lon="-4.0929040000"><ele>312</ele><time>2016-09-30T10:02:09Z</time></trkpt>
<trkpt lat="53.0068810000" lon="-4.0929050000"><ele>312</ele><time>2016-09-30T10:02:10Z</time></trkpt>
<trkpt lat="53.0068810000" lon="-4.0929050000"><ele>312</ele><time>2016-09-30T10:02:11Z</time></trkpt>
<trkpt lat="53.0068810000" lon="-4.0929060000"><ele>312</ele><time>2016-09-30T10:02:12Z</time></trkpt>
<trkpt lat="53.0068820000" lon="-4.0929070000"><ele>312</ele><time>2016-09-30T10:02:13Z</time></trkpt>
<trkpt lat="53.0068820000" lon="-4.0929070000"><ele>312</ele><time>2016-09-30T10:02:14Z</time></trkpt>
<trkpt lat="53.0068820000" lon="-4.0929080000"><ele>312</ele><time>2016-09-30T10:02:15Z</time></trkpt>
<trkpt lat="53.0068820000" lon="-4.0929080000"><ele>312</ele><time>2016-09-30T10:02:16Z</time></trkpt>
<trkpt lat="53.0068820000" lon="-4.0929090000"><ele>312</ele><time>2016-09-30T10:02:17Z</time></trkpt>
<trkpt lat="53.0068820000" lon="-4.0929090000"><ele>312</ele><time>2016-09-30T10:02:18Z</time></trkpt>
<trkpt lat="53.0068820000" lon="-4.0929090000"><ele>312</ele><time>2016-09-30T10:02:19Z</time></trkpt>
<trkpt lat="53.0068820000" lon="-4.0929100000"><ele>312</ele><time>2016-09-30T10:02:20Z</time></trkpt>
<trkpt lat="53.0068820000" lon="-4.0929100000"><ele>312</ele><time>2016-09-30T10:02:21Z</time></trkpt>
<trkpt lat="53.0068820000" lon="-4.0929110000"><ele>312</ele><time>2016-09-30T10:02:22Z</time></trkpt>
<trkpt lat="53.0068820000" lon="-4.0929110000"><ele>312</ele><time>2016-09-30T10:02:23Z</time></trkpt>
<trkpt lat="53.0068820000" lon="-4.0929120000"><ele>312</ele><time>2016-09-30T10:02:24Z</time></trkpt>
<trkpt lat="53.0068810000" lon="-4.0929130000"><ele>312</ele><time>2016-09-30T10:02:25Z</time></trkpt>
<trkpt lat="53.0068810000" lon="-4.0929130000"><ele>312</ele><time>2016-09-30T10:02:26Z</time></trkpt>
<trkpt lat="53.0068810000" lon="-4.0929130000"><ele>312</ele><time>2016-09-30T10:02:27Z</time></trkpt>
<trkpt lat="53.0068800000" lon="-4.0929130000"><ele>312</ele><time>2016-09-30T10:02:28Z</time></trkpt>
<trkpt lat="53.0068800000" lon="-4.0929130000"><ele>312</ele><time>2016-09-30T10:02:29Z</time></trkpt>
<trkpt lat="53.0068800000" lon="-4.0929130000"><ele>312</ele><time>2016-09-30T10:02:30Z</time></trkpt>
<trkpt lat="53.0068790000" lon="-4.0929130000"><ele>312</ele><time>2016-09-30T10:02:31Z</time></trkpt>
<trkpt lat="53.0068790000" lon="-4.0929130000"><ele>312</ele><time>2016-09-30T10:02:32Z</time></trkpt>
<trkpt lat="53.0068790000" lon="-4.0929130000"><ele>312</ele><time>2016-09-30T10:02:33Z</time></trkpt>
<trkpt lat="53.0068790000" lon="-4.0929130000"><ele>312</ele><time>2016-09-30T10:02:34Z</time></trkpt>
<trkpt lat="53.0068790000" lon="-4.0929130000"><ele>312</ele><time>2016-09-30T10:02:35Z</time></trkpt>
<trkpt lat="53.0068790000" lon="-4.0929130000"><ele>312</ele><time>2016-09-30T10:02:36Z</time></trkpt>
<trkpt lat="53.0068790000" lon="-4.0929130000"><ele>312</ele><time>2016-09-30T10:02:37Z</time></trkpt>
<trkpt lat="53.0068790000" lon="-4.0929130000"><ele>311</ele><time>2016-09-30T10:02:38Z</time></trkpt>
<trkpt lat="53.0068780000" lon="-4.0929140000"><ele>311</ele><time>2016-09-30T10:02:39Z</time></trkpt>
<trkpt lat="53.0068780000" lon="-4.0929140000"><ele>311</ele><time>2016-09-30T10:02:40Z</time></trkpt>
<trkpt lat="53.0068780000" lon="-4.0929140000"><ele>311</ele><time>2016-09-30T10:02:41Z</time></trkpt>
<trkpt lat="53.0068780000" lon="-4.0929140000"><ele>311</ele><time>2016-09-30T10:02:42Z</time></trkpt>
<trkpt lat="53.0068780000" lon="-4.0929150000"><ele>311</ele><time>2016-09-30T10:02:43Z</time></trkpt>
<trkpt lat="53.0068780000" lon="-4.0929160000"><ele>311</ele><time>2016-09-30T10:02:45Z</time></trkpt>
<trkpt lat="53.0068780000" lon="-4.0929160000"><ele>311</ele><time>2016-09-30T10:02:46Z</time></trkpt>
<trkpt lat="53.0068780000" lon="-4.0929170000"><ele>311</ele><time>2016-09-30T10:02:47Z</time></trkpt>
<trkpt lat="53.0068780000" lon="-4.0929170000"><ele>311</ele><time>2016-09-30T10:02:48Z</time></trkpt>
<trkpt lat="53.0068780000" lon="-4.0929180000"><ele>311</ele><time>2016-09-30T10:02:49Z</time></trkpt>
<trkpt lat="53.0068780000" lon="-4.0929180000"><ele>311</ele><time>2016-09-30T10:02:50Z</time></trkpt>
<trkpt lat="53.0068780000" lon="-4.0929190000"><ele>311</ele><time>2016-09-30T10:02:51Z</time></trkpt>
<trkpt lat="53.0068780000" lon="-4.0929190000"><ele>311</ele><time>2016-09-30T10:02:52Z</time></trkpt>
<trkpt lat="53.0068780000" lon="-4.0929200000"><ele>311</ele><time>2016-09-30T10:02:53Z</time></trkpt>
<trkpt lat="53.0068780000" lon="-4.0929200000"><ele>311</ele><time>2016-09-30T10:02:54Z</time></trkpt>
<trkpt lat="53.0068780000" lon="-4.0929200000"><ele>311</ele><time>2016-09-30T10:02:55Z</time></trkpt>
<trkpt lat="53.0068780000" lon="-4.0929200000"><ele>311</ele><time>2016-09-30T10:02:56Z</time></trkpt>
<trkpt lat="53.0068780000" lon="-4.0929200000"><ele>311</ele><time>2016-09-30T10:02:57Z</time></trkpt>
<trkpt lat="53.0068780000" lon="-4.0929200000"><ele>311</ele><time>2016-09-30T10:02:58Z</time></trkpt>
<trkpt lat="53.0068780000" lon="-4.0929210000"><ele>311</ele><time>2016-09-30T10:02:59Z</time></trkpt>
<trkpt lat="53.0068780000" lon="-4.0929210000"><ele>311</ele><time>2016-09-30T10:03:00Z</time></trkpt>
<trkpt lat="53.0068780000" lon="-4.0929220000"><ele>311</ele><time>2016-09-30T10:03:01Z</time></trkpt>
<trkpt lat="53.0068780000" lon="-4.0929220000"><ele>311</ele><time>2016-09-30T10:03:02Z</time></trkpt>
<trkpt lat="53.0068780000" lon="-4.0929220000"><ele>311</ele><time>2016-09-30T10:03:03Z</time></trkpt>
<trkpt lat="53.0068780000" lon="-4.0929220000"><ele>311</ele><time>2016-09-30T10:03:04Z</time></trkpt>
<trkpt lat="53.0068780000" lon="-4.0929220000"><ele>311</ele><time>2016-09-30T10:03:05Z</time></trkpt>
<trkpt lat="53.0068780000" lon="-4.0929220000"><ele>311</ele><time>2016-09-30T10:03:06Z</time></trkpt>
<trkpt lat="53.0068780000" lon="-4.0929230000"><ele>311</ele><time>2016-09-30T10:03:07Z</time></trkpt>
<trkpt lat="53.0068790000" lon="-4.0929230000"><ele>312</ele><time>2016-09-30T10:03:08Z</time></trkpt>
<trkpt lat="53.0068790000" lon="-4.0929230000"><ele>312</ele><time>2016-09-30T10:03:09Z</time></trkpt>
<trkpt lat="53.0068790000" lon="-4.0929230000"><ele>312</ele><time>2016-09-30T10:03:10Z</time></trkpt>
<trkpt lat="53.0068790000" lon="-4.0929220000"><ele>312</ele><time>2016-09-30T10:03:11Z</time></trkpt>
<trkpt lat="53.0068790000" lon="-4.0929220000"><ele>312</ele><time>2016-09-30T10:03:12Z</time></trkpt>
<trkpt lat="53.0068790000" lon="-4.0929220000"><ele>312</ele><time>2016-09-30T10:03:15Z</time></trkpt>
<trkpt lat="53.0068790000" lon="-4.0929210000"><ele>312</ele><time>2016-09-30T10:03:16Z</time></trkpt>
<trkpt lat="53.0068790000" lon="-4.0929210000"><ele>312</ele><time>2016-09-30T10:03:17Z</time></trkpt>
<trkpt lat="53.0068790000" lon="-4.0929200000"><ele>312</ele></trkpt>
<trkpt lat="53.0068790000" lon="-4.0929200000"><ele>312</ele><time>2016-09-30T10:03:19Z</time></trkpt>
<trkpt lat="53.0068790000" lon="-4.0929190000"><ele>312</ele><time>2016-09-30T10:03:20Z</time></trkpt>
<trkpt lat="53.0068790000" lon="-4.0929180000"><ele>312</ele><time>2016-09-30T10:03:21Z</time></trkpt>
<trkpt lat="53.0068790000" lon="-4.0929180000"><ele>312</ele><time>2016-09-30T10:03:22Z</time></trkpt>
<trkpt lat="53.0068790000" lon="-4.0929180000"><ele>312</ele><time>2016-09-30T10:03:23Z</time></trkpt>
<trkpt lat="53.0068790000" lon="-4.0929170000"><ele>312</ele></trkpt>
<trkpt lat="53.0068790000" lon="-4.0929170000"><ele>312</ele><time>2016-09-30T10:03:25Z</time></trkpt>
<trkpt lat="53.0068790000" lon="-4.0929170000"><ele>312</ele><time>2016-09-30T10:03:27Z</time></trkpt>
<trkpt lat="53.0068790000" lon="-4.0929180000"><ele>312</ele><time>2016-09-30T10:03:28Z</time></trkpt>
<trkpt lat="53.0068790000" lon="-4.0929180000"><ele>312</ele><time>2016-09-30T10:03:29Z</time></trkpt>
<trkpt lat="53.0068790000" lon="-4.0929190000"><ele>312</ele><time>2016-09-30T10:03:30Z</time></trkpt>
<trkpt lat="53.0068790000" lon="-4.0929200000"><ele>312</ele><time>2016-09-30T10:03:31Z</time></trkpt>
<trkpt lat="53.0068800000" lon="-4.0929200000"><ele>312</ele><time>2016-09-30T10:03:32Z</time></trkpt>
<trkpt lat="53.0068800000" lon="-4.0929210000"><ele>312</ele><time>2016-09-30T10:03:33Z</time></trkpt>
<trkpt lat="53.0068800000" lon="-4.0929210000"><ele>312</ele><time>2016-09-30T10:03:34Z</time></trkpt>
<trkpt lat="53.0068800000" lon="-4.0929210000"><ele>312</ele><time>2016-09-30T10:03:35Z</time></trkpt>
<trkpt lat="53.0068800000" lon="-4.0929210000"><ele>312</ele><time>2016-09-30T10:03:37Z</time></trkpt>
<trkpt lat="53.0068800000" lon="-4.0929210000"><ele>311</ele><time>2016-09-30T10:03:38Z</time></trkpt>
<trkpt lat="53.0068800000" lon="-4.0929210000"><ele>311</ele><time>2016-09-30T10:03:39Z</time></trkpt>
<trkpt lat="53.0068790000" lon="-4.0929150000"><ele>312</ele><time>2016-09-30T10:03:45Z</time></trkpt>
<trkpt lat="53.0068790000" lon="-4.0929140000"><ele>312</ele><time>2016-09-30T10:03:46Z</time></trkpt>
<trkpt lat="53.0068780000" lon="-4.0929130000"><ele>312</ele><time>2016-09-30T10:03:47Z</time></trkpt>
<trkpt lat="53.0068780000" lon="-4.0929120000"><ele>312</ele><time>2016-09-30T10:03:48Z</time></trkpt>
<trkpt lat="53.0068780000" lon="-4.0929110000"><ele>312</ele><time>2016-09-30T10:03:49Z</time></trkpt>
<trkpt lat="53.0068770000" lon="-4.0929090000"><ele>313</ele><time>2016-09-30T10:03:50Z</time></trkpt>
<trkpt lat="53.0068770000" lon="-4.0929080000"><ele>313</ele><time>2016-09-30T10:03:51Z</time></trkpt>
<trkpt lat="53.0068770000" lon="-4.0929070000"><ele>313</ele><time>2016-09-30T10:03:52Z</time></trkpt>
<trkpt lat="53.0068770000" lon="-4.0929060000"><ele>313</ele><time>2016-09-30T10:03:53Z</time></trkpt>
<trkpt lat="53.0068770000" lon="-4.0929050000"><ele>313</ele><time>2016-09-30T10:03:54Z</time></trkpt>
<trkpt lat="53.0068770000" lon="-4.0929050000"><ele>313</ele><time>2016-09-30T10:03:55Z</time></trkpt>
<trkpt lat="53.0068770000" lon="-4.0929050000"><ele>313</ele><time>2016-09-30T10:03:56Z</time></trkpt>
<trkpt lat="53.0068770000" lon="-4.0929040000"><ele>313</ele><time>2016-09-30T10:03:57Z</time></trkpt>
<trkpt lat="53.0068770000" lon="-4.0929040000"><ele>314</ele><time>2016-09-30T10:03:58Z</time></trkpt>
<trkpt lat="53.0068770000" lon="-4.0929040000"><ele>314</ele><time>2016-09-30T10:03:59Z</time></trkpt>
<trkpt lat="53.0068770000" lon="-4.0929040000"><ele>314</ele><time>2016-09-30T10:04:00Z</time></trkpt>
<trkpt lat="53.0068780000" lon="-4.0929040000"><ele>314</ele><time>2016-09-30T10:04:01Z</time></trkpt>
<trkpt lat="53.0068780000" lon="-4.0929040000"><ele>314</ele><time>2016-09-30T10:04:02Z</time></trkpt>
<trkpt lat="53.0068780000" lon="-4.0929040000"><ele>314</ele><time>2016-09-30T10:04:03Z</time></trkpt>
<trkpt lat="53.0068780000" lon="-4.0929040000"><ele>314</ele><time>2016-09-30T10:04:04Z</time></trkpt>
<trkpt lat="53.0068780000" lon="-4.0929040000"><ele>314</ele></trkpt>
<trkpt lat="53.0068780000" lon="-4.0929050000"><ele>314</ele><time>2016-09-30T10:04:06Z</time></trkpt>
<trkpt lat="53.0068790000" lon="-4.0929060000"><ele>314</ele><time>2016-09-30T10:04:07Z</time></trkpt>
<trkpt lat="53.0068790000" lon="-4.0929070000"><ele>314</ele><time>2016-09-30T10:04:08Z</time></trkpt>
<trkpt lat="53.0068800000" lon="-4.0929080000"><ele>314</ele><time>2016-09-30T10:04:09Z</time></trkpt>
<trkpt lat="53.0068800000" lon="-4.0929080000"><ele>314</ele><time>2016-09-30T10:04:10Z</time></trkpt>
<trkpt lat="53.0068800000" lon="-4.0929090000"><ele>314</ele><time>2016-09-30T10:04:11Z</time></trkpt>
<trkpt lat="53.0068810000" lon="-4.0929100000"><ele>314</ele><time>2016-09-30T10:04:12Z</time></trkpt>
<trkpt lat="53.0068810000" lon="-4.0929100000"><ele>314</ele><time>2016-09-30T10:04:13Z</time></trkpt>
<trkpt lat="53.0068810000" lon="-4.0929110000"><ele>314</ele><time>2016-09-30T10:04:14Z</time></trkpt>
<trkpt lat="53.0068820000" lon="-4.0929110000"><ele>314</ele><time>2016-09-30T10:04:15Z</time></trkpt>
<trkpt lat="53.0068820000" lon="-4.0929120000"><ele>314</ele><time>2016-09-30T10:04:16Z</time></trkpt>
<trkpt lat="53.0068820000" lon="-4.0929130000"><ele>314</ele><time>2016-09-30T10:04:17Z</time></trkpt>
<trkpt lat="53.0068830000" lon="-4.0929140000"><ele>314</ele><time>2016-09-30T10:04:18Z</time></trkpt>
<trkpt lat="53.0068830000" lon="-4.0929150000"><ele>314</ele><time>2016-09-30T10:04:19Z</time></trkpt>
<trkpt lat="53.0068840000" lon="-4.0929160000"><ele>314</ele><time>2016-09-30T10:04:20Z</time></trkpt>
<trkpt lat="53.0068840000" lon="-4.0929170000"><ele>314</ele><time>2016-09-30T10:04:21Z</time></trkpt>
<trkpt lat="53.0068850000" lon="-4.0929180000"><ele>314</ele><time>2016-09-30T10:04:22Z</time></trkpt>
<trkpt lat="53.0068850000" lon="-4.0929190000"><ele>314</ele><time>2016-09-30T10:04:23Z</time></trkpt>
<trkpt lat="53.0068860000" lon="-4.0929200000"><ele>314</ele><time>2016-09-30T10:04:24Z</time></trkpt>
<trkpt lat="53.0068860000" lon="-4.0929210000"><ele>314</ele><time>2016-09-30T10:04:25Z</time></trkpt>
<trkpt lat="53.0068860000" lon="-4.0929220000"><ele>314</ele><time>2016-09-30T10:04:26Z</time></trkpt>
<trkpt lat="53.0068860000" lon="-4.0929230000"><ele>314</ele><time>2016-09-30T10:04:27Z</time></trkpt>
<trkpt lat="53.0068860000" lon="-4.0929230000"><ele>314</ele><time>2016-09-30T10:04:28Z</time></trkpt>
<trkpt lat="53.0068860000" lon="-4.0929240000"><ele>313</ele><time>2016-09-30T10:04:29Z</time></trkpt>
<trkpt lat="53.0068860000" lon="-4.0929240000"><ele>313</ele></trkpt>
<trkpt lat="53.0068860000" lon="-4.0929250000"><ele>313</ele><time>2016-09-30T10:04:31Z</time></trkpt>
<trkpt lat="53.0068860000" lon="-4.0929250000"><ele>313</ele><time>2016-09-30T10:04:32Z</time></trkpt>
<trkpt lat="53.0068860000" lon="-4.0929250000"><ele>313</ele><time>2016-09-30T10:04:33Z</time></trkpt>
<trkpt lat="53.0068860000" lon="-4.0929260000"><ele>313</ele><time>2016-09-30T10:04:34Z</time></trkpt>
<trkpt lat="53.0068860000" lon="-4.0929260000"><ele>312</ele><time>2016-09-30T10:04:35Z</time></trkpt>
<trkpt lat="53.0068860000" lon="-4.0929260000"><ele>312</ele><time>2016-09-30T10:04:36Z</time></trkpt>
<trkpt lat="53.0068870000" lon="-4.0929270000"><ele>312</ele><time>2016-09-30T10:04:37Z</time></trkpt>
<trkpt lat="53.0068870000" lon="-4.0929270000"><ele>312</ele><time>2016-09-30T10:04:38Z</time></trkpt>
<trkpt lat="53.0068870000" lon="-4.0929270000"><ele>312</ele><time>2016-09-30T10:04:39Z</time></trkpt>
<trkpt lat="53.0068870000" lon="-4.0929280000"><ele>312</ele><time>2016-09-30T10:04:40Z</time></trkpt>
<trkpt lat="53.0068870000" lon="-4.0929290000"><ele>311</ele><time>2016-09-30T10:04:41Z</time></trkpt>
<trkpt lat="53.0068880000" lon="-4.0929290000"><ele>311</ele><time>2016-09-30T10:04:42Z</time></trkpt>
<trkpt lat="53.0068880000" lon="-4.0929290000"><ele>311</ele><time>2016-09-30T10:04:43Z</time></trkpt>
<trkpt lat="53.0068880000" lon="-4.0929300000"><ele>310</ele><time>2016-09-30T10:04:45Z</time></trkpt>
<trkpt lat="53.0068890000" lon="-4.0929300000"><ele>310</ele><time>2016-09-30T10:04:46Z</time></trkpt>
<trkpt lat="53.0068890000" lon="-4.0929300000"><ele>310</ele><time>2016-09-30T10:04:47Z</time></trkpt>
<trkpt lat="53.0068890000" lon="-4.0929300000"><ele>310</ele><time>2016-09-30T10:04:48Z</time></trkpt>
<trkpt lat="53.0068890000" lon="-4.0929300000"><ele>310</ele><time>2016-09-30T10:04:49Z</time></trkpt>
<trkpt lat="53.0068900000" lon="-4.0929300000"><ele>310</ele><time>2016-09-30T10:04:50Z</time></trkpt>
<trkpt lat="53.0068900000" lon="-4.0929290000"><ele>310</ele><time>2016-09-30T10:04:51Z</time></trkpt>
<trkpt lat="53.0068900000" lon="-4.0929290000"><ele>310</ele><time>2016-09-30T10:04:52Z</time></trkpt>
<trkpt lat="53.0068900000" lon="-4.0929280000"><ele>310</ele><time>2016-09-30T10:04:53Z</time></trkpt>
<trkpt lat="53.0068900000" lon="-4.0929270000"><ele>309</ele><time>2016-09-30T10:04:54Z</time></trkpt>
<trkpt lat="53.0068900000" lon="-4.0929270000"><ele>309</ele><time>2016-09-30T10:04:55Z</time></trkpt>
<trkpt lat="53.0068900000" lon="-4.0929260000"><ele>309</ele><time>2016-09-30T10:04:56Z</time></trkpt>
<trkpt lat="53.0068910000" lon="-4.0929250000"><ele>310</ele><time>2016-09-30T10:04:57Z</time></trkpt>
<trkpt lat="53.0068910000" lon="-4.0929240000"><ele>310</ele><time>2016-09-30T10:04:58Z</time></trkpt>
<trkpt lat="53.0068910000" lon="-4.0929230000"><ele>310</ele><time>2016-09-30T10:04:59Z</time></trkpt>
<trkpt lat="53.0068910000" lon="-4.0929230000"><ele>310</ele><time>2016-09-30T10:05:00Z</time></trkpt>
<trkpt lat="53.0068910000" lon="-4.0929220000"><ele>310</ele><time>2016-09-30T10:05:01Z</time></trkpt>
<trkpt lat="53.0068910000" lon="-4.0929220000"><ele>310</ele><time>2016-09-30T10:05:02Z</time></trkpt>
<trkpt lat="53.0068910000" lon="-4.0929210000"><ele>310</ele><time>2016-09-30T10:05:03Z</time></trkpt>
<trkpt lat="53.0068910000" lon="-4.0929200000"><ele>310</ele><time>2016-09-30T10:05:04Z</time></trkpt>
<trkpt lat="53.0068910000" lon="-4.0929200000"><ele>310</ele><time>2016-09-30T10:05:05Z</time></trkpt>
<trkpt lat="53.0068910000" lon="-4.0929190000"><ele>310</ele><time>2016-09-30T10:05:06Z</time></trkpt>
<trkpt lat="53.0068910000" lon="-4.0929190000"><ele>311</ele><time>2016-09-30T10:05:07Z</time></trkpt>
<trkpt lat="53.0068910000" lon="-4.0929180000"><ele>311</ele><time>2016-09-30T10:05:08Z</time></trkpt>
<trkpt lat="53.0068920000" lon="-4.0929180000"><ele>311</ele><time>2016-09-30T10:05:09Z</time></trkpt>
<trkpt lat="53.0068920000" lon="-4.0929170000"><ele>311</ele><time>2016-09-30T10:05:10Z</time></trkpt>
<trkpt lat="53.0068920000" lon="-4.0929170000"><ele>311</ele><time>2016-09-30T10:05:11Z</time></trkpt>
<trkpt lat="53.0068920000" lon="-4.0929160000"><ele>311</ele><time>2016-09-30T10:05:12Z</time></trkpt>
<trkpt lat="53.0068920000" lon="-4.0929160000"><ele>311</ele><time>2016-09-30T10:05:13Z</time></trkpt>
<trkpt lat="53.0068920000" lon="-4.0929160000"><ele>311</ele><time>2016-09-30T10:05:14Z</time></trkpt>
<trkpt lat="53.0068920000" lon="-4.0929160000"><ele>312</ele><time>2016-09-30T10:05:15Z</time></trkpt>
<trkpt lat="53.0068930000" lon="-4.0929160000"><ele>312</ele><time>2016-09-30T10:05:16Z</time></trkpt>
<trkpt lat="53.0068930000" lon="-4.0929150000"><ele>312</ele><time>2016-09-30T10:05:17Z</time></trkpt>
<trkpt lat="53.0068930000" lon="-4.0929150000"><ele>312</ele><time>2016-09-30T10:05:18Z</time></trkpt>
<trkpt lat="53.0068930000" lon="-4.0929150000"><ele>312</ele><time>2016-09-30T10:05:19Z</time></trkpt>
<trkpt lat="53.0068930000" lon="-4.0929150000"><ele>312</ele><time>2016-09-30T10:05:20Z</time></trkpt>
<trkpt lat="53.0068930000" lon="-4.0929140000"><ele>312</ele><time>2016-09-30T10:05:21Z</time></trkpt>
<trkpt lat="53.0068930000" lon="-4.0929140000"><ele>312</ele><time>2016-09-30T10:05:22Z</time></trkpt>
<trkpt lat="53.0068930000" lon="-4.0929140000"><ele>312</ele><time>2016-09-30T10:05:23Z</time></trkpt>
<trkpt lat="53.0068930000" lon="-4.0929140000"><ele>313</ele></trkpt>
<trkpt lat="53.0068930000" lon="-4.0929130000"><ele>313</ele><time>2016-09-30T10:05:25Z</time></trkpt>
<trkpt lat="53.0068930000" lon="-4.0929130000"><ele>313</ele><time>2016-09-30T10:05:26Z</time></trkpt>
<trkpt lat="53.0068930000" lon="-4.0929130000"><ele>313</ele><time>2016-09-30T10:05:27Z</time></trkpt>
<trkpt lat="53.0068940000" lon="-4.0929130000"><ele>313</ele><time>2016-09-30T10:05:28Z</time></trkpt>
<trkpt lat="53.0068940000" lon="-4.0929120000"><ele>313</ele><time>2016-09-30T10:05:29Z</time></trkpt>
<trkpt lat="53.0068940000" lon="-4.0929120000"><ele>313</ele></trkpt>
<trkpt lat="53.0068940000" lon="-4.0929120000"><ele>313</ele><time>2016-09-30T10:05:31Z</time></trkpt>
<trkpt lat="53.0068940000" lon="-4.0929120000"><ele>313</ele><time>2016-09-30T10:05:32Z</time></trkpt>
<trkpt lat="53.0068940000" lon="-4.0929120000"><ele>313</ele><time>2016-09-30T10:05:33Z</time></trkpt>
<trkpt lat="53.0068930000" lon="-4.0929120000"><ele>313</ele><time>2016-09-30T10:05:34Z</time></trkpt>
<trkpt lat="53.0068930000" lon="-4.0929120000"><ele>313</ele><time>2016-09-30T10:05:35Z</time></trkpt>
<trkpt lat="53.0068930000" lon="-4.0929120000"><ele>313</ele><time>2016-09-30T10:05:36Z</time></trkpt>
<trkpt lat="53.0068930000" lon="-4.0929120000"><ele>313</ele><time>2016-09-30T10:05:37Z</time></trkpt>
<trkpt lat="53.0068930000" lon="-4.0929120000"><ele>313</ele><time>2016-09-30T10:05:38Z</time></trkpt>
<trkpt lat="53.0068930000" lon="-4.0929120000"><ele>313</ele><time>2016-09-30T10:05:39Z</time></trkpt>
<trkpt lat="53.0068930000" lon="-4.0929110000"><ele>313</ele><time>2016-09-30T10:05:40Z</time></trkpt>
<trkpt lat="53.0068930000" lon="-4.0929110000"><ele>313</ele><time>2016-09-30T10:05:41Z</time></trkpt>
<trkpt lat="53.0068930000" lon="-4.0929110000"><ele>313</ele><time>2016-09-30T10:05:42Z</time></trkpt>
<trkpt lat="53.0068930000" lon="-4.0929100000"><ele>313</ele><time>2016-09-30T10:05:43Z</time></trkpt>
<trkpt lat="53.0068930000" lon="-4.0929090000"><ele>314</ele><time>2016-09-30T10:05:45Z</time></trkpt>
<trkpt lat="53.0068930000" lon="-4.0929090000"><ele>314</ele></trkpt>
<trkpt lat="53.0068930000" lon="-4.0929090000"><ele>314</ele><time>2016-09-30T10:05:48Z</time></trkpt>
<trkpt lat="53.0068930000" lon="-4.0929090000"><ele>314</ele><time>2016-09-30T10:05:49Z</time></trkpt>
<trkpt lat="53.0068930000" lon="-4.0929100000"><ele>314</ele><time>2016-09-30T10:05:50Z</time></trkpt>
<trkpt lat="53.0068930000" lon="-4.0929100000"><ele>314</ele><time>2016-09-30T10:05:51Z</time></trkpt>
<trkpt lat="53.0068930000" lon="-4.0929100000"><ele>314</ele><time>2016-09-30T10:05:52Z</time></trkpt>
<trkpt lat="53.0068930000" lon="-4.0929100000"><ele>314</ele><time>2016-09-30T10:05:53Z</time></trkpt>
<trkpt lat="53.0068930000" lon="-4.0929110000"><ele>314</ele><time>2016-09-30T10:05:54Z</time></trkpt>
<trkpt lat="53.0068930000" lon="-4.0929110000"><ele>314</ele><time>2016-09-30T10:05:55Z</time></trkpt>
<trkpt lat="53.0068940000" lon="-4.0929110000"><ele>314</ele><time>2016-09-30T10:05:56Z</time></trkpt>
<trkpt lat="53.0068940000" lon="-4.0929120000"><ele>314</ele><time>2016-09-30T10:05:57Z</time></trkpt>
<trkpt lat="53.0068940000" lon="-4.0929120000"><ele>314</ele><time>2016-09-30T10:05:58Z</time></trkpt>
<trkpt lat="53.0068940000" lon="-4.0929120000"><ele>314</ele></trkpt>
<trkpt lat="53.0068940000" lon="-4.0929120000"><ele>314</ele><time>2016-09-30T10:06:00Z</time></trkpt>
<trkpt lat="53.0068940000" lon="-4.0929120000"><ele>314</ele><time>2016-09-30T10:06:01Z</time></trkpt>
<trkpt lat="53.0068940000" lon="-4.0929120000"><ele>315</ele><time>2016-09-30T10:06:03Z</time></trkpt>
<trkpt lat="53.0068940000" lon="-4.0929120000"><ele>315</ele><time>2016-09-30T10:06:04Z</time></trkpt>
<trkpt lat="53.0068940000" lon="-4.0929120000"><ele>315</ele><time>2016-09-30T10:06:05Z</time></trkpt>
<trkpt lat="53.0068940000" lon="-4.0929120000"><ele>315</ele><time>2016-09-30T10:06:06Z</time></trkpt>
<trkpt lat="53.0068940000" lon="-4.0929110000"><ele>315</ele><time>2016-09-30T10:06:07Z</time></trkpt>
<trkpt lat="53.0068940000" lon="-4.0929110000"><ele>315</ele><time>2016-09-30T10:06:08Z</time></trkpt>
<trkpt lat="53.0068940000" lon="-4.0929110000"><ele>315</ele><time>2016-09-30T10:06:09Z</time></trkpt>
<trkpt lat="53.0068930000" lon="-4.0929110000"><ele>315</ele><time>2016-09-30T10:06:10Z</time></trkpt>
<trkpt lat="53.0068930000" lon="-4.0929100000"><ele>316</ele></trkpt>
<trkpt lat="53.0068910000" lon="-4.0929080000"><ele>316</ele><time>2016-09-30T10:06:17Z</time></trkpt>
<trkpt lat="53.0068900000" lon="-4.0929080000"><ele>316</ele><time>2016-09-30T10:06:18Z</time></trkpt>
<trkpt lat="53.0068900000" lon="-4.0929080000"><ele>316</ele><time>2016-09-30T10:06:19Z</time></trkpt>
<trkpt lat="53.0068890000" lon="-4.0929070000"><ele>316</ele><time>2016-09-30T10:06:20Z</time></trkpt>
<trkpt lat="53.0068890000" lon="-4.0929070000"><ele>316</ele><time>2016-09-30T10:06:21Z</time></trkpt>
<trkpt lat="53.0068890000" lon="-4.0929070000"><ele>316</ele><time>2016-09-30T10:06:22Z</time></trkpt>
<trkpt lat="53.0068880000" lon="-4.0929070000"><ele>316</ele><time>2016-09-30T10:06:23Z</time></trkpt>
<trkpt lat="53.0068880000" lon="-4.0929070000"><ele>316</ele></trkpt>
<trkpt lat="53.0068870000" lon="-4.0929070000"><ele>316</ele><time>2016-09-30T10:06:25Z</time></trkpt>
<trkpt lat="53.0068870000" lon="-4.0929070000"><ele>316</ele><time>2016-09-30T10:06:26Z</time></trkpt>
<trkpt lat="53.0068860000" lon="-4.0929070000"><ele>316</ele><time>2016-09-30T10:06:27Z</time></trkpt>
<trkpt lat="53.0068820000" lon="-4.0929070000"><ele>317</ele><time>2016-09-30T10:06:36Z</time></trkpt>
<trkpt lat="53.0068810000" lon="-4.0929080000"><ele>317</ele><time>2016-09-30T10:06:37Z</time></trkpt>
<trkpt lat="53.0068810000" lon="-4.0929090000"><ele>317</ele><time>2016-09-30T10:06:38Z</time></trkpt>
<trkpt lat="53.0068810000" lon="-4.0929090000"><ele>317</ele><time>2016-09-30T10:06:39Z</time></trkpt>
<trkpt lat="53.0068800000" lon="-4.0929100000"><ele>317</ele><time>2016-09-30T10:06:40Z</time></trkpt>
<trkpt lat="53.0068800000" lon="-4.0929110000"><ele>317</ele><time>2016-09-30T10:06:41Z</time></trkpt>
<trkpt lat="53.0068800000" lon="-4.0929120000"><ele>317</ele><time>2016-09-30T10:06:42Z</time></trkpt>
<trkpt lat="53.0068790000" lon="-4.0929120000"><ele>317</ele><time>2016-09-30T10:06:43Z</time></trkpt>
<trkpt lat="53.0068790000" lon="-4.0929140000"><ele>317</ele><time>2016-09-30T10:06:45Z</time></trkpt>
<trkpt lat="53.0068780000" lon="-4.0929150000"><ele>317</ele></trkpt>
<trkpt lat="53.0068780000" lon="-4.0929160000"><ele>317</ele><time>2016-09-30T10:06:47Z</time></trkpt>
<trkpt lat="53.0068780000" lon="-4.0929160000"><ele>317</ele><time>2016-09-30T10:06:48Z</time></trkpt>
<trkpt lat="53.0068770000" lon="-4.0929210000"><ele>314</ele><time>2016-09-30T10:07:20Z</time></trkpt>
<trkpt lat="53.0068770000" lon="-4.0929200000"><ele>314</ele><time>2016-09-30T10:07:21Z</time></trkpt>
<trkpt lat="53.0068770000" lon="-4.0929200000"><ele>314</ele><time>2016-09-30T10:07:22Z</time></trkpt>
<trkpt lat="53.0068770000" lon="-4.0929200000"><ele>314</ele><time>2016-09-30T10:07:23Z</time></trkpt>
<trkpt lat="53.0068770000" lon="-4.0929200000"><ele>314</ele><time>2016-09-30T10:07:24Z</time></trkpt>
<trkpt lat="53.0068770000" lon="-4.0929200000"><ele>314</ele><time>2016-09-30T10:07:25Z</time></trkpt>
<trkpt lat="53.0068780000" lon="-4.0929200000"><ele>314</ele><time>2016-09-30T10:07:26Z</time></trkpt>
<trkpt lat="53.0068780000" lon="-4.0929200000"><ele>314</ele><time>2016-09-30T10:07:27Z</time></trkpt>
<trkpt lat="53.0068780000" lon="-4.0929190000"><ele>314</ele><time>2016-09-30T10:07:28Z</time></trkpt>
<trkpt lat="53.0068790000" lon="-4.0929190000"><ele>314</ele><time>2016-09-30T10:07:29Z</time></trkpt>
<trkpt lat="53.0068790000" lon="-4.0929190000"><ele>314</ele><time>2016-09-30T10:07:30Z</time></trkpt>
<trkpt lat="53.0068800000" lon="-4.0929190000"><ele>314</ele><time>2016-09-30T10:07:31Z</time></trkpt>
<trkpt lat="53.0068800000" lon="-4.0929180000"><ele>314</ele><time>2016-09-30T10:07:32Z</time></trkpt>
<trkpt lat="53.0068800000" lon="-4.0929180000"><ele>314</ele><time>2016-09-30T10:07:33Z</time></trkpt>
<trkpt lat="53.0068810000" lon="-4.0929180000"><ele>313</ele><time>2016-09-30T10:07:34Z</time></trkpt>
<trkpt lat="53.0068810000" lon="-4.0929170000"><ele>313</ele><time>2016-09-30T10:07:35Z</time></trkpt>
<trkpt lat="53.0068810000" lon="-4.0929170000"><ele>313</ele><time>2016-09-30T10:07:36Z</time></trkpt>
<trkpt lat="53.0068820000" lon="-4.0929160000"><ele>313</ele><time>2016-09-30T10:07:37Z</time></trkpt>
<trkpt lat="53.0068820000" lon="-4.0929160000"><ele>313</ele><time>2016-09-30T10:07:38Z</time></trkpt>
<trkpt lat="53.0068820000" lon="-4.0929160000"><ele>313</ele><time>2016-09-30T10:07:39Z</time></trkpt>
<trkpt lat="53.0068820000" lon="-4.0929150000"><ele>313</ele><time>2016-09-30T10:07:40Z</time></trkpt>
<trkpt lat="53.0068820000" lon="-4.0929150000"><ele>313</ele><time>2016-09-30T10:07:41Z</time></trkpt>
<trkpt lat="53.0068820000" lon="-4.0929140000"><ele>313</ele><time>2016-09-30T10:07:42Z</time></trkpt>
<trkpt lat="53.0068820000" lon="-4.0929140000"><ele>313</ele><time>2016-09-30T10:07:43Z</time></trkpt>
<trkpt lat="53.0068820000" lon="-4.0929140000"><ele>313</ele><time>2016-09-30T10:07:45Z</time></trkpt>
<trkpt lat="53.0068820000" lon="-4.0929130000"><ele>313</ele></trkpt>
<trkpt lat="53.0068820000" lon="-4.0929130000"><ele>313</ele><time>2016-09-30T10:07:47Z</time></trkpt>
<trkpt lat="53.0068820000" lon="-4.0929130000"><ele>313</ele><time>2016-09-30T10:07:48Z</time></trkpt>
<trkpt lat="53.0068820000" lon="-4.0929130000"><ele>313</ele><time>2016-09-30T10:07:49Z</time></trkpt>
<trkpt lat="53.0068820000" lon="-4.0929130000"><ele>313</ele><time>2016-09-30T10:07:50Z</time></trkpt>
<trkpt lat="53.0068820000" lon="-4.0929130000"><ele>313</ele><time>2016-09-30T10:07:51Z</time></trkpt>
<trkpt lat="53.0068810000" lon="-4.0929130000"><ele>313</ele><time>2016-09-30T10:07:52Z</time></trkpt>
<trkpt lat="53.0068810000" lon="-4.0929130000"><ele>313</ele><time>2016-09-30T10:07:53Z</time></trkpt>
<trkpt lat="53.0068810000" lon="-4.0929120000"><ele>313</ele><time>2016-09-30T10:07:54Z</time></trkpt>
<trkpt lat="53.0068810000" lon="-4.0929120000"><ele>314</ele><time>2016-09-30T10:07:55Z</time></trkpt>
<trkpt lat="53.0068810000" lon="-4.0929110000"><ele>314</ele><time>2016-09-30T10:07:56Z</time></trkpt>
<trkpt lat="53.0068810000" lon="-4.0929110000"><ele>314</ele><time>2016-09-30T10:07:57Z</time></trkpt>
<trkpt lat="53.0068800000" lon="-4.0929110000"><ele>314</ele><time>2016-09-30T10:07:58Z</time></trkpt>
<trkpt lat="53.0068800000" lon="-4.0929100000"><ele>314</ele><time>2016-09-30T10:07:59Z</time></trkpt>
<trkpt lat="53.0068800000" lon="-4.0929100000"><ele>314</ele><time>2016-09-30T10:08:00Z</time></trkpt>
<trkpt lat="53.0068790000" lon="-4.0929090000"><ele>314</ele><time>2016-09-30T10:08:01Z</time></trkpt>
<trkpt lat="53.0068790000" lon="-4.0929090000"><ele>314</ele><time>2016-09-30T10:08:02Z</time></trkpt>
<trkpt lat="53.0068790000" lon="-4.0929080000"><ele>315</ele><time>2016-09-30T10:08:03Z</time></trkpt>
<trkpt lat="53.0068790000" lon="-4.0929070000"><ele>315</ele><time>2016-09-30T10:08:04Z</time></trkpt>
<trkpt lat="53.0068790000" lon="-4.0929070000"><ele>315</ele></trkpt>
<trkpt lat="53.0068800000" lon="-4.0929060000"><ele>315</ele><time>2016-09-30T10:08:06Z</time></trkpt>
<trkpt lat="53.0068800000" lon="-4.0929060000"><ele>316</ele><time>2016-09-30T10:08:07Z</time></trkpt>
<trkpt lat="53.0068800000" lon="-4.0929050000"><ele>316</ele><time>2016-09-30T10:08:08Z</time></trkpt>
<trkpt lat="53.0068800000" lon="-4.0929050000"><ele>316</ele><time>2016-09-30T10:08:09Z</time></trkpt>
<trkpt lat="53.0068810000" lon="-4.0929040000"><ele>316</ele><time>2016-09-30T10:08:10Z</time></trkpt>
<trkpt lat="53.0068810000" lon="-4.0929040000"><ele>316</ele><time>2016-09-30T10:08:11Z</time></trkpt>
<trkpt lat="53.0068810000" lon="-4.0929040000"><ele>316</ele><time>2016-09-30T10:08:12Z</time></trkpt>
<trkpt lat="53.0068810000" lon="-4.0929040000"><ele>316</ele><time>2016-09-30T10:08:13Z</time></trkpt>
<trkpt lat="53.0068820000" lon="-4.0929040000"><ele>316</ele><time>2016-09-30T10:08:14Z</time></trkpt>
<trkpt lat="53.0068820000" lon="-4.0929030000"><ele>316</ele><time>2016-09-30T10:08:15Z</time></trkpt>
<trkpt lat="53.0068810000" lon="-4.0929030000"><ele>316</ele><time>2016-09-30T10:08:16Z</time></trkpt>
<trkpt lat="53.0068810000" lon="-4.0929020000"><ele>316</ele><time>2016-09-30T10:08:17Z</time></trkpt>
<trkpt lat="53.0068810000" lon="-4.0929020000"><ele>316</ele><time>2016-09-30T10:08:18Z</time></trkpt>
<trkpt lat="53.0068800000" lon="-4.0929010000"><ele>316</ele><time>2016-09-30T10:08:19Z</time></trkpt>
<trkpt lat="53.0068800000" lon="-4.0929000000"><ele>316</ele><time>2016-09-30T10:08:20Z</time></trkpt>
<trkpt lat="53.0068800000" lon="-4.0929000000"><ele>316</ele><time>2016-09-30T10:08:21Z</time></trkpt>
<trkpt lat="53.0068790000" lon="-4.0928990000"><ele>316</ele><time>2016-09-30T10:08:22Z</time></trkpt>
<trkpt lat="53.0068790000" lon="-4.0928980000"><ele>316</ele><time>2016-09-30T10:08:23Z</time></trkpt>
<trkpt lat="53.0068780000" lon="-4.0928970000"><ele>316</ele><time>2016-09-30T10:08:24Z</time></trkpt>
<trkpt lat="53.0068780000" lon="-4.0928970000"><ele>316</ele><time>2016-09-30T10:08:25Z</time></trkpt>
<trkpt lat="53.0068770000" lon="-4.0928970000"><ele>316</ele><time>2016-09-30T10:08:26Z</time></trkpt>
<trkpt lat="53.0068770000" lon="-4.0928960000"><ele>316</ele><time>2016-09-30T10:08:27Z</time></trkpt>
<trkpt lat="53.0068760000" lon="-4.0928960000"><ele>316</ele><time>2016-09-30T10:08:28Z</time></trkpt>
<trkpt lat="53.0068760000" lon="-4.0928950000"><ele>316</ele><time>2016-09-30T10:08:29Z</time></trkpt>
<trkpt lat="53.0068760000" lon="-4.0928940000"><ele>316</ele><time>2016-09-30T10:08:30Z</time></trkpt>
<trkpt lat="53.0068760000" lon="-4.0928930000"><ele>317</ele><time>2016-09-30T10:08:31Z</time></trkpt>
<trkpt lat="53.0068750000" lon="-4.0928920000"><ele>317</ele><time>2016-09-30T10:08:32Z</time></trkpt>
<trkpt lat="53.0068750000" lon="-4.0928910000"><ele>317</ele><time>2016-09-30T10:08:33Z</time></trkpt>
<trkpt lat="53.0068750000" lon="-4.0928900000"><ele>317</ele><time>2016-09-30T10:08:34Z</time></trkpt>
<trkpt lat="53.0068750000" lon="-4.0928890000"><ele>317</ele><time>2016-09-30T10:08:35Z</time></trkpt>
<trkpt lat="53.0068750000" lon="-4.0928880000"><ele>317</ele><time>2016-09-30T10:08:36Z</time></trkpt>
<trkpt lat="53.0068750000" lon="-4.0928870000"><ele>317</ele><time>2016-09-30T10:08:37Z</time></trkpt>
<trkpt lat="53.0068760000" lon="-4.0928860000"><ele>317</ele><time>2016-09-30T10:08:38Z</time></trkpt>
<trkpt lat="53.0068760000" lon="-4.0928860000"><ele>317</ele><time>2016-09-30T10:08:39Z</time></trkpt>
<trkpt lat="53.0068760000" lon="-4.0928860000"><ele>317</ele><time>2016-09-30T10:08:40Z</time></trkpt>
<trkpt lat="53.0068760000" lon="-4.0928870000"><ele>316</ele><time>2016-09-30T10:08:41Z</time></trkpt>
<trkpt lat="53.0068800000" lon="-4.0928960000"><ele>315</ele><time>2016-09-30T10:08:50Z</time></trkpt>
<trkpt lat="53.0068800000" lon="-4.0928970000"><ele>315</ele><time>2016-09-30T10:08:51Z</time></trkpt>
<trkpt lat="53.0068800000" lon="-4.0928990000"><ele>315</ele><time>2016-09-30T10:08:52Z</time></trkpt>
<trkpt lat="53.0068810000" lon="-4.0929000000"><ele>315</ele><time>2016-09-30T10:08:53Z</time></trkpt>
<trkpt lat="53.0068810000" lon="-4.0929010000"><ele>315</ele><time>2016-09-30T10:08:54Z</time></trkpt>
<trkpt lat="53.0068810000" lon="-4.0929020000"><ele>315</ele><time>2016-09-30T10:08:55Z</time></trkpt>
<trkpt lat="53.0068820000" lon="-4.0929030000"><ele>315</ele><time>2016-09-30T10:08:56Z</time></trkpt>
<trkpt lat="53.0068820000" lon="-4.0929040000"><ele>314</ele><time>2016-09-30T10:08:57Z</time></trkpt>
<trkpt lat="53.0068830000" lon="-4.0929050000"><ele>314</ele><time>2016-09-30T10:08:58Z</time></trkpt>
<trkpt lat="53.0068830000" lon="-4.0929050000"><ele>314</ele><time>2016-09-30T10:08:59Z</time></trkpt>
<trkpt lat="53.0068830000" lon="-4.0929060000"><ele>314</ele><time>2016-09-30T10:09:00Z</time></trkpt>
<trkpt lat="53.0068830000" lon="-4.0929070000"><ele>314</ele><time>2016-09-30T10:09:01Z</time></trkpt>
<trkpt lat="53.0068840000" lon="-4.0929070000"><ele>314</ele><time>2016-09-30T10:09:02Z</time></trkpt>
<trkpt lat="53.0068840000" lon="-4.0929070000"><ele>314</ele><time>2016-09-30T10:09:03Z</time></trkpt>
<trkpt lat="53.0068840000" lon="-4.0929070000"><ele>314</ele><time>2016-09-30T10:09:04Z</time></trkpt>
<trkpt lat="53.0068840000" lon="-4.0929080000"><ele>314</ele><time>2016-09-30T10:09:05Z</time></trkpt>
<trkpt lat="53.0068840000" lon="-4.0929080000"><ele>314</ele><time>2016-09-30T10:09:06Z</time></trkpt>
<trkpt lat="53.0068840000" lon="-4.0929080000"><ele>315</ele><time>2016-09-30T10:09:07Z</time></trkpt>
<trkpt lat="53.0068840000" lon="-4.0929090000"><ele>315</ele><time>2016-09-30T10:09:08Z</time></trkpt>
<trkpt lat="53.0068840000" lon="-4.0929090000"><ele>315</ele><time>2016-09-30T10:09:09Z</time></trkpt>
<trkpt lat="53.0068840000" lon="-4.0929090000"><ele>315</ele><time>2016-09-30T10:09:10Z</time></trkpt>
<trkpt lat="53.0068840000" lon="-4.0929100000"><ele>315</ele><time>2016-09-30T10:09:11Z</time></trkpt>
<trkpt lat="53.0068840000" lon="-4.0929100000"><ele>315</ele><time>2016-09-30T10:09:12Z</time></trkpt>
<trkpt lat="53.0068840000" lon="-4.0929100000"><ele>315</ele><time>2016-09-30T10:09:13Z</time></trkpt>
<trkpt lat="53.0068840000" lon="-4.0929110000"><ele>315</ele><time>2016-09-30T10:09:14Z</time></trkpt>
<trkpt lat="53.0068840000" lon="-4.0929110000"><ele>315</ele><time>2016-09-30T10:09:15Z</time></trkpt>
<trkpt lat="53.0068840000" lon="-4.0929110000"><ele>315</ele><time>2016-09-30T10:09:16Z</time></trkpt>
<trkpt lat="53.0068840000" lon="-4.0929120000"><ele>315</ele><time>2016-09-30T10:09:17Z</time></trkpt>
<trkpt lat="53.0068840000" lon="-4.0929120000"><ele>315</ele><time>2016-09-30T10:09:18Z</time></trkpt>
<trkpt lat="53.0068840000" lon="-4.0929130000"><ele>315</ele><time>2016-09-30T10:09:19Z</time></trkpt>
<trkpt lat="53.0068840000" lon="-4.0929130000"><ele>315</ele><time>2016-09-30T10:09:20Z</time></trkpt>
<trkpt lat="53.0068840000" lon="-4.0929140000"><ele>315</ele><time>2016-09-30T10:09:21Z</time></trkpt>
<trkpt lat="53.0068840000" lon="-4.0929140000"><ele>315</ele><time>2016-09-30T10:09:22Z</time></trkpt>
<trkpt lat="53.0068840000" lon="-4.0929150000"><ele>315</ele><time>2016-09-30T10:09:23Z</time></trkpt>
<trkpt lat="53.0068840000" lon="-4.0929150000"><ele>315</ele><time>2016-09-30T10:09:24Z</time></trkpt>
<trkpt lat="53.0068830000" lon="-4.0929160000"><ele>315</ele><time>2016-09-30T10:09:25Z</time></trkpt>
<trkpt lat="53.0068830000" lon="-4.0929160000"><ele>315</ele><time>2016-09-30T10:09:26Z</time></trkpt>
<trkpt lat="53.0068830000" lon="-4.0929170000"><ele>315</ele><time>2016-09-30T10:09:27Z</time></trkpt>
<trkpt lat="53.0068820000" lon="-4.0929170000"><ele>315</ele><time>2016-09-30T10:09:28Z</time></trkpt>
<trkpt lat="53.0068820000" lon="-4.0929170000"><ele>315</ele><time>2016-09-30T10:09:29Z</time></trkpt>
<trkpt lat="53.0068810000" lon="-4.0929180000"><ele>314</ele><time>2016-09-30T10:09:30Z</time></trkpt>
<trkpt lat="53.0068810000" lon="-4.0929180000"><ele>314</ele><time>2016-09-30T10:09:31Z</time></trkpt>
<trkpt lat="53.0068810000" lon="-4.0929180000"><ele>314</ele><time>2016-09-30T10:09:32Z</time></trkpt>
<trkpt lat="53.0068800000" lon="-4.0929190000"><ele>314</ele><time>2016-09-30T10:09:33Z</time></trkpt>
<trkpt lat="53.0068800000" lon="-4.0929190000"><ele>314</ele><time>2016-09-30T10:09:34Z</time></trkpt>
<trkpt lat="53.0068800000" lon="-4.0929190000"><ele>314</ele><time>2016-09-30T10:09:35Z</time></trkpt>
<trkpt lat="53.0068800000" lon="-4.0929190000"><ele>314</ele><time>2016-09-30T10:09:36Z</time></trkpt>
<trkpt lat="53.0068790000" lon="-4.0929200000"><ele>314</ele><time>2016-09-30T10:09:37Z</time></trkpt>
<trkpt lat="53.0068790000" lon="-4.0929200000"><ele>313</ele><time>2016-09-30T10:09:38Z</time></trkpt>
<trkpt lat="53.0068790000" lon="-4.0929210000"><ele>313</ele><time>2016-09-30T10:09:39Z</time></trkpt>
<trkpt lat="53.0068790000" lon="-4.0929210000"><ele>313</ele><time>2016-09-30T10:09:40Z</time></trkpt>
<trkpt lat="53.0068790000" lon="-4.0929210000"><ele>313</ele><time>2016-09-30T10:09:41Z</time></trkpt>
<trkpt lat="53.0068790000" lon="-4.0929220000"><ele>313</ele><time>2016-09-30T10:09:42Z</time></trkpt>
<trkpt lat="53.0068790000" lon="-4.0929220000"><ele>313</ele></trkpt>
<trkpt lat="53.0068790000" lon="-4.0929220000"><ele>312</ele><time>2016-09-30T10:09:45Z</time></trkpt>
<trkpt lat="53.0068780000" lon="-4.0929220000"><ele>312</ele><time>2016-09-30T10:09:48Z</time></trkpt>
<trkpt lat="53.0068780000" lon="-4.0929220000"><ele>312</ele><time>2016-09-30T10:09:49Z</time></trkpt>
<trkpt lat="53.0068780000" lon="-4.0929220000"><ele>312</ele><time>2016-09-30T10:09:50Z</time></trkpt>
<trkpt lat="53.0068780000" lon="-4.0929220000"><ele>312</ele><time>2016-09-30T10:09:51Z</time></trkpt>
<trkpt lat="53.0068770000" lon="-4.0929220000"><ele>312</ele><time>2016-09-30T10:09:52Z</time></trkpt>
<trkpt lat="53.0068770000" lon="-4.0929220000"><ele>312</ele><time>2016-09-30T10:09:53Z</time></trkpt>
<trkpt lat="53.0068770000" lon="-4.0929220000"><ele>311</ele><time>2016-09-30T10:09:54Z</time></trkpt>
<trkpt lat="53.0068760000" lon="-4.0929220000"><ele>311</ele><time>2016-09-30T10:09:55Z</time></trkpt>
<trkpt lat="53.0068760000" lon="-4.0929220000"><ele>311</ele><time>2016-09-30T10:09:56Z</time></trkpt>
<trkpt lat="53.0068750000" lon="-4.0929220000"><ele>311</ele><time>2016-09-30T10:09:57Z</time></trkpt>
<trkpt lat="53.0068750000" lon="-4.0929220000"><ele>311</ele><time>2016-09-30T10:09:58Z</time></trkpt>
<trkpt lat="53.0068750000" lon="-4.0929220000"><ele>311</ele></trkpt>
<trkpt lat="53.0068740000" lon="-4.0929210000"><ele>311</ele><time>2016-09-30T10:10:00Z</time></trkpt>
<trkpt lat="53.0068740000" lon="-4.0929200000"><ele>311</ele><time>2016-09-30T10:10:01Z</time></trkpt>
<trkpt lat="53.0068740000" lon="-4.0929190000"><ele>311</ele><time>2016-09-30T10:10:02Z</time></trkpt>
<trkpt lat="53.0068740000" lon="-4.0929180000"><ele>311</ele><time>2016-09-30T10:10:03Z</time></trkpt>
<trkpt lat="53.0068740000" lon="-4.0929170000"><ele>311</ele><time>2016-09-30T10:10:04Z</time></trkpt>
<trkpt lat="53.0068740000" lon="-4.0929160000"><ele>311</ele><time>2016-09-30T10:10:05Z</time></trkpt>
<trkpt lat="53.0068750000" lon="-4.0929150000"><ele>311</ele><time>2016-09-30T10:10:06Z</time></trkpt>
<trkpt lat="53.0068750000" lon="-4.0929140000"><ele>311</ele><time>2016-09-30T10:10:07Z</time></trkpt>
<trkpt lat="53.0068760000" lon="-4.0929120000"><ele>311</ele><time>2016-09-30T10:10:09Z</time></trkpt>
<trkpt lat="53.0068760000" lon="-4.0929110000"><ele>311</ele><time>2016-09-30T10:10:10Z</time></trkpt>
<trkpt lat="53.0068770000" lon="-4.0929110000"><ele>311</ele><time>2016-09-30T10:10:11Z</time></trkpt>
<trkpt lat="53.0068780000" lon="-4.0929100000"><ele>312</ele><time>2016-09-30T10:10:12Z</time></trkpt>
<trkpt lat="53.0068790000" lon="-4.0929100000"><ele>312</ele><time>2016-09-30T10:10:13Z</time></trkpt>
<trkpt lat="53.0068800000" lon="-4.0929090000"><ele>312</ele><time>2016-09-30T10:10:14Z</time></trkpt>
<trkpt lat="53.0068810000" lon="-4.0929090000"><ele>312</ele><time>2016-09-30T10:10:15Z</time></trkpt>
<trkpt lat="53.0068830000" lon="-4.0929090000"><ele>312</ele><time>2016-09-30T10:10:16Z</time></trkpt>
<trkpt lat="53.0068840000" lon="-4.0929090000"><ele>312</ele><time>2016-09-30T10:10:17Z</time></trkpt>
<trkpt lat="53.0069140000" lon="-4.0929060000"><ele>311</ele><time>2016-09-30T10:10:29Z</time></trkpt>
<trkpt lat="53.0069710000" lon="-4.0928720000"><ele>311</ele><time>2016-09-30T10:10:30Z</time></trkpt>
<trkpt lat="53.0069890000" lon="-4.0928600000"><ele>312</ele><time>2016-09-30T10:10:37Z</time></trkpt>
<trkpt lat="53.0069990000" lon="-4.0928580000"><ele>312</ele><time>2016-09-30T10:10:42Z</time></trkpt>
<trkpt lat="53.0070020000" lon="-4.0928570000"><ele>312</ele><time>2016-09-30T10:10:43Z</time></trkpt>
<trkpt lat="53.0070060000" lon="-4.0928570000"><ele>312</ele><time>2016-09-30T10:10:44Z</time></trkpt>
<trkpt lat="53.0070100000" lon="-4.0928560000"><ele>312</ele><time>2016-09-30T10:10:45Z</time></trkpt>
<trkpt lat="53.0070150000" lon="-4.0928550000"><ele>312</ele><time>2016-09-30T10:10:46Z</time></trkpt>
<trkpt lat="53.0070210000" lon="-4.0928550000"><ele>312</ele><time>2016-09-30T10:10:47Z</time></trkpt>
<trkpt lat="53.0070270000" lon="-4.0928540000"><ele>312</ele><time>2016-09-30T10:10:48Z</time></trkpt>
<trkpt lat="53.0070340000" lon="-4.0928520000"><ele>312</ele><time>2016-09-30T10:10:49Z</time></trkpt>
<trkpt lat="53.0070400000" lon="-4.0928510000"><ele>312</ele><time>2016-09-30T10:10:50Z</time></trkpt>
<trkpt lat="53.0070470000" lon="-4.0928480000"><ele>312</ele><time>2016-09-30T10:10:51Z</time></trkpt>
<trkpt lat="53.0070550000" lon="-4.0928460000"><ele>312</ele><time>2016-09-30T10:10:52Z</time></trkpt>
<trkpt lat="53.0070620000" lon="-4.0928420000"><ele>312</ele><time>2016-09-30T10:10:53Z</time></trkpt>
<trkpt lat="53.0070700000" lon="-4.0928390000"><ele>312</ele><time>2016-09-30T10:10:54Z</time></trkpt>
<trkpt lat="53.0070770000" lon="-4.0928360000"><ele>312</ele><time>2016-09-30T10:10:55Z</time></trkpt>
<trkpt lat="53.0070850000" lon="-4.0928320000"><ele>312</ele><time>2016-09-30T10:10:56Z</time></trkpt>
<trkpt lat="53.0070930000" lon="-4.0928290000"><ele>311</ele><time>2016-09-30T10:10:57Z</time></trkpt>
<trkpt lat="53.0071020000" lon="-4.0928250000"><ele>311</ele><time>2016-09-30T10:10:58Z</time></trkpt>
<trkpt lat="53.0071100000" lon="-4.0928210000"><ele>311</ele><time>2016-09-30T10:10:59Z</time></trkpt>
<trkpt lat="53.0071180000" lon="-4.0928170000"><ele>311</ele><time>2016-09-30T10:11:00Z</time></trkpt>
<trkpt lat="53.0071270000" lon="-4.0928120000"><ele>311</ele><time>2016-09-30T10:11:01Z</time></trkpt>
<trkpt lat="53.0071350000" lon="-4.0928070000"><ele>311</ele><time>2016-09-30T10:11:02Z</time></trkpt>
<trkpt lat="53.0071430000" lon="-4.0928030000"><ele>311</ele><time>2016-09-30T10:11:03Z</time></trkpt>
<trkpt lat="53.0071510000" lon="-4.0927980000"><ele>311</ele><time>2016-09-30T10:11:04Z</time></trkpt>
<trkpt lat="53.0071590000" lon="-4.0927940000"><ele>311</ele><time>2016-09-30T10:11:05Z</time></trkpt>
<trkpt lat="53.0071660000" lon="-4.0927910000"><ele>311</ele></trkpt>
<trkpt lat="53.0071740000" lon="-4.0927880000"><ele>310</ele><time>2016-09-30T10:11:07Z</time></trkpt>
<trkpt lat="53.0071820000" lon="-4.0927840000"><ele>310</ele><time>2016-09-30T10:11:08Z</time></trkpt>
<trkpt lat="53.0071910000" lon="-4.0927810000"><ele>310</ele><time>2016-09-30T10:11:09Z</time></trkpt>
<trkpt lat="53.0071990000" lon="-4.0927770000"><ele>310</ele><time>2016-09-30T10:11:10Z</time></trkpt>
<trkpt lat="53.0072080000" lon="-4.0927730000"><ele>310</ele><time>2016-09-30T10:11:11Z</time></trkpt>
<trkpt lat="53.0072170000" lon="-4.0927690000"><ele>310</ele></trkpt>
<trkpt lat="53.0072260000" lon="-4.0927660000"><ele>310</ele><time>2016-09-30T10:11:13Z</time></trkpt>
<trkpt lat="53.0072350000" lon="-4.0927620000"><ele>309</ele><time>2016-09-30T10:11:14Z</time></trkpt>
<trkpt lat="53.0072430000" lon="-4.0927590000"><ele>309</ele><time>2016-09-30T10:11:15Z</time></trkpt>
<trkpt lat="53.0072520000" lon="-4.0927550000"><ele>309</ele><time>2016-09-30T10:11:16Z</time></trkpt>
<trkpt lat="53.0072610000" lon="-4.0927500000"><ele>309</ele><time>2016-09-30T10:11:17Z</time></trkpt>
<trkpt lat="53.0072690000" lon="-4.0927460000"><ele>309</ele><time>2016-09-30T10:11:18Z</time></trkpt>
<trkpt lat="53.0072780000" lon="-4.0927420000"><ele>309</ele><time>2016-09-30T10:11:19Z</time></trkpt>
<trkpt lat="53.0072860000" lon="-4.0927380000"><ele>308</ele><time>2016-09-30T10:11:20Z</time></trkpt>
<trkpt lat="53.0072940000" lon="-4.0927330000"><ele>308</ele><time>2016-09-30T10:11:21Z</time></trkpt>
<trkpt lat="53.0073010000" lon="-4.0927290000"><ele>308</ele><time>2016-09-30T10:11:22Z</time></trkpt>
<trkpt lat="53.0073090000" lon="-4.0927240000"><ele>308</ele><time>2016-09-30T10:11:23Z</time></trkpt>
<trkpt lat="53.0073150000" lon="-4.0927200000"><ele>308</ele><time>2016-09-30T10:11:24Z</time></trkpt>
<trkpt lat="53.0073220000" lon="-4.0927150000"><ele>307</ele><time>2016-09-30T10:11:25Z</time></trkpt>
<trkpt lat="53.0073280000" lon="-4.0927100000"><ele>307</ele><time>2016-09-30T10:11:26Z</time></trkpt>
<trkpt lat="53.0073330000" lon="-4.0927060000"><ele>307</ele><time>2016-09-30T10:11:27Z</time></trkpt>
<trkpt lat="53.0073390000" lon="-4.0927010000"><ele>307</ele><time>2016-09-30T10:11:28Z</time></trkpt>
<trkpt lat="53.0073430000" lon="-4.0926960000"><ele>306</ele><time>2016-09-30T10:11:29Z</time></trkpt>
<trkpt lat="53.0073480000" lon="-4.0926920000"><ele>306</ele><time>2016-09-30T10:11:30Z</time></trkpt>
<trkpt lat="53.0073530000" lon="-4.0926870000"><ele>306</ele><time>2016-09-30T10:11:31Z</time></trkpt>
<trkpt lat="53.0073580000" lon="-4.0926830000"><ele>306</ele><time>2016-09-30T10:11:32Z</time></trkpt>
<trkpt lat="53.0073620000" lon="-4.0926780000"><ele>306</ele><time>2016-09-30T10:11:33Z</time></trkpt>
<trkpt lat="53.0073660000" lon="-4.0926730000"><ele>305</ele><time>2016-09-30T10:11:34Z</time></trkpt>
<trkpt lat="53.0073690000" lon="-4.0926690000"><ele>305</ele><time>2016-09-30T10:11:35Z</time></trkpt>
<trkpt lat="53.0073720000" lon="-4.0926630000"><ele>305</ele><time>2016-09-30T10:11:36Z</time></trkpt>
<trkpt lat="53.0073760000" lon="-4.0926580000"><ele>305</ele><time>2016-09-30T10:11:37Z</time></trkpt>
<trkpt lat="53.0073790000" lon="-4.0926530000"><ele>305</ele><time>2016-09-30T10:11:38Z</time></trkpt>
<trkpt lat="53.0073820000" lon="-4.0926470000"><ele>305</ele><time>2016-09-30T10:11:39Z</time></trkpt>
<trkpt lat="53.0073860000" lon="-4.0926400000"><ele>304</ele><time>2016-09-30T10:11:40Z</time></trkpt>
<trkpt lat="53.0073890000" lon="-4.0926330000"><ele>304</ele><time>2016-09-30T10:11:41Z</time></trkpt>
<trkpt lat="53.0073920000" lon="-4.0926260000"><ele>304</ele><time>2016-09-30T10:11:42Z</time></trkpt>
<trkpt lat="53.0073940000" lon="-4.0926180000"><ele>304</ele><time>2016-09-30T10:11:43Z</time></trkpt>
<trkpt lat="53.0073960000" lon="-4.0926100000"><ele>304</ele><time>2016-09-30T10:11:44Z</time></trkpt>
<trkpt lat="53.0073970000" lon="-4.0926010000"><ele>303</ele><time>2016-09-30T10:11:45Z</time></trkpt>
<trkpt lat="53.0073980000" lon="-4.0925930000"><ele>303</ele><time>2016-09-30T10:11:46Z</time></trkpt>
<trkpt lat="53.0073990000" lon="-4.0925840000"><ele>303</ele><time>2016-09-30T10:11:47Z</time></trkpt>
<trkpt lat="53.0073990000" lon="-4.0925740000"><ele>303</ele><time>2016-09-30T10:11:48Z</time></trkpt>
<trkpt lat="53.0073990000" lon="-4.0925650000"><ele>303</ele><time>2016-09-30T10:11:49Z</time></trkpt>
<trkpt lat="53.0073990000" lon="-4.0925540000"><ele>302</ele><time>2016-09-30T10:11:50Z</time></trkpt>
<trkpt lat="53.0073980000" lon="-4.0925430000"><ele>302</ele><time>2016-09-30T10:11:51Z</time></trkpt>
<trkpt lat="53.0073980000" lon="-4.0925320000"><ele>302</ele><time>2016-09-30T10:11:52Z</time></trkpt>
<trkpt lat="53.0073980000" lon="-4.0925200000"><ele>302</ele><time>2016-09-30T10:11:53Z</time></trkpt>
<trkpt lat="53.0073970000" lon="-4.0925090000"><ele>302</ele><time>2016-09-30T10:11:54Z</time></trkpt>
<trkpt lat="53.0073960000" lon="-4.0924970000"><ele>302</ele><time>2016-09-30T10:11:55Z</time></trkpt>
<trkpt lat="53.0073950000" lon="-4.0924850000"><ele>302</ele><time>2016-09-30T10:11:56Z</time></trkpt>
<trkpt lat="53.0073940000" lon="-4.0924730000"><ele>302</ele></trkpt>
<trkpt lat="53.0073920000" lon="-4.0924600000"><ele>301</ele><time>2016-09-30T10:11:58Z</time></trkpt>
<trkpt lat="53.0073910000" lon="-4.0924480000"><ele>301</ele><time>2016-09-30T10:11:59Z</time></trkpt>
<trkpt lat="53.0073890000" lon="-4.0924350000"><ele>301</ele><time>2016-09-30T10:12:00Z</time></trkpt>
<trkpt lat="53.0073870000" lon="-4.0924220000"><ele>301</ele><time>2016-09-30T10:12:01Z</time></trkpt>
<trkpt lat="53.0073840000" lon="-4.0924090000"><ele>301</ele><time>2016-09-30T10:12:02Z</time></trkpt>
<trkpt lat="53.0073810000" lon="-4.0923960000"><ele>301</ele><time>2016-09-30T10:12:03Z</time></trkpt>
<trkpt lat="53.0073770000" lon="-4.0923830000"><ele>300</ele><time>2016-09-30T10:12:04Z</time></trkpt>
<trkpt lat="53.0073740000" lon="-4.0923690000"><ele>300</ele><time>2016-09-30T10:12:05Z</time></trkpt>
<trkpt lat="53.0073700000" lon="-4.0923560000"><ele>300</ele><time>2016-09-30T10:12:06Z</time></trkpt>
<trkpt lat="53.0073660000" lon="-4.0923420000"><ele>300</ele><time>2016-09-30T10:12:07Z</time></trkpt>
<trkpt lat="53.0073630000" lon="-4.0923270000"><ele>300</ele><time>2016-09-30T10:12:08Z</time></trkpt>
<trkpt lat="53.0073600000" lon="-4.0923130000"><ele>299</ele><time>2016-09-30T10:12:09Z</time></trkpt>
<trkpt lat="53.0073120000" lon="-4.0920790000"><ele>299</ele></trkpt>
<trkpt lat="53.0073130000" lon="-4.0920580000"><ele>299</ele><time>2016-09-30T10:12:11Z</time></trkpt>
<trkpt lat="53.0073160000" lon="-4.0920350000"><ele>299</ele><time>2016-09-30T10:12:12Z</time></trkpt>
<trkpt lat="53.0073180000" lon="-4.0920110000"><ele>299</ele><time>2016-09-30T10:12:13Z</time></trkpt>
<trkpt lat="53.0073170000" lon="-4.0919900000"><ele>299</ele><time>2016-09-30T10:12:14Z</time></trkpt>
<trkpt lat="53.0073180000" lon="-4.0919710000"><ele>299</ele><time>2016-09-30T10:12:15Z</time></trkpt>
<trkpt lat="53.0073140000" lon="-4.0919530000"><ele>299</ele></trkpt>
<trkpt lat="53.0073120000" lon="-4.0919300000"><ele>299</ele><time>2016-09-30T10:12:17Z</time></trkpt>
<trkpt lat="53.0073040000" lon="-4.0919130000"><ele>298</ele><time>2016-09-30T10:12:18Z</time></trkpt>
<trkpt lat="53.0072950000" lon="-4.0918990000"><ele>298</ele><time>2016-09-30T10:12:19Z</time></trkpt>
<trkpt lat="53.0072870000" lon="-4.0918840000"><ele>298</ele><time>2016-09-30T10:12:20Z</time></trkpt>
<trkpt lat="53.0072810000" lon="-4.0918710000"><ele>298</ele><time>2016-09-30T10:12:21Z</time></trkpt>
<trkpt lat="53.0072760000" lon="-4.0918580000"><ele>298</ele></trkpt>
<trkpt lat="53.0072730000" lon="-4.0918420000"><ele>298</ele><time>2016-09-30T10:12:23Z</time></trkpt>
<trkpt lat="53.0072730000" lon="-4.0918420000"><ele>298</ele><time>2016-09-30T10:12:24Z</time></trkpt>
<trkpt lat="53.0072740000" lon="-4.0918410000"><ele>298</ele><time>2016-09-30T10:12:25Z</time></trkpt>
<trkpt lat="53.0072740000" lon="-4.0918400000"><ele>298</ele><time>2016-09-30T10:12:26Z</time></trkpt>
<trkpt lat="53.0072750000" lon="-4.0918390000"><ele>298</ele><time>2016-09-30T10:12:27Z</time></trkpt>
<trkpt lat="53.0072760000" lon="-4.0918380000"><ele>298</ele><time>2016-09-30T10:12:28Z</time></trkpt>
<trkpt lat="53.0072770000" lon="-4.0918360000"><ele>298</ele><time>2016-09-30T10:12:29Z</time></trkpt>
<trkpt lat="53.0073350000" lon="-4.0917700000"><ele>298</ele><time>2016-09-30T10:12:30Z</time></trkpt>
<trkpt lat="53.0073460000" lon="-4.0917580000"><ele>298</ele><time>2016-09-30T10:12:31Z</time></trkpt>
<trkpt lat="53.0073570000" lon="-4.0917430000"><ele>298</ele><time>2016-09-30T10:12:32Z</time></trkpt>
<trkpt lat="53.0073670000" lon="-4.0917250000"><ele>298</ele><time>2016-09-30T10:12:33Z</time></trkpt>
<trkpt lat="53.0073750000" lon="-4.0917110000"><ele>298</ele><time>2016-09-30T10:12:34Z</time></trkpt>
<trkpt lat="53.0073820000" lon="-4.0916990000"><ele>298</ele><time>2016-09-30T10:12:35Z</time></trkpt>
<trkpt lat="53.0073820000" lon="-4.0916990000"><ele>298</ele><time>2016-09-30T10:12:36Z</time></trkpt>
<trkpt lat="53.0073820000" lon="-4.0916990000"><ele>298</ele><time>2016-09-30T10:12:37Z</time></trkpt>
<trkpt lat="53.0074120000" lon="-4.0916670000"><ele>298</ele><time>2016-09-30T10:12:38Z</time></trkpt>
<trkpt lat="53.0074220000" lon="-4.0916500000"><ele>298</ele><time>2016-09-30T10:12:39Z</time></trkpt>
<trkpt lat="53.0074300000" lon="-4.0916340000"><ele>298</ele><time>2016-09-30T10:12:41Z</time></trkpt>
<trkpt lat="53.0074370000" lon="-4.0916190000"><ele>298</ele></trkpt>
<trkpt lat="53.0074450000" lon="-4.0916050000"><ele>298</ele><time>2016-09-30T10:12:42Z</time></trkpt>
<trkpt lat="53.0074450000" lon="-4.0916050000"><ele>298</ele><time>2016-09-30T10:12:43Z</time></trkpt>
<trkpt lat="53.0074450000" lon="-4.0916050000"><ele>298</ele><time>2016-09-30T10:12:44Z</time></trkpt>
<trkpt lat="53.0074460000" lon="-4.0916040000"><ele>298</ele><time>2016-09-30T10:12:45Z</time></trkpt>
<trkpt lat="53.0074700000" lon="-4.0915390000"><ele>297</ele><time>2016-09-30T10:12:46Z</time></trkpt>
<trkpt lat="53.0074750000" lon="-4.0915150000"><ele>297</ele><time>2016-09-30T10:12:47Z</time></trkpt>
<trkpt lat="53.0074800000" lon="-4.0914950000"><ele>297</ele><time>2016-09-30T10:12:48Z</time></trkpt>
<trkpt lat="53.0074890000" lon="-4.0914790000"><ele>297</ele><time>2016-09-30T10:12:49Z</time></trkpt>
<trkpt lat="53.0074980000" lon="-4.0914620000"><ele>297</ele><time>2016-09-30T10:12:50Z</time></trkpt>
<trkpt lat="53.0075070000" lon="-4.0914430000"><ele>297</ele><time>2016-09-30T10:12:51Z</time></trkpt>
<trkpt lat="53.0075170000" lon="-4.0914290000"><ele>297</ele><time>2016-09-30T10:12:52Z</time></trkpt>
<trkpt lat="53.0075230000" lon="-4.0914170000"><ele>297</ele><time>2016-09-30T10:12:53Z</time></trkpt>
<trkpt lat="53.0075310000" lon="-4.0914080000"><ele>297</ele><time>2016-09-30T10:12:54Z</time></trkpt>
<trkpt lat="53.0075410000" lon="-4.0914000000"><ele>297</ele><time>2016-09-30T10:12:55Z</time></trkpt>
<trkpt lat="53.0075410000" lon="-4.0914000000"><ele>297</ele><time>2016-09-30T10:12:56Z</time></trkpt>
<trkpt lat="53.0075410000" lon="-4.0914000000"><ele>297</ele><time>2016-09-30T10:12:57Z</time></trkpt>
<trkpt lat="53.0075420000" lon="-4.0913990000"><ele>297</ele><time>2016-09-30T10:12:58Z</time></trkpt>
<trkpt lat="53.0075430000" lon="-4.0913990000"><ele>297</ele><time>2016-09-30T10:12:59Z</time></trkpt>
<trkpt lat="53.0075440000" lon="-4.0913980000"><ele>297</ele><time>2016-09-30T10:13:00Z</time></trkpt>
<trkpt lat="53.0075460000" lon="-4.0913970000"><ele>297</ele><time>2016-09-30T10:13:01Z</time></trkpt>
<trkpt lat="53.0075490000" lon="-4.0913950000"><ele>297</ele><time>2016-09-30T10:13:02Z</time></trkpt>
<trkpt lat="53.0075520000" lon="-4.0913930000"><ele>297</ele><time>2016-09-30T10:13:03Z</time></trkpt>
<trkpt lat="53.0075550000" lon="-4.0913910000"><ele>297</ele><time>2016-09-30T10:13:04Z</time></trkpt>
<trkpt lat="53.0075590000" lon="-4.0913880000"><ele>297</ele><time>2016-09-30T10:13:05Z</time></trkpt>
<trkpt lat="53.0075630000" lon="-4.0913840000"><ele>297</ele><time>2016-09-30T10:13:06Z</time></trkpt>
<trkpt lat="53.0075680000" lon="-4.0913800000"><ele>297</ele><time>2016-09-30T10:13:07Z</time></trkpt>
<trkpt lat="53.0075730000" lon="-4.0913760000"><ele>297</ele><time>2016-09-30T10:13:08Z</time></trkpt>
<trkpt lat="53.0075770000" lon="-4.0913720000"><ele>297</ele><time>2016-09-30T10:13:09Z</time></trkpt>
<trkpt lat="53.0075820000" lon="-4.0913680000"><ele>297</ele><time>2016-09-30T10:13:10Z</time></trkpt>
<trkpt lat="53.0075860000" lon="-4.0913650000"><ele>297</ele><time>2016-09-30T10:13:11Z</time></trkpt>
<trkpt lat="53.0075900000" lon="-4.0913610000"><ele>297</ele><time>2016-09-30T10:13:12Z</time></trkpt>
<trkpt lat="53.0075950000" lon="-4.0913570000"><ele>297</ele><time>2016-09-30T10:13:13Z</time></trkpt>
<trkpt lat="53.0076000000" lon="-4.0913520000"><ele>297</ele><time>2016-09-30T10:13:14Z</time></trkpt>
<trkpt lat="53.0076060000" lon="-4.0913480000"><ele>297</ele><time>2016-09-30T10:13:15Z</time></trkpt>
<trkpt lat="53.0076120000" lon="-4.0913440000"><ele>297</ele><time>2016-09-30T10:13:16Z</time></trkpt>
<trkpt lat="53.0076180000" lon="-4.0913390000"><ele>297</ele><time>2016-09-30T10:13:17Z</time></trkpt>
<trkpt lat="53.0076250000" lon="-4.0913350000"><ele>296</ele><time>2016-09-30T10:13:18Z</time></trkpt>
<trkpt lat="53.0076310000" lon="-4.0913310000"><ele>296</ele><time>2016-09-30T10:13:19Z</time></trkpt>
<trkpt lat="53.0076380000" lon="-4.0913260000"><ele>296</ele><time>2016-09-30T10:13:20Z</time></trkpt>
<trkpt lat="53.0077380000" lon="-4.0912370000"><ele>296</ele><time>2016-09-30T10:13:21Z</time></trkpt>
<trkpt lat="53.0077440000" lon="-4.0912230000"><ele>296</ele><time>2016-09-30T10:13:22Z</time></trkpt>
<trkpt lat="53.0077490000" lon="-4.0912100000"><ele>296</ele><time>2016-09-30T10:13:23Z</time></trkpt>
<trkpt lat="53.0077530000" lon="-4.0911960000"><ele>296</ele><time>2016-09-30T10:13:24Z</time></trkpt>
<trkpt lat="53.0077530000" lon="-4.0911960000"><ele>296</ele><time>2016-09-30T10:13:25Z</time></trkpt>
<trkpt lat="53.0077530000" lon="-4.0911960000"><ele>296</ele><time>2016-09-30T10:13:26Z</time></trkpt>
<trkpt lat="53.0077530000" lon="-4.0911950000"><ele>295</ele><time>2016-09-30T10:13:27Z</time></trkpt>
<trkpt lat="53.0077530000" lon="-4.0911940000"><ele>295</ele><time>2016-09-30T10:13:28Z</time></trkpt>
<trkpt lat="53.0077540000" lon="-4.0911920000"><ele>295</ele><time>2016-09-30T10:13:29Z</time></trkpt>
<trkpt lat="53.0077550000" lon="-4.0911900000"><ele>295</ele><time>2016-09-30T10:13:30Z</time></trkpt>
<trkpt lat="53.0077570000" lon="-4.0911870000"><ele>295</ele><time>2016-09-30T10:13:31Z</time></trkpt>
<trkpt lat="53.0077590000" lon="-4.0911830000"><ele>295</ele><time>2016-09-30T10:13:32Z</time></trkpt>
<trkpt lat="53.0078200000" lon="-4.0910810000"><ele>295</ele><time>2016-09-30T10:13:33Z</time></trkpt>
<trkpt lat="53.0078280000" lon="-4.0910680000"><ele>295</ele><time>2016-09-30T10:13:34Z</time></trkpt>
<trkpt lat="53.0078390000" lon="-4.0910570000"><ele>295</ele><time>2016-09-30T10:13:35Z</time></trkpt>
<trkpt lat="53.0078510000" lon="-4.0910450000"><ele>295</ele><time>2016-09-30T10:13:36Z</time></trkpt>
<trkpt lat="53.0078630000" lon="-4.0910360000"><ele>295</ele><time>2016-09-30T10:13:37Z</time></trkpt>
<trkpt lat="53.0078750000" lon="-4.0910330000"><ele>295</ele><time>2016-09-30T10:13:38Z</time></trkpt>
<trkpt lat="53.0078980000" lon="-4.0910230000"><ele>295</ele><time>2016-09-30T10:13:41Z</time></trkpt>
<trkpt lat="53.0079120000" lon="-4.0910160000"><ele>295</ele></trkpt>
<trkpt lat="53.0079240000" lon="-4.0910090000"><ele>295</ele><time>2016-09-30T10:13:42Z</time></trkpt>
<trkpt lat="53.0079350000" lon="-4.0910030000"><ele>295</ele><time>2016-09-30T10:13:43Z</time></trkpt>
<trkpt lat="53.0079450000" lon="-4.0909960000"><ele>295</ele><time>2016-09-30T10:13:44Z</time></trkpt>
<trkpt lat="53.0079450000" lon="-4.0909960000"><ele>295</ele><time>2016-09-30T10:13:45Z</time></trkpt>
<trkpt lat="53.0079450000" lon="-4.0909960000"><ele>295</ele><time>2016-09-30T10:13:46Z</time></trkpt>
<trkpt lat="53.0079450000" lon="-4.0909950000"><ele>295</ele><time>2016-09-30T10:13:47Z</time></trkpt>
<trkpt lat="53.0079460000" lon="-4.0909940000"><ele>295</ele><time>2016-09-30T10:13:48Z</time></trkpt>
<trkpt lat="53.0079470000" lon="-4.0909930000"><ele>295</ele><time>2016-09-30T10:13:49Z</time></trkpt>
<trkpt lat="53.0079490000" lon="-4.0909910000"><ele>295</ele><time>2016-09-30T10:13:50Z</time></trkpt>
<trkpt lat="53.0079510000" lon="-4.0909880000"><ele>295</ele><time>2016-09-30T10:13:51Z</time></trkpt>
<trkpt lat="53.0079530000" lon="-4.0909850000"><ele>295</ele><time>2016-09-30T10:13:52Z</time></trkpt>
<trkpt lat="53.0079560000" lon="-4.0909810000"><ele>295</ele><time>2016-09-30T10:13:53Z</time></trkpt>
<trkpt lat="53.0079590000" lon="-4.0909770000"><ele>295</ele><time>2016-09-30T10:13:54Z</time></trkpt>
<trkpt lat="53.0079620000" lon="-4.0909710000"><ele>295</ele><time>2016-09-30T10:13:55Z</time></trkpt>
<trkpt lat="53.0079660000" lon="-4.0909660000"><ele>295</ele><time>2016-09-30T10:13:56Z</time></trkpt>
<trkpt lat="53.0079690000" lon="-4.0909610000"><ele>295</ele><time>2016-09-30T10:13:57Z</time></trkpt>
<trkpt lat="53.0079740000" lon="-4.0909550000"><ele>295</ele><time>2016-09-30T10:13:58Z</time></trkpt>
<trkpt lat="53.0079790000" lon="-4.0909480000"><ele>295</ele><time>2016-09-30T10:13:59Z</time></trkpt>
<trkpt lat="53.0080780000" lon="-4.0908110000"><ele>295</ele><time>2016-09-30T10:14:00Z</time></trkpt>
<trkpt lat="53.0080820000" lon="-4.0907940000"><ele>295</ele><time>2016-09-30T10:14:01Z</time></trkpt>
<trkpt lat="53.0080910000" lon="-4.0907780000"><ele>295</ele><time>2016-09-30T10:14:02Z</time></trkpt>
<trkpt lat="53.0081020000" lon="-4.0907660000"><ele>295</ele><time>2016-09-30T10:14:03Z</time></trkpt>
<trkpt lat="53.0081120000" lon="-4.0907530000"><ele>295</ele><time>2016-09-30T10:14:04Z</time></trkpt>
<trkpt lat="53.0081170000" lon="-4.0907390000"><ele>295</ele><time>2016-09-30T10:14:05Z</time></trkpt>
<trkpt lat="53.0081240000" lon="-4.0907230000"><ele>295</ele><time>2016-09-30T10:14:06Z</time></trkpt>
<trkpt lat="53.0081290000" lon="-4.0907060000"><ele>296</ele><time>2016-09-30T10:14:07Z</time></trkpt>
<trkpt lat="53.0081320000" lon="-4.0906930000"><ele>296</ele></trkpt>
<trkpt lat="53.0081360000" lon="-4.0906840000"><ele>296</ele><time>2016-09-30T10:14:09Z</time></trkpt>
<trkpt lat="53.0081360000" lon="-4.0906840000"><ele>296</ele><time>2016-09-30T10:14:10Z</time></trkpt>
<trkpt lat="53.0081360000" lon="-4.0906830000"><ele>296</ele><time>2016-09-30T10:14:11Z</time></trkpt>
<trkpt lat="53.0081360000" lon="-4.0906830000"><ele>296</ele><time>2016-09-30T10:14:12Z</time></trkpt>
<trkpt lat="53.0081370000" lon="-4.0906820000"><ele>296</ele><time>2016-09-30T10:14:13Z</time></trkpt>
<trkpt lat="53.0081370000" lon="-4.0906810000"><ele>296</ele></trkpt>
<trkpt lat="53.0081380000" lon="-4.0906790000"><ele>296</ele><time>2016-09-30T10:14:15Z</time></trkpt>
<trkpt lat="53.0081390000" lon="-4.0906770000"><ele>296</ele><time>2016-09-30T10:14:16Z</time></trkpt>
<trkpt lat="53.0081410000" lon="-4.0906750000"><ele>296</ele><time>2016-09-30T10:14:17Z</time></trkpt>
<trkpt lat="53.0081430000" lon="-4.0906710000"><ele>296</ele><time>2016-09-30T10:14:18Z</time></trkpt>
<trkpt lat="53.0081450000" lon="-4.0906680000"><ele>296</ele><time>2016-09-30T10:14:19Z</time></trkpt>
<trkpt lat="53.0081470000" lon="-4.0906640000"><ele>296</ele><time>2016-09-30T10:14:20Z</time></trkpt>
<trkpt lat="53.0082290000" lon="-4.0905420000"><ele>296</ele><time>2016-09-30T10:14:21Z</time></trkpt>
<trkpt lat="53.0082440000" lon="-4.0905300000"><ele>296</ele><time>2016-09-30T10:14:22Z</time></trkpt>
<trkpt lat="53.0082560000" lon="-4.0905180000"><ele>296</ele><time>2016-09-30T10:14:23Z</time></trkpt>
<trkpt lat="53.0082670000" lon="-4.0905070000"><ele>296</ele><time>2016-09-30T10:14:24Z</time></trkpt>
<trkpt lat="53.0082780000" lon="-4.0904960000"><ele>296</ele><time>2016-09-30T10:14:25Z</time></trkpt>
<trkpt lat="53.0082860000" lon="-4.0904860000"><ele>296</ele><time>2016-09-30T10:14:26Z</time></trkpt>
<trkpt lat="53.0082970000" lon="-4.0904760000"><ele>296</ele><time>2016-09-30T10:14:27Z</time></trkpt>
<trkpt lat="53.0082970000" lon="-4.0904760000"><ele>296</ele><time>2016-09-30T10:14:28Z</time></trkpt>
<trkpt lat="53.0082980000" lon="-4.0904760000"><ele>296</ele><time>2016-09-30T10:14:29Z</time></trkpt>
<trkpt lat="53.0082980000" lon="-4.0904750000"><ele>296</ele><time>2016-09-30T10:14:30Z</time></trkpt>
<trkpt lat="53.0082990000" lon="-4.0904750000"><ele>296</ele><time>2016-09-30T10:14:31Z</time></trkpt>
<trkpt lat="53.0083000000" lon="-4.0904750000"><ele>296</ele><time>2016-09-30T10:14:32Z</time></trkpt>
<trkpt lat="53.0083020000" lon="-4.0904740000"><ele>296</ele><time>2016-09-30T10:14:33Z</time></trkpt>
<trkpt lat="53.0083040000" lon="-4.0904730000"><ele>296</ele><time>2016-09-30T10:14:34Z</time></trkpt>
<trkpt lat="53.0083060000" lon="-4.0904730000"><ele>296</ele><time>2016-09-30T10:14:35Z</time></trkpt>
<trkpt lat="53.0083100000" lon="-4.0904720000"><ele>296</ele><time>2016-09-30T10:14:36Z</time></trkpt>
<trkpt lat="53.0083140000" lon="-4.0904710000"><ele>296</ele><time>2016-09-30T10:14:37Z</time></trkpt>
<trkpt lat="53.0083180000" lon="-4.0904700000"><ele>296</ele><time>2016-09-30T10:14:38Z</time></trkpt>
<trkpt lat="53.0083290000" lon="-4.0904670000"><ele>296</ele><time>2016-09-30T10:14:41Z</time></trkpt>
<trkpt lat="53.0083350000" lon="-4.0904650000"><ele>296</ele></trkpt>
<trkpt lat="53.0083410000" lon="-4.0904630000"><ele>295</ele><time>2016-09-30T10:14:42Z</time></trkpt>
<trkpt lat="53.0084520000" lon="-4.0904050000"><ele>295</ele></trkpt>
<trkpt lat="53.0084640000" lon="-4.0903930000"><ele>295</ele><time>2016-09-30T10:14:44Z</time></trkpt>
<trkpt lat="53.0084770000" lon="-4.0903840000"><ele>295</ele><time>2016-09-30T10:14:45Z</time></trkpt>
<trkpt lat="53.0084900000" lon="-4.0903790000"><ele>295</ele><time>2016-09-30T10:14:46Z</time></trkpt>
<trkpt lat="53.0085000000" lon="-4.0903730000"><ele>295</ele><time>2016-09-30T10:14:47Z</time></trkpt>
<trkpt lat="53.0085070000" lon="-4.0903640000"><ele>295</ele><time>2016-09-30T10:14:48Z</time></trkpt>
<trkpt lat="53.0085070000" lon="-4.0903640000"><ele>295</ele><time>2016-09-30T10:14:49Z</time></trkpt>
<trkpt lat="53.0085070000" lon="-4.0903640000"><ele>294</ele><time>2016-09-30T10:14:50Z</time></trkpt>
<trkpt lat="53.0085070000" lon="-4.0903630000"><ele>294</ele><time>2016-09-30T10:14:51Z</time></trkpt>
<trkpt lat="53.0085080000" lon="-4.0903630000"><ele>294</ele><time>2016-09-30T10:14:52Z</time></trkpt>
<trkpt lat="53.0085090000" lon="-4.0903620000"><ele>294</ele><time>2016-09-30T10:14:53Z</time></trkpt>
<trkpt lat="53.0085100000" lon="-4.0903600000"><ele>293</ele><time>2016-09-30T10:14:54Z</time></trkpt>
<trkpt lat="53.0085120000" lon="-4.0903590000"><ele>293</ele><time>2016-09-30T10:14:55Z</time></trkpt>
<trkpt lat="53.0085140000" lon="-4.0903580000"><ele>293</ele><time>2016-09-30T10:14:56Z</time></trkpt>
<trkpt lat="53.0085160000" lon="-4.0903560000"><ele>293</ele><time>2016-09-30T10:14:57Z</time></trkpt>
<trkpt lat="53.0085190000" lon="-4.0903530000"><ele>293</ele><time>2016-09-30T10:14:58Z</time></trkpt>
<trkpt lat="53.0085220000" lon="-4.0903510000"><ele>292</ele><time>2016-09-30T10:14:59Z</time></trkpt>
<trkpt lat="53.0085260000" lon="-4.0903480000"><ele>292</ele><time>2016-09-30T10:15:00Z</time></trkpt>
<trkpt lat="53.0085300000" lon="-4.0903450000"><ele>292</ele><time>2016-09-30T10:15:01Z</time></trkpt>
<trkpt lat="53.0085340000" lon="-4.0903410000"><ele>292</ele><time>2016-09-30T10:15:02Z</time></trkpt>
<trkpt lat="53.0085390000" lon="-4.0903370000"><ele>292</ele><time>2016-09-30T10:15:03Z</time></trkpt>
<trkpt lat="53.0085440000" lon="-4.0903330000"><ele>291</ele><time>2016-09-30T10:15:04Z</time></trkpt>
<trkpt lat="53.0085500000" lon="-4.0903280000"><ele>291</ele><time>2016-09-30T10:15:05Z</time></trkpt>
<trkpt lat="53.0085560000" lon="-4.0903230000"><ele>291</ele><time>2016-09-30T10:15:06Z</time></trkpt>
<trkpt lat="53.0086860000" lon="-4.0902160000"><ele>291</ele><time>2016-09-30T10:15:07Z</time></trkpt>
<trkpt lat="53.0086960000" lon="-4.0902120000"><ele>290</ele><time>2016-09-30T10:15:08Z</time></trkpt>
<trkpt lat="53.0087070000" lon="-4.0902070000"><ele>290</ele><time>2016-09-30T10:15:09Z</time></trkpt>
<trkpt lat="53.0087070000" lon="-4.0902070000"><ele>290</ele><time>2016-09-30T10:15:10Z</time></trkpt>
<trkpt lat="53.0087070000" lon="-4.0902070000"><ele>290</ele><time>2016-09-30T10:15:11Z</time></trkpt>
<trkpt lat="53.0087070000" lon="-4.0902070000"><ele>289</ele><time>2016-09-30T10:15:12Z</time></trkpt>
<trkpt lat="53.0087080000" lon="-4.0902070000"><ele>289</ele><time>2016-09-30T10:15:13Z</time></trkpt>
<trkpt lat="53.0087090000" lon="-4.0902060000"><ele>289</ele><time>2016-09-30T10:15:14Z</time></trkpt>
<trkpt lat="53.0087100000" lon="-4.0902050000"><ele>288</ele><time>2016-09-30T10:15:15Z</time></trkpt>
<trkpt lat="53.0087110000" lon="-4.0902040000"><ele>288</ele><time>2016-09-30T10:15:16Z</time></trkpt>
<trkpt lat="53.0087130000" lon="-4.0902030000"><ele>288</ele><time>2016-09-30T10:15:17Z</time></trkpt>
<trkpt lat="53.0087150000" lon="-4.0902010000"><ele>287</ele><time>2016-09-30T10:15:18Z</time></trkpt>
<trkpt lat="53.0087180000" lon="-4.0901990000"><ele>287</ele><time>2016-09-30T10:15:19Z</time></trkpt>
<trkpt lat="53.0087210000" lon="-4.0901960000"><ele>287</ele><time>2016-09-30T10:15:20Z</time></trkpt>
<trkpt lat="53.0087240000" lon="-4.0901940000"><ele>287</ele><time>2016-09-30T10:15:21Z</time></trkpt>
<trkpt lat="53.0087270000" lon="-4.0901910000"><ele>286</ele><time>2016-09-30T10:15:22Z</time></trkpt>
<trkpt lat="53.0087310000" lon="-4.0901870000"><ele>286</ele><time>2016-09-30T10:15:23Z</time></trkpt>
<trkpt lat="53.0087350000" lon="-4.0901830000"><ele>286</ele><time>2016-09-30T10:15:24Z</time></trkpt>
<trkpt lat="53.0087390000" lon="-4.0901780000"><ele>286</ele><time>2016-09-30T10:15:25Z</time></trkpt>
<trkpt lat="53.0087440000" lon="-4.0901730000"><ele>285</ele><time>2016-09-30T10:15:26Z</time></trkpt>
<trkpt lat="53.0087490000" lon="-4.0901670000"><ele>285</ele><time>2016-09-30T10:15:27Z</time></trkpt>
<trkpt lat="53.0087550000" lon="-4.0901610000"><ele>285</ele><time>2016-09-30T10:15:28Z</time></trkpt>
<trkpt lat="53.0087600000" lon="-4.0901550000"><ele>284</ele><time>2016-09-30T10:15:29Z</time></trkpt>
<trkpt lat="53.0087660000" lon="-4.0901480000"><ele>284</ele><time>2016-09-30T10:15:30Z</time></trkpt>
<trkpt lat="53.0087720000" lon="-4.0901410000"><ele>284</ele><time>2016-09-30T10:15:31Z</time></trkpt>
<trkpt lat="53.0087790000" lon="-4.0901330000"><ele>284</ele><time>2016-09-30T10:15:32Z</time></trkpt>
<trkpt lat="53.0088970000" lon="-4.0899770000"><ele>283</ele></trkpt>
<trkpt lat="53.0089040000" lon="-4.0899590000"><ele>283</ele><time>2016-09-30T10:15:34Z</time></trkpt>
<trkpt lat="53.0089120000" lon="-4.0899400000"><ele>283</ele><time>2016-09-30T10:15:35Z</time></trkpt>
<trkpt lat="53.0089160000" lon="-4.0899210000"><ele>283</ele><time>2016-09-30T10:15:36Z</time></trkpt>
<trkpt lat="53.0089160000" lon="-4.0899040000"><ele>283</ele><time>2016-09-30T10:15:37Z</time></trkpt>
<trkpt lat="53.0089170000" lon="-4.0898880000"><ele>282</ele><time>2016-09-30T10:15:38Z</time></trkpt>
<trkpt lat="53.0089200000" lon="-4.0898620000"><ele>282</ele><time>2016-09-30T10:15:40Z</time></trkpt>
<trkpt lat="53.0089200000" lon="-4.0898620000"><ele>282</ele><time>2016-09-30T10:15:42Z</time></trkpt>
<trkpt lat="53.0089200000" lon="-4.0898620000"><ele>281</ele><time>2016-09-30T10:15:43Z</time></trkpt>
<trkpt lat="53.0089200000" lon="-4.0898610000"><ele>281</ele><time>2016-09-30T10:15:44Z</time></trkpt>
<trkpt lat="53.0089200000" lon="-4.0898600000"><ele>281</ele><time>2016-09-30T10:15:45Z</time></trkpt>
<trkpt lat="53.0089200000" lon="-4.0898590000"><ele>281</ele><time>2016-09-30T10:15:46Z</time></trkpt>
<trkpt lat="53.0089200000" lon="-4.0898570000"><ele>280</ele><time>2016-09-30T10:15:47Z</time></trkpt>
<trkpt lat="53.0089200000" lon="-4.0898540000"><ele>280</ele><time>2016-09-30T10:15:48Z</time></trkpt>
<trkpt lat="53.0089190000" lon="-4.0898510000"><ele>280</ele></trkpt>
<trkpt lat="53.0089190000" lon="-4.0898470000"><ele>280</ele><time>2016-09-30T10:15:50Z</time></trkpt>
<trkpt lat="53.0089190000" lon="-4.0898430000"><ele>280</ele><time>2016-09-30T10:15:51Z</time></trkpt>
<trkpt lat="53.0089190000" lon="-4.0898380000"><ele>279</ele><time>2016-09-30T10:15:52Z</time></trkpt>
<trkpt lat="53.0089200000" lon="-4.0898310000"><ele>279</ele><time>2016-09-30T10:15:53Z</time></trkpt>
<trkpt lat="53.0089210000" lon="-4.0898240000"><ele>279</ele><time>2016-09-30T10:15:54Z</time></trkpt>
<trkpt lat="53.0089220000" lon="-4.0898170000"><ele>279</ele><time>2016-09-30T10:15:55Z</time></trkpt>
<trkpt lat="53.0089230000" lon="-4.0898090000"><ele>279</ele><time>2016-09-30T10:15:56Z</time></trkpt>
<trkpt lat="53.0089250000" lon="-4.0898000000"><ele>279</ele><time>2016-09-30T10:15:57Z</time></trkpt>
<trkpt lat="53.0089270000" lon="-4.0897920000"><ele>279</ele><time>2016-09-30T10:15:58Z</time></trkpt>
<trkpt lat="53.0089290000" lon="-4.0897830000"><ele>279</ele><time>2016-09-30T10:15:59Z</time></trkpt>
<trkpt lat="53.0089320000" lon="-4.0897730000"><ele>279</ele><time>2016-09-30T10:16:00Z</time></trkpt>
<trkpt lat="53.0089350000" lon="-4.0897640000"><ele>279</ele><time>2016-09-30T10:16:01Z</time></trkpt>
<trkpt lat="53.0089390000" lon="-4.0897540000"><ele>279</ele><time>2016-09-30T10:16:02Z</time></trkpt>
<trkpt lat="53.0089430000" lon="-4.0897440000"><ele>279</ele><time>2016-09-30T10:16:03Z</time></trkpt>
<trkpt lat="53.0089460000" lon="-4.0897340000"><ele>279</ele><time>2016-09-30T10:16:04Z</time></trkpt>
<trkpt lat="53.0089500000" lon="-4.0897240000"><ele>279</ele><time>2016-09-30T10:16:05Z</time></trkpt>
<trkpt lat="53.0089530000" lon="-4.0897150000"><ele>279</ele><time>2016-09-30T10:16:06Z</time></trkpt>
<trkpt lat="53.0089570000" lon="-4.0897050000"><ele>279</ele><time>2016-09-30T10:16:07Z</time></trkpt>
<trkpt lat="53.0089610000" lon="-4.0896950000"><ele>279</ele><time>2016-09-30T10:16:08Z</time></trkpt>
<trkpt lat="53.0089650000" lon="-4.0896850000"><ele>279</ele><time>2016-09-30T10:16:09Z</time></trkpt>
<trkpt lat="53.0089700000" lon="-4.0896750000"><ele>280</ele><time>2016-09-30T10:16:10Z</time></trkpt>
<trkpt lat="53.0089740000" lon="-4.0896660000"><ele>280</ele><time>2016-09-30T10:16:11Z</time></trkpt>
<trkpt lat="53.0089780000" lon="-4.0896570000"><ele>280</ele><time>2016-09-30T10:16:12Z</time></trkpt>
<trkpt lat="53.0089830000" lon="-4.0896480000"><ele>280</ele><time>2016-09-30T10:16:13Z</time></trkpt>
<trkpt lat="53.0089880000" lon="-4.0896390000"><ele>280</ele><time>2016-09-30T10:16:14Z</time></trkpt>
<trkpt lat="53.0089920000" lon="-4.0896320000"><ele>280</ele><time>2016-09-30T10:16:15Z</time></trkpt>
<trkpt lat="53.0089960000" lon="-4.0896260000"><ele>280</ele><time>2016-09-30T10:16:16Z</time></trkpt>
<trkpt lat="53.0090030000" lon="-4.0896180000"><ele>280</ele><time>2016-09-30T10:16:17Z</time></trkpt>
<trkpt lat="53.0090090000" lon="-4.0896100000"><ele>280</ele><time>2016-09-30T10:16:18Z</time></trkpt>
<trkpt lat="53.0090160000" lon="-4.0896030000"><ele>280</ele><time>2016-09-30T10:16:19Z</time></trkpt>
<trkpt lat="53.0090230000" lon="-4.0895960000"><ele>280</ele><time>2016-09-30T10:16:20Z</time></trkpt>
<trkpt lat="53.0090300000" lon="-4.0895890000"><ele>280</ele><time>2016-09-30T10:16:21Z</time></trkpt>
<trkpt lat="53.0090370000" lon="-4.0895820000"><ele>280</ele><time>2016-09-30T10:16:22Z</time></trkpt>
<trkpt lat="53.0090430000" lon="-4.0895750000"><ele>280</ele><time>2016-09-30T10:16:23Z</time></trkpt>
<trkpt lat="53.0090500000" lon="-4.0895680000"><ele>280</ele><time>2016-09-30T10:16:24Z</time></trkpt>
<trkpt lat="53.0090560000" lon="-4.0895620000"><ele>280</ele><time>2016-09-30T10:16:25Z</time></trkpt>
<trkpt lat="53.0090620000" lon="-4.0895550000"><ele>280</ele><time>2016-09-30T10:16:26Z</time></trkpt>
<trkpt lat="53.0090680000" lon="-4.0895490000"><ele>280</ele><time>2016-09-30T10:16:27Z</time></trkpt>
<trkpt lat="53.0090740000" lon="-4.0895420000"><ele>280</ele><time>2016-09-30T10:16:28Z</time></trkpt>
<trkpt lat="53.0090800000" lon="-4.0895360000"><ele>280</ele><time>2016-09-30T10:16:29Z</time></trkpt>
<trkpt lat="53.0090860000" lon="-4.0895300000"><ele>280</ele><time>2016-09-30T10:16:30Z</time></trkpt>
<trkpt lat="53.0090910000" lon="-4.0895240000"><ele>280</ele><time>2016-09-30T10:16:31Z</time></trkpt>
<trkpt lat="53.0090960000" lon="-4.0895180000"><ele>280</ele><time>2016-09-30T10:16:32Z</time></trkpt>
<trkpt lat="53.0091010000" lon="-4.0895130000"><ele>280</ele></trkpt>
<trkpt lat="53.0091050000" lon="-4.0895090000"><ele>280</ele><time>2016-09-30T10:16:34Z</time></trkpt>
<trkpt lat="53.0091100000" lon="-4.0895040000"><ele>280</ele><time>2016-09-30T10:16:35Z</time></trkpt>
<trkpt lat="53.0091150000" lon="-4.0895000000"><ele>280</ele><time>2016-09-30T10:16:36Z</time></trkpt>
<trkpt lat="53.0091200000" lon="-4.0894950000"><ele>280</ele><time>2016-09-30T10:16:37Z</time></trkpt>
<trkpt lat="53.0091260000" lon="-4.0894890000"><ele>280</ele><time>2016-09-30T10:16:38Z</time></trkpt>
<trkpt lat="53.0091370000" lon="-4.0894750000"><ele>281</ele><time>2016-09-30T10:16:41Z</time></trkpt>
<trkpt lat="53.0091430000" lon="-4.0894670000"><ele>281</ele></trkpt>
<trkpt lat="53.0092330000" lon="-4.0893460000"><ele>281</ele><time>2016-09-30T10:16:42Z</time></trkpt>
<trkpt lat="53.0092410000" lon="-4.0893310000"><ele>281</ele><time>2016-09-30T10:16:43Z</time></trkpt>
<trkpt lat="53.0092480000" lon="-4.0893210000"><ele>281</ele><time>2016-09-30T10:16:44Z</time></trkpt>
<trkpt lat="53.0092570000" lon="-4.0893130000"><ele>281</ele><time>2016-09-30T10:16:45Z</time></trkpt>
<trkpt lat="53.0092640000" lon="-4.0893050000"><ele>281</ele><time>2016-09-30T10:16:46Z</time></trkpt>
<trkpt lat="53.0092680000" lon="-4.0893000000"><ele>281</ele><time>2016-09-30T10:16:47Z</time></trkpt>
<trkpt lat="53.0092680000" lon="-4.0893000000"><ele>280</ele><time>2016-09-30T10:16:48Z</time></trkpt>
<trkpt lat="53.0092680000" lon="-4.0893000000"><ele>280</ele><time>2016-09-30T10:16:50Z</time></trkpt>
<trkpt lat="53.0092690000" lon="-4.0892990000"><ele>280</ele><time>2016-09-30T10:16:51Z</time></trkpt>
<trkpt lat="53.0092700000" lon="-4.0892980000"><ele>280</ele><time>2016-09-30T10:16:52Z</time></trkpt>
<trkpt lat="53.0092710000" lon="-4.0892970000"><ele>280</ele><time>2016-09-30T10:16:53Z</time></trkpt>
<trkpt lat="53.0092730000" lon="-4.0892950000"><ele>280</ele><time>2016-09-30T10:16:54Z</time></trkpt>
<trkpt lat="53.0092750000" lon="-4.0892930000"><ele>280</ele><time>2016-09-30T10:16:55Z</time></trkpt>
<trkpt lat="53.0092780000" lon="-4.0892900000"><ele>280</ele><time>2016-09-30T10:16:56Z</time></trkpt>
<trkpt lat="53.0092800000" lon="-4.0892870000"><ele>279</ele><time>2016-09-30T10:16:57Z</time></trkpt>
<trkpt lat="53.0092830000" lon="-4.0892830000"><ele>279</ele><time>2016-09-30T10:16:58Z</time></trkpt>
<trkpt lat="53.0092860000" lon="-4.0892800000"><ele>279</ele><time>2016-09-30T10:16:59Z</time></trkpt>
<trkpt lat="53.0092900000" lon="-4.0892760000"><ele>279</ele><time>2016-09-30T10:17:00Z</time></trkpt>
<trkpt lat="53.0092930000" lon="-4.0892720000"><ele>279</ele><time>2016-09-30T10:17:01Z</time></trkpt>
<trkpt lat="53.0092970000" lon="-4.0892680000"><ele>279</ele><time>2016-09-30T10:17:02Z</time></trkpt>
<trkpt lat="53.0093020000" lon="-4.0892650000"><ele>278</ele><time>2016-09-30T10:17:03Z</time></trkpt>
<trkpt lat="53.0093060000" lon="-4.0892610000"><ele>278</ele><time>2016-09-30T10:17:04Z</time></trkpt>
<trkpt lat="53.0093110000" lon="-4.0892580000"><ele>278</ele><time>2016-09-30T10:17:05Z</time></trkpt>
<trkpt lat="53.0093160000" lon="-4.0892540000"><ele>278</ele><time>2016-09-30T10:17:06Z</time></trkpt>
<trkpt lat="53.0093220000" lon="-4.0892510000"><ele>278</ele><time>2016-09-30T10:17:07Z</time></trkpt>
<trkpt lat="53.0093280000" lon="-4.0892470000"><ele>278</ele></trkpt>
<trkpt lat="53.0093350000" lon="-4.0892430000"><ele>278</ele><time>2016-09-30T10:17:09Z</time></trkpt>
<trkpt lat="53.0093410000" lon="-4.0892390000"><ele>278</ele><time>2016-09-30T10:17:10Z</time></trkpt>
<trkpt lat="53.0093470000" lon="-4.0892340000"><ele>278</ele><time>2016-09-30T10:17:11Z</time></trkpt>
<trkpt lat="53.0093540000" lon="-4.0892290000"><ele>278</ele><time>2016-09-30T10:17:12Z</time></trkpt>
<trkpt lat="53.0093600000" lon="-4.0892230000"><ele>278</ele><time>2016-09-30T10:17:13Z</time></trkpt>
<trkpt lat="53.0093670000" lon="-4.0892180000"><ele>278</ele></trkpt>
<trkpt lat="53.0093730000" lon="-4.0892120000"><ele>278</ele><time>2016-09-30T10:17:15Z</time></trkpt>
<trkpt lat="53.0093790000" lon="-4.0892070000"><ele>277</ele><time>2016-09-30T10:17:16Z</time></trkpt>
<trkpt lat="53.0093860000" lon="-4.0892010000"><ele>277</ele><time>2016-09-30T10:17:17Z</time></trkpt>
<trkpt lat="53.0093920000" lon="-4.0891950000"><ele>277</ele><time>2016-09-30T10:17:18Z</time></trkpt>
<trkpt lat="53.0093980000" lon="-4.0891900000"><ele>277</ele><time>2016-09-30T10:17:19Z</time></trkpt>
<trkpt lat="53.0094050000" lon="-4.0891850000"><ele>277</ele><time>2016-09-30T10:17:20Z</time></trkpt>
<trkpt lat="53.0094110000" lon="-4.0891810000"><ele>277</ele><time>2016-09-30T10:17:21Z</time></trkpt>
<trkpt lat="53.0094180000" lon="-4.0891760000"><ele>277</ele><time>2016-09-30T10:17:22Z</time></trkpt>
<trkpt lat="53.0094250000" lon="-4.0891710000"><ele>276</ele><time>2016-09-30T10:17:23Z</time></trkpt>
<trkpt lat="53.0094320000" lon="-4.0891660000"><ele>276</ele><time>2016-09-30T10:17:24Z</time></trkpt>
<trkpt lat="53.0094390000" lon="-4.0891610000"><ele>276</ele><time>2016-09-30T10:17:25Z</time></trkpt>
<trkpt lat="53.0094460000" lon="-4.0891560000"><ele>276</ele><time>2016-09-30T10:17:26Z</time></trkpt>
<trkpt lat="53.0094510000" lon="-4.0891520000"><ele>276</ele><time>2016-09-30T10:17:27Z</time></trkpt>
<trkpt lat="53.0094580000" lon="-4.0891470000"><ele>276</ele><time>2016-09-30T10:17:28Z</time></trkpt>
<trkpt lat="53.0094650000" lon="-4.0891420000"><ele>276</ele><time>2016-09-30T10:17:29Z</time></trkpt>
<trkpt lat="53.0094730000" lon="-4.0891380000"><ele>276</ele><time>2016-09-30T10:17:30Z</time></trkpt>
<trkpt lat="53.0094800000" lon="-4.0891340000"><ele>276</ele><time>2016-09-30T10:17:31Z</time></trkpt>
<trkpt lat="53.0094870000" lon="-4.0891300000"><ele>276</ele><time>2016-09-30T10:17:32Z</time></trkpt>
<trkpt lat="53.0094940000" lon="-4.0891260000"><ele>276</ele><time>2016-09-30T10:17:33Z</time></trkpt>
<trkpt lat="53.0095020000" lon="-4.0891220000"><ele>276</ele><time>2016-09-30T10:17:34Z</time></trkpt>
<trkpt lat="53.0095090000" lon="-4.0891170000"><ele>276</ele><time>2016-09-30T10:17:35Z</time></trkpt>
<trkpt lat="53.0095170000" lon="-4.0891120000"><ele>275</ele><time>2016-09-30T10:17:36Z</time></trkpt>
<trkpt lat="53.0095240000" lon="-4.0891060000"><ele>275</ele><time>2016-09-30T10:17:37Z</time></trkpt>
<trkpt lat="53.0095320000" lon="-4.0891010000"><ele>275</ele><time>2016-09-30T10:17:38Z</time></trkpt>
<trkpt lat="53.0095400000" lon="-4.0890950000"><ele>275</ele><time>2016-09-30T10:17:39Z</time></trkpt>
<trkpt lat="53.0095480000" lon="-4.0890900000"><ele>275</ele><time>2016-09-30T10:17:40Z</time></trkpt>
<trkpt lat="53.0095560000" lon="-4.0890840000"><ele>275</ele><time>2016-09-30T10:17:41Z</time></trkpt>
<trkpt lat="53.0095640000" lon="-4.0890790000"><ele>275</ele><time>2016-09-30T10:17:42Z</time></trkpt>
<trkpt lat="53.0095720000" lon="-4.0890740000"><ele>275</ele><time>2016-09-30T10:17:43Z</time></trkpt>
<trkpt lat="53.0095800000" lon="-4.0890690000"><ele>275</ele><time>2016-09-30T10:17:44Z</time></trkpt>
<trkpt lat="53.0095870000" lon="-4.0890640000"><ele>275</ele><time>2016-09-30T10:17:45Z</time></trkpt>
<trkpt lat="53.0095950000" lon="-4.0890590000"><ele>274</ele><time>2016-09-30T10:17:46Z</time></trkpt>
<trkpt lat="53.0096020000" lon="-4.0890540000"><ele>274</ele><time>2016-09-30T10:17:47Z</time></trkpt>
<trkpt lat="53.0096090000" lon="-4.0890490000"><ele>274</ele><time>2016-09-30T10:17:48Z</time></trkpt>
<trkpt lat="53.0096150000" lon="-4.0890420000"><ele>274</ele><time>2016-09-30T10:17:49Z</time></trkpt>
<trkpt lat="53.0096210000" lon="-4.0890360000"><ele>273</ele><time>2016-09-30T10:17:50Z</time></trkpt>
<trkpt lat="53.0096260000" lon="-4.0890300000"><ele>273</ele><time>2016-09-30T10:17:51Z</time></trkpt>
<trkpt lat="53.0096320000" lon="-4.0890230000"><ele>273</ele><time>2016-09-30T10:17:52Z</time></trkpt>
<trkpt lat="53.0096370000" lon="-4.0890160000"><ele>272</ele><time>2016-09-30T10:17:53Z</time></trkpt>
<trkpt lat="53.0096410000" lon="-4.0890100000"><ele>272</ele><time>2016-09-30T10:17:54Z</time></trkpt>
<trkpt lat="53.0096450000" lon="-4.0890030000"><ele>272</ele><time>2016-09-30T10:17:55Z</time></trkpt>
<trkpt lat="53.0096480000" lon="-4.0889950000"><ele>271</ele><time>2016-09-30T10:17:56Z</time></trkpt>
<trkpt lat="53.0096520000" lon="-4.0889880000"><ele>271</ele><time>2016-09-30T10:17:57Z</time></trkpt>
<trkpt lat="53.0096540000" lon="-4.0889800000"><ele>271</ele><time>2016-09-30T10:17:58Z</time></trkpt>
<trkpt lat="53.0096560000" lon="-4.0889720000"><ele>271</ele><time>2016-09-30T10:17:59Z</time></trkpt>
<trkpt lat="53.0096580000" lon="-4.0889650000"><ele>271</ele><time>2016-09-30T10:18:00Z</time></trkpt>
<trkpt lat="53.0096590000" lon="-4.0889580000"><ele>270</ele><time>2016-09-30T10:18:01Z</time></trkpt>
<trkpt lat="53.0096600000" lon="-4.0889520000"><ele>270</ele><time>2016-09-30T10:18:02Z</time></trkpt>
<trkpt lat="53.0096610000" lon="-4.0889460000"><ele>270</ele><time>2016-09-30T10:18:03Z</time></trkpt>
<trkpt lat="53.0096610000" lon="-4.0889410000"><ele>270</ele><time>2016-09-30T10:18:04Z</time></trkpt>
<trkpt lat="53.0096610000" lon="-4.0889350000"><ele>270</ele></trkpt>
<trkpt lat="53.0096610000" lon="-4.0889300000"><ele>269</ele><time>2016-09-30T10:18:06Z</time></trkpt>
<trkpt lat="53.0096610000" lon="-4.0889240000"><ele>269</ele><time>2016-09-30T10:18:07Z</time></trkpt>
<trkpt lat="53.0096610000" lon="-4.0889180000"><ele>269</ele><time>2016-09-30T10:18:08Z</time></trkpt>
<trkpt lat="53.0096620000" lon="-4.0889120000"><ele>269</ele><time>2016-09-30T10:18:09Z</time></trkpt>
<trkpt lat="53.0096620000" lon="-4.0889050000"><ele>269</ele><time>2016-09-30T10:18:10Z</time></trkpt>
<trkpt lat="53.0096630000" lon="-4.0888990000"><ele>269</ele><time>2016-09-30T10:18:11Z</time></trkpt>
<trkpt lat="53.0096650000" lon="-4.0888920000"><ele>268</ele><time>2016-09-30T10:18:12Z</time></trkpt>
<trkpt lat="53.0096660000" lon="-4.0888850000"><ele>268</ele><time>2016-09-30T10:18:13Z</time></trkpt>
<trkpt lat="53.0097030000" lon="-4.0887600000"><ele>268</ele><time>2016-09-30T10:18:14Z</time></trkpt>
<trkpt lat="53.0097100000" lon="-4.0887470000"><ele>268</ele><time>2016-09-30T10:18:15Z</time></trkpt>
<trkpt lat="53.0097200000" lon="-4.0887360000"><ele>268</ele><time>2016-09-30T10:18:16Z</time></trkpt>
<trkpt lat="53.0097330000" lon="-4.0887290000"><ele>268</ele><time>2016-09-30T10:18:17Z</time></trkpt>
<trkpt lat="53.0097440000" lon="-4.0887260000"><ele>267</ele><time>2016-09-30T10:18:18Z</time></trkpt>
<trkpt lat="53.0097530000" lon="-4.0887270000"><ele>267</ele><time>2016-09-30T10:18:19Z</time></trkpt>
<trkpt lat="53.0097530000" lon="-4.0887270000"><ele>267</ele><time>2016-09-30T10:18:20Z</time></trkpt>
<trkpt lat="53.0097540000" lon="-4.0887270000"><ele>267</ele><time>2016-09-30T10:18:21Z</time></trkpt>
<trkpt lat="53.0097540000" lon="-4.0887270000"><ele>267</ele><time>2016-09-30T10:18:22Z</time></trkpt>
<trkpt lat="53.0097550000" lon="-4.0887270000"><ele>266</ele><time>2016-09-30T10:18:23Z</time></trkpt>
<trkpt lat="53.0097560000" lon="-4.0887270000"><ele>266</ele></trkpt>
<trkpt lat="53.0097580000" lon="-4.0887260000"><ele>266</ele><time>2016-09-30T10:18:25Z</time></trkpt>
<trkpt lat="53.0097600000" lon="-4.0887260000"><ele>266</ele><time>2016-09-30T10:18:26Z</time></trkpt>
<trkpt lat="53.0097630000" lon="-4.0887250000"><ele>266</ele><time>2016-09-30T10:18:27Z</time></trkpt>
<trkpt lat="53.0097660000" lon="-4.0887230000"><ele>266</ele><time>2016-09-30T10:18:28Z</time></trkpt>
<trkpt lat="53.0097690000" lon="-4.0887220000"><ele>266</ele><time>2016-09-30T10:18:29Z</time></trkpt>
<trkpt lat="53.0097720000" lon="-4.0887200000"><ele>266</ele><time>2016-09-30T10:18:30Z</time></trkpt>
<trkpt lat="53.0097770000" lon="-4.0887180000"><ele>265</ele><time>2016-09-30T10:18:31Z</time></trkpt>
<trkpt lat="53.0097810000" lon="-4.0887160000"><ele>265</ele><time>2016-09-30T10:18:32Z</time></trkpt>
<trkpt lat="53.0097860000" lon="-4.0887140000"><ele>265</ele><time>2016-09-30T10:18:33Z</time></trkpt>
<trkpt lat="53.0097910000" lon="-4.0887120000"><ele>265</ele><time>2016-09-30T10:18:34Z</time></trkpt>
<trkpt lat="53.0097960000" lon="-4.0887090000"><ele>265</ele><time>2016-09-30T10:18:35Z</time></trkpt>
<trkpt lat="53.0098010000" lon="-4.0887060000"><ele>265</ele><time>2016-09-30T10:18:36Z</time></trkpt>
<trkpt lat="53.0098060000" lon="-4.0887020000"><ele>265</ele><time>2016-09-30T10:18:37Z</time></trkpt>
<trkpt lat="53.0098100000" lon="-4.0886990000"><ele>265</ele><time>2016-09-30T10:18:38Z</time></trkpt>
<trkpt lat="53.0098150000" lon="-4.0886950000"><ele>265</ele><time>2016-09-30T10:18:39Z</time></trkpt>
<trkpt lat="53.0098190000" lon="-4.0886900000"><ele>265</ele><time>2016-09-30T10:18:41Z</time></trkpt>
<trkpt lat="53.0098230000" lon="-4.0886850000"><ele>265</ele></trkpt>
<trkpt lat="53.0098270000" lon="-4.0886790000"><ele>265</ele><time>2016-09-30T10:18:42Z</time></trkpt>
<trkpt lat="53.0098290000" lon="-4.0886730000"><ele>264</ele><time>2016-09-30T10:18:43Z</time></trkpt>
<trkpt lat="53.0098320000" lon="-4.0886670000"><ele>264</ele><time>2016-09-30T10:18:44Z</time></trkpt>
<trkpt lat="53.0098340000" lon="-4.0886600000"><ele>264</ele><time>2016-09-30T10:18:45Z</time></trkpt>
<trkpt lat="53.0098370000" lon="-4.0886530000"><ele>264</ele><time>2016-09-30T10:18:46Z</time></trkpt>
<trkpt lat="53.0098390000" lon="-4.0886460000"><ele>264</ele><time>2016-09-30T10:18:47Z</time></trkpt>
<trkpt lat="53.0098420000" lon="-4.0886380000"><ele>264</ele><time>2016-09-30T10:18:48Z</time></trkpt>
<trkpt lat="53.0098450000" lon="-4.0886310000"><ele>264</ele><time>2016-09-30T10:18:49Z</time></trkpt>
<trkpt lat="53.0098470000" lon="-4.0886230000"><ele>264</ele><time>2016-09-30T10:18:50Z</time></trkpt>
<trkpt lat="53.0098500000" lon="-4.0886160000"><ele>264</ele><time>2016-09-30T10:18:51Z</time></trkpt>
<trkpt lat="53.0098520000" lon="-4.0886080000"><ele>264</ele><time>2016-09-30T10:18:52Z</time></trkpt>
<trkpt lat="53.0098550000" lon="-4.0886010000"><ele>264</ele><time>2016-09-30T10:18:53Z</time></trkpt>
<trkpt lat="53.0098570000" lon="-4.0885950000"><ele>263</ele><time>2016-09-30T10:18:54Z</time></trkpt>
<trkpt lat="53.0098590000" lon="-4.0885880000"><ele>263</ele><time>2016-09-30T10:18:55Z</time></trkpt>
<trkpt lat="53.0098620000" lon="-4.0885820000"><ele>263</ele><time>2016-09-30T10:18:56Z</time></trkpt>
<trkpt lat="53.0098640000" lon="-4.0885760000"><ele>263</ele><time>2016-09-30T10:18:57Z</time></trkpt>
<trkpt lat="53.0098670000" lon="-4.0885710000"><ele>263</ele><time>2016-09-30T10:18:58Z</time></trkpt>
<trkpt lat="53.0098700000" lon="-4.0885650000"><ele>263</ele><time>2016-09-30T10:18:59Z</time></trkpt>
<trkpt lat="53.0098730000" lon="-4.0885590000"><ele>263</ele><time>2016-09-30T10:19:00Z</time></trkpt>
<trkpt lat="53.0098760000" lon="-4.0885540000"><ele>262</ele><time>2016-09-30T10:19:01Z</time></trkpt>
<trkpt lat="53.0098790000" lon="-4.0885490000"><ele>262</ele><time>2016-09-30T10:19:02Z</time></trkpt>
<trkpt lat="53.0098830000" lon="-4.0885430000"><ele>262</ele><time>2016-09-30T10:19:03Z</time></trkpt>
<trkpt lat="53.0098870000" lon="-4.0885390000"><ele>262</ele><time>2016-09-30T10:19:04Z</time></trkpt>
<trkpt lat="53.0098900000" lon="-4.0885350000"><ele>262</ele><time>2016-09-30T10:19:05Z</time></trkpt>
<trkpt lat="53.0098930000" lon="-4.0885320000"><ele>262</ele><time>2016-09-30T10:19:06Z</time></trkpt>
<trkpt lat="53.0098990000" lon="-4.0885270000"><ele>262</ele><time>2016-09-30T10:19:07Z</time></trkpt>
<trkpt lat="53.0099040000" lon="-4.0885220000"><ele>262</ele><time>2016-09-30T10:19:08Z</time></trkpt>
<trkpt lat="53.0099100000" lon="-4.0885180000"><ele>262</ele><time>2016-09-30T10:19:09Z</time></trkpt>
<trkpt lat="53.0099950000" lon="-4.0884520000"><ele>262</ele><time>2016-09-30T10:19:10Z</time></trkpt>
<trkpt lat="53.0100020000" lon="-4.0884440000"><ele>262</ele><time>2016-09-30T10:19:11Z</time></trkpt>
<trkpt lat="53.0100090000" lon="-4.0884390000"><ele>262</ele><time>2016-09-30T10:19:12Z</time></trkpt>
<trkpt lat="53.0100090000" lon="-4.0884390000"><ele>262</ele><time>2016-09-30T10:19:13Z</time></trkpt>
<trkpt lat="53.0100100000" lon="-4.0884380000"><ele>262</ele></trkpt>
<trkpt lat="53.0100100000" lon="-4.0884380000"><ele>262</ele><time>2016-09-30T10:19:15Z</time></trkpt>
<trkpt lat="53.0100110000" lon="-4.0884370000"><ele>262</ele><time>2016-09-30T10:19:16Z</time></trkpt>
<trkpt lat="53.0100120000" lon="-4.0884370000"><ele>262</ele><time>2016-09-30T10:19:17Z</time></trkpt>
<trkpt lat="53.0100140000" lon="-4.0884360000"><ele>262</ele><time>2016-09-30T10:19:18Z</time></trkpt>
<trkpt lat="53.0100160000" lon="-4.0884350000"><ele>262</ele><time>2016-09-30T10:19:19Z</time></trkpt>
<trkpt lat="53.0100190000" lon="-4.0884340000"><ele>262</ele><time>2016-09-30T10:19:20Z</time></trkpt>
<trkpt lat="53.0100220000" lon="-4.0884330000"><ele>262</ele><time>2016-09-30T10:19:21Z</time></trkpt>
<trkpt lat="53.0100260000" lon="-4.0884320000"><ele>262</ele><time>2016-09-30T10:19:22Z</time></trkpt>
<trkpt lat="53.0100300000" lon="-4.0884320000"><ele>263</ele><time>2016-09-30T10:19:23Z</time></trkpt>
<trkpt lat="53.0100350000" lon="-4.0884310000"><ele>263</ele><time>2016-09-30T10:19:24Z</time></trkpt>
<trkpt lat="53.0100400000" lon="-4.0884310000"><ele>263</ele><time>2016-09-30T10:19:25Z</time></trkpt>
<trkpt lat="53.0100460000" lon="-4.0884310000"><ele>263</ele><time>2016-09-30T10:19:26Z</time></trkpt>
<trkpt lat="53.0100530000" lon="-4.0884310000"><ele>263</ele><time>2016-09-30T10:19:27Z</time></trkpt>
<trkpt lat="53.0100600000" lon="-4.0884310000"><ele>263</ele><time>2016-09-30T10:19:28Z</time></trkpt>
<trkpt lat="53.0100670000" lon="-4.0884310000"><ele>263</ele><time>2016-09-30T10:19:29Z</time></trkpt>
<trkpt lat="53.0100750000" lon="-4.0884300000"><ele>263</ele><time>2016-09-30T10:19:30Z</time></trkpt>
<trkpt lat="53.0100830000" lon="-4.0884290000"><ele>263</ele><time>2016-09-30T10:19:31Z</time></trkpt>
<trkpt lat="53.0100900000" lon="-4.0884280000"><ele>263</ele><time>2016-09-30T10:19:32Z</time></trkpt>
<trkpt lat="53.0100990000" lon="-4.0884260000"><ele>264</ele></trkpt>
<trkpt lat="53.0101070000" lon="-4.0884240000"><ele>264</ele><time>2016-09-30T10:19:34Z</time></trkpt>
<trkpt lat="53.0101160000" lon="-4.0884210000"><ele>264</ele><time>2016-09-30T10:19:35Z</time></trkpt>
<trkpt lat="53.0101240000" lon="-4.0884170000"><ele>264</ele><time>2016-09-30T10:19:36Z</time></trkpt>
<trkpt lat="53.0101330000" lon="-4.0884130000"><ele>264</ele><time>2016-09-30T10:19:37Z</time></trkpt>
<trkpt lat="53.0101410000" lon="-4.0884080000"><ele>264</ele><time>2016-09-30T10:19:38Z</time></trkpt>
<trkpt lat="53.0101580000" lon="-4.0883960000"><ele>265</ele><time>2016-09-30T10:19:41Z</time></trkpt>
<trkpt lat="53.0102780000" lon="-4.0882910000"><ele>265</ele></trkpt>
<trkpt lat="53.0102840000" lon="-4.0882770000"><ele>265</ele><time>2016-09-30T10:19:42Z</time></trkpt>
<trkpt lat="53.0102910000" lon="-4.0882660000"><ele>265</ele><time>2016-09-30T10:19:43Z</time></trkpt>
<trkpt lat="53.0102910000" lon="-4.0882660000"><ele>265</ele><time>2016-09-30T10:19:44Z</time></trkpt>
<trkpt lat="53.0102910000" lon="-4.0882650000"><ele>265</ele><time>2016-09-30T10:19:45Z</time></trkpt>
<trkpt lat="53.0102910000" lon="-4.0882650000"><ele>265</ele><time>2016-09-30T10:19:46Z</time></trkpt>
<trkpt lat="53.0102920000" lon="-4.0882640000"><ele>265</ele><time>2016-09-30T10:19:47Z</time></trkpt>
<trkpt lat="53.0102930000" lon="-4.0882630000"><ele>265</ele><time>2016-09-30T10:19:48Z</time></trkpt>
<trkpt lat="53.0102950000" lon="-4.0882610000"><ele>265</ele></trkpt>
<trkpt lat="53.0103440000" lon="-4.0881900000"><ele>265</ele><time>2016-09-30T10:19:50Z</time></trkpt>
<trkpt lat="53.0103510000" lon="-4.0881750000"><ele>265</ele><time>2016-09-30T10:19:51Z</time></trkpt>
<trkpt lat="53.0103590000" lon="-4.0881610000"><ele>265</ele><time>2016-09-30T10:19:52Z</time></trkpt>
<trkpt lat="53.0103660000" lon="-4.0881450000"><ele>265</ele><time>2016-09-30T10:19:53Z</time></trkpt>
<trkpt lat="53.0103720000" lon="-4.0881300000"><ele>265</ele><time>2016-09-30T10:19:54Z</time></trkpt>
<trkpt lat="53.0103780000" lon="-4.0881140000"><ele>265</ele><time>2016-09-30T10:19:55Z</time></trkpt>
<trkpt lat="53.0103820000" lon="-4.0881010000"><ele>265</ele><time>2016-09-30T10:19:56Z</time></trkpt>
<trkpt lat="53.0103820000" lon="-4.0881010000"><ele>265</ele><time>2016-09-30T10:19:57Z</time></trkpt>
<trkpt lat="53.0103820000" lon="-4.0881010000"><ele>265</ele><time>2016-09-30T10:19:58Z</time></trkpt>
<trkpt lat="53.0103820000" lon="-4.0881000000"><ele>265</ele><time>2016-09-30T10:19:59Z</time></trkpt>
<trkpt lat="53.0103830000" lon="-4.0881000000"><ele>265</ele><time>2016-09-30T10:20:00Z</time></trkpt>
<trkpt lat="53.0103840000" lon="-4.0880990000"><ele>265</ele><time>2016-09-30T10:20:01Z</time></trkpt>
<trkpt lat="53.0103850000" lon="-4.0880980000"><ele>265</ele><time>2016-09-30T10:20:02Z</time></trkpt>
<trkpt lat="53.0103870000" lon="-4.0880960000"><ele>265</ele><time>2016-09-30T10:20:03Z</time></trkpt>
<trkpt lat="53.0103890000" lon="-4.0880940000"><ele>265</ele><time>2016-09-30T10:20:04Z</time></trkpt>
<trkpt lat="53.0103910000" lon="-4.0880920000"><ele>265</ele><time>2016-09-30T10:20:05Z</time></trkpt>
<trkpt lat="53.0103940000" lon="-4.0880890000"><ele>265</ele><time>2016-09-30T10:20:06Z</time></trkpt>
<trkpt lat="53.0103980000" lon="-4.0880840000"><ele>265</ele><time>2016-09-30T10:20:07Z</time></trkpt>
<trkpt lat="53.0104710000" lon="-4.0879880000"><ele>265</ele><time>2016-09-30T10:20:08Z</time></trkpt>
<trkpt lat="53.0104800000" lon="-4.0879750000"><ele>265</ele><time>2016-09-30T10:20:09Z</time></trkpt>
<trkpt lat="53.0104910000" lon="-4.0879680000"><ele>265</ele><time>2016-09-30T10:20:10Z</time></trkpt>
<trkpt lat="53.0105040000" lon="-4.0879640000"><ele>265</ele><time>2016-09-30T10:20:11Z</time></trkpt>
<trkpt lat="53.0105150000" lon="-4.0879580000"><ele>265</ele><time>2016-09-30T10:20:12Z</time></trkpt>
<trkpt lat="53.0105250000" lon="-4.0879510000"><ele>265</ele><time>2016-09-30T10:20:13Z</time></trkpt>
<trkpt lat="53.0105250000" lon="-4.0879510000"><ele>265</ele></trkpt>
<trkpt lat="53.0105250000" lon="-4.0879500000"><ele>265</ele><time>2016-09-30T10:20:15Z</time></trkpt>
<trkpt lat="53.0105260000" lon="-4.0879500000"><ele>265</ele><time>2016-09-30T10:20:16Z</time></trkpt>
<trkpt lat="53.0105270000" lon="-4.0879490000"><ele>265</ele><time>2016-09-30T10:20:17Z</time></trkpt>
<trkpt lat="53.0105280000" lon="-4.0879480000"><ele>265</ele><time>2016-09-30T10:20:18Z</time></trkpt>
<trkpt lat="53.0105300000" lon="-4.0879460000"><ele>265</ele><time>2016-09-30T10:20:19Z</time></trkpt>
<trkpt lat="53.0105330000" lon="-4.0879440000"><ele>264</ele><time>2016-09-30T10:20:20Z</time></trkpt>
<trkpt lat="53.0105360000" lon="-4.0879420000"><ele>264</ele><time>2016-09-30T10:20:21Z</time></trkpt>
<trkpt lat="53.0105400000" lon="-4.0879400000"><ele>264</ele><time>2016-09-30T10:20:22Z</time></trkpt>
<trkpt lat="53.0105440000" lon="-4.0879370000"><ele>264</ele><time>2016-09-30T10:20:23Z</time></trkpt>
<trkpt lat="53.0105480000" lon="-4.0879340000"><ele>264</ele><time>2016-09-30T10:20:24Z</time></trkpt>
<trkpt lat="53.0105540000" lon="-4.0879310000"><ele>264</ele><time>2016-09-30T10:20:25Z</time></trkpt>
<trkpt lat="53.0105590000" lon="-4.0879270000"><ele>264</ele><time>2016-09-30T10:20:26Z</time></trkpt>
<trkpt lat="53.0105660000" lon="-4.0879220000"><ele>264</ele><time>2016-09-30T10:20:27Z</time></trkpt>
<trkpt lat="53.0106760000" lon="-4.0878330000"><ele>264</ele><time>2016-09-30T10:20:28Z</time></trkpt>
<trkpt lat="53.0106840000" lon="-4.0878200000"><ele>264</ele><time>2016-09-30T10:20:29Z</time></trkpt>
<trkpt lat="53.0106940000" lon="-4.0878090000"><ele>264</ele><time>2016-09-30T10:20:30Z</time></trkpt>
<trkpt lat="53.0107030000" lon="-4.0877970000"><ele>263</ele><time>2016-09-30T10:20:31Z</time></trkpt>
<trkpt lat="53.0107110000" lon="-4.0877840000"><ele>263</ele><time>2016-09-30T10:20:32Z</time></trkpt>
<trkpt lat="53.0107210000" lon="-4.0877700000"><ele>263</ele><time>2016-09-30T10:20:33Z</time></trkpt>
<trkpt lat="53.0107280000" lon="-4.0877530000"><ele>263</ele><time>2016-09-30T10:20:34Z</time></trkpt>
<trkpt lat="53.0107340000" lon="-4.0877350000"><ele>263</ele><time>2016-09-30T10:20:35Z</time></trkpt>
<trkpt lat="53.0107390000" lon="-4.0877170000"><ele>263</ele><time>2016-09-30T10:20:36Z</time></trkpt>
<trkpt lat="53.0107460000" lon="-4.0877000000"><ele>263</ele><time>2016-09-30T10:20:37Z</time></trkpt>
<trkpt lat="53.0107540000" lon="-4.0876860000"><ele>263</ele><time>2016-09-30T10:20:38Z</time></trkpt>
<trkpt lat="53.0107620000" lon="-4.0876710000"><ele>263</ele></trkpt>
<trkpt lat="53.0107690000" lon="-4.0876550000"><ele>262</ele><time>2016-09-30T10:20:40Z</time></trkpt>
<trkpt lat="53.0107740000" lon="-4.0876380000"><ele>262</ele><time>2016-09-30T10:20:41Z</time></trkpt>
<trkpt lat="53.0107770000" lon="-4.0876220000"><ele>262</ele><time>2016-09-30T10:20:42Z</time></trkpt>
<trkpt lat="53.0107770000" lon="-4.0876220000"><ele>262</ele><time>2016-09-30T10:20:43Z</time></trkpt>
<trkpt lat="53.0107770000" lon="-4.0876220000"><ele>262</ele><time>2016-09-30T10:20:44Z</time></trkpt>
<trkpt lat="53.0107770000" lon="-4.0876210000"><ele>262</ele><time>2016-09-30T10:20:45Z</time></trkpt>
<trkpt lat="53.0107780000" lon="-4.0876200000"><ele>262</ele><time>2016-09-30T10:20:46Z</time></trkpt>
<trkpt lat="53.0107780000" lon="-4.0876180000"><ele>262</ele><time>2016-09-30T10:20:47Z</time></trkpt>
<trkpt lat="53.0107790000" lon="-4.0876160000"><ele>262</ele><time>2016-09-30T10:20:48Z</time></trkpt>
<trkpt lat="53.0108170000" lon="-4.0875160000"><ele>262</ele><time>2016-09-30T10:20:49Z</time></trkpt>
<trkpt lat="53.0108250000" lon="-4.0875040000"><ele>262</ele><time>2016-09-30T10:20:50Z</time></trkpt>
<trkpt lat="53.0108350000" lon="-4.0874910000"><ele>262</ele><time>2016-09-30T10:20:51Z</time></trkpt>
<trkpt lat="53.0108450000" lon="-4.0874800000"><ele>262</ele><time>2016-09-30T10:20:52Z</time></trkpt>
<trkpt lat="53.0108540000" lon="-4.0874690000"><ele>262</ele><time>2016-09-30T10:20:53Z</time></trkpt>
<trkpt lat="53.0108610000" lon="-4.0874580000"><ele>262</ele><time>2016-09-30T10:20:54Z</time></trkpt>
<trkpt lat="53.0108680000" lon="-4.0874480000"><ele>262</ele></trkpt>
<trkpt lat="53.0108750000" lon="-4.0874300000"><ele>262</ele><time>2016-09-30T10:20:56Z</time></trkpt>
<trkpt lat="53.0108810000" lon="-4.0874090000"><ele>262</ele><time>2016-09-30T10:20:57Z</time></trkpt>
<trkpt lat="53.0108880000" lon="-4.0873980000"><ele>262</ele><time>2016-09-30T10:20:58Z</time></trkpt>
<trkpt lat="53.0108940000" lon="-4.0873860000"><ele>261</ele><time>2016-09-30T10:20:59Z</time></trkpt>
<trkpt lat="53.0109020000" lon="-4.0873730000"><ele>261</ele><time>2016-09-30T10:21:00Z</time></trkpt>
<trkpt lat="53.0109050000" lon="-4.0873580000"><ele>261</ele><time>2016-09-30T10:21:01Z</time></trkpt>
<trkpt lat="53.0109090000" lon="-4.0873430000"><ele>261</ele><time>2016-09-30T10:21:02Z</time></trkpt>
<trkpt lat="53.0109100000" lon="-4.0873430000"><ele>261</ele><time>2016-09-30T10:21:03Z</time></trkpt>
<trkpt lat="53.0109100000" lon="-4.0873430000"><ele>261</ele><time>2016-09-30T10:21:04Z</time></trkpt>
<trkpt lat="53.0109100000" lon="-4.0873420000"><ele>261</ele><time>2016-09-30T10:21:05Z</time></trkpt>
<trkpt lat="53.0109490000" lon="-4.0872880000"><ele>261</ele><time>2016-09-30T10:21:06Z</time></trkpt>
<trkpt lat="53.0109550000" lon="-4.0872700000"><ele>261</ele><time>2016-09-30T10:21:07Z</time></trkpt>
<trkpt lat="53.0109600000" lon="-4.0872560000"><ele>261</ele></trkpt>
<trkpt lat="53.0109650000" lon="-4.0872440000"><ele>261</ele><time>2016-09-30T10:21:09Z</time></trkpt>
<trkpt lat="53.0109650000" lon="-4.0872440000"><ele>261</ele><time>2016-09-30T10:21:10Z</time></trkpt>
<trkpt lat="53.0109650000" lon="-4.0872440000"><ele>261</ele><time>2016-09-30T10:21:11Z</time></trkpt>
<trkpt lat="53.0109660000" lon="-4.0872430000"><ele>261</ele><time>2016-09-30T10:21:12Z</time></trkpt>
<trkpt lat="53.0109660000" lon="-4.0872420000"><ele>261</ele><time>2016-09-30T10:21:13Z</time></trkpt>
<trkpt lat="53.0109660000" lon="-4.0872410000"><ele>261</ele></trkpt>
<trkpt lat="53.0109670000" lon="-4.0872390000"><ele>261</ele><time>2016-09-30T10:21:15Z</time></trkpt>
<trkpt lat="53.0109670000" lon="-4.0872360000"><ele>261</ele><time>2016-09-30T10:21:16Z</time></trkpt>
<trkpt lat="53.0109680000" lon="-4.0872330000"><ele>261</ele><time>2016-09-30T10:21:17Z</time></trkpt>
<trkpt lat="53.0109700000" lon="-4.0872290000"><ele>261</ele><time>2016-09-30T10:21:18Z</time></trkpt>
<trkpt lat="53.0109710000" lon="-4.0872250000"><ele>261</ele><time>2016-09-30T10:21:19Z</time></trkpt>
<trkpt lat="53.0109730000" lon="-4.0872210000"><ele>261</ele><time>2016-09-30T10:21:20Z</time></trkpt>
<trkpt lat="53.0109750000" lon="-4.0872160000"><ele>261</ele><time>2016-09-30T10:21:21Z</time></trkpt>
<trkpt lat="53.0109780000" lon="-4.0872110000"><ele>261</ele><time>2016-09-30T10:21:22Z</time></trkpt>
<trkpt lat="53.0109800000" lon="-4.0872060000"><ele>261</ele><time>2016-09-30T10:21:23Z</time></trkpt>
<trkpt lat="53.0109830000" lon="-4.0872000000"><ele>261</ele><time>2016-09-30T10:21:24Z</time></trkpt>
<trkpt lat="53.0109860000" lon="-4.0871940000"><ele>261</ele><time>2016-09-30T10:21:25Z</time></trkpt>
<trkpt lat="53.0109890000" lon="-4.0871880000"><ele>262</ele><time>2016-09-30T10:21:26Z</time></trkpt>
<trkpt lat="53.0109920000" lon="-4.0871820000"><ele>262</ele><time>2016-09-30T10:21:27Z</time></trkpt>
<trkpt lat="53.0109960000" lon="-4.0871750000"><ele>262</ele><time>2016-09-30T10:21:28Z</time></trkpt>
<trkpt lat="53.0110000000" lon="-4.0871680000"><ele>262</ele><time>2016-09-30T10:21:29Z</time></trkpt>
<trkpt lat="53.0110050000" lon="-4.0871610000"><ele>262</ele><time>2016-09-30T10:21:30Z</time></trkpt>
<trkpt lat="53.0110090000" lon="-4.0871530000"><ele>262</ele><time>2016-09-30T10:21:31Z</time></trkpt>
<trkpt lat="53.0110140000" lon="-4.0871440000"><ele>262</ele><time>2016-09-30T10:21:32Z</time></trkpt>
<trkpt lat="53.0110190000" lon="-4.0871360000"><ele>262</ele></trkpt>
<trkpt lat="53.0110240000" lon="-4.0871270000"><ele>262</ele><time>2016-09-30T10:21:34Z</time></trkpt>
<trkpt lat="53.0110310000" lon="-4.0871180000"><ele>262</ele><time>2016-09-30T10:21:35Z</time></trkpt>
<trkpt lat="53.0110380000" lon="-4.0871080000"><ele>262</ele><time>2016-09-30T10:21:36Z</time></trkpt>
<trkpt lat="53.0110440000" lon="-4.0870980000"><ele>262</ele><time>2016-09-30T10:21:37Z</time></trkpt>
<trkpt lat="53.0110510000" lon="-4.0870890000"><ele>262</ele><time>2016-09-30T10:21:38Z</time></trkpt>
<trkpt lat="53.0110650000" lon="-4.0870700000"><ele>262</ele><time>2016-09-30T10:21:40Z</time></trkpt>
<trkpt lat="53.0110710000" lon="-4.0870620000"><ele>262</ele><time>2016-09-30T10:21:41Z</time></trkpt>
<trkpt lat="53.0110770000" lon="-4.0870540000"><ele>262</ele><time>2016-09-30T10:21:42Z</time></trkpt>
<trkpt lat="53.0110830000" lon="-4.0870470000"><ele>262</ele><time>2016-09-30T10:21:43Z</time></trkpt>
<trkpt lat="53.0110890000" lon="-4.0870390000"><ele>262</ele><time>2016-09-30T10:21:44Z</time></trkpt>
<trkpt lat="53.0110960000" lon="-4.0870320000"><ele>262</ele><time>2016-09-30T10:21:45Z</time></trkpt>
<trkpt lat="53.0111020000" lon="-4.0870240000"><ele>262</ele><time>2016-09-30T10:21:46Z</time></trkpt>
<trkpt lat="53.0111080000" lon="-4.0870170000"><ele>262</ele><time>2016-09-30T10:21:47Z</time></trkpt>
<trkpt lat="53.0111150000" lon="-4.0870100000"><ele>261</ele><time>2016-09-30T10:21:48Z</time></trkpt>
<trkpt lat="53.0111210000" lon="-4.0870030000"><ele>261</ele><time>2016-09-30T10:21:49Z</time></trkpt>
<trkpt lat="53.0111280000" lon="-4.0869960000"><ele>261</ele><time>2016-09-30T10:21:50Z</time></trkpt>
<trkpt lat="53.0111340000" lon="-4.0869900000"><ele>261</ele><time>2016-09-30T10:21:51Z</time></trkpt>
<trkpt lat="53.0111410000" lon="-4.0869830000"><ele>261</ele><time>2016-09-30T10:21:52Z</time></trkpt>
<trkpt lat="53.0111470000" lon="-4.0869760000"><ele>261</ele><time>2016-09-30T10:21:53Z</time></trkpt>
<trkpt lat="53.0111540000" lon="-4.0869690000"><ele>261</ele><time>2016-09-30T10:21:54Z</time></trkpt>
<trkpt lat="53.0111610000" lon="-4.0869610000"><ele>261</ele></trkpt>
<trkpt lat="53.0111670000" lon="-4.0869540000"><ele>261</ele><time>2016-09-30T10:21:56Z</time></trkpt>
<trkpt lat="53.0111740000" lon="-4.0869470000"><ele>261</ele><time>2016-09-30T10:21:57Z</time></trkpt>
<trkpt lat="53.0111810000" lon="-4.0869400000"><ele>261</ele><time>2016-09-30T10:21:58Z</time></trkpt>
<trkpt lat="53.0111880000" lon="-4.0869320000"><ele>261</ele><time>2016-09-30T10:21:59Z</time></trkpt>
<trkpt lat="53.0111950000" lon="-4.0869250000"><ele>261</ele><time>2016-09-30T10:22:00Z</time></trkpt>
<trkpt lat="53.0112020000" lon="-4.0869170000"><ele>261</ele><time>2016-09-30T10:22:01Z</time></trkpt>
<trkpt lat="53.0112090000" lon="-4.0869100000"><ele>261</ele><time>2016-09-30T10:22:02Z</time></trkpt>
<trkpt lat="53.0112160000" lon="-4.0869030000"><ele>261</ele><time>2016-09-30T10:22:03Z</time></trkpt>
<trkpt lat="53.0112220000" lon="-4.0868960000"><ele>262</ele><time>2016-09-30T10:22:04Z</time></trkpt>
<trkpt lat="53.0112290000" lon="-4.0868890000"><ele>262</ele><time>2016-09-30T10:22:05Z</time></trkpt>
<trkpt lat="53.0112350000" lon="-4.0868820000"><ele>262</ele><time>2016-09-30T10:22:06Z</time></trkpt>
<trkpt lat="53.0112410000" lon="-4.0868740000"><ele>262</ele><time>2016-09-30T10:22:07Z</time></trkpt>
<trkpt lat="53.0112480000" lon="-4.0868670000"><ele>262</ele><time>2016-09-30T10:22:08Z</time></trkpt>
<trkpt lat="53.0112530000" lon="-4.0868590000"><ele>262</ele><time>2016-09-30T10:22:09Z</time></trkpt>
<trkpt lat="53.0112730000" lon="-4.0868350000"><ele>263</ele><time>2016-09-30T10:22:12Z</time></trkpt>
<trkpt lat="53.0112800000" lon="-4.0868260000"><ele>263</ele><time>2016-09-30T10:22:13Z</time></trkpt>
<trkpt lat="53.0113970000" lon="-4.0866810000"><ele>263</ele><time>2016-09-30T10:22:14Z</time></trkpt>
<trkpt lat="53.0114090000" lon="-4.0866700000"><ele>264</ele><time>2016-09-30T10:22:15Z</time></trkpt>
<trkpt lat="53.0114180000" lon="-4.0866610000"><ele>264</ele><time>2016-09-30T10:22:16Z</time></trkpt>
<trkpt lat="53.0114270000" lon="-4.0866510000"><ele>264</ele><time>2016-09-30T10:22:17Z</time></trkpt>
<trkpt lat="53.0114360000" lon="-4.0866410000"><ele>264</ele><time>2016-09-30T10:22:18Z</time></trkpt>
<trkpt lat="53.0114460000" lon="-4.0866340000"><ele>264</ele><time>2016-09-30T10:22:19Z</time></trkpt>
<trkpt lat="53.0114540000" lon="-4.0866320000"><ele>264</ele><time>2016-09-30T10:22:20Z</time></trkpt>
<trkpt lat="53.0114540000" lon="-4.0866320000"><ele>264</ele><time>2016-09-30T10:22:21Z</time></trkpt>
<trkpt lat="53.0114540000" lon="-4.0866320000"><ele>264</ele><time>2016-09-30T10:22:22Z</time></trkpt>
<trkpt lat="53.0114540000" lon="-4.0866320000"><ele>264</ele><time>2016-09-30T10:22:23Z</time></trkpt>
<trkpt lat="53.0114550000" lon="-4.0866320000"><ele>264</ele><time>2016-09-30T10:22:24Z</time></trkpt>
<trkpt lat="53.0114550000" lon="-4.0866310000"><ele>264</ele><time>2016-09-30T10:22:25Z</time></trkpt>
<trkpt lat="53.0114560000" lon="-4.0866300000"><ele>264</ele><time>2016-09-30T10:22:26Z</time></trkpt>
<trkpt lat="53.0114570000" lon="-4.0866290000"><ele>264</ele><time>2016-09-30T10:22:27Z</time></trkpt>
<trkpt lat="53.0114590000" lon="-4.0866280000"><ele>265</ele><time>2016-09-30T10:22:28Z</time></trkpt>
<trkpt lat="53.0114600000" lon="-4.0866260000"><ele>265</ele><time>2016-09-30T10:22:29Z</time></trkpt>
<trkpt lat="53.0114610000" lon="-4.0866240000"><ele>265</ele><time>2016-09-30T10:22:30Z</time></trkpt>
<trkpt lat="53.0114630000" lon="-4.0866220000"><ele>265</ele><time>2016-09-30T10:22:31Z</time></trkpt>
<trkpt lat="53.0114650000" lon="-4.0866180000"><ele>265</ele><time>2016-09-30T10:22:32Z</time></trkpt>
<trkpt lat="53.0114670000" lon="-4.0866150000"><ele>265</ele><time>2016-09-30T10:22:33Z</time></trkpt>
<trkpt lat="53.0114690000" lon="-4.0866110000"><ele>265</ele><time>2016-09-30T10:22:34Z</time></trkpt>
<trkpt lat="53.0114710000" lon="-4.0866070000"><ele>265</ele><time>2016-09-30T10:22:35Z</time></trkpt>
<trkpt lat="53.0114740000" lon="-4.0866030000"><ele>265</ele><time>2016-09-30T10:22:36Z</time></trkpt>
<trkpt lat="53.0114760000" lon="-4.0865990000"><ele>265</ele><time>2016-09-30T10:22:37Z</time></trkpt>
<trkpt lat="53.0114790000" lon="-4.0865960000"><ele>265</ele><time>2016-09-30T10:22:38Z</time></trkpt>
<trkpt lat="53.0114810000" lon="-4.0865920000"><ele>265</ele></trkpt>
<trkpt lat="53.0114830000" lon="-4.0865890000"><ele>265</ele><time>2016-09-30T10:22:40Z</time></trkpt>
<trkpt lat="53.0114850000" lon="-4.0865870000"><ele>265</ele><time>2016-09-30T10:22:41Z</time></trkpt>
<trkpt lat="53.0114870000" lon="-4.0865840000"><ele>265</ele><time>2016-09-30T10:22:42Z</time></trkpt>
<trkpt lat="53.0114890000" lon="-4.0865820000"><ele>265</ele><time>2016-09-30T10:22:43Z</time></trkpt>
<trkpt lat="53.0114910000" lon="-4.0865790000"><ele>265</ele><time>2016-09-30T10:22:44Z</time></trkpt>
<trkpt lat="53.0114930000" lon="-4.0865780000"><ele>265</ele><time>2016-09-30T10:22:45Z</time></trkpt>
<trkpt lat="53.0114950000" lon="-4.0865760000"><ele>265</ele><time>2016-09-30T10:22:46Z</time></trkpt>
<trkpt lat="53.0114970000" lon="-4.0865730000"><ele>265</ele><time>2016-09-30T10:22:47Z</time></trkpt>
<trkpt lat="53.0114990000" lon="-4.0865710000"><ele>265</ele><time>2016-09-30T10:22:48Z</time></trkpt>
<trkpt lat="53.0115020000" lon="-4.0865690000"><ele>265</ele><time>2016-09-30T10:22:49Z</time></trkpt>
<trkpt lat="53.0115050000" lon="-4.0865670000"><ele>265</ele><time>2016-09-30T10:22:50Z</time></trkpt>
<trkpt lat="53.0115070000" lon="-4.0865650000"><ele>265</ele><time>2016-09-30T10:22:51Z</time></trkpt>
<trkpt lat="53.0115100000" lon="-4.0865620000"><ele>265</ele><time>2016-09-30T10:22:52Z</time></trkpt>
<trkpt lat="53.0115130000" lon="-4.0865600000"><ele>265</ele><time>2016-09-30T10:22:53Z</time></trkpt>
<trkpt lat="53.0115170000" lon="-4.0865580000"><ele>265</ele><time>2016-09-30T10:22:54Z</time></trkpt>
<trkpt lat="53.0115200000" lon="-4.0865550000"><ele>265</ele></trkpt>
<trkpt lat="53.0115230000" lon="-4.0865530000"><ele>265</ele><time>2016-09-30T10:22:56Z</time></trkpt>
<trkpt lat="53.0115270000" lon="-4.0865500000"><ele>265</ele><time>2016-09-30T10:22:57Z</time></trkpt>
<trkpt lat="53.0115300000" lon="-4.0865490000"><ele>265</ele><time>2016-09-30T10:22:58Z</time></trkpt>
<trkpt lat="53.0115340000" lon="-4.0865470000"><ele>265</ele><time>2016-09-30T10:22:59Z</time></trkpt>
<trkpt lat="53.0115380000" lon="-4.0865450000"><ele>266</ele><time>2016-09-30T10:23:00Z</time></trkpt>
<trkpt lat="53.0115430000" lon="-4.0865430000"><ele>266</ele><time>2016-09-30T10:23:01Z</time></trkpt>
<trkpt lat="53.0115480000" lon="-4.0865410000"><ele>266</ele><time>2016-09-30T10:23:02Z</time></trkpt>
<trkpt lat="53.0115530000" lon="-4.0865400000"><ele>266</ele><time>2016-09-30T10:23:03Z</time></trkpt>
<trkpt lat="53.0115580000" lon="-4.0865390000"><ele>266</ele><time>2016-09-30T10:23:04Z</time></trkpt>
<trkpt lat="53.0115630000" lon="-4.0865370000"><ele>266</ele><time>2016-09-30T10:23:05Z</time></trkpt>
<trkpt lat="53.0115680000" lon="-4.0865360000"><ele>266</ele><time>2016-09-30T10:23:06Z</time></trkpt>
<trkpt lat="53.0115730000" lon="-4.0865340000"><ele>266</ele><time>2016-09-30T10:23:07Z</time></trkpt>
<trkpt lat="53.0115780000" lon="-4.0865330000"><ele>266</ele><time>2016-09-30T10:23:08Z</time></trkpt>
<trkpt lat="53.0115830000" lon="-4.0865310000"><ele>266</ele><time>2016-09-30T10:23:09Z</time></trkpt>
<trkpt lat="53.0115880000" lon="-4.0865290000"><ele>266</ele><time>2016-09-30T10:23:10Z</time></trkpt>
<trkpt lat="53.0115930000" lon="-4.0865280000"><ele>266</ele><time>2016-09-30T10:23:11Z</time></trkpt>
<trkpt lat="53.0115980000" lon="-4.0865260000"><ele>266</ele><time>2016-09-30T10:23:12Z</time></trkpt>
<trkpt lat="53.0116030000" lon="-4.0865240000"><ele>266</ele><time>2016-09-30T10:23:13Z</time></trkpt>
<trkpt lat="53.0116080000" lon="-4.0865230000"><ele>266</ele><time>2016-09-30T10:23:14Z</time></trkpt>
<trkpt lat="53.0116120000" lon="-4.0865210000"><ele>266</ele><time>2016-09-30T10:23:15Z</time></trkpt>
<trkpt lat="53.0116150000" lon="-4.0865190000"><ele>266</ele><time>2016-09-30T10:23:16Z</time></trkpt>
<trkpt lat="53.0116180000" lon="-4.0865170000"><ele>266</ele><time>2016-09-30T10:23:17Z</time></trkpt>
<trkpt lat="53.0116200000" lon="-4.0865160000"><ele>266</ele><time>2016-09-30T10:23:18Z</time></trkpt>
<trkpt lat="53.0116210000" lon="-4.0865150000"><ele>266</ele><time>2016-09-30T10:23:19Z</time></trkpt>
<trkpt lat="53.0116220000" lon="-4.0865140000"><ele>266</ele><time>2016-09-30T10:23:20Z</time></trkpt>
<trkpt lat="53.0116210000" lon="-4.0865120000"><ele>266</ele><time>2016-09-30T10:23:21Z</time></trkpt>
<trkpt lat="53.0116210000" lon="-4.0865110000"><ele>266</ele><time>2016-09-30T10:23:22Z</time></trkpt>
<trkpt lat="53.0116200000" lon="-4.0865100000"><ele>266</ele><time>2016-09-30T10:23:23Z</time></trkpt>
<trkpt lat="53.0116200000" lon="-4.0865090000"><ele>266</ele><time>2016-09-30T10:23:24Z</time></trkpt>
<trkpt lat="53.0116190000" lon="-4.0865080000"><ele>266</ele><time>2016-09-30T10:23:25Z</time></trkpt>
<trkpt lat="53.0116190000" lon="-4.0865070000"><ele>266</ele><time>2016-09-30T10:23:26Z</time></trkpt>
<trkpt lat="53.0116190000" lon="-4.0865060000"><ele>266</ele><time>2016-09-30T10:23:27Z</time></trkpt>
<trkpt lat="53.0116190000" lon="-4.0865050000"><ele>266</ele><time>2016-09-30T10:23:28Z</time></trkpt>
<trkpt lat="53.0116190000" lon="-4.0865040000"><ele>266</ele><time>2016-09-30T10:23:29Z</time></trkpt>
<trkpt lat="53.0116190000" lon="-4.0865030000"><ele>266</ele><time>2016-09-30T10:23:30Z</time></trkpt>
<trkpt lat="53.0116190000" lon="-4.0865020000"><ele>266</ele><time>2016-09-30T10:23:31Z</time></trkpt>
<trkpt lat="53.0116190000" lon="-4.0865000000"><ele>266</ele><time>2016-09-30T10:23:32Z</time></trkpt>
<trkpt lat="53.0116190000" lon="-4.0864990000"><ele>266</ele><time>2016-09-30T10:23:33Z</time></trkpt>
<trkpt lat="53.0116200000" lon="-4.0864980000"><ele>266</ele><time>2016-09-30T10:23:34Z</time></trkpt>
<trkpt lat="53.0116200000" lon="-4.0864970000"><ele>266</ele><time>2016-09-30T10:23:35Z</time></trkpt>
<trkpt lat="53.0116200000" lon="-4.0864970000"><ele>266</ele><time>2016-09-30T10:23:36Z</time></trkpt>
<trkpt lat="53.0116210000" lon="-4.0864960000"><ele>266</ele><time>2016-09-30T10:23:37Z</time></trkpt>
<trkpt lat="53.0116210000" lon="-4.0864950000"><ele>266</ele><time>2016-09-30T10:23:38Z</time></trkpt>
<trkpt lat="53.0116220000" lon="-4.0864930000"><ele>266</ele></trkpt>
<trkpt lat="53.0116220000" lon="-4.0864920000"><ele>266</ele><time>2016-09-30T10:23:40Z</time></trkpt>
<trkpt lat="53.0116230000" lon="-4.0864900000"><ele>266</ele><time>2016-09-30T10:23:41Z</time></trkpt>
<trkpt lat="53.0116240000" lon="-4.0864870000"><ele>266</ele><time>2016-09-30T10:23:42Z</time></trkpt>
<trkpt lat="53.0116250000" lon="-4.0864840000"><ele>266</ele><time>2016-09-30T10:23:43Z</time></trkpt>
<trkpt lat="53.0116260000" lon="-4.0864820000"><ele>266</ele><time>2016-09-30T10:23:44Z</time></trkpt>
<trkpt lat="53.0116270000" lon="-4.0864790000"><ele>266</ele><time>2016-09-30T10:23:45Z</time></trkpt>
<trkpt lat="53.0116290000" lon="-4.0864750000"><ele>266</ele><time>2016-09-30T10:23:46Z</time></trkpt>
<trkpt lat="53.0116310000" lon="-4.0864710000"><ele>266</ele><time>2016-09-30T10:23:47Z</time></trkpt>
<trkpt lat="53.0116320000" lon="-4.0864660000"><ele>266</ele><time>2016-09-30T10:23:48Z</time></trkpt>
<trkpt lat="53.0116340000" lon="-4.0864600000"><ele>267</ele></trkpt>
<trkpt lat="53.0116360000" lon="-4.0864540000"><ele>267</ele><time>2016-09-30T10:23:50Z</time></trkpt>
<trkpt lat="53.0116380000" lon="-4.0864480000"><ele>267</ele><time>2016-09-30T10:23:51Z</time></trkpt>
<trkpt lat="53.0116400000" lon="-4.0864410000"><ele>267</ele><time>2016-09-30T10:23:52Z</time></trkpt>
<trkpt lat="53.0116420000" lon="-4.0864350000"><ele>267</ele><time>2016-09-30T10:23:53Z</time></trkpt>
<trkpt lat="53.0116440000" lon="-4.0864300000"><ele>267</ele><time>2016-09-30T10:23:54Z</time></trkpt>
<trkpt lat="53.0116460000" lon="-4.0864250000"><ele>267</ele><time>2016-09-30T10:23:55Z</time></trkpt>
<trkpt lat="53.0116480000" lon="-4.0864200000"><ele>267</ele><time>2016-09-30T10:23:56Z</time></trkpt>
<trkpt lat="53.0116500000" lon="-4.0864150000"><ele>267</ele><time>2016-09-30T10:23:57Z</time></trkpt>
<trkpt lat="53.0116520000" lon="-4.0864100000"><ele>267</ele><time>2016-09-30T10:23:58Z</time></trkpt>
<trkpt lat="53.0116540000" lon="-4.0864060000"><ele>268</ele><time>2016-09-30T10:23:59Z</time></trkpt>
<trkpt lat="53.0116550000" lon="-4.0864010000"><ele>268</ele><time>2016-09-30T10:24:00Z</time></trkpt>
<trkpt lat="53.0116570000" lon="-4.0863970000"><ele>268</ele><time>2016-09-30T10:24:01Z</time></trkpt>
<trkpt lat="53.0116590000" lon="-4.0863930000"><ele>268</ele><time>2016-09-30T10:24:02Z</time></trkpt>
<trkpt lat="53.0116600000" lon="-4.0863890000"><ele>268</ele><time>2016-09-30T10:24:03Z</time></trkpt>
<trkpt lat="53.0116610000" lon="-4.0863860000"><ele>268</ele><time>2016-09-30T10:24:04Z</time></trkpt>
<trkpt lat="53.0116630000" lon="-4.0863830000"><ele>268</ele><time>2016-09-30T10:24:05Z</time></trkpt>
<trkpt lat="53.0116640000" lon="-4.0863800000"><ele>268</ele><time>2016-09-30T10:24:06Z</time></trkpt>
<trkpt lat="53.0116650000" lon="-4.0863770000"><ele>268</ele><time>2016-09-30T10:24:07Z</time></trkpt>
<trkpt lat="53.0116650000" lon="-4.0863740000"><ele>268</ele><time>2016-09-30T10:24:08Z</time></trkpt>
<trkpt lat="53.0116660000" lon="-4.0863710000"><ele>268</ele><time>2016-09-30T10:24:09Z</time></trkpt>
<trkpt lat="53.0116670000" lon="-4.0863690000"><ele>268</ele><time>2016-09-30T10:24:10Z</time></trkpt>
<trkpt lat="53.0116680000" lon="-4.0863670000"><ele>268</ele><time>2016-09-30T10:24:11Z</time></trkpt>
<trkpt lat="53.0116680000" lon="-4.0863650000"><ele>268</ele><time>2016-09-30T10:24:12Z</time></trkpt>
<trkpt lat="53.0116690000" lon="-4.0863630000"><ele>268</ele><time>2016-09-30T10:24:13Z</time></trkpt>
<trkpt lat="53.0116690000" lon="-4.0863610000"><ele>268</ele></trkpt>
<trkpt lat="53.0116700000" lon="-4.0863590000"><ele>268</ele><time>2016-09-30T10:24:15Z</time></trkpt>
<trkpt lat="53.0116700000" lon="-4.0863570000"><ele>268</ele><time>2016-09-30T10:24:16Z</time></trkpt>
<trkpt lat="53.0116710000" lon="-4.0863550000"><ele>268</ele><time>2016-09-30T10:24:17Z</time></trkpt>
<trkpt lat="53.0116710000" lon="-4.0863530000"><ele>268</ele><time>2016-09-30T10:24:18Z</time></trkpt>
<trkpt lat="53.0116710000" lon="-4.0863510000"><ele>268</ele><time>2016-09-30T10:24:19Z</time></trkpt>
<trkpt lat="53.0116720000" lon="-4.0863480000"><ele>268</ele><time>2016-09-30T10:24:20Z</time></trkpt>
<trkpt lat="53.0116720000" lon="-4.0863450000"><ele>268</ele><time>2016-09-30T10:24:21Z</time></trkpt>
<trkpt lat="53.0116730000" lon="-4.0863420000"><ele>268</ele><time>2016-09-30T10:24:22Z</time></trkpt>
<trkpt lat="53.0116750000" lon="-4.0863400000"><ele>268</ele><time>2016-09-30T10:24:23Z</time></trkpt>
<trkpt lat="53.0116760000" lon="-4.0863360000"><ele>268</ele><time>2016-09-30T10:24:24Z</time></trkpt>
<trkpt lat="53.0116780000" lon="-4.0863330000"><ele>268</ele><time>2016-09-30T10:24:25Z</time></trkpt>
<trkpt lat="53.0116790000" lon="-4.0863290000"><ele>268</ele><time>2016-09-30T10:24:26Z</time></trkpt>
<trkpt lat="53.0116810000" lon="-4.0863250000"><ele>268</ele><time>2016-09-30T10:24:27Z</time></trkpt>
<trkpt lat="53.0116830000" lon="-4.0863210000"><ele>268</ele><time>2016-09-30T10:24:28Z</time></trkpt>
<trkpt lat="53.0116850000" lon="-4.0863160000"><ele>268</ele><time>2016-09-30T10:24:29Z</time></trkpt>
<trkpt lat="53.0116870000" lon="-4.0863120000"><ele>268</ele><time>2016-09-30T10:24:30Z</time></trkpt>
<trkpt lat="53.0116890000" lon="-4.0863070000"><ele>268</ele><time>2016-09-30T10:24:31Z</time></trkpt>
<trkpt lat="53.0116910000" lon="-4.0863030000"><ele>268</ele><time>2016-09-30T10:24:32Z</time></trkpt>
<trkpt lat="53.0116930000" lon="-4.0862980000"><ele>268</ele><time>2016-09-30T10:24:33Z</time></trkpt>
<trkpt lat="53.0116950000" lon="-4.0862940000"><ele>268</ele><time>2016-09-30T10:24:34Z</time></trkpt>
<trkpt lat="53.0116970000" lon="-4.0862900000"><ele>268</ele><time>2016-09-30T10:24:35Z</time></trkpt>
<trkpt lat="53.0116990000" lon="-4.0862860000"><ele>268</ele><time>2016-09-30T10:24:36Z</time></trkpt>
<trkpt lat="53.0117010000" lon="-4.0862820000"><ele>268</ele><time>2016-09-30T10:24:37Z</time></trkpt>
<trkpt lat="53.0117020000" lon="-4.0862770000"><ele>268</ele><time>2016-09-30T10:24:38Z</time></trkpt>
<trkpt lat="53.0117040000" lon="-4.0862710000"><ele>268</ele></trkpt>
<trkpt lat="53.0117060000" lon="-4.0862650000"><ele>268</ele><time>2016-09-30T10:24:40Z</time></trkpt>
<trkpt lat="53.0117070000" lon="-4.0862590000"><ele>268</ele><time>2016-09-30T10:24:41Z</time></trkpt>
<trkpt lat="53.0117080000" lon="-4.0862520000"><ele>268</ele><time>2016-09-30T10:24:42Z</time></trkpt>
<trkpt lat="53.0117100000" lon="-4.0862450000"><ele>268</ele><time>2016-09-30T10:24:43Z</time></trkpt>
<trkpt lat="53.0117110000" lon="-4.0862390000"><ele>268</ele><time>2016-09-30T10:24:44Z</time></trkpt>
<trkpt lat="53.0117130000" lon="-4.0862320000"><ele>268</ele><time>2016-09-30T10:24:45Z</time></trkpt>
<trkpt lat="53.0117150000" lon="-4.0862260000"><ele>268</ele><time>2016-09-30T10:24:46Z</time></trkpt>
<trkpt lat="53.0117160000" lon="-4.0862200000"><ele>268</ele><time>2016-09-30T10:24:47Z</time></trkpt>
<trkpt lat="53.0117180000" lon="-4.0862140000"><ele>268</ele><time>2016-09-30T10:24:48Z</time></trkpt>
<trkpt lat="53.0117200000" lon="-4.0862090000"><ele>268</ele><time>2016-09-30T10:24:49Z</time></trkpt>
<trkpt lat="53.0117210000" lon="-4.0862040000"><ele>268</ele><time>2016-09-30T10:24:50Z</time></trkpt>
<trkpt lat="53.0117230000" lon="-4.0861990000"><ele>269</ele><time>2016-09-30T10:24:51Z</time></trkpt>
<trkpt lat="53.0117240000" lon="-4.0861930000"><ele>269</ele><time>2016-09-30T10:24:52Z</time></trkpt>
<trkpt lat="53.0117260000" lon="-4.0861880000"><ele>269</ele><time>2016-09-30T10:24:53Z</time></trkpt>
<trkpt lat="53.0117270000" lon="-4.0861820000"><ele>269</ele><time>2016-09-30T10:24:54Z</time></trkpt>
<trkpt lat="53.0117290000" lon="-4.0861760000"><ele>269</ele><time>2016-09-30T10:24:55Z</time></trkpt>
<trkpt lat="53.0117300000" lon="-4.0861700000"><ele>269</ele><time>2016-09-30T10:24:56Z</time></trkpt>
<trkpt lat="53.0117310000" lon="-4.0861650000"><ele>269</ele><time>2016-09-30T10:24:57Z</time></trkpt>
<trkpt lat="53.0117330000" lon="-4.0861590000"><ele>269</ele><time>2016-09-30T10:24:58Z</time></trkpt>
<trkpt lat="53.0117340000" lon="-4.0861530000"><ele>269</ele><time>2016-09-30T10:24:59Z</time></trkpt>
<trkpt lat="53.0117350000" lon="-4.0861460000"><ele>269</ele><time>2016-09-30T10:25:00Z</time></trkpt>
<trkpt lat="53.0117370000" lon="-4.0861390000"><ele>269</ele><time>2016-09-30T10:25:01Z</time></trkpt>
<trkpt lat="53.0117390000" lon="-4.0861320000"><ele>269</ele><time>2016-09-30T10:25:02Z</time></trkpt>
<trkpt lat="53.0117400000" lon="-4.0861230000"><ele>269</ele><time>2016-09-30T10:25:03Z</time></trkpt>
<trkpt lat="53.0117420000" lon="-4.0861150000"><ele>269</ele><time>2016-09-30T10:25:04Z</time></trkpt>
<trkpt lat="53.0117440000" lon="-4.0861050000"><ele>269</ele><time>2016-09-30T10:25:05Z</time></trkpt>
<trkpt lat="53.0117450000" lon="-4.0860960000"><ele>269</ele><time>2016-09-30T10:25:06Z</time></trkpt>
<trkpt lat="53.0117470000" lon="-4.0860860000"><ele>269</ele><time>2016-09-30T10:25:07Z</time></trkpt>
<trkpt lat="53.0117490000" lon="-4.0860770000"><ele>269</ele><time>2016-09-30T10:25:08Z</time></trkpt>
<trkpt lat="53.0117510000" lon="-4.0860670000"><ele>269</ele><time>2016-09-30T10:25:09Z</time></trkpt>
<trkpt lat="53.0117530000" lon="-4.0860580000"><ele>269</ele><time>2016-09-30T10:25:10Z</time></trkpt>
<trkpt lat="53.0117550000" lon="-4.0860480000"><ele>269</ele><time>2016-09-30T10:25:11Z</time></trkpt>
<trkpt lat="53.0117590000" lon="-4.0860380000"><ele>269</ele><time>2016-09-30T10:25:12Z</time></trkpt>
<trkpt lat="53.0117620000" lon="-4.0860290000"><ele>269</ele><time>2016-09-30T10:25:13Z</time></trkpt>
<trkpt lat="53.0117650000" lon="-4.0860200000"><ele>269</ele></trkpt>
<trkpt lat="53.0117680000" lon="-4.0860100000"><ele>269</ele><time>2016-09-30T10:25:15Z</time></trkpt>
<trkpt lat="53.0117710000" lon="-4.0860010000"><ele>269</ele><time>2016-09-30T10:25:16Z</time></trkpt>
<trkpt lat="53.0117730000" lon="-4.0859910000"><ele>269</ele><time>2016-09-30T10:25:17Z</time></trkpt>
<trkpt lat="53.0117760000" lon="-4.0859810000"><ele>269</ele><time>2016-09-30T10:25:18Z</time></trkpt>
<trkpt lat="53.0117780000" lon="-4.0859710000"><ele>269</ele><time>2016-09-30T10:25:19Z</time></trkpt>
<trkpt lat="53.0117800000" lon="-4.0859610000"><ele>269</ele><time>2016-09-30T10:25:20Z</time></trkpt>
<trkpt lat="53.0117830000" lon="-4.0859500000"><ele>269</ele><time>2016-09-30T10:25:21Z</time></trkpt>
<trkpt lat="53.0117850000" lon="-4.0859400000"><ele>269</ele><time>2016-09-30T10:25:22Z</time></trkpt>
<trkpt lat="53.0117870000" lon="-4.0859300000"><ele>269</ele><time>2016-09-30T10:25:23Z</time></trkpt>
<trkpt lat="53.0117900000" lon="-4.0859200000"><ele>269</ele><time>2016-09-30T10:25:24Z</time></trkpt>
<trkpt lat="53.0117930000" lon="-4.0859110000"><ele>269</ele><time>2016-09-30T10:25:25Z</time></trkpt>
<trkpt lat="53.0117950000" lon="-4.0859020000"><ele>269</ele><time>2016-09-30T10:25:26Z</time></trkpt>
<trkpt lat="53.0117980000" lon="-4.0858950000"><ele>269</ele><time>2016-09-30T10:25:27Z</time></trkpt>
<trkpt lat="53.0118000000" lon="-4.0858880000"><ele>269</ele><time>2016-09-30T10:25:28Z</time></trkpt>
<trkpt lat="53.0118020000" lon="-4.0858830000"><ele>269</ele><time>2016-09-30T10:25:29Z</time></trkpt>
<trkpt lat="53.0118050000" lon="-4.0858770000"><ele>269</ele><time>2016-09-30T10:25:30Z</time></trkpt>
<trkpt lat="53.0118070000" lon="-4.0858720000"><ele>269</ele><time>2016-09-30T10:25:31Z</time></trkpt>
<trkpt lat="53.0118100000" lon="-4.0858670000"><ele>269</ele><time>2016-09-30T10:25:32Z</time></trkpt>
<trkpt lat="53.0118120000" lon="-4.0858620000"><ele>269</ele><time>2016-09-30T10:25:33Z</time></trkpt>
<trkpt lat="53.0118140000" lon="-4.0858580000"><ele>269</ele><time>2016-09-30T10:25:34Z</time></trkpt>
<trkpt lat="53.0118160000" lon="-4.0858530000"><ele>269</ele><time>2016-09-30T10:25:35Z</time></trkpt>
<trkpt lat="53.0118170000" lon="-4.0858490000"><ele>269</ele><time>2016-09-30T10:25:36Z</time></trkpt>
<trkpt lat="53.0118190000" lon="-4.0858460000"><ele>269</ele><time>2016-09-30T10:25:37Z</time></trkpt>
<trkpt lat="53.0118210000" lon="-4.0858420000"><ele>269</ele><time>2016-09-30T10:25:38Z</time></trkpt>
<trkpt lat="53.0118240000" lon="-4.0858380000"><ele>269</ele></trkpt>
<trkpt lat="53.0118270000" lon="-4.0858340000"><ele>269</ele><time>2016-09-30T10:25:41Z</time></trkpt>
<trkpt lat="53.0118290000" lon="-4.0858300000"><ele>268</ele></trkpt>
<trkpt lat="53.0118320000" lon="-4.0858260000"><ele>268</ele><time>2016-09-30T10:25:42Z</time></trkpt>
<trkpt lat="53.0118330000" lon="-4.0858240000"><ele>268</ele><time>2016-09-30T10:25:43Z</time></trkpt>
<trkpt lat="53.0118350000" lon="-4.0858210000"><ele>268</ele><time>2016-09-30T10:25:44Z</time></trkpt>
<trkpt lat="53.0118360000" lon="-4.0858180000"><ele>268</ele><time>2016-09-30T10:25:45Z</time></trkpt>
<trkpt lat="53.0118370000" lon="-4.0858160000"><ele>268</ele><time>2016-09-30T10:25:46Z</time></trkpt>
<trkpt lat="53.0118380000" lon="-4.0858140000"><ele>267</ele><time>2016-09-30T10:25:47Z</time></trkpt>
<trkpt lat="53.0118400000" lon="-4.0858120000"><ele>267</ele><time>2016-09-30T10:25:48Z</time></trkpt>
<trkpt lat="53.0118410000" lon="-4.0858100000"><ele>267</ele></trkpt>
<trkpt lat="53.0118430000" lon="-4.0858080000"><ele>267</ele><time>2016-09-30T10:25:50Z</time></trkpt>
<trkpt lat="53.0118440000" lon="-4.0858060000"><ele>267</ele><time>2016-09-30T10:25:51Z</time></trkpt>
<trkpt lat="53.0118460000" lon="-4.0858040000"><ele>267</ele><time>2016-09-30T10:25:52Z</time></trkpt>
<trkpt lat="53.0118470000" lon="-4.0858020000"><ele>267</ele><time>2016-09-30T10:25:53Z</time></trkpt>
<trkpt lat="53.0118490000" lon="-4.0858010000"><ele>267</ele><time>2016-09-30T10:25:54Z</time></trkpt>
<trkpt lat="53.0118510000" lon="-4.0857990000"><ele>266</ele><time>2016-09-30T10:25:55Z</time></trkpt>
<trkpt lat="53.0118530000" lon="-4.0857980000"><ele>266</ele><time>2016-09-30T10:25:56Z</time></trkpt>
<trkpt lat="53.0118550000" lon="-4.0857970000"><ele>266</ele><time>2016-09-30T10:25:57Z</time></trkpt>
<trkpt lat="53.0118570000" lon="-4.0857950000"><ele>266</ele><time>2016-09-30T10:25:58Z</time></trkpt>
<trkpt lat="53.0118590000" lon="-4.0857950000"><ele>266</ele><time>2016-09-30T10:25:59Z</time></trkpt>
<trkpt lat="53.0118610000" lon="-4.0857940000"><ele>266</ele><time>2016-09-30T10:26:00Z</time></trkpt>
<trkpt lat="53.0118630000" lon="-4.0857940000"><ele>266</ele><time>2016-09-30T10:26:01Z</time></trkpt>
<trkpt lat="53.0118650000" lon="-4.0857930000"><ele>266</ele><time>2016-09-30T10:26:02Z</time></trkpt>
<trkpt lat="53.0118670000" lon="-4.0857930000"><ele>266</ele><time>2016-09-30T10:26:03Z</time></trkpt>
<trkpt lat="53.0118700000" lon="-4.0857930000"><ele>266</ele><time>2016-09-30T10:26:04Z</time></trkpt>
<trkpt lat="53.0118720000" lon="-4.0857930000"><ele>266</ele><time>2016-09-30T10:26:05Z</time></trkpt>
<trkpt lat="53.0118750000" lon="-4.0857930000"><ele>266</ele><time>2016-09-30T10:26:06Z</time></trkpt>
<trkpt lat="53.0118770000" lon="-4.0857930000"><ele>266</ele><time>2016-09-30T10:26:07Z</time></trkpt>
<trkpt lat="53.0118790000" lon="-4.0857930000"><ele>266</ele><time>2016-09-30T10:26:08Z</time></trkpt>
<trkpt lat="53.0118820000" lon="-4.0857930000"><ele>266</ele><time>2016-09-30T10:26:09Z</time></trkpt>
<trkpt lat="53.0118840000" lon="-4.0857930000"><ele>266</ele><time>2016-09-30T10:26:10Z</time></trkpt>
<trkpt lat="53.0118860000" lon="-4.0857930000"><ele>266</ele><time>2016-09-30T10:26:11Z</time></trkpt>
<trkpt lat="53.0118880000" lon="-4.0857930000"><ele>266</ele><time>2016-09-30T10:26:12Z</time></trkpt>
<trkpt lat="53.0118890000" lon="-4.0857930000"><ele>266</ele><time>2016-09-30T10:26:13Z</time></trkpt>
<trkpt lat="53.0118910000" lon="-4.0857930000"><ele>266</ele></trkpt>
<trkpt lat="53.0118930000" lon="-4.0857930000"><ele>266</ele><time>2016-09-30T10:26:15Z</time></trkpt>
<trkpt lat="53.0118940000" lon="-4.0857920000"><ele>266</ele><time>2016-09-30T10:26:16Z</time></trkpt>
<trkpt lat="53.0118960000" lon="-4.0857920000"><ele>266</ele><time>2016-09-30T10:26:17Z</time></trkpt>
<trkpt lat="53.0118980000" lon="-4.0857910000"><ele>266</ele><time>2016-09-30T10:26:18Z</time></trkpt>
<trkpt lat="53.0119000000" lon="-4.0857900000"><ele>266</ele><time>2016-09-30T10:26:19Z</time></trkpt>
<trkpt lat="53.0119010000" lon="-4.0857890000"><ele>266</ele><time>2016-09-30T10:26:20Z</time></trkpt>
<trkpt lat="53.0119030000" lon="-4.0857870000"><ele>266</ele><time>2016-09-30T10:26:21Z</time></trkpt>
<trkpt lat="53.0119040000" lon="-4.0857840000"><ele>266</ele><time>2016-09-30T10:26:22Z</time></trkpt>
<trkpt lat="53.0119060000" lon="-4.0857810000"><ele>266</ele><time>2016-09-30T10:26:23Z</time></trkpt>
<trkpt lat="53.0119070000" lon="-4.0857780000"><ele>266</ele><time>2016-09-30T10:26:24Z</time></trkpt>
<trkpt lat="53.0119080000" lon="-4.0857750000"><ele>266</ele><time>2016-09-30T10:26:25Z</time></trkpt>
<trkpt lat="53.0119090000" lon="-4.0857720000"><ele>266</ele><time>2016-09-30T10:26:26Z</time></trkpt>
<trkpt lat="53.0119100000" lon="-4.0857690000"><ele>266</ele><time>2016-09-30T10:26:27Z</time></trkpt>
<trkpt lat="53.0119110000" lon="-4.0857650000"><ele>265</ele><time>2016-09-30T10:26:28Z</time></trkpt>
<trkpt lat="53.0119120000" lon="-4.0857620000"><ele>265</ele><time>2016-09-30T10:26:29Z</time></trkpt>
<trkpt lat="53.0119130000" lon="-4.0857580000"><ele>265</ele><time>2016-09-30T10:26:30Z</time></trkpt>
<trkpt lat="53.0119140000" lon="-4.0857540000"><ele>265</ele><time>2016-09-30T10:26:31Z</time></trkpt>
<trkpt lat="53.0119140000" lon="-4.0857490000"><ele>265</ele><time>2016-09-30T10:26:32Z</time></trkpt>
<trkpt lat="53.0119140000" lon="-4.0857450000"><ele>265</ele></trkpt>
<trkpt lat="53.0119150000" lon="-4.0857400000"><ele>265</ele><time>2016-09-30T10:26:34Z</time></trkpt>
<trkpt lat="53.0119150000" lon="-4.0857340000"><ele>265</ele><time>2016-09-30T10:26:35Z</time></trkpt>
<trkpt lat="53.0119140000" lon="-4.0857300000"><ele>265</ele><time>2016-09-30T10:26:36Z</time></trkpt>
<trkpt lat="53.0119140000" lon="-4.0857260000"><ele>265</ele><time>2016-09-30T10:26:37Z</time></trkpt>
<trkpt lat="53.0119130000" lon="-4.0857230000"><ele>264</ele><time>2016-09-30T10:26:38Z</time></trkpt>
<trkpt lat="53.0119120000" lon="-4.0857190000"><ele>264</ele></trkpt>
<trkpt lat="53.0119100000" lon="-4.0857160000"><ele>264</ele><time>2016-09-30T10:26:41Z</time></trkpt>
<trkpt lat="53.0119090000" lon="-4.0857120000"><ele>264</ele></trkpt>
<trkpt lat="53.0119070000" lon="-4.0857080000"><ele>264</ele><time>2016-09-30T10:26:42Z</time></trkpt>
<trkpt lat="53.0119050000" lon="-4.0857050000"><ele>264</ele><time>2016-09-30T10:26:43Z</time></trkpt>
<trkpt lat="53.0119040000" lon="-4.0857020000"><ele>264</ele><time>2016-09-30T10:26:44Z</time></trkpt>
<trkpt lat="53.0119020000" lon="-4.0856980000"><ele>264</ele><time>2016-09-30T10:26:45Z</time></trkpt>
<trkpt lat="53.0119010000" lon="-4.0856960000"><ele>263</ele><time>2016-09-30T10:26:46Z</time></trkpt>
<trkpt lat="53.0119000000" lon="-4.0856940000"><ele>263</ele><time>2016-09-30T10:26:47Z</time></trkpt>
<trkpt lat="53.0118990000" lon="-4.0856930000"><ele>263</ele><time>2016-09-30T10:26:48Z</time></trkpt>
<trkpt lat="53.0118980000" lon="-4.0856900000"><ele>263</ele><time>2016-09-30T10:26:49Z</time></trkpt>
<trkpt lat="53.0118960000" lon="-4.0856880000"><ele>263</ele><time>2016-09-30T10:26:50Z</time></trkpt>
<trkpt lat="53.0118950000" lon="-4.0856860000"><ele>263</ele><time>2016-09-30T10:26:51Z</time></trkpt>
<trkpt lat="53.0118930000" lon="-4.0856830000"><ele>263</ele><time>2016-09-30T10:26:52Z</time></trkpt>
<trkpt lat="53.0118910000" lon="-4.0856800000"><ele>263</ele><time>2016-09-30T10:26:53Z</time></trkpt>
<trkpt lat="53.0118900000" lon="-4.0856770000"><ele>263</ele><time>2016-09-30T10:26:54Z</time></trkpt>
<trkpt lat="53.0118880000" lon="-4.0856740000"><ele>263</ele><time>2016-09-30T10:26:55Z</time></trkpt>
<trkpt lat="53.0118870000" lon="-4.0856710000"><ele>263</ele><time>2016-09-30T10:26:56Z</time></trkpt>
<trkpt lat="53.0118850000" lon="-4.0856680000"><ele>263</ele><time>2016-09-30T10:26:57Z</time></trkpt>
<trkpt lat="53.0118840000" lon="-4.0856650000"><ele>263</ele></trkpt>
<trkpt lat="53.0118840000" lon="-4.0856630000"><ele>263</ele><time>2016-09-30T10:26:59Z</time></trkpt>
<trkpt lat="53.0118840000" lon="-4.0856600000"><ele>263</ele><time>2016-09-30T10:27:00Z</time></trkpt>
<trkpt lat="53.0118840000" lon="-4.0856580000"><ele>264</ele><time>2016-09-30T10:27:01Z</time></trkpt>
<trkpt lat="53.0118840000" lon="-4.0856570000"><ele>264</ele><time>2016-09-30T10:27:02Z</time></trkpt>
<trkpt lat="53.0118840000" lon="-4.0856550000"><ele>264</ele><time>2016-09-30T10:27:03Z</time></trkpt>
<trkpt lat="53.0118840000" lon="-4.0856530000"><ele>264</ele><time>2016-09-30T10:27:04Z</time></trkpt>
<trkpt lat="53.0118840000" lon="-4.0856510000"><ele>264</ele><time>2016-09-30T10:27:05Z</time></trkpt>
<trkpt lat="53.0118840000" lon="-4.0856500000"><ele>264</ele><time>2016-09-30T10:27:06Z</time></trkpt>
<trkpt lat="53.0118840000" lon="-4.0856480000"><ele>264</ele><time>2016-09-30T10:27:07Z</time></trkpt>
<trkpt lat="53.0118850000" lon="-4.0856470000"><ele>264</ele><time>2016-09-30T10:27:08Z</time></trkpt>
<trkpt lat="53.0118860000" lon="-4.0856460000"><ele>264</ele><time>2016-09-30T10:27:09Z</time></trkpt>
<trkpt lat="53.0118870000" lon="-4.0856440000"><ele>264</ele><time>2016-09-30T10:27:10Z</time></trkpt>
<trkpt lat="53.0118880000" lon="-4.0856420000"><ele>264</ele><time>2016-09-30T10:27:11Z</time></trkpt>
<trkpt lat="53.0118890000" lon="-4.0856400000"><ele>264</ele><time>2016-09-30T10:27:12Z</time></trkpt>
<trkpt lat="53.0118900000" lon="-4.0856380000"><ele>264</ele><time>2016-09-30T10:27:13Z</time></trkpt>
<trkpt lat="53.0118910000" lon="-4.0856350000"><ele>264</ele><time>2016-09-30T10:27:14Z</time></trkpt>
<trkpt lat="53.0118930000" lon="-4.0856320000"><ele>264</ele><time>2016-09-30T10:27:15Z</time></trkpt>
<trkpt lat="53.0118940000" lon="-4.0856290000"><ele>264</ele><time>2016-09-30T10:27:16Z</time></trkpt>
<trkpt lat="53.0118960000" lon="-4.0856260000"><ele>264</ele><time>2016-09-30T10:27:17Z</time></trkpt>
<trkpt lat="53.0118970000" lon="-4.0856230000"><ele>264</ele><time>2016-09-30T10:27:18Z</time></trkpt>
<trkpt lat="53.0118980000" lon="-4.0856200000"><ele>264</ele><time>2016-09-30T10:27:19Z</time></trkpt>
<trkpt lat="53.0118990000" lon="-4.0856180000"><ele>264</ele><time>2016-09-30T10:27:20Z</time></trkpt>
<trkpt lat="53.0119000000" lon="-4.0856160000"><ele>263</ele><time>2016-09-30T10:27:21Z</time></trkpt>
<trkpt lat="53.0119010000" lon="-4.0856140000"><ele>263</ele><time>2016-09-30T10:27:22Z</time></trkpt>
<trkpt lat="53.0119020000" lon="-4.0856110000"><ele>263</ele></trkpt>
<trkpt lat="53.0119030000" lon="-4.0856080000"><ele>263</ele><time>2016-09-30T10:27:24Z</time></trkpt>
<trkpt lat="53.0119040000" lon="-4.0856050000"><ele>263</ele><time>2016-09-30T10:27:25Z</time></trkpt>
<trkpt lat="53.0119060000" lon="-4.0856020000"><ele>263</ele><time>2016-09-30T10:27:26Z</time></trkpt>
<trkpt lat="53.0119080000" lon="-4.0855990000"><ele>263</ele><time>2016-09-30T10:27:27Z</time></trkpt>
<trkpt lat="53.0119100000" lon="-4.0855960000"><ele>262</ele><time>2016-09-30T10:27:28Z</time></trkpt>
<trkpt lat="53.0119120000" lon="-4.0855920000"><ele>262</ele><time>2016-09-30T10:27:29Z</time></trkpt>
<trkpt lat="53.0119140000" lon="-4.0855890000"><ele>262</ele><time>2016-09-30T10:27:30Z</time></trkpt>
<trkpt lat="53.0119170000" lon="-4.0855850000"><ele>262</ele><time>2016-09-30T10:27:31Z</time></trkpt>
<trkpt lat="53.0119190000" lon="-4.0855820000"><ele>262</ele><time>2016-09-30T10:27:32Z</time></trkpt>
<trkpt lat="53.0119210000" lon="-4.0855780000"><ele>261</ele><time>2016-09-30T10:27:33Z</time></trkpt>
<trkpt lat="53.0119240000" lon="-4.0855750000"><ele>261</ele><time>2016-09-30T10:27:34Z</time></trkpt>
<trkpt lat="53.0119260000" lon="-4.0855710000"><ele>261</ele><time>2016-09-30T10:27:35Z</time></trkpt>
<trkpt lat="53.0119290000" lon="-4.0855680000"><ele>261</ele><time>2016-09-30T10:27:36Z</time></trkpt>
<trkpt lat="53.0119320000" lon="-4.0855640000"><ele>261</ele><time>2016-09-30T10:27:37Z</time></trkpt>
<trkpt lat="53.0119350000" lon="-4.0855610000"><ele>261</ele><time>2016-09-30T10:27:38Z</time></trkpt>
<trkpt lat="53.0119390000" lon="-4.0855570000"><ele>261</ele><time>2016-09-30T10:27:39Z</time></trkpt>
<trkpt lat="53.0119420000" lon="-4.0855530000"><ele>260</ele><time>2016-09-30T10:27:40Z</time></trkpt>
<trkpt lat="53.0119460000" lon="-4.0855490000"><ele>260</ele><time>2016-09-30T10:27:41Z</time></trkpt>
<trkpt lat="53.0119480000" lon="-4.0855450000"><ele>260</ele><time>2016-09-30T10:27:42Z</time></trkpt>
<trkpt lat="53.0119510000" lon="-4.0855410000"><ele>260</ele><time>2016-09-30T10:27:43Z</time></trkpt>
<trkpt lat="53.0119540000" lon="-4.0855360000"><ele>260</ele><time>2016-09-30T10:27:44Z</time></trkpt>
<trkpt lat="53.0119580000" lon="-4.0855300000"><ele>260</ele><time>2016-09-30T10:27:45Z</time></trkpt>
<trkpt lat="53.0119620000" lon="-4.0855240000"><ele>260</ele><time>2016-09-30T10:27:46Z</time></trkpt>
<trkpt lat="53.0119660000" lon="-4.0855170000"><ele>260</ele><time>2016-09-30T10:27:47Z</time></trkpt>
<trkpt lat="53.0119700000" lon="-4.0855100000"><ele>260</ele><time>2016-09-30T10:27:48Z</time></trkpt>
<trkpt lat="53.0119740000" lon="-4.0855020000"><ele>259</ele><time>2016-09-30T10:27:49Z</time></trkpt>
<trkpt lat="53.0119770000" lon="-4.0854940000"><ele>259</ele><time>2016-09-30T10:27:50Z</time></trkpt>
<trkpt lat="53.0119800000" lon="-4.0854860000"><ele>259</ele><time>2016-09-30T10:27:51Z</time></trkpt>
<trkpt lat="53.0119830000" lon="-4.0854770000"><ele>259</ele><time>2016-09-30T10:27:52Z</time></trkpt>
<trkpt lat="53.0119860000" lon="-4.0854690000"><ele>259</ele><time>2016-09-30T10:27:53Z</time></trkpt>
<trkpt lat="53.0119890000" lon="-4.0854600000"><ele>259</ele><time>2016-09-30T10:27:54Z</time></trkpt>
<trkpt lat="53.0119930000" lon="-4.0854510000"><ele>259</ele><time>2016-09-30T10:27:55Z</time></trkpt>
<trkpt lat="53.0119970000" lon="-4.0854420000"><ele>259</ele><time>2016-09-30T10:27:56Z</time></trkpt>
<trkpt lat="53.0120620000" lon="-4.0853070000"><ele>259</ele><time>2016-09-30T10:27:57Z</time></trkpt>
<trkpt lat="53.0120730000" lon="-4.0852980000"><ele>259</ele><time>2016-09-30T10:27:58Z</time></trkpt>
<trkpt lat="53.0120820000" lon="-4.0852870000"><ele>259</ele><time>2016-09-30T10:27:59Z</time></trkpt>
<trkpt lat="53.0120910000" lon="-4.0852750000"><ele>259</ele><time>2016-09-30T10:28:00Z</time></trkpt>
<trkpt lat="53.0120990000" lon="-4.0852650000"><ele>259</ele><time>2016-09-30T10:28:01Z</time></trkpt>
<trkpt lat="53.0120990000" lon="-4.0852650000"><ele>259</ele><time>2016-09-30T10:28:02Z</time></trkpt>
<trkpt lat="53.0120990000" lon="-4.0852650000"><ele>259</ele><time>2016-09-30T10:28:03Z</time></trkpt>
<trkpt lat="53.0121000000" lon="-4.0852650000"><ele>259</ele><time>2016-09-30T10:28:04Z</time></trkpt>
<trkpt lat="53.0121000000" lon="-4.0852640000"><ele>259</ele><time>2016-09-30T10:28:05Z</time></trkpt>
<trkpt lat="53.0121010000" lon="-4.0852630000"><ele>259</ele><time>2016-09-30T10:28:06Z</time></trkpt>
<trkpt lat="53.0121010000" lon="-4.0852610000"><ele>259</ele><time>2016-09-30T10:28:07Z</time></trkpt>
<trkpt lat="53.0121020000" lon="-4.0852580000"><ele>259</ele><time>2016-09-30T10:28:08Z</time></trkpt>
<trkpt lat="53.0121030000" lon="-4.0852550000"><ele>259</ele><time>2016-09-30T10:28:09Z</time></trkpt>
<trkpt lat="53.0121040000" lon="-4.0852510000"><ele>259</ele><time>2016-09-30T10:28:10Z</time></trkpt>
<trkpt lat="53.0121060000" lon="-4.0852460000"><ele>259</ele><time>2016-09-30T10:28:11Z</time></trkpt>
<trkpt lat="53.0121080000" lon="-4.0852410000"><ele>259</ele><time>2016-09-30T10:28:12Z</time></trkpt>
<trkpt lat="53.0121110000" lon="-4.0852340000"><ele>259</ele><time>2016-09-30T10:28:13Z</time></trkpt>
<trkpt lat="53.0121660000" lon="-4.0850980000"><ele>259</ele><time>2016-09-30T10:28:14Z</time></trkpt>
<trkpt lat="53.0121710000" lon="-4.0850830000"><ele>259</ele><time>2016-09-30T10:28:15Z</time></trkpt>
<trkpt lat="53.0121750000" lon="-4.0850710000"><ele>259</ele><time>2016-09-30T10:28:16Z</time></trkpt>
<trkpt lat="53.0121800000" lon="-4.0850600000"><ele>259</ele><time>2016-09-30T10:28:17Z</time></trkpt>
<trkpt lat="53.0121800000" lon="-4.0850600000"><ele>259</ele><time>2016-09-30T10:28:18Z</time></trkpt>
<trkpt lat="53.0121800000" lon="-4.0850600000"><ele>259</ele><time>2016-09-30T10:28:19Z</time></trkpt>
<trkpt lat="53.0121810000" lon="-4.0850590000"><ele>260</ele><time>2016-09-30T10:28:20Z</time></trkpt>
<trkpt lat="53.0121820000" lon="-4.0850580000"><ele>260</ele><time>2016-09-30T10:28:21Z</time></trkpt>
<trkpt lat="53.0121830000" lon="-4.0850560000"><ele>260</ele><time>2016-09-30T10:28:22Z</time></trkpt>
<trkpt lat="53.0121840000" lon="-4.0850540000"><ele>260</ele><time>2016-09-30T10:28:23Z</time></trkpt>
<trkpt lat="53.0122370000" lon="-4.0849760000"><ele>260</ele><time>2016-09-30T10:28:24Z</time></trkpt>
<trkpt lat="53.0122470000" lon="-4.0849620000"><ele>260</ele><time>2016-09-30T10:28:25Z</time></trkpt>
<trkpt lat="53.0122530000" lon="-4.0849440000"><ele>260</ele><time>2016-09-30T10:28:26Z</time></trkpt>
<trkpt lat="53.0122570000" lon="-4.0849260000"><ele>260</ele><time>2016-09-30T10:28:27Z</time></trkpt>
<trkpt lat="53.0122630000" lon="-4.0849130000"><ele>260</ele><time>2016-09-30T10:28:28Z</time></trkpt>
<trkpt lat="53.0122680000" lon="-4.0848990000"><ele>260</ele><time>2016-09-30T10:28:29Z</time></trkpt>
<trkpt lat="53.0122730000" lon="-4.0848840000"><ele>260</ele><time>2016-09-30T10:28:30Z</time></trkpt>
<trkpt lat="53.0122760000" lon="-4.0848680000"><ele>259</ele><time>2016-09-30T10:28:31Z</time></trkpt>
<trkpt lat="53.0122780000" lon="-4.0848490000"><ele>259</ele><time>2016-09-30T10:28:32Z</time></trkpt>
<trkpt lat="53.0122770000" lon="-4.0848300000"><ele>259</ele><time>2016-09-30T10:28:33Z</time></trkpt>
<trkpt lat="53.0122800000" lon="-4.0848140000"><ele>259</ele><time>2016-09-30T10:28:34Z</time></trkpt>
<trkpt lat="53.0122800000" lon="-4.0848140000"><ele>259</ele><time>2016-09-30T10:28:35Z</time></trkpt>
<trkpt lat="53.0122800000" lon="-4.0848130000"><ele>259</ele><time>2016-09-30T10:28:36Z</time></trkpt>
<trkpt lat="53.0122810000" lon="-4.0848130000"><ele>259</ele><time>2016-09-30T10:28:37Z</time></trkpt>
<trkpt lat="53.0122810000" lon="-4.0848120000"><ele>259</ele><time>2016-09-30T10:28:38Z</time></trkpt>
<trkpt lat="53.0122820000" lon="-4.0848100000"><ele>259</ele></trkpt>
<trkpt lat="53.0122820000" lon="-4.0848080000"><ele>259</ele><time>2016-09-30T10:28:40Z</time></trkpt>
<trkpt lat="53.0122830000" lon="-4.0848060000"><ele>259</ele><time>2016-09-30T10:28:41Z</time></trkpt>
<trkpt lat="53.0122840000" lon="-4.0848030000"><ele>259</ele><time>2016-09-30T10:28:42Z</time></trkpt>
<trkpt lat="53.0122860000" lon="-4.0848000000"><ele>259</ele><time>2016-09-30T10:28:43Z</time></trkpt>
<trkpt lat="53.0122870000" lon="-4.0847970000"><ele>259</ele><time>2016-09-30T10:28:44Z</time></trkpt>
<trkpt lat="53.0122890000" lon="-4.0847930000"><ele>258</ele><time>2016-09-30T10:28:45Z</time></trkpt>
<trkpt lat="53.0122910000" lon="-4.0847880000"><ele>258</ele><time>2016-09-30T10:28:46Z</time></trkpt>
<trkpt lat="53.0122930000" lon="-4.0847840000"><ele>258</ele><time>2016-09-30T10:28:47Z</time></trkpt>
<trkpt lat="53.0122960000" lon="-4.0847790000"><ele>258</ele><time>2016-09-30T10:28:48Z</time></trkpt>
<trkpt lat="53.0122980000" lon="-4.0847740000"><ele>258</ele><time>2016-09-30T10:28:49Z</time></trkpt>
<trkpt lat="53.0123010000" lon="-4.0847680000"><ele>257</ele><time>2016-09-30T10:28:50Z</time></trkpt>
<trkpt lat="53.0123040000" lon="-4.0847630000"><ele>257</ele><time>2016-09-30T10:28:51Z</time></trkpt>
<trkpt lat="53.0123060000" lon="-4.0847570000"><ele>257</ele><time>2016-09-30T10:28:52Z</time></trkpt>
<trkpt lat="53.0123090000" lon="-4.0847510000"><ele>257</ele><time>2016-09-30T10:28:53Z</time></trkpt>
<trkpt lat="53.0123120000" lon="-4.0847450000"><ele>257</ele><time>2016-09-30T10:28:54Z</time></trkpt>
<trkpt lat="53.0123150000" lon="-4.0847390000"><ele>257</ele><time>2016-09-30T10:28:55Z</time></trkpt>
<trkpt lat="53.0123180000" lon="-4.0847330000"><ele>257</ele><time>2016-09-30T10:28:56Z</time></trkpt>
<trkpt lat="53.0123210000" lon="-4.0847270000"><ele>256</ele><time>2016-09-30T10:28:57Z</time></trkpt>
<trkpt lat="53.0123240000" lon="-4.0847200000"><ele>256</ele><time>2016-09-30T10:28:58Z</time></trkpt>
<trkpt lat="53.0123270000" lon="-4.0847140000"><ele>256</ele><time>2016-09-30T10:28:59Z</time></trkpt>
<trkpt lat="53.0123300000" lon="-4.0847080000"><ele>256</ele><time>2016-09-30T10:29:00Z</time></trkpt>
<trkpt lat="53.0123330000" lon="-4.0847020000"><ele>256</ele><time>2016-09-30T10:29:01Z</time></trkpt>
<trkpt lat="53.0123360000" lon="-4.0846950000"><ele>256</ele><time>2016-09-30T10:29:02Z</time></trkpt>
<trkpt lat="53.0123400000" lon="-4.0846890000"><ele>256</ele><time>2016-09-30T10:29:03Z</time></trkpt>
<trkpt lat="53.0123430000" lon="-4.0846830000"><ele>255</ele><time>2016-09-30T10:29:04Z</time></trkpt>
<trkpt lat="53.0123470000" lon="-4.0846760000"><ele>255</ele><time>2016-09-30T10:29:05Z</time></trkpt>
<trkpt lat="53.0123510000" lon="-4.0846700000"><ele>255</ele><time>2016-09-30T10:29:06Z</time></trkpt>
<trkpt lat="53.0123560000" lon="-4.0846630000"><ele>255</ele><time>2016-09-30T10:29:07Z</time></trkpt>
<trkpt lat="53.0123600000" lon="-4.0846580000"><ele>255</ele><time>2016-09-30T10:29:08Z</time></trkpt>
<trkpt lat="53.0123650000" lon="-4.0846520000"><ele>255</ele><time>2016-09-30T10:29:09Z</time></trkpt>
<trkpt lat="53.0123700000" lon="-4.0846480000"><ele>255</ele><time>2016-09-30T10:29:10Z</time></trkpt>
<trkpt lat="53.0123740000" lon="-4.0846440000"><ele>255</ele><time>2016-09-30T10:29:11Z</time></trkpt>
<trkpt lat="53.0123780000" lon="-4.0846400000"><ele>255</ele><time>2016-09-30T10:29:12Z</time></trkpt>
<trkpt lat="53.0123820000" lon="-4.0846380000"><ele>254</ele><time>2016-09-30T10:29:13Z</time></trkpt>
<trkpt lat="53.0123860000" lon="-4.0846360000"><ele>254</ele></trkpt>
<trkpt lat="53.0123900000" lon="-4.0846340000"><ele>254</ele><time>2016-09-30T10:29:15Z</time></trkpt>
<trkpt lat="53.0123940000" lon="-4.0846330000"><ele>254</ele><time>2016-09-30T10:29:16Z</time></trkpt>
<trkpt lat="53.0123970000" lon="-4.0846330000"><ele>254</ele><time>2016-09-30T10:29:17Z</time></trkpt>
<trkpt lat="53.0124010000" lon="-4.0846320000"><ele>254</ele><time>2016-09-30T10:29:18Z</time></trkpt>
<trkpt lat="53.0124030000" lon="-4.0846310000"><ele>254</ele><time>2016-09-30T10:29:19Z</time></trkpt>
<trkpt lat="53.0124050000" lon="-4.0846300000"><ele>254</ele><time>2016-09-30T10:29:20Z</time></trkpt>
<trkpt lat="53.0124080000" lon="-4.0846300000"><ele>254</ele><time>2016-09-30T10:29:21Z</time></trkpt>
<trkpt lat="53.0124100000" lon="-4.0846290000"><ele>254</ele><time>2016-09-30T10:29:22Z</time></trkpt>
<trkpt lat="53.0124130000" lon="-4.0846280000"><ele>254</ele><time>2016-09-30T10:29:23Z</time></trkpt>
<trkpt lat="53.0124150000" lon="-4.0846270000"><ele>254</ele><time>2016-09-30T10:29:24Z</time></trkpt>
<trkpt lat="53.0124170000" lon="-4.0846260000"><ele>253</ele><time>2016-09-30T10:29:25Z</time></trkpt>
<trkpt lat="53.0124190000" lon="-4.0846250000"><ele>253</ele><time>2016-09-30T10:29:26Z</time></trkpt>
<trkpt lat="53.0124210000" lon="-4.0846240000"><ele>253</ele><time>2016-09-30T10:29:27Z</time></trkpt>
<trkpt lat="53.0124230000" lon="-4.0846230000"><ele>253</ele><time>2016-09-30T10:29:28Z</time></trkpt>
<trkpt lat="53.0124250000" lon="-4.0846220000"><ele>253</ele><time>2016-09-30T10:29:29Z</time></trkpt>
<trkpt lat="53.0124260000" lon="-4.0846220000"><ele>253</ele><time>2016-09-30T10:29:30Z</time></trkpt>
<trkpt lat="53.0124280000" lon="-4.0846210000"><ele>253</ele><time>2016-09-30T10:29:31Z</time></trkpt>
<trkpt lat="53.0124290000" lon="-4.0846200000"><ele>253</ele><time>2016-09-30T10:29:32Z</time></trkpt>
<trkpt lat="53.0124300000" lon="-4.0846190000"><ele>253</ele><time>2016-09-30T10:29:33Z</time></trkpt>
<trkpt lat="53.0124320000" lon="-4.0846180000"><ele>253</ele><time>2016-09-30T10:29:34Z</time></trkpt>
<trkpt lat="53.0124330000" lon="-4.0846180000"><ele>253</ele><time>2016-09-30T10:29:35Z</time></trkpt>
<trkpt lat="53.0124340000" lon="-4.0846170000"><ele>253</ele><time>2016-09-30T10:29:36Z</time></trkpt>
<trkpt lat="53.0124350000" lon="-4.0846170000"><ele>253</ele><time>2016-09-30T10:29:37Z</time></trkpt>
<trkpt lat="53.0124360000" lon="-4.0846160000"><ele>253</ele><time>2016-09-30T10:29:38Z</time></trkpt>
<trkpt lat="53.0124370000" lon="-4.0846150000"><ele>253</ele></trkpt>
<trkpt lat="53.0124370000" lon="-4.0846150000"><ele>253</ele><time>2016-09-30T10:29:40Z</time></trkpt>
<trkpt lat="53.0124380000" lon="-4.0846140000"><ele>253</ele><time>2016-09-30T10:29:41Z</time></trkpt>
<trkpt lat="53.0124380000" lon="-4.0846140000"><ele>253</ele><time>2016-09-30T10:29:42Z</time></trkpt>
<trkpt lat="53.0124390000" lon="-4.0846130000"><ele>253</ele><time>2016-09-30T10:29:43Z</time></trkpt>
<trkpt lat="53.0124400000" lon="-4.0846120000"><ele>253</ele><time>2016-09-30T10:29:44Z</time></trkpt>
<trkpt lat="53.0124400000" lon="-4.0846110000"><ele>253</ele><time>2016-09-30T10:29:45Z</time></trkpt>
<trkpt lat="53.0124410000" lon="-4.0846100000"><ele>253</ele><time>2016-09-30T10:29:46Z</time></trkpt>
<trkpt lat="53.0124420000" lon="-4.0846090000"><ele>253</ele><time>2016-09-30T10:29:47Z</time></trkpt>
<trkpt lat="53.0124420000" lon="-4.0846080000"><ele>253</ele><time>2016-09-30T10:29:48Z</time></trkpt>
<trkpt lat="53.0124430000" lon="-4.0846070000"><ele>253</ele><time>2016-09-30T10:29:49Z</time></trkpt>
<trkpt lat="53.0124430000" lon="-4.0846060000"><ele>253</ele><time>2016-09-30T10:29:50Z</time></trkpt>
<trkpt lat="53.0124440000" lon="-4.0846050000"><ele>253</ele><time>2016-09-30T10:29:51Z</time></trkpt>
<trkpt lat="53.0124440000" lon="-4.0846030000"><ele>253</ele><time>2016-09-30T10:29:52Z</time></trkpt>
<trkpt lat="53.0124450000" lon="-4.0846020000"><ele>253</ele><time>2016-09-30T10:29:53Z</time></trkpt>
<trkpt lat="53.0124460000" lon="-4.0846020000"><ele>253</ele><time>2016-09-30T10:29:54Z</time></trkpt>
<trkpt lat="53.0124460000" lon="-4.0846010000"><ele>253</ele></trkpt>
<trkpt lat="53.0124470000" lon="-4.0846000000"><ele>253</ele><time>2016-09-30T10:29:56Z</time></trkpt>
<trkpt lat="53.0124470000" lon="-4.0845980000"><ele>253</ele><time>2016-09-30T10:29:57Z</time></trkpt>
<trkpt lat="53.0124470000" lon="-4.0845970000"><ele>253</ele><time>2016-09-30T10:29:58Z</time></trkpt>
<trkpt lat="53.0124470000" lon="-4.0845960000"><ele>253</ele><time>2016-09-30T10:29:59Z</time></trkpt>
<trkpt lat="53.0124470000" lon="-4.0845960000"><ele>253</ele><time>2016-09-30T10:30:00Z</time></trkpt>
<trkpt lat="53.0124470000" lon="-4.0845950000"><ele>253</ele><time>2016-09-30T10:30:01Z</time></trkpt>
<trkpt lat="53.0124470000" lon="-4.0845950000"><ele>253</ele><time>2016-09-30T10:30:02Z</time></trkpt>
<trkpt lat="53.0124470000" lon="-4.0845940000"><ele>253</ele><time>2016-09-30T10:30:03Z</time></trkpt>
<trkpt lat="53.0124470000" lon="-4.0845940000"><ele>253</ele><time>2016-09-30T10:30:04Z</time></trkpt>
<trkpt lat="53.0124400000" lon="-4.0845630000"><ele>249</ele><time>2016-09-30T10:30:38Z</time></trkpt>
<trkpt lat="53.0124360000" lon="-4.0845590000"><ele>250</ele><time>2016-09-30T10:30:58Z</time></trkpt>
<trkpt lat="53.0124350000" lon="-4.0845590000"><ele>250</ele><time>2016-09-30T10:30:59Z</time></trkpt>
<trkpt lat="53.0124350000" lon="-4.0845590000"><ele>251</ele><time>2016-09-30T10:31:00Z</time></trkpt>
<trkpt lat="53.0124350000" lon="-4.0845580000"><ele>251</ele><time>2016-09-30T10:31:01Z</time></trkpt>
<trkpt lat="53.0124350000" lon="-4.0845570000"><ele>251</ele><time>2016-09-30T10:31:02Z</time></trkpt>
<trkpt lat="53.0124350000" lon="-4.0845550000"><ele>251</ele><time>2016-09-30T10:31:03Z</time></trkpt>
<trkpt lat="53.0124360000" lon="-4.0845530000"><ele>251</ele><time>2016-09-30T10:31:04Z</time></trkpt>
<trkpt lat="53.0124360000" lon="-4.0845490000"><ele>251</ele><time>2016-09-30T10:31:05Z</time></trkpt>
<trkpt lat="53.0124360000" lon="-4.0845450000"><ele>251</ele><time>2016-09-30T10:31:06Z</time></trkpt>
<trkpt lat="53.0124370000" lon="-4.0845400000"><ele>251</ele><time>2016-09-30T10:31:07Z</time></trkpt>
<trkpt lat="53.0124380000" lon="-4.0845340000"><ele>251</ele><time>2016-09-30T10:31:08Z</time></trkpt>
<trkpt lat="53.0124390000" lon="-4.0845280000"><ele>251</ele><time>2016-09-30T10:31:09Z</time></trkpt>
<trkpt lat="53.0124410000" lon="-4.0845220000"><ele>251</ele></trkpt>
<trkpt lat="53.0124430000" lon="-4.0845180000"><ele>252</ele><time>2016-09-30T10:31:11Z</time></trkpt>
<trkpt lat="53.0124440000" lon="-4.0845140000"><ele>252</ele><time>2016-09-30T10:31:12Z</time></trkpt>
<trkpt lat="53.0124450000" lon="-4.0845100000"><ele>252</ele><time>2016-09-30T10:31:13Z</time></trkpt>
<trkpt lat="53.0124460000" lon="-4.0845070000"><ele>252</ele><time>2016-09-30T10:31:14Z</time></trkpt>
<trkpt lat="53.0124470000" lon="-4.0845040000"><ele>252</ele><time>2016-09-30T10:31:15Z</time></trkpt>
<trkpt lat="53.0124480000" lon="-4.0845020000"><ele>252</ele><time>2016-09-30T10:31:16Z</time></trkpt>
<trkpt lat="53.0124500000" lon="-4.0845000000"><ele>253</ele><time>2016-09-30T10:31:17Z</time></trkpt>
<trkpt lat="53.0124500000" lon="-4.0844980000"><ele>253</ele><time>2016-09-30T10:31:18Z</time></trkpt>
<trkpt lat="53.0124510000" lon="-4.0844980000"><ele>253</ele><time>2016-09-30T10:31:19Z</time></trkpt>
<trkpt lat="53.0124510000" lon="-4.0844980000"><ele>253</ele><time>2016-09-30T10:31:20Z</time></trkpt>
<trkpt lat="53.0124500000" lon="-4.0844980000"><ele>253</ele><time>2016-09-30T10:31:21Z</time></trkpt>
<trkpt lat="53.0124500000" lon="-4.0845000000"><ele>253</ele><time>2016-09-30T10:31:22Z</time></trkpt>
<trkpt lat="53.0124490000" lon="-4.0845020000"><ele>253</ele><time>2016-09-30T10:31:23Z</time></trkpt>
<trkpt lat="53.0124490000" lon="-4.0845050000"><ele>253</ele><time>2016-09-30T10:31:24Z</time></trkpt>
<trkpt lat="53.0124480000" lon="-4.0845100000"><ele>253</ele><time>2016-09-30T10:31:25Z</time></trkpt>
<trkpt lat="53.0124480000" lon="-4.0845150000"><ele>253</ele><time>2016-09-30T10:31:26Z</time></trkpt>
<trkpt lat="53.0124480000" lon="-4.0845210000"><ele>253</ele><time>2016-09-30T10:31:27Z</time></trkpt>
<trkpt lat="53.0124490000" lon="-4.0845260000"><ele>253</ele><time>2016-09-30T10:31:28Z</time></trkpt>
<trkpt lat="53.0124500000" lon="-4.0845320000"><ele>253</ele><time>2016-09-30T10:31:29Z</time></trkpt>
<trkpt lat="53.0124510000" lon="-4.0845370000"><ele>253</ele><time>2016-09-30T10:31:30Z</time></trkpt>
<trkpt lat="53.0124530000" lon="-4.0845420000"><ele>253</ele><time>2016-09-30T10:31:31Z</time></trkpt>
<trkpt lat="53.0124550000" lon="-4.0845470000"><ele>253</ele><time>2016-09-30T10:31:32Z</time></trkpt>
<trkpt lat="53.0124570000" lon="-4.0845510000"><ele>253</ele><time>2016-09-30T10:31:33Z</time></trkpt>
<trkpt lat="53.0124600000" lon="-4.0845560000"><ele>253</ele><time>2016-09-30T10:31:34Z</time></trkpt>
<trkpt lat="53.0124630000" lon="-4.0845600000"><ele>253</ele></trkpt>
<trkpt lat="53.0124660000" lon="-4.0845640000"><ele>253</ele><time>2016-09-30T10:31:36Z</time></trkpt>
<trkpt lat="53.0124690000" lon="-4.0845680000"><ele>253</ele><time>2016-09-30T10:31:37Z</time></trkpt>
<trkpt lat="53.0124720000" lon="-4.0845720000"><ele>253</ele><time>2016-09-30T10:31:38Z</time></trkpt>
<trkpt lat="53.0124750000" lon="-4.0845750000"><ele>253</ele><time>2016-09-30T10:31:39Z</time></trkpt>
<trkpt lat="53.0124780000" lon="-4.0845780000"><ele>253</ele><time>2016-09-30T10:31:40Z</time></trkpt>
<trkpt lat="53.0124810000" lon="-4.0845810000"><ele>253</ele><time>2016-09-30T10:31:41Z</time></trkpt>
<trkpt lat="53.0124850000" lon="-4.0845840000"><ele>253</ele><time>2016-09-30T10:31:42Z</time></trkpt>
<trkpt lat="53.0124880000" lon="-4.0845870000"><ele>252</ele><time>2016-09-30T10:31:43Z</time></trkpt>
<trkpt lat="53.0124910000" lon="-4.0845900000"><ele>252</ele><time>2016-09-30T10:31:44Z</time></trkpt>
<trkpt lat="53.0124940000" lon="-4.0845920000"><ele>252</ele><time>2016-09-30T10:31:45Z</time></trkpt>
<trkpt lat="53.0124970000" lon="-4.0845940000"><ele>252</ele><time>2016-09-30T10:31:46Z</time></trkpt>
<trkpt lat="53.0125010000" lon="-4.0845960000"><ele>252</ele><time>2016-09-30T10:31:47Z</time></trkpt>
<trkpt lat="53.0125030000" lon="-4.0845980000"><ele>252</ele><time>2016-09-30T10:31:48Z</time></trkpt>
<trkpt lat="53.0125060000" lon="-4.0845990000"><ele>252</ele><time>2016-09-30T10:31:49Z</time></trkpt>
<trkpt lat="53.0125090000" lon="-4.0846000000"><ele>251</ele><time>2016-09-30T10:31:50Z</time></trkpt>
<trkpt lat="53.0125110000" lon="-4.0846020000"><ele>251</ele><time>2016-09-30T10:31:51Z</time></trkpt>
<trkpt lat="53.0125140000" lon="-4.0846030000"><ele>251</ele><time>2016-09-30T10:31:52Z</time></trkpt>
<trkpt lat="53.0125170000" lon="-4.0846040000"><ele>251</ele><time>2016-09-30T10:31:53Z</time></trkpt>
<trkpt lat="53.0125190000" lon="-4.0846050000"><ele>251</ele><time>2016-09-30T10:31:54Z</time></trkpt>
<trkpt lat="53.0125220000" lon="-4.0846060000"><ele>251</ele><time>2016-09-30T10:31:55Z</time></trkpt>
<trkpt lat="53.0125250000" lon="-4.0846070000"><ele>250</ele><time>2016-09-30T10:31:56Z</time></trkpt>
<trkpt lat="53.0125280000" lon="-4.0846070000"><ele>250</ele><time>2016-09-30T10:31:57Z</time></trkpt>
<trkpt lat="53.0125310000" lon="-4.0846080000"><ele>250</ele><time>2016-09-30T10:31:58Z</time></trkpt>
<trkpt lat="53.0125340000" lon="-4.0846080000"><ele>250</ele><time>2016-09-30T10:31:59Z</time></trkpt>
<trkpt lat="53.0125380000" lon="-4.0846090000"><ele>249</ele><time>2016-09-30T10:32:00Z</time></trkpt>
<trkpt lat="53.0125410000" lon="-4.0846090000"><ele>249</ele><time>2016-09-30T10:32:01Z</time></trkpt>
<trkpt lat="53.0125440000" lon="-4.0846100000"><ele>249</ele><time>2016-09-30T10:32:02Z</time></trkpt>
<trkpt lat="53.0125470000" lon="-4.0846100000"><ele>248</ele><time>2016-09-30T10:32:03Z</time></trkpt>
<trkpt lat="53.0125500000" lon="-4.0846100000"><ele>248</ele><time>2016-09-30T10:32:04Z</time></trkpt>
<trkpt lat="53.0125530000" lon="-4.0846110000"><ele>248</ele><time>2016-09-30T10:32:05Z</time></trkpt>
<trkpt lat="53.0125560000" lon="-4.0846110000"><ele>248</ele><time>2016-09-30T10:32:06Z</time></trkpt>
<trkpt lat="53.0125590000" lon="-4.0846110000"><ele>247</ele><time>2016-09-30T10:32:07Z</time></trkpt>
<trkpt lat="53.0125620000" lon="-4.0846110000"><ele>247</ele><time>2016-09-30T10:32:08Z</time></trkpt>
<trkpt lat="53.0125660000" lon="-4.0846110000"><ele>247</ele><time>2016-09-30T10:32:09Z</time></trkpt>
<trkpt lat="53.0125690000" lon="-4.0846120000"><ele>247</ele><time>2016-09-30T10:32:10Z</time></trkpt>
<trkpt lat="53.0125720000" lon="-4.0846120000"><ele>247</ele><time>2016-09-30T10:32:11Z</time></trkpt>
<trkpt lat="53.0125760000" lon="-4.0846120000"><ele>246</ele><time>2016-09-30T10:32:12Z</time></trkpt>
<trkpt lat="53.0125790000" lon="-4.0846120000"><ele>246</ele><time>2016-09-30T10:32:13Z</time></trkpt>
<trkpt lat="53.0125830000" lon="-4.0846120000"><ele>246</ele></trkpt>
<trkpt lat="53.0125860000" lon="-4.0846110000"><ele>246</ele><time>2016-09-30T10:32:15Z</time></trkpt>
<trkpt lat="53.0125900000" lon="-4.0846110000"><ele>246</ele><time>2016-09-30T10:32:16Z</time></trkpt>
<trkpt lat="53.0125940000" lon="-4.0846100000"><ele>245</ele><time>2016-09-30T10:32:17Z</time></trkpt>
<trkpt lat="53.0125980000" lon="-4.0846090000"><ele>245</ele><time>2016-09-30T10:32:18Z</time></trkpt>
<trkpt lat="53.0126020000" lon="-4.0846090000"><ele>245</ele><time>2016-09-30T10:32:19Z</time></trkpt>
<trkpt lat="53.0126060000" lon="-4.0846080000"><ele>245</ele><time>2016-09-30T10:32:20Z</time></trkpt>
<trkpt lat="53.0126100000" lon="-4.0846080000"><ele>245</ele><time>2016-09-30T10:32:21Z</time></trkpt>
<trkpt lat="53.0126150000" lon="-4.0846070000"><ele>244</ele><time>2016-09-30T10:32:22Z</time></trkpt>
<trkpt lat="53.0126190000" lon="-4.0846060000"><ele>244</ele><time>2016-09-30T10:32:23Z</time></trkpt>
<trkpt lat="53.0126230000" lon="-4.0846050000"><ele>244</ele><time>2016-09-30T10:32:24Z</time></trkpt>
<trkpt lat="53.0126270000" lon="-4.0846040000"><ele>244</ele><time>2016-09-30T10:32:25Z</time></trkpt>
<trkpt lat="53.0126310000" lon="-4.0846020000"><ele>244</ele><time>2016-09-30T10:32:26Z</time></trkpt>
<trkpt lat="53.0126360000" lon="-4.0846010000"><ele>244</ele><time>2016-09-30T10:32:27Z</time></trkpt>
<trkpt lat="53.0126400000" lon="-4.0845990000"><ele>244</ele><time>2016-09-30T10:32:28Z</time></trkpt>
<trkpt lat="53.0126440000" lon="-4.0845970000"><ele>243</ele><time>2016-09-30T10:32:29Z</time></trkpt>
<trkpt lat="53.0126490000" lon="-4.0845960000"><ele>243</ele><time>2016-09-30T10:32:30Z</time></trkpt>
<trkpt lat="53.0126530000" lon="-4.0845940000"><ele>243</ele><time>2016-09-30T10:32:31Z</time></trkpt>
<trkpt lat="53.0126560000" lon="-4.0845920000"><ele>243</ele><time>2016-09-30T10:32:32Z</time></trkpt>
<trkpt lat="53.0126590000" lon="-4.0845910000"><ele>243</ele><time>2016-09-30T10:32:33Z</time></trkpt>
<trkpt lat="53.0126610000" lon="-4.0845890000"><ele>242</ele><time>2016-09-30T10:32:34Z</time></trkpt>
<trkpt lat="53.0126640000" lon="-4.0845870000"><ele>242</ele><time>2016-09-30T10:32:35Z</time></trkpt>
<trkpt lat="53.0126670000" lon="-4.0845850000"><ele>242</ele><time>2016-09-30T10:32:36Z</time></trkpt>
<trkpt lat="53.0126690000" lon="-4.0845840000"><ele>242</ele><time>2016-09-30T10:32:37Z</time></trkpt>
<trkpt lat="53.0126720000" lon="-4.0845820000"><ele>241</ele><time>2016-09-30T10:32:38Z</time></trkpt>
<trkpt lat="53.0126740000" lon="-4.0845800000"><ele>241</ele><time>2016-09-30T10:32:39Z</time></trkpt>
<trkpt lat="53.0126760000" lon="-4.0845790000"><ele>241</ele><time>2016-09-30T10:32:40Z</time></trkpt>
<trkpt lat="53.0126780000" lon="-4.0845770000"><ele>240</ele><time>2016-09-30T10:32:41Z</time></trkpt>
<trkpt lat="53.0126800000" lon="-4.0845750000"><ele>240</ele><time>2016-09-30T10:32:42Z</time></trkpt>
<trkpt lat="53.0126830000" lon="-4.0845730000"><ele>240</ele><time>2016-09-30T10:32:43Z</time></trkpt>
<trkpt lat="53.0126850000" lon="-4.0845720000"><ele>239</ele><time>2016-09-30T10:32:44Z</time></trkpt>
<trkpt lat="53.0126880000" lon="-4.0845700000"><ele>239</ele><time>2016-09-30T10:32:45Z</time></trkpt>
<trkpt lat="53.0126910000" lon="-4.0845680000"><ele>239</ele><time>2016-09-30T10:32:46Z</time></trkpt>
<trkpt lat="53.0126960000" lon="-4.0845650000"><ele>238</ele><time>2016-09-30T10:32:48Z</time></trkpt>
<trkpt lat="53.0126990000" lon="-4.0845630000"><ele>238</ele><time>2016-09-30T10:32:49Z</time></trkpt>
<trkpt lat="53.0127020000" lon="-4.0845620000"><ele>238</ele><time>2016-09-30T10:32:50Z</time></trkpt>
<trkpt lat="53.0127040000" lon="-4.0845600000"><ele>237</ele><time>2016-09-30T10:32:51Z</time></trkpt>
<trkpt lat="53.0127070000" lon="-4.0845590000"><ele>237</ele><time>2016-09-30T10:32:52Z</time></trkpt>
<trkpt lat="53.0127090000" lon="-4.0845580000"><ele>237</ele><time>2016-09-30T10:32:53Z</time></trkpt>
<trkpt lat="53.0127120000" lon="-4.0845570000"><ele>237</ele><time>2016-09-30T10:32:54Z</time></trkpt>
<trkpt lat="53.0127140000" lon="-4.0845560000"><ele>237</ele><time>2016-09-30T10:32:55Z</time></trkpt>
<trkpt lat="53.0127170000" lon="-4.0845550000"><ele>236</ele><time>2016-09-30T10:32:56Z</time></trkpt>
<trkpt lat="53.0127190000" lon="-4.0845550000"><ele>236</ele><time>2016-09-30T10:32:57Z</time></trkpt>
<trkpt lat="53.0127220000" lon="-4.0845540000"><ele>236</ele><time>2016-09-30T10:32:58Z</time></trkpt>
<trkpt lat="53.0127240000" lon="-4.0845540000"><ele>236</ele><time>2016-09-30T10:32:59Z</time></trkpt>
<trkpt lat="53.0127270000" lon="-4.0845540000"><ele>236</ele><time>2016-09-30T10:33:00Z</time></trkpt>
<trkpt lat="53.0127300000" lon="-4.0845540000"><ele>236</ele><time>2016-09-30T10:33:01Z</time></trkpt>
<trkpt lat="53.0127330000" lon="-4.0845540000"><ele>235</ele><time>2016-09-30T10:33:02Z</time></trkpt>
<trkpt lat="53.0127360000" lon="-4.0845540000"><ele>235</ele><time>2016-09-30T10:33:03Z</time></trkpt>
<trkpt lat="53.0127390000" lon="-4.0845550000"><ele>235</ele><time>2016-09-30T10:33:04Z</time></trkpt>
<trkpt lat="53.0127420000" lon="-4.0845550000"><ele>235</ele><time>2016-09-30T10:33:05Z</time></trkpt>
<trkpt lat="53.0127450000" lon="-4.0845560000"><ele>234</ele><time>2016-09-30T10:33:06Z</time></trkpt>
<trkpt lat="53.0127480000" lon="-4.0845560000"><ele>234</ele><time>2016-09-30T10:33:07Z</time></trkpt>
<trkpt lat="53.0127520000" lon="-4.0845550000"><ele>234</ele><time>2016-09-30T10:33:08Z</time></trkpt>
<trkpt lat="53.0127550000" lon="-4.0845550000"><ele>234</ele><time>2016-09-30T10:33:09Z</time></trkpt>
<trkpt lat="53.0127590000" lon="-4.0845550000"><ele>234</ele><time>2016-09-30T10:33:10Z</time></trkpt>
<trkpt lat="53.0127630000" lon="-4.0845540000"><ele>233</ele><time>2016-09-30T10:33:11Z</time></trkpt>
<trkpt lat="53.0127660000" lon="-4.0845530000"><ele>233</ele><time>2016-09-30T10:33:12Z</time></trkpt>
<trkpt lat="53.0127710000" lon="-4.0845530000"><ele>233</ele><time>2016-09-30T10:33:13Z</time></trkpt>
<trkpt lat="53.0127750000" lon="-4.0845520000"><ele>233</ele><time>2016-09-30T10:33:14Z</time></trkpt>
<trkpt lat="53.0127790000" lon="-4.0845510000"><ele>233</ele><time>2016-09-30T10:33:15Z</time></trkpt>
<trkpt lat="53.0127830000" lon="-4.0845500000"><ele>233</ele><time>2016-09-30T10:33:16Z</time></trkpt>
<trkpt lat="53.0127870000" lon="-4.0845500000"><ele>233</ele><time>2016-09-30T10:33:17Z</time></trkpt>
<trkpt lat="53.0127910000" lon="-4.0845490000"><ele>233</ele></trkpt>
<trkpt lat="53.0127960000" lon="-4.0845480000"><ele>233</ele><time>2016-09-30T10:33:19Z</time></trkpt>
<trkpt lat="53.0128010000" lon="-4.0845470000"><ele>233</ele><time>2016-09-30T10:33:20Z</time></trkpt>
<trkpt lat="53.0128050000" lon="-4.0845460000"><ele>232</ele><time>2016-09-30T10:33:21Z</time></trkpt>
<trkpt lat="53.0128090000" lon="-4.0845450000"><ele>232</ele><time>2016-09-30T10:33:22Z</time></trkpt>
<trkpt lat="53.0128140000" lon="-4.0845440000"><ele>232</ele><time>2016-09-30T10:33:23Z</time></trkpt>
<trkpt lat="53.0128190000" lon="-4.0845440000"><ele>232</ele><time>2016-09-30T10:33:24Z</time></trkpt>
<trkpt lat="53.0128240000" lon="-4.0845430000"><ele>232</ele><time>2016-09-30T10:33:25Z</time></trkpt>
<trkpt lat="53.0128300000" lon="-4.0845430000"><ele>232</ele><time>2016-09-30T10:33:26Z</time></trkpt>
<trkpt lat="53.0128370000" lon="-4.0845420000"><ele>232</ele><time>2016-09-30T10:33:27Z</time></trkpt>
<trkpt lat="53.0128430000" lon="-4.0845410000"><ele>232</ele><time>2016-09-30T10:33:28Z</time></trkpt>
<trkpt lat="53.0128490000" lon="-4.0845390000"><ele>232</ele><time>2016-09-30T10:33:29Z</time></trkpt>
<trkpt lat="53.0128560000" lon="-4.0845370000"><ele>232</ele><time>2016-09-30T10:33:30Z</time></trkpt>
<trkpt lat="53.0128630000" lon="-4.0845360000"><ele>232</ele><time>2016-09-30T10:33:31Z</time></trkpt>
<trkpt lat="53.0128700000" lon="-4.0845340000"><ele>232</ele><time>2016-09-30T10:33:32Z</time></trkpt>
<trkpt lat="53.0128770000" lon="-4.0845320000"><ele>232</ele><time>2016-09-30T10:33:33Z</time></trkpt>
<trkpt lat="53.0128840000" lon="-4.0845300000"><ele>232</ele><time>2016-09-30T10:33:34Z</time></trkpt>
<trkpt lat="53.0128910000" lon="-4.0845290000"><ele>232</ele><time>2016-09-30T10:33:35Z</time></trkpt>
<trkpt lat="53.0128980000" lon="-4.0845270000"><ele>231</ele><time>2016-09-30T10:33:36Z</time></trkpt>
<trkpt lat="53.0129060000" lon="-4.0845250000"><ele>231</ele><time>2016-09-30T10:33:37Z</time></trkpt>
<trkpt lat="53.0129130000" lon="-4.0845240000"><ele>231</ele><time>2016-09-30T10:33:38Z</time></trkpt>
<trkpt lat="53.0129200000" lon="-4.0845220000"><ele>231</ele><time>2016-09-30T10:33:39Z</time></trkpt>
<trkpt lat="53.0129270000" lon="-4.0845200000"><ele>231</ele><time>2016-09-30T10:33:40Z</time></trkpt>
<trkpt lat="53.0129350000" lon="-4.0845180000"><ele>230</ele><time>2016-09-30T10:33:41Z</time></trkpt>
<trkpt lat="53.0129430000" lon="-4.0845160000"><ele>230</ele><time>2016-09-30T10:33:42Z</time></trkpt>
<trkpt lat="53.0129500000" lon="-4.0845140000"><ele>230</ele><time>2016-09-30T10:33:43Z</time></trkpt>
<trkpt lat="53.0129570000" lon="-4.0845120000"><ele>230</ele><time>2016-09-30T10:33:44Z</time></trkpt>
<trkpt lat="53.0129630000" lon="-4.0845100000"><ele>229</ele><time>2016-09-30T10:33:45Z</time></trkpt>
<trkpt lat="53.0129700000" lon="-4.0845080000"><ele>229</ele><time>2016-09-30T10:33:46Z</time></trkpt>
<trkpt lat="53.0129840000" lon="-4.0845020000"><ele>229</ele><time>2016-09-30T10:33:48Z</time></trkpt>
<trkpt lat="53.0129910000" lon="-4.0845000000"><ele>228</ele><time>2016-09-30T10:33:49Z</time></trkpt>
<trkpt lat="53.0129980000" lon="-4.0844980000"><ele>228</ele><time>2016-09-30T10:33:50Z</time></trkpt>
<trkpt lat="53.0130050000" lon="-4.0844960000"><ele>228</ele><time>2016-09-30T10:33:51Z</time></trkpt>
<trkpt lat="53.0130110000" lon="-4.0844930000"><ele>228</ele><time>2016-09-30T10:33:52Z</time></trkpt>
<trkpt lat="53.0130180000" lon="-4.0844910000"><ele>227</ele><time>2016-09-30T10:33:53Z</time></trkpt>
<trkpt lat="53.0130240000" lon="-4.0844880000"><ele>227</ele><time>2016-09-30T10:33:54Z</time></trkpt>
<trkpt lat="53.0130300000" lon="-4.0844850000"><ele>227</ele><time>2016-09-30T10:33:55Z</time></trkpt>
<trkpt lat="53.0130360000" lon="-4.0844820000"><ele>227</ele><time>2016-09-30T10:33:56Z</time></trkpt>
<trkpt lat="53.0130420000" lon="-4.0844790000"><ele>226</ele><time>2016-09-30T10:33:57Z</time></trkpt>
<trkpt lat="53.0130480000" lon="-4.0844750000"><ele>226</ele><time>2016-09-30T10:33:58Z</time></trkpt>
<trkpt lat="53.0130530000" lon="-4.0844710000"><ele>226</ele><time>2016-09-30T10:33:59Z</time></trkpt>
<trkpt lat="53.0130590000" lon="-4.0844670000"><ele>226</ele><time>2016-09-30T10:34:00Z</time></trkpt>
<trkpt lat="53.0130640000" lon="-4.0844640000"><ele>225</ele><time>2016-09-30T10:34:01Z</time></trkpt>
<trkpt lat="53.0130700000" lon="-4.0844600000"><ele>225</ele><time>2016-09-30T10:34:02Z</time></trkpt>
<trkpt lat="53.0130760000" lon="-4.0844570000"><ele>225</ele><time>2016-09-30T10:34:03Z</time></trkpt>
<trkpt lat="53.0130820000" lon="-4.0844530000"><ele>225</ele><time>2016-09-30T10:34:04Z</time></trkpt>
<trkpt lat="53.0130880000" lon="-4.0844500000"><ele>224</ele><time>2016-09-30T10:34:05Z</time></trkpt>
<trkpt lat="53.0130930000" lon="-4.0844470000"><ele>224</ele><time>2016-09-30T10:34:06Z</time></trkpt>
<trkpt lat="53.0130990000" lon="-4.0844440000"><ele>224</ele><time>2016-09-30T10:34:07Z</time></trkpt>
<trkpt lat="53.0131050000" lon="-4.0844420000"><ele>224</ele><time>2016-09-30T10:34:08Z</time></trkpt>
<trkpt lat="53.0131090000" lon="-4.0844390000"><ele>223</ele><time>2016-09-30T10:34:09Z</time></trkpt>
<trkpt lat="53.0131140000" lon="-4.0844360000"><ele>223</ele><time>2016-09-30T10:34:10Z</time></trkpt>
<trkpt lat="53.0131190000" lon="-4.0844330000"><ele>223</ele><time>2016-09-30T10:34:11Z</time></trkpt>
<trkpt lat="53.0131240000" lon="-4.0844300000"><ele>223</ele><time>2016-09-30T10:34:12Z</time></trkpt>
<trkpt lat="53.0131290000" lon="-4.0844270000"><ele>222</ele><time>2016-09-30T10:34:13Z</time></trkpt>
<trkpt lat="53.0131330000" lon="-4.0844240000"><ele>222</ele><time>2016-09-30T10:34:14Z</time></trkpt>
<trkpt lat="53.0131380000" lon="-4.0844210000"><ele>222</ele><time>2016-09-30T10:34:15Z</time></trkpt>
<trkpt lat="53.0131420000" lon="-4.0844180000"><ele>222</ele><time>2016-09-30T10:34:16Z</time></trkpt>
<trkpt lat="53.0131460000" lon="-4.0844150000"><ele>222</ele><time>2016-09-30T10:34:17Z</time></trkpt>
<trkpt lat="53.0131500000" lon="-4.0844110000"><ele>221</ele><time>2016-09-30T10:34:18Z</time></trkpt>
<trkpt lat="53.0131540000" lon="-4.0844080000"><ele>221</ele><time>2016-09-30T10:34:19Z</time></trkpt>
<trkpt lat="53.0131590000" lon="-4.0844050000"><ele>221</ele><time>2016-09-30T10:34:20Z</time></trkpt>
<trkpt lat="53.0131630000" lon="-4.0844020000"><ele>221</ele><time>2016-09-30T10:34:21Z</time></trkpt>
<trkpt lat="53.0131670000" lon="-4.0843990000"><ele>220</ele><time>2016-09-30T10:34:22Z</time></trkpt>
<trkpt lat="53.0131700000" lon="-4.0843960000"><ele>220</ele><time>2016-09-30T10:34:23Z</time></trkpt>
<trkpt lat="53.0131730000" lon="-4.0843940000"><ele>220</ele></trkpt>
<trkpt lat="53.0131770000" lon="-4.0843910000"><ele>219</ele><time>2016-09-30T10:34:25Z</time></trkpt>
<trkpt lat="53.0131810000" lon="-4.0843880000"><ele>219</ele><time>2016-09-30T10:34:26Z</time></trkpt>
<trkpt lat="53.0131840000" lon="-4.0843850000"><ele>219</ele><time>2016-09-30T10:34:27Z</time></trkpt>
<trkpt lat="53.0131880000" lon="-4.0843820000"><ele>218</ele><time>2016-09-30T10:34:28Z</time></trkpt>
<trkpt lat="53.0131990000" lon="-4.0843740000"><ele>217</ele><time>2016-09-30T10:34:31Z</time></trkpt>
<trkpt lat="53.0132040000" lon="-4.0843710000"><ele>217</ele><time>2016-09-30T10:34:32Z</time></trkpt>
<trkpt lat="53.0132070000" lon="-4.0843690000"><ele>217</ele><time>2016-09-30T10:34:33Z</time></trkpt>
<trkpt lat="53.0132310000" lon="-4.0843580000"><ele>215</ele><time>2016-09-30T10:34:39Z</time></trkpt>
<trkpt lat="53.0132350000" lon="-4.0843560000"><ele>214</ele><time>2016-09-30T10:34:40Z</time></trkpt>
<trkpt lat="53.0133030000" lon="-4.0843200000"><ele>214</ele><time>2016-09-30T10:34:41Z</time></trkpt>
<trkpt lat="53.0133020000" lon="-4.0843170000"><ele>214</ele><time>2016-09-30T10:34:42Z</time></trkpt>
<trkpt lat="53.0133020000" lon="-4.0843130000"><ele>214</ele><time>2016-09-30T10:34:43Z</time></trkpt>
<trkpt lat="53.0133020000" lon="-4.0843130000"><ele>213</ele><time>2016-09-30T10:34:45Z</time></trkpt>
<trkpt lat="53.0133020000" lon="-4.0843130000"><ele>213</ele><time>2016-09-30T10:34:46Z</time></trkpt>
<trkpt lat="53.0133020000" lon="-4.0843120000"><ele>212</ele><time>2016-09-30T10:34:48Z</time></trkpt>
<trkpt lat="53.0133030000" lon="-4.0843120000"><ele>212</ele><time>2016-09-30T10:34:49Z</time></trkpt>
<trkpt lat="53.0133030000" lon="-4.0843120000"><ele>212</ele><time>2016-09-30T10:34:50Z</time></trkpt>
<trkpt lat="53.0133030000" lon="-4.0843110000"><ele>212</ele><time>2016-09-30T10:34:51Z</time></trkpt>
<trkpt lat="53.0133040000" lon="-4.0843110000"><ele>212</ele><time>2016-09-30T10:34:52Z</time></trkpt>
<trkpt lat="53.0133040000" lon="-4.0843100000"><ele>212</ele><time>2016-09-30T10:34:53Z</time></trkpt>
<trkpt lat="53.0133050000" lon="-4.0843090000"><ele>211</ele><time>2016-09-30T10:34:54Z</time></trkpt>
<trkpt lat="53.0133060000" lon="-4.0843080000"><ele>211</ele><time>2016-09-30T10:34:55Z</time></trkpt>
<trkpt lat="53.0133070000" lon="-4.0843070000"><ele>211</ele><time>2016-09-30T10:34:56Z</time></trkpt>
<trkpt lat="53.0133080000" lon="-4.0843050000"><ele>211</ele><time>2016-09-30T10:34:57Z</time></trkpt>
<trkpt lat="53.0133090000" lon="-4.0843040000"><ele>211</ele><time>2016-09-30T10:34:58Z</time></trkpt>
<trkpt lat="53.0133100000" lon="-4.0843020000"><ele>211</ele></trkpt>
<trkpt lat="53.0133120000" lon="-4.0843000000"><ele>211</ele><time>2016-09-30T10:35:00Z</time></trkpt>
<trkpt lat="53.0133130000" lon="-4.0842980000"><ele>211</ele><time>2016-09-30T10:35:01Z</time></trkpt>
<trkpt lat="53.0133150000" lon="-4.0842960000"><ele>211</ele><time>2016-09-30T10:35:02Z</time></trkpt>
<trkpt lat="53.0133170000" lon="-4.0842950000"><ele>211</ele><time>2016-09-30T10:35:03Z</time></trkpt>
<trkpt lat="53.0133190000" lon="-4.0842930000"><ele>211</ele><time>2016-09-30T10:35:04Z</time></trkpt>
<trkpt lat="53.0133210000" lon="-4.0842920000"><ele>210</ele><time>2016-09-30T10:35:05Z</time></trkpt>
<trkpt lat="53.0133350000" lon="-4.0842860000"><ele>210</ele><time>2016-09-30T10:35:10Z</time></trkpt>
<trkpt lat="53.0133380000" lon="-4.0842850000"><ele>210</ele><time>2016-09-30T10:35:11Z</time></trkpt>
<trkpt lat="53.0133420000" lon="-4.0842830000"><ele>210</ele><time>2016-09-30T10:35:12Z</time></trkpt>
<trkpt lat="53.0133460000" lon="-4.0842820000"><ele>210</ele><time>2016-09-30T10:35:13Z</time></trkpt>
<trkpt lat="53.0133500000" lon="-4.0842810000"><ele>210</ele><time>2016-09-30T10:35:14Z</time></trkpt>
<trkpt lat="53.0133540000" lon="-4.0842790000"><ele>210</ele><time>2016-09-30T10:35:15Z</time></trkpt>
<trkpt lat="53.0133580000" lon="-4.0842780000"><ele>210</ele><time>2016-09-30T10:35:16Z</time></trkpt>
<trkpt lat="53.0133620000" lon="-4.0842770000"><ele>209</ele><time>2016-09-30T10:35:17Z</time></trkpt>
<trkpt lat="53.0133660000" lon="-4.0842750000"><ele>209</ele></trkpt>
<trkpt lat="53.0133710000" lon="-4.0842730000"><ele>209</ele><time>2016-09-30T10:35:19Z</time></trkpt>
<trkpt lat="53.0133750000" lon="-4.0842710000"><ele>209</ele><time>2016-09-30T10:35:20Z</time></trkpt>
<trkpt lat="53.0133790000" lon="-4.0842690000"><ele>209</ele><time>2016-09-30T10:35:21Z</time></trkpt>
<trkpt lat="53.0133840000" lon="-4.0842660000"><ele>209</ele><time>2016-09-30T10:35:22Z</time></trkpt>
<trkpt lat="53.0133890000" lon="-4.0842640000"><ele>208</ele><time>2016-09-30T10:35:23Z</time></trkpt>
<trkpt lat="53.0133950000" lon="-4.0842620000"><ele>208</ele><time>2016-09-30T10:35:24Z</time></trkpt>
<trkpt lat="53.0134000000" lon="-4.0842600000"><ele>208</ele><time>2016-09-30T10:35:25Z</time></trkpt>
<trkpt lat="53.0134050000" lon="-4.0842580000"><ele>208</ele><time>2016-09-30T10:35:26Z</time></trkpt>
<trkpt lat="53.0134100000" lon="-4.0842560000"><ele>208</ele><time>2016-09-30T10:35:27Z</time></trkpt>
<trkpt lat="53.0134150000" lon="-4.0842540000"><ele>208</ele><time>2016-09-30T10:35:28Z</time></trkpt>
<trkpt lat="53.0134200000" lon="-4.0842520000"><ele>207</ele><time>2016-09-30T10:35:29Z</time></trkpt>
<trkpt lat="53.0134240000" lon="-4.0842490000"><ele>207</ele><time>2016-09-30T10:35:30Z</time></trkpt>
<trkpt lat="53.0134290000" lon="-4.0842460000"><ele>207</ele><time>2016-09-30T10:35:31Z</time></trkpt>
<trkpt lat="53.0134340000" lon="-4.0842440000"><ele>207</ele><time>2016-09-30T10:35:32Z</time></trkpt>
<trkpt lat="53.0134380000" lon="-4.0842410000"><ele>207</ele><time>2016-09-30T10:35:33Z</time></trkpt>
<trkpt lat="53.0134430000" lon="-4.0842390000"><ele>206</ele><time>2016-09-30T10:35:34Z</time></trkpt>
<trkpt lat="53.0134470000" lon="-4.0842360000"><ele>206</ele><time>2016-09-30T10:35:35Z</time></trkpt>
<trkpt lat="53.0134510000" lon="-4.0842340000"><ele>206</ele><time>2016-09-30T10:35:36Z</time></trkpt>
<trkpt lat="53.0134550000" lon="-4.0842320000"><ele>206</ele><time>2016-09-30T10:35:37Z</time></trkpt>
<trkpt lat="53.0134580000" lon="-4.0842290000"><ele>205</ele><time>2016-09-30T10:35:38Z</time></trkpt>
<trkpt lat="53.0134620000" lon="-4.0842270000"><ele>205</ele><time>2016-09-30T10:35:39Z</time></trkpt>
<trkpt lat="53.0134860000" lon="-4.0842150000"><ele>204</ele><time>2016-09-30T10:35:46Z</time></trkpt>
<trkpt lat="53.0135030000" lon="-4.0842100000"><ele>203</ele><time>2016-09-30T10:35:50Z</time></trkpt>
<trkpt lat="53.0135240000" lon="-4.0842090000"><ele>203</ele><time>2016-09-30T10:35:54Z</time></trkpt>
<trkpt lat="53.0136360000" lon="-4.0842210000"><ele>203</ele><time>2016-09-30T10:35:57Z</time></trkpt>
<trkpt lat="53.0136500000" lon="-4.0842010000"><ele>203</ele><time>2016-09-30T10:35:58Z</time></trkpt>
<trkpt lat="53.0136590000" lon="-4.0842010000"><ele>202</ele><time>2016-09-30T10:36:04Z</time></trkpt>
<trkpt lat="53.0136590000" lon="-4.0842000000"><ele>202</ele><time>2016-09-30T10:36:05Z</time></trkpt>
<trkpt lat="53.0136600000" lon="-4.0842000000"><ele>201</ele><time>2016-09-30T10:36:06Z</time></trkpt>
<trkpt lat="53.0136610000" lon="-4.0841990000"><ele>201</ele><time>2016-09-30T10:36:07Z</time></trkpt>
<trkpt lat="53.0136620000" lon="-4.0841980000"><ele>201</ele><time>2016-09-30T10:36:08Z</time></trkpt>
<trkpt lat="53.0136630000" lon="-4.0841970000"><ele>200</ele><time>2016-09-30T10:36:09Z</time></trkpt>
<trkpt lat="53.0136640000" lon="-4.0841950000"><ele>200</ele><time>2016-09-30T10:36:10Z</time></trkpt>
<trkpt lat="53.0136660000" lon="-4.0841930000"><ele>200</ele><time>2016-09-30T10:36:11Z</time></trkpt>
<trkpt lat="53.0136670000" lon="-4.0841900000"><ele>199</ele><time>2016-09-30T10:36:12Z</time></trkpt>
<trkpt lat="53.0136690000" lon="-4.0841870000"><ele>199</ele><time>2016-09-30T10:36:13Z</time></trkpt>
<trkpt lat="53.0136710000" lon="-4.0841840000"><ele>199</ele><time>2016-09-30T10:36:14Z</time></trkpt>
<trkpt lat="53.0136740000" lon="-4.0841800000"><ele>198</ele><time>2016-09-30T10:36:15Z</time></trkpt>
<trkpt lat="53.0136760000" lon="-4.0841770000"><ele>198</ele><time>2016-09-30T10:36:16Z</time></trkpt>
<trkpt lat="53.0136790000" lon="-4.0841730000"><ele>198</ele><time>2016-09-30T10:36:17Z</time></trkpt>
<trkpt lat="53.0136820000" lon="-4.0841700000"><ele>198</ele><time>2016-09-30T10:36:18Z</time></trkpt>
<trkpt lat="53.0136850000" lon="-4.0841660000"><ele>197</ele><time>2016-09-30T10:36:19Z</time></trkpt>
<trkpt lat="53.0136880000" lon="-4.0841620000"><ele>197</ele><time>2016-09-30T10:36:20Z</time></trkpt>
<trkpt lat="53.0136920000" lon="-4.0841570000"><ele>197</ele><time>2016-09-30T10:36:21Z</time></trkpt>
<trkpt lat="53.0136960000" lon="-4.0841530000"><ele>196</ele><time>2016-09-30T10:36:22Z</time></trkpt>
<trkpt lat="53.0137000000" lon="-4.0841480000"><ele>196</ele><time>2016-09-30T10:36:23Z</time></trkpt>
<trkpt lat="53.0137040000" lon="-4.0841440000"><ele>196</ele></trkpt>
<trkpt lat="53.0137080000" lon="-4.0841390000"><ele>196</ele><time>2016-09-30T10:36:25Z</time></trkpt>
<trkpt lat="53.0137130000" lon="-4.0841340000"><ele>195</ele><time>2016-09-30T10:36:26Z</time></trkpt>
<trkpt lat="53.0137180000" lon="-4.0841290000"><ele>195</ele><time>2016-09-30T10:36:27Z</time></trkpt>
<trkpt lat="53.0137230000" lon="-4.0841240000"><ele>195</ele><time>2016-09-30T10:36:28Z</time></trkpt>
<trkpt lat="53.0137290000" lon="-4.0841190000"><ele>194</ele><time>2016-09-30T10:36:29Z</time></trkpt>
<trkpt lat="53.0137340000" lon="-4.0841140000"><ele>194</ele><time>2016-09-30T10:36:30Z</time></trkpt>
<trkpt lat="53.0137400000" lon="-4.0841090000"><ele>194</ele><time>2016-09-30T10:36:31Z</time></trkpt>
<trkpt lat="53.0137460000" lon="-4.0841040000"><ele>193</ele><time>2016-09-30T10:36:32Z</time></trkpt>
<trkpt lat="53.0137520000" lon="-4.0840990000"><ele>193</ele><time>2016-09-30T10:36:33Z</time></trkpt>
<trkpt lat="53.0137580000" lon="-4.0840950000"><ele>193</ele><time>2016-09-30T10:36:34Z</time></trkpt>
<trkpt lat="53.0137640000" lon="-4.0840910000"><ele>193</ele><time>2016-09-30T10:36:35Z</time></trkpt>
<trkpt lat="53.0137700000" lon="-4.0840870000"><ele>193</ele><time>2016-09-30T10:36:36Z</time></trkpt>
<trkpt lat="53.0137770000" lon="-4.0840830000"><ele>193</ele><time>2016-09-30T10:36:37Z</time></trkpt>
<trkpt lat="53.0137830000" lon="-4.0840790000"><ele>192</ele><time>2016-09-30T10:36:38Z</time></trkpt>
<trkpt lat="53.0137890000" lon="-4.0840760000"><ele>192</ele><time>2016-09-30T10:36:39Z</time></trkpt>
<trkpt lat="53.0137950000" lon="-4.0840720000"><ele>192</ele><time>2016-09-30T10:36:40Z</time></trkpt>
<trkpt lat="53.0138020000" lon="-4.0840690000"><ele>192</ele><time>2016-09-30T10:36:41Z</time></trkpt>
<trkpt lat="53.0138080000" lon="-4.0840660000"><ele>191</ele><time>2016-09-30T10:36:42Z</time></trkpt>
<trkpt lat="53.0138150000" lon="-4.0840620000"><ele>191</ele></trkpt>
<trkpt lat="53.0138220000" lon="-4.0840590000"><ele>191</ele><time>2016-09-30T10:36:44Z</time></trkpt>
<trkpt lat="53.0138290000" lon="-4.0840550000"><ele>191</ele><time>2016-09-30T10:36:45Z</time></trkpt>
<trkpt lat="53.0138360000" lon="-4.0840510000"><ele>191</ele><time>2016-09-30T10:36:46Z</time></trkpt>
<trkpt lat="53.0138510000" lon="-4.0840440000"><ele>190</ele><time>2016-09-30T10:36:48Z</time></trkpt>
<trkpt lat="53.0138580000" lon="-4.0840390000"><ele>190</ele><time>2016-09-30T10:36:49Z</time></trkpt>
<trkpt lat="53.0138650000" lon="-4.0840350000"><ele>190</ele><time>2016-09-30T10:36:50Z</time></trkpt>
<trkpt lat="53.0138730000" lon="-4.0840300000"><ele>190</ele><time>2016-09-30T10:36:51Z</time></trkpt>
<trkpt lat="53.0138800000" lon="-4.0840260000"><ele>190</ele><time>2016-09-30T10:36:52Z</time></trkpt>
<trkpt lat="53.0140290000" lon="-4.0839330000"><ele>189</ele><time>2016-09-30T10:36:53Z</time></trkpt>
<trkpt lat="53.0140370000" lon="-4.0839300000"><ele>189</ele><time>2016-09-30T10:36:54Z</time></trkpt>
<trkpt lat="53.0140440000" lon="-4.0839250000"><ele>189</ele><time>2016-09-30T10:36:55Z</time></trkpt>
<trkpt lat="53.0140440000" lon="-4.0839250000"><ele>189</ele><time>2016-09-30T10:36:56Z</time></trkpt>
<trkpt lat="53.0140670000" lon="-4.0839110000"><ele>189</ele><time>2016-09-30T10:36:57Z</time></trkpt>
<trkpt lat="53.0140800000" lon="-4.0839060000"><ele>189</ele><time>2016-09-30T10:36:58Z</time></trkpt>
<trkpt lat="53.0140910000" lon="-4.0838970000"><ele>189</ele><time>2016-09-30T10:36:59Z</time></trkpt>
<trkpt lat="53.0141030000" lon="-4.0838950000"><ele>189</ele><time>2016-09-30T10:37:00Z</time></trkpt>
<trkpt lat="53.0141150000" lon="-4.0838920000"><ele>188</ele><time>2016-09-30T10:37:01Z</time></trkpt>
<trkpt lat="53.0141250000" lon="-4.0838860000"><ele>188</ele><time>2016-09-30T10:37:02Z</time></trkpt>
<trkpt lat="53.0141350000" lon="-4.0838780000"><ele>188</ele><time>2016-09-30T10:37:03Z</time></trkpt>
<trkpt lat="53.0141470000" lon="-4.0838690000"><ele>188</ele><time>2016-09-30T10:37:04Z</time></trkpt>
<trkpt lat="53.0141570000" lon="-4.0838570000"><ele>188</ele><time>2016-09-30T10:37:05Z</time></trkpt>
<trkpt lat="53.0141660000" lon="-4.0838470000"><ele>188</ele><time>2016-09-30T10:37:06Z</time></trkpt>
<trkpt lat="53.0141770000" lon="-4.0838390000"><ele>187</ele><time>2016-09-30T10:37:07Z</time></trkpt>
<trkpt lat="53.0141770000" lon="-4.0838390000"><ele>187</ele><time>2016-09-30T10:37:08Z</time></trkpt>
<trkpt lat="53.0141770000" lon="-4.0838390000"><ele>187</ele><time>2016-09-30T10:37:09Z</time></trkpt>
<trkpt lat="53.0142080000" lon="-4.0838030000"><ele>187</ele><time>2016-09-30T10:37:10Z</time></trkpt>
<trkpt lat="53.0142190000" lon="-4.0837940000"><ele>187</ele><time>2016-09-30T10:37:11Z</time></trkpt>
<trkpt lat="53.0142300000" lon="-4.0837860000"><ele>187</ele><time>2016-09-30T10:37:12Z</time></trkpt>
<trkpt lat="53.0142490000" lon="-4.0837770000"><ele>185</ele><time>2016-09-30T10:37:23Z</time></trkpt>
<trkpt lat="53.0143300000" lon="-4.0837660000"><ele>185</ele><time>2016-09-30T10:37:25Z</time></trkpt>
<trkpt lat="53.0143460000" lon="-4.0837820000"><ele>184</ele><time>2016-09-30T10:37:32Z</time></trkpt>
<trkpt lat="53.0143470000" lon="-4.0837820000"><ele>184</ele><time>2016-09-30T10:37:33Z</time></trkpt>
<trkpt lat="53.0143860000" lon="-4.0837940000"><ele>184</ele><time>2016-09-30T10:37:34Z</time></trkpt>
<trkpt lat="53.0143920000" lon="-4.0837940000"><ele>184</ele><time>2016-09-30T10:37:35Z</time></trkpt>
<trkpt lat="53.0144000000" lon="-4.0837950000"><ele>184</ele><time>2016-09-30T10:37:36Z</time></trkpt>
<trkpt lat="53.0144000000" lon="-4.0837950000"><ele>183</ele><time>2016-09-30T10:37:38Z</time></trkpt>
<trkpt lat="53.0144000000" lon="-4.0837950000"><ele>183</ele><time>2016-09-30T10:37:39Z</time></trkpt>
<trkpt lat="53.0144000000" lon="-4.0837950000"><ele>183</ele><time>2016-09-30T10:37:40Z</time></trkpt>
<trkpt lat="53.0144010000" lon="-4.0837950000"><ele>183</ele><time>2016-09-30T10:37:41Z</time></trkpt>
<trkpt lat="53.0144020000" lon="-4.0837960000"><ele>183</ele><time>2016-09-30T10:37:42Z</time></trkpt>
<trkpt lat="53.0144030000" lon="-4.0837960000"><ele>183</ele><time>2016-09-30T10:37:43Z</time></trkpt>
<trkpt lat="53.0144040000" lon="-4.0837960000"><ele>183</ele><time>2016-09-30T10:37:44Z</time></trkpt>
<trkpt lat="53.0144050000" lon="-4.0837960000"><ele>182</ele><time>2016-09-30T10:37:45Z</time></trkpt>
<trkpt lat="53.0144070000" lon="-4.0837950000"><ele>182</ele><time>2016-09-30T10:37:46Z</time></trkpt>
<trkpt lat="53.0144110000" lon="-4.0837950000"><ele>182</ele><time>2016-09-30T10:37:48Z</time></trkpt>
<trkpt lat="53.0144130000" lon="-4.0837940000"><ele>182</ele><time>2016-09-30T10:37:49Z</time></trkpt>
<trkpt lat="53.0144160000" lon="-4.0837930000"><ele>181</ele><time>2016-09-30T10:37:50Z</time></trkpt>
<trkpt lat="53.0144180000" lon="-4.0837930000"><ele>181</ele><time>2016-09-30T10:37:51Z</time></trkpt>
<trkpt lat="53.0144210000" lon="-4.0837920000"><ele>181</ele><time>2016-09-30T10:37:52Z</time></trkpt>
<trkpt lat="53.0144240000" lon="-4.0837910000"><ele>181</ele><time>2016-09-30T10:37:53Z</time></trkpt>
<trkpt lat="53.0144280000" lon="-4.0837910000"><ele>181</ele><time>2016-09-30T10:37:54Z</time></trkpt>
<trkpt lat="53.0144310000" lon="-4.0837900000"><ele>181</ele><time>2016-09-30T10:37:55Z</time></trkpt>
<trkpt lat="53.0144530000" lon="-4.0837890000"><ele>180</ele><time>2016-09-30T10:38:00Z</time></trkpt>
<trkpt lat="53.0145590000" lon="-4.0837780000"><ele>179</ele><time>2016-09-30T10:38:02Z</time></trkpt>
<trkpt lat="53.0145650000" lon="-4.0837680000"><ele>179</ele><time>2016-09-30T10:38:03Z</time></trkpt>
<trkpt lat="53.0145680000" lon="-4.0837580000"><ele>179</ele><time>2016-09-30T10:38:04Z</time></trkpt>
<trkpt lat="53.0145680000" lon="-4.0837570000"><ele>178</ele><time>2016-09-30T10:38:06Z</time></trkpt>
<trkpt lat="53.0145680000" lon="-4.0837570000"><ele>178</ele><time>2016-09-30T10:38:07Z</time></trkpt>
<trkpt lat="53.0145680000" lon="-4.0837560000"><ele>178</ele><time>2016-09-30T10:38:08Z</time></trkpt>
<trkpt lat="53.0145690000" lon="-4.0837560000"><ele>178</ele><time>2016-09-30T10:38:09Z</time></trkpt>
<trkpt lat="53.0145690000" lon="-4.0837550000"><ele>177</ele><time>2016-09-30T10:38:10Z</time></trkpt>
<trkpt lat="53.0145690000" lon="-4.0837530000"><ele>177</ele><time>2016-09-30T10:38:11Z</time></trkpt>
<trkpt lat="53.0145690000" lon="-4.0837520000"><ele>177</ele><time>2016-09-30T10:38:12Z</time></trkpt>
<trkpt lat="53.0145690000" lon="-4.0837500000"><ele>176</ele><time>2016-09-30T10:38:13Z</time></trkpt>
<trkpt lat="53.0145700000" lon="-4.0837480000"><ele>176</ele><time>2016-09-30T10:38:14Z</time></trkpt>
<trkpt lat="53.0145700000" lon="-4.0837450000"><ele>176</ele><time>2016-09-30T10:38:15Z</time></trkpt>
<trkpt lat="53.0145710000" lon="-4.0837420000"><ele>176</ele><time>2016-09-30T10:38:16Z</time></trkpt>
<trkpt lat="53.0145720000" lon="-4.0837380000"><ele>176</ele><time>2016-09-30T10:38:17Z</time></trkpt>
<trkpt lat="53.0145730000" lon="-4.0837340000"><ele>175</ele><time>2016-09-30T10:38:18Z</time></trkpt>
<trkpt lat="53.0145740000" lon="-4.0837300000"><ele>175</ele><time>2016-09-30T10:38:19Z</time></trkpt>
<trkpt lat="53.0145750000" lon="-4.0837250000"><ele>175</ele><time>2016-09-30T10:38:20Z</time></trkpt>
<trkpt lat="53.0145770000" lon="-4.0837200000"><ele>175</ele><time>2016-09-30T10:38:21Z</time></trkpt>
<trkpt lat="53.0145780000" lon="-4.0837140000"><ele>175</ele><time>2016-09-30T10:38:22Z</time></trkpt>
<trkpt lat="53.0145800000" lon="-4.0837080000"><ele>175</ele><time>2016-09-30T10:38:23Z</time></trkpt>
<trkpt lat="53.0145820000" lon="-4.0837020000"><ele>174</ele></trkpt>
<trkpt lat="53.0145840000" lon="-4.0836960000"><ele>174</ele><time>2016-09-30T10:38:25Z</time></trkpt>
<trkpt lat="53.0145870000" lon="-4.0836890000"><ele>174</ele><time>2016-09-30T10:38:26Z</time></trkpt>
<trkpt lat="53.0145900000" lon="-4.0836830000"><ele>174</ele><time>2016-09-30T10:38:27Z</time></trkpt>
<trkpt lat="53.0145930000" lon="-4.0836760000"><ele>173</ele><time>2016-09-30T10:38:28Z</time></trkpt>
<trkpt lat="53.0145970000" lon="-4.0836690000"><ele>173</ele><time>2016-09-30T10:38:29Z</time></trkpt>
<trkpt lat="53.0146000000" lon="-4.0836620000"><ele>173</ele><time>2016-09-30T10:38:30Z</time></trkpt>
<trkpt lat="53.0146040000" lon="-4.0836550000"><ele>173</ele><time>2016-09-30T10:38:31Z</time></trkpt>
<trkpt lat="53.0146080000" lon="-4.0836470000"><ele>173</ele><time>2016-09-30T10:38:32Z</time></trkpt>
<trkpt lat="53.0146120000" lon="-4.0836400000"><ele>173</ele><time>2016-09-30T10:38:33Z</time></trkpt>
<trkpt lat="53.0146170000" lon="-4.0836330000"><ele>173</ele><time>2016-09-30T10:38:34Z</time></trkpt>
<trkpt lat="53.0146210000" lon="-4.0836250000"><ele>173</ele><time>2016-09-30T10:38:35Z</time></trkpt>
<trkpt lat="53.0146260000" lon="-4.0836170000"><ele>173</ele><time>2016-09-30T10:38:36Z</time></trkpt>
<trkpt lat="53.0146310000" lon="-4.0836090000"><ele>172</ele><time>2016-09-30T10:38:37Z</time></trkpt>
<trkpt lat="53.0146350000" lon="-4.0836020000"><ele>172</ele><time>2016-09-30T10:38:38Z</time></trkpt>
<trkpt lat="53.0146400000" lon="-4.0835940000"><ele>172</ele><time>2016-09-30T10:38:39Z</time></trkpt>
<trkpt lat="53.0146450000" lon="-4.0835880000"><ele>172</ele><time>2016-09-30T10:38:40Z</time></trkpt>
<trkpt lat="53.0146490000" lon="-4.0835810000"><ele>172</ele><time>2016-09-30T10:38:41Z</time></trkpt>
<trkpt lat="53.0146540000" lon="-4.0835740000"><ele>172</ele><time>2016-09-30T10:38:42Z</time></trkpt>
<trkpt lat="53.0146590000" lon="-4.0835670000"><ele>172</ele><time>2016-09-30T10:38:43Z</time></trkpt>
<trkpt lat="53.0146640000" lon="-4.0835610000"><ele>172</ele><time>2016-09-30T10:38:44Z</time></trkpt>
<trkpt lat="53.0146690000" lon="-4.0835550000"><ele>172</ele><time>2016-09-30T10:38:45Z</time></trkpt>
<trkpt lat="53.0146750000" lon="-4.0835480000"><ele>172</ele><time>2016-09-30T10:38:46Z</time></trkpt>
<trkpt lat="53.0146850000" lon="-4.0835370000"><ele>172</ele><time>2016-09-30T10:38:48Z</time></trkpt>
<trkpt lat="53.0146910000" lon="-4.0835310000"><ele>172</ele><time>2016-09-30T10:38:49Z</time></trkpt>
<trkpt lat="53.0146960000" lon="-4.0835250000"><ele>172</ele><time>2016-09-30T10:38:50Z</time></trkpt>
<trkpt lat="53.0147010000" lon="-4.0835190000"><ele>172</ele><time>2016-09-30T10:38:51Z</time></trkpt>
<trkpt lat="53.0147070000" lon="-4.0835140000"><ele>172</ele><time>2016-09-30T10:38:52Z</time></trkpt>
<trkpt lat="53.0147130000" lon="-4.0835080000"><ele>171</ele><time>2016-09-30T10:38:53Z</time></trkpt>
<trkpt lat="53.0147190000" lon="-4.0835030000"><ele>171</ele><time>2016-09-30T10:38:54Z</time></trkpt>
<trkpt lat="53.0147250000" lon="-4.0834970000"><ele>171</ele><time>2016-09-30T10:38:55Z</time></trkpt>
<trkpt lat="53.0147310000" lon="-4.0834920000"><ele>171</ele><time>2016-09-30T10:38:56Z</time></trkpt>
<trkpt lat="53.0147370000" lon="-4.0834870000"><ele>171</ele><time>2016-09-30T10:38:57Z</time></trkpt>
<trkpt lat="53.0147430000" lon="-4.0834820000"><ele>171</ele><time>2016-09-30T10:38:58Z</time></trkpt>
<trkpt lat="53.0147490000" lon="-4.0834770000"><ele>171</ele><time>2016-09-30T10:38:59Z</time></trkpt>
<trkpt lat="53.0147550000" lon="-4.0834710000"><ele>171</ele><time>2016-09-30T10:39:00Z</time></trkpt>
<trkpt lat="53.0147610000" lon="-4.0834650000"><ele>171</ele><time>2016-09-30T10:39:01Z</time></trkpt>
<trkpt lat="53.0147670000" lon="-4.0834590000"><ele>170</ele><time>2016-09-30T10:39:02Z</time></trkpt>
<trkpt lat="53.0147730000" lon="-4.0834530000"><ele>170</ele><time>2016-09-30T10:39:03Z</time></trkpt>
<trkpt lat="53.0147790000" lon="-4.0834460000"><ele>170</ele><time>2016-09-30T10:39:04Z</time></trkpt>
<trkpt lat="53.0147950000" lon="-4.0834280000"><ele>170</ele><time>2016-09-30T10:39:07Z</time></trkpt>
<trkpt lat="53.0149190000" lon="-4.0832850000"><ele>169</ele><time>2016-09-30T10:39:09Z</time></trkpt>
<trkpt lat="53.0149350000" lon="-4.0832700000"><ele>169</ele><time>2016-09-30T10:39:11Z</time></trkpt>
<trkpt lat="53.0149390000" lon="-4.0832650000"><ele>169</ele><time>2016-09-30T10:39:13Z</time></trkpt>
<trkpt lat="53.0149390000" lon="-4.0832650000"><ele>169</ele><time>2016-09-30T10:39:14Z</time></trkpt>
<trkpt lat="53.0149400000" lon="-4.0832650000"><ele>169</ele><time>2016-09-30T10:39:15Z</time></trkpt>
<trkpt lat="53.0149400000" lon="-4.0832640000"><ele>169</ele><time>2016-09-30T10:39:16Z</time></trkpt>
<trkpt lat="53.0149400000" lon="-4.0832640000"><ele>169</ele><time>2016-09-30T10:39:17Z</time></trkpt>
<trkpt lat="53.0149400000" lon="-4.0832640000"><ele>168</ele><time>2016-09-30T10:39:18Z</time></trkpt>
<trkpt lat="53.0149410000" lon="-4.0832630000"><ele>168</ele><time>2016-09-30T10:39:19Z</time></trkpt>
<trkpt lat="53.0149420000" lon="-4.0832620000"><ele>168</ele><time>2016-09-30T10:39:20Z</time></trkpt>
<trkpt lat="53.0149420000" lon="-4.0832620000"><ele>168</ele><time>2016-09-30T10:39:21Z</time></trkpt>
<trkpt lat="53.0149430000" lon="-4.0832610000"><ele>168</ele><time>2016-09-30T10:39:22Z</time></trkpt>
<trkpt lat="53.0149440000" lon="-4.0832600000"><ele>168</ele><time>2016-09-30T10:39:23Z</time></trkpt>
<trkpt lat="53.0149440000" lon="-4.0832590000"><ele>167</ele></trkpt>
<trkpt lat="53.0149550000" lon="-4.0832480000"><ele>165</ele><time>2016-09-30T10:39:32Z</time></trkpt>
<trkpt lat="53.0149570000" lon="-4.0832460000"><ele>164</ele><time>2016-09-30T10:39:33Z</time></trkpt>
<trkpt lat="53.0149590000" lon="-4.0832440000"><ele>164</ele><time>2016-09-30T10:39:34Z</time></trkpt>
<trkpt lat="53.0149600000" lon="-4.0832420000"><ele>164</ele><time>2016-09-30T10:39:35Z</time></trkpt>
<trkpt lat="53.0149630000" lon="-4.0832400000"><ele>164</ele><time>2016-09-30T10:39:36Z</time></trkpt>
<trkpt lat="53.0149650000" lon="-4.0832370000"><ele>163</ele><time>2016-09-30T10:39:37Z</time></trkpt>
<trkpt lat="53.0149680000" lon="-4.0832350000"><ele>163</ele><time>2016-09-30T10:39:38Z</time></trkpt>
<trkpt lat="53.0149700000" lon="-4.0832320000"><ele>163</ele><time>2016-09-30T10:39:39Z</time></trkpt>
<trkpt lat="53.0149730000" lon="-4.0832290000"><ele>163</ele><time>2016-09-30T10:39:40Z</time></trkpt>
<trkpt lat="53.0149750000" lon="-4.0832270000"><ele>162</ele><time>2016-09-30T10:39:41Z</time></trkpt>
<trkpt lat="53.0149780000" lon="-4.0832240000"><ele>162</ele><time>2016-09-30T10:39:42Z</time></trkpt>
<trkpt lat="53.0149810000" lon="-4.0832210000"><ele>162</ele><time>2016-09-30T10:39:43Z</time></trkpt>
<trkpt lat="53.0149840000" lon="-4.0832180000"><ele>162</ele><time>2016-09-30T10:39:44Z</time></trkpt>
<trkpt lat="53.0149880000" lon="-4.0832150000"><ele>162</ele><time>2016-09-30T10:39:45Z</time></trkpt>
<trkpt lat="53.0149910000" lon="-4.0832130000"><ele>162</ele><time>2016-09-30T10:39:46Z</time></trkpt>
<trkpt lat="53.0149970000" lon="-4.0832070000"><ele>161</ele><time>2016-09-30T10:39:48Z</time></trkpt>
<trkpt lat="53.0150000000" lon="-4.0832040000"><ele>161</ele><time>2016-09-30T10:39:49Z</time></trkpt>
<trkpt lat="53.0150030000" lon="-4.0832020000"><ele>161</ele><time>2016-09-30T10:39:50Z</time></trkpt>
<trkpt lat="53.0150070000" lon="-4.0831990000"><ele>161</ele><time>2016-09-30T10:39:51Z</time></trkpt>
<trkpt lat="53.0150090000" lon="-4.0831950000"><ele>161</ele><time>2016-09-30T10:39:52Z</time></trkpt>
<trkpt lat="53.0150120000" lon="-4.0831920000"><ele>161</ele><time>2016-09-30T10:39:53Z</time></trkpt>
<trkpt lat="53.0150150000" lon="-4.0831890000"><ele>161</ele><time>2016-09-30T10:39:54Z</time></trkpt>
<trkpt lat="53.0150180000" lon="-4.0831860000"><ele>161</ele><time>2016-09-30T10:39:55Z</time></trkpt>
<trkpt lat="53.0150210000" lon="-4.0831830000"><ele>160</ele><time>2016-09-30T10:39:56Z</time></trkpt>
<trkpt lat="53.0150240000" lon="-4.0831800000"><ele>160</ele><time>2016-09-30T10:39:57Z</time></trkpt>
<trkpt lat="53.0150280000" lon="-4.0831780000"><ele>160</ele><time>2016-09-30T10:39:58Z</time></trkpt>
<trkpt lat="53.0150310000" lon="-4.0831750000"><ele>160</ele></trkpt>
<trkpt lat="53.0150330000" lon="-4.0831720000"><ele>160</ele><time>2016-09-30T10:40:00Z</time></trkpt>
<trkpt lat="53.0150540000" lon="-4.0831570000"><ele>159</ele><time>2016-09-30T10:40:06Z</time></trkpt>
<trkpt lat="53.0150570000" lon="-4.0831550000"><ele>159</ele><time>2016-09-30T10:40:07Z</time></trkpt>
<trkpt lat="53.0150610000" lon="-4.0831540000"><ele>159</ele><time>2016-09-30T10:40:08Z</time></trkpt>
<trkpt lat="53.0150650000" lon="-4.0831520000"><ele>159</ele><time>2016-09-30T10:40:09Z</time></trkpt>
<trkpt lat="53.0150690000" lon="-4.0831500000"><ele>159</ele><time>2016-09-30T10:40:10Z</time></trkpt>
<trkpt lat="53.0150740000" lon="-4.0831490000"><ele>159</ele><time>2016-09-30T10:40:11Z</time></trkpt>
<trkpt lat="53.0150780000" lon="-4.0831480000"><ele>159</ele><time>2016-09-30T10:40:12Z</time></trkpt>
<trkpt lat="53.0150820000" lon="-4.0831480000"><ele>158</ele><time>2016-09-30T10:40:13Z</time></trkpt>
<trkpt lat="53.0150860000" lon="-4.0831480000"><ele>158</ele><time>2016-09-30T10:40:14Z</time></trkpt>
<trkpt lat="53.0150900000" lon="-4.0831480000"><ele>158</ele><time>2016-09-30T10:40:15Z</time></trkpt>
<trkpt lat="53.0150940000" lon="-4.0831480000"><ele>158</ele><time>2016-09-30T10:40:16Z</time></trkpt>
<trkpt lat="53.0150980000" lon="-4.0831480000"><ele>158</ele><time>2016-09-30T10:40:17Z</time></trkpt>
<trkpt lat="53.0151010000" lon="-4.0831470000"><ele>158</ele><time>2016-09-30T10:40:18Z</time></trkpt>
<trkpt lat="53.0151050000" lon="-4.0831470000"><ele>158</ele><time>2016-09-30T10:40:19Z</time></trkpt>
<trkpt lat="53.0151090000" lon="-4.0831460000"><ele>158</ele><time>2016-09-30T10:40:20Z</time></trkpt>
<trkpt lat="53.0151120000" lon="-4.0831440000"><ele>158</ele><time>2016-09-30T10:40:21Z</time></trkpt>
<trkpt lat="53.0151160000" lon="-4.0831420000"><ele>158</ele><time>2016-09-30T10:40:22Z</time></trkpt>
<trkpt lat="53.0151190000" lon="-4.0831400000"><ele>158</ele><time>2016-09-30T10:40:23Z</time></trkpt>
<trkpt lat="53.0151230000" lon="-4.0831370000"><ele>158</ele><time>2016-09-30T10:40:24Z</time></trkpt>
<trkpt lat="53.0151260000" lon="-4.0831340000"><ele>157</ele><time>2016-09-30T10:40:25Z</time></trkpt>
<trkpt lat="53.0151290000" lon="-4.0831310000"><ele>157</ele><time>2016-09-30T10:40:26Z</time></trkpt>
<trkpt lat="53.0151320000" lon="-4.0831280000"><ele>157</ele><time>2016-09-30T10:40:27Z</time></trkpt>
<trkpt lat="53.0151350000" lon="-4.0831240000"><ele>157</ele><time>2016-09-30T10:40:28Z</time></trkpt>
<trkpt lat="53.0151380000" lon="-4.0831200000"><ele>157</ele><time>2016-09-30T10:40:29Z</time></trkpt>
<trkpt lat="53.0151410000" lon="-4.0831150000"><ele>157</ele><time>2016-09-30T10:40:30Z</time></trkpt>
<trkpt lat="53.0151440000" lon="-4.0831110000"><ele>157</ele><time>2016-09-30T10:40:31Z</time></trkpt>
<trkpt lat="53.0151470000" lon="-4.0831060000"><ele>156</ele><time>2016-09-30T10:40:32Z</time></trkpt>
<trkpt lat="53.0151490000" lon="-4.0831020000"><ele>156</ele><time>2016-09-30T10:40:33Z</time></trkpt>
<trkpt lat="53.0151520000" lon="-4.0830970000"><ele>156</ele><time>2016-09-30T10:40:34Z</time></trkpt>
<trkpt lat="53.0151560000" lon="-4.0830930000"><ele>156</ele><time>2016-09-30T10:40:35Z</time></trkpt>
<trkpt lat="53.0151590000" lon="-4.0830890000"><ele>156</ele><time>2016-09-30T10:40:36Z</time></trkpt>
<trkpt lat="53.0151620000" lon="-4.0830850000"><ele>155</ele><time>2016-09-30T10:40:37Z</time></trkpt>
<trkpt lat="53.0151660000" lon="-4.0830800000"><ele>155</ele><time>2016-09-30T10:40:38Z</time></trkpt>
<trkpt lat="53.0151690000" lon="-4.0830760000"><ele>155</ele><time>2016-09-30T10:40:39Z</time></trkpt>
<trkpt lat="53.0151720000" lon="-4.0830720000"><ele>155</ele><time>2016-09-30T10:40:40Z</time></trkpt>
<trkpt lat="53.0151750000" lon="-4.0830670000"><ele>154</ele><time>2016-09-30T10:40:41Z</time></trkpt>
<trkpt lat="53.0151780000" lon="-4.0830630000"><ele>154</ele><time>2016-09-30T10:40:42Z</time></trkpt>
<trkpt lat="53.0151810000" lon="-4.0830590000"><ele>154</ele><time>2016-09-30T10:40:43Z</time></trkpt>
<trkpt lat="53.0151840000" lon="-4.0830550000"><ele>154</ele><time>2016-09-30T10:40:44Z</time></trkpt>
<trkpt lat="53.0151870000" lon="-4.0830500000"><ele>154</ele><time>2016-09-30T10:40:45Z</time></trkpt>
<trkpt lat="53.0151900000" lon="-4.0830470000"><ele>154</ele><time>2016-09-30T10:40:46Z</time></trkpt>
<trkpt lat="53.0151960000" lon="-4.0830400000"><ele>153</ele><time>2016-09-30T10:40:48Z</time></trkpt>
<trkpt lat="53.0152270000" lon="-4.0829900000"><ele>152</ele><time>2016-09-30T10:41:04Z</time></trkpt>
<trkpt lat="53.0152760000" lon="-4.0829480000"><ele>152</ele><time>2016-09-30T10:41:05Z</time></trkpt>
<trkpt lat="53.0152870000" lon="-4.0829520000"><ele>151</ele><time>2016-09-30T10:41:16Z</time></trkpt>
<trkpt lat="53.0152880000" lon="-4.0829500000"><ele>150</ele><time>2016-09-30T10:41:17Z</time></trkpt>
<trkpt lat="53.0152900000" lon="-4.0829490000"><ele>150</ele><time>2016-09-30T10:41:18Z</time></trkpt>
<trkpt lat="53.0152910000" lon="-4.0829470000"><ele>150</ele><time>2016-09-30T10:41:19Z</time></trkpt>
<trkpt lat="53.0152930000" lon="-4.0829450000"><ele>150</ele><time>2016-09-30T10:41:20Z</time></trkpt>
<trkpt lat="53.0152950000" lon="-4.0829430000"><ele>150</ele><time>2016-09-30T10:41:21Z</time></trkpt>
<trkpt lat="53.0152970000" lon="-4.0829400000"><ele>149</ele><time>2016-09-30T10:41:22Z</time></trkpt>
<trkpt lat="53.0153000000" lon="-4.0829360000"><ele>149</ele><time>2016-09-30T10:41:23Z</time></trkpt>
<trkpt lat="53.0153020000" lon="-4.0829320000"><ele>149</ele><time>2016-09-30T10:41:24Z</time></trkpt>
<trkpt lat="53.0153050000" lon="-4.0829280000"><ele>149</ele><time>2016-09-30T10:41:25Z</time></trkpt>
<trkpt lat="53.0153080000" lon="-4.0829230000"><ele>148</ele><time>2016-09-30T10:41:26Z</time></trkpt>
<trkpt lat="53.0153110000" lon="-4.0829180000"><ele>148</ele><time>2016-09-30T10:41:27Z</time></trkpt>
<trkpt lat="53.0153150000" lon="-4.0829130000"><ele>148</ele><time>2016-09-30T10:41:28Z</time></trkpt>
<trkpt lat="53.0153180000" lon="-4.0829080000"><ele>147</ele><time>2016-09-30T10:41:29Z</time></trkpt>
<trkpt lat="53.0153220000" lon="-4.0829020000"><ele>147</ele><time>2016-09-30T10:41:30Z</time></trkpt>
<trkpt lat="53.0153260000" lon="-4.0828960000"><ele>147</ele><time>2016-09-30T10:41:31Z</time></trkpt>
<trkpt lat="53.0153310000" lon="-4.0828910000"><ele>147</ele><time>2016-09-30T10:41:32Z</time></trkpt>
<trkpt lat="53.0153350000" lon="-4.0828850000"><ele>146</ele><time>2016-09-30T10:41:33Z</time></trkpt>
<trkpt lat="53.0153400000" lon="-4.0828790000"><ele>146</ele><time>2016-09-30T10:41:34Z</time></trkpt>
<trkpt lat="53.0153450000" lon="-4.0828720000"><ele>146</ele><time>2016-09-30T10:41:35Z</time></trkpt>
<trkpt lat="53.0153490000" lon="-4.0828660000"><ele>146</ele><time>2016-09-30T10:41:36Z</time></trkpt>
<trkpt lat="53.0153540000" lon="-4.0828590000"><ele>145</ele><time>2016-09-30T10:41:37Z</time></trkpt>
<trkpt lat="53.0153590000" lon="-4.0828530000"><ele>145</ele><time>2016-09-30T10:41:38Z</time></trkpt>
<trkpt lat="53.0153640000" lon="-4.0828460000"><ele>145</ele><time>2016-09-30T10:41:39Z</time></trkpt>
<trkpt lat="53.0153690000" lon="-4.0828400000"><ele>144</ele><time>2016-09-30T10:41:40Z</time></trkpt>
<trkpt lat="53.0153740000" lon="-4.0828330000"><ele>144</ele><time>2016-09-30T10:41:41Z</time></trkpt>
<trkpt lat="53.0153790000" lon="-4.0828270000"><ele>144</ele><time>2016-09-30T10:41:42Z</time></trkpt>
<trkpt lat="53.0153830000" lon="-4.0828200000"><ele>143</ele><time>2016-09-30T10:41:43Z</time></trkpt>
<trkpt lat="53.0153880000" lon="-4.0828130000"><ele>143</ele><time>2016-09-30T10:41:44Z</time></trkpt>
<trkpt lat="53.0153930000" lon="-4.0828070000"><ele>143</ele><time>2016-09-30T10:41:45Z</time></trkpt>
<trkpt lat="53.0153970000" lon="-4.0828010000"><ele>142</ele><time>2016-09-30T10:41:46Z</time></trkpt>
<trkpt lat="53.0154050000" lon="-4.0827880000"><ele>142</ele><time>2016-09-30T10:41:48Z</time></trkpt>
<trkpt lat="53.0154100000" lon="-4.0827820000"><ele>142</ele><time>2016-09-30T10:41:49Z</time></trkpt>
<trkpt lat="53.0154140000" lon="-4.0827770000"><ele>141</ele><time>2016-09-30T10:41:50Z</time></trkpt>
<trkpt lat="53.0154180000" lon="-4.0827710000"><ele>141</ele><time>2016-09-30T10:41:51Z</time></trkpt>
<trkpt lat="53.0154220000" lon="-4.0827660000"><ele>141</ele><time>2016-09-30T10:41:52Z</time></trkpt>
<trkpt lat="53.0154270000" lon="-4.0827600000"><ele>140</ele><time>2016-09-30T10:41:53Z</time></trkpt>
<trkpt lat="53.0154310000" lon="-4.0827540000"><ele>140</ele><time>2016-09-30T10:41:54Z</time></trkpt>
<trkpt lat="53.0154360000" lon="-4.0827490000"><ele>140</ele><time>2016-09-30T10:41:55Z</time></trkpt>
<trkpt lat="53.0154400000" lon="-4.0827430000"><ele>139</ele><time>2016-09-30T10:41:56Z</time></trkpt>
<trkpt lat="53.0154440000" lon="-4.0827370000"><ele>139</ele><time>2016-09-30T10:41:57Z</time></trkpt>
<trkpt lat="53.0154480000" lon="-4.0827310000"><ele>139</ele><time>2016-09-30T10:41:58Z</time></trkpt>
<trkpt lat="53.0154520000" lon="-4.0827260000"><ele>139</ele><time>2016-09-30T10:41:59Z</time></trkpt>
<trkpt lat="53.0154560000" lon="-4.0827200000"><ele>139</ele><time>2016-09-30T10:42:00Z</time></trkpt>
<trkpt lat="53.0154600000" lon="-4.0827140000"><ele>138</ele><time>2016-09-30T10:42:01Z</time></trkpt>
<trkpt lat="53.0154640000" lon="-4.0827090000"><ele>138</ele><time>2016-09-30T10:42:02Z</time></trkpt>
<trkpt lat="53.0154680000" lon="-4.0827030000"><ele>138</ele><time>2016-09-30T10:42:03Z</time></trkpt>
<trkpt lat="53.0154710000" lon="-4.0826970000"><ele>137</ele><time>2016-09-30T10:42:04Z</time></trkpt>
<trkpt lat="53.0154750000" lon="-4.0826910000"><ele>137</ele><time>2016-09-30T10:42:05Z</time></trkpt>
<trkpt lat="53.0154790000" lon="-4.0826860000"><ele>137</ele><time>2016-09-30T10:42:06Z</time></trkpt>
<trkpt lat="53.0154830000" lon="-4.0826800000"><ele>137</ele><time>2016-09-30T10:42:07Z</time></trkpt>
<trkpt lat="53.0154860000" lon="-4.0826740000"><ele>137</ele><time>2016-09-30T10:42:08Z</time></trkpt>
<trkpt lat="53.0154900000" lon="-4.0826680000"><ele>137</ele><time>2016-09-30T10:42:09Z</time></trkpt>
<trkpt lat="53.0154940000" lon="-4.0826630000"><ele>136</ele><time>2016-09-30T10:42:10Z</time></trkpt>
<trkpt lat="53.0154990000" lon="-4.0826570000"><ele>136</ele><time>2016-09-30T10:42:11Z</time></trkpt>
<trkpt lat="53.0155040000" lon="-4.0826510000"><ele>136</ele><time>2016-09-30T10:42:12Z</time></trkpt>
<trkpt lat="53.0155080000" lon="-4.0826450000"><ele>136</ele><time>2016-09-30T10:42:13Z</time></trkpt>
<trkpt lat="53.0155130000" lon="-4.0826390000"><ele>136</ele><time>2016-09-30T10:42:14Z</time></trkpt>
<trkpt lat="53.0155180000" lon="-4.0826330000"><ele>136</ele><time>2016-09-30T10:42:15Z</time></trkpt>
<trkpt lat="53.0155220000" lon="-4.0826260000"><ele>136</ele><time>2016-09-30T10:42:16Z</time></trkpt>
<trkpt lat="53.0155270000" lon="-4.0826200000"><ele>136</ele><time>2016-09-30T10:42:17Z</time></trkpt>
<trkpt lat="53.0155320000" lon="-4.0826140000"><ele>135</ele><time>2016-09-30T10:42:18Z</time></trkpt>
<trkpt lat="53.0155360000" lon="-4.0826070000"><ele>135</ele><time>2016-09-30T10:42:19Z</time></trkpt>
<trkpt lat="53.0155410000" lon="-4.0826010000"><ele>135</ele><time>2016-09-30T10:42:20Z</time></trkpt>
<trkpt lat="53.0155450000" lon="-4.0825950000"><ele>135</ele><time>2016-09-30T10:42:21Z</time></trkpt>
<trkpt lat="53.0155500000" lon="-4.0825890000"><ele>135</ele><time>2016-09-30T10:42:22Z</time></trkpt>
<trkpt lat="53.0155550000" lon="-4.0825830000"><ele>135</ele><time>2016-09-30T10:42:23Z</time></trkpt>
<trkpt lat="53.0155590000" lon="-4.0825780000"><ele>135</ele><time>2016-09-30T10:42:24Z</time></trkpt>
<trkpt lat="53.0155640000" lon="-4.0825720000"><ele>135</ele><time>2016-09-30T10:42:25Z</time></trkpt>
<trkpt lat="53.0155690000" lon="-4.0825670000"><ele>135</ele><time>2016-09-30T10:42:26Z</time></trkpt>
<trkpt lat="53.0155740000" lon="-4.0825620000"><ele>135</ele><time>2016-09-30T10:42:27Z</time></trkpt>
<trkpt lat="53.0156340000" lon="-4.0825000000"><ele>133</ele><time>2016-09-30T10:42:42Z</time></trkpt>
<trkpt lat="53.0157410000" lon="-4.0824190000"><ele>133</ele><time>2016-09-30T10:42:44Z</time></trkpt>
<trkpt lat="53.0157710000" lon="-4.0824210000"><ele>132</ele><time>2016-09-30T10:42:51Z</time></trkpt>
<trkpt lat="53.0158010000" lon="-4.0824190000"><ele>132</ele><time>2016-09-30T10:42:53Z</time></trkpt>
<trkpt lat="53.0158210000" lon="-4.0824140000"><ele>131</ele><time>2016-09-30T10:43:07Z</time></trkpt>
<trkpt lat="53.0159070000" lon="-4.0824050000"><ele>130</ele><time>2016-09-30T10:43:17Z</time></trkpt>
<trkpt lat="53.0159610000" lon="-4.0823920000"><ele>130</ele><time>2016-09-30T10:43:18Z</time></trkpt>
<trkpt lat="53.0159660000" lon="-4.0823880000"><ele>130</ele><time>2016-09-30T10:43:19Z</time></trkpt>
<trkpt lat="53.0159690000" lon="-4.0823830000"><ele>130</ele><time>2016-09-30T10:43:20Z</time></trkpt>
<trkpt lat="53.0159690000" lon="-4.0823830000"><ele>129</ele><time>2016-09-30T10:43:22Z</time></trkpt>
<trkpt lat="53.0159690000" lon="-4.0823830000"><ele>129</ele><time>2016-09-30T10:43:23Z</time></trkpt>
<trkpt lat="53.0159690000" lon="-4.0823830000"><ele>129</ele><time>2016-09-30T10:43:24Z</time></trkpt>
<trkpt lat="53.0159700000" lon="-4.0823830000"><ele>129</ele><time>2016-09-30T10:43:25Z</time></trkpt>
<trkpt lat="53.0159700000" lon="-4.0823820000"><ele>129</ele><time>2016-09-30T10:43:26Z</time></trkpt>
<trkpt lat="53.0159710000" lon="-4.0823810000"><ele>129</ele><time>2016-09-30T10:43:27Z</time></trkpt>
<trkpt lat="53.0160080000" lon="-4.0823310000"><ele>129</ele><time>2016-09-30T10:43:28Z</time></trkpt>
<trkpt lat="53.0160180000" lon="-4.0823250000"><ele>128</ele><time>2016-09-30T10:43:29Z</time></trkpt>
<trkpt lat="53.0160250000" lon="-4.0823230000"><ele>128</ele><time>2016-09-30T10:43:30Z</time></trkpt>
<trkpt lat="53.0160260000" lon="-4.0823230000"><ele>128</ele><time>2016-09-30T10:43:31Z</time></trkpt>
<trkpt lat="53.0160260000" lon="-4.0823230000"><ele>128</ele><time>2016-09-30T10:43:32Z</time></trkpt>
<trkpt lat="53.0160260000" lon="-4.0823230000"><ele>127</ele><time>2016-09-30T10:43:33Z</time></trkpt>
<trkpt lat="53.0160260000" lon="-4.0823220000"><ele>127</ele><time>2016-09-30T10:43:34Z</time></trkpt>
<trkpt lat="53.0160270000" lon="-4.0823220000"><ele>127</ele><time>2016-09-30T10:43:35Z</time></trkpt>
<trkpt lat="53.0160280000" lon="-4.0823210000"><ele>127</ele><time>2016-09-30T10:43:36Z</time></trkpt>
<trkpt lat="53.0160290000" lon="-4.0823210000"><ele>126</ele><time>2016-09-30T10:43:37Z</time></trkpt>
<trkpt lat="53.0160310000" lon="-4.0823190000"><ele>126</ele><time>2016-09-30T10:43:38Z</time></trkpt>
<trkpt lat="53.0160320000" lon="-4.0823180000"><ele>126</ele><time>2016-09-30T10:43:39Z</time></trkpt>
<trkpt lat="53.0160340000" lon="-4.0823160000"><ele>126</ele><time>2016-09-30T10:43:40Z</time></trkpt>
<trkpt lat="53.0160370000" lon="-4.0823140000"><ele>125</ele><time>2016-09-30T10:43:41Z</time></trkpt>
<trkpt lat="53.0160390000" lon="-4.0823110000"><ele>125</ele><time>2016-09-30T10:43:42Z</time></trkpt>
<trkpt lat="53.0160430000" lon="-4.0823090000"><ele>125</ele><time>2016-09-30T10:43:43Z</time></trkpt>
<trkpt lat="53.0160460000" lon="-4.0823060000"><ele>125</ele><time>2016-09-30T10:43:44Z</time></trkpt>
<trkpt lat="53.0160500000" lon="-4.0823020000"><ele>125</ele><time>2016-09-30T10:43:45Z</time></trkpt>
<trkpt lat="53.0160530000" lon="-4.0822980000"><ele>124</ele><time>2016-09-30T10:43:46Z</time></trkpt>
<trkpt lat="53.0160620000" lon="-4.0822900000"><ele>124</ele><time>2016-09-30T10:43:48Z</time></trkpt>
<trkpt lat="53.0160660000" lon="-4.0822850000"><ele>124</ele><time>2016-09-30T10:43:49Z</time></trkpt>
<trkpt lat="53.0160710000" lon="-4.0822800000"><ele>123</ele><time>2016-09-30T10:43:50Z</time></trkpt>
<trkpt lat="53.0160760000" lon="-4.0822740000"><ele>123</ele><time>2016-09-30T10:43:51Z</time></trkpt>
<trkpt lat="53.0160810000" lon="-4.0822670000"><ele>123</ele><time>2016-09-30T10:43:52Z</time></trkpt>
<trkpt lat="53.0160860000" lon="-4.0822610000"><ele>122</ele><time>2016-09-30T10:43:53Z</time></trkpt>
<trkpt lat="53.0160900000" lon="-4.0822540000"><ele>122</ele><time>2016-09-30T10:43:54Z</time></trkpt>
<trkpt lat="53.0160950000" lon="-4.0822460000"><ele>122</ele><time>2016-09-30T10:43:55Z</time></trkpt>
<trkpt lat="53.0161860000" lon="-4.0821110000"><ele>121</ele><time>2016-09-30T10:43:56Z</time></trkpt>
<trkpt lat="53.0161900000" lon="-4.0821050000"><ele>121</ele><time>2016-09-30T10:43:57Z</time></trkpt>
<trkpt lat="53.0161960000" lon="-4.0821000000"><ele>121</ele><time>2016-09-30T10:43:58Z</time></trkpt>
<trkpt lat="53.0161970000" lon="-4.0821000000"><ele>120</ele><time>2016-09-30T10:44:00Z</time></trkpt>
<trkpt lat="53.0161970000" lon="-4.0821000000"><ele>120</ele><time>2016-09-30T10:44:01Z</time></trkpt>
<trkpt lat="53.0161970000" lon="-4.0820990000"><ele>120</ele><time>2016-09-30T10:44:02Z</time></trkpt>
<trkpt lat="53.0161980000" lon="-4.0820990000"><ele>120</ele><time>2016-09-30T10:44:03Z</time></trkpt>
<trkpt lat="53.0161990000" lon="-4.0820980000"><ele>120</ele><time>2016-09-30T10:44:04Z</time></trkpt>
<trkpt lat="53.0162000000" lon="-4.0820970000"><ele>119</ele><time>2016-09-30T10:44:05Z</time></trkpt>
<trkpt lat="53.0162020000" lon="-4.0820960000"><ele>119</ele><time>2016-09-30T10:44:06Z</time></trkpt>
<trkpt lat="53.0162040000" lon="-4.0820940000"><ele>119</ele><time>2016-09-30T10:44:07Z</time></trkpt>
<trkpt lat="53.0162070000" lon="-4.0820930000"><ele>119</ele><time>2016-09-30T10:44:08Z</time></trkpt>
<trkpt lat="53.0162100000" lon="-4.0820920000"><ele>119</ele><time>2016-09-30T10:44:09Z</time></trkpt>
<trkpt lat="53.0162140000" lon="-4.0820910000"><ele>119</ele><time>2016-09-30T10:44:10Z</time></trkpt>
<trkpt lat="53.0162170000" lon="-4.0820900000"><ele>119</ele><time>2016-09-30T10:44:11Z</time></trkpt>
<trkpt lat="53.0162210000" lon="-4.0820900000"><ele>118</ele><time>2016-09-30T10:44:12Z</time></trkpt>
<trkpt lat="53.0162260000" lon="-4.0820900000"><ele>118</ele><time>2016-09-30T10:44:13Z</time></trkpt>
<trkpt lat="53.0162310000" lon="-4.0820900000"><ele>118</ele><time>2016-09-30T10:44:14Z</time></trkpt>
<trkpt lat="53.0162360000" lon="-4.0820910000"><ele>118</ele><time>2016-09-30T10:44:15Z</time></trkpt>
<trkpt lat="53.0162410000" lon="-4.0820920000"><ele>117</ele><time>2016-09-30T10:44:16Z</time></trkpt>
<trkpt lat="53.0162470000" lon="-4.0820940000"><ele>117</ele><time>2016-09-30T10:44:17Z</time></trkpt>
<trkpt lat="53.0162530000" lon="-4.0820960000"><ele>117</ele><time>2016-09-30T10:44:18Z</time></trkpt>
<trkpt lat="53.0162600000" lon="-4.0820980000"><ele>116</ele><time>2016-09-30T10:44:19Z</time></trkpt>
<trkpt lat="53.0162660000" lon="-4.0821010000"><ele>116</ele><time>2016-09-30T10:44:20Z</time></trkpt>
<trkpt lat="53.0162720000" lon="-4.0821050000"><ele>116</ele><time>2016-09-30T10:44:21Z</time></trkpt>
<trkpt lat="53.0162790000" lon="-4.0821090000"><ele>115</ele><time>2016-09-30T10:44:22Z</time></trkpt>
<trkpt lat="53.0162850000" lon="-4.0821130000"><ele>115</ele><time>2016-09-30T10:44:23Z</time></trkpt>
<trkpt lat="53.0162920000" lon="-4.0821180000"><ele>115</ele><time>2016-09-30T10:44:24Z</time></trkpt>
<trkpt lat="53.0162980000" lon="-4.0821220000"><ele>115</ele><time>2016-09-30T10:44:25Z</time></trkpt>
<trkpt lat="53.0163050000" lon="-4.0821260000"><ele>114</ele><time>2016-09-30T10:44:26Z</time></trkpt>
<trkpt lat="53.0163120000" lon="-4.0821310000"><ele>114</ele><time>2016-09-30T10:44:27Z</time></trkpt>
<trkpt lat="53.0163180000" lon="-4.0821360000"><ele>114</ele><time>2016-09-30T10:44:28Z</time></trkpt>
<trkpt lat="53.0163250000" lon="-4.0821410000"><ele>114</ele><time>2016-09-30T10:44:29Z</time></trkpt>
<trkpt lat="53.0163320000" lon="-4.0821470000"><ele>114</ele><time>2016-09-30T10:44:30Z</time></trkpt>
<trkpt lat="53.0163390000" lon="-4.0821530000"><ele>113</ele><time>2016-09-30T10:44:31Z</time></trkpt>
<trkpt lat="53.0163460000" lon="-4.0821590000"><ele>113</ele><time>2016-09-30T10:44:32Z</time></trkpt>
<trkpt lat="53.0163520000" lon="-4.0821660000"><ele>113</ele><time>2016-09-30T10:44:33Z</time></trkpt>
<trkpt lat="53.0163590000" lon="-4.0821720000"><ele>113</ele><time>2016-09-30T10:44:34Z</time></trkpt>
<trkpt lat="53.0163660000" lon="-4.0821790000"><ele>113</ele><time>2016-09-30T10:44:35Z</time></trkpt>
<trkpt lat="53.0163730000" lon="-4.0821850000"><ele>112</ele><time>2016-09-30T10:44:36Z</time></trkpt>
<trkpt lat="53.0163800000" lon="-4.0821910000"><ele>112</ele><time>2016-09-30T10:44:37Z</time></trkpt>
<trkpt lat="53.0163880000" lon="-4.0821960000"><ele>112</ele><time>2016-09-30T10:44:38Z</time></trkpt>
<trkpt lat="53.0163950000" lon="-4.0822020000"><ele>112</ele><time>2016-09-30T10:44:39Z</time></trkpt>
<trkpt lat="53.0165410000" lon="-4.0823020000"><ele>112</ele><time>2016-09-30T10:44:40Z</time></trkpt>
<trkpt lat="53.0165540000" lon="-4.0823030000"><ele>112</ele><time>2016-09-30T10:44:41Z</time></trkpt>
<trkpt lat="53.0165680000" lon="-4.0823050000"><ele>111</ele><time>2016-09-30T10:44:42Z</time></trkpt>
<trkpt lat="53.0165760000" lon="-4.0823070000"><ele>111</ele><time>2016-09-30T10:44:43Z</time></trkpt>
<trkpt lat="53.0165760000" lon="-4.0823070000"><ele>111</ele><time>2016-09-30T10:44:44Z</time></trkpt>
<trkpt lat="53.0165760000" lon="-4.0823070000"><ele>111</ele><time>2016-09-30T10:44:45Z</time></trkpt>
<trkpt lat="53.0165770000" lon="-4.0823070000"><ele>111</ele><time>2016-09-30T10:44:46Z</time></trkpt>
<trkpt lat="53.0165780000" lon="-4.0823070000"><ele>110</ele><time>2016-09-30T10:44:48Z</time></trkpt>
<trkpt lat="53.0165790000" lon="-4.0823070000"><ele>110</ele><time>2016-09-30T10:44:49Z</time></trkpt>
<trkpt lat="53.0165800000" lon="-4.0823070000"><ele>109</ele><time>2016-09-30T10:44:50Z</time></trkpt>
<trkpt lat="53.0165820000" lon="-4.0823070000"><ele>109</ele><time>2016-09-30T10:44:51Z</time></trkpt>
<trkpt lat="53.0165840000" lon="-4.0823060000"><ele>109</ele><time>2016-09-30T10:44:52Z</time></trkpt>
<trkpt lat="53.0165870000" lon="-4.0823060000"><ele>109</ele><time>2016-09-30T10:44:53Z</time></trkpt>
<trkpt lat="53.0165890000" lon="-4.0823050000"><ele>109</ele><time>2016-09-30T10:44:54Z</time></trkpt>
<trkpt lat="53.0165920000" lon="-4.0823040000"><ele>108</ele><time>2016-09-30T10:44:55Z</time></trkpt>
<trkpt lat="53.0165960000" lon="-4.0823020000"><ele>108</ele><time>2016-09-30T10:44:56Z</time></trkpt>
<trkpt lat="53.0165990000" lon="-4.0823000000"><ele>108</ele><time>2016-09-30T10:44:57Z</time></trkpt>
<trkpt lat="53.0166030000" lon="-4.0822970000"><ele>108</ele><time>2016-09-30T10:44:58Z</time></trkpt>
<trkpt lat="53.0166070000" lon="-4.0822950000"><ele>108</ele><time>2016-09-30T10:44:59Z</time></trkpt>
<trkpt lat="53.0166110000" lon="-4.0822910000"><ele>108</ele><time>2016-09-30T10:45:00Z</time></trkpt>
<trkpt lat="53.0166150000" lon="-4.0822880000"><ele>108</ele><time>2016-09-30T10:45:01Z</time></trkpt>
<trkpt lat="53.0166200000" lon="-4.0822840000"><ele>108</ele><time>2016-09-30T10:45:02Z</time></trkpt>
<trkpt lat="53.0166240000" lon="-4.0822800000"><ele>107</ele><time>2016-09-30T10:45:03Z</time></trkpt>
<trkpt lat="53.0166290000" lon="-4.0822760000"><ele>107</ele><time>2016-09-30T10:45:04Z</time></trkpt>
<trkpt lat="53.0166340000" lon="-4.0822710000"><ele>107</ele><time>2016-09-30T10:45:05Z</time></trkpt>
<trkpt lat="53.0166380000" lon="-4.0822660000"><ele>107</ele><time>2016-09-30T10:45:06Z</time></trkpt>
<trkpt lat="53.0166420000" lon="-4.0822610000"><ele>107</ele><time>2016-09-30T10:45:07Z</time></trkpt>
<trkpt lat="53.0166470000" lon="-4.0822560000"><ele>107</ele><time>2016-09-30T10:45:08Z</time></trkpt>
<trkpt lat="53.0166510000" lon="-4.0822500000"><ele>107</ele><time>2016-09-30T10:45:09Z</time></trkpt>
<trkpt lat="53.0166550000" lon="-4.0822450000"><ele>107</ele><time>2016-09-30T10:45:10Z</time></trkpt>
<trkpt lat="53.0166590000" lon="-4.0822390000"><ele>107</ele><time>2016-09-30T10:45:11Z</time></trkpt>
<trkpt lat="53.0166640000" lon="-4.0822330000"><ele>107</ele><time>2016-09-30T10:45:12Z</time></trkpt>
<trkpt lat="53.0166680000" lon="-4.0822270000"><ele>107</ele><time>2016-09-30T10:45:13Z</time></trkpt>
<trkpt lat="53.0166730000" lon="-4.0822200000"><ele>107</ele><time>2016-09-30T10:45:14Z</time></trkpt>
<trkpt lat="53.0166770000" lon="-4.0822140000"><ele>107</ele><time>2016-09-30T10:45:15Z</time></trkpt>
<trkpt lat="53.0166810000" lon="-4.0822070000"><ele>107</ele><time>2016-09-30T10:45:16Z</time></trkpt>
<trkpt lat="53.0166860000" lon="-4.0822010000"><ele>107</ele><time>2016-09-30T10:45:17Z</time></trkpt>
<trkpt lat="53.0166900000" lon="-4.0821940000"><ele>107</ele><time>2016-09-30T10:45:18Z</time></trkpt>
<trkpt lat="53.0166940000" lon="-4.0821870000"><ele>107</ele><time>2016-09-30T10:45:19Z</time></trkpt>
<trkpt lat="53.0166990000" lon="-4.0821800000"><ele>107</ele><time>2016-09-30T10:45:20Z</time></trkpt>
<trkpt lat="53.0167030000" lon="-4.0821720000"><ele>107</ele><time>2016-09-30T10:45:21Z</time></trkpt>
<trkpt lat="53.0167070000" lon="-4.0821650000"><ele>107</ele><time>2016-09-30T10:45:22Z</time></trkpt>
<trkpt lat="53.0167110000" lon="-4.0821570000"><ele>107</ele><time>2016-09-30T10:45:23Z</time></trkpt>
<trkpt lat="53.0167160000" lon="-4.0821490000"><ele>107</ele><time>2016-09-30T10:45:24Z</time></trkpt>
<trkpt lat="53.0167200000" lon="-4.0821400000"><ele>107</ele><time>2016-09-30T10:45:25Z</time></trkpt>
<trkpt lat="53.0167240000" lon="-4.0821310000"><ele>107</ele><time>2016-09-30T10:45:26Z</time></trkpt>
<trkpt lat="53.0167280000" lon="-4.0821210000"><ele>106</ele><time>2016-09-30T10:45:27Z</time></trkpt>
<trkpt lat="53.0168020000" lon="-4.0819460000"><ele>106</ele><time>2016-09-30T10:45:28Z</time></trkpt>
<trkpt lat="53.0168060000" lon="-4.0819310000"><ele>106</ele><time>2016-09-30T10:45:29Z</time></trkpt>
<trkpt lat="53.0168100000" lon="-4.0819200000"><ele>106</ele><time>2016-09-30T10:45:30Z</time></trkpt>
<trkpt lat="53.0168100000" lon="-4.0819190000"><ele>106</ele><time>2016-09-30T10:45:31Z</time></trkpt>
<trkpt lat="53.0168100000" lon="-4.0819190000"><ele>106</ele><time>2016-09-30T10:45:32Z</time></trkpt>
<trkpt lat="53.0168100000" lon="-4.0819190000"><ele>105</ele><time>2016-09-30T10:45:33Z</time></trkpt>
<trkpt lat="53.0168100000" lon="-4.0819180000"><ele>105</ele><time>2016-09-30T10:45:34Z</time></trkpt>
<trkpt lat="53.0168110000" lon="-4.0819170000"><ele>105</ele><time>2016-09-30T10:45:35Z</time></trkpt>
<trkpt lat="53.0168120000" lon="-4.0819150000"><ele>105</ele><time>2016-09-30T10:45:36Z</time></trkpt>
<trkpt lat="53.0168120000" lon="-4.0819130000"><ele>105</ele><time>2016-09-30T10:45:37Z</time></trkpt>
<trkpt lat="53.0168130000" lon="-4.0819100000"><ele>105</ele><time>2016-09-30T10:45:38Z</time></trkpt>
<trkpt lat="53.0168150000" lon="-4.0819070000"><ele>104</ele><time>2016-09-30T10:45:39Z</time></trkpt>
<trkpt lat="53.0168160000" lon="-4.0819040000"><ele>104</ele><time>2016-09-30T10:45:40Z</time></trkpt>
<trkpt lat="53.0168180000" lon="-4.0819000000"><ele>104</ele><time>2016-09-30T10:45:41Z</time></trkpt>
<trkpt lat="53.0168200000" lon="-4.0818950000"><ele>104</ele><time>2016-09-30T10:45:42Z</time></trkpt>
<trkpt lat="53.0168230000" lon="-4.0818900000"><ele>104</ele><time>2016-09-30T10:45:43Z</time></trkpt>
<trkpt lat="53.0168250000" lon="-4.0818850000"><ele>104</ele><time>2016-09-30T10:45:44Z</time></trkpt>
<trkpt lat="53.0168280000" lon="-4.0818790000"><ele>104</ele><time>2016-09-30T10:45:45Z</time></trkpt>
<trkpt lat="53.0168310000" lon="-4.0818720000"><ele>103</ele><time>2016-09-30T10:45:46Z</time></trkpt>
<trkpt lat="53.0168380000" lon="-4.0818580000"><ele>103</ele><time>2016-09-30T10:45:48Z</time></trkpt>
<trkpt lat="53.0168410000" lon="-4.0818510000"><ele>103</ele><time>2016-09-30T10:45:49Z</time></trkpt>
<trkpt lat="53.0168440000" lon="-4.0818450000"><ele>103</ele><time>2016-09-30T10:45:50Z</time></trkpt>
<trkpt lat="53.0168470000" lon="-4.0818380000"><ele>103</ele><time>2016-09-30T10:45:51Z</time></trkpt>
<trkpt lat="53.0168510000" lon="-4.0818300000"><ele>102</ele><time>2016-09-30T10:45:52Z</time></trkpt>
<trkpt lat="53.0168540000" lon="-4.0818220000"><ele>102</ele><time>2016-09-30T10:45:53Z</time></trkpt>
<trkpt lat="53.0168580000" lon="-4.0818140000"><ele>102</ele><time>2016-09-30T10:45:54Z</time></trkpt>
<trkpt lat="53.0168610000" lon="-4.0818060000"><ele>102</ele><time>2016-09-30T10:45:55Z</time></trkpt>
<trkpt lat="53.0168650000" lon="-4.0817980000"><ele>102</ele><time>2016-09-30T10:45:56Z</time></trkpt>
<trkpt lat="53.0168690000" lon="-4.0817890000"><ele>102</ele><time>2016-09-30T10:45:57Z</time></trkpt>
<trkpt lat="53.0168730000" lon="-4.0817810000"><ele>102</ele><time>2016-09-30T10:45:58Z</time></trkpt>
<trkpt lat="53.0168770000" lon="-4.0817730000"><ele>102</ele><time>2016-09-30T10:45:59Z</time></trkpt>
<trkpt lat="53.0168810000" lon="-4.0817650000"><ele>102</ele><time>2016-09-30T10:46:00Z</time></trkpt>
<trkpt lat="53.0168840000" lon="-4.0817570000"><ele>101</ele><time>2016-09-30T10:46:01Z</time></trkpt>
<trkpt lat="53.0168870000" lon="-4.0817500000"><ele>101</ele><time>2016-09-30T10:46:02Z</time></trkpt>
<trkpt lat="53.0168900000" lon="-4.0817430000"><ele>101</ele><time>2016-09-30T10:46:03Z</time></trkpt>
<trkpt lat="53.0168930000" lon="-4.0817370000"><ele>101</ele><time>2016-09-30T10:46:04Z</time></trkpt>
<trkpt lat="53.0168950000" lon="-4.0817310000"><ele>101</ele><time>2016-09-30T10:46:05Z</time></trkpt>
<trkpt lat="53.0168970000" lon="-4.0817250000"><ele>101</ele><time>2016-09-30T10:46:06Z</time></trkpt>
<trkpt lat="53.0169000000" lon="-4.0817200000"><ele>101</ele><time>2016-09-30T10:46:07Z</time></trkpt>
<trkpt lat="53.0169020000" lon="-4.0817140000"><ele>101</ele><time>2016-09-30T10:46:08Z</time></trkpt>
<trkpt lat="53.0169040000" lon="-4.0817070000"><ele>101</ele><time>2016-09-30T10:46:09Z</time></trkpt>
<trkpt lat="53.0169060000" lon="-4.0817010000"><ele>101</ele><time>2016-09-30T10:46:10Z</time></trkpt>
<trkpt lat="53.0169080000" lon="-4.0816940000"><ele>101</ele><time>2016-09-30T10:46:11Z</time></trkpt>
<trkpt lat="53.0169090000" lon="-4.0816870000"><ele>101</ele><time>2016-09-30T10:46:12Z</time></trkpt>
<trkpt lat="53.0169100000" lon="-4.0816810000"><ele>101</ele><time>2016-09-30T10:46:13Z</time></trkpt>
<trkpt lat="53.0169100000" lon="-4.0816740000"><ele>101</ele><time>2016-09-30T10:46:14Z</time></trkpt>
<trkpt lat="53.0169100000" lon="-4.0816680000"><ele>101</ele><time>2016-09-30T10:46:15Z</time></trkpt>
<trkpt lat="53.0169100000" lon="-4.0816620000"><ele>101</ele><time>2016-09-30T10:46:16Z</time></trkpt>
<trkpt lat="53.0169190000" lon="-4.0815960000"><ele>103</ele><time>2016-09-30T10:46:57Z</time></trkpt>
<trkpt lat="53.0169820000" lon="-4.0816300000"><ele>103</ele><time>2016-09-30T10:46:59Z</time></trkpt>
<trkpt lat="53.0170050000" lon="-4.0816440000"><ele>103</ele><time>2016-09-30T10:47:01Z</time></trkpt>
<trkpt lat="53.0170140000" lon="-4.0816480000"><ele>102</ele><time>2016-09-30T10:47:12Z</time></trkpt>
<trkpt lat="53.0170150000" lon="-4.0816480000"><ele>102</ele><time>2016-09-30T10:47:13Z</time></trkpt>
<trkpt lat="53.0170160000" lon="-4.0816480000"><ele>102</ele><time>2016-09-30T10:47:14Z</time></trkpt>
<trkpt lat="53.0170170000" lon="-4.0816490000"><ele>102</ele><time>2016-09-30T10:47:15Z</time></trkpt>
<trkpt lat="53.0170180000" lon="-4.0816490000"><ele>102</ele><time>2016-09-30T10:47:16Z</time></trkpt>
<trkpt lat="53.0170190000" lon="-4.0816500000"><ele>102</ele><time>2016-09-30T10:47:17Z</time></trkpt>
<trkpt lat="53.0170200000" lon="-4.0816500000"><ele>102</ele><time>2016-09-30T10:47:18Z</time></trkpt>
<trkpt lat="53.0170210000" lon="-4.0816510000"><ele>102</ele><time>2016-09-30T10:47:19Z</time></trkpt>
<trkpt lat="53.0170220000" lon="-4.0816530000"><ele>101</ele><time>2016-09-30T10:47:20Z</time></trkpt>
<trkpt lat="53.0170230000" lon="-4.0816540000"><ele>101</ele><time>2016-09-30T10:47:21Z</time></trkpt>
<trkpt lat="53.0170240000" lon="-4.0816550000"><ele>101</ele><time>2016-09-30T10:47:22Z</time></trkpt>
<trkpt lat="53.0170250000" lon="-4.0816560000"><ele>101</ele><time>2016-09-30T10:47:23Z</time></trkpt>
<trkpt lat="53.0170270000" lon="-4.0816560000"><ele>101</ele><time>2016-09-30T10:47:24Z</time></trkpt>
<trkpt lat="53.0170280000" lon="-4.0816570000"><ele>101</ele><time>2016-09-30T10:47:25Z</time></trkpt>
<trkpt lat="53.0170290000" lon="-4.0816580000"><ele>101</ele><time>2016-09-30T10:47:26Z</time></trkpt>
<trkpt lat="53.0170310000" lon="-4.0816590000"><ele>101</ele><time>2016-09-30T10:47:27Z</time></trkpt>
<trkpt lat="53.0170320000" lon="-4.0816600000"><ele>101</ele><time>2016-09-30T10:47:28Z</time></trkpt>
<trkpt lat="53.0170340000" lon="-4.0816600000"><ele>101</ele><time>2016-09-30T10:47:29Z</time></trkpt>
<trkpt lat="53.0170350000" lon="-4.0816610000"><ele>101</ele><time>2016-09-30T10:47:30Z</time></trkpt>
<trkpt lat="53.0170370000" lon="-4.0816620000"><ele>101</ele><time>2016-09-30T10:47:31Z</time></trkpt>
<trkpt lat="53.0170390000" lon="-4.0816620000"><ele>101</ele><time>2016-09-30T10:47:32Z</time></trkpt>
<trkpt lat="53.0170410000" lon="-4.0816630000"><ele>101</ele><time>2016-09-30T10:47:33Z</time></trkpt>
<trkpt lat="53.0170430000" lon="-4.0816630000"><ele>101</ele><time>2016-09-30T10:47:34Z</time></trkpt>
<trkpt lat="53.0170440000" lon="-4.0816630000"><ele>101</ele><time>2016-09-30T10:47:35Z</time></trkpt>
<trkpt lat="53.0170460000" lon="-4.0816630000"><ele>101</ele><time>2016-09-30T10:47:36Z</time></trkpt>
<trkpt lat="53.0170470000" lon="-4.0816640000"><ele>101</ele><time>2016-09-30T10:47:37Z</time></trkpt>
<trkpt lat="53.0170470000" lon="-4.0816640000"><ele>101</ele><time>2016-09-30T10:47:38Z</time></trkpt>
<trkpt lat="53.0170480000" lon="-4.0816630000"><ele>101</ele><time>2016-09-30T10:47:39Z</time></trkpt>
<trkpt lat="53.0170470000" lon="-4.0816620000"><ele>101</ele><time>2016-09-30T10:47:40Z</time></trkpt>
<trkpt lat="53.0170470000" lon="-4.0816600000"><ele>101</ele><time>2016-09-30T10:47:41Z</time></trkpt>
<trkpt lat="53.0170460000" lon="-4.0816570000"><ele>101</ele><time>2016-09-30T10:47:42Z</time></trkpt>
<trkpt lat="53.0170450000" lon="-4.0816540000"><ele>101</ele><time>2016-09-30T10:47:43Z</time></trkpt>
<trkpt lat="53.0170440000" lon="-4.0816500000"><ele>101</ele><time>2016-09-30T10:47:44Z</time></trkpt>
<trkpt lat="53.0170440000" lon="-4.0816470000"><ele>101</ele><time>2016-09-30T10:47:45Z</time></trkpt>
<trkpt lat="53.0170430000" lon="-4.0816430000"><ele>101</ele><time>2016-09-30T10:47:46Z</time></trkpt>
<trkpt lat="53.0170410000" lon="-4.0816370000"><ele>101</ele><time>2016-09-30T10:47:48Z</time></trkpt>
<trkpt lat="53.0170410000" lon="-4.0816340000"><ele>101</ele><time>2016-09-30T10:47:49Z</time></trkpt>
<trkpt lat="53.0170400000" lon="-4.0816310000"><ele>101</ele><time>2016-09-30T10:47:50Z</time></trkpt>
<trkpt lat="53.0170390000" lon="-4.0816280000"><ele>101</ele><time>2016-09-30T10:47:51Z</time></trkpt>
<trkpt lat="53.0170390000" lon="-4.0816260000"><ele>101</ele><time>2016-09-30T10:47:52Z</time></trkpt>
<trkpt lat="53.0170380000" lon="-4.0816240000"><ele>100</ele><time>2016-09-30T10:47:53Z</time></trkpt>
<trkpt lat="53.0170380000" lon="-4.0816230000"><ele>100</ele><time>2016-09-30T10:47:54Z</time></trkpt>
<trkpt lat="53.0170370000" lon="-4.0816230000"><ele>100</ele><time>2016-09-30T10:47:55Z</time></trkpt>
<trkpt lat="53.0170370000" lon="-4.0816230000"><ele>100</ele><time>2016-09-30T10:47:56Z</time></trkpt>
<trkpt lat="53.0170360000" lon="-4.0816240000"><ele>100</ele><time>2016-09-30T10:47:57Z</time></trkpt>
<trkpt lat="53.0170360000" lon="-4.0816250000"><ele>100</ele><time>2016-09-30T10:47:58Z</time></trkpt>
<trkpt lat="53.0170360000" lon="-4.0816270000"><ele>100</ele><time>2016-09-30T10:47:59Z</time></trkpt>
<trkpt lat="53.0170350000" lon="-4.0816280000"><ele>100</ele><time>2016-09-30T10:48:00Z</time></trkpt>
<trkpt lat="53.0170350000" lon="-4.0816290000"><ele>100</ele><time>2016-09-30T10:48:01Z</time></trkpt>
<trkpt lat="53.0170340000" lon="-4.0816310000"><ele>100</ele><time>2016-09-30T10:48:02Z</time></trkpt>
<trkpt lat="53.0170340000" lon="-4.0816320000"><ele>100</ele><time>2016-09-30T10:48:03Z</time></trkpt>
<trkpt lat="53.0170340000" lon="-4.0816330000"><ele>100</ele><time>2016-09-30T10:48:04Z</time></trkpt>
<trkpt lat="53.0170340000" lon="-4.0816350000"><ele>100</ele><time>2016-09-30T10:48:05Z</time></trkpt>
<trkpt lat="53.0170340000" lon="-4.0816360000"><ele>100</ele><time>2016-09-30T10:48:06Z</time></trkpt>
<trkpt lat="53.0170340000" lon="-4.0816360000"><ele>100</ele><time>2016-09-30T10:48:07Z</time></trkpt>
<trkpt lat="53.0170340000" lon="-4.0816370000"><ele>100</ele><time>2016-09-30T10:48:08Z</time></trkpt>
<trkpt lat="53.0170340000" lon="-4.0816370000"><ele>100</ele><time>2016-09-30T10:48:09Z</time></trkpt>
<trkpt lat="53.0170330000" lon="-4.0816370000"><ele>100</ele><time>2016-09-30T10:48:10Z</time></trkpt>
<trkpt lat="53.0170330000" lon="-4.0816370000"><ele>100</ele><time>2016-09-30T10:48:11Z</time></trkpt>
<trkpt lat="53.0170330000" lon="-4.0816370000"><ele>100</ele><time>2016-09-30T10:48:12Z</time></trkpt>
<trkpt lat="53.0170330000" lon="-4.0816370000"><ele>100</ele><time>2016-09-30T10:48:13Z</time></trkpt>
<trkpt lat="53.0170330000" lon="-4.0816370000"><ele>100</ele><time>2016-09-30T10:48:14Z</time></trkpt>
<trkpt lat="53.0170330000" lon="-4.0816370000"><ele>100</ele><time>2016-09-30T10:48:15Z</time></trkpt>
<trkpt lat="53.0170330000" lon="-4.0816370000"><ele>99</ele><time>2016-09-30T10:48:16Z</time></trkpt>
<trkpt lat="53.0170330000" lon="-4.0816360000"><ele>99</ele><time>2016-09-30T10:48:17Z</time></trkpt>
<trkpt lat="53.0170320000" lon="-4.0816360000"><ele>99</ele><time>2016-09-30T10:48:18Z</time></trkpt>
<trkpt lat="53.0170320000" lon="-4.0816350000"><ele>99</ele><time>2016-09-30T10:48:19Z</time></trkpt>
<trkpt lat="53.0170310000" lon="-4.0816340000"><ele>99</ele><time>2016-09-30T10:48:20Z</time></trkpt>
<trkpt lat="53.0170310000" lon="-4.0816340000"><ele>99</ele><time>2016-09-30T10:48:21Z</time></trkpt>
<trkpt lat="53.0170310000" lon="-4.0816330000"><ele>99</ele><time>2016-09-30T10:48:22Z</time></trkpt>
<trkpt lat="53.0170310000" lon="-4.0816330000"><ele>98</ele><time>2016-09-30T10:48:23Z</time></trkpt>
<trkpt lat="53.0170290000" lon="-4.0816260000"><ele>98</ele><time>2016-09-30T10:48:31Z</time></trkpt>
<trkpt lat="53.0170290000" lon="-4.0816250000"><ele>98</ele><time>2016-09-30T10:48:32Z</time></trkpt>
<trkpt lat="53.0170290000" lon="-4.0816250000"><ele>98</ele><time>2016-09-30T10:48:33Z</time></trkpt>
<trkpt lat="53.0170290000" lon="-4.0816250000"><ele>98</ele><time>2016-09-30T10:48:34Z</time></trkpt>
<trkpt lat="53.0170290000" lon="-4.0816240000"><ele>98</ele><time>2016-09-30T10:48:35Z</time></trkpt>
<trkpt lat="53.0170290000" lon="-4.0816250000"><ele>98</ele><time>2016-09-30T10:48:39Z</time></trkpt>
<trkpt lat="53.0170300000" lon="-4.0816250000"><ele>97</ele><time>2016-09-30T10:48:40Z</time></trkpt>
<trkpt lat="53.0170300000" lon="-4.0816260000"><ele>97</ele><time>2016-09-30T10:48:41Z</time></trkpt>
<trkpt lat="53.0170300000" lon="-4.0816270000"><ele>97</ele><time>2016-09-30T10:48:42Z</time></trkpt>
<trkpt lat="53.0170300000" lon="-4.0816270000"><ele>97</ele><time>2016-09-30T10:48:43Z</time></trkpt>
<trkpt lat="53.0170300000" lon="-4.0816280000"><ele>97</ele><time>2016-09-30T10:48:44Z</time></trkpt>
<trkpt lat="53.0170310000" lon="-4.0816280000"><ele>97</ele><time>2016-09-30T10:48:45Z</time></trkpt>
<trkpt lat="53.0170310000" lon="-4.0816290000"><ele>98</ele><time>2016-09-30T10:48:46Z</time></trkpt>
<trkpt lat="53.0170310000" lon="-4.0816300000"><ele>98</ele><time>2016-09-30T10:48:47Z</time></trkpt>
<trkpt lat="53.0170310000" lon="-4.0816310000"><ele>98</ele><time>2016-09-30T10:48:48Z</time></trkpt>
<trkpt lat="53.0170310000" lon="-4.0816320000"><ele>98</ele><time>2016-09-30T10:48:49Z</time></trkpt>
<trkpt lat="53.0170390000" lon="-4.0815900000"><ele>97</ele><time>2016-09-30T10:49:58Z</time></trkpt>
<trkpt lat="53.0170750000" lon="-4.0814500000"><ele>97</ele><time>2016-09-30T10:50:00Z</time></trkpt>
<trkpt lat="53.0170830000" lon="-4.0814180000"><ele>97</ele><time>2016-09-30T10:50:02Z</time></trkpt>
<trkpt lat="53.0170900000" lon="-4.0813770000"><ele>97</ele><time>2016-09-30T10:50:15Z</time></trkpt>
<trkpt lat="53.0171100000" lon="-4.0813000000"><ele>97</ele><time>2016-09-30T10:50:31Z</time></trkpt>
<trkpt lat="53.0171750000" lon="-4.0809920000"><ele>97</ele><time>2016-09-30T10:50:32Z</time></trkpt>
<trkpt lat="53.0171920000" lon="-4.0808890000"><ele>92</ele><time>2016-09-30T10:51:00Z</time></trkpt>
<trkpt lat="53.0172540000" lon="-4.0806280000"><ele>92</ele><time>2016-09-30T10:51:01Z</time></trkpt>
<trkpt lat="53.0172990000" lon="-4.0806020000"><ele>85</ele><time>2016-09-30T10:51:35Z</time></trkpt>
<trkpt lat="53.0173770000" lon="-4.0807660000"><ele>84</ele><time>2016-09-30T10:51:36Z</time></trkpt>
<trkpt lat="53.0173900000" lon="-4.0808560000"><ele>79</ele><time>2016-09-30T10:52:03Z</time></trkpt>
<trkpt lat="53.0174400000" lon="-4.0811570000"><ele>78</ele><time>2016-09-30T10:52:04Z</time></trkpt>
<trkpt lat="53.0174590000" lon="-4.0812230000"><ele>77</ele><time>2016-09-30T10:52:22Z</time></trkpt>
<trkpt lat="53.0175550000" lon="-4.0814000000"><ele>77</ele><time>2016-09-30T10:52:27Z</time></trkpt>
<trkpt lat="53.0175650000" lon="-4.0814480000"><ele>77</ele><time>2016-09-30T10:52:34Z</time></trkpt>
<trkpt lat="53.0175780000" lon="-4.0815510000"><ele>77</ele><time>2016-09-30T10:52:42Z</time></trkpt>
<trkpt lat="53.0176060000" lon="-4.0816480000"><ele>76</ele><time>2016-09-30T10:52:46Z</time></trkpt>
<trkpt lat="53.0176190000" lon="-4.0816790000"><ele>76</ele><time>2016-09-30T10:52:47Z</time></trkpt>
<trkpt lat="53.0176620000" lon="-4.0818340000"><ele>74</ele><time>2016-09-30T10:53:20Z</time></trkpt>
<trkpt lat="53.0177150000" lon="-4.0820200000"><ele>74</ele><time>2016-09-30T10:53:21Z</time></trkpt>
<trkpt lat="53.0177420000" lon="-4.0820930000"><ele>71</ele><time>2016-09-30T10:53:41Z</time></trkpt>
<trkpt lat="53.0178180000" lon="-4.0822810000"><ele>71</ele><time>2016-09-30T10:53:45Z</time></trkpt>
<trkpt lat="53.0178560000" lon="-4.0822920000"><ele>69</ele><time>2016-09-30T10:53:50Z</time></trkpt>
<trkpt lat="53.0178870000" lon="-4.0822820000"><ele>69</ele><time>2016-09-30T10:53:52Z</time></trkpt>
<trkpt lat="53.0179160000" lon="-4.0822780000"><ele>66</ele><time>2016-09-30T10:54:01Z</time></trkpt>
<trkpt lat="53.0180260000" lon="-4.0822610000"><ele>65</ele><time>2016-09-30T10:54:03Z</time></trkpt>
<trkpt lat="53.0180550000" lon="-4.0822490000"><ele>64</ele><time>2016-09-30T10:54:05Z</time></trkpt>
<trkpt lat="53.0180810000" lon="-4.0822380000"><ele>60</ele><time>2016-09-30T10:54:15Z</time></trkpt>
<trkpt lat="53.0181040000" lon="-4.0822330000"><ele>59</ele><time>2016-09-30T10:54:22Z</time></trkpt>
<trkpt lat="53.0182620000" lon="-4.0821850000"><ele>59</ele><time>2016-09-30T10:54:24Z</time></trkpt>
<trkpt lat="53.0182920000" lon="-4.0821740000"><ele>58</ele><time>2016-09-30T10:54:27Z</time></trkpt>
<trkpt lat="53.0183170000" lon="-4.0821670000"><ele>59</ele><time>2016-09-30T10:54:37Z</time></trkpt>
<trkpt lat="53.0183880000" lon="-4.0821690000"><ele>59</ele><time>2016-09-30T10:54:39Z</time></trkpt>
<trkpt lat="53.0184170000" lon="-4.0821630000"><ele>59</ele><time>2016-09-30T10:54:41Z</time></trkpt>
<trkpt lat="53.0184430000" lon="-4.0821530000"><ele>59</ele><time>2016-09-30T10:54:43Z</time></trkpt>
<trkpt lat="53.0184660000" lon="-4.0821370000"><ele>61</ele><time>2016-09-30T10:54:59Z</time></trkpt>
<trkpt lat="53.0185220000" lon="-4.0820670000"><ele>61</ele><time>2016-09-30T10:55:01Z</time></trkpt>
<trkpt lat="53.0185470000" lon="-4.0820420000"><ele>61</ele><time>2016-09-30T10:55:04Z</time></trkpt>
<trkpt lat="53.0185770000" lon="-4.0820210000"><ele>61</ele><time>2016-09-30T10:55:07Z</time></trkpt>
<trkpt lat="53.0186010000" lon="-4.0820090000"><ele>61</ele><time>2016-09-30T10:55:09Z</time></trkpt>
<trkpt lat="53.0186780000" lon="-4.0819610000"><ele>60</ele><time>2016-09-30T10:55:16Z</time></trkpt>
<trkpt lat="53.0187020000" lon="-4.0819580000"><ele>60</ele><time>2016-09-30T10:55:18Z</time></trkpt>
<trkpt lat="53.0187170000" lon="-4.0819640000"><ele>60</ele><time>2016-09-30T10:55:21Z</time></trkpt>
<trkpt lat="53.0187170000" lon="-4.0819640000"><ele>60</ele><time>2016-09-30T10:55:22Z</time></trkpt>
<trkpt lat="53.0187170000" lon="-4.0819640000"><ele>60</ele><time>2016-09-30T10:55:23Z</time></trkpt>
<trkpt lat="53.0187170000" lon="-4.0819650000"><ele>60</ele><time>2016-09-30T10:55:24Z</time></trkpt>
<trkpt lat="53.0187180000" lon="-4.0819650000"><ele>60</ele><time>2016-09-30T10:55:25Z</time></trkpt>
<trkpt lat="53.0187180000" lon="-4.0819650000"><ele>60</ele><time>2016-09-30T10:55:26Z</time></trkpt>
<trkpt lat="53.0187190000" lon="-4.0819650000"><ele>60</ele><time>2016-09-30T10:55:27Z</time></trkpt>
<trkpt lat="53.0187210000" lon="-4.0819660000"><ele>60</ele><time>2016-09-30T10:55:28Z</time></trkpt>
<trkpt lat="53.0187220000" lon="-4.0819670000"><ele>60</ele><time>2016-09-30T10:55:29Z</time></trkpt>
<trkpt lat="53.0187230000" lon="-4.0819670000"><ele>60</ele><time>2016-09-30T10:55:30Z</time></trkpt>
<trkpt lat="53.0187240000" lon="-4.0819670000"><ele>59</ele><time>2016-09-30T10:55:31Z</time></trkpt>
<trkpt lat="53.0187250000" lon="-4.0819680000"><ele>59</ele><time>2016-09-30T10:55:32Z</time></trkpt>
<trkpt lat="53.0187270000" lon="-4.0819680000"><ele>59</ele><time>2016-09-30T10:55:33Z</time></trkpt>
<trkpt lat="53.0187280000" lon="-4.0819680000"><ele>59</ele><time>2016-09-30T10:55:34Z</time></trkpt>
<trkpt lat="53.0187290000" lon="-4.0819690000"><ele>59</ele><time>2016-09-30T10:55:35Z</time></trkpt>
<trkpt lat="53.0187300000" lon="-4.0819690000"><ele>59</ele><time>2016-09-30T10:55:36Z</time></trkpt>
<trkpt lat="53.0187310000" lon="-4.0819690000"><ele>59</ele><time>2016-09-30T10:55:37Z</time></trkpt>
<trkpt lat="53.0187320000" lon="-4.0819690000"><ele>59</ele><time>2016-09-30T10:55:38Z</time></trkpt>
<trkpt lat="53.0187340000" lon="-4.0819690000"><ele>58</ele><time>2016-09-30T10:55:39Z</time></trkpt>
<trkpt lat="53.0187360000" lon="-4.0819690000"><ele>58</ele><time>2016-09-30T10:55:40Z</time></trkpt>
<trkpt lat="53.0187390000" lon="-4.0819700000"><ele>58</ele><time>2016-09-30T10:55:41Z</time></trkpt>
<trkpt lat="53.0187420000" lon="-4.0819710000"><ele>58</ele><time>2016-09-30T10:55:42Z</time></trkpt>
<trkpt lat="53.0187450000" lon="-4.0819720000"><ele>58</ele><time>2016-09-30T10:55:43Z</time></trkpt>
<trkpt lat="53.0187480000" lon="-4.0819740000"><ele>58</ele><time>2016-09-30T10:55:44Z</time></trkpt>
<trkpt lat="53.0187520000" lon="-4.0819760000"><ele>58</ele><time>2016-09-30T10:55:45Z</time></trkpt>
<trkpt lat="53.0187560000" lon="-4.0819780000"><ele>58</ele><time>2016-09-30T10:55:46Z</time></trkpt>
<trkpt lat="53.0187610000" lon="-4.0819800000"><ele>58</ele><time>2016-09-30T10:55:47Z</time></trkpt>
<trkpt lat="53.0187660000" lon="-4.0819830000"><ele>58</ele><time>2016-09-30T10:55:48Z</time></trkpt>
<trkpt lat="53.0187710000" lon="-4.0819860000"><ele>58</ele><time>2016-09-30T10:55:49Z</time></trkpt>
<trkpt lat="53.0187760000" lon="-4.0819890000"><ele>58</ele><time>2016-09-30T10:55:50Z</time></trkpt>
<trkpt lat="53.0187820000" lon="-4.0819920000"><ele>58</ele><time>2016-09-30T10:55:51Z</time></trkpt>
<trkpt lat="53.0187880000" lon="-4.0819960000"><ele>58</ele><time>2016-09-30T10:55:52Z</time></trkpt>
<trkpt lat="53.0187940000" lon="-4.0820000000"><ele>58</ele><time>2016-09-30T10:55:53Z</time></trkpt>
<trkpt lat="53.0188000000" lon="-4.0820050000"><ele>58</ele><time>2016-09-30T10:55:54Z</time></trkpt>
<trkpt lat="53.0189250000" lon="-4.0820940000"><ele>57</ele><time>2016-09-30T10:55:55Z</time></trkpt>
<trkpt lat="53.0189350000" lon="-4.0821020000"><ele>57</ele><time>2016-09-30T10:55:56Z</time></trkpt>
<trkpt lat="53.0189450000" lon="-4.0821070000"><ele>57</ele><time>2016-09-30T10:55:57Z</time></trkpt>
<trkpt lat="53.0189570000" lon="-4.0821150000"><ele>57</ele><time>2016-09-30T10:55:58Z</time></trkpt>
<trkpt lat="53.0189690000" lon="-4.0821200000"><ele>57</ele><time>2016-09-30T10:55:59Z</time></trkpt>
<trkpt lat="53.0189800000" lon="-4.0821260000"><ele>57</ele><time>2016-09-30T10:56:00Z</time></trkpt>
<trkpt lat="53.0189920000" lon="-4.0821340000"><ele>57</ele><time>2016-09-30T10:56:01Z</time></trkpt>
<trkpt lat="53.0190040000" lon="-4.0821420000"><ele>57</ele><time>2016-09-30T10:56:02Z</time></trkpt>
<trkpt lat="53.0190170000" lon="-4.0821480000"><ele>57</ele><time>2016-09-30T10:56:03Z</time></trkpt>
<trkpt lat="53.0190290000" lon="-4.0821560000"><ele>57</ele><time>2016-09-30T10:56:04Z</time></trkpt>
<trkpt lat="53.0190420000" lon="-4.0821620000"><ele>57</ele><time>2016-09-30T10:56:05Z</time></trkpt>
<trkpt lat="53.0190650000" lon="-4.0821740000"><ele>57</ele><time>2016-09-30T10:56:07Z</time></trkpt>
<trkpt lat="53.0190770000" lon="-4.0821770000"><ele>57</ele><time>2016-09-30T10:56:08Z</time></trkpt>
<trkpt lat="53.0190910000" lon="-4.0821820000"><ele>57</ele><time>2016-09-30T10:56:09Z</time></trkpt>
<trkpt lat="53.0191040000" lon="-4.0821870000"><ele>57</ele><time>2016-09-30T10:56:10Z</time></trkpt>
<trkpt lat="53.0191160000" lon="-4.0821940000"><ele>57</ele><time>2016-09-30T10:56:11Z</time></trkpt>
<trkpt lat="53.0191250000" lon="-4.0821990000"><ele>57</ele><time>2016-09-30T10:56:12Z</time></trkpt>
<trkpt lat="53.0191250000" lon="-4.0821990000"><ele>57</ele><time>2016-09-30T10:56:14Z</time></trkpt>
<trkpt lat="53.0191250000" lon="-4.0821990000"><ele>57</ele><time>2016-09-30T10:56:15Z</time></trkpt>
<trkpt lat="53.0191260000" lon="-4.0821990000"><ele>57</ele><time>2016-09-30T10:56:16Z</time></trkpt>
<trkpt lat="53.0191260000" lon="-4.0822000000"><ele>57</ele><time>2016-09-30T10:56:17Z</time></trkpt>
<trkpt lat="53.0191260000" lon="-4.0822000000"><ele>57</ele><time>2016-09-30T10:56:18Z</time></trkpt>
<trkpt lat="53.0191290000" lon="-4.0822020000"><ele>58</ele><time>2016-09-30T10:56:21Z</time></trkpt>
<trkpt lat="53.0191810000" lon="-4.0822340000"><ele>58</ele><time>2016-09-30T10:56:22Z</time></trkpt>
<trkpt lat="53.0191970000" lon="-4.0822390000"><ele>58</ele><time>2016-09-30T10:56:23Z</time></trkpt>
<trkpt lat="53.0192070000" lon="-4.0822430000"><ele>58</ele><time>2016-09-30T10:56:24Z</time></trkpt>
<trkpt lat="53.0192200000" lon="-4.0822480000"><ele>58</ele><time>2016-09-30T10:56:25Z</time></trkpt>
<trkpt lat="53.0192330000" lon="-4.0822530000"><ele>58</ele><time>2016-09-30T10:56:26Z</time></trkpt>
<trkpt lat="53.0192450000" lon="-4.0822600000"><ele>58</ele><time>2016-09-30T10:56:27Z</time></trkpt>
<trkpt lat="53.0192560000" lon="-4.0822660000"><ele>58</ele><time>2016-09-30T10:56:28Z</time></trkpt>
<trkpt lat="53.0192670000" lon="-4.0822720000"><ele>58</ele><time>2016-09-30T10:56:29Z</time></trkpt>
<trkpt lat="53.0192760000" lon="-4.0822770000"><ele>58</ele><time>2016-09-30T10:56:30Z</time></trkpt>
<trkpt lat="53.0192760000" lon="-4.0822770000"><ele>58</ele><time>2016-09-30T10:56:31Z</time></trkpt>
<trkpt lat="53.0192760000" lon="-4.0822780000"><ele>57</ele><time>2016-09-30T10:56:32Z</time></trkpt>
<trkpt lat="53.0192770000" lon="-4.0822780000"><ele>57</ele><time>2016-09-30T10:56:33Z</time></trkpt>
<trkpt lat="53.0193680000" lon="-4.0823030000"><ele>57</ele><time>2016-09-30T10:56:38Z</time></trkpt>
<trkpt lat="53.0193970000" lon="-4.0822970000"><ele>57</ele><time>2016-09-30T10:56:40Z</time></trkpt>
<trkpt lat="53.0194240000" lon="-4.0822910000"><ele>57</ele><time>2016-09-30T10:56:42Z</time></trkpt>
<trkpt lat="53.0194470000" lon="-4.0822740000"><ele>57</ele><time>2016-09-30T10:56:44Z</time></trkpt>
<trkpt lat="53.0194650000" lon="-4.0822550000"><ele>58</ele><time>2016-09-30T10:56:46Z</time></trkpt>
<trkpt lat="53.0194950000" lon="-4.0821700000"><ele>58</ele><time>2016-09-30T10:56:52Z</time></trkpt>
<trkpt lat="53.0194930000" lon="-4.0821260000"><ele>58</ele><time>2016-09-30T10:56:56Z</time></trkpt>
<trkpt lat="53.0194920000" lon="-4.0820730000"><ele>58</ele><time>2016-09-30T10:56:58Z</time></trkpt>
<trkpt lat="53.0194980000" lon="-4.0820300000"><ele>56</ele><time>2016-09-30T10:57:10Z</time></trkpt>
<trkpt lat="53.0195300000" lon="-4.0818600000"><ele>56</ele><time>2016-09-30T10:57:14Z</time></trkpt>
<trkpt lat="53.0195360000" lon="-4.0817970000"><ele>56</ele><time>2016-09-30T10:57:15Z</time></trkpt>
<trkpt lat="53.0195470000" lon="-4.0817370000"><ele>56</ele><time>2016-09-30T10:57:18Z</time></trkpt>
<trkpt lat="53.0195620000" lon="-4.0816330000"><ele>56</ele><time>2016-09-30T10:57:36Z</time></trkpt>
<trkpt lat="53.0195860000" lon="-4.0813920000"><ele>56</ele><time>2016-09-30T10:57:38Z</time></trkpt>
<trkpt lat="53.0195940000" lon="-4.0813470000"><ele>56</ele><time>2016-09-30T10:57:40Z</time></trkpt>
<trkpt lat="53.0195990000" lon="-4.0813110000"><ele>56</ele><time>2016-09-30T10:57:49Z</time></trkpt>
<trkpt lat="53.0196050000" lon="-4.0812750000"><ele>56</ele><time>2016-09-30T10:57:54Z</time></trkpt>
<trkpt lat="53.0196060000" lon="-4.0812660000"><ele>57</ele><time>2016-09-30T10:57:55Z</time></trkpt>
<trkpt lat="53.0196420000" lon="-4.0810060000"><ele>57</ele><time>2016-09-30T10:57:56Z</time></trkpt>
<trkpt lat="53.0196420000" lon="-4.0809850000"><ele>57</ele><time>2016-09-30T10:57:57Z</time></trkpt>
<trkpt lat="53.0196430000" lon="-4.0809630000"><ele>57</ele><time>2016-09-30T10:57:58Z</time></trkpt>
<trkpt lat="53.0196440000" lon="-4.0809380000"><ele>57</ele><time>2016-09-30T10:57:59Z</time></trkpt>
<trkpt lat="53.0196410000" lon="-4.0809150000"><ele>57</ele><time>2016-09-30T10:58:00Z</time></trkpt>
<trkpt lat="53.0196430000" lon="-4.0808960000"><ele>57</ele><time>2016-09-30T10:58:01Z</time></trkpt>
<trkpt lat="53.0196490000" lon="-4.0808800000"><ele>57</ele><time>2016-09-30T10:58:02Z</time></trkpt>
<trkpt lat="53.0196490000" lon="-4.0808800000"><ele>57</ele><time>2016-09-30T10:58:03Z</time></trkpt>
<trkpt lat="53.0196490000" lon="-4.0808800000"><ele>57</ele><time>2016-09-30T10:58:04Z</time></trkpt>
<trkpt lat="53.0196490000" lon="-4.0808790000"><ele>57</ele><time>2016-09-30T10:58:05Z</time></trkpt>
<trkpt lat="53.0196490000" lon="-4.0808760000"><ele>57</ele><time>2016-09-30T10:58:07Z</time></trkpt>
<trkpt lat="53.0196720000" lon="-4.0807590000"><ele>57</ele><time>2016-09-30T10:58:08Z</time></trkpt>
<trkpt lat="53.0196740000" lon="-4.0807390000"><ele>57</ele><time>2016-09-30T10:58:09Z</time></trkpt>
<trkpt lat="53.0196740000" lon="-4.0807150000"><ele>57</ele><time>2016-09-30T10:58:10Z</time></trkpt>
<trkpt lat="53.0196720000" lon="-4.0806920000"><ele>57</ele><time>2016-09-30T10:58:11Z</time></trkpt>
<trkpt lat="53.0196740000" lon="-4.0806710000"><ele>57</ele><time>2016-09-30T10:58:12Z</time></trkpt>
<trkpt lat="53.0196760000" lon="-4.0806520000"><ele>57</ele><time>2016-09-30T10:58:13Z</time></trkpt>
<trkpt lat="53.0196780000" lon="-4.0806350000"><ele>57</ele><time>2016-09-30T10:58:14Z</time></trkpt>
<trkpt lat="53.0196770000" lon="-4.0806140000"><ele>57</ele><time>2016-09-30T10:58:15Z</time></trkpt>
<trkpt lat="53.0196780000" lon="-4.0805930000"><ele>57</ele><time>2016-09-30T10:58:16Z</time></trkpt>
<trkpt lat="53.0196850000" lon="-4.0805760000"><ele>56</ele><time>2016-09-30T10:58:17Z</time></trkpt>
<trkpt lat="53.0196900000" lon="-4.0805570000"><ele>56</ele><time>2016-09-30T10:58:18Z</time></trkpt>
<trkpt lat="53.0196920000" lon="-4.0805370000"><ele>56</ele><time>2016-09-30T10:58:19Z</time></trkpt>
<trkpt lat="53.0196950000" lon="-4.0805200000"><ele>56</ele><time>2016-09-30T10:58:20Z</time></trkpt>
<trkpt lat="53.0196960000" lon="-4.0805050000"><ele>56</ele><time>2016-09-30T10:58:21Z</time></trkpt>
<trkpt lat="53.0197020000" lon="-4.0804870000"><ele>56</ele><time>2016-09-30T10:58:22Z</time></trkpt>
<trkpt lat="53.0197030000" lon="-4.0804670000"><ele>56</ele><time>2016-09-30T10:58:23Z</time></trkpt>
<trkpt lat="53.0197020000" lon="-4.0804460000"><ele>56</ele><time>2016-09-30T10:58:24Z</time></trkpt>
<trkpt lat="53.0197040000" lon="-4.0804240000"><ele>56</ele><time>2016-09-30T10:58:25Z</time></trkpt>
<trkpt lat="53.0197070000" lon="-4.0804050000"><ele>56</ele><time>2016-09-30T10:58:26Z</time></trkpt>
<trkpt lat="53.0197100000" lon="-4.0803860000"><ele>56</ele><time>2016-09-30T10:58:27Z</time></trkpt>
<trkpt lat="53.0197130000" lon="-4.0803690000"><ele>56</ele><time>2016-09-30T10:58:28Z</time></trkpt>
<trkpt lat="53.0197160000" lon="-4.0803510000"><ele>56</ele><time>2016-09-30T10:58:29Z</time></trkpt>
<trkpt lat="53.0197200000" lon="-4.0803310000"><ele>56</ele><time>2016-09-30T10:58:30Z</time></trkpt>
<trkpt lat="53.0197200000" lon="-4.0803120000"><ele>56</ele><time>2016-09-30T10:58:31Z</time></trkpt>
<trkpt lat="53.0197200000" lon="-4.0802940000"><ele>56</ele><time>2016-09-30T10:58:32Z</time></trkpt>
<trkpt lat="53.0197200000" lon="-4.0802710000"><ele>56</ele><time>2016-09-30T10:58:33Z</time></trkpt>
<trkpt lat="53.0197170000" lon="-4.0802500000"><ele>56</ele><time>2016-09-30T10:58:34Z</time></trkpt>
<trkpt lat="53.0197130000" lon="-4.0802270000"><ele>56</ele><time>2016-09-30T10:58:35Z</time></trkpt>
<trkpt lat="53.0197120000" lon="-4.0802050000"><ele>56</ele><time>2016-09-30T10:58:36Z</time></trkpt>
<trkpt lat="53.0197100000" lon="-4.0801820000"><ele>56</ele><time>2016-09-30T10:58:37Z</time></trkpt>
<trkpt lat="53.0197060000" lon="-4.0801450000"><ele>55</ele><time>2016-09-30T10:58:46Z</time></trkpt>
<trkpt lat="53.0197030000" lon="-4.0801100000"><ele>55</ele><time>2016-09-30T10:58:51Z</time></trkpt>
<trkpt lat="53.0196690000" lon="-4.0798420000"><ele>54</ele><time>2016-09-30T10:58:53Z</time></trkpt>
<trkpt lat="53.0196600000" lon="-4.0797970000"><ele>54</ele><time>2016-09-30T10:58:55Z</time></trkpt>
<trkpt lat="53.0196810000" lon="-4.0796830000"><ele>54</ele><time>2016-09-30T10:59:25Z</time></trkpt>
<trkpt lat="53.0196930000" lon="-4.0795890000"><ele>53</ele><time>2016-09-30T10:59:26Z</time></trkpt>
<trkpt lat="53.0196920000" lon="-4.0795840000"><ele>53</ele><time>2016-09-30T10:59:27Z</time></trkpt>
<trkpt lat="53.0196910000" lon="-4.0795800000"><ele>53</ele><time>2016-09-30T10:59:28Z</time></trkpt>
<trkpt lat="53.0196910000" lon="-4.0795800000"><ele>52</ele><time>2016-09-30T10:59:31Z</time></trkpt>
<trkpt lat="53.0196910000" lon="-4.0795800000"><ele>52</ele><time>2016-09-30T10:59:32Z</time></trkpt>
<trkpt lat="53.0196910000" lon="-4.0795790000"><ele>52</ele><time>2016-09-30T10:59:33Z</time></trkpt>
<trkpt lat="53.0196920000" lon="-4.0795780000"><ele>51</ele><time>2016-09-30T10:59:34Z</time></trkpt>
<trkpt lat="53.0196920000" lon="-4.0795760000"><ele>51</ele><time>2016-09-30T10:59:35Z</time></trkpt>
<trkpt lat="53.0196930000" lon="-4.0795740000"><ele>51</ele><time>2016-09-30T10:59:36Z</time></trkpt>
<trkpt lat="53.0196930000" lon="-4.0795710000"><ele>51</ele><time>2016-09-30T10:59:37Z</time></trkpt>
<trkpt lat="53.0196940000" lon="-4.0795680000"><ele>51</ele><time>2016-09-30T10:59:38Z</time></trkpt>
<trkpt lat="53.0196950000" lon="-4.0795630000"><ele>51</ele><time>2016-09-30T10:59:39Z</time></trkpt>
<trkpt lat="53.0196960000" lon="-4.0795580000"><ele>51</ele><time>2016-09-30T10:59:40Z</time></trkpt>
<trkpt lat="53.0196970000" lon="-4.0795520000"><ele>51</ele><time>2016-09-30T10:59:41Z</time></trkpt>
<trkpt lat="53.0196980000" lon="-4.0795450000"><ele>51</ele><time>2016-09-30T10:59:42Z</time></trkpt>
<trkpt lat="53.0196990000" lon="-4.0795370000"><ele>51</ele><time>2016-09-30T10:59:43Z</time></trkpt>
<trkpt lat="53.0197000000" lon="-4.0795290000"><ele>51</ele><time>2016-09-30T10:59:44Z</time></trkpt>
<trkpt lat="53.0197010000" lon="-4.0795190000"><ele>51</ele><time>2016-09-30T10:59:45Z</time></trkpt>
<trkpt lat="53.0197200000" lon="-4.0792960000"><ele>51</ele><time>2016-09-30T10:59:46Z</time></trkpt>
<trkpt lat="53.0197200000" lon="-4.0792730000"><ele>51</ele><time>2016-09-30T10:59:47Z</time></trkpt>
<trkpt lat="53.0197220000" lon="-4.0792530000"><ele>51</ele><time>2016-09-30T10:59:48Z</time></trkpt>
<trkpt lat="53.0197240000" lon="-4.0792340000"><ele>51</ele><time>2016-09-30T10:59:49Z</time></trkpt>
<trkpt lat="53.0197270000" lon="-4.0792150000"><ele>51</ele><time>2016-09-30T10:59:50Z</time></trkpt>
<trkpt lat="53.0197300000" lon="-4.0791950000"><ele>51</ele><time>2016-09-30T10:59:51Z</time></trkpt>
<trkpt lat="53.0197340000" lon="-4.0791740000"><ele>51</ele><time>2016-09-30T10:59:52Z</time></trkpt>
<trkpt lat="53.0197470000" lon="-4.0791340000"><ele>52</ele><time>2016-09-30T10:59:54Z</time></trkpt>
<trkpt lat="53.0197570000" lon="-4.0790970000"><ele>52</ele><time>2016-09-30T10:59:56Z</time></trkpt>
<trkpt lat="53.0197750000" lon="-4.0790600000"><ele>52</ele><time>2016-09-30T10:59:58Z</time></trkpt>
<trkpt lat="53.0197900000" lon="-4.0790270000"><ele>52</ele><time>2016-09-30T11:00:00Z</time></trkpt>
<trkpt lat="53.0198100000" lon="-4.0789970000"><ele>53</ele><time>2016-09-30T11:00:02Z</time></trkpt>
<trkpt lat="53.0198760000" lon="-4.0788550000"><ele>55</ele><time>2016-09-30T11:00:10Z</time></trkpt>
<trkpt lat="53.0198810000" lon="-4.0787690000"><ele>56</ele><time>2016-09-30T11:00:14Z</time></trkpt>
<trkpt lat="53.0198790000" lon="-4.0787070000"><ele>56</ele><time>2016-09-30T11:00:17Z</time></trkpt>
<trkpt lat="53.0198700000" lon="-4.0786410000"><ele>56</ele><time>2016-09-30T11:00:20Z</time></trkpt>
<trkpt lat="53.0198510000" lon="-4.0785770000"><ele>56</ele><time>2016-09-30T11:00:23Z</time></trkpt>
<trkpt lat="53.0198340000" lon="-4.0785320000"><ele>55</ele><time>2016-09-30T11:00:25Z</time></trkpt>
<trkpt lat="53.0198250000" lon="-4.0784870000"><ele>55</ele><time>2016-09-30T11:00:27Z</time></trkpt>
<trkpt lat="53.0198260000" lon="-4.0784320000"><ele>54</ele><time>2016-09-30T11:00:30Z</time></trkpt>
<trkpt lat="53.0198310000" lon="-4.0783740000"><ele>54</ele><time>2016-09-30T11:00:33Z</time></trkpt>
<trkpt lat="53.0198450000" lon="-4.0783220000"><ele>53</ele><time>2016-09-30T11:00:36Z</time></trkpt>
<trkpt lat="53.0198700000" lon="-4.0782750000"><ele>53</ele><time>2016-09-30T11:00:39Z</time></trkpt>
<trkpt lat="53.0198910000" lon="-4.0782230000"><ele>53</ele><time>2016-09-30T11:00:42Z</time></trkpt>
<trkpt lat="53.0199050000" lon="-4.0781540000"><ele>57</ele><time>2016-09-30T11:00:56Z</time></trkpt>
<trkpt lat="53.0199030000" lon="-4.0779560000"><ele>57</ele><time>2016-09-30T11:00:57Z</time></trkpt>
<trkpt lat="53.0198880000" lon="-4.0778750000"><ele>59</ele><time>2016-09-30T11:01:14Z</time></trkpt>
<trkpt lat="53.0199150000" lon="-4.0776130000"><ele>59</ele><time>2016-09-30T11:01:15Z</time></trkpt>
<trkpt lat="53.0199790000" lon="-4.0773300000"><ele>57</ele><time>2016-09-30T11:01:34Z</time></trkpt>
<trkpt lat="53.0200200000" lon="-4.0771860000"><ele>54</ele><time>2016-09-30T11:01:43Z</time></trkpt>
<trkpt lat="53.0200490000" lon="-4.0771130000"><ele>50</ele><time>2016-09-30T11:02:04Z</time></trkpt>
<trkpt lat="53.0201070000" lon="-4.0768820000"><ele>50</ele><time>2016-09-30T11:02:05Z</time></trkpt>
<trkpt lat="53.0201430000" lon="-4.0767940000"><ele>46</ele><time>2016-09-30T11:02:33Z</time></trkpt>
<trkpt lat="53.0202950000" lon="-4.0765260000"><ele>46</ele><time>2016-09-30T11:02:34Z</time></trkpt>
<trkpt lat="53.0203540000" lon="-4.0764560000"><ele>47</ele><time>2016-09-30T11:03:01Z</time></trkpt>
<trkpt lat="53.0205160000" lon="-4.0761740000"><ele>47</ele><time>2016-09-30T11:03:04Z</time></trkpt>
<trkpt lat="53.0206470000" lon="-4.0758240000"><ele>48</ele><time>2016-09-30T11:03:27Z</time></trkpt>
<trkpt lat="53.0207010000" lon="-4.0757350000"><ele>51</ele><time>2016-09-30T11:03:56Z</time></trkpt>
<trkpt lat="53.0208670000" lon="-4.0753850000"><ele>51</ele><time>2016-09-30T11:03:57Z</time></trkpt>
<trkpt lat="53.0209120000" lon="-4.0752920000"><ele>53</ele><time>2016-09-30T11:04:25Z</time></trkpt>
<trkpt lat="53.0210760000" lon="-4.0749970000"><ele>53</ele><time>2016-09-30T11:04:26Z</time></trkpt>
<trkpt lat="53.0211250000" lon="-4.0749630000"><ele>55</ele><time>2016-09-30T11:04:45Z</time></trkpt>
<trkpt lat="53.0213000000" lon="-4.0748670000"><ele>55</ele><time>2016-09-30T11:04:46Z</time></trkpt>
<trkpt lat="53.0215330000" lon="-4.0746610000"><ele>56</ele><time>2016-09-30T11:05:09Z</time></trkpt>
<trkpt lat="53.0216050000" lon="-4.0746300000"><ele>55</ele><time>2016-09-30T11:05:40Z</time></trkpt>
<trkpt lat="53.0218760000" lon="-4.0744930000"><ele>55</ele><time>2016-09-30T11:05:41Z</time></trkpt>
<trkpt lat="53.0219390000" lon="-4.0743580000"><ele>57</ele><time>2016-09-30T11:06:19Z</time></trkpt>
<trkpt lat="53.0220270000" lon="-4.0738310000"><ele>57</ele><time>2016-09-30T11:06:20Z</time></trkpt>
<trkpt lat="53.0220620000" lon="-4.0736670000"><ele>53</ele><time>2016-09-30T11:06:59Z</time></trkpt>
<trkpt lat="53.0221590000" lon="-4.0731800000"><ele>53</ele><time>2016-09-30T11:07:00Z</time></trkpt>
<trkpt lat="53.0221640000" lon="-4.0730650000"><ele>53</ele><time>2016-09-30T11:07:34Z</time></trkpt>
<trkpt lat="53.0221510000" lon="-4.0726720000"><ele>53</ele><time>2016-09-30T11:07:35Z</time></trkpt>
<trkpt lat="53.0221260000" lon="-4.0723780000"><ele>51</ele><time>2016-09-30T11:07:50Z</time></trkpt>
<trkpt lat="53.0221630000" lon="-4.0719350000"><ele>49</ele><time>2016-09-30T11:08:11Z</time></trkpt>
<trkpt lat="53.0222070000" lon="-4.0718570000"><ele>49</ele><time>2016-09-30T11:08:16Z</time></trkpt>
<trkpt lat="53.0222530000" lon="-4.0714610000"><ele>51</ele><time>2016-09-30T11:08:37Z</time></trkpt>
<trkpt lat="53.0223020000" lon="-4.0713910000"><ele>51</ele><time>2016-09-30T11:08:42Z</time></trkpt>
<trkpt lat="53.0223480000" lon="-4.0713600000"><ele>52</ele><time>2016-09-30T11:08:49Z</time></trkpt>
<trkpt lat="53.0225670000" lon="-4.0712940000"><ele>68</ele><time>2016-09-30T11:10:23Z</time></trkpt>
<trkpt lat="53.0225290000" lon="-4.0712770000"><ele>67</ele><time>2016-09-30T11:10:36Z</time></trkpt>
<trkpt lat="53.0224580000" lon="-4.0712140000"><ele>66</ele><time>2016-09-30T11:10:38Z</time></trkpt>
<trkpt lat="53.0224430000" lon="-4.0711580000"><ele>65</ele><time>2016-09-30T11:10:53Z</time></trkpt>
<trkpt lat="53.0224370000" lon="-4.0709690000"><ele>65</ele><time>2016-09-30T11:10:54Z</time></trkpt>
<trkpt lat="53.0224230000" lon="-4.0708870000"><ele>60</ele><time>2016-09-30T11:11:13Z</time></trkpt>
<trkpt lat="53.0223860000" lon="-4.0707280000"><ele>60</ele><time>2016-09-30T11:11:14Z</time></trkpt>
<trkpt lat="53.0223730000" lon="-4.0707040000"><ele>60</ele><time>2016-09-30T11:11:16Z</time></trkpt>
<trkpt lat="53.0223660000" lon="-4.0706830000"><ele>59</ele><time>2016-09-30T11:11:19Z</time></trkpt>
<trkpt lat="53.0223660000" lon="-4.0706820000"><ele>59</ele><time>2016-09-30T11:11:20Z</time></trkpt>
<trkpt lat="53.0223650000" lon="-4.0706820000"><ele>59</ele><time>2016-09-30T11:11:21Z</time></trkpt>
<trkpt lat="53.0223650000" lon="-4.0706800000"><ele>59</ele><time>2016-09-30T11:11:22Z</time></trkpt>
<trkpt lat="53.0223060000" lon="-4.0705860000"><ele>58</ele><time>2016-09-30T11:11:23Z</time></trkpt>
<trkpt lat="53.0222940000" lon="-4.0705760000"><ele>58</ele><time>2016-09-30T11:11:24Z</time></trkpt>
<trkpt lat="53.0222820000" lon="-4.0705680000"><ele>58</ele><time>2016-09-30T11:11:25Z</time></trkpt>
<trkpt lat="53.0222610000" lon="-4.0705530000"><ele>57</ele><time>2016-09-30T11:11:40Z</time></trkpt>
<trkpt lat="53.0221230000" lon="-4.0704160000"><ele>57</ele><time>2016-09-30T11:11:44Z</time></trkpt>
<trkpt lat="53.0221170000" lon="-4.0703750000"><ele>57</ele><time>2016-09-30T11:11:46Z</time></trkpt>
<trkpt lat="53.0221160000" lon="-4.0703330000"><ele>56</ele><time>2016-09-30T11:11:56Z</time></trkpt>
<trkpt lat="53.0220980000" lon="-4.0702070000"><ele>56</ele><time>2016-09-30T11:11:57Z</time></trkpt>
<trkpt lat="53.0220830000" lon="-4.0701550000"><ele>56</ele><time>2016-09-30T11:12:00Z</time></trkpt>
<trkpt lat="53.0220770000" lon="-4.0701070000"><ele>57</ele><time>2016-09-30T11:12:10Z</time></trkpt>
<trkpt lat="53.0220730000" lon="-4.0699520000"><ele>57</ele><time>2016-09-30T11:12:11Z</time></trkpt>
<trkpt lat="53.0220680000" lon="-4.0699010000"><ele>58</ele><time>2016-09-30T11:12:14Z</time></trkpt>
<trkpt lat="53.0220640000" lon="-4.0698470000"><ele>60</ele><time>2016-09-30T11:12:22Z</time></trkpt>
<trkpt lat="53.0220310000" lon="-4.0697500000"><ele>60</ele><time>2016-09-30T11:12:23Z</time></trkpt>
<trkpt lat="53.0220240000" lon="-4.0696930000"><ele>60</ele><time>2016-09-30T11:12:26Z</time></trkpt>
<trkpt lat="53.0219690000" lon="-4.0695170000"><ele>60</ele><time>2016-09-30T11:12:36Z</time></trkpt>
<trkpt lat="53.0219480000" lon="-4.0694650000"><ele>59</ele><time>2016-09-30T11:12:39Z</time></trkpt>
<trkpt lat="53.0219020000" lon="-4.0693650000"><ele>58</ele><time>2016-09-30T11:12:44Z</time></trkpt>
<trkpt lat="53.0218670000" lon="-4.0692910000"><ele>57</ele><time>2016-09-30T11:12:48Z</time></trkpt>
<trkpt lat="53.0218410000" lon="-4.0692500000"><ele>54</ele><time>2016-09-30T11:12:58Z</time></trkpt>
<trkpt lat="53.0218030000" lon="-4.0691300000"><ele>54</ele><time>2016-09-30T11:12:59Z</time></trkpt>
<trkpt lat="53.0217310000" lon="-4.0687310000"><ele>53</ele><time>2016-09-30T11:13:20Z</time></trkpt>
<trkpt lat="53.0217440000" lon="-4.0686130000"><ele>53</ele><time>2016-09-30T11:13:26Z</time></trkpt>
<trkpt lat="53.0217760000" lon="-4.0684850000"><ele>54</ele><time>2016-09-30T11:13:32Z</time></trkpt>
<trkpt lat="53.0218570000" lon="-4.0683560000"><ele>55</ele><time>2016-09-30T11:13:40Z</time></trkpt>
<trkpt lat="53.0219050000" lon="-4.0682600000"><ele>56</ele><time>2016-09-30T11:13:46Z</time></trkpt>
<trkpt lat="53.0219160000" lon="-4.0681940000"><ele>57</ele><time>2016-09-30T11:13:57Z</time></trkpt>
<trkpt lat="53.0218840000" lon="-4.0680370000"><ele>58</ele><time>2016-09-30T11:13:58Z</time></trkpt>
<trkpt lat="53.0218790000" lon="-4.0679840000"><ele>59</ele><time>2016-09-30T11:14:07Z</time></trkpt>
<trkpt lat="53.0218930000" lon="-4.0679000000"><ele>59</ele><time>2016-09-30T11:14:08Z</time></trkpt>
<trkpt lat="53.0219170000" lon="-4.0678750000"><ele>59</ele><time>2016-09-30T11:14:11Z</time></trkpt>
<trkpt lat="53.0219320000" lon="-4.0678470000"><ele>57</ele><time>2016-09-30T11:14:21Z</time></trkpt>
<trkpt lat="53.0219490000" lon="-4.0678200000"><ele>56</ele><time>2016-09-30T11:14:28Z</time></trkpt>
<trkpt lat="53.0219650000" lon="-4.0677910000"><ele>56</ele><time>2016-09-30T11:14:32Z</time></trkpt>
<trkpt lat="53.0220670000" lon="-4.0675750000"><ele>56</ele><time>2016-09-30T11:14:33Z</time></trkpt>
<trkpt lat="53.0220760000" lon="-4.0675410000"><ele>56</ele><time>2016-09-30T11:14:35Z</time></trkpt>
<trkpt lat="53.0220850000" lon="-4.0675080000"><ele>56</ele><time>2016-09-30T11:14:46Z</time></trkpt>
<trkpt lat="53.0220930000" lon="-4.0674690000"><ele>56</ele><time>2016-09-30T11:14:52Z</time></trkpt>
<trkpt lat="53.0221020000" lon="-4.0674320000"><ele>55</ele><time>2016-09-30T11:14:56Z</time></trkpt>
<trkpt lat="53.0221650000" lon="-4.0671710000"><ele>55</ele><time>2016-09-30T11:14:57Z</time></trkpt>
<trkpt lat="53.0221690000" lon="-4.0671310000"><ele>55</ele><time>2016-09-30T11:14:59Z</time></trkpt>
<trkpt lat="53.0222000000" lon="-4.0669930000"><ele>54</ele><time>2016-09-30T11:15:07Z</time></trkpt>
<trkpt lat="53.0222160000" lon="-4.0669600000"><ele>54</ele><time>2016-09-30T11:15:08Z</time></trkpt>
<trkpt lat="53.0222290000" lon="-4.0669280000"><ele>54</ele><time>2016-09-30T11:15:10Z</time></trkpt>
<trkpt lat="53.0222410000" lon="-4.0668930000"><ele>53</ele><time>2016-09-30T11:15:22Z</time></trkpt>
<trkpt lat="53.0222980000" lon="-4.0667150000"><ele>52</ele><time>2016-09-30T11:15:24Z</time></trkpt>
<trkpt lat="53.0223250000" lon="-4.0666670000"><ele>51</ele><time>2016-09-30T11:15:48Z</time></trkpt>
<trkpt lat="53.0223800000" lon="-4.0665620000"><ele>51</ele><time>2016-09-30T11:15:50Z</time></trkpt>
<trkpt lat="53.0224140000" lon="-4.0665280000"><ele>51</ele><time>2016-09-30T11:15:53Z</time></trkpt>
<trkpt lat="53.0224490000" lon="-4.0665000000"><ele>51</ele><time>2016-09-30T11:15:56Z</time></trkpt>
<trkpt lat="53.0224820000" lon="-4.0664680000"><ele>51</ele><time>2016-09-30T11:15:59Z</time></trkpt>
<trkpt lat="53.0225090000" lon="-4.0664380000"><ele>51</ele><time>2016-09-30T11:16:02Z</time></trkpt>
<trkpt lat="53.0225350000" lon="-4.0664120000"><ele>52</ele><time>2016-09-30T11:16:07Z</time></trkpt>
<trkpt lat="53.0225630000" lon="-4.0663890000"><ele>52</ele><time>2016-09-30T11:16:08Z</time></trkpt>
<trkpt lat="53.0225950000" lon="-4.0663530000"><ele>52</ele><time>2016-09-30T11:16:24Z</time></trkpt>
<trkpt lat="53.0227140000" lon="-4.0661950000"><ele>52</ele><time>2016-09-30T11:16:26Z</time></trkpt>
<trkpt lat="53.0227700000" lon="-4.0659350000"><ele>39</ele><time>2016-09-30T11:17:19Z</time></trkpt>
<trkpt lat="53.0230030000" lon="-4.0653290000"><ele>39</ele><time>2016-09-30T11:17:21Z</time></trkpt>
<trkpt lat="53.0230640000" lon="-4.0652410000"><ele>39</ele><time>2016-09-30T11:17:50Z</time></trkpt>
<trkpt lat="53.0233060000" lon="-4.0649340000"><ele>39</ele><time>2016-09-30T11:17:51Z</time></trkpt>
<trkpt lat="53.0233880000" lon="-4.0648750000"><ele>40</ele><time>2016-09-30T11:17:56Z</time></trkpt>
<trkpt lat="53.0234320000" lon="-4.0648070000"><ele>44</ele><time>2016-09-30T11:18:14Z</time></trkpt>
<trkpt lat="53.0235970000" lon="-4.0646150000"><ele>44</ele><time>2016-09-30T11:18:15Z</time></trkpt>
<trkpt lat="53.0237790000" lon="-4.0643230000"><ele>46</ele><time>2016-09-30T11:18:35Z</time></trkpt>
<trkpt lat="53.0238270000" lon="-4.0642560000"><ele>46</ele><time>2016-09-30T11:18:39Z</time></trkpt>
<trkpt lat="53.0238830000" lon="-4.0641400000"><ele>47</ele><time>2016-09-30T11:19:10Z</time></trkpt>
<trkpt lat="53.0240970000" lon="-4.0637710000"><ele>47</ele><time>2016-09-30T11:19:11Z</time></trkpt>
<trkpt lat="53.0242060000" lon="-4.0634480000"><ele>47</ele><time>2016-09-30T11:19:28Z</time></trkpt>
<trkpt lat="53.0242050000" lon="-4.0633370000"><ele>50</ele><time>2016-09-30T11:19:55Z</time></trkpt>
<trkpt lat="53.0241960000" lon="-4.0630130000"><ele>50</ele><time>2016-09-30T11:19:56Z</time></trkpt>
<trkpt lat="53.0241810000" lon="-4.0629080000"><ele>50</ele><time>2016-09-30T11:20:00Z</time></trkpt>
<trkpt lat="53.0241790000" lon="-4.0628190000"><ele>49</ele><time>2016-09-30T11:20:16Z</time></trkpt>
<trkpt lat="53.0242280000" lon="-4.0625640000"><ele>49</ele></trkpt>
<trkpt lat="53.0242200000" lon="-4.0624640000"><ele>50</ele><time>2016-09-30T11:20:22Z</time></trkpt>
<trkpt lat="53.0242050000" lon="-4.0624010000"><ele>50</ele><time>2016-09-30T11:20:25Z</time></trkpt>
<trkpt lat="53.0242040000" lon="-4.0623470000"><ele>50</ele><time>2016-09-30T11:20:28Z</time></trkpt>
<trkpt lat="53.0242000000" lon="-4.0623050000"><ele>52</ele><time>2016-09-30T11:20:38Z</time></trkpt>
<trkpt lat="53.0241370000" lon="-4.0621070000"><ele>52</ele><time>2016-09-30T11:20:41Z</time></trkpt>
<trkpt lat="53.0241250000" lon="-4.0620710000"><ele>53</ele><time>2016-09-30T11:20:44Z</time></trkpt>
<trkpt lat="53.0241110000" lon="-4.0620390000"><ele>53</ele><time>2016-09-30T11:20:46Z</time></trkpt>
<trkpt lat="53.0241010000" lon="-4.0620130000"><ele>54</ele><time>2016-09-30T11:20:54Z</time></trkpt>
<trkpt lat="53.0241000000" lon="-4.0620100000"><ele>54</ele><time>2016-09-30T11:20:55Z</time></trkpt>
<trkpt lat="53.0240980000" lon="-4.0620060000"><ele>54</ele><time>2016-09-30T11:20:56Z</time></trkpt>
<trkpt lat="53.0240970000" lon="-4.0620020000"><ele>54</ele><time>2016-09-30T11:20:57Z</time></trkpt>
<trkpt lat="53.0240950000" lon="-4.0619970000"><ele>54</ele><time>2016-09-30T11:20:58Z</time></trkpt>
<trkpt lat="53.0240930000" lon="-4.0619910000"><ele>55</ele><time>2016-09-30T11:20:59Z</time></trkpt>
<trkpt lat="53.0240900000" lon="-4.0619840000"><ele>55</ele><time>2016-09-30T11:21:00Z</time></trkpt>
<trkpt lat="53.0240140000" lon="-4.0617730000"><ele>55</ele><time>2016-09-30T11:21:01Z</time></trkpt>
<trkpt lat="53.0240050000" lon="-4.0617510000"><ele>55</ele><time>2016-09-30T11:21:02Z</time></trkpt>
<trkpt lat="53.0239970000" lon="-4.0617300000"><ele>55</ele><time>2016-09-30T11:21:03Z</time></trkpt>
<trkpt lat="53.0239920000" lon="-4.0617080000"><ele>55</ele><time>2016-09-30T11:21:04Z</time></trkpt>
<trkpt lat="53.0239880000" lon="-4.0616890000"><ele>55</ele><time>2016-09-30T11:21:05Z</time></trkpt>
<trkpt lat="53.0239740000" lon="-4.0616450000"><ele>55</ele><time>2016-09-30T11:21:07Z</time></trkpt>
<trkpt lat="53.0239690000" lon="-4.0616270000"><ele>55</ele><time>2016-09-30T11:21:08Z</time></trkpt>
<trkpt lat="53.0239640000" lon="-4.0616070000"><ele>55</ele><time>2016-09-30T11:21:09Z</time></trkpt>
<trkpt lat="53.0239600000" lon="-4.0615850000"><ele>56</ele><time>2016-09-30T11:21:10Z</time></trkpt>
<trkpt lat="53.0239530000" lon="-4.0615620000"><ele>56</ele><time>2016-09-30T11:21:11Z</time></trkpt>
<trkpt lat="53.0239450000" lon="-4.0615450000"><ele>56</ele><time>2016-09-30T11:21:12Z</time></trkpt>
<trkpt lat="53.0239380000" lon="-4.0615290000"><ele>56</ele><time>2016-09-30T11:21:13Z</time></trkpt>
<trkpt lat="53.0239330000" lon="-4.0615080000"><ele>56</ele><time>2016-09-30T11:21:14Z</time></trkpt>
<trkpt lat="53.0239300000" lon="-4.0614890000"><ele>56</ele><time>2016-09-30T11:21:15Z</time></trkpt>
<trkpt lat="53.0239280000" lon="-4.0614690000"><ele>56</ele><time>2016-09-30T11:21:16Z</time></trkpt>
<trkpt lat="53.0239060000" lon="-4.0613710000"><ele>57</ele><time>2016-09-30T11:21:21Z</time></trkpt>
<trkpt lat="53.0239040000" lon="-4.0613240000"><ele>57</ele><time>2016-09-30T11:21:24Z</time></trkpt>
<trkpt lat="53.0238900000" lon="-4.0612620000"><ele>58</ele><time>2016-09-30T11:21:44Z</time></trkpt>
<trkpt lat="53.0238040000" lon="-4.0609700000"><ele>58</ele><time>2016-09-30T11:21:47Z</time></trkpt>
<trkpt lat="53.0237940000" lon="-4.0606130000"><ele>55</ele><time>2016-09-30T11:22:07Z</time></trkpt>
<trkpt lat="53.0237720000" lon="-4.0605000000"><ele>54</ele><time>2016-09-30T11:22:11Z</time></trkpt>
<trkpt lat="53.0237500000" lon="-4.0602530000"><ele>51</ele><time>2016-09-30T11:22:24Z</time></trkpt>
<trkpt lat="53.0238320000" lon="-4.0601040000"><ele>57</ele><time>2016-09-30T11:23:23Z</time></trkpt>
<trkpt lat="53.0238070000" lon="-4.0598980000"><ele>57</ele><time>2016-09-30T11:23:30Z</time></trkpt>
<trkpt lat="53.0238380000" lon="-4.0597710000"><ele>55</ele><time>2016-09-30T11:23:56Z</time></trkpt>
<trkpt lat="53.0238260000" lon="-4.0593960000"><ele>55</ele><time>2016-09-30T11:23:58Z</time></trkpt>
<trkpt lat="53.0237630000" lon="-4.0590350000"><ele>62</ele><time>2016-09-30T11:24:55Z</time></trkpt>
<trkpt lat="53.0237000000" lon="-4.0587040000"><ele>62</ele><time>2016-09-30T11:24:57Z</time></trkpt>
<trkpt lat="53.0237040000" lon="-4.0585500000"><ele>67</ele><time>2016-09-30T11:25:39Z</time></trkpt>
<trkpt lat="53.0236760000" lon="-4.0582890000"><ele>66</ele><time>2016-09-30T11:25:40Z</time></trkpt>
<trkpt lat="53.0236180000" lon="-4.0582020000"><ele>66</ele><time>2016-09-30T11:25:48Z</time></trkpt>
<trkpt lat="53.0235770000" lon="-4.0580780000"><ele>83</ele><time>2016-09-30T11:26:50Z</time></trkpt>
<trkpt lat="53.0235270000" lon="-4.0580200000"><ele>84</ele><time>2016-09-30T11:26:52Z</time></trkpt>
<trkpt lat="53.0234730000" lon="-4.0579800000"><ele>85</ele><time>2016-09-30T11:27:31Z</time></trkpt>
<trkpt lat="53.0233750000" lon="-4.0579230000"><ele>84</ele><time>2016-09-30T11:27:39Z</time></trkpt>
<trkpt lat="53.0233440000" lon="-4.0577590000"><ele>88</ele><time>2016-09-30T11:28:31Z</time></trkpt>
<trkpt lat="53.0233740000" lon="-4.0575240000"><ele>88</ele><time>2016-09-30T11:28:32Z</time></trkpt>
<trkpt lat="53.0234040000" lon="-4.0574100000"><ele>97</ele><time>2016-09-30T11:29:11Z</time></trkpt>
<trkpt lat="53.0234320000" lon="-4.0571550000"><ele>97</ele><time>2016-09-30T11:29:12Z</time></trkpt>
<trkpt lat="53.0233500000" lon="-4.0569790000"><ele>98</ele><time>2016-09-30T11:29:26Z</time></trkpt>
<trkpt lat="53.0233300000" lon="-4.0568650000"><ele>102</ele><time>2016-09-30T11:30:02Z</time></trkpt>
<trkpt lat="53.0233360000" lon="-4.0566510000"><ele>102</ele><time>2016-09-30T11:30:03Z</time></trkpt>
<trkpt lat="53.0233290000" lon="-4.0565700000"><ele>103</ele><time>2016-09-30T11:30:26Z</time></trkpt>
<trkpt lat="53.0232950000" lon="-4.0562650000"><ele>103</ele><time>2016-09-30T11:30:29Z</time></trkpt>
<trkpt lat="53.0232990000" lon="-4.0561860000"><ele>104</ele><time>2016-09-30T11:30:50Z</time></trkpt>
<trkpt lat="53.0233090000" lon="-4.0559920000"><ele>104</ele><time>2016-09-30T11:30:51Z</time></trkpt>
<trkpt lat="53.0232900000" lon="-4.0559120000"><ele>107</ele><time>2016-09-30T11:31:30Z</time></trkpt>
<trkpt lat="53.0232320000" lon="-4.0557790000"><ele>107</ele><time>2016-09-30T11:31:31Z</time></trkpt>
<trkpt lat="53.0232330000" lon="-4.0556980000"><ele>108</ele><time>2016-09-30T11:31:54Z</time></trkpt>
<trkpt lat="53.0232330000" lon="-4.0554570000"><ele>108</ele><time>2016-09-30T11:31:56Z</time></trkpt>
<trkpt lat="53.0232690000" lon="-4.0552660000"><ele>111</ele><time>2016-09-30T11:32:15Z</time></trkpt>
<trkpt lat="53.0232700000" lon="-4.0551850000"><ele>113</ele><time>2016-09-30T11:32:36Z</time></trkpt>
<trkpt lat="53.0232280000" lon="-4.0549510000"><ele>112</ele><time>2016-09-30T11:32:52Z</time></trkpt>
<trkpt lat="53.0231740000" lon="-4.0550200000"><ele>109</ele><time>2016-09-30T11:34:07Z</time></trkpt>
<trkpt lat="53.0231640000" lon="-4.0550370000"><ele>115</ele><time>2016-09-30T11:34:40Z</time></trkpt>
<trkpt lat="53.0231630000" lon="-4.0550360000"><ele>115</ele><time>2016-09-30T11:34:41Z</time></trkpt>
<trkpt lat="53.0231620000" lon="-4.0550360000"><ele>115</ele><time>2016-09-30T11:34:42Z</time></trkpt>
<trkpt lat="53.0231620000" lon="-4.0550350000"><ele>115</ele><time>2016-09-30T11:34:43Z</time></trkpt>
<trkpt lat="53.0231610000" lon="-4.0550350000"><ele>115</ele><time>2016-09-30T11:34:44Z</time></trkpt>
<trkpt lat="53.0231610000" lon="-4.0550340000"><ele>115</ele><time>2016-09-30T11:34:45Z</time></trkpt>
<trkpt lat="53.0231600000" lon="-4.0550330000"><ele>115</ele><time>2016-09-30T11:34:46Z</time></trkpt>
<trkpt lat="53.0231590000" lon="-4.0550330000"><ele>115</ele><time>2016-09-30T11:34:47Z</time></trkpt>
<trkpt lat="53.0231590000" lon="-4.0550320000"><ele>115</ele><time>2016-09-30T11:34:48Z</time></trkpt>
<trkpt lat="53.0231580000" lon="-4.0550320000"><ele>115</ele><time>2016-09-30T11:34:49Z</time></trkpt>
<trkpt lat="53.0231580000" lon="-4.0550310000"><ele>115</ele><time>2016-09-30T11:34:50Z</time></trkpt>
<trkpt lat="53.0231580000" lon="-4.0550300000"><ele>115</ele><time>2016-09-30T11:34:51Z</time></trkpt>
<trkpt lat="53.0231570000" lon="-4.0550300000"><ele>116</ele><time>2016-09-30T11:34:52Z</time></trkpt>
<trkpt lat="53.0231570000" lon="-4.0550290000"><ele>116</ele><time>2016-09-30T11:34:53Z</time></trkpt>
<trkpt lat="53.0231560000" lon="-4.0550290000"><ele>116</ele><time>2016-09-30T11:34:54Z</time></trkpt>
<trkpt lat="53.0231560000" lon="-4.0550280000"><ele>116</ele><time>2016-09-30T11:34:55Z</time></trkpt>
<trkpt lat="53.0231560000" lon="-4.0550280000"><ele>116</ele><time>2016-09-30T11:34:56Z</time></trkpt>
<trkpt lat="53.0231550000" lon="-4.0550270000"><ele>116</ele><time>2016-09-30T11:34:57Z</time></trkpt>
<trkpt lat="53.0231550000" lon="-4.0550270000"><ele>116</ele><time>2016-09-30T11:34:58Z</time></trkpt>
<trkpt lat="53.0231550000" lon="-4.0550260000"><ele>116</ele><time>2016-09-30T11:34:59Z</time></trkpt>
<trkpt lat="53.0231540000" lon="-4.0550260000"><ele>116</ele><time>2016-09-30T11:35:00Z</time></trkpt>
<trkpt lat="53.0231540000" lon="-4.0550250000"><ele>116</ele><time>2016-09-30T11:35:01Z</time></trkpt>
<trkpt lat="53.0231540000" lon="-4.0550250000"><ele>116</ele><time>2016-09-30T11:35:02Z</time></trkpt>
<trkpt lat="53.0231540000" lon="-4.0550240000"><ele>116</ele><time>2016-09-30T11:35:03Z</time></trkpt>
<trkpt lat="53.0231540000" lon="-4.0550240000"><ele>116</ele><time>2016-09-30T11:35:04Z</time></trkpt>
<trkpt lat="53.0231540000" lon="-4.0550240000"><ele>117</ele><time>2016-09-30T11:35:05Z</time></trkpt>
<trkpt lat="53.0231550000" lon="-4.0550240000"><ele>117</ele><time>2016-09-30T11:35:06Z</time></trkpt>
<trkpt lat="53.0231550000" lon="-4.0550230000"><ele>117</ele><time>2016-09-30T11:35:07Z</time></trkpt>
<trkpt lat="53.0231550000" lon="-4.0550230000"><ele>117</ele><time>2016-09-30T11:35:08Z</time></trkpt>
<trkpt lat="53.0231550000" lon="-4.0550230000"><ele>117</ele><time>2016-09-30T11:35:09Z</time></trkpt>
<trkpt lat="53.0231550000" lon="-4.0550230000"><ele>117</ele><time>2016-09-30T11:35:10Z</time></trkpt>
<trkpt lat="53.0231560000" lon="-4.0550230000"><ele>117</ele><time>2016-09-30T11:35:11Z</time></trkpt>
<trkpt lat="53.0231560000" lon="-4.0550230000"><ele>117</ele><time>2016-09-30T11:35:12Z</time></trkpt>
<trkpt lat="53.0231560000" lon="-4.0550230000"><ele>117</ele><time>2016-09-30T11:35:13Z</time></trkpt>
<trkpt lat="53.0231570000" lon="-4.0550220000"><ele>117</ele><time>2016-09-30T11:35:14Z</time></trkpt>
<trkpt lat="53.0231570000" lon="-4.0550220000"><ele>117</ele><time>2016-09-30T11:35:15Z</time></trkpt>
<trkpt lat="53.0231580000" lon="-4.0550220000"><ele>117</ele><time>2016-09-30T11:35:16Z</time></trkpt>
<trkpt lat="53.0231580000" lon="-4.0550220000"><ele>118</ele><time>2016-09-30T11:35:17Z</time></trkpt>
<trkpt lat="53.0231580000" lon="-4.0550220000"><ele>118</ele><time>2016-09-30T11:35:18Z</time></trkpt>
<trkpt lat="53.0231590000" lon="-4.0550220000"><ele>118</ele><time>2016-09-30T11:35:19Z</time></trkpt>
<trkpt lat="53.0231590000" lon="-4.0550220000"><ele>118</ele><time>2016-09-30T11:35:20Z</time></trkpt>
<trkpt lat="53.0231600000" lon="-4.0550220000"><ele>118</ele><time>2016-09-30T11:35:21Z</time></trkpt>
<trkpt lat="53.0231600000" lon="-4.0550220000"><ele>118</ele><time>2016-09-30T11:35:22Z</time></trkpt>
<trkpt lat="53.0231610000" lon="-4.0550220000"><ele>118</ele><time>2016-09-30T11:35:23Z</time></trkpt>
<trkpt lat="53.0231610000" lon="-4.0550220000"><ele>118</ele><time>2016-09-30T11:35:24Z</time></trkpt>
<trkpt lat="53.0231620000" lon="-4.0550220000"><ele>118</ele><time>2016-09-30T11:35:25Z</time></trkpt>
<trkpt lat="53.0231620000" lon="-4.0550220000"><ele>118</ele><time>2016-09-30T11:35:26Z</time></trkpt>
<trkpt lat="53.0231630000" lon="-4.0550220000"><ele>118</ele><time>2016-09-30T11:35:27Z</time></trkpt>
<trkpt lat="53.0231630000" lon="-4.0550220000"><ele>118</ele><time>2016-09-30T11:35:28Z</time></trkpt>
<trkpt lat="53.0231640000" lon="-4.0550220000"><ele>118</ele><time>2016-09-30T11:35:29Z</time></trkpt>
<trkpt lat="53.0231640000" lon="-4.0550220000"><ele>118</ele><time>2016-09-30T11:35:30Z</time></trkpt>
<trkpt lat="53.0231650000" lon="-4.0550220000"><ele>118</ele><time>2016-09-30T11:35:31Z</time></trkpt>
<trkpt lat="53.0231650000" lon="-4.0550220000"><ele>118</ele><time>2016-09-30T11:35:32Z</time></trkpt>
<trkpt lat="53.0231660000" lon="-4.0550220000"><ele>118</ele><time>2016-09-30T11:35:33Z</time></trkpt>
<trkpt lat="53.0231660000" lon="-4.0550220000"><ele>118</ele><time>2016-09-30T11:35:34Z</time></trkpt>
<trkpt lat="53.0231660000" lon="-4.0550220000"><ele>118</ele><time>2016-09-30T11:35:35Z</time></trkpt>
<trkpt lat="53.0231670000" lon="-4.0550220000"><ele>118</ele><time>2016-09-30T11:35:36Z</time></trkpt>
<trkpt lat="53.0231670000" lon="-4.0550220000"><ele>119</ele><time>2016-09-30T11:35:37Z</time></trkpt>
<trkpt lat="53.0231680000" lon="-4.0550220000"><ele>119</ele><time>2016-09-30T11:35:38Z</time></trkpt>
<trkpt lat="53.0231680000" lon="-4.0550220000"><ele>119</ele><time>2016-09-30T11:35:39Z</time></trkpt>
<trkpt lat="53.0231680000" lon="-4.0550220000"><ele>119</ele><time>2016-09-30T11:35:40Z</time></trkpt>
<trkpt lat="53.0231690000" lon="-4.0550220000"><ele>119</ele><time>2016-09-30T11:35:41Z</time></trkpt>
<trkpt lat="53.0231690000" lon="-4.0550220000"><ele>119</ele><time>2016-09-30T11:35:42Z</time></trkpt>
<trkpt lat="53.0231690000" lon="-4.0550220000"><ele>119</ele><time>2016-09-30T11:35:44Z</time></trkpt>
<trkpt lat="53.0231700000" lon="-4.0550220000"><ele>119</ele></trkpt>
<trkpt lat="53.0231700000" lon="-4.0550220000"><ele>119</ele><time>2016-09-30T11:35:45Z</time></trkpt>
<trkpt lat="53.0231700000" lon="-4.0550220000"><ele>119</ele><time>2016-09-30T11:35:46Z</time></trkpt>
<trkpt lat="53.0231710000" lon="-4.0550220000"><ele>119</ele><time>2016-09-30T11:35:47Z</time></trkpt>
<trkpt lat="53.0231710000" lon="-4.0550220000"><ele>119</ele><time>2016-09-30T11:35:48Z</time></trkpt>
<trkpt lat="53.0231710000" lon="-4.0550220000"><ele>119</ele><time>2016-09-30T11:35:49Z</time></trkpt>
<trkpt lat="53.0231710000" lon="-4.0550220000"><ele>119</ele><time>2016-09-30T11:35:50Z</time></trkpt>
<trkpt lat="53.0231720000" lon="-4.0550220000"><ele>119</ele><time>2016-09-30T11:35:51Z</time></trkpt>
<trkpt lat="53.0231720000" lon="-4.0550220000"><ele>119</ele><time>2016-09-30T11:35:52Z</time></trkpt>
<trkpt lat="53.0231720000" lon="-4.0550220000"><ele>119</ele><time>2016-09-30T11:35:53Z</time></trkpt>
<trkpt lat="53.0231720000" lon="-4.0550220000"><ele>119</ele><time>2016-09-30T11:35:54Z</time></trkpt>
<trkpt lat="53.0231730000" lon="-4.0550220000"><ele>119</ele><time>2016-09-30T11:35:55Z</time></trkpt>
<trkpt lat="53.0231730000" lon="-4.0550220000"><ele>119</ele><time>2016-09-30T11:35:56Z</time></trkpt>
<trkpt lat="53.0231730000" lon="-4.0550220000"><ele>119</ele><time>2016-09-30T11:35:57Z</time></trkpt>
<trkpt lat="53.0231730000" lon="-4.0550220000"><ele>119</ele><time>2016-09-30T11:35:58Z</time></trkpt>
<trkpt lat="53.0231730000" lon="-4.0550220000"><ele>119</ele><time>2016-09-30T11:35:59Z</time></trkpt>
<trkpt lat="53.0231740000" lon="-4.0550220000"><ele>119</ele><time>2016-09-30T11:36:00Z</time></trkpt>
<trkpt lat="53.0231740000" lon="-4.0550220000"><ele>119</ele><time>2016-09-30T11:36:01Z</time></trkpt>
<trkpt lat="53.0231740000" lon="-4.0550220000"><ele>119</ele><time>2016-09-30T11:36:02Z</time></trkpt>
<trkpt lat="53.0231740000" lon="-4.0550220000"><ele>119</ele><time>2016-09-30T11:36:03Z</time></trkpt>
<trkpt lat="53.0231740000" lon="-4.0550220000"><ele>119</ele><time>2016-09-30T11:36:04Z</time></trkpt>
<trkpt lat="53.0231740000" lon="-4.0550220000"><ele>119</ele><time>2016-09-30T11:36:05Z</time></trkpt>
<trkpt lat="53.0231750000" lon="-4.0550220000"><ele>119</ele><time>2016-09-30T11:36:06Z</time></trkpt>
<trkpt lat="53.0231750000" lon="-4.0550220000"><ele>119</ele><time>2016-09-30T11:36:07Z</time></trkpt>
<trkpt lat="53.0231750000" lon="-4.0550220000"><ele>119</ele><time>2016-09-30T11:36:08Z</time></trkpt>
<trkpt lat="53.0231750000" lon="-4.0550220000"><ele>119</ele><time>2016-09-30T11:36:09Z</time></trkpt>
<trkpt lat="53.0231750000" lon="-4.0550220000"><ele>119</ele><time>2016-09-30T11:36:10Z</time></trkpt>
<trkpt lat="53.0231750000" lon="-4.0550220000"><ele>119</ele><time>2016-09-30T11:36:11Z</time></trkpt>
<trkpt lat="53.0231750000" lon="-4.0550220000"><ele>119</ele><time>2016-09-30T11:36:12Z</time></trkpt>
<trkpt lat="53.0231750000" lon="-4.0550220000"><ele>119</ele><time>2016-09-30T11:36:13Z</time></trkpt>
<trkpt lat="53.0231760000" lon="-4.0550220000"><ele>119</ele><time>2016-09-30T11:36:14Z</time></trkpt>
<trkpt lat="53.0231760000" lon="-4.0550220000"><ele>119</ele><time>2016-09-30T11:36:15Z</time></trkpt>
<trkpt lat="53.0231760000" lon="-4.0550220000"><ele>119</ele><time>2016-09-30T11:36:16Z</time></trkpt>
<trkpt lat="53.0231760000" lon="-4.0550220000"><ele>119</ele><time>2016-09-30T11:36:17Z</time></trkpt>
<trkpt lat="53.0231760000" lon="-4.0550220000"><ele>119</ele><time>2016-09-30T11:36:18Z</time></trkpt>
<trkpt lat="53.0231760000" lon="-4.0550220000"><ele>119</ele><time>2016-09-30T11:36:19Z</time></trkpt>
<trkpt lat="53.0231760000" lon="-4.0550220000"><ele>119</ele><time>2016-09-30T11:36:20Z</time></trkpt>
<trkpt lat="53.0231760000" lon="-4.0550220000"><ele>119</ele><time>2016-09-30T11:36:21Z</time></trkpt>
<trkpt lat="53.0231770000" lon="-4.0550220000"><ele>119</ele><time>2016-09-30T11:36:22Z</time></trkpt>
<trkpt lat="53.0231770000" lon="-4.0550230000"><ele>119</ele><time>2016-09-30T11:36:23Z</time></trkpt>
<trkpt lat="53.0231770000" lon="-4.0550230000"><ele>119</ele><time>2016-09-30T11:36:24Z</time></trkpt>
<trkpt lat="53.0231770000" lon="-4.0550230000"><ele>119</ele><time>2016-09-30T11:36:25Z</time></trkpt>
<trkpt lat="53.0231770000" lon="-4.0550230000"><ele>119</ele><time>2016-09-30T11:36:26Z</time></trkpt>
<trkpt lat="53.0231770000" lon="-4.0550230000"><ele>119</ele><time>2016-09-30T11:36:27Z</time></trkpt>
<trkpt lat="53.0231770000" lon="-4.0550230000"><ele>119</ele><time>2016-09-30T11:36:28Z</time></trkpt>
<trkpt lat="53.0231770000" lon="-4.0550230000"><ele>119</ele><time>2016-09-30T11:36:29Z</time></trkpt>
<trkpt lat="53.0231770000" lon="-4.0550230000"><ele>119</ele><time>2016-09-30T11:36:30Z</time></trkpt>
<trkpt lat="53.0231770000" lon="-4.0550230000"><ele>119</ele><time>2016-09-30T11:36:31Z</time></trkpt>
<trkpt lat="53.0231780000" lon="-4.0550230000"><ele>119</ele><time>2016-09-30T11:36:32Z</time></trkpt>
<trkpt lat="53.0231780000" lon="-4.0550230000"><ele>119</ele><time>2016-09-30T11:36:33Z</time></trkpt>
<trkpt lat="53.0231780000" lon="-4.0550230000"><ele>119</ele><time>2016-09-30T11:36:34Z</time></trkpt>
<trkpt lat="53.0231780000" lon="-4.0550230000"><ele>119</ele><time>2016-09-30T11:36:35Z</time></trkpt>
<trkpt lat="53.0231780000" lon="-4.0550230000"><ele>119</ele><time>2016-09-30T11:36:51Z</time></trkpt>
<trkpt lat="53.0231780000" lon="-4.0550230000"><ele>119</ele><time>2016-09-30T11:36:52Z</time></trkpt>
<trkpt lat="53.0231780000" lon="-4.0550230000"><ele>120</ele><time>2016-09-30T11:36:59Z</time></trkpt>
<trkpt lat="53.0231780000" lon="-4.0550230000"><ele>120</ele><time>2016-09-30T11:37:00Z</time></trkpt>
<trkpt lat="53.0231780000" lon="-4.0550230000"><ele>120</ele><time>2016-09-30T11:37:01Z</time></trkpt>
<trkpt lat="53.0231780000" lon="-4.0550230000"><ele>120</ele><time>2016-09-30T11:37:02Z</time></trkpt>
<trkpt lat="53.0231780000" lon="-4.0550230000"><ele>120</ele><time>2016-09-30T11:37:03Z</time></trkpt>
<trkpt lat="53.0231780000" lon="-4.0550220000"><ele>120</ele><time>2016-09-30T11:37:04Z</time></trkpt>
<trkpt lat="53.0231780000" lon="-4.0550220000"><ele>120</ele><time>2016-09-30T11:37:05Z</time></trkpt>
<trkpt lat="53.0231780000" lon="-4.0550220000"><ele>120</ele><time>2016-09-30T11:37:06Z</time></trkpt>
<trkpt lat="53.0231780000" lon="-4.0550220000"><ele>120</ele><time>2016-09-30T11:37:07Z</time></trkpt>
<trkpt lat="53.0231790000" lon="-4.0550220000"><ele>121</ele><time>2016-09-30T11:37:08Z</time></trkpt>
<trkpt lat="53.0231790000" lon="-4.0550210000"><ele>121</ele><time>2016-09-30T11:37:09Z</time></trkpt>
<trkpt lat="53.0231790000" lon="-4.0550210000"><ele>121</ele><time>2016-09-30T11:37:10Z</time></trkpt>
<trkpt lat="53.0231790000" lon="-4.0550210000"><ele>121</ele><time>2016-09-30T11:37:11Z</time></trkpt>
<trkpt lat="53.0231800000" lon="-4.0550210000"><ele>121</ele><time>2016-09-30T11:37:15Z</time></trkpt>
<trkpt lat="53.0231800000" lon="-4.0550220000"><ele>121</ele><time>2016-09-30T11:37:16Z</time></trkpt>
<trkpt lat="53.0231800000" lon="-4.0550220000"><ele>121</ele><time>2016-09-30T11:37:17Z</time></trkpt>
<trkpt lat="53.0231800000" lon="-4.0550230000"><ele>121</ele><time>2016-09-30T11:37:18Z</time></trkpt>
<trkpt lat="53.0231800000" lon="-4.0550240000"><ele>121</ele><time>2016-09-30T11:37:19Z</time></trkpt>
<trkpt lat="53.0231800000" lon="-4.0550250000"><ele>121</ele><time>2016-09-30T11:37:20Z</time></trkpt>
<trkpt lat="53.0231800000" lon="-4.0550260000"><ele>121</ele><time>2016-09-30T11:37:21Z</time></trkpt>
<trkpt lat="53.0231800000" lon="-4.0550260000"><ele>121</ele><time>2016-09-30T11:37:22Z</time></trkpt>
<trkpt lat="53.0231800000" lon="-4.0550270000"><ele>121</ele><time>2016-09-30T11:37:23Z</time></trkpt>
<trkpt lat="53.0231790000" lon="-4.0550280000"><ele>121</ele><time>2016-09-30T11:37:24Z</time></trkpt>
<trkpt lat="53.0231790000" lon="-4.0550290000"><ele>121</ele><time>2016-09-30T11:37:25Z</time></trkpt>
<trkpt lat="53.0231790000" lon="-4.0550300000"><ele>120</ele><time>2016-09-30T11:37:26Z</time></trkpt>
<trkpt lat="53.0231790000" lon="-4.0550300000"><ele>120</ele><time>2016-09-30T11:37:27Z</time></trkpt>
<trkpt lat="53.0231790000" lon="-4.0550310000"><ele>120</ele><time>2016-09-30T11:37:28Z</time></trkpt>
<trkpt lat="53.0231790000" lon="-4.0550320000"><ele>120</ele><time>2016-09-30T11:37:29Z</time></trkpt>
<trkpt lat="53.0231790000" lon="-4.0550320000"><ele>120</ele><time>2016-09-30T11:37:30Z</time></trkpt>
<trkpt lat="53.0231790000" lon="-4.0550330000"><ele>120</ele><time>2016-09-30T11:37:31Z</time></trkpt>
<trkpt lat="53.0231780000" lon="-4.0550340000"><ele>120</ele><time>2016-09-30T11:37:32Z</time></trkpt>
<trkpt lat="53.0231780000" lon="-4.0550340000"><ele>120</ele><time>2016-09-30T11:37:33Z</time></trkpt>
<trkpt lat="53.0231780000" lon="-4.0550350000"><ele>120</ele><time>2016-09-30T11:37:34Z</time></trkpt>
<trkpt lat="53.0231780000" lon="-4.0550350000"><ele>120</ele><time>2016-09-30T11:37:35Z</time></trkpt>
<trkpt lat="53.0231780000" lon="-4.0550360000"><ele>120</ele><time>2016-09-30T11:37:36Z</time></trkpt>
<trkpt lat="53.0231780000" lon="-4.0550360000"><ele>120</ele><time>2016-09-30T11:37:37Z</time></trkpt>
<trkpt lat="53.0231780000" lon="-4.0550360000"><ele>120</ele><time>2016-09-30T11:37:38Z</time></trkpt>
<trkpt lat="53.0231780000" lon="-4.0550370000"><ele>120</ele><time>2016-09-30T11:37:39Z</time></trkpt>
<trkpt lat="53.0231770000" lon="-4.0550370000"><ele>120</ele><time>2016-09-30T11:37:40Z</time></trkpt>
<trkpt lat="53.0231770000" lon="-4.0550370000"><ele>120</ele><time>2016-09-30T11:37:41Z</time></trkpt>
<trkpt lat="53.0231770000" lon="-4.0550370000"><ele>120</ele><time>2016-09-30T11:37:42Z</time></trkpt>
<trkpt lat="53.0231770000" lon="-4.0550380000"><ele>120</ele><time>2016-09-30T11:37:44Z</time></trkpt>
<trkpt lat="53.0231770000" lon="-4.0550380000"><ele>120</ele></trkpt>
<trkpt lat="53.0231770000" lon="-4.0550380000"><ele>120</ele><time>2016-09-30T11:37:45Z</time></trkpt>
<trkpt lat="53.0231770000" lon="-4.0550380000"><ele>120</ele><time>2016-09-30T11:37:46Z</time></trkpt>
<trkpt lat="53.0231770000" lon="-4.0550380000"><ele>120</ele><time>2016-09-30T11:37:47Z</time></trkpt>
<trkpt lat="53.0231760000" lon="-4.0550380000"><ele>120</ele><time>2016-09-30T11:37:48Z</time></trkpt>
<trkpt lat="53.0231760000" lon="-4.0550380000"><ele>120</ele><time>2016-09-30T11:37:49Z</time></trkpt>
<trkpt lat="53.0231760000" lon="-4.0550380000"><ele>120</ele><time>2016-09-30T11:37:50Z</time></trkpt>
<trkpt lat="53.0231760000" lon="-4.0550380000"><ele>120</ele><time>2016-09-30T11:37:51Z</time></trkpt>
<trkpt lat="53.0231760000" lon="-4.0550380000"><ele>120</ele><time>2016-09-30T11:37:52Z</time></trkpt>
<trkpt lat="53.0231760000" lon="-4.0550380000"><ele>120</ele><time>2016-09-30T11:37:53Z</time></trkpt>
<trkpt lat="53.0231760000" lon="-4.0550380000"><ele>120</ele><time>2016-09-30T11:37:54Z</time></trkpt>
<trkpt lat="53.0231760000" lon="-4.0550380000"><ele>120</ele><time>2016-09-30T11:37:55Z</time></trkpt>
<trkpt lat="53.0231750000" lon="-4.0550380000"><ele>120</ele><time>2016-09-30T11:37:56Z</time></trkpt>
<trkpt lat="53.0231750000" lon="-4.0550380000"><ele>120</ele><time>2016-09-30T11:37:57Z</time></trkpt>
<trkpt lat="53.0231750000" lon="-4.0550380000"><ele>120</ele><time>2016-09-30T11:37:58Z</time></trkpt>
<trkpt lat="53.0231750000" lon="-4.0550380000"><ele>120</ele><time>2016-09-30T11:37:59Z</time></trkpt>
<trkpt lat="53.0231750000" lon="-4.0550380000"><ele>120</ele><time>2016-09-30T11:38:00Z</time></trkpt>
<trkpt lat="53.0231750000" lon="-4.0550380000"><ele>120</ele><time>2016-09-30T11:38:01Z</time></trkpt>
<trkpt lat="53.0231750000" lon="-4.0550380000"><ele>120</ele><time>2016-09-30T11:38:02Z</time></trkpt>
<trkpt lat="53.0231750000" lon="-4.0550380000"><ele>120</ele><time>2016-09-30T11:38:03Z</time></trkpt>
<trkpt lat="53.0231740000" lon="-4.0550380000"><ele>120</ele><time>2016-09-30T11:38:04Z</time></trkpt>
<trkpt lat="53.0231740000" lon="-4.0550380000"><ele>120</ele><time>2016-09-30T11:38:05Z</time></trkpt>
<trkpt lat="53.0231740000" lon="-4.0550380000"><ele>120</ele><time>2016-09-30T11:38:06Z</time></trkpt>
<trkpt lat="53.0231740000" lon="-4.0550380000"><ele>120</ele><time>2016-09-30T11:38:07Z</time></trkpt>
<trkpt lat="53.0231740000" lon="-4.0550380000"><ele>120</ele><time>2016-09-30T11:38:08Z</time></trkpt>
<trkpt lat="53.0231740000" lon="-4.0550380000"><ele>120</ele><time>2016-09-30T11:38:09Z</time></trkpt>
<trkpt lat="53.0231740000" lon="-4.0550380000"><ele>120</ele><time>2016-09-30T11:38:10Z</time></trkpt>
<trkpt lat="53.0231740000" lon="-4.0550380000"><ele>120</ele><time>2016-09-30T11:38:11Z</time></trkpt>
<trkpt lat="53.0231740000" lon="-4.0550380000"><ele>120</ele><time>2016-09-30T11:38:12Z</time></trkpt>
<trkpt lat="53.0231740000" lon="-4.0550380000"><ele>120</ele><time>2016-09-30T11:38:13Z</time></trkpt>
<trkpt lat="53.0231740000" lon="-4.0550380000"><ele>120</ele><time>2016-09-30T11:38:14Z</time></trkpt>
<trkpt lat="53.0231730000" lon="-4.0550380000"><ele>120</ele><time>2016-09-30T11:38:15Z</time></trkpt>
<trkpt lat="53.0231730000" lon="-4.0550380000"><ele>120</ele><time>2016-09-30T11:38:16Z</time></trkpt>
<trkpt lat="53.0231730000" lon="-4.0550380000"><ele>120</ele><time>2016-09-30T11:38:17Z</time></trkpt>
<trkpt lat="53.0231730000" lon="-4.0550380000"><ele>120</ele><time>2016-09-30T11:38:18Z</time></trkpt>
<trkpt lat="53.0231730000" lon="-4.0550380000"><ele>120</ele><time>2016-09-30T11:38:19Z</time></trkpt>
<trkpt lat="53.0231730000" lon="-4.0550380000"><ele>120</ele><time>2016-09-30T11:38:20Z</time></trkpt>
<trkpt lat="53.0231730000" lon="-4.0550380000"><ele>120</ele><time>2016-09-30T11:38:21Z</time></trkpt>
<trkpt lat="53.0231730000" lon="-4.0550380000"><ele>120</ele><time>2016-09-30T11:38:22Z</time></trkpt>
<trkpt lat="53.0231730000" lon="-4.0550380000"><ele>120</ele><time>2016-09-30T11:38:23Z</time></trkpt>
<trkpt lat="53.0231730000" lon="-4.0550380000"><ele>120</ele><time>2016-09-30T11:38:24Z</time></trkpt>
<trkpt lat="53.0231720000" lon="-4.0550380000"><ele>120</ele><time>2016-09-30T11:38:25Z</time></trkpt>
<trkpt lat="53.0231720000" lon="-4.0550380000"><ele>120</ele><time>2016-09-30T11:38:26Z</time></trkpt>
<trkpt lat="53.0231720000" lon="-4.0550380000"><ele>120</ele><time>2016-09-30T11:38:27Z</time></trkpt>
<trkpt lat="53.0231720000" lon="-4.0550380000"><ele>120</ele><time>2016-09-30T11:38:28Z</time></trkpt>
<trkpt lat="53.0231720000" lon="-4.0550380000"><ele>120</ele><time>2016-09-30T11:38:29Z</time></trkpt>
<trkpt lat="53.0231720000" lon="-4.0550380000"><ele>120</ele><time>2016-09-30T11:38:30Z</time></trkpt>
<trkpt lat="53.0231720000" lon="-4.0550380000"><ele>120</ele><time>2016-09-30T11:38:31Z</time></trkpt>
<trkpt lat="53.0231720000" lon="-4.0550380000"><ele>120</ele><time>2016-09-30T11:38:32Z</time></trkpt>
<trkpt lat="53.0231720000" lon="-4.0550380000"><ele>120</ele><time>2016-09-30T11:38:33Z</time></trkpt>
<trkpt lat="53.0231720000" lon="-4.0550380000"><ele>120</ele><time>2016-09-30T11:38:34Z</time></trkpt>
<trkpt lat="53.0231720000" lon="-4.0550380000"><ele>120</ele><time>2016-09-30T11:38:47Z</time></trkpt>
<trkpt lat="53.0231720000" lon="-4.0550380000"><ele>120</ele><time>2016-09-30T11:38:48Z</time></trkpt>
<trkpt lat="53.0231720000" lon="-4.0550380000"><ele>120</ele><time>2016-09-30T11:38:49Z</time></trkpt>
<trkpt lat="53.0231720000" lon="-4.0550380000"><ele>120</ele><time>2016-09-30T11:38:50Z</time></trkpt>
<trkpt lat="53.0231720000" lon="-4.0550380000"><ele>120</ele><time>2016-09-30T11:38:51Z</time></trkpt>
<trkpt lat="53.0231720000" lon="-4.0550380000"><ele>120</ele><time>2016-09-30T11:38:52Z</time></trkpt>
<trkpt lat="53.0231720000" lon="-4.0550380000"><ele>120</ele><time>2016-09-30T11:38:53Z</time></trkpt>
<trkpt lat="53.0231720000" lon="-4.0550380000"><ele>120</ele><time>2016-09-30T11:38:54Z</time></trkpt>
<trkpt lat="53.0231720000" lon="-4.0550380000"><ele>120</ele><time>2016-09-30T11:38:55Z</time></trkpt>
<trkpt lat="53.0231720000" lon="-4.0550380000"><ele>120</ele><time>2016-09-30T11:38:56Z</time></trkpt>
<trkpt lat="53.0231720000" lon="-4.0550370000"><ele>120</ele><time>2016-09-30T11:38:57Z</time></trkpt>
<trkpt lat="53.0231720000" lon="-4.0550370000"><ele>120</ele><time>2016-09-30T11:38:58Z</time></trkpt>
<trkpt lat="53.0231730000" lon="-4.0550370000"><ele>120</ele><time>2016-09-30T11:38:59Z</time></trkpt>
<trkpt lat="53.0231730000" lon="-4.0550370000"><ele>120</ele><time>2016-09-30T11:39:00Z</time></trkpt>
<trkpt lat="53.0231730000" lon="-4.0550370000"><ele>120</ele><time>2016-09-30T11:39:01Z</time></trkpt>
<trkpt lat="53.0231730000" lon="-4.0550370000"><ele>120</ele><time>2016-09-30T11:39:02Z</time></trkpt>
<trkpt lat="53.0231730000" lon="-4.0550370000"><ele>120</ele><time>2016-09-30T11:39:03Z</time></trkpt>
<trkpt lat="53.0231730000" lon="-4.0550370000"><ele>120</ele><time>2016-09-30T11:39:04Z</time></trkpt>
<trkpt lat="53.0231730000" lon="-4.0550370000"><ele>120</ele><time>2016-09-30T11:39:05Z</time></trkpt>
<trkpt lat="53.0231730000" lon="-4.0550370000"><ele>120</ele><time>2016-09-30T11:39:06Z</time></trkpt>
<trkpt lat="53.0231740000" lon="-4.0550370000"><ele>120</ele><time>2016-09-30T11:39:07Z</time></trkpt>
<trkpt lat="53.0231740000" lon="-4.0550370000"><ele>120</ele><time>2016-09-30T11:39:08Z</time></trkpt>
<trkpt lat="53.0231740000" lon="-4.0550370000"><ele>120</ele><time>2016-09-30T11:39:09Z</time></trkpt>
<trkpt lat="53.0231740000" lon="-4.0550370000"><ele>120</ele><time>2016-09-30T11:39:10Z</time></trkpt>
<trkpt lat="53.0231750000" lon="-4.0550370000"><ele>120</ele><time>2016-09-30T11:39:11Z</time></trkpt>
<trkpt lat="53.0231750000" lon="-4.0550370000"><ele>120</ele><time>2016-09-30T11:39:12Z</time></trkpt>
<trkpt lat="53.0231750000" lon="-4.0550370000"><ele>120</ele><time>2016-09-30T11:39:13Z</time></trkpt>
<trkpt lat="53.0231750000" lon="-4.0550370000"><ele>120</ele><time>2016-09-30T11:39:14Z</time></trkpt>
<trkpt lat="53.0231760000" lon="-4.0550370000"><ele>120</ele><time>2016-09-30T11:39:15Z</time></trkpt>
<trkpt lat="53.0231760000" lon="-4.0550370000"><ele>120</ele><time>2016-09-30T11:39:16Z</time></trkpt>
<trkpt lat="53.0231760000" lon="-4.0550370000"><ele>120</ele><time>2016-09-30T11:39:17Z</time></trkpt>
<trkpt lat="53.0231770000" lon="-4.0550370000"><ele>120</ele><time>2016-09-30T11:39:18Z</time></trkpt>
<trkpt lat="53.0231770000" lon="-4.0550370000"><ele>120</ele><time>2016-09-30T11:39:19Z</time></trkpt>
<trkpt lat="53.0231770000" lon="-4.0550370000"><ele>120</ele><time>2016-09-30T11:39:20Z</time></trkpt>
<trkpt lat="53.0231770000" lon="-4.0550370000"><ele>120</ele><time>2016-09-30T11:39:21Z</time></trkpt>
<trkpt lat="53.0231780000" lon="-4.0550370000"><ele>120</ele><time>2016-09-30T11:39:22Z</time></trkpt>
<trkpt lat="53.0231780000" lon="-4.0550370000"><ele>120</ele><time>2016-09-30T11:39:23Z</time></trkpt>
<trkpt lat="53.0231780000" lon="-4.0550370000"><ele>120</ele><time>2016-09-30T11:39:24Z</time></trkpt>
<trkpt lat="53.0231780000" lon="-4.0550370000"><ele>120</ele><time>2016-09-30T11:39:25Z</time></trkpt>
<trkpt lat="53.0231790000" lon="-4.0550370000"><ele>120</ele><time>2016-09-30T11:39:26Z</time></trkpt>
<trkpt lat="53.0231790000" lon="-4.0550370000"><ele>120</ele><time>2016-09-30T11:39:27Z</time></trkpt>
<trkpt lat="53.0231790000" lon="-4.0550370000"><ele>121</ele><time>2016-09-30T11:39:28Z</time></trkpt>
<trkpt lat="53.0231790000" lon="-4.0550370000"><ele>121</ele><time>2016-09-30T11:39:29Z</time></trkpt>
<trkpt lat="53.0231790000" lon="-4.0550370000"><ele>121</ele><time>2016-09-30T11:39:30Z</time></trkpt>
<trkpt lat="53.0231790000" lon="-4.0550370000"><ele>121</ele><time>2016-09-30T11:39:31Z</time></trkpt>
<trkpt lat="53.0231800000" lon="-4.0550370000"><ele>121</ele><time>2016-09-30T11:39:32Z</time></trkpt>
<trkpt lat="53.0231800000" lon="-4.0550370000"><ele>121</ele><time>2016-09-30T11:39:33Z</time></trkpt>
<trkpt lat="53.0231800000" lon="-4.0550370000"><ele>121</ele><time>2016-09-30T11:39:34Z</time></trkpt>
<trkpt lat="53.0231800000" lon="-4.0550370000"><ele>121</ele><time>2016-09-30T11:39:35Z</time></trkpt>
<trkpt lat="53.0231800000" lon="-4.0550370000"><ele>121</ele><time>2016-09-30T11:39:36Z</time></trkpt>
<trkpt lat="53.0231800000" lon="-4.0550370000"><ele>121</ele><time>2016-09-30T11:39:37Z</time></trkpt>
<trkpt lat="53.0231810000" lon="-4.0550370000"><ele>121</ele><time>2016-09-30T11:39:38Z</time></trkpt>
<trkpt lat="53.0231810000" lon="-4.0550370000"><ele>121</ele><time>2016-09-30T11:39:39Z</time></trkpt>
<trkpt lat="53.0231810000" lon="-4.0550370000"><ele>121</ele><time>2016-09-30T11:39:40Z</time></trkpt>
<trkpt lat="53.0231810000" lon="-4.0550370000"><ele>121</ele><time>2016-09-30T11:39:41Z</time></trkpt>
<trkpt lat="53.0231810000" lon="-4.0550370000"><ele>121</ele><time>2016-09-30T11:39:44Z</time></trkpt>
<trkpt lat="53.0231810000" lon="-4.0550370000"><ele>121</ele></trkpt>
<trkpt lat="53.0231820000" lon="-4.0550370000"><ele>121</ele><time>2016-09-30T11:39:45Z</time></trkpt>
<trkpt lat="53.0231820000" lon="-4.0550370000"><ele>121</ele><time>2016-09-30T11:39:46Z</time></trkpt>
<trkpt lat="53.0231820000" lon="-4.0550370000"><ele>121</ele><time>2016-09-30T11:39:47Z</time></trkpt>
<trkpt lat="53.0231820000" lon="-4.0550370000"><ele>121</ele><time>2016-09-30T11:39:48Z</time></trkpt>
<trkpt lat="53.0231820000" lon="-4.0550360000"><ele>121</ele><time>2016-09-30T11:39:49Z</time></trkpt>
<trkpt lat="53.0231820000" lon="-4.0550360000"><ele>121</ele><time>2016-09-30T11:39:50Z</time></trkpt>
<trkpt lat="53.0231820000" lon="-4.0550360000"><ele>121</ele><time>2016-09-30T11:39:51Z</time></trkpt>
<trkpt lat="53.0231820000" lon="-4.0550360000"><ele>121</ele><time>2016-09-30T11:39:52Z</time></trkpt>
<trkpt lat="53.0231820000" lon="-4.0550360000"><ele>121</ele><time>2016-09-30T11:39:53Z</time></trkpt>
<trkpt lat="53.0231830000" lon="-4.0550360000"><ele>121</ele><time>2016-09-30T11:39:54Z</time></trkpt>
<trkpt lat="53.0231830000" lon="-4.0550360000"><ele>121</ele><time>2016-09-30T11:39:55Z</time></trkpt>
<trkpt lat="53.0231830000" lon="-4.0550360000"><ele>121</ele><time>2016-09-30T11:39:56Z</time></trkpt>
<trkpt lat="53.0231830000" lon="-4.0550350000"><ele>121</ele><time>2016-09-30T11:39:57Z</time></trkpt>
<trkpt lat="53.0231830000" lon="-4.0550350000"><ele>121</ele><time>2016-09-30T11:39:58Z</time></trkpt>
<trkpt lat="53.0231830000" lon="-4.0550350000"><ele>121</ele><time>2016-09-30T11:39:59Z</time></trkpt>
<trkpt lat="53.0231830000" lon="-4.0550350000"><ele>121</ele><time>2016-09-30T11:40:00Z</time></trkpt>
<trkpt lat="53.0231830000" lon="-4.0550350000"><ele>121</ele><time>2016-09-30T11:40:01Z</time></trkpt>
<trkpt lat="53.0231840000" lon="-4.0550350000"><ele>121</ele><time>2016-09-30T11:40:02Z</time></trkpt>
<trkpt lat="53.0231840000" lon="-4.0550350000"><ele>121</ele><time>2016-09-30T11:40:03Z</time></trkpt>
<trkpt lat="53.0231840000" lon="-4.0550350000"><ele>121</ele><time>2016-09-30T11:40:04Z</time></trkpt>
<trkpt lat="53.0231840000" lon="-4.0550350000"><ele>121</ele><time>2016-09-30T11:40:05Z</time></trkpt>
<trkpt lat="53.0231840000" lon="-4.0550350000"><ele>121</ele><time>2016-09-30T11:40:06Z</time></trkpt>
<trkpt lat="53.0231840000" lon="-4.0550350000"><ele>121</ele><time>2016-09-30T11:40:07Z</time></trkpt>
<trkpt lat="53.0231840000" lon="-4.0550350000"><ele>121</ele><time>2016-09-30T11:40:08Z</time></trkpt>
<trkpt lat="53.0231850000" lon="-4.0550350000"><ele>121</ele><time>2016-09-30T11:40:09Z</time></trkpt>
<trkpt lat="53.0231850000" lon="-4.0550350000"><ele>121</ele><time>2016-09-30T11:40:10Z</time></trkpt>
<trkpt lat="53.0231850000" lon="-4.0550350000"><ele>121</ele><time>2016-09-30T11:40:11Z</time></trkpt>
<trkpt lat="53.0231850000" lon="-4.0550350000"><ele>121</ele><time>2016-09-30T11:40:12Z</time></trkpt>
<trkpt lat="53.0231850000" lon="-4.0550350000"><ele>121</ele><time>2016-09-30T11:40:13Z</time></trkpt>
<trkpt lat="53.0231850000" lon="-4.0550350000"><ele>121</ele><time>2016-09-30T11:40:14Z</time></trkpt>
<trkpt lat="53.0231850000" lon="-4.0550350000"><ele>121</ele><time>2016-09-30T11:40:15Z</time></trkpt>
<trkpt lat="53.0231860000" lon="-4.0550350000"><ele>121</ele><time>2016-09-30T11:40:16Z</time></trkpt>
<trkpt lat="53.0231860000" lon="-4.0550350000"><ele>121</ele><time>2016-09-30T11:40:17Z</time></trkpt>
<trkpt lat="53.0231860000" lon="-4.0550350000"><ele>121</ele><time>2016-09-30T11:40:18Z</time></trkpt>
<trkpt lat="53.0231860000" lon="-4.0550350000"><ele>121</ele><time>2016-09-30T11:40:19Z</time></trkpt>
<trkpt lat="53.0231860000" lon="-4.0550350000"><ele>121</ele><time>2016-09-30T11:40:20Z</time></trkpt>
<trkpt lat="53.0231860000" lon="-4.0550350000"><ele>121</ele><time>2016-09-30T11:40:21Z</time></trkpt>
<trkpt lat="53.0231860000" lon="-4.0550350000"><ele>121</ele><time>2016-09-30T11:40:22Z</time></trkpt>
<trkpt lat="53.0231860000" lon="-4.0550350000"><ele>121</ele><time>2016-09-30T11:40:23Z</time></trkpt>
<trkpt lat="53.0231870000" lon="-4.0550350000"><ele>121</ele><time>2016-09-30T11:40:24Z</time></trkpt>
<trkpt lat="53.0231870000" lon="-4.0550350000"><ele>121</ele><time>2016-09-30T11:40:25Z</time></trkpt>
<trkpt lat="53.0231870000" lon="-4.0550350000"><ele>121</ele><time>2016-09-30T11:40:26Z</time></trkpt>
<trkpt lat="53.0231870000" lon="-4.0550350000"><ele>121</ele><time>2016-09-30T11:40:27Z</time></trkpt>
<trkpt lat="53.0231870000" lon="-4.0550350000"><ele>121</ele><time>2016-09-30T11:40:28Z</time></trkpt>
<trkpt lat="53.0231870000" lon="-4.0550360000"><ele>121</ele><time>2016-09-30T11:40:29Z</time></trkpt>
<trkpt lat="53.0231870000" lon="-4.0550360000"><ele>121</ele><time>2016-09-30T11:40:30Z</time></trkpt>
<trkpt lat="53.0231870000" lon="-4.0550360000"><ele>121</ele><time>2016-09-30T11:40:31Z</time></trkpt>
<trkpt lat="53.0231870000" lon="-4.0550360000"><ele>121</ele><time>2016-09-30T11:40:32Z</time></trkpt>
<trkpt lat="53.0231870000" lon="-4.0550360000"><ele>121</ele><time>2016-09-30T11:40:33Z</time></trkpt>
<trkpt lat="53.0231880000" lon="-4.0550360000"><ele>121</ele><time>2016-09-30T11:40:34Z</time></trkpt>
<trkpt lat="53.0231880000" lon="-4.0550360000"><ele>121</ele><time>2016-09-30T11:40:35Z</time></trkpt>
<trkpt lat="53.0231880000" lon="-4.0550360000"><ele>121</ele><time>2016-09-30T11:40:36Z</time></trkpt>
<trkpt lat="53.0231880000" lon="-4.0550360000"><ele>121</ele><time>2016-09-30T11:40:37Z</time></trkpt>
<trkpt lat="53.0231880000" lon="-4.0550360000"><ele>121</ele><time>2016-09-30T11:40:38Z</time></trkpt>
<trkpt lat="53.0231880000" lon="-4.0550370000"><ele>121</ele><time>2016-09-30T11:40:39Z</time></trkpt>
<trkpt lat="53.0231880000" lon="-4.0550370000"><ele>121</ele><time>2016-09-30T11:40:40Z</time></trkpt>
<trkpt lat="53.0231880000" lon="-4.0550370000"><ele>121</ele><time>2016-09-30T11:40:41Z</time></trkpt>
<trkpt lat="53.0231880000" lon="-4.0550370000"><ele>121</ele><time>2016-09-30T11:40:44Z</time></trkpt>
<trkpt lat="53.0231880000" lon="-4.0550370000"><ele>121</ele><time>2016-09-30T11:41:00Z</time></trkpt>
<trkpt lat="53.0231880000" lon="-4.0550370000"><ele>121</ele><time>2016-09-30T11:41:01Z</time></trkpt>
<trkpt lat="53.0231880000" lon="-4.0550370000"><ele>121</ele><time>2016-09-30T11:41:02Z</time></trkpt>
<trkpt lat="53.0231880000" lon="-4.0550370000"><ele>121</ele><time>2016-09-30T11:41:03Z</time></trkpt>
<trkpt lat="53.0231880000" lon="-4.0550360000"><ele>121</ele><time>2016-09-30T11:41:04Z</time></trkpt>
<trkpt lat="53.0231880000" lon="-4.0550360000"><ele>121</ele><time>2016-09-30T11:41:05Z</time></trkpt>
<trkpt lat="53.0231880000" lon="-4.0550360000"><ele>121</ele><time>2016-09-30T11:41:06Z</time></trkpt>
<trkpt lat="53.0231880000" lon="-4.0550360000"><ele>121</ele><time>2016-09-30T11:41:07Z</time></trkpt>
<trkpt lat="53.0231880000" lon="-4.0550360000"><ele>121</ele><time>2016-09-30T11:41:08Z</time></trkpt>
<trkpt lat="53.0231880000" lon="-4.0550360000"><ele>121</ele><time>2016-09-30T11:41:09Z</time></trkpt>
<trkpt lat="53.0231880000" lon="-4.0550360000"><ele>121</ele><time>2016-09-30T11:41:10Z</time></trkpt>
<trkpt lat="53.0231880000" lon="-4.0550360000"><ele>121</ele><time>2016-09-30T11:41:11Z</time></trkpt>
<trkpt lat="53.0231880000" lon="-4.0550360000"><ele>122</ele><time>2016-09-30T11:41:12Z</time></trkpt>
<trkpt lat="53.0231880000" lon="-4.0550360000"><ele>122</ele><time>2016-09-30T11:41:13Z</time></trkpt>
<trkpt lat="53.0231880000" lon="-4.0550360000"><ele>122</ele><time>2016-09-30T11:41:14Z</time></trkpt>
<trkpt lat="53.0231880000" lon="-4.0550350000"><ele>122</ele><time>2016-09-30T11:41:15Z</time></trkpt>
<trkpt lat="53.0231880000" lon="-4.0550350000"><ele>122</ele><time>2016-09-30T11:41:16Z</time></trkpt>
<trkpt lat="53.0231880000" lon="-4.0550350000"><ele>122</ele><time>2016-09-30T11:41:18Z</time></trkpt>
<trkpt lat="53.0231880000" lon="-4.0550350000"><ele>122</ele><time>2016-09-30T11:41:22Z</time></trkpt>
<trkpt lat="53.0231880000" lon="-4.0550350000"><ele>122</ele><time>2016-09-30T11:41:23Z</time></trkpt>
<trkpt lat="53.0231880000" lon="-4.0550350000"><ele>122</ele><time>2016-09-30T11:41:24Z</time></trkpt>
<trkpt lat="53.0231880000" lon="-4.0550350000"><ele>122</ele><time>2016-09-30T11:41:27Z</time></trkpt>
<trkpt lat="53.0231880000" lon="-4.0550360000"><ele>122</ele><time>2016-09-30T11:41:28Z</time></trkpt>
<trkpt lat="53.0231880000" lon="-4.0550360000"><ele>122</ele><time>2016-09-30T11:41:29Z</time></trkpt>
<trkpt lat="53.0231880000" lon="-4.0550360000"><ele>122</ele><time>2016-09-30T11:41:30Z</time></trkpt>
<trkpt lat="53.0231880000" lon="-4.0550360000"><ele>122</ele><time>2016-09-30T11:41:31Z</time></trkpt>
<trkpt lat="53.0231880000" lon="-4.0550360000"><ele>122</ele><time>2016-09-30T11:41:32Z</time></trkpt>
<trkpt lat="53.0231880000" lon="-4.0550360000"><ele>122</ele><time>2016-09-30T11:41:33Z</time></trkpt>
<trkpt lat="53.0231880000" lon="-4.0550360000"><ele>122</ele><time>2016-09-30T11:41:34Z</time></trkpt>
<trkpt lat="53.0231880000" lon="-4.0550360000"><ele>122</ele><time>2016-09-30T11:41:35Z</time></trkpt>
<trkpt lat="53.0231880000" lon="-4.0550370000"><ele>122</ele><time>2016-09-30T11:41:36Z</time></trkpt>
<trkpt lat="53.0231880000" lon="-4.0550370000"><ele>122</ele><time>2016-09-30T11:41:37Z</time></trkpt>
<trkpt lat="53.0231880000" lon="-4.0550370000"><ele>122</ele><time>2016-09-30T11:41:38Z</time></trkpt>
<trkpt lat="53.0231890000" lon="-4.0550370000"><ele>122</ele><time>2016-09-30T11:41:39Z</time></trkpt>
<trkpt lat="53.0231890000" lon="-4.0550370000"><ele>122</ele><time>2016-09-30T11:41:40Z</time></trkpt>
<trkpt lat="53.0231890000" lon="-4.0550370000"><ele>122</ele><time>2016-09-30T11:41:41Z</time></trkpt>
<trkpt lat="53.0231890000" lon="-4.0550370000"><ele>122</ele><time>2016-09-30T11:41:44Z</time></trkpt>
<trkpt lat="53.0231890000" lon="-4.0550380000"><ele>122</ele></trkpt>
<trkpt lat="53.0231890000" lon="-4.0550380000"><ele>122</ele><time>2016-09-30T11:41:45Z</time></trkpt>
<trkpt lat="53.0231890000" lon="-4.0550380000"><ele>122</ele><time>2016-09-30T11:41:46Z</time></trkpt>
<trkpt lat="53.0231890000" lon="-4.0550380000"><ele>122</ele><time>2016-09-30T11:41:47Z</time></trkpt>
<trkpt lat="53.0231890000" lon="-4.0550380000"><ele>122</ele><time>2016-09-30T11:41:48Z</time></trkpt>
<trkpt lat="53.0231900000" lon="-4.0550390000"><ele>122</ele><time>2016-09-30T11:41:49Z</time></trkpt>
<trkpt lat="53.0231900000" lon="-4.0550390000"><ele>122</ele><time>2016-09-30T11:41:50Z</time></trkpt>
<trkpt lat="53.0231900000" lon="-4.0550390000"><ele>122</ele><time>2016-09-30T11:41:51Z</time></trkpt>
<trkpt lat="53.0231910000" lon="-4.0550390000"><ele>122</ele><time>2016-09-30T11:41:52Z</time></trkpt>
<trkpt lat="53.0231910000" lon="-4.0550400000"><ele>122</ele><time>2016-09-30T11:41:53Z</time></trkpt>
<trkpt lat="53.0231910000" lon="-4.0550400000"><ele>122</ele><time>2016-09-30T11:41:54Z</time></trkpt>
<trkpt lat="53.0231910000" lon="-4.0550400000"><ele>122</ele><time>2016-09-30T11:41:55Z</time></trkpt>
<trkpt lat="53.0231920000" lon="-4.0550400000"><ele>122</ele><time>2016-09-30T11:41:56Z</time></trkpt>
<trkpt lat="53.0231920000" lon="-4.0550400000"><ele>122</ele><time>2016-09-30T11:41:57Z</time></trkpt>
<trkpt lat="53.0231920000" lon="-4.0550410000"><ele>122</ele><time>2016-09-30T11:41:58Z</time></trkpt>
<trkpt lat="53.0231920000" lon="-4.0550410000"><ele>122</ele><time>2016-09-30T11:41:59Z</time></trkpt>
<trkpt lat="53.0231930000" lon="-4.0550410000"><ele>122</ele><time>2016-09-30T11:42:00Z</time></trkpt>
<trkpt lat="53.0231930000" lon="-4.0550410000"><ele>122</ele><time>2016-09-30T11:42:01Z</time></trkpt>
<trkpt lat="53.0231930000" lon="-4.0550410000"><ele>122</ele><time>2016-09-30T11:42:02Z</time></trkpt>
<trkpt lat="53.0231930000" lon="-4.0550410000"><ele>122</ele><time>2016-09-30T11:42:03Z</time></trkpt>
<trkpt lat="53.0231940000" lon="-4.0550410000"><ele>122</ele><time>2016-09-30T11:42:04Z</time></trkpt>
<trkpt lat="53.0231940000" lon="-4.0550410000"><ele>122</ele><time>2016-09-30T11:42:05Z</time></trkpt>
<trkpt lat="53.0231940000" lon="-4.0550410000"><ele>122</ele><time>2016-09-30T11:42:06Z</time></trkpt>
<trkpt lat="53.0231940000" lon="-4.0550410000"><ele>122</ele><time>2016-09-30T11:42:07Z</time></trkpt>
<trkpt lat="53.0231940000" lon="-4.0550420000"><ele>122</ele><time>2016-09-30T11:42:08Z</time></trkpt>
<trkpt lat="53.0231940000" lon="-4.0550420000"><ele>122</ele><time>2016-09-30T11:42:09Z</time></trkpt>
<trkpt lat="53.0231950000" lon="-4.0550420000"><ele>122</ele><time>2016-09-30T11:42:10Z</time></trkpt>
<trkpt lat="53.0231950000" lon="-4.0550420000"><ele>122</ele><time>2016-09-30T11:42:11Z</time></trkpt>
<trkpt lat="53.0231950000" lon="-4.0550420000"><ele>122</ele><time>2016-09-30T11:42:12Z</time></trkpt>
<trkpt lat="53.0231950000" lon="-4.0550420000"><ele>122</ele><time>2016-09-30T11:42:13Z</time></trkpt>
<trkpt lat="53.0231950000" lon="-4.0550420000"><ele>122</ele><time>2016-09-30T11:42:14Z</time></trkpt>
<trkpt lat="53.0231950000" lon="-4.0550420000"><ele>122</ele><time>2016-09-30T11:42:15Z</time></trkpt>
<trkpt lat="53.0231950000" lon="-4.0550420000"><ele>122</ele><time>2016-09-30T11:42:16Z</time></trkpt>
<trkpt lat="53.0231960000" lon="-4.0550420000"><ele>122</ele><time>2016-09-30T11:42:17Z</time></trkpt>
<trkpt lat="53.0231960000" lon="-4.0550420000"><ele>122</ele><time>2016-09-30T11:42:18Z</time></trkpt>
<trkpt lat="53.0231960000" lon="-4.0550420000"><ele>122</ele><time>2016-09-30T11:42:19Z</time></trkpt>
<trkpt lat="53.0231960000" lon="-4.0550420000"><ele>122</ele><time>2016-09-30T11:42:20Z</time></trkpt>
<trkpt lat="53.0231960000" lon="-4.0550420000"><ele>122</ele><time>2016-09-30T11:42:21Z</time></trkpt>
<trkpt lat="53.0231970000" lon="-4.0550420000"><ele>122</ele><time>2016-09-30T11:42:22Z</time></trkpt>
<trkpt lat="53.0231970000" lon="-4.0550420000"><ele>122</ele><time>2016-09-30T11:42:23Z</time></trkpt>
<trkpt lat="53.0231970000" lon="-4.0550420000"><ele>121</ele><time>2016-09-30T11:42:24Z</time></trkpt>
<trkpt lat="53.0231970000" lon="-4.0550420000"><ele>121</ele><time>2016-09-30T11:42:25Z</time></trkpt>
<trkpt lat="53.0231970000" lon="-4.0550420000"><ele>121</ele><time>2016-09-30T11:42:26Z</time></trkpt>
<trkpt lat="53.0231970000" lon="-4.0550420000"><ele>121</ele><time>2016-09-30T11:42:27Z</time></trkpt>
<trkpt lat="53.0231980000" lon="-4.0550420000"><ele>121</ele><time>2016-09-30T11:42:28Z</time></trkpt>
<trkpt lat="53.0231980000" lon="-4.0550420000"><ele>121</ele><time>2016-09-30T11:42:29Z</time></trkpt>
<trkpt lat="53.0231980000" lon="-4.0550420000"><ele>121</ele><time>2016-09-30T11:42:30Z</time></trkpt>
<trkpt lat="53.0231980000" lon="-4.0550430000"><ele>121</ele><time>2016-09-30T11:42:31Z</time></trkpt>
<trkpt lat="53.0231980000" lon="-4.0550430000"><ele>121</ele><time>2016-09-30T11:42:32Z</time></trkpt>
<trkpt lat="53.0231980000" lon="-4.0550430000"><ele>121</ele><time>2016-09-30T11:42:33Z</time></trkpt>
<trkpt lat="53.0231980000" lon="-4.0550430000"><ele>121</ele><time>2016-09-30T11:42:34Z</time></trkpt>
<trkpt lat="53.0231990000" lon="-4.0550430000"><ele>121</ele><time>2016-09-30T11:42:35Z</time></trkpt>
<trkpt lat="53.0231990000" lon="-4.0550430000"><ele>121</ele><time>2016-09-30T11:42:36Z</time></trkpt>
<trkpt lat="53.0231990000" lon="-4.0550440000"><ele>121</ele><time>2016-09-30T11:42:37Z</time></trkpt>
<trkpt lat="53.0231990000" lon="-4.0550440000"><ele>121</ele><time>2016-09-30T11:42:38Z</time></trkpt>
<trkpt lat="53.0231990000" lon="-4.0550440000"><ele>121</ele><time>2016-09-30T11:42:39Z</time></trkpt>
<trkpt lat="53.0231990000" lon="-4.0550440000"><ele>121</ele><time>2016-09-30T11:42:40Z</time></trkpt>
<trkpt lat="53.0231990000" lon="-4.0550450000"><ele>121</ele><time>2016-09-30T11:42:41Z</time></trkpt>
<trkpt lat="53.0232000000" lon="-4.0550450000"><ele>121</ele><time>2016-09-30T11:42:44Z</time></trkpt>
<trkpt lat="53.0232000000" lon="-4.0550450000"><ele>121</ele><time>2016-09-30T11:42:45Z</time></trkpt>
<trkpt lat="53.0232000000" lon="-4.0550460000"><ele>121</ele><time>2016-09-30T11:42:46Z</time></trkpt>
<trkpt lat="53.0232000000" lon="-4.0550460000"><ele>121</ele><time>2016-09-30T11:42:47Z</time></trkpt>
<trkpt lat="53.0232000000" lon="-4.0550460000"><ele>121</ele><time>2016-09-30T11:42:48Z</time></trkpt>
<trkpt lat="53.0232000000" lon="-4.0550460000"><ele>121</ele><time>2016-09-30T11:42:49Z</time></trkpt>
<trkpt lat="53.0232000000" lon="-4.0550460000"><ele>121</ele><time>2016-09-30T11:42:50Z</time></trkpt>
<trkpt lat="53.0232000000" lon="-4.0550470000"><ele>121</ele><time>2016-09-30T11:42:51Z</time></trkpt>
<trkpt lat="53.0232000000" lon="-4.0550470000"><ele>121</ele><time>2016-09-30T11:42:52Z</time></trkpt>
<trkpt lat="53.0232000000" lon="-4.0550470000"><ele>121</ele><time>2016-09-30T11:42:53Z</time></trkpt>
<trkpt lat="53.0232000000" lon="-4.0550470000"><ele>121</ele><time>2016-09-30T11:42:54Z</time></trkpt>
<trkpt lat="53.0232000000" lon="-4.0550470000"><ele>121</ele><time>2016-09-30T11:42:55Z</time></trkpt>
<trkpt lat="53.0232010000" lon="-4.0550470000"><ele>121</ele><time>2016-09-30T11:42:56Z</time></trkpt>
<trkpt lat="53.0232010000" lon="-4.0550480000"><ele>121</ele><time>2016-09-30T11:42:57Z</time></trkpt>
<trkpt lat="53.0232010000" lon="-4.0550480000"><ele>121</ele><time>2016-09-30T11:42:58Z</time></trkpt>
<trkpt lat="53.0232010000" lon="-4.0550480000"><ele>121</ele><time>2016-09-30T11:42:59Z</time></trkpt>
<trkpt lat="53.0232010000" lon="-4.0550480000"><ele>121</ele><time>2016-09-30T11:43:00Z</time></trkpt>
<trkpt lat="53.0232010000" lon="-4.0550480000"><ele>121</ele><time>2016-09-30T11:43:01Z</time></trkpt>
<trkpt lat="53.0232010000" lon="-4.0550480000"><ele>121</ele><time>2016-09-30T11:43:02Z</time></trkpt>
<trkpt lat="53.0232010000" lon="-4.0550490000"><ele>121</ele><time>2016-09-30T11:43:03Z</time></trkpt>
<trkpt lat="53.0232010000" lon="-4.0550490000"><ele>121</ele><time>2016-09-30T11:43:04Z</time></trkpt>
<trkpt lat="53.0232010000" lon="-4.0550490000"><ele>121</ele><time>2016-09-30T11:43:05Z</time></trkpt>
<trkpt lat="53.0232010000" lon="-4.0550490000"><ele>121</ele><time>2016-09-30T11:43:06Z</time></trkpt>
<trkpt lat="53.0232010000" lon="-4.0550490000"><ele>120</ele><time>2016-09-30T11:43:07Z</time></trkpt>
<trkpt lat="53.0232010000" lon="-4.0550490000"><ele>120</ele><time>2016-09-30T11:43:08Z</time></trkpt>
<trkpt lat="53.0232010000" lon="-4.0550490000"><ele>120</ele><time>2016-09-30T11:43:09Z</time></trkpt>
<trkpt lat="53.0232010000" lon="-4.0550490000"><ele>120</ele><time>2016-09-30T11:43:10Z</time></trkpt>
<trkpt lat="53.0232010000" lon="-4.0550490000"><ele>120</ele><time>2016-09-30T11:43:11Z</time></trkpt>
<trkpt lat="53.0232010000" lon="-4.0550490000"><ele>120</ele><time>2016-09-30T11:43:12Z</time></trkpt>
<trkpt lat="53.0232010000" lon="-4.0550500000"><ele>120</ele><time>2016-09-30T11:43:13Z</time></trkpt>
<trkpt lat="53.0232010000" lon="-4.0550500000"><ele>120</ele><time>2016-09-30T11:43:14Z</time></trkpt>
<trkpt lat="53.0232010000" lon="-4.0550500000"><ele>120</ele><time>2016-09-30T11:43:15Z</time></trkpt>
<trkpt lat="53.0232010000" lon="-4.0550500000"><ele>120</ele><time>2016-09-30T11:43:16Z</time></trkpt>
<trkpt lat="53.0232010000" lon="-4.0550500000"><ele>120</ele><time>2016-09-30T11:43:18Z</time></trkpt>
<trkpt lat="53.0232010000" lon="-4.0550500000"><ele>120</ele><time>2016-09-30T11:43:19Z</time></trkpt>
<trkpt lat="53.0232010000" lon="-4.0550500000"><ele>120</ele><time>2016-09-30T11:43:20Z</time></trkpt>
<trkpt lat="53.0232010000" lon="-4.0550500000"><ele>120</ele><time>2016-09-30T11:43:21Z</time></trkpt>
<trkpt lat="53.0232010000" lon="-4.0550500000"><ele>120</ele><time>2016-09-30T11:43:22Z</time></trkpt>
<trkpt lat="53.0232010000" lon="-4.0550500000"><ele>120</ele><time>2016-09-30T11:43:23Z</time></trkpt>
<trkpt lat="53.0232010000" lon="-4.0550500000"><ele>120</ele><time>2016-09-30T11:43:24Z</time></trkpt>
<trkpt lat="53.0232010000" lon="-4.0550500000"><ele>120</ele><time>2016-09-30T11:43:25Z</time></trkpt>
<trkpt lat="53.0232010000" lon="-4.0550510000"><ele>120</ele><time>2016-09-30T11:43:26Z</time></trkpt>
<trkpt lat="53.0232010000" lon="-4.0550510000"><ele>120</ele><time>2016-09-30T11:43:27Z</time></trkpt>
<trkpt lat="53.0232010000" lon="-4.0550510000"><ele>120</ele><time>2016-09-30T11:43:28Z</time></trkpt>
<trkpt lat="53.0232010000" lon="-4.0550510000"><ele>120</ele><time>2016-09-30T11:43:29Z</time></trkpt>
<trkpt lat="53.0232010000" lon="-4.0550510000"><ele>120</ele><time>2016-09-30T11:43:30Z</time></trkpt>
<trkpt lat="53.0232010000" lon="-4.0550510000"><ele>120</ele><time>2016-09-30T11:43:31Z</time></trkpt>
<trkpt lat="53.0232010000" lon="-4.0550510000"><ele>120</ele><time>2016-09-30T11:43:32Z</time></trkpt>
<trkpt lat="53.0232010000" lon="-4.0550510000"><ele>120</ele><time>2016-09-30T11:43:33Z</time></trkpt>
<trkpt lat="53.0232010000" lon="-4.0550510000"><ele>120</ele><time>2016-09-30T11:43:34Z</time></trkpt>
<trkpt lat="53.0232020000" lon="-4.0550510000"><ele>120</ele><time>2016-09-30T11:43:35Z</time></trkpt>
<trkpt lat="53.0232020000" lon="-4.0550520000"><ele>120</ele><time>2016-09-30T11:43:36Z</time></trkpt>
<trkpt lat="53.0232020000" lon="-4.0550520000"><ele>120</ele><time>2016-09-30T11:43:37Z</time></trkpt>
<trkpt lat="53.0232020000" lon="-4.0550520000"><ele>120</ele><time>2016-09-30T11:43:38Z</time></trkpt>
<trkpt lat="53.0232020000" lon="-4.0550520000"><ele>120</ele><time>2016-09-30T11:43:39Z</time></trkpt>
<trkpt lat="53.0232020000" lon="-4.0550520000"><ele>120</ele><time>2016-09-30T11:43:40Z</time></trkpt>
<trkpt lat="53.0232020000" lon="-4.0550520000"><ele>120</ele><time>2016-09-30T11:43:41Z</time></trkpt>
<trkpt lat="53.0232020000" lon="-4.0550530000"><ele>120</ele><time>2016-09-30T11:43:44Z</time></trkpt>
<trkpt lat="53.0232020000" lon="-4.0550530000"><ele>120</ele></trkpt>
<trkpt lat="53.0232020000" lon="-4.0550530000"><ele>120</ele><time>2016-09-30T11:43:45Z</time></trkpt>
<trkpt lat="53.0232020000" lon="-4.0550530000"><ele>120</ele><time>2016-09-30T11:43:46Z</time></trkpt>
<trkpt lat="53.0232020000" lon="-4.0550530000"><ele>120</ele><time>2016-09-30T11:43:47Z</time></trkpt>
<trkpt lat="53.0232030000" lon="-4.0550530000"><ele>120</ele><time>2016-09-30T11:43:48Z</time></trkpt>
<trkpt lat="53.0232020000" lon="-4.0550530000"><ele>120</ele><time>2016-09-30T11:43:49Z</time></trkpt>
<trkpt lat="53.0232020000" lon="-4.0550530000"><ele>120</ele><time>2016-09-30T11:43:50Z</time></trkpt>
<trkpt lat="53.0232020000" lon="-4.0550530000"><ele>120</ele><time>2016-09-30T11:43:51Z</time></trkpt>
<trkpt lat="53.0232020000" lon="-4.0550530000"><ele>120</ele><time>2016-09-30T11:43:52Z</time></trkpt>
<trkpt lat="53.0232020000" lon="-4.0550520000"><ele>120</ele><time>2016-09-30T11:43:53Z</time></trkpt>
<trkpt lat="53.0232020000" lon="-4.0550520000"><ele>121</ele><time>2016-09-30T11:43:54Z</time></trkpt>
<trkpt lat="53.0232020000" lon="-4.0550520000"><ele>121</ele><time>2016-09-30T11:43:55Z</time></trkpt>
<trkpt lat="53.0232020000" lon="-4.0550510000"><ele>121</ele><time>2016-09-30T11:43:56Z</time></trkpt>
<trkpt lat="53.0232020000" lon="-4.0550500000"><ele>121</ele><time>2016-09-30T11:43:57Z</time></trkpt>
<trkpt lat="53.0232020000" lon="-4.0550490000"><ele>121</ele><time>2016-09-30T11:43:58Z</time></trkpt>
<trkpt lat="53.0232020000" lon="-4.0550480000"><ele>121</ele><time>2016-09-30T11:43:59Z</time></trkpt>
<trkpt lat="53.0232020000" lon="-4.0550470000"><ele>121</ele><time>2016-09-30T11:44:00Z</time></trkpt>
<trkpt lat="53.0232020000" lon="-4.0550460000"><ele>121</ele><time>2016-09-30T11:44:01Z</time></trkpt>
<trkpt lat="53.0232020000" lon="-4.0550450000"><ele>121</ele><time>2016-09-30T11:44:02Z</time></trkpt>
<trkpt lat="53.0232020000" lon="-4.0550440000"><ele>121</ele><time>2016-09-30T11:44:03Z</time></trkpt>
<trkpt lat="53.0232020000" lon="-4.0550430000"><ele>121</ele><time>2016-09-30T11:44:04Z</time></trkpt>
<trkpt lat="53.0232020000" lon="-4.0550420000"><ele>121</ele><time>2016-09-30T11:44:05Z</time></trkpt>
<trkpt lat="53.0232020000" lon="-4.0550410000"><ele>121</ele><time>2016-09-30T11:44:06Z</time></trkpt>
<trkpt lat="53.0232020000" lon="-4.0550410000"><ele>121</ele><time>2016-09-30T11:44:07Z</time></trkpt>
<trkpt lat="53.0232020000" lon="-4.0550400000"><ele>121</ele><time>2016-09-30T11:44:08Z</time></trkpt>
<trkpt lat="53.0232020000" lon="-4.0550400000"><ele>121</ele><time>2016-09-30T11:44:09Z</time></trkpt>
<trkpt lat="53.0232030000" lon="-4.0550400000"><ele>121</ele><time>2016-09-30T11:44:10Z</time></trkpt>
<trkpt lat="53.0232030000" lon="-4.0550400000"><ele>121</ele><time>2016-09-30T11:44:11Z</time></trkpt>
<trkpt lat="53.0231880000" lon="-4.0550360000"><ele>120</ele><time>2016-09-30T11:45:13Z</time></trkpt>
<trkpt lat="53.0231870000" lon="-4.0550360000"><ele>120</ele><time>2016-09-30T11:45:14Z</time></trkpt>
<trkpt lat="53.0231860000" lon="-4.0550360000"><ele>120</ele><time>2016-09-30T11:45:15Z</time></trkpt>
<trkpt lat="53.0231860000" lon="-4.0550360000"><ele>121</ele><time>2016-09-30T11:45:16Z</time></trkpt>
<trkpt lat="53.0231850000" lon="-4.0550360000"><ele>121</ele><time>2016-09-30T11:45:17Z</time></trkpt>
<trkpt lat="53.0231840000" lon="-4.0550360000"><ele>121</ele><time>2016-09-30T11:45:18Z</time></trkpt>
<trkpt lat="53.0231830000" lon="-4.0550360000"><ele>121</ele><time>2016-09-30T11:45:19Z</time></trkpt>
<trkpt lat="53.0231820000" lon="-4.0550360000"><ele>121</ele><time>2016-09-30T11:45:20Z</time></trkpt>
<trkpt lat="53.0231820000" lon="-4.0550360000"><ele>121</ele><time>2016-09-30T11:45:21Z</time></trkpt>
<trkpt lat="53.0231810000" lon="-4.0550360000"><ele>121</ele><time>2016-09-30T11:45:22Z</time></trkpt>
<trkpt lat="53.0231810000" lon="-4.0550360000"><ele>121</ele><time>2016-09-30T11:45:23Z</time></trkpt>
<trkpt lat="53.0231800000" lon="-4.0550360000"><ele>121</ele><time>2016-09-30T11:45:24Z</time></trkpt>
<trkpt lat="53.0231800000" lon="-4.0550360000"><ele>121</ele><time>2016-09-30T11:45:25Z</time></trkpt>
<trkpt lat="53.0231800000" lon="-4.0550360000"><ele>121</ele><time>2016-09-30T11:45:26Z</time></trkpt>
<trkpt lat="53.0231790000" lon="-4.0550360000"><ele>121</ele><time>2016-09-30T11:45:27Z</time></trkpt>
<trkpt lat="53.0231790000" lon="-4.0550360000"><ele>121</ele><time>2016-09-30T11:45:28Z</time></trkpt>
<trkpt lat="53.0231790000" lon="-4.0550360000"><ele>121</ele><time>2016-09-30T11:45:29Z</time></trkpt>
<trkpt lat="53.0231780000" lon="-4.0550360000"><ele>121</ele><time>2016-09-30T11:45:30Z</time></trkpt>
<trkpt lat="53.0231780000" lon="-4.0550370000"><ele>121</ele><time>2016-09-30T11:45:31Z</time></trkpt>
<trkpt lat="53.0231780000" lon="-4.0550370000"><ele>121</ele><time>2016-09-30T11:45:32Z</time></trkpt>
<trkpt lat="53.0231770000" lon="-4.0550370000"><ele>121</ele><time>2016-09-30T11:45:33Z</time></trkpt>
<trkpt lat="53.0231770000" lon="-4.0550370000"><ele>121</ele><time>2016-09-30T11:45:34Z</time></trkpt>
<trkpt lat="53.0231760000" lon="-4.0550370000"><ele>121</ele><time>2016-09-30T11:45:35Z</time></trkpt>
<trkpt lat="53.0231760000" lon="-4.0550380000"><ele>121</ele><time>2016-09-30T11:45:36Z</time></trkpt>
<trkpt lat="53.0231760000" lon="-4.0550380000"><ele>121</ele><time>2016-09-30T11:45:37Z</time></trkpt>
<trkpt lat="53.0231750000" lon="-4.0550380000"><ele>121</ele><time>2016-09-30T11:45:38Z</time></trkpt>
<trkpt lat="53.0231750000" lon="-4.0550380000"><ele>121</ele><time>2016-09-30T11:45:39Z</time></trkpt>
<trkpt lat="53.0231750000" lon="-4.0550390000"><ele>121</ele><time>2016-09-30T11:45:40Z</time></trkpt>
<trkpt lat="53.0231750000" lon="-4.0550390000"><ele>121</ele><time>2016-09-30T11:45:41Z</time></trkpt>
<trkpt lat="53.0231740000" lon="-4.0550390000"><ele>121</ele><time>2016-09-30T11:45:42Z</time></trkpt>
<trkpt lat="53.0231740000" lon="-4.0550400000"><ele>121</ele><time>2016-09-30T11:45:43Z</time></trkpt>
<trkpt lat="53.0231740000" lon="-4.0550400000"><ele>121</ele><time>2016-09-30T11:45:44Z</time></trkpt>
<trkpt lat="53.0231730000" lon="-4.0550410000"><ele>121</ele><time>2016-09-30T11:45:45Z</time></trkpt>
<trkpt lat="53.0231730000" lon="-4.0550410000"><ele>121</ele><time>2016-09-30T11:45:46Z</time></trkpt>
<trkpt lat="53.0231720000" lon="-4.0550410000"><ele>121</ele><time>2016-09-30T11:45:47Z</time></trkpt>
<trkpt lat="53.0231720000" lon="-4.0550420000"><ele>121</ele><time>2016-09-30T11:45:48Z</time></trkpt>
<trkpt lat="53.0231710000" lon="-4.0550420000"><ele>121</ele><time>2016-09-30T11:45:49Z</time></trkpt>
<trkpt lat="53.0231710000" lon="-4.0550430000"><ele>121</ele><time>2016-09-30T11:45:50Z</time></trkpt>
<trkpt lat="53.0231700000" lon="-4.0550430000"><ele>121</ele><time>2016-09-30T11:45:51Z</time></trkpt>
<trkpt lat="53.0231700000" lon="-4.0550440000"><ele>121</ele><time>2016-09-30T11:45:52Z</time></trkpt>
<trkpt lat="53.0231690000" lon="-4.0550440000"><ele>121</ele><time>2016-09-30T11:45:53Z</time></trkpt>
<trkpt lat="53.0231690000" lon="-4.0550450000"><ele>121</ele><time>2016-09-30T11:45:54Z</time></trkpt>
<trkpt lat="53.0231680000" lon="-4.0550450000"><ele>121</ele><time>2016-09-30T11:45:55Z</time></trkpt>
<trkpt lat="53.0231680000" lon="-4.0550460000"><ele>121</ele><time>2016-09-30T11:45:56Z</time></trkpt>
<trkpt lat="53.0231670000" lon="-4.0550460000"><ele>121</ele><time>2016-09-30T11:45:57Z</time></trkpt>
<trkpt lat="53.0231660000" lon="-4.0550460000"><ele>121</ele><time>2016-09-30T11:45:58Z</time></trkpt>
<trkpt lat="53.0231660000" lon="-4.0550460000"><ele>121</ele><time>2016-09-30T11:45:59Z</time></trkpt>
<trkpt lat="53.0231650000" lon="-4.0550460000"><ele>121</ele><time>2016-09-30T11:46:00Z</time></trkpt>
<trkpt lat="53.0231640000" lon="-4.0550470000"><ele>121</ele><time>2016-09-30T11:46:01Z</time></trkpt>
<trkpt lat="53.0231640000" lon="-4.0550470000"><ele>121</ele><time>2016-09-30T11:46:02Z</time></trkpt>
<trkpt lat="53.0231630000" lon="-4.0550470000"><ele>121</ele><time>2016-09-30T11:46:03Z</time></trkpt>
<trkpt lat="53.0231620000" lon="-4.0550470000"><ele>121</ele><time>2016-09-30T11:46:04Z</time></trkpt>
<trkpt lat="53.0231610000" lon="-4.0550470000"><ele>121</ele><time>2016-09-30T11:46:05Z</time></trkpt>
<trkpt lat="53.0231610000" lon="-4.0550470000"><ele>121</ele><time>2016-09-30T11:46:06Z</time></trkpt>
<trkpt lat="53.0231600000" lon="-4.0550470000"><ele>121</ele><time>2016-09-30T11:46:07Z</time></trkpt>
<trkpt lat="53.0231600000" lon="-4.0550470000"><ele>121</ele><time>2016-09-30T11:46:08Z</time></trkpt>
<trkpt lat="53.0231590000" lon="-4.0550480000"><ele>121</ele><time>2016-09-30T11:46:09Z</time></trkpt>
<trkpt lat="53.0231590000" lon="-4.0550480000"><ele>121</ele><time>2016-09-30T11:46:10Z</time></trkpt>
<trkpt lat="53.0231590000" lon="-4.0550480000"><ele>121</ele><time>2016-09-30T11:46:11Z</time></trkpt>
<trkpt lat="53.0231580000" lon="-4.0550480000"><ele>121</ele><time>2016-09-30T11:46:12Z</time></trkpt>
<trkpt lat="53.0231580000" lon="-4.0550480000"><ele>121</ele><time>2016-09-30T11:46:13Z</time></trkpt>
<trkpt lat="53.0231580000" lon="-4.0550480000"><ele>121</ele><time>2016-09-30T11:46:14Z</time></trkpt>
<trkpt lat="53.0231570000" lon="-4.0550480000"><ele>121</ele><time>2016-09-30T11:46:15Z</time></trkpt>
<trkpt lat="53.0231570000" lon="-4.0550480000"><ele>121</ele><time>2016-09-30T11:46:16Z</time></trkpt>
<trkpt lat="53.0231570000" lon="-4.0550480000"><ele>121</ele><time>2016-09-30T11:46:17Z</time></trkpt>
<trkpt lat="53.0231560000" lon="-4.0550480000"><ele>121</ele><time>2016-09-30T11:46:18Z</time></trkpt>
<trkpt lat="53.0231560000" lon="-4.0550480000"><ele>121</ele><time>2016-09-30T11:46:19Z</time></trkpt>
<trkpt lat="53.0231560000" lon="-4.0550480000"><ele>121</ele><time>2016-09-30T11:46:20Z</time></trkpt>
<trkpt lat="53.0231550000" lon="-4.0550480000"><ele>121</ele><time>2016-09-30T11:46:21Z</time></trkpt>
<trkpt lat="53.0231550000" lon="-4.0550480000"><ele>121</ele><time>2016-09-30T11:46:22Z</time></trkpt>
<trkpt lat="53.0231540000" lon="-4.0550480000"><ele>121</ele><time>2016-09-30T11:46:23Z</time></trkpt>
<trkpt lat="53.0231540000" lon="-4.0550480000"><ele>121</ele><time>2016-09-30T11:46:24Z</time></trkpt>
<trkpt lat="53.0231530000" lon="-4.0550480000"><ele>121</ele><time>2016-09-30T11:46:25Z</time></trkpt>
<trkpt lat="53.0231530000" lon="-4.0550480000"><ele>121</ele><time>2016-09-30T11:46:26Z</time></trkpt>
<trkpt lat="53.0231530000" lon="-4.0550480000"><ele>122</ele><time>2016-09-30T11:46:27Z</time></trkpt>
<trkpt lat="53.0231520000" lon="-4.0550480000"><ele>122</ele><time>2016-09-30T11:46:28Z</time></trkpt>
<trkpt lat="53.0231510000" lon="-4.0550480000"><ele>122</ele><time>2016-09-30T11:46:29Z</time></trkpt>
<trkpt lat="53.0231510000" lon="-4.0550480000"><ele>122</ele><time>2016-09-30T11:46:30Z</time></trkpt>
<trkpt lat="53.0231500000" lon="-4.0550480000"><ele>122</ele><time>2016-09-30T11:46:31Z</time></trkpt>
<trkpt lat="53.0231490000" lon="-4.0550480000"><ele>122</ele><time>2016-09-30T11:46:32Z</time></trkpt>
<trkpt lat="53.0231490000" lon="-4.0550480000"><ele>122</ele><time>2016-09-30T11:46:33Z</time></trkpt>
<trkpt lat="53.0231480000" lon="-4.0550480000"><ele>122</ele><time>2016-09-30T11:46:34Z</time></trkpt>
<trkpt lat="53.0231470000" lon="-4.0550480000"><ele>122</ele><time>2016-09-30T11:46:35Z</time></trkpt>
<trkpt lat="53.0231470000" lon="-4.0550480000"><ele>122</ele><time>2016-09-30T11:46:36Z</time></trkpt>
<trkpt lat="53.0231470000" lon="-4.0550480000"><ele>122</ele><time>2016-09-30T11:46:37Z</time></trkpt>
<trkpt lat="53.0231460000" lon="-4.0550480000"><ele>122</ele><time>2016-09-30T11:46:38Z</time></trkpt>
<trkpt lat="53.0231460000" lon="-4.0550480000"><ele>122</ele><time>2016-09-30T11:46:39Z</time></trkpt>
<trkpt lat="53.0231460000" lon="-4.0550480000"><ele>122</ele><time>2016-09-30T11:46:40Z</time></trkpt>
<trkpt lat="53.0231450000" lon="-4.0550480000"><ele>122</ele><time>2016-09-30T11:46:41Z</time></trkpt>
<trkpt lat="53.0231450000" lon="-4.0550480000"><ele>122</ele><time>2016-09-30T11:46:42Z</time></trkpt>
<trkpt lat="53.0231450000" lon="-4.0550480000"><ele>122</ele><time>2016-09-30T11:46:43Z</time></trkpt>
<trkpt lat="53.0231450000" lon="-4.0550480000"><ele>122</ele><time>2016-09-30T11:46:44Z</time></trkpt>
<trkpt lat="53.0231450000" lon="-4.0550480000"><ele>122</ele><time>2016-09-30T11:46:46Z</time></trkpt>
<trkpt lat="53.0231450000" lon="-4.0550480000"><ele>122</ele><time>2016-09-30T11:46:47Z</time></trkpt>
<trkpt lat="53.0231450000" lon="-4.0550480000"><ele>122</ele><time>2016-09-30T11:46:48Z</time></trkpt>
<trkpt lat="53.0231460000" lon="-4.0550490000"><ele>122</ele><time>2016-09-30T11:46:49Z</time></trkpt>
<trkpt lat="53.0231460000" lon="-4.0550490000"><ele>122</ele><time>2016-09-30T11:46:50Z</time></trkpt>
<trkpt lat="53.0231460000" lon="-4.0550490000"><ele>122</ele><time>2016-09-30T11:46:51Z</time></trkpt>
<trkpt lat="53.0231460000" lon="-4.0550490000"><ele>122</ele><time>2016-09-30T11:46:52Z</time></trkpt>
<trkpt lat="53.0231470000" lon="-4.0550490000"><ele>122</ele><time>2016-09-30T11:46:53Z</time></trkpt>
<trkpt lat="53.0231470000" lon="-4.0550490000"><ele>122</ele><time>2016-09-30T11:46:54Z</time></trkpt>
<trkpt lat="53.0231470000" lon="-4.0550500000"><ele>122</ele><time>2016-09-30T11:46:55Z</time></trkpt>
<trkpt lat="53.0231480000" lon="-4.0550500000"><ele>122</ele><time>2016-09-30T11:46:56Z</time></trkpt>
<trkpt lat="53.0231480000" lon="-4.0550500000"><ele>122</ele><time>2016-09-30T11:46:57Z</time></trkpt>
<trkpt lat="53.0231480000" lon="-4.0550500000"><ele>122</ele><time>2016-09-30T11:46:58Z</time></trkpt>
<trkpt lat="53.0231480000" lon="-4.0550510000"><ele>122</ele><time>2016-09-30T11:46:59Z</time></trkpt>
<trkpt lat="53.0231480000" lon="-4.0550510000"><ele>122</ele><time>2016-09-30T11:47:00Z</time></trkpt>
<trkpt lat="53.0231480000" lon="-4.0550510000"><ele>122</ele><time>2016-09-30T11:47:01Z</time></trkpt>
<trkpt lat="53.0231480000" lon="-4.0550510000"><ele>122</ele><time>2016-09-30T11:47:02Z</time></trkpt>
<trkpt lat="53.0231480000" lon="-4.0550510000"><ele>122</ele><time>2016-09-30T11:47:03Z</time></trkpt>
<trkpt lat="53.0231480000" lon="-4.0550510000"><ele>122</ele><time>2016-09-30T11:47:04Z</time></trkpt>
<trkpt lat="53.0231480000" lon="-4.0550520000"><ele>122</ele><time>2016-09-30T11:47:05Z</time></trkpt>
<trkpt lat="53.0231480000" lon="-4.0550520000"><ele>122</ele><time>2016-09-30T11:47:06Z</time></trkpt>
<trkpt lat="53.0231480000" lon="-4.0550520000"><ele>122</ele><time>2016-09-30T11:47:07Z</time></trkpt>
<trkpt lat="53.0231480000" lon="-4.0550520000"><ele>122</ele><time>2016-09-30T11:47:08Z</time></trkpt>
<trkpt lat="53.0231490000" lon="-4.0550530000"><ele>122</ele><time>2016-09-30T11:47:09Z</time></trkpt>
<trkpt lat="53.0231490000" lon="-4.0550530000"><ele>122</ele><time>2016-09-30T11:47:10Z</time></trkpt>
<trkpt lat="53.0231490000" lon="-4.0550530000"><ele>122</ele><time>2016-09-30T11:47:11Z</time></trkpt>
<trkpt lat="53.0231490000" lon="-4.0550540000"><ele>122</ele><time>2016-09-30T11:47:12Z</time></trkpt>
<trkpt lat="53.0231500000" lon="-4.0550540000"><ele>122</ele><time>2016-09-30T11:47:13Z</time></trkpt>
<trkpt lat="53.0231500000" lon="-4.0550540000"><ele>122</ele><time>2016-09-30T11:47:14Z</time></trkpt>
<trkpt lat="53.0231500000" lon="-4.0550550000"><ele>122</ele><time>2016-09-30T11:47:15Z</time></trkpt>
<trkpt lat="53.0231510000" lon="-4.0550550000"><ele>122</ele><time>2016-09-30T11:47:16Z</time></trkpt>
<trkpt lat="53.0231510000" lon="-4.0550550000"><ele>121</ele><time>2016-09-30T11:47:17Z</time></trkpt>
<trkpt lat="53.0231510000" lon="-4.0550560000"><ele>121</ele><time>2016-09-30T11:47:18Z</time></trkpt>
<trkpt lat="53.0231520000" lon="-4.0550560000"><ele>121</ele><time>2016-09-30T11:47:19Z</time></trkpt>
<trkpt lat="53.0231520000" lon="-4.0550560000"><ele>121</ele><time>2016-09-30T11:47:20Z</time></trkpt>
<trkpt lat="53.0231530000" lon="-4.0550570000"><ele>121</ele><time>2016-09-30T11:47:21Z</time></trkpt>
<trkpt lat="53.0231530000" lon="-4.0550570000"><ele>121</ele><time>2016-09-30T11:47:22Z</time></trkpt>
<trkpt lat="53.0231530000" lon="-4.0550570000"><ele>121</ele><time>2016-09-30T11:47:23Z</time></trkpt>
<trkpt lat="53.0231540000" lon="-4.0550580000"><ele>121</ele><time>2016-09-30T11:47:24Z</time></trkpt>
<trkpt lat="53.0231540000" lon="-4.0550580000"><ele>121</ele><time>2016-09-30T11:47:25Z</time></trkpt>
<trkpt lat="53.0231540000" lon="-4.0550580000"><ele>121</ele><time>2016-09-30T11:47:26Z</time></trkpt>
<trkpt lat="53.0231540000" lon="-4.0550590000"><ele>121</ele><time>2016-09-30T11:47:27Z</time></trkpt>
<trkpt lat="53.0231540000" lon="-4.0550590000"><ele>121</ele><time>2016-09-30T11:47:28Z</time></trkpt>
<trkpt lat="53.0231540000" lon="-4.0550590000"><ele>121</ele><time>2016-09-30T11:47:29Z</time></trkpt>
<trkpt lat="53.0231540000" lon="-4.0550600000"><ele>121</ele><time>2016-09-30T11:47:30Z</time></trkpt>
<trkpt lat="53.0231540000" lon="-4.0550600000"><ele>121</ele><time>2016-09-30T11:47:31Z</time></trkpt>
<trkpt lat="53.0231540000" lon="-4.0550610000"><ele>121</ele><time>2016-09-30T11:47:32Z</time></trkpt>
<trkpt lat="53.0231540000" lon="-4.0550610000"><ele>121</ele><time>2016-09-30T11:47:33Z</time></trkpt>
<trkpt lat="53.0231540000" lon="-4.0550620000"><ele>121</ele><time>2016-09-30T11:47:34Z</time></trkpt>
<trkpt lat="53.0231530000" lon="-4.0550620000"><ele>120</ele><time>2016-09-30T11:47:35Z</time></trkpt>
<trkpt lat="53.0231530000" lon="-4.0550630000"><ele>120</ele><time>2016-09-30T11:47:36Z</time></trkpt>
<trkpt lat="53.0231530000" lon="-4.0550630000"><ele>120</ele><time>2016-09-30T11:47:37Z</time></trkpt>
<trkpt lat="53.0231530000" lon="-4.0550640000"><ele>120</ele><time>2016-09-30T11:47:38Z</time></trkpt>
<trkpt lat="53.0231530000" lon="-4.0550640000"><ele>120</ele><time>2016-09-30T11:47:39Z</time></trkpt>
<trkpt lat="53.0231530000" lon="-4.0550650000"><ele>120</ele><time>2016-09-30T11:47:40Z</time></trkpt>
<trkpt lat="53.0231530000" lon="-4.0550650000"><ele>120</ele><time>2016-09-30T11:47:41Z</time></trkpt>
<trkpt lat="53.0231530000" lon="-4.0550660000"><ele>120</ele><time>2016-09-30T11:47:42Z</time></trkpt>
<trkpt lat="53.0231540000" lon="-4.0550660000"><ele>120</ele><time>2016-09-30T11:47:43Z</time></trkpt>
<trkpt lat="53.0231540000" lon="-4.0550660000"><ele>120</ele><time>2016-09-30T11:47:44Z</time></trkpt>
<trkpt lat="53.0231540000" lon="-4.0550670000"><ele>120</ele><time>2016-09-30T11:47:45Z</time></trkpt>
<trkpt lat="53.0231550000" lon="-4.0550670000"><ele>120</ele><time>2016-09-30T11:47:46Z</time></trkpt>
<trkpt lat="53.0231550000" lon="-4.0550670000"><ele>120</ele><time>2016-09-30T11:47:47Z</time></trkpt>
<trkpt lat="53.0231550000" lon="-4.0550670000"><ele>120</ele><time>2016-09-30T11:47:48Z</time></trkpt>
<trkpt lat="53.0231560000" lon="-4.0550670000"><ele>120</ele><time>2016-09-30T11:47:50Z</time></trkpt>
<trkpt lat="53.0231560000" lon="-4.0550670000"><ele>120</ele></trkpt>
<trkpt lat="53.0231570000" lon="-4.0550670000"><ele>120</ele><time>2016-09-30T11:47:51Z</time></trkpt>
<trkpt lat="53.0231570000" lon="-4.0550660000"><ele>119</ele><time>2016-09-30T11:47:52Z</time></trkpt>
<trkpt lat="53.0231580000" lon="-4.0550660000"><ele>119</ele><time>2016-09-30T11:47:53Z</time></trkpt>
<trkpt lat="53.0231580000" lon="-4.0550660000"><ele>119</ele><time>2016-09-30T11:47:54Z</time></trkpt>
<trkpt lat="53.0231720000" lon="-4.0550460000"><ele>119</ele><time>2016-09-30T11:48:25Z</time></trkpt>
<trkpt lat="53.0231720000" lon="-4.0550460000"><ele>119</ele><time>2016-09-30T11:48:26Z</time></trkpt>
<trkpt lat="53.0231730000" lon="-4.0550460000"><ele>119</ele><time>2016-09-30T11:48:27Z</time></trkpt>
<trkpt lat="53.0231730000" lon="-4.0550460000"><ele>119</ele><time>2016-09-30T11:48:28Z</time></trkpt>
<trkpt lat="53.0231740000" lon="-4.0550450000"><ele>119</ele><time>2016-09-30T11:48:29Z</time></trkpt>
<trkpt lat="53.0231740000" lon="-4.0550450000"><ele>119</ele><time>2016-09-30T11:48:30Z</time></trkpt>
<trkpt lat="53.0231750000" lon="-4.0550440000"><ele>119</ele><time>2016-09-30T11:48:31Z</time></trkpt>
<trkpt lat="53.0231750000" lon="-4.0550430000"><ele>119</ele><time>2016-09-30T11:48:32Z</time></trkpt>
<trkpt lat="53.0231760000" lon="-4.0550420000"><ele>119</ele><time>2016-09-30T11:48:33Z</time></trkpt>
<trkpt lat="53.0231760000" lon="-4.0550420000"><ele>119</ele><time>2016-09-30T11:48:34Z</time></trkpt>
<trkpt lat="53.0231760000" lon="-4.0550410000"><ele>119</ele><time>2016-09-30T11:48:35Z</time></trkpt>
<trkpt lat="53.0231770000" lon="-4.0550400000"><ele>119</ele><time>2016-09-30T11:48:36Z</time></trkpt>
<trkpt lat="53.0231640000" lon="-4.0550150000"><ele>115</ele><time>2016-09-30T11:49:22Z</time></trkpt>
<trkpt lat="53.0231640000" lon="-4.0550150000"><ele>115</ele><time>2016-09-30T11:49:23Z</time></trkpt>
<trkpt lat="53.0231670000" lon="-4.0550130000"><ele>115</ele><time>2016-09-30T11:49:24Z</time></trkpt>
<trkpt lat="53.0231670000" lon="-4.0550130000"><ele>114</ele><time>2016-09-30T11:49:28Z</time></trkpt>
<trkpt lat="53.0231670000" lon="-4.0550130000"><ele>114</ele><time>2016-09-30T11:49:29Z</time></trkpt>
<trkpt lat="53.0231670000" lon="-4.0550140000"><ele>114</ele><time>2016-09-30T11:49:30Z</time></trkpt>
<trkpt lat="53.0231670000" lon="-4.0550140000"><ele>114</ele><time>2016-09-30T11:49:31Z</time></trkpt>
<trkpt lat="53.0231670000" lon="-4.0550140000"><ele>114</ele><time>2016-09-30T11:49:32Z</time></trkpt>
<trkpt lat="53.0231670000" lon="-4.0550140000"><ele>114</ele><time>2016-09-30T11:49:33Z</time></trkpt>
<trkpt lat="53.0231670000" lon="-4.0550140000"><ele>114</ele><time>2016-09-30T11:49:34Z</time></trkpt>
<trkpt lat="53.0231670000" lon="-4.0550150000"><ele>114</ele><time>2016-09-30T11:49:35Z</time></trkpt>
<trkpt lat="53.0231670000" lon="-4.0550150000"><ele>114</ele><time>2016-09-30T11:49:36Z</time></trkpt>
<trkpt lat="53.0231670000" lon="-4.0550150000"><ele>114</ele><time>2016-09-30T11:49:37Z</time></trkpt>
<trkpt lat="53.0231670000" lon="-4.0550160000"><ele>115</ele><time>2016-09-30T11:49:38Z</time></trkpt>
<trkpt lat="53.0231670000" lon="-4.0550160000"><ele>115</ele><time>2016-09-30T11:49:39Z</time></trkpt>
<trkpt lat="53.0231680000" lon="-4.0550160000"><ele>115</ele><time>2016-09-30T11:49:40Z</time></trkpt>
<trkpt lat="53.0231680000" lon="-4.0550170000"><ele>115</ele></trkpt>
<trkpt lat="53.0231680000" lon="-4.0550170000"><ele>115</ele><time>2016-09-30T11:49:42Z</time></trkpt>
<trkpt lat="53.0231690000" lon="-4.0550170000"><ele>115</ele><time>2016-09-30T11:49:43Z</time></trkpt>
<trkpt lat="53.0231690000" lon="-4.0550180000"><ele>115</ele><time>2016-09-30T11:49:44Z</time></trkpt>
<trkpt lat="53.0231690000" lon="-4.0550180000"><ele>115</ele><time>2016-09-30T11:49:45Z</time></trkpt>
<trkpt lat="53.0231700000" lon="-4.0550180000"><ele>115</ele><time>2016-09-30T11:49:46Z</time></trkpt>
<trkpt lat="53.0231700000" lon="-4.0550180000"><ele>114</ele><time>2016-09-30T11:49:47Z</time></trkpt>
<trkpt lat="53.0231700000" lon="-4.0550180000"><ele>114</ele><time>2016-09-30T11:49:48Z</time></trkpt>
<trkpt lat="53.0231710000" lon="-4.0550180000"><ele>114</ele><time>2016-09-30T11:49:49Z</time></trkpt>
<trkpt lat="53.0231710000" lon="-4.0550180000"><ele>114</ele><time>2016-09-30T11:49:50Z</time></trkpt>
<trkpt lat="53.0231720000" lon="-4.0550180000"><ele>114</ele><time>2016-09-30T11:49:51Z</time></trkpt>
<trkpt lat="53.0231720000" lon="-4.0550180000"><ele>114</ele><time>2016-09-30T11:49:52Z</time></trkpt>
<trkpt lat="53.0231720000" lon="-4.0550170000"><ele>114</ele><time>2016-09-30T11:49:53Z</time></trkpt>
<trkpt lat="53.0231730000" lon="-4.0550170000"><ele>114</ele><time>2016-09-30T11:49:54Z</time></trkpt>
<trkpt lat="53.0231730000" lon="-4.0550170000"><ele>114</ele><time>2016-09-30T11:49:55Z</time></trkpt>
<trkpt lat="53.0231740000" lon="-4.0550160000"><ele>114</ele><time>2016-09-30T11:49:56Z</time></trkpt>
<trkpt lat="53.0231750000" lon="-4.0550160000"><ele>114</ele><time>2016-09-30T11:49:57Z</time></trkpt>
<trkpt lat="53.0231750000" lon="-4.0550150000"><ele>114</ele><time>2016-09-30T11:49:58Z</time></trkpt>
<trkpt lat="53.0231750000" lon="-4.0550150000"><ele>114</ele><time>2016-09-30T11:49:59Z</time></trkpt>
<trkpt lat="53.0231750000" lon="-4.0550140000"><ele>114</ele><time>2016-09-30T11:50:00Z</time></trkpt>
<trkpt lat="53.0231760000" lon="-4.0550130000"><ele>114</ele><time>2016-09-30T11:50:01Z</time></trkpt>
<trkpt lat="53.0231760000" lon="-4.0550130000"><ele>114</ele><time>2016-09-30T11:50:02Z</time></trkpt>
<trkpt lat="53.0231760000" lon="-4.0550130000"><ele>114</ele><time>2016-09-30T11:50:04Z</time></trkpt>
<trkpt lat="53.0231770000" lon="-4.0550130000"><ele>114</ele></trkpt>
<trkpt lat="53.0231770000" lon="-4.0550140000"><ele>114</ele><time>2016-09-30T11:50:05Z</time></trkpt>
<trkpt lat="53.0231780000" lon="-4.0550140000"><ele>114</ele><time>2016-09-30T11:50:06Z</time></trkpt>
<trkpt lat="53.0231790000" lon="-4.0550140000"><ele>114</ele><time>2016-09-30T11:50:07Z</time></trkpt>
<trkpt lat="53.0231800000" lon="-4.0550140000"><ele>114</ele><time>2016-09-30T11:50:08Z</time></trkpt>
<trkpt lat="53.0231810000" lon="-4.0550140000"><ele>114</ele><time>2016-09-30T11:50:09Z</time></trkpt>
<trkpt lat="53.0231820000" lon="-4.0550150000"><ele>114</ele><time>2016-09-30T11:50:10Z</time></trkpt>
<trkpt lat="53.0231830000" lon="-4.0550150000"><ele>113</ele><time>2016-09-30T11:50:11Z</time></trkpt>
<trkpt lat="53.0231840000" lon="-4.0550150000"><ele>113</ele><time>2016-09-30T11:50:12Z</time></trkpt>
<trkpt lat="53.0231840000" lon="-4.0550150000"><ele>113</ele><time>2016-09-30T11:50:13Z</time></trkpt>
<trkpt lat="53.0231850000" lon="-4.0550150000"><ele>113</ele><time>2016-09-30T11:50:14Z</time></trkpt>
<trkpt lat="53.0231840000" lon="-4.0550150000"><ele>113</ele><time>2016-09-30T11:50:15Z</time></trkpt>
<trkpt lat="53.0231840000" lon="-4.0550160000"><ele>113</ele><time>2016-09-30T11:50:16Z</time></trkpt>
<trkpt lat="53.0231840000" lon="-4.0550160000"><ele>113</ele><time>2016-09-30T11:50:17Z</time></trkpt>
<trkpt lat="53.0231840000" lon="-4.0550170000"><ele>113</ele><time>2016-09-30T11:50:18Z</time></trkpt>
<trkpt lat="53.0231840000" lon="-4.0550170000"><ele>113</ele><time>2016-09-30T11:50:19Z</time></trkpt>
<trkpt lat="53.0231850000" lon="-4.0550170000"><ele>113</ele><time>2016-09-30T11:50:20Z</time></trkpt>
<trkpt lat="53.0231850000" lon="-4.0550170000"><ele>113</ele><time>2016-09-30T11:50:21Z</time></trkpt>
<trkpt lat="53.0231850000" lon="-4.0550170000"><ele>113</ele><time>2016-09-30T11:50:22Z</time></trkpt>
<trkpt lat="53.0231850000" lon="-4.0550160000"><ele>113</ele><time>2016-09-30T11:50:23Z</time></trkpt>
<trkpt lat="53.0231850000" lon="-4.0550150000"><ele>113</ele><time>2016-09-30T11:50:24Z</time></trkpt>
<trkpt lat="53.0231860000" lon="-4.0550140000"><ele>113</ele><time>2016-09-30T11:50:25Z</time></trkpt>
<trkpt lat="53.0231860000" lon="-4.0550130000"><ele>113</ele><time>2016-09-30T11:50:26Z</time></trkpt>
<trkpt lat="53.0231860000" lon="-4.0550120000"><ele>113</ele><time>2016-09-30T11:50:27Z</time></trkpt>
<trkpt lat="53.0231860000" lon="-4.0550110000"><ele>113</ele><time>2016-09-30T11:50:28Z</time></trkpt>
<trkpt lat="53.0231860000" lon="-4.0550100000"><ele>113</ele><time>2016-09-30T11:50:29Z</time></trkpt>
<trkpt lat="53.0231860000" lon="-4.0550090000"><ele>113</ele><time>2016-09-30T11:50:30Z</time></trkpt>
<trkpt lat="53.0231860000" lon="-4.0550080000"><ele>113</ele><time>2016-09-30T11:50:31Z</time></trkpt>
<trkpt lat="53.0231860000" lon="-4.0550070000"><ele>113</ele><time>2016-09-30T11:50:32Z</time></trkpt>
<trkpt lat="53.0231860000" lon="-4.0550070000"><ele>113</ele><time>2016-09-30T11:50:33Z</time></trkpt>
<trkpt lat="53.0231860000" lon="-4.0550060000"><ele>113</ele><time>2016-09-30T11:50:34Z</time></trkpt>
<trkpt lat="53.0231870000" lon="-4.0550060000"><ele>113</ele><time>2016-09-30T11:50:35Z</time></trkpt>
<trkpt lat="53.0231870000" lon="-4.0550050000"><ele>113</ele><time>2016-09-30T11:50:36Z</time></trkpt>
<trkpt lat="53.0231880000" lon="-4.0550050000"><ele>113</ele><time>2016-09-30T11:50:37Z</time></trkpt>
<trkpt lat="53.0231880000" lon="-4.0550040000"><ele>113</ele><time>2016-09-30T11:50:38Z</time></trkpt>
<trkpt lat="53.0231890000" lon="-4.0550040000"><ele>113</ele><time>2016-09-30T11:50:39Z</time></trkpt>
<trkpt lat="53.0231890000" lon="-4.0550030000"><ele>112</ele><time>2016-09-30T11:50:40Z</time></trkpt>
<trkpt lat="53.0231900000" lon="-4.0550030000"><ele>112</ele><time>2016-09-30T11:50:41Z</time></trkpt>
<trkpt lat="53.0231900000" lon="-4.0550020000"><ele>112</ele><time>2016-09-30T11:50:42Z</time></trkpt>
<trkpt lat="53.0231910000" lon="-4.0550010000"><ele>112</ele><time>2016-09-30T11:50:43Z</time></trkpt>
<trkpt lat="53.0231910000" lon="-4.0550010000"><ele>112</ele><time>2016-09-30T11:50:44Z</time></trkpt>
<trkpt lat="53.0231910000" lon="-4.0550000000"><ele>112</ele><time>2016-09-30T11:50:45Z</time></trkpt>
<trkpt lat="53.0231920000" lon="-4.0549980000"><ele>111</ele><time>2016-09-30T11:50:46Z</time></trkpt>
<trkpt lat="53.0231920000" lon="-4.0549970000"><ele>111</ele><time>2016-09-30T11:50:47Z</time></trkpt>
<trkpt lat="53.0231920000" lon="-4.0549960000"><ele>111</ele><time>2016-09-30T11:50:48Z</time></trkpt>
<trkpt lat="53.0231920000" lon="-4.0549950000"><ele>111</ele><time>2016-09-30T11:50:49Z</time></trkpt>
<trkpt lat="53.0231920000" lon="-4.0549930000"><ele>111</ele><time>2016-09-30T11:50:50Z</time></trkpt>
<trkpt lat="53.0231930000" lon="-4.0549920000"><ele>110</ele><time>2016-09-30T11:50:51Z</time></trkpt>
<trkpt lat="53.0231930000" lon="-4.0549910000"><ele>110</ele><time>2016-09-30T11:50:52Z</time></trkpt>
<trkpt lat="53.0231930000" lon="-4.0549910000"><ele>110</ele><time>2016-09-30T11:50:53Z</time></trkpt>
<trkpt lat="53.0231930000" lon="-4.0549910000"><ele>110</ele><time>2016-09-30T11:50:54Z</time></trkpt>
<trkpt lat="53.0231930000" lon="-4.0549910000"><ele>110</ele><time>2016-09-30T11:50:55Z</time></trkpt>
<trkpt lat="53.0231940000" lon="-4.0549910000"><ele>110</ele><time>2016-09-30T11:50:56Z</time></trkpt>
<trkpt lat="53.0231940000" lon="-4.0549910000"><ele>110</ele><time>2016-09-30T11:50:57Z</time></trkpt>
<trkpt lat="53.0231940000" lon="-4.0549920000"><ele>110</ele><time>2016-09-30T11:50:58Z</time></trkpt>
<trkpt lat="53.0231940000" lon="-4.0549920000"><ele>109</ele><time>2016-09-30T11:50:59Z</time></trkpt>
<trkpt lat="53.0231940000" lon="-4.0549930000"><ele>109</ele><time>2016-09-30T11:51:00Z</time></trkpt>
<trkpt lat="53.0231940000" lon="-4.0549930000"><ele>109</ele><time>2016-09-30T11:51:01Z</time></trkpt>
<trkpt lat="53.0231930000" lon="-4.0549930000"><ele>109</ele><time>2016-09-30T11:51:02Z</time></trkpt>
<trkpt lat="53.0231930000" lon="-4.0549930000"><ele>109</ele><time>2016-09-30T11:51:04Z</time></trkpt>
<trkpt lat="53.0231930000" lon="-4.0549940000"><ele>110</ele></trkpt>
<trkpt lat="53.0231930000" lon="-4.0549940000"><ele>110</ele><time>2016-09-30T11:51:05Z</time></trkpt>
<trkpt lat="53.0231920000" lon="-4.0549950000"><ele>110</ele><time>2016-09-30T11:51:06Z</time></trkpt>
<trkpt lat="53.0231920000" lon="-4.0549960000"><ele>110</ele><time>2016-09-30T11:51:07Z</time></trkpt>
<trkpt lat="53.0231920000" lon="-4.0549960000"><ele>110</ele><time>2016-09-30T11:51:08Z</time></trkpt>
<trkpt lat="53.0231910000" lon="-4.0549960000"><ele>110</ele><time>2016-09-30T11:51:09Z</time></trkpt>
<trkpt lat="53.0231910000" lon="-4.0549970000"><ele>110</ele><time>2016-09-30T11:51:10Z</time></trkpt>
<trkpt lat="53.0231910000" lon="-4.0549970000"><ele>111</ele><time>2016-09-30T11:51:11Z</time></trkpt>
<trkpt lat="53.0231910000" lon="-4.0549970000"><ele>111</ele><time>2016-09-30T11:51:12Z</time></trkpt>
<trkpt lat="53.0231900000" lon="-4.0549970000"><ele>111</ele><time>2016-09-30T11:51:13Z</time></trkpt>
<trkpt lat="53.0231900000" lon="-4.0549970000"><ele>112</ele><time>2016-09-30T11:51:14Z</time></trkpt>
<trkpt lat="53.0231900000" lon="-4.0549970000"><ele>112</ele><time>2016-09-30T11:51:15Z</time></trkpt>
<trkpt lat="53.0231900000" lon="-4.0549980000"><ele>112</ele><time>2016-09-30T11:51:16Z</time></trkpt>
<trkpt lat="53.0231900000" lon="-4.0549980000"><ele>113</ele><time>2016-09-30T11:51:17Z</time></trkpt>
<trkpt lat="53.0231900000" lon="-4.0549980000"><ele>113</ele><time>2016-09-30T11:51:18Z</time></trkpt>
<trkpt lat="53.0231900000" lon="-4.0549980000"><ele>114</ele><time>2016-09-30T11:51:19Z</time></trkpt>
<trkpt lat="53.0231900000" lon="-4.0549980000"><ele>114</ele><time>2016-09-30T11:51:20Z</time></trkpt>
<trkpt lat="53.0231900000" lon="-4.0549980000"><ele>115</ele><time>2016-09-30T11:51:21Z</time></trkpt>
<trkpt lat="53.0231900000" lon="-4.0549980000"><ele>115</ele><time>2016-09-30T11:51:22Z</time></trkpt>
<trkpt lat="53.0231900000" lon="-4.0549970000"><ele>116</ele><time>2016-09-30T11:51:23Z</time></trkpt>
<trkpt lat="53.0231890000" lon="-4.0549970000"><ele>116</ele><time>2016-09-30T11:51:24Z</time></trkpt>
<trkpt lat="53.0231890000" lon="-4.0549960000"><ele>117</ele><time>2016-09-30T11:51:25Z</time></trkpt>
<trkpt lat="53.0231890000" lon="-4.0549940000"><ele>117</ele><time>2016-09-30T11:51:26Z</time></trkpt>
<trkpt lat="53.0231890000" lon="-4.0549920000"><ele>117</ele><time>2016-09-30T11:51:27Z</time></trkpt>
<trkpt lat="53.0231890000" lon="-4.0549900000"><ele>118</ele><time>2016-09-30T11:51:28Z</time></trkpt>
<trkpt lat="53.0231890000" lon="-4.0549880000"><ele>118</ele><time>2016-09-30T11:51:29Z</time></trkpt>
<trkpt lat="53.0231880000" lon="-4.0549860000"><ele>118</ele><time>2016-09-30T11:51:30Z</time></trkpt>
<trkpt lat="53.0231880000" lon="-4.0549840000"><ele>118</ele><time>2016-09-30T11:51:31Z</time></trkpt>
<trkpt lat="53.0231880000" lon="-4.0549820000"><ele>119</ele><time>2016-09-30T11:51:32Z</time></trkpt>
<trkpt lat="53.0231880000" lon="-4.0549800000"><ele>119</ele><time>2016-09-30T11:51:33Z</time></trkpt>
<trkpt lat="53.0231880000" lon="-4.0549780000"><ele>119</ele><time>2016-09-30T11:51:34Z</time></trkpt>
<trkpt lat="53.0231880000" lon="-4.0549760000"><ele>119</ele><time>2016-09-30T11:51:35Z</time></trkpt>
<trkpt lat="53.0231880000" lon="-4.0549740000"><ele>119</ele><time>2016-09-30T11:51:36Z</time></trkpt>
<trkpt lat="53.0231870000" lon="-4.0549720000"><ele>120</ele><time>2016-09-30T11:51:37Z</time></trkpt>
<trkpt lat="53.0231870000" lon="-4.0549710000"><ele>120</ele><time>2016-09-30T11:51:38Z</time></trkpt>
<trkpt lat="53.0231870000" lon="-4.0549690000"><ele>120</ele><time>2016-09-30T11:51:39Z</time></trkpt>
<trkpt lat="53.0231860000" lon="-4.0549680000"><ele>120</ele><time>2016-09-30T11:51:40Z</time></trkpt>
<trkpt lat="53.0231860000" lon="-4.0549670000"><ele>120</ele><time>2016-09-30T11:51:41Z</time></trkpt>
<trkpt lat="53.0231860000" lon="-4.0549660000"><ele>120</ele><time>2016-09-30T11:51:42Z</time></trkpt>
<trkpt lat="53.0231850000" lon="-4.0549650000"><ele>120</ele><time>2016-09-30T11:51:43Z</time></trkpt>
<trkpt lat="53.0231850000" lon="-4.0549640000"><ele>120</ele><time>2016-09-30T11:51:44Z</time></trkpt>
<trkpt lat="53.0231850000" lon="-4.0549620000"><ele>119</ele><time>2016-09-30T11:51:45Z</time></trkpt>
<trkpt lat="53.0231850000" lon="-4.0549610000"><ele>119</ele><time>2016-09-30T11:51:46Z</time></trkpt>
<trkpt lat="53.0231850000" lon="-4.0549600000"><ele>119</ele><time>2016-09-30T11:51:47Z</time></trkpt>
<trkpt lat="53.0231850000" lon="-4.0549590000"><ele>118</ele><time>2016-09-30T11:51:48Z</time></trkpt>
<trkpt lat="53.0231850000" lon="-4.0549590000"><ele>118</ele><time>2016-09-30T11:51:49Z</time></trkpt>
<trkpt lat="53.0231840000" lon="-4.0549590000"><ele>117</ele><time>2016-09-30T11:51:50Z</time></trkpt>
<trkpt lat="53.0231840000" lon="-4.0549590000"><ele>117</ele><time>2016-09-30T11:51:51Z</time></trkpt>
<trkpt lat="53.0231840000" lon="-4.0549600000"><ele>116</ele><time>2016-09-30T11:51:52Z</time></trkpt>
<trkpt lat="53.0231840000" lon="-4.0549600000"><ele>116</ele><time>2016-09-30T11:51:53Z</time></trkpt>
<trkpt lat="53.0231840000" lon="-4.0549600000"><ele>115</ele><time>2016-09-30T11:51:54Z</time></trkpt>
<trkpt lat="53.0231840000" lon="-4.0549610000"><ele>115</ele><time>2016-09-30T11:51:55Z</time></trkpt>
<trkpt lat="53.0231840000" lon="-4.0549610000"><ele>114</ele><time>2016-09-30T11:51:56Z</time></trkpt>
<trkpt lat="53.0231840000" lon="-4.0549600000"><ele>114</ele><time>2016-09-30T11:51:57Z</time></trkpt>
<trkpt lat="53.0231840000" lon="-4.0549590000"><ele>113</ele><time>2016-09-30T11:51:58Z</time></trkpt>
<trkpt lat="53.0231830000" lon="-4.0549580000"><ele>113</ele><time>2016-09-30T11:51:59Z</time></trkpt>
<trkpt lat="53.0231830000" lon="-4.0549560000"><ele>113</ele><time>2016-09-30T11:52:00Z</time></trkpt>
<trkpt lat="53.0231820000" lon="-4.0549540000"><ele>113</ele><time>2016-09-30T11:52:01Z</time></trkpt>
<trkpt lat="53.0231810000" lon="-4.0549510000"><ele>112</ele><time>2016-09-30T11:52:02Z</time></trkpt>
<trkpt lat="53.0231790000" lon="-4.0549480000"><ele>112</ele><time>2016-09-30T11:52:04Z</time></trkpt>
<trkpt lat="53.0231780000" lon="-4.0549450000"><ele>112</ele></trkpt>
<trkpt lat="53.0231770000" lon="-4.0549420000"><ele>112</ele><time>2016-09-30T11:52:05Z</time></trkpt>
<trkpt lat="53.0231760000" lon="-4.0549390000"><ele>112</ele><time>2016-09-30T11:52:06Z</time></trkpt>
<trkpt lat="53.0231740000" lon="-4.0549350000"><ele>112</ele><time>2016-09-30T11:52:07Z</time></trkpt>
<trkpt lat="53.0231730000" lon="-4.0549310000"><ele>112</ele><time>2016-09-30T11:52:08Z</time></trkpt>
<trkpt lat="53.0231710000" lon="-4.0549270000"><ele>112</ele><time>2016-09-30T11:52:09Z</time></trkpt>
<trkpt lat="53.0231690000" lon="-4.0549230000"><ele>112</ele><time>2016-09-30T11:52:10Z</time></trkpt>
<trkpt lat="53.0231680000" lon="-4.0549190000"><ele>112</ele><time>2016-09-30T11:52:11Z</time></trkpt>
<trkpt lat="53.0231660000" lon="-4.0549160000"><ele>112</ele><time>2016-09-30T11:52:12Z</time></trkpt>
<trkpt lat="53.0231640000" lon="-4.0549140000"><ele>112</ele><time>2016-09-30T11:52:13Z</time></trkpt>
<trkpt lat="53.0231620000" lon="-4.0549130000"><ele>112</ele><time>2016-09-30T11:52:14Z</time></trkpt>
<trkpt lat="53.0231610000" lon="-4.0549120000"><ele>112</ele><time>2016-09-30T11:52:15Z</time></trkpt>
<trkpt lat="53.0231600000" lon="-4.0549120000"><ele>112</ele><time>2016-09-30T11:52:16Z</time></trkpt>
<trkpt lat="53.0231590000" lon="-4.0549120000"><ele>112</ele><time>2016-09-30T11:52:17Z</time></trkpt>
<trkpt lat="53.0231580000" lon="-4.0549120000"><ele>112</ele><time>2016-09-30T11:52:18Z</time></trkpt>
<trkpt lat="53.0231580000" lon="-4.0549120000"><ele>112</ele><time>2016-09-30T11:52:19Z</time></trkpt>
<trkpt lat="53.0231580000" lon="-4.0549130000"><ele>112</ele><time>2016-09-30T11:52:20Z</time></trkpt>
<trkpt lat="53.0231580000" lon="-4.0549140000"><ele>112</ele><time>2016-09-30T11:52:21Z</time></trkpt>
<trkpt lat="53.0231580000" lon="-4.0549160000"><ele>112</ele><time>2016-09-30T11:52:22Z</time></trkpt>
<trkpt lat="53.0231580000" lon="-4.0549180000"><ele>112</ele><time>2016-09-30T11:52:23Z</time></trkpt>
<trkpt lat="53.0231570000" lon="-4.0549220000"><ele>112</ele><time>2016-09-30T11:52:24Z</time></trkpt>
<trkpt lat="53.0231560000" lon="-4.0549260000"><ele>112</ele><time>2016-09-30T11:52:25Z</time></trkpt>
<trkpt lat="53.0231550000" lon="-4.0549310000"><ele>112</ele><time>2016-09-30T11:52:26Z</time></trkpt>
<trkpt lat="53.0231540000" lon="-4.0549360000"><ele>112</ele><time>2016-09-30T11:52:27Z</time></trkpt>
<trkpt lat="53.0231530000" lon="-4.0549420000"><ele>112</ele><time>2016-09-30T11:52:28Z</time></trkpt>
<trkpt lat="53.0231520000" lon="-4.0549480000"><ele>112</ele><time>2016-09-30T11:52:29Z</time></trkpt>
<trkpt lat="53.0231510000" lon="-4.0549540000"><ele>112</ele><time>2016-09-30T11:52:30Z</time></trkpt>
<trkpt lat="53.0231500000" lon="-4.0549600000"><ele>112</ele><time>2016-09-30T11:52:31Z</time></trkpt>
<trkpt lat="53.0231490000" lon="-4.0549650000"><ele>112</ele><time>2016-09-30T11:52:32Z</time></trkpt>
<trkpt lat="53.0231490000" lon="-4.0549710000"><ele>112</ele><time>2016-09-30T11:52:33Z</time></trkpt>
<trkpt lat="53.0231480000" lon="-4.0549760000"><ele>112</ele><time>2016-09-30T11:52:34Z</time></trkpt>
<trkpt lat="53.0231470000" lon="-4.0549820000"><ele>112</ele><time>2016-09-30T11:52:35Z</time></trkpt>
<trkpt lat="53.0231460000" lon="-4.0549870000"><ele>112</ele><time>2016-09-30T11:52:36Z</time></trkpt>
<trkpt lat="53.0231450000" lon="-4.0549930000"><ele>112</ele><time>2016-09-30T11:52:37Z</time></trkpt>
<trkpt lat="53.0231450000" lon="-4.0549990000"><ele>113</ele><time>2016-09-30T11:52:38Z</time></trkpt>
<trkpt lat="53.0231430000" lon="-4.0550050000"><ele>113</ele><time>2016-09-30T11:52:39Z</time></trkpt>
<trkpt lat="53.0231420000" lon="-4.0550110000"><ele>113</ele><time>2016-09-30T11:52:40Z</time></trkpt>
<trkpt lat="53.0231400000" lon="-4.0550180000"><ele>113</ele><time>2016-09-30T11:52:41Z</time></trkpt>
<trkpt lat="53.0231380000" lon="-4.0550250000"><ele>113</ele><time>2016-09-30T11:52:42Z</time></trkpt>
<trkpt lat="53.0231360000" lon="-4.0550310000"><ele>113</ele><time>2016-09-30T11:52:43Z</time></trkpt>
<trkpt lat="53.0231330000" lon="-4.0550370000"><ele>113</ele><time>2016-09-30T11:52:44Z</time></trkpt>
<trkpt lat="53.0231300000" lon="-4.0550430000"><ele>114</ele><time>2016-09-30T11:52:45Z</time></trkpt>
<trkpt lat="53.0231270000" lon="-4.0550500000"><ele>114</ele><time>2016-09-30T11:52:46Z</time></trkpt>
<trkpt lat="53.0231240000" lon="-4.0550560000"><ele>114</ele><time>2016-09-30T11:52:47Z</time></trkpt>
<trkpt lat="53.0231200000" lon="-4.0550630000"><ele>114</ele><time>2016-09-30T11:52:48Z</time></trkpt>
<trkpt lat="53.0231170000" lon="-4.0550690000"><ele>114</ele><time>2016-09-30T11:52:49Z</time></trkpt>
<trkpt lat="53.0231130000" lon="-4.0550760000"><ele>114</ele><time>2016-09-30T11:52:50Z</time></trkpt>
<trkpt lat="53.0231100000" lon="-4.0550820000"><ele>114</ele><time>2016-09-30T11:52:51Z</time></trkpt>
<trkpt lat="53.0231060000" lon="-4.0550880000"><ele>114</ele><time>2016-09-30T11:52:52Z</time></trkpt>
<trkpt lat="53.0231020000" lon="-4.0550940000"><ele>114</ele><time>2016-09-30T11:52:53Z</time></trkpt>
<trkpt lat="53.0230970000" lon="-4.0551000000"><ele>115</ele><time>2016-09-30T11:52:54Z</time></trkpt>
<trkpt lat="53.0230920000" lon="-4.0551060000"><ele>115</ele><time>2016-09-30T11:52:55Z</time></trkpt>
<trkpt lat="53.0230870000" lon="-4.0551110000"><ele>115</ele><time>2016-09-30T11:52:56Z</time></trkpt>
<trkpt lat="53.0230830000" lon="-4.0551160000"><ele>115</ele><time>2016-09-30T11:52:57Z</time></trkpt>
<trkpt lat="53.0230780000" lon="-4.0551220000"><ele>115</ele><time>2016-09-30T11:52:58Z</time></trkpt>
<trkpt lat="53.0230730000" lon="-4.0551280000"><ele>115</ele><time>2016-09-30T11:52:59Z</time></trkpt>
<trkpt lat="53.0230680000" lon="-4.0551340000"><ele>116</ele><time>2016-09-30T11:53:00Z</time></trkpt>
<trkpt lat="53.0230620000" lon="-4.0551400000"><ele>116</ele><time>2016-09-30T11:53:01Z</time></trkpt>
<trkpt lat="53.0230570000" lon="-4.0551450000"><ele>116</ele><time>2016-09-30T11:53:02Z</time></trkpt>
<trkpt lat="53.0230520000" lon="-4.0551500000"><ele>116</ele><time>2016-09-30T11:53:04Z</time></trkpt>
<trkpt lat="53.0230460000" lon="-4.0551550000"><ele>116</ele></trkpt>
<trkpt lat="53.0230410000" lon="-4.0551600000"><ele>116</ele><time>2016-09-30T11:53:05Z</time></trkpt>
<trkpt lat="53.0230350000" lon="-4.0551640000"><ele>117</ele><time>2016-09-30T11:53:06Z</time></trkpt>
<trkpt lat="53.0230290000" lon="-4.0551690000"><ele>117</ele><time>2016-09-30T11:53:07Z</time></trkpt>
<trkpt lat="53.0230230000" lon="-4.0551720000"><ele>117</ele><time>2016-09-30T11:53:08Z</time></trkpt>
<trkpt lat="53.0230160000" lon="-4.0551760000"><ele>117</ele><time>2016-09-30T11:53:09Z</time></trkpt>
<trkpt lat="53.0230100000" lon="-4.0551800000"><ele>117</ele><time>2016-09-30T11:53:10Z</time></trkpt>
<trkpt lat="53.0230030000" lon="-4.0551840000"><ele>118</ele><time>2016-09-30T11:53:11Z</time></trkpt>
<trkpt lat="53.0229960000" lon="-4.0551870000"><ele>118</ele><time>2016-09-30T11:53:12Z</time></trkpt>
<trkpt lat="53.0229890000" lon="-4.0551900000"><ele>118</ele><time>2016-09-30T11:53:13Z</time></trkpt>
<trkpt lat="53.0229820000" lon="-4.0551930000"><ele>118</ele><time>2016-09-30T11:53:14Z</time></trkpt>
<trkpt lat="53.0229750000" lon="-4.0551970000"><ele>118</ele><time>2016-09-30T11:53:15Z</time></trkpt>
<trkpt lat="53.0229680000" lon="-4.0552000000"><ele>119</ele><time>2016-09-30T11:53:16Z</time></trkpt>
<trkpt lat="53.0229600000" lon="-4.0552030000"><ele>119</ele><time>2016-09-30T11:53:17Z</time></trkpt>
<trkpt lat="53.0229530000" lon="-4.0552060000"><ele>119</ele><time>2016-09-30T11:53:18Z</time></trkpt>
<trkpt lat="53.0229450000" lon="-4.0552080000"><ele>119</ele><time>2016-09-30T11:53:19Z</time></trkpt>
<trkpt lat="53.0229370000" lon="-4.0552100000"><ele>119</ele><time>2016-09-30T11:53:20Z</time></trkpt>
<trkpt lat="53.0229300000" lon="-4.0552110000"><ele>119</ele><time>2016-09-30T11:53:21Z</time></trkpt>
<trkpt lat="53.0229220000" lon="-4.0552110000"><ele>119</ele><time>2016-09-30T11:53:22Z</time></trkpt>
<trkpt lat="53.0229150000" lon="-4.0552100000"><ele>120</ele><time>2016-09-30T11:53:23Z</time></trkpt>
<trkpt lat="53.0229080000" lon="-4.0552090000"><ele>120</ele><time>2016-09-30T11:53:24Z</time></trkpt>
<trkpt lat="53.0229010000" lon="-4.0552070000"><ele>120</ele><time>2016-09-30T11:53:25Z</time></trkpt>
<trkpt lat="53.0228950000" lon="-4.0552040000"><ele>120</ele><time>2016-09-30T11:53:26Z</time></trkpt>
<trkpt lat="53.0228880000" lon="-4.0552010000"><ele>121</ele><time>2016-09-30T11:53:27Z</time></trkpt>
<trkpt lat="53.0228820000" lon="-4.0551980000"><ele>121</ele><time>2016-09-30T11:53:28Z</time></trkpt>
<trkpt lat="53.0228760000" lon="-4.0551940000"><ele>121</ele><time>2016-09-30T11:53:29Z</time></trkpt>
<trkpt lat="53.0228700000" lon="-4.0551900000"><ele>121</ele><time>2016-09-30T11:53:30Z</time></trkpt>
<trkpt lat="53.0228640000" lon="-4.0551860000"><ele>122</ele><time>2016-09-30T11:53:31Z</time></trkpt>
<trkpt lat="53.0228590000" lon="-4.0551820000"><ele>122</ele><time>2016-09-30T11:53:32Z</time></trkpt>
<trkpt lat="53.0228550000" lon="-4.0551800000"><ele>122</ele><time>2016-09-30T11:53:33Z</time></trkpt>
<trkpt lat="53.0228500000" lon="-4.0551770000"><ele>122</ele><time>2016-09-30T11:53:34Z</time></trkpt>
<trkpt lat="53.0228450000" lon="-4.0551750000"><ele>122</ele><time>2016-09-30T11:53:35Z</time></trkpt>
<trkpt lat="53.0228400000" lon="-4.0551720000"><ele>122</ele><time>2016-09-30T11:53:36Z</time></trkpt>
<trkpt lat="53.0228360000" lon="-4.0551710000"><ele>122</ele><time>2016-09-30T11:53:37Z</time></trkpt>
<trkpt lat="53.0228310000" lon="-4.0551690000"><ele>122</ele><time>2016-09-30T11:53:38Z</time></trkpt>
<trkpt lat="53.0228270000" lon="-4.0551680000"><ele>122</ele><time>2016-09-30T11:53:39Z</time></trkpt>
<trkpt lat="53.0228230000" lon="-4.0551670000"><ele>122</ele><time>2016-09-30T11:53:40Z</time></trkpt>
<trkpt lat="53.0228190000" lon="-4.0551660000"><ele>122</ele><time>2016-09-30T11:53:41Z</time></trkpt>
<trkpt lat="53.0228150000" lon="-4.0551650000"><ele>122</ele><time>2016-09-30T11:53:42Z</time></trkpt>
<trkpt lat="53.0228110000" lon="-4.0551640000"><ele>122</ele><time>2016-09-30T11:53:43Z</time></trkpt>
<trkpt lat="53.0228070000" lon="-4.0551640000"><ele>122</ele><time>2016-09-30T11:53:44Z</time></trkpt>
<trkpt lat="53.0228040000" lon="-4.0551640000"><ele>122</ele><time>2016-09-30T11:53:45Z</time></trkpt>
<trkpt lat="53.0228010000" lon="-4.0551630000"><ele>122</ele><time>2016-09-30T11:53:46Z</time></trkpt>
<trkpt lat="53.0227980000" lon="-4.0551620000"><ele>122</ele><time>2016-09-30T11:53:47Z</time></trkpt>
<trkpt lat="53.0227960000" lon="-4.0551610000"><ele>122</ele><time>2016-09-30T11:53:48Z</time></trkpt>
<trkpt lat="53.0227930000" lon="-4.0551600000"><ele>122</ele><time>2016-09-30T11:53:49Z</time></trkpt>
<trkpt lat="53.0227910000" lon="-4.0551590000"><ele>122</ele><time>2016-09-30T11:53:50Z</time></trkpt>
<trkpt lat="53.0227890000" lon="-4.0551580000"><ele>122</ele><time>2016-09-30T11:53:51Z</time></trkpt>
<trkpt lat="53.0227870000" lon="-4.0551560000"><ele>122</ele><time>2016-09-30T11:53:52Z</time></trkpt>
<trkpt lat="53.0227850000" lon="-4.0551540000"><ele>121</ele><time>2016-09-30T11:53:53Z</time></trkpt>
<trkpt lat="53.0227830000" lon="-4.0551520000"><ele>121</ele><time>2016-09-30T11:53:54Z</time></trkpt>
<trkpt lat="53.0227810000" lon="-4.0551490000"><ele>121</ele><time>2016-09-30T11:53:55Z</time></trkpt>
<trkpt lat="53.0227790000" lon="-4.0551450000"><ele>121</ele><time>2016-09-30T11:53:56Z</time></trkpt>
<trkpt lat="53.0227780000" lon="-4.0551410000"><ele>121</ele><time>2016-09-30T11:53:57Z</time></trkpt>
<trkpt lat="53.0227760000" lon="-4.0551350000"><ele>121</ele><time>2016-09-30T11:53:58Z</time></trkpt>
<trkpt lat="53.0227750000" lon="-4.0551290000"><ele>121</ele><time>2016-09-30T11:53:59Z</time></trkpt>
<trkpt lat="53.0227740000" lon="-4.0551230000"><ele>121</ele><time>2016-09-30T11:54:00Z</time></trkpt>
<trkpt lat="53.0227730000" lon="-4.0551160000"><ele>121</ele><time>2016-09-30T11:54:01Z</time></trkpt>
<trkpt lat="53.0227730000" lon="-4.0551090000"><ele>121</ele><time>2016-09-30T11:54:02Z</time></trkpt>
<trkpt lat="53.0227730000" lon="-4.0551020000"><ele>121</ele><time>2016-09-30T11:54:04Z</time></trkpt>
<trkpt lat="53.0227730000" lon="-4.0550950000"><ele>121</ele></trkpt>
<trkpt lat="53.0227730000" lon="-4.0550880000"><ele>121</ele><time>2016-09-30T11:54:05Z</time></trkpt>
<trkpt lat="53.0227720000" lon="-4.0550810000"><ele>121</ele><time>2016-09-30T11:54:06Z</time></trkpt>
<trkpt lat="53.0227710000" lon="-4.0550750000"><ele>121</ele><time>2016-09-30T11:54:07Z</time></trkpt>
<trkpt lat="53.0227710000" lon="-4.0550680000"><ele>121</ele><time>2016-09-30T11:54:08Z</time></trkpt>
<trkpt lat="53.0227700000" lon="-4.0550620000"><ele>121</ele><time>2016-09-30T11:54:09Z</time></trkpt>
<trkpt lat="53.0227690000" lon="-4.0550550000"><ele>121</ele><time>2016-09-30T11:54:10Z</time></trkpt>
<trkpt lat="53.0227680000" lon="-4.0550480000"><ele>121</ele><time>2016-09-30T11:54:11Z</time></trkpt>
<trkpt lat="53.0227670000" lon="-4.0550410000"><ele>121</ele><time>2016-09-30T11:54:12Z</time></trkpt>
<trkpt lat="53.0227660000" lon="-4.0550340000"><ele>121</ele><time>2016-09-30T11:54:13Z</time></trkpt>
<trkpt lat="53.0227640000" lon="-4.0550280000"><ele>121</ele><time>2016-09-30T11:54:14Z</time></trkpt>
<trkpt lat="53.0227620000" lon="-4.0550210000"><ele>121</ele><time>2016-09-30T11:54:15Z</time></trkpt>
<trkpt lat="53.0227600000" lon="-4.0550140000"><ele>121</ele><time>2016-09-30T11:54:16Z</time></trkpt>
<trkpt lat="53.0227570000" lon="-4.0550070000"><ele>121</ele><time>2016-09-30T11:54:17Z</time></trkpt>
<trkpt lat="53.0227550000" lon="-4.0550010000"><ele>121</ele><time>2016-09-30T11:54:18Z</time></trkpt>
<trkpt lat="53.0227530000" lon="-4.0549960000"><ele>120</ele><time>2016-09-30T11:54:19Z</time></trkpt>
<trkpt lat="53.0227500000" lon="-4.0549900000"><ele>120</ele><time>2016-09-30T11:54:20Z</time></trkpt>
<trkpt lat="53.0227480000" lon="-4.0549840000"><ele>120</ele><time>2016-09-30T11:54:21Z</time></trkpt>
<trkpt lat="53.0227460000" lon="-4.0549780000"><ele>120</ele><time>2016-09-30T11:54:22Z</time></trkpt>
<trkpt lat="53.0227270000" lon="-4.0548830000"><ele>118</ele><time>2016-09-30T11:54:36Z</time></trkpt>
<trkpt lat="53.0227380000" lon="-4.0547220000"><ele>118</ele><time>2016-09-30T11:54:37Z</time></trkpt>
<trkpt lat="53.0227580000" lon="-4.0547180000"><ele>118</ele><time>2016-09-30T11:54:39Z</time></trkpt>
<trkpt lat="53.0227740000" lon="-4.0546860000"><ele>116</ele><time>2016-09-30T11:54:54Z</time></trkpt>
<trkpt lat="53.0228280000" lon="-4.0545080000"><ele>116</ele><time>2016-09-30T11:54:59Z</time></trkpt>
<trkpt lat="53.0228430000" lon="-4.0544750000"><ele>115</ele><time>2016-09-30T11:55:00Z</time></trkpt>
<trkpt lat="53.0228850000" lon="-4.0544010000"><ele>114</ele><time>2016-09-30T11:55:10Z</time></trkpt>
<trkpt lat="53.0228990000" lon="-4.0543650000"><ele>114</ele><time>2016-09-30T11:55:13Z</time></trkpt>
<trkpt lat="53.0228990000" lon="-4.0543430000"><ele>114</ele><time>2016-09-30T11:55:15Z</time></trkpt>
<trkpt lat="53.0228990000" lon="-4.0543430000"><ele>114</ele><time>2016-09-30T11:55:17Z</time></trkpt>
<trkpt lat="53.0228990000" lon="-4.0543430000"><ele>114</ele><time>2016-09-30T11:55:18Z</time></trkpt>
<trkpt lat="53.0228990000" lon="-4.0543420000"><ele>114</ele><time>2016-09-30T11:55:19Z</time></trkpt>
<trkpt lat="53.0228980000" lon="-4.0543410000"><ele>114</ele><time>2016-09-30T11:55:20Z</time></trkpt>
<trkpt lat="53.0228980000" lon="-4.0543400000"><ele>114</ele><time>2016-09-30T11:55:21Z</time></trkpt>
<trkpt lat="53.0228970000" lon="-4.0543380000"><ele>114</ele><time>2016-09-30T11:55:22Z</time></trkpt>
<trkpt lat="53.0228970000" lon="-4.0543370000"><ele>114</ele><time>2016-09-30T11:55:23Z</time></trkpt>
<trkpt lat="53.0228960000" lon="-4.0543350000"><ele>114</ele><time>2016-09-30T11:55:24Z</time></trkpt>
<trkpt lat="53.0228440000" lon="-4.0542280000"><ele>114</ele><time>2016-09-30T11:55:25Z</time></trkpt>
<trkpt lat="53.0228400000" lon="-4.0542120000"><ele>114</ele><time>2016-09-30T11:55:26Z</time></trkpt>
<trkpt lat="53.0228240000" lon="-4.0541860000"><ele>114</ele><time>2016-09-30T11:55:38Z</time></trkpt>
<trkpt lat="53.0228100000" lon="-4.0541650000"><ele>114</ele><time>2016-09-30T11:55:43Z</time></trkpt>
<trkpt lat="53.0228070000" lon="-4.0541580000"><ele>114</ele><time>2016-09-30T11:55:44Z</time></trkpt>
<trkpt lat="53.0228040000" lon="-4.0541520000"><ele>114</ele><time>2016-09-30T11:55:45Z</time></trkpt>
<trkpt lat="53.0228000000" lon="-4.0541450000"><ele>114</ele><time>2016-09-30T11:55:46Z</time></trkpt>
<trkpt lat="53.0227970000" lon="-4.0541390000"><ele>115</ele><time>2016-09-30T11:55:47Z</time></trkpt>
<trkpt lat="53.0227950000" lon="-4.0541320000"><ele>115</ele><time>2016-09-30T11:55:48Z</time></trkpt>
<trkpt lat="53.0227920000" lon="-4.0541240000"><ele>115</ele><time>2016-09-30T11:55:49Z</time></trkpt>
<trkpt lat="53.0227900000" lon="-4.0541160000"><ele>115</ele><time>2016-09-30T11:55:50Z</time></trkpt>
<trkpt lat="53.0227880000" lon="-4.0541080000"><ele>115</ele><time>2016-09-30T11:55:51Z</time></trkpt>
<trkpt lat="53.0227850000" lon="-4.0540990000"><ele>116</ele><time>2016-09-30T11:55:52Z</time></trkpt>
<trkpt lat="53.0227820000" lon="-4.0540900000"><ele>116</ele><time>2016-09-30T11:55:53Z</time></trkpt>
<trkpt lat="53.0227800000" lon="-4.0540810000"><ele>116</ele><time>2016-09-30T11:55:54Z</time></trkpt>
<trkpt lat="53.0227770000" lon="-4.0540720000"><ele>116</ele><time>2016-09-30T11:55:55Z</time></trkpt>
<trkpt lat="53.0227750000" lon="-4.0540620000"><ele>116</ele><time>2016-09-30T11:55:56Z</time></trkpt>
<trkpt lat="53.0227730000" lon="-4.0540520000"><ele>117</ele><time>2016-09-30T11:55:57Z</time></trkpt>
<trkpt lat="53.0227710000" lon="-4.0540410000"><ele>117</ele><time>2016-09-30T11:55:58Z</time></trkpt>
<trkpt lat="53.0227690000" lon="-4.0540310000"><ele>117</ele><time>2016-09-30T11:55:59Z</time></trkpt>
<trkpt lat="53.0227680000" lon="-4.0540200000"><ele>117</ele><time>2016-09-30T11:56:00Z</time></trkpt>
<trkpt lat="53.0227670000" lon="-4.0540080000"><ele>117</ele><time>2016-09-30T11:56:01Z</time></trkpt>
<trkpt lat="53.0227660000" lon="-4.0539970000"><ele>118</ele><time>2016-09-30T11:56:02Z</time></trkpt>
<trkpt lat="53.0227650000" lon="-4.0539860000"><ele>118</ele><time>2016-09-30T11:56:04Z</time></trkpt>
<trkpt lat="53.0227630000" lon="-4.0539740000"><ele>118</ele></trkpt>
<trkpt lat="53.0227620000" lon="-4.0539620000"><ele>118</ele><time>2016-09-30T11:56:05Z</time></trkpt>
<trkpt lat="53.0227610000" lon="-4.0539260000"><ele>119</ele><time>2016-09-30T11:56:08Z</time></trkpt>
<trkpt lat="53.0227590000" lon="-4.0536920000"><ele>120</ele><time>2016-09-30T11:56:12Z</time></trkpt>
<trkpt lat="53.0227620000" lon="-4.0536380000"><ele>120</ele><time>2016-09-30T11:56:16Z</time></trkpt>
<trkpt lat="53.0227660000" lon="-4.0535940000"><ele>124</ele><time>2016-09-30T11:56:29Z</time></trkpt>
<trkpt lat="53.0227920000" lon="-4.0534850000"><ele>124</ele><time>2016-09-30T11:56:33Z</time></trkpt>
<trkpt lat="53.0228030000" lon="-4.0534340000"><ele>126</ele><time>2016-09-30T11:56:48Z</time></trkpt>
<trkpt lat="53.0227690000" lon="-4.0533530000"><ele>127</ele><time>2016-09-30T11:56:50Z</time></trkpt>
<trkpt lat="53.0227660000" lon="-4.0533270000"><ele>128</ele><time>2016-09-30T11:57:02Z</time></trkpt>
<trkpt lat="53.0227680000" lon="-4.0533250000"><ele>128</ele><time>2016-09-30T11:57:04Z</time></trkpt>
<trkpt lat="53.0227690000" lon="-4.0533210000"><ele>128</ele></trkpt>
<trkpt lat="53.0227700000" lon="-4.0533170000"><ele>129</ele><time>2016-09-30T11:57:05Z</time></trkpt>
<trkpt lat="53.0227720000" lon="-4.0533120000"><ele>129</ele><time>2016-09-30T11:57:06Z</time></trkpt>
<trkpt lat="53.0227740000" lon="-4.0533070000"><ele>129</ele><time>2016-09-30T11:57:07Z</time></trkpt>
<trkpt lat="53.0227750000" lon="-4.0533020000"><ele>129</ele><time>2016-09-30T11:57:08Z</time></trkpt>
<trkpt lat="53.0227770000" lon="-4.0532970000"><ele>129</ele><time>2016-09-30T11:57:09Z</time></trkpt>
<trkpt lat="53.0227780000" lon="-4.0532910000"><ele>129</ele><time>2016-09-30T11:57:10Z</time></trkpt>
<trkpt lat="53.0228090000" lon="-4.0531020000"><ele>129</ele><time>2016-09-30T11:57:11Z</time></trkpt>
<trkpt lat="53.0228080000" lon="-4.0530810000"><ele>129</ele><time>2016-09-30T11:57:12Z</time></trkpt>
<trkpt lat="53.0228060000" lon="-4.0530620000"><ele>129</ele><time>2016-09-30T11:57:13Z</time></trkpt>
<trkpt lat="53.0228010000" lon="-4.0530470000"><ele>129</ele><time>2016-09-30T11:57:14Z</time></trkpt>
<trkpt lat="53.0227940000" lon="-4.0530330000"><ele>129</ele><time>2016-09-30T11:57:15Z</time></trkpt>
<trkpt lat="53.0227940000" lon="-4.0530320000"><ele>129</ele><time>2016-09-30T11:57:16Z</time></trkpt>
<trkpt lat="53.0227940000" lon="-4.0530320000"><ele>129</ele><time>2016-09-30T11:57:17Z</time></trkpt>
<trkpt lat="53.0227940000" lon="-4.0530320000"><ele>129</ele><time>2016-09-30T11:57:18Z</time></trkpt>
<trkpt lat="53.0227930000" lon="-4.0530310000"><ele>129</ele><time>2016-09-30T11:57:19Z</time></trkpt>
<trkpt lat="53.0227930000" lon="-4.0530300000"><ele>129</ele><time>2016-09-30T11:57:20Z</time></trkpt>
<trkpt lat="53.0227920000" lon="-4.0530280000"><ele>129</ele><time>2016-09-30T11:57:21Z</time></trkpt>
<trkpt lat="53.0227910000" lon="-4.0530260000"><ele>130</ele><time>2016-09-30T11:57:22Z</time></trkpt>
<trkpt lat="53.0227890000" lon="-4.0530240000"><ele>130</ele><time>2016-09-30T11:57:23Z</time></trkpt>
<trkpt lat="53.0227880000" lon="-4.0530210000"><ele>130</ele><time>2016-09-30T11:57:24Z</time></trkpt>
<trkpt lat="53.0227870000" lon="-4.0530190000"><ele>130</ele><time>2016-09-30T11:57:25Z</time></trkpt>
<trkpt lat="53.0227860000" lon="-4.0530170000"><ele>130</ele><time>2016-09-30T11:57:26Z</time></trkpt>
<trkpt lat="53.0227840000" lon="-4.0530140000"><ele>130</ele><time>2016-09-30T11:57:27Z</time></trkpt>
<trkpt lat="53.0227830000" lon="-4.0530110000"><ele>130</ele><time>2016-09-30T11:57:28Z</time></trkpt>
<trkpt lat="53.0227820000" lon="-4.0530080000"><ele>129</ele><time>2016-09-30T11:57:29Z</time></trkpt>
<trkpt lat="53.0227740000" lon="-4.0529850000"><ele>129</ele><time>2016-09-30T11:57:33Z</time></trkpt>
<trkpt lat="53.0227710000" lon="-4.0529780000"><ele>129</ele><time>2016-09-30T11:57:34Z</time></trkpt>
<trkpt lat="53.0227000000" lon="-4.0528240000"><ele>129</ele><time>2016-09-30T11:57:35Z</time></trkpt>
<trkpt lat="53.0226920000" lon="-4.0528140000"><ele>129</ele><time>2016-09-30T11:57:36Z</time></trkpt>
<trkpt lat="53.0226850000" lon="-4.0528070000"><ele>129</ele><time>2016-09-30T11:57:37Z</time></trkpt>
<trkpt lat="53.0226850000" lon="-4.0528070000"><ele>128</ele><time>2016-09-30T11:57:38Z</time></trkpt>
<trkpt lat="53.0226850000" lon="-4.0528070000"><ele>128</ele><time>2016-09-30T11:57:39Z</time></trkpt>
<trkpt lat="53.0226850000" lon="-4.0528070000"><ele>128</ele><time>2016-09-30T11:57:40Z</time></trkpt>
<trkpt lat="53.0226850000" lon="-4.0528060000"><ele>128</ele><time>2016-09-30T11:57:41Z</time></trkpt>
<trkpt lat="53.0226840000" lon="-4.0528050000"><ele>128</ele><time>2016-09-30T11:57:42Z</time></trkpt>
<trkpt lat="53.0226650000" lon="-4.0527470000"><ele>128</ele><time>2016-09-30T11:57:43Z</time></trkpt>
<trkpt lat="53.0226610000" lon="-4.0527350000"><ele>128</ele><time>2016-09-30T11:57:44Z</time></trkpt>
<trkpt lat="53.0226540000" lon="-4.0527260000"><ele>128</ele><time>2016-09-30T11:57:45Z</time></trkpt>
<trkpt lat="53.0226540000" lon="-4.0527260000"><ele>128</ele><time>2016-09-30T11:57:46Z</time></trkpt>
<trkpt lat="53.0226540000" lon="-4.0527260000"><ele>128</ele><time>2016-09-30T11:57:47Z</time></trkpt>
<trkpt lat="53.0226540000" lon="-4.0527260000"><ele>128</ele><time>2016-09-30T11:57:48Z</time></trkpt>
<trkpt lat="53.0226540000" lon="-4.0527260000"><ele>128</ele><time>2016-09-30T11:57:49Z</time></trkpt>
<trkpt lat="53.0226530000" lon="-4.0527250000"><ele>128</ele><time>2016-09-30T11:57:50Z</time></trkpt>
<trkpt lat="53.0226520000" lon="-4.0527240000"><ele>128</ele><time>2016-09-30T11:57:51Z</time></trkpt>
<trkpt lat="53.0226510000" lon="-4.0527230000"><ele>129</ele><time>2016-09-30T11:57:52Z</time></trkpt>
<trkpt lat="53.0226500000" lon="-4.0527220000"><ele>129</ele><time>2016-09-30T11:57:53Z</time></trkpt>
<trkpt lat="53.0226480000" lon="-4.0527210000"><ele>129</ele><time>2016-09-30T11:57:54Z</time></trkpt>
<trkpt lat="53.0226460000" lon="-4.0527190000"><ele>130</ele><time>2016-09-30T11:57:55Z</time></trkpt>
<trkpt lat="53.0226440000" lon="-4.0527170000"><ele>130</ele><time>2016-09-30T11:57:56Z</time></trkpt>
<trkpt lat="53.0226410000" lon="-4.0527150000"><ele>130</ele><time>2016-09-30T11:57:57Z</time></trkpt>
<trkpt lat="53.0226380000" lon="-4.0527130000"><ele>130</ele><time>2016-09-30T11:57:58Z</time></trkpt>
<trkpt lat="53.0226350000" lon="-4.0527100000"><ele>131</ele><time>2016-09-30T11:57:59Z</time></trkpt>
<trkpt lat="53.0226320000" lon="-4.0527080000"><ele>131</ele><time>2016-09-30T11:58:00Z</time></trkpt>
<trkpt lat="53.0226280000" lon="-4.0527050000"><ele>131</ele><time>2016-09-30T11:58:01Z</time></trkpt>
<trkpt lat="53.0226250000" lon="-4.0527020000"><ele>132</ele><time>2016-09-30T11:58:02Z</time></trkpt>
<trkpt lat="53.0226210000" lon="-4.0526990000"><ele>132</ele><time>2016-09-30T11:58:04Z</time></trkpt>
<trkpt lat="53.0226170000" lon="-4.0526970000"><ele>132</ele></trkpt>
<trkpt lat="53.0226130000" lon="-4.0526940000"><ele>132</ele><time>2016-09-30T11:58:05Z</time></trkpt>
<trkpt lat="53.0226090000" lon="-4.0526920000"><ele>133</ele><time>2016-09-30T11:58:06Z</time></trkpt>
<trkpt lat="53.0226050000" lon="-4.0526900000"><ele>133</ele><time>2016-09-30T11:58:07Z</time></trkpt>
<trkpt lat="53.0226010000" lon="-4.0526880000"><ele>133</ele><time>2016-09-30T11:58:08Z</time></trkpt>
<trkpt lat="53.0225960000" lon="-4.0526860000"><ele>133</ele><time>2016-09-30T11:58:09Z</time></trkpt>
<trkpt lat="53.0225920000" lon="-4.0526840000"><ele>133</ele><time>2016-09-30T11:58:10Z</time></trkpt>
<trkpt lat="53.0225870000" lon="-4.0526810000"><ele>134</ele><time>2016-09-30T11:58:11Z</time></trkpt>
<trkpt lat="53.0225820000" lon="-4.0526780000"><ele>134</ele><time>2016-09-30T11:58:12Z</time></trkpt>
<trkpt lat="53.0225770000" lon="-4.0526750000"><ele>134</ele><time>2016-09-30T11:58:13Z</time></trkpt>
<trkpt lat="53.0225710000" lon="-4.0526720000"><ele>134</ele><time>2016-09-30T11:58:14Z</time></trkpt>
<trkpt lat="53.0225650000" lon="-4.0526690000"><ele>134</ele><time>2016-09-30T11:58:15Z</time></trkpt>
<trkpt lat="53.0225590000" lon="-4.0526660000"><ele>134</ele><time>2016-09-30T11:58:16Z</time></trkpt>
<trkpt lat="53.0225530000" lon="-4.0526630000"><ele>135</ele><time>2016-09-30T11:58:17Z</time></trkpt>
<trkpt lat="53.0225460000" lon="-4.0526610000"><ele>135</ele><time>2016-09-30T11:58:18Z</time></trkpt>
<trkpt lat="53.0225390000" lon="-4.0526580000"><ele>135</ele><time>2016-09-30T11:58:19Z</time></trkpt>
<trkpt lat="53.0225320000" lon="-4.0526560000"><ele>135</ele><time>2016-09-30T11:58:20Z</time></trkpt>
<trkpt lat="53.0225250000" lon="-4.0526530000"><ele>136</ele><time>2016-09-30T11:58:21Z</time></trkpt>
<trkpt lat="53.0225170000" lon="-4.0526510000"><ele>136</ele><time>2016-09-30T11:58:22Z</time></trkpt>
<trkpt lat="53.0225100000" lon="-4.0526480000"><ele>136</ele><time>2016-09-30T11:58:23Z</time></trkpt>
<trkpt lat="53.0225020000" lon="-4.0526450000"><ele>136</ele><time>2016-09-30T11:58:24Z</time></trkpt>
<trkpt lat="53.0224940000" lon="-4.0526420000"><ele>136</ele><time>2016-09-30T11:58:25Z</time></trkpt>
<trkpt lat="53.0224860000" lon="-4.0526390000"><ele>136</ele><time>2016-09-30T11:58:26Z</time></trkpt>
<trkpt lat="53.0224790000" lon="-4.0526360000"><ele>136</ele><time>2016-09-30T11:58:27Z</time></trkpt>
<trkpt lat="53.0224710000" lon="-4.0526340000"><ele>137</ele><time>2016-09-30T11:58:28Z</time></trkpt>
<trkpt lat="53.0224630000" lon="-4.0526320000"><ele>137</ele><time>2016-09-30T11:58:29Z</time></trkpt>
<trkpt lat="53.0224550000" lon="-4.0526300000"><ele>137</ele><time>2016-09-30T11:58:30Z</time></trkpt>
<trkpt lat="53.0224470000" lon="-4.0526280000"><ele>137</ele><time>2016-09-30T11:58:31Z</time></trkpt>
<trkpt lat="53.0224390000" lon="-4.0526270000"><ele>137</ele><time>2016-09-30T11:58:32Z</time></trkpt>
<trkpt lat="53.0224310000" lon="-4.0526250000"><ele>137</ele><time>2016-09-30T11:58:33Z</time></trkpt>
<trkpt lat="53.0224230000" lon="-4.0526240000"><ele>137</ele><time>2016-09-30T11:58:34Z</time></trkpt>
<trkpt lat="53.0224150000" lon="-4.0526230000"><ele>137</ele><time>2016-09-30T11:58:35Z</time></trkpt>
<trkpt lat="53.0224070000" lon="-4.0526220000"><ele>137</ele><time>2016-09-30T11:58:36Z</time></trkpt>
<trkpt lat="53.0223990000" lon="-4.0526220000"><ele>137</ele><time>2016-09-30T11:58:37Z</time></trkpt>
<trkpt lat="53.0223900000" lon="-4.0526220000"><ele>136</ele><time>2016-09-30T11:58:38Z</time></trkpt>
<trkpt lat="53.0223820000" lon="-4.0526220000"><ele>136</ele><time>2016-09-30T11:58:39Z</time></trkpt>
<trkpt lat="53.0223730000" lon="-4.0526210000"><ele>136</ele><time>2016-09-30T11:58:40Z</time></trkpt>
<trkpt lat="53.0223650000" lon="-4.0526210000"><ele>136</ele><time>2016-09-30T11:58:41Z</time></trkpt>
<trkpt lat="53.0223560000" lon="-4.0526210000"><ele>136</ele><time>2016-09-30T11:58:42Z</time></trkpt>
<trkpt lat="53.0223480000" lon="-4.0526210000"><ele>136</ele><time>2016-09-30T11:58:43Z</time></trkpt>
<trkpt lat="53.0223390000" lon="-4.0526200000"><ele>136</ele><time>2016-09-30T11:58:44Z</time></trkpt>
<trkpt lat="53.0223310000" lon="-4.0526190000"><ele>136</ele><time>2016-09-30T11:58:45Z</time></trkpt>
<trkpt lat="53.0223230000" lon="-4.0526180000"><ele>136</ele><time>2016-09-30T11:58:46Z</time></trkpt>
<trkpt lat="53.0223150000" lon="-4.0526170000"><ele>136</ele><time>2016-09-30T11:58:47Z</time></trkpt>
<trkpt lat="53.0223080000" lon="-4.0526150000"><ele>136</ele><time>2016-09-30T11:58:48Z</time></trkpt>
<trkpt lat="53.0223000000" lon="-4.0526130000"><ele>137</ele><time>2016-09-30T11:58:49Z</time></trkpt>
<trkpt lat="53.0222930000" lon="-4.0526110000"><ele>137</ele><time>2016-09-30T11:58:50Z</time></trkpt>
<trkpt lat="53.0222850000" lon="-4.0526090000"><ele>137</ele><time>2016-09-30T11:58:51Z</time></trkpt>
<trkpt lat="53.0222780000" lon="-4.0526060000"><ele>137</ele><time>2016-09-30T11:58:52Z</time></trkpt>
<trkpt lat="53.0222700000" lon="-4.0526020000"><ele>137</ele><time>2016-09-30T11:58:53Z</time></trkpt>
<trkpt lat="53.0222630000" lon="-4.0525980000"><ele>137</ele><time>2016-09-30T11:58:54Z</time></trkpt>
<trkpt lat="53.0222560000" lon="-4.0525930000"><ele>137</ele><time>2016-09-30T11:58:55Z</time></trkpt>
<trkpt lat="53.0222510000" lon="-4.0525880000"><ele>137</ele><time>2016-09-30T11:58:56Z</time></trkpt>
<trkpt lat="53.0222460000" lon="-4.0525840000"><ele>137</ele><time>2016-09-30T11:58:57Z</time></trkpt>
<trkpt lat="53.0222420000" lon="-4.0525800000"><ele>137</ele><time>2016-09-30T11:58:58Z</time></trkpt>
<trkpt lat="53.0222360000" lon="-4.0525740000"><ele>138</ele><time>2016-09-30T11:58:59Z</time></trkpt>
<trkpt lat="53.0222310000" lon="-4.0525670000"><ele>138</ele><time>2016-09-30T11:59:00Z</time></trkpt>
<trkpt lat="53.0222260000" lon="-4.0525590000"><ele>138</ele><time>2016-09-30T11:59:01Z</time></trkpt>
<trkpt lat="53.0222210000" lon="-4.0525520000"><ele>138</ele><time>2016-09-30T11:59:02Z</time></trkpt>
<trkpt lat="53.0222160000" lon="-4.0525450000"><ele>138</ele><time>2016-09-30T11:59:03Z</time></trkpt>
<trkpt lat="53.0222120000" lon="-4.0525380000"><ele>138</ele><time>2016-09-30T11:59:04Z</time></trkpt>
<trkpt lat="53.0222080000" lon="-4.0525310000"><ele>138</ele><time>2016-09-30T11:59:05Z</time></trkpt>
<trkpt lat="53.0222030000" lon="-4.0525240000"><ele>138</ele><time>2016-09-30T11:59:06Z</time></trkpt>
<trkpt lat="53.0221990000" lon="-4.0525170000"><ele>139</ele><time>2016-09-30T11:59:07Z</time></trkpt>
<trkpt lat="53.0221950000" lon="-4.0525100000"><ele>139</ele><time>2016-09-30T11:59:08Z</time></trkpt>
<trkpt lat="53.0221920000" lon="-4.0525020000"><ele>139</ele><time>2016-09-30T11:59:09Z</time></trkpt>
<trkpt lat="53.0221880000" lon="-4.0524930000"><ele>139</ele><time>2016-09-30T11:59:10Z</time></trkpt>
<trkpt lat="53.0221830000" lon="-4.0524850000"><ele>139</ele><time>2016-09-30T11:59:11Z</time></trkpt>
<trkpt lat="53.0221790000" lon="-4.0524760000"><ele>139</ele><time>2016-09-30T11:59:12Z</time></trkpt>
<trkpt lat="53.0221610000" lon="-4.0524400000"><ele>139</ele><time>2016-09-30T11:59:16Z</time></trkpt>
<trkpt lat="53.0221460000" lon="-4.0524120000"><ele>139</ele><time>2016-09-30T11:59:19Z</time></trkpt>
<trkpt lat="53.0221300000" lon="-4.0523870000"><ele>139</ele><time>2016-09-30T11:59:22Z</time></trkpt>
<trkpt lat="53.0220910000" lon="-4.0523380000"><ele>139</ele><time>2016-09-30T11:59:29Z</time></trkpt>
<trkpt lat="53.0219770000" lon="-4.0522370000"><ele>139</ele><time>2016-09-30T11:59:33Z</time></trkpt>
<trkpt lat="53.0219510000" lon="-4.0522310000"><ele>139</ele><time>2016-09-30T11:59:35Z</time></trkpt>
<trkpt lat="53.0219340000" lon="-4.0522200000"><ele>141</ele><time>2016-09-30T11:59:46Z</time></trkpt>
<trkpt lat="53.0219290000" lon="-4.0522140000"><ele>141</ele><time>2016-09-30T11:59:48Z</time></trkpt>
<trkpt lat="53.0219270000" lon="-4.0522100000"><ele>141</ele><time>2016-09-30T11:59:49Z</time></trkpt>
<trkpt lat="53.0219240000" lon="-4.0522060000"><ele>142</ele><time>2016-09-30T11:59:50Z</time></trkpt>
<trkpt lat="53.0219210000" lon="-4.0522010000"><ele>142</ele><time>2016-09-30T11:59:51Z</time></trkpt>
<trkpt lat="53.0219180000" lon="-4.0521960000"><ele>142</ele><time>2016-09-30T11:59:52Z</time></trkpt>
<trkpt lat="53.0219150000" lon="-4.0521900000"><ele>142</ele><time>2016-09-30T11:59:53Z</time></trkpt>
<trkpt lat="53.0219110000" lon="-4.0521840000"><ele>143</ele><time>2016-09-30T11:59:54Z</time></trkpt>
<trkpt lat="53.0219070000" lon="-4.0521770000"><ele>143</ele><time>2016-09-30T11:59:55Z</time></trkpt>
<trkpt lat="53.0219030000" lon="-4.0521690000"><ele>143</ele><time>2016-09-30T11:59:56Z</time></trkpt>
<trkpt lat="53.0218990000" lon="-4.0521610000"><ele>143</ele><time>2016-09-30T11:59:57Z</time></trkpt>
<trkpt lat="53.0218940000" lon="-4.0521520000"><ele>143</ele><time>2016-09-30T11:59:58Z</time></trkpt>
<trkpt lat="53.0218890000" lon="-4.0521420000"><ele>143</ele><time>2016-09-30T11:59:59Z</time></trkpt>
<trkpt lat="53.0218840000" lon="-4.0521320000"><ele>144</ele><time>2016-09-30T12:00:00Z</time></trkpt>
<trkpt lat="53.0218780000" lon="-4.0521230000"><ele>144</ele><time>2016-09-30T12:00:01Z</time></trkpt>
<trkpt lat="53.0218730000" lon="-4.0521130000"><ele>144</ele><time>2016-09-30T12:00:02Z</time></trkpt>
<trkpt lat="53.0218670000" lon="-4.0521020000"><ele>144</ele><time>2016-09-30T12:00:03Z</time></trkpt>
<trkpt lat="53.0218610000" lon="-4.0520910000"><ele>144</ele><time>2016-09-30T12:00:04Z</time></trkpt>
<trkpt lat="53.0218550000" lon="-4.0520800000"><ele>144</ele><time>2016-09-30T12:00:05Z</time></trkpt>
<trkpt lat="53.0218500000" lon="-4.0520690000"><ele>144</ele><time>2016-09-30T12:00:06Z</time></trkpt>
<trkpt lat="53.0218440000" lon="-4.0520570000"><ele>144</ele><time>2016-09-30T12:00:07Z</time></trkpt>
<trkpt lat="53.0218380000" lon="-4.0520460000"><ele>144</ele><time>2016-09-30T12:00:08Z</time></trkpt>
<trkpt lat="53.0218320000" lon="-4.0520340000"><ele>145</ele><time>2016-09-30T12:00:09Z</time></trkpt>
<trkpt lat="53.0218260000" lon="-4.0520230000"><ele>145</ele><time>2016-09-30T12:00:10Z</time></trkpt>
<trkpt lat="53.0218190000" lon="-4.0520120000"><ele>145</ele><time>2016-09-30T12:00:11Z</time></trkpt>
<trkpt lat="53.0218120000" lon="-4.0520020000"><ele>145</ele><time>2016-09-30T12:00:12Z</time></trkpt>
<trkpt lat="53.0218060000" lon="-4.0519910000"><ele>145</ele><time>2016-09-30T12:00:13Z</time></trkpt>
<trkpt lat="53.0218000000" lon="-4.0519790000"><ele>145</ele><time>2016-09-30T12:00:14Z</time></trkpt>
<trkpt lat="53.0217940000" lon="-4.0519680000"><ele>145</ele><time>2016-09-30T12:00:15Z</time></trkpt>
<trkpt lat="53.0217880000" lon="-4.0519550000"><ele>145</ele><time>2016-09-30T12:00:16Z</time></trkpt>
<trkpt lat="53.0217000000" lon="-4.0517580000"><ele>145</ele><time>2016-09-30T12:00:17Z</time></trkpt>
<trkpt lat="53.0217000000" lon="-4.0517390000"><ele>146</ele><time>2016-09-30T12:00:18Z</time></trkpt>
<trkpt lat="53.0217030000" lon="-4.0517260000"><ele>146</ele><time>2016-09-30T12:00:19Z</time></trkpt>
<trkpt lat="53.0217060000" lon="-4.0517120000"><ele>146</ele><time>2016-09-30T12:00:20Z</time></trkpt>
<trkpt lat="53.0217060000" lon="-4.0517120000"><ele>146</ele><time>2016-09-30T12:00:21Z</time></trkpt>
<trkpt lat="53.0217060000" lon="-4.0517120000"><ele>146</ele><time>2016-09-30T12:00:22Z</time></trkpt>
<trkpt lat="53.0217060000" lon="-4.0517110000"><ele>146</ele><time>2016-09-30T12:00:23Z</time></trkpt>
<trkpt lat="53.0217060000" lon="-4.0517100000"><ele>146</ele><time>2016-09-30T12:00:24Z</time></trkpt>
<trkpt lat="53.0217070000" lon="-4.0517080000"><ele>146</ele><time>2016-09-30T12:00:25Z</time></trkpt>
<trkpt lat="53.0217070000" lon="-4.0517060000"><ele>146</ele><time>2016-09-30T12:00:26Z</time></trkpt>
<trkpt lat="53.0217080000" lon="-4.0517030000"><ele>146</ele><time>2016-09-30T12:00:27Z</time></trkpt>
<trkpt lat="53.0217090000" lon="-4.0516990000"><ele>146</ele><time>2016-09-30T12:00:28Z</time></trkpt>
<trkpt lat="53.0217100000" lon="-4.0516950000"><ele>146</ele><time>2016-09-30T12:00:29Z</time></trkpt>
<trkpt lat="53.0217110000" lon="-4.0516900000"><ele>146</ele><time>2016-09-30T12:00:30Z</time></trkpt>
<trkpt lat="53.0217120000" lon="-4.0516840000"><ele>146</ele><time>2016-09-30T12:00:31Z</time></trkpt>
<trkpt lat="53.0217130000" lon="-4.0516780000"><ele>146</ele><time>2016-09-30T12:00:32Z</time></trkpt>
<trkpt lat="53.0217130000" lon="-4.0516710000"><ele>146</ele><time>2016-09-30T12:00:33Z</time></trkpt>
<trkpt lat="53.0217140000" lon="-4.0516640000"><ele>146</ele><time>2016-09-30T12:00:34Z</time></trkpt>
<trkpt lat="53.0217140000" lon="-4.0516560000"><ele>146</ele><time>2016-09-30T12:00:35Z</time></trkpt>
<trkpt lat="53.0217130000" lon="-4.0516470000"><ele>146</ele><time>2016-09-30T12:00:36Z</time></trkpt>
<trkpt lat="53.0217130000" lon="-4.0516390000"><ele>146</ele><time>2016-09-30T12:00:37Z</time></trkpt>
<trkpt lat="53.0217120000" lon="-4.0516290000"><ele>146</ele><time>2016-09-30T12:00:38Z</time></trkpt>
<trkpt lat="53.0216830000" lon="-4.0514490000"><ele>146</ele><time>2016-09-30T12:00:39Z</time></trkpt>
<trkpt lat="53.0216760000" lon="-4.0514360000"><ele>146</ele><time>2016-09-30T12:00:40Z</time></trkpt>
<trkpt lat="53.0216670000" lon="-4.0514250000"><ele>146</ele><time>2016-09-30T12:00:41Z</time></trkpt>
<trkpt lat="53.0216600000" lon="-4.0514140000"><ele>146</ele><time>2016-09-30T12:00:42Z</time></trkpt>
<trkpt lat="53.0216540000" lon="-4.0514060000"><ele>146</ele><time>2016-09-30T12:00:43Z</time></trkpt>
<trkpt lat="53.0216540000" lon="-4.0514060000"><ele>146</ele><time>2016-09-30T12:00:44Z</time></trkpt>
<trkpt lat="53.0216530000" lon="-4.0514050000"><ele>146</ele><time>2016-09-30T12:00:46Z</time></trkpt>
<trkpt lat="53.0216530000" lon="-4.0514040000"><ele>146</ele><time>2016-09-30T12:00:47Z</time></trkpt>
<trkpt lat="53.0216520000" lon="-4.0514020000"><ele>146</ele><time>2016-09-30T12:00:48Z</time></trkpt>
<trkpt lat="53.0216250000" lon="-4.0513160000"><ele>146</ele><time>2016-09-30T12:00:49Z</time></trkpt>
<trkpt lat="53.0216220000" lon="-4.0513040000"><ele>146</ele><time>2016-09-30T12:00:50Z</time></trkpt>
<trkpt lat="53.0216170000" lon="-4.0512950000"><ele>146</ele><time>2016-09-30T12:00:51Z</time></trkpt>
<trkpt lat="53.0216170000" lon="-4.0512950000"><ele>146</ele><time>2016-09-30T12:00:52Z</time></trkpt>
<trkpt lat="53.0216170000" lon="-4.0512950000"><ele>146</ele><time>2016-09-30T12:00:53Z</time></trkpt>
<trkpt lat="53.0216160000" lon="-4.0512940000"><ele>146</ele><time>2016-09-30T12:00:54Z</time></trkpt>
<trkpt lat="53.0216160000" lon="-4.0512940000"><ele>146</ele><time>2016-09-30T12:00:55Z</time></trkpt>
<trkpt lat="53.0216150000" lon="-4.0512930000"><ele>146</ele><time>2016-09-30T12:00:56Z</time></trkpt>
<trkpt lat="53.0216140000" lon="-4.0512910000"><ele>146</ele><time>2016-09-30T12:00:57Z</time></trkpt>
<trkpt lat="53.0216130000" lon="-4.0512890000"><ele>146</ele><time>2016-09-30T12:00:58Z</time></trkpt>
<trkpt lat="53.0216110000" lon="-4.0512870000"><ele>146</ele><time>2016-09-30T12:00:59Z</time></trkpt>
<trkpt lat="53.0216100000" lon="-4.0512840000"><ele>146</ele></trkpt>
<trkpt lat="53.0216090000" lon="-4.0512810000"><ele>146</ele><time>2016-09-30T12:01:01Z</time></trkpt>
<trkpt lat="53.0216070000" lon="-4.0512780000"><ele>146</ele><time>2016-09-30T12:01:02Z</time></trkpt>
<trkpt lat="53.0216060000" lon="-4.0512750000"><ele>146</ele><time>2016-09-30T12:01:03Z</time></trkpt>
<trkpt lat="53.0216050000" lon="-4.0512710000"><ele>146</ele><time>2016-09-30T12:01:04Z</time></trkpt>
<trkpt lat="53.0216040000" lon="-4.0512670000"><ele>146</ele><time>2016-09-30T12:01:05Z</time></trkpt>
<trkpt lat="53.0216030000" lon="-4.0512630000"><ele>146</ele><time>2016-09-30T12:01:06Z</time></trkpt>
<trkpt lat="53.0216020000" lon="-4.0512590000"><ele>146</ele><time>2016-09-30T12:01:07Z</time></trkpt>
<trkpt lat="53.0216010000" lon="-4.0512550000"><ele>146</ele><time>2016-09-30T12:01:08Z</time></trkpt>
<trkpt lat="53.0215990000" lon="-4.0512500000"><ele>146</ele><time>2016-09-30T12:01:09Z</time></trkpt>
<trkpt lat="53.0215980000" lon="-4.0512450000"><ele>146</ele><time>2016-09-30T12:01:10Z</time></trkpt>
<trkpt lat="53.0215960000" lon="-4.0512390000"><ele>146</ele><time>2016-09-30T12:01:11Z</time></trkpt>
<trkpt lat="53.0215940000" lon="-4.0512320000"><ele>146</ele><time>2016-09-30T12:01:12Z</time></trkpt>
<trkpt lat="53.0215930000" lon="-4.0512260000"><ele>146</ele><time>2016-09-30T12:01:13Z</time></trkpt>
<trkpt lat="53.0215910000" lon="-4.0512180000"><ele>146</ele><time>2016-09-30T12:01:14Z</time></trkpt>
<trkpt lat="53.0215890000" lon="-4.0512110000"><ele>146</ele><time>2016-09-30T12:01:15Z</time></trkpt>
<trkpt lat="53.0215860000" lon="-4.0512040000"><ele>146</ele><time>2016-09-30T12:01:16Z</time></trkpt>
<trkpt lat="53.0215840000" lon="-4.0511980000"><ele>146</ele><time>2016-09-30T12:01:17Z</time></trkpt>
<trkpt lat="53.0215800000" lon="-4.0511920000"><ele>146</ele><time>2016-09-30T12:01:18Z</time></trkpt>
<trkpt lat="53.0215770000" lon="-4.0511860000"><ele>146</ele><time>2016-09-30T12:01:19Z</time></trkpt>
<trkpt lat="53.0215730000" lon="-4.0511810000"><ele>146</ele><time>2016-09-30T12:01:20Z</time></trkpt>
<trkpt lat="53.0215690000" lon="-4.0511750000"><ele>146</ele><time>2016-09-30T12:01:21Z</time></trkpt>
<trkpt lat="53.0215650000" lon="-4.0511690000"><ele>146</ele><time>2016-09-30T12:01:22Z</time></trkpt>
<trkpt lat="53.0215600000" lon="-4.0511630000"><ele>146</ele><time>2016-09-30T12:01:23Z</time></trkpt>
<trkpt lat="53.0215550000" lon="-4.0511560000"><ele>146</ele><time>2016-09-30T12:01:24Z</time></trkpt>
<trkpt lat="53.0215500000" lon="-4.0511490000"><ele>146</ele><time>2016-09-30T12:01:25Z</time></trkpt>
<trkpt lat="53.0215440000" lon="-4.0511430000"><ele>146</ele><time>2016-09-30T12:01:26Z</time></trkpt>
<trkpt lat="53.0215390000" lon="-4.0511360000"><ele>146</ele><time>2016-09-30T12:01:27Z</time></trkpt>
<trkpt lat="53.0215320000" lon="-4.0511300000"><ele>146</ele><time>2016-09-30T12:01:28Z</time></trkpt>
<trkpt lat="53.0215260000" lon="-4.0511230000"><ele>146</ele><time>2016-09-30T12:01:29Z</time></trkpt>
<trkpt lat="53.0215200000" lon="-4.0511150000"><ele>146</ele><time>2016-09-30T12:01:30Z</time></trkpt>
<trkpt lat="53.0215130000" lon="-4.0511080000"><ele>146</ele><time>2016-09-30T12:01:31Z</time></trkpt>
<trkpt lat="53.0215060000" lon="-4.0511010000"><ele>146</ele><time>2016-09-30T12:01:32Z</time></trkpt>
<trkpt lat="53.0214990000" lon="-4.0510930000"><ele>146</ele><time>2016-09-30T12:01:33Z</time></trkpt>
<trkpt lat="53.0214920000" lon="-4.0510850000"><ele>146</ele><time>2016-09-30T12:01:34Z</time></trkpt>
<trkpt lat="53.0214850000" lon="-4.0510770000"><ele>146</ele><time>2016-09-30T12:01:35Z</time></trkpt>
<trkpt lat="53.0214780000" lon="-4.0510680000"><ele>146</ele><time>2016-09-30T12:01:36Z</time></trkpt>
<trkpt lat="53.0214710000" lon="-4.0510600000"><ele>146</ele><time>2016-09-30T12:01:37Z</time></trkpt>
<trkpt lat="53.0214630000" lon="-4.0510520000"><ele>146</ele><time>2016-09-30T12:01:38Z</time></trkpt>
<trkpt lat="53.0214560000" lon="-4.0510450000"><ele>146</ele><time>2016-09-30T12:01:39Z</time></trkpt>
<trkpt lat="53.0214480000" lon="-4.0510370000"><ele>146</ele><time>2016-09-30T12:01:40Z</time></trkpt>
<trkpt lat="53.0214400000" lon="-4.0510300000"><ele>146</ele><time>2016-09-30T12:01:41Z</time></trkpt>
<trkpt lat="53.0214320000" lon="-4.0510230000"><ele>146</ele><time>2016-09-30T12:01:42Z</time></trkpt>
<trkpt lat="53.0214240000" lon="-4.0510160000"><ele>146</ele><time>2016-09-30T12:01:43Z</time></trkpt>
<trkpt lat="53.0214160000" lon="-4.0510100000"><ele>146</ele></trkpt>
<trkpt lat="53.0214000000" lon="-4.0509990000"><ele>146</ele><time>2016-09-30T12:01:46Z</time></trkpt>
<trkpt lat="53.0213920000" lon="-4.0509940000"><ele>146</ele><time>2016-09-30T12:01:47Z</time></trkpt>
<trkpt lat="53.0213840000" lon="-4.0509890000"><ele>146</ele><time>2016-09-30T12:01:48Z</time></trkpt>
<trkpt lat="53.0213760000" lon="-4.0509850000"><ele>146</ele><time>2016-09-30T12:01:49Z</time></trkpt>
<trkpt lat="53.0213680000" lon="-4.0509810000"><ele>146</ele><time>2016-09-30T12:01:50Z</time></trkpt>
<trkpt lat="53.0213600000" lon="-4.0509770000"><ele>146</ele><time>2016-09-30T12:01:51Z</time></trkpt>
<trkpt lat="53.0213530000" lon="-4.0509740000"><ele>146</ele><time>2016-09-30T12:01:52Z</time></trkpt>
<trkpt lat="53.0213460000" lon="-4.0509700000"><ele>146</ele><time>2016-09-30T12:01:53Z</time></trkpt>
<trkpt lat="53.0213380000" lon="-4.0509670000"><ele>146</ele><time>2016-09-30T12:01:54Z</time></trkpt>
<trkpt lat="53.0213320000" lon="-4.0509650000"><ele>146</ele><time>2016-09-30T12:01:55Z</time></trkpt>
<trkpt lat="53.0213250000" lon="-4.0509620000"><ele>146</ele><time>2016-09-30T12:01:56Z</time></trkpt>
<trkpt lat="53.0213180000" lon="-4.0509600000"><ele>146</ele><time>2016-09-30T12:01:57Z</time></trkpt>
<trkpt lat="53.0213120000" lon="-4.0509570000"><ele>147</ele><time>2016-09-30T12:01:58Z</time></trkpt>
<trkpt lat="53.0213050000" lon="-4.0509550000"><ele>147</ele><time>2016-09-30T12:01:59Z</time></trkpt>
<trkpt lat="53.0212990000" lon="-4.0509520000"><ele>147</ele><time>2016-09-30T12:02:00Z</time></trkpt>
<trkpt lat="53.0212930000" lon="-4.0509500000"><ele>147</ele><time>2016-09-30T12:02:01Z</time></trkpt>
<trkpt lat="53.0212880000" lon="-4.0509470000"><ele>147</ele><time>2016-09-30T12:02:02Z</time></trkpt>
<trkpt lat="53.0212820000" lon="-4.0509460000"><ele>147</ele><time>2016-09-30T12:02:03Z</time></trkpt>
<trkpt lat="53.0212770000" lon="-4.0509440000"><ele>147</ele><time>2016-09-30T12:02:04Z</time></trkpt>
<trkpt lat="53.0212710000" lon="-4.0509440000"><ele>147</ele><time>2016-09-30T12:02:05Z</time></trkpt>
<trkpt lat="53.0212660000" lon="-4.0509430000"><ele>148</ele><time>2016-09-30T12:02:06Z</time></trkpt>
<trkpt lat="53.0212600000" lon="-4.0509410000"><ele>148</ele><time>2016-09-30T12:02:07Z</time></trkpt>
<trkpt lat="53.0212550000" lon="-4.0509390000"><ele>148</ele><time>2016-09-30T12:02:08Z</time></trkpt>
<trkpt lat="53.0212500000" lon="-4.0509370000"><ele>148</ele><time>2016-09-30T12:02:09Z</time></trkpt>
<trkpt lat="53.0212460000" lon="-4.0509340000"><ele>148</ele><time>2016-09-30T12:02:10Z</time></trkpt>
<trkpt lat="53.0212410000" lon="-4.0509320000"><ele>149</ele><time>2016-09-30T12:02:11Z</time></trkpt>
<trkpt lat="53.0212370000" lon="-4.0509290000"><ele>149</ele><time>2016-09-30T12:02:12Z</time></trkpt>
<trkpt lat="53.0212320000" lon="-4.0509260000"><ele>149</ele><time>2016-09-30T12:02:13Z</time></trkpt>
<trkpt lat="53.0212280000" lon="-4.0509230000"><ele>149</ele><time>2016-09-30T12:02:14Z</time></trkpt>
<trkpt lat="53.0212230000" lon="-4.0509190000"><ele>149</ele><time>2016-09-30T12:02:15Z</time></trkpt>
<trkpt lat="53.0212200000" lon="-4.0509150000"><ele>149</ele><time>2016-09-30T12:02:16Z</time></trkpt>
<trkpt lat="53.0212160000" lon="-4.0509110000"><ele>149</ele><time>2016-09-30T12:02:17Z</time></trkpt>
<trkpt lat="53.0212140000" lon="-4.0509060000"><ele>149</ele><time>2016-09-30T12:02:18Z</time></trkpt>
<trkpt lat="53.0212110000" lon="-4.0509020000"><ele>150</ele><time>2016-09-30T12:02:19Z</time></trkpt>
<trkpt lat="53.0212090000" lon="-4.0508970000"><ele>150</ele><time>2016-09-30T12:02:20Z</time></trkpt>
<trkpt lat="53.0212060000" lon="-4.0508920000"><ele>150</ele><time>2016-09-30T12:02:21Z</time></trkpt>
<trkpt lat="53.0212040000" lon="-4.0508870000"><ele>150</ele><time>2016-09-30T12:02:22Z</time></trkpt>
<trkpt lat="53.0212030000" lon="-4.0508810000"><ele>150</ele><time>2016-09-30T12:02:23Z</time></trkpt>
<trkpt lat="53.0212010000" lon="-4.0508750000"><ele>150</ele><time>2016-09-30T12:02:24Z</time></trkpt>
<trkpt lat="53.0212000000" lon="-4.0508690000"><ele>151</ele><time>2016-09-30T12:02:25Z</time></trkpt>
<trkpt lat="53.0211990000" lon="-4.0508630000"><ele>151</ele><time>2016-09-30T12:02:26Z</time></trkpt>
<trkpt lat="53.0211980000" lon="-4.0508560000"><ele>151</ele><time>2016-09-30T12:02:27Z</time></trkpt>
<trkpt lat="53.0211960000" lon="-4.0508490000"><ele>151</ele><time>2016-09-30T12:02:28Z</time></trkpt>
<trkpt lat="53.0211950000" lon="-4.0508420000"><ele>151</ele><time>2016-09-30T12:02:29Z</time></trkpt>
<trkpt lat="53.0211930000" lon="-4.0508340000"><ele>152</ele><time>2016-09-30T12:02:30Z</time></trkpt>
<trkpt lat="53.0211920000" lon="-4.0508260000"><ele>152</ele><time>2016-09-30T12:02:31Z</time></trkpt>
<trkpt lat="53.0211910000" lon="-4.0508180000"><ele>152</ele><time>2016-09-30T12:02:32Z</time></trkpt>
<trkpt lat="53.0211900000" lon="-4.0508100000"><ele>152</ele><time>2016-09-30T12:02:33Z</time></trkpt>
<trkpt lat="53.0211900000" lon="-4.0508030000"><ele>152</ele><time>2016-09-30T12:02:34Z</time></trkpt>
<trkpt lat="53.0211890000" lon="-4.0507950000"><ele>153</ele><time>2016-09-30T12:02:35Z</time></trkpt>
<trkpt lat="53.0211890000" lon="-4.0507880000"><ele>153</ele><time>2016-09-30T12:02:36Z</time></trkpt>
<trkpt lat="53.0211890000" lon="-4.0507820000"><ele>153</ele><time>2016-09-30T12:02:37Z</time></trkpt>
<trkpt lat="53.0211890000" lon="-4.0507750000"><ele>153</ele><time>2016-09-30T12:02:38Z</time></trkpt>
<trkpt lat="53.0211890000" lon="-4.0507700000"><ele>154</ele><time>2016-09-30T12:02:39Z</time></trkpt>
<trkpt lat="53.0211890000" lon="-4.0507650000"><ele>154</ele><time>2016-09-30T12:02:40Z</time></trkpt>
<trkpt lat="53.0211890000" lon="-4.0507590000"><ele>154</ele><time>2016-09-30T12:02:41Z</time></trkpt>
<trkpt lat="53.0211890000" lon="-4.0507540000"><ele>154</ele><time>2016-09-30T12:02:42Z</time></trkpt>
<trkpt lat="53.0211880000" lon="-4.0507500000"><ele>155</ele><time>2016-09-30T12:02:43Z</time></trkpt>
<trkpt lat="53.0211880000" lon="-4.0507450000"><ele>155</ele><time>2016-09-30T12:02:44Z</time></trkpt>
<trkpt lat="53.0211870000" lon="-4.0507350000"><ele>155</ele><time>2016-09-30T12:02:46Z</time></trkpt>
<trkpt lat="53.0211870000" lon="-4.0507290000"><ele>155</ele><time>2016-09-30T12:02:47Z</time></trkpt>
<trkpt lat="53.0211860000" lon="-4.0507230000"><ele>155</ele><time>2016-09-30T12:02:48Z</time></trkpt>
<trkpt lat="53.0211860000" lon="-4.0507160000"><ele>156</ele><time>2016-09-30T12:02:49Z</time></trkpt>
<trkpt lat="53.0211850000" lon="-4.0507100000"><ele>156</ele><time>2016-09-30T12:02:50Z</time></trkpt>
<trkpt lat="53.0211840000" lon="-4.0507030000"><ele>156</ele><time>2016-09-30T12:02:51Z</time></trkpt>
<trkpt lat="53.0211820000" lon="-4.0506970000"><ele>156</ele><time>2016-09-30T12:02:52Z</time></trkpt>
<trkpt lat="53.0211810000" lon="-4.0506900000"><ele>156</ele><time>2016-09-30T12:02:53Z</time></trkpt>
<trkpt lat="53.0211790000" lon="-4.0506830000"><ele>156</ele><time>2016-09-30T12:02:54Z</time></trkpt>
<trkpt lat="53.0211770000" lon="-4.0506750000"><ele>156</ele><time>2016-09-30T12:02:55Z</time></trkpt>
<trkpt lat="53.0211740000" lon="-4.0506670000"><ele>156</ele><time>2016-09-30T12:02:56Z</time></trkpt>
<trkpt lat="53.0211710000" lon="-4.0506580000"><ele>156</ele><time>2016-09-30T12:02:57Z</time></trkpt>
<trkpt lat="53.0211690000" lon="-4.0506490000"><ele>156</ele><time>2016-09-30T12:02:58Z</time></trkpt>
<trkpt lat="53.0211660000" lon="-4.0506390000"><ele>157</ele><time>2016-09-30T12:02:59Z</time></trkpt>
<trkpt lat="53.0211640000" lon="-4.0506300000"><ele>157</ele><time>2016-09-30T12:03:00Z</time></trkpt>
<trkpt lat="53.0211600000" lon="-4.0506200000"><ele>157</ele><time>2016-09-30T12:03:01Z</time></trkpt>
<trkpt lat="53.0211570000" lon="-4.0506120000"><ele>157</ele><time>2016-09-30T12:03:02Z</time></trkpt>
<trkpt lat="53.0211530000" lon="-4.0506030000"><ele>157</ele><time>2016-09-30T12:03:03Z</time></trkpt>
<trkpt lat="53.0211500000" lon="-4.0505930000"><ele>157</ele><time>2016-09-30T12:03:04Z</time></trkpt>
<trkpt lat="53.0211460000" lon="-4.0505840000"><ele>158</ele><time>2016-09-30T12:03:05Z</time></trkpt>
<trkpt lat="53.0211420000" lon="-4.0505740000"><ele>158</ele><time>2016-09-30T12:03:06Z</time></trkpt>
<trkpt lat="53.0211380000" lon="-4.0505630000"><ele>158</ele><time>2016-09-30T12:03:07Z</time></trkpt>
<trkpt lat="53.0211350000" lon="-4.0505550000"><ele>158</ele><time>2016-09-30T12:03:08Z</time></trkpt>
<trkpt lat="53.0211310000" lon="-4.0505440000"><ele>158</ele><time>2016-09-30T12:03:09Z</time></trkpt>
<trkpt lat="53.0211280000" lon="-4.0505330000"><ele>159</ele><time>2016-09-30T12:03:11Z</time></trkpt>
<trkpt lat="53.0211250000" lon="-4.0505210000"><ele>159</ele></trkpt>
<trkpt lat="53.0211220000" lon="-4.0505090000"><ele>159</ele><time>2016-09-30T12:03:12Z</time></trkpt>
<trkpt lat="53.0211190000" lon="-4.0504970000"><ele>159</ele><time>2016-09-30T12:03:13Z</time></trkpt>
<trkpt lat="53.0211160000" lon="-4.0504850000"><ele>159</ele><time>2016-09-30T12:03:14Z</time></trkpt>
<trkpt lat="53.0211120000" lon="-4.0504740000"><ele>159</ele><time>2016-09-30T12:03:15Z</time></trkpt>
<trkpt lat="53.0211090000" lon="-4.0504630000"><ele>159</ele><time>2016-09-30T12:03:16Z</time></trkpt>
<trkpt lat="53.0211060000" lon="-4.0504530000"><ele>159</ele><time>2016-09-30T12:03:17Z</time></trkpt>
<trkpt lat="53.0211020000" lon="-4.0504430000"><ele>159</ele><time>2016-09-30T12:03:18Z</time></trkpt>
<trkpt lat="53.0210980000" lon="-4.0504330000"><ele>160</ele><time>2016-09-30T12:03:19Z</time></trkpt>
<trkpt lat="53.0210950000" lon="-4.0504240000"><ele>160</ele><time>2016-09-30T12:03:20Z</time></trkpt>
<trkpt lat="53.0210910000" lon="-4.0504140000"><ele>160</ele><time>2016-09-30T12:03:21Z</time></trkpt>
<trkpt lat="53.0210880000" lon="-4.0504040000"><ele>160</ele><time>2016-09-30T12:03:22Z</time></trkpt>
<trkpt lat="53.0210840000" lon="-4.0503950000"><ele>160</ele><time>2016-09-30T12:03:23Z</time></trkpt>
<trkpt lat="53.0210810000" lon="-4.0503860000"><ele>160</ele><time>2016-09-30T12:03:24Z</time></trkpt>
<trkpt lat="53.0210770000" lon="-4.0503760000"><ele>160</ele><time>2016-09-30T12:03:25Z</time></trkpt>
<trkpt lat="53.0210730000" lon="-4.0503660000"><ele>160</ele><time>2016-09-30T12:03:26Z</time></trkpt>
<trkpt lat="53.0210690000" lon="-4.0503570000"><ele>160</ele><time>2016-09-30T12:03:27Z</time></trkpt>
<trkpt lat="53.0210660000" lon="-4.0503490000"><ele>161</ele><time>2016-09-30T12:03:28Z</time></trkpt>
<trkpt lat="53.0210630000" lon="-4.0503390000"><ele>161</ele><time>2016-09-30T12:03:29Z</time></trkpt>
<trkpt lat="53.0210490000" lon="-4.0503000000"><ele>161</ele><time>2016-09-30T12:03:33Z</time></trkpt>
<trkpt lat="53.0210240000" lon="-4.0502500000"><ele>162</ele><time>2016-09-30T12:03:39Z</time></trkpt>
<trkpt lat="53.0209390000" lon="-4.0501030000"><ele>162</ele><time>2016-09-30T12:03:40Z</time></trkpt>
<trkpt lat="53.0209150000" lon="-4.0500990000"><ele>162</ele><time>2016-09-30T12:03:43Z</time></trkpt>
<trkpt lat="53.0208970000" lon="-4.0500890000"><ele>162</ele><time>2016-09-30T12:03:45Z</time></trkpt>
<trkpt lat="53.0208370000" lon="-4.0499970000"><ele>163</ele><time>2016-09-30T12:03:52Z</time></trkpt>
<trkpt lat="53.0208260000" lon="-4.0499880000"><ele>163</ele><time>2016-09-30T12:03:53Z</time></trkpt>
<trkpt lat="53.0208160000" lon="-4.0499750000"><ele>163</ele><time>2016-09-30T12:03:54Z</time></trkpt>
<trkpt lat="53.0208100000" lon="-4.0499550000"><ele>164</ele><time>2016-09-30T12:03:55Z</time></trkpt>
<trkpt lat="53.0208030000" lon="-4.0499370000"><ele>164</ele><time>2016-09-30T12:03:56Z</time></trkpt>
<trkpt lat="53.0207960000" lon="-4.0499200000"><ele>164</ele><time>2016-09-30T12:03:57Z</time></trkpt>
<trkpt lat="53.0207880000" lon="-4.0499110000"><ele>164</ele><time>2016-09-30T12:03:58Z</time></trkpt>
<trkpt lat="53.0207770000" lon="-4.0499040000"><ele>164</ele><time>2016-09-30T12:03:59Z</time></trkpt>
<trkpt lat="53.0207660000" lon="-4.0498910000"><ele>164</ele><time>2016-09-30T12:04:00Z</time></trkpt>
<trkpt lat="53.0207600000" lon="-4.0498730000"><ele>164</ele><time>2016-09-30T12:04:01Z</time></trkpt>
<trkpt lat="53.0207550000" lon="-4.0498540000"><ele>164</ele><time>2016-09-30T12:04:02Z</time></trkpt>
<trkpt lat="53.0207470000" lon="-4.0498330000"><ele>164</ele><time>2016-09-30T12:04:04Z</time></trkpt>
<trkpt lat="53.0207470000" lon="-4.0498330000"><ele>164</ele><time>2016-09-30T12:04:05Z</time></trkpt>
<trkpt lat="53.0207470000" lon="-4.0498330000"><ele>165</ele><time>2016-09-30T12:04:06Z</time></trkpt>
<trkpt lat="53.0207460000" lon="-4.0498320000"><ele>165</ele><time>2016-09-30T12:04:07Z</time></trkpt>
<trkpt lat="53.0207460000" lon="-4.0498310000"><ele>165</ele><time>2016-09-30T12:04:08Z</time></trkpt>
<trkpt lat="53.0207450000" lon="-4.0498300000"><ele>165</ele><time>2016-09-30T12:04:09Z</time></trkpt>
<trkpt lat="53.0207440000" lon="-4.0498280000"><ele>165</ele><time>2016-09-30T12:04:10Z</time></trkpt>
<trkpt lat="53.0207420000" lon="-4.0498260000"><ele>165</ele><time>2016-09-30T12:04:11Z</time></trkpt>
<trkpt lat="53.0207410000" lon="-4.0498240000"><ele>165</ele><time>2016-09-30T12:04:12Z</time></trkpt>
<trkpt lat="53.0207390000" lon="-4.0498210000"><ele>166</ele><time>2016-09-30T12:04:13Z</time></trkpt>
<trkpt lat="53.0207360000" lon="-4.0498180000"><ele>166</ele><time>2016-09-30T12:04:14Z</time></trkpt>
<trkpt lat="53.0206730000" lon="-4.0497140000"><ele>166</ele><time>2016-09-30T12:04:15Z</time></trkpt>
<trkpt lat="53.0206720000" lon="-4.0496970000"><ele>166</ele><time>2016-09-30T12:04:16Z</time></trkpt>
<trkpt lat="53.0206680000" lon="-4.0496810000"><ele>166</ele><time>2016-09-30T12:04:17Z</time></trkpt>
<trkpt lat="53.0206620000" lon="-4.0496670000"><ele>166</ele><time>2016-09-30T12:04:18Z</time></trkpt>
<trkpt lat="53.0206600000" lon="-4.0496530000"><ele>166</ele><time>2016-09-30T12:04:19Z</time></trkpt>
<trkpt lat="53.0206620000" lon="-4.0496360000"><ele>167</ele><time>2016-09-30T12:04:20Z</time></trkpt>
<trkpt lat="53.0206630000" lon="-4.0496150000"><ele>167</ele><time>2016-09-30T12:04:21Z</time></trkpt>
<trkpt lat="53.0206610000" lon="-4.0495950000"><ele>167</ele><time>2016-09-30T12:04:22Z</time></trkpt>
<trkpt lat="53.0206620000" lon="-4.0495750000"><ele>167</ele><time>2016-09-30T12:04:23Z</time></trkpt>
<trkpt lat="53.0206630000" lon="-4.0495550000"><ele>167</ele><time>2016-09-30T12:04:24Z</time></trkpt>
<trkpt lat="53.0206660000" lon="-4.0495390000"><ele>167</ele><time>2016-09-30T12:04:25Z</time></trkpt>
<trkpt lat="53.0206710000" lon="-4.0495230000"><ele>168</ele><time>2016-09-30T12:04:26Z</time></trkpt>
<trkpt lat="53.0206710000" lon="-4.0495230000"><ele>168</ele><time>2016-09-30T12:04:27Z</time></trkpt>
<trkpt lat="53.0206710000" lon="-4.0495220000"><ele>168</ele><time>2016-09-30T12:04:28Z</time></trkpt>
<trkpt lat="53.0206710000" lon="-4.0495220000"><ele>168</ele><time>2016-09-30T12:04:29Z</time></trkpt>
<trkpt lat="53.0206710000" lon="-4.0495210000"><ele>168</ele><time>2016-09-30T12:04:30Z</time></trkpt>
<trkpt lat="53.0206710000" lon="-4.0495190000"><ele>168</ele><time>2016-09-30T12:04:31Z</time></trkpt>
<trkpt lat="53.0206700000" lon="-4.0495180000"><ele>168</ele><time>2016-09-30T12:04:32Z</time></trkpt>
<trkpt lat="53.0206700000" lon="-4.0495150000"><ele>168</ele><time>2016-09-30T12:04:33Z</time></trkpt>
<trkpt lat="53.0206700000" lon="-4.0495120000"><ele>168</ele><time>2016-09-30T12:04:34Z</time></trkpt>
<trkpt lat="53.0206700000" lon="-4.0495090000"><ele>168</ele><time>2016-09-30T12:04:35Z</time></trkpt>
<trkpt lat="53.0206690000" lon="-4.0495050000"><ele>168</ele><time>2016-09-30T12:04:36Z</time></trkpt>
<trkpt lat="53.0206690000" lon="-4.0495010000"><ele>168</ele><time>2016-09-30T12:04:37Z</time></trkpt>
<trkpt lat="53.0206680000" lon="-4.0494960000"><ele>168</ele><time>2016-09-30T12:04:38Z</time></trkpt>
<trkpt lat="53.0206680000" lon="-4.0494920000"><ele>168</ele><time>2016-09-30T12:04:39Z</time></trkpt>
<trkpt lat="53.0206670000" lon="-4.0494880000"><ele>168</ele><time>2016-09-30T12:04:40Z</time></trkpt>
<trkpt lat="53.0206660000" lon="-4.0494840000"><ele>168</ele><time>2016-09-30T12:04:41Z</time></trkpt>
<trkpt lat="53.0206660000" lon="-4.0494790000"><ele>168</ele><time>2016-09-30T12:04:42Z</time></trkpt>
<trkpt lat="53.0206650000" lon="-4.0494750000"><ele>168</ele><time>2016-09-30T12:04:43Z</time></trkpt>
<trkpt lat="53.0206640000" lon="-4.0494710000"><ele>168</ele><time>2016-09-30T12:04:44Z</time></trkpt>
<trkpt lat="53.0206630000" lon="-4.0494670000"><ele>168</ele><time>2016-09-30T12:04:45Z</time></trkpt>
<trkpt lat="53.0206620000" lon="-4.0494630000"><ele>168</ele><time>2016-09-30T12:04:46Z</time></trkpt>
<trkpt lat="53.0206610000" lon="-4.0494590000"><ele>168</ele><time>2016-09-30T12:04:47Z</time></trkpt>
<trkpt lat="53.0206590000" lon="-4.0494550000"><ele>168</ele><time>2016-09-30T12:04:48Z</time></trkpt>
<trkpt lat="53.0206570000" lon="-4.0494500000"><ele>169</ele><time>2016-09-30T12:04:49Z</time></trkpt>
<trkpt lat="53.0206550000" lon="-4.0494440000"><ele>169</ele><time>2016-09-30T12:04:50Z</time></trkpt>
<trkpt lat="53.0206530000" lon="-4.0494380000"><ele>169</ele><time>2016-09-30T12:04:51Z</time></trkpt>
<trkpt lat="53.0206510000" lon="-4.0494320000"><ele>169</ele><time>2016-09-30T12:04:52Z</time></trkpt>
<trkpt lat="53.0206480000" lon="-4.0494250000"><ele>169</ele><time>2016-09-30T12:04:53Z</time></trkpt>
<trkpt lat="53.0206460000" lon="-4.0494180000"><ele>169</ele><time>2016-09-30T12:04:54Z</time></trkpt>
<trkpt lat="53.0206440000" lon="-4.0494110000"><ele>169</ele><time>2016-09-30T12:04:55Z</time></trkpt>
<trkpt lat="53.0206410000" lon="-4.0494040000"><ele>169</ele><time>2016-09-30T12:04:56Z</time></trkpt>
<trkpt lat="53.0206390000" lon="-4.0493960000"><ele>169</ele><time>2016-09-30T12:04:57Z</time></trkpt>
<trkpt lat="53.0206360000" lon="-4.0493880000"><ele>169</ele><time>2016-09-30T12:04:58Z</time></trkpt>
<trkpt lat="53.0206340000" lon="-4.0493800000"><ele>169</ele><time>2016-09-30T12:04:59Z</time></trkpt>
<trkpt lat="53.0206310000" lon="-4.0493720000"><ele>169</ele><time>2016-09-30T12:05:00Z</time></trkpt>
<trkpt lat="53.0206280000" lon="-4.0493630000"><ele>169</ele><time>2016-09-30T12:05:01Z</time></trkpt>
<trkpt lat="53.0206260000" lon="-4.0493560000"><ele>169</ele><time>2016-09-30T12:05:02Z</time></trkpt>
<trkpt lat="53.0206220000" lon="-4.0493470000"><ele>169</ele><time>2016-09-30T12:05:03Z</time></trkpt>
<trkpt lat="53.0206190000" lon="-4.0493380000"><ele>169</ele><time>2016-09-30T12:05:04Z</time></trkpt>
<trkpt lat="53.0206160000" lon="-4.0493300000"><ele>169</ele><time>2016-09-30T12:05:05Z</time></trkpt>
<trkpt lat="53.0206120000" lon="-4.0493230000"><ele>169</ele><time>2016-09-30T12:05:06Z</time></trkpt>
<trkpt lat="53.0206090000" lon="-4.0493160000"><ele>169</ele><time>2016-09-30T12:05:07Z</time></trkpt>
<trkpt lat="53.0206050000" lon="-4.0493090000"><ele>169</ele><time>2016-09-30T12:05:08Z</time></trkpt>
<trkpt lat="53.0206010000" lon="-4.0493030000"><ele>170</ele><time>2016-09-30T12:05:09Z</time></trkpt>
<trkpt lat="53.0205980000" lon="-4.0492970000"><ele>170</ele><time>2016-09-30T12:05:10Z</time></trkpt>
<trkpt lat="53.0205940000" lon="-4.0492920000"><ele>170</ele><time>2016-09-30T12:05:11Z</time></trkpt>
<trkpt lat="53.0205900000" lon="-4.0492870000"><ele>170</ele><time>2016-09-30T12:05:12Z</time></trkpt>
<trkpt lat="53.0205850000" lon="-4.0492830000"><ele>170</ele><time>2016-09-30T12:05:13Z</time></trkpt>
<trkpt lat="53.0205810000" lon="-4.0492790000"><ele>171</ele><time>2016-09-30T12:05:14Z</time></trkpt>
<trkpt lat="53.0205770000" lon="-4.0492740000"><ele>171</ele><time>2016-09-30T12:05:15Z</time></trkpt>
<trkpt lat="53.0205720000" lon="-4.0492700000"><ele>171</ele><time>2016-09-30T12:05:16Z</time></trkpt>
<trkpt lat="53.0205680000" lon="-4.0492670000"><ele>171</ele><time>2016-09-30T12:05:17Z</time></trkpt>
<trkpt lat="53.0205630000" lon="-4.0492630000"><ele>171</ele><time>2016-09-30T12:05:18Z</time></trkpt>
<trkpt lat="53.0205580000" lon="-4.0492590000"><ele>172</ele><time>2016-09-30T12:05:19Z</time></trkpt>
<trkpt lat="53.0205540000" lon="-4.0492560000"><ele>172</ele><time>2016-09-30T12:05:20Z</time></trkpt>
<trkpt lat="53.0205490000" lon="-4.0492520000"><ele>172</ele><time>2016-09-30T12:05:21Z</time></trkpt>
<trkpt lat="53.0205440000" lon="-4.0492490000"><ele>172</ele><time>2016-09-30T12:05:22Z</time></trkpt>
<trkpt lat="53.0205400000" lon="-4.0492460000"><ele>173</ele><time>2016-09-30T12:05:23Z</time></trkpt>
<trkpt lat="53.0205350000" lon="-4.0492430000"><ele>173</ele><time>2016-09-30T12:05:24Z</time></trkpt>
<trkpt lat="53.0205310000" lon="-4.0492400000"><ele>173</ele><time>2016-09-30T12:05:25Z</time></trkpt>
<trkpt lat="53.0205260000" lon="-4.0492370000"><ele>174</ele><time>2016-09-30T12:05:26Z</time></trkpt>
<trkpt lat="53.0205220000" lon="-4.0492350000"><ele>174</ele><time>2016-09-30T12:05:27Z</time></trkpt>
<trkpt lat="53.0205170000" lon="-4.0492330000"><ele>174</ele><time>2016-09-30T12:05:28Z</time></trkpt>
<trkpt lat="53.0205120000" lon="-4.0492300000"><ele>174</ele><time>2016-09-30T12:05:29Z</time></trkpt>
<trkpt lat="53.0205080000" lon="-4.0492280000"><ele>174</ele><time>2016-09-30T12:05:30Z</time></trkpt>
<trkpt lat="53.0205030000" lon="-4.0492250000"><ele>175</ele><time>2016-09-30T12:05:31Z</time></trkpt>
<trkpt lat="53.0204980000" lon="-4.0492220000"><ele>175</ele><time>2016-09-30T12:05:32Z</time></trkpt>
<trkpt lat="53.0204940000" lon="-4.0492180000"><ele>175</ele><time>2016-09-30T12:05:33Z</time></trkpt>
<trkpt lat="53.0204900000" lon="-4.0492140000"><ele>175</ele><time>2016-09-30T12:05:34Z</time></trkpt>
<trkpt lat="53.0204860000" lon="-4.0492090000"><ele>175</ele><time>2016-09-30T12:05:35Z</time></trkpt>
<trkpt lat="53.0204820000" lon="-4.0492040000"><ele>175</ele><time>2016-09-30T12:05:36Z</time></trkpt>
<trkpt lat="53.0204780000" lon="-4.0491990000"><ele>176</ele><time>2016-09-30T12:05:37Z</time></trkpt>
<trkpt lat="53.0204740000" lon="-4.0491930000"><ele>176</ele><time>2016-09-30T12:05:38Z</time></trkpt>
<trkpt lat="53.0204690000" lon="-4.0491880000"><ele>176</ele><time>2016-09-30T12:05:39Z</time></trkpt>
<trkpt lat="53.0204650000" lon="-4.0491820000"><ele>176</ele><time>2016-09-30T12:05:40Z</time></trkpt>
<trkpt lat="53.0204600000" lon="-4.0491760000"><ele>176</ele><time>2016-09-30T12:05:41Z</time></trkpt>
<trkpt lat="53.0204560000" lon="-4.0491710000"><ele>176</ele><time>2016-09-30T12:05:42Z</time></trkpt>
<trkpt lat="53.0204510000" lon="-4.0491660000"><ele>177</ele><time>2016-09-30T12:05:43Z</time></trkpt>
<trkpt lat="53.0204470000" lon="-4.0491610000"><ele>177</ele><time>2016-09-30T12:05:44Z</time></trkpt>
<trkpt lat="53.0204430000" lon="-4.0491570000"><ele>177</ele><time>2016-09-30T12:05:45Z</time></trkpt>
<trkpt lat="53.0204390000" lon="-4.0491530000"><ele>177</ele><time>2016-09-30T12:05:46Z</time></trkpt>
<trkpt lat="53.0204360000" lon="-4.0491490000"><ele>177</ele><time>2016-09-30T12:05:47Z</time></trkpt>
<trkpt lat="53.0204320000" lon="-4.0491460000"><ele>177</ele><time>2016-09-30T12:05:48Z</time></trkpt>
<trkpt lat="53.0204290000" lon="-4.0491420000"><ele>177</ele><time>2016-09-30T12:05:49Z</time></trkpt>
<trkpt lat="53.0204270000" lon="-4.0491390000"><ele>177</ele><time>2016-09-30T12:05:50Z</time></trkpt>
<trkpt lat="53.0204240000" lon="-4.0491370000"><ele>178</ele><time>2016-09-30T12:05:51Z</time></trkpt>
<trkpt lat="53.0204210000" lon="-4.0491340000"><ele>178</ele><time>2016-09-30T12:05:52Z</time></trkpt>
<trkpt lat="53.0204190000" lon="-4.0491320000"><ele>178</ele><time>2016-09-30T12:05:53Z</time></trkpt>
<trkpt lat="53.0204160000" lon="-4.0491290000"><ele>178</ele><time>2016-09-30T12:05:54Z</time></trkpt>
<trkpt lat="53.0204130000" lon="-4.0491260000"><ele>178</ele><time>2016-09-30T12:05:55Z</time></trkpt>
<trkpt lat="53.0204110000" lon="-4.0491210000"><ele>178</ele><time>2016-09-30T12:05:56Z</time></trkpt>
<trkpt lat="53.0204090000" lon="-4.0491170000"><ele>179</ele><time>2016-09-30T12:05:57Z</time></trkpt>
<trkpt lat="53.0204070000" lon="-4.0491120000"><ele>179</ele><time>2016-09-30T12:05:58Z</time></trkpt>
<trkpt lat="53.0204050000" lon="-4.0491060000"><ele>179</ele><time>2016-09-30T12:05:59Z</time></trkpt>
<trkpt lat="53.0204040000" lon="-4.0491000000"><ele>179</ele><time>2016-09-30T12:06:00Z</time></trkpt>
<trkpt lat="53.0204030000" lon="-4.0490950000"><ele>179</ele><time>2016-09-30T12:06:01Z</time></trkpt>
<trkpt lat="53.0204020000" lon="-4.0490840000"><ele>179</ele><time>2016-09-30T12:06:03Z</time></trkpt>
<trkpt lat="53.0204010000" lon="-4.0490770000"><ele>179</ele><time>2016-09-30T12:06:04Z</time></trkpt>
<trkpt lat="53.0204010000" lon="-4.0490700000"><ele>179</ele><time>2016-09-30T12:06:05Z</time></trkpt>
<trkpt lat="53.0203990000" lon="-4.0490600000"><ele>179</ele><time>2016-09-30T12:06:06Z</time></trkpt>
<trkpt lat="53.0203980000" lon="-4.0490500000"><ele>179</ele><time>2016-09-30T12:06:07Z</time></trkpt>
<trkpt lat="53.0203970000" lon="-4.0490390000"><ele>179</ele><time>2016-09-30T12:06:08Z</time></trkpt>
<trkpt lat="53.0203960000" lon="-4.0490290000"><ele>179</ele><time>2016-09-30T12:06:09Z</time></trkpt>
<trkpt lat="53.0203940000" lon="-4.0490180000"><ele>179</ele><time>2016-09-30T12:06:10Z</time></trkpt>
<trkpt lat="53.0203930000" lon="-4.0490080000"><ele>179</ele><time>2016-09-30T12:06:11Z</time></trkpt>
<trkpt lat="53.0203920000" lon="-4.0489970000"><ele>179</ele><time>2016-09-30T12:06:12Z</time></trkpt>
<trkpt lat="53.0203910000" lon="-4.0489860000"><ele>179</ele><time>2016-09-30T12:06:13Z</time></trkpt>
<trkpt lat="53.0203900000" lon="-4.0489760000"><ele>179</ele><time>2016-09-30T12:06:14Z</time></trkpt>
<trkpt lat="53.0203890000" lon="-4.0489660000"><ele>179</ele><time>2016-09-30T12:06:15Z</time></trkpt>
<trkpt lat="53.0203880000" lon="-4.0489600000"><ele>179</ele><time>2016-09-30T12:06:16Z</time></trkpt>
<trkpt lat="53.0203870000" lon="-4.0489540000"><ele>179</ele><time>2016-09-30T12:06:17Z</time></trkpt>
<trkpt lat="53.0203860000" lon="-4.0489480000"><ele>179</ele><time>2016-09-30T12:06:18Z</time></trkpt>
<trkpt lat="53.0203850000" lon="-4.0489420000"><ele>179</ele><time>2016-09-30T12:06:19Z</time></trkpt>
<trkpt lat="53.0203840000" lon="-4.0489370000"><ele>179</ele><time>2016-09-30T12:06:20Z</time></trkpt>
<trkpt lat="53.0203620000" lon="-4.0488640000"><ele>179</ele><time>2016-09-30T12:06:38Z</time></trkpt>
<trkpt lat="53.0203220000" lon="-4.0487990000"><ele>178</ele><time>2016-09-30T12:06:39Z</time></trkpt>
<trkpt lat="53.0203150000" lon="-4.0488050000"><ele>178</ele><time>2016-09-30T12:06:40Z</time></trkpt>
<trkpt lat="53.0203070000" lon="-4.0488120000"><ele>178</ele><time>2016-09-30T12:06:41Z</time></trkpt>
<trkpt lat="53.0203070000" lon="-4.0488120000"><ele>178</ele><time>2016-09-30T12:06:42Z</time></trkpt>
<trkpt lat="53.0203070000" lon="-4.0488120000"><ele>178</ele><time>2016-09-30T12:06:43Z</time></trkpt>
<trkpt lat="53.0203070000" lon="-4.0488120000"><ele>178</ele><time>2016-09-30T12:06:44Z</time></trkpt>
<trkpt lat="53.0203060000" lon="-4.0488130000"><ele>178</ele><time>2016-09-30T12:06:45Z</time></trkpt>
<trkpt lat="53.0203050000" lon="-4.0488130000"><ele>178</ele><time>2016-09-30T12:06:46Z</time></trkpt>
<trkpt lat="53.0203040000" lon="-4.0488130000"><ele>178</ele><time>2016-09-30T12:06:47Z</time></trkpt>
<trkpt lat="53.0203030000" lon="-4.0488140000"><ele>178</ele><time>2016-09-30T12:06:48Z</time></trkpt>
<trkpt lat="53.0203020000" lon="-4.0488140000"><ele>178</ele><time>2016-09-30T12:06:49Z</time></trkpt>
<trkpt lat="53.0203010000" lon="-4.0488140000"><ele>178</ele><time>2016-09-30T12:06:50Z</time></trkpt>
<trkpt lat="53.0203000000" lon="-4.0488140000"><ele>178</ele><time>2016-09-30T12:06:51Z</time></trkpt>
<trkpt lat="53.0202980000" lon="-4.0488150000"><ele>177</ele><time>2016-09-30T12:06:52Z</time></trkpt>
<trkpt lat="53.0202970000" lon="-4.0488150000"><ele>177</ele><time>2016-09-30T12:06:53Z</time></trkpt>
<trkpt lat="53.0202950000" lon="-4.0488160000"><ele>177</ele><time>2016-09-30T12:06:54Z</time></trkpt>
<trkpt lat="53.0202930000" lon="-4.0488160000"><ele>177</ele><time>2016-09-30T12:06:55Z</time></trkpt>
<trkpt lat="53.0202910000" lon="-4.0488170000"><ele>177</ele><time>2016-09-30T12:06:56Z</time></trkpt>
<trkpt lat="53.0202890000" lon="-4.0488180000"><ele>177</ele><time>2016-09-30T12:06:57Z</time></trkpt>
<trkpt lat="53.0202870000" lon="-4.0488190000"><ele>176</ele><time>2016-09-30T12:06:58Z</time></trkpt>
<trkpt lat="53.0202850000" lon="-4.0488200000"><ele>176</ele><time>2016-09-30T12:06:59Z</time></trkpt>
<trkpt lat="53.0202830000" lon="-4.0488210000"><ele>176</ele><time>2016-09-30T12:07:00Z</time></trkpt>
<trkpt lat="53.0202820000" lon="-4.0488230000"><ele>175</ele><time>2016-09-30T12:07:01Z</time></trkpt>
<trkpt lat="53.0202770000" lon="-4.0488260000"><ele>175</ele><time>2016-09-30T12:07:03Z</time></trkpt>
<trkpt lat="53.0202750000" lon="-4.0488260000"><ele>174</ele><time>2016-09-30T12:07:04Z</time></trkpt>
<trkpt lat="53.0202740000" lon="-4.0488270000"><ele>174</ele><time>2016-09-30T12:07:05Z</time></trkpt>
<trkpt lat="53.0202720000" lon="-4.0488260000"><ele>174</ele><time>2016-09-30T12:07:06Z</time></trkpt>
<trkpt lat="53.0202710000" lon="-4.0488250000"><ele>173</ele><time>2016-09-30T12:07:07Z</time></trkpt>
<trkpt lat="53.0202700000" lon="-4.0488240000"><ele>173</ele><time>2016-09-30T12:07:08Z</time></trkpt>
<trkpt lat="53.0202690000" lon="-4.0488210000"><ele>173</ele><time>2016-09-30T12:07:09Z</time></trkpt>
<trkpt lat="53.0202680000" lon="-4.0488190000"><ele>173</ele><time>2016-09-30T12:07:10Z</time></trkpt>
<trkpt lat="53.0202670000" lon="-4.0488150000"><ele>173</ele><time>2016-09-30T12:07:11Z</time></trkpt>
<trkpt lat="53.0202670000" lon="-4.0488100000"><ele>172</ele><time>2016-09-30T12:07:12Z</time></trkpt>
<trkpt lat="53.0202670000" lon="-4.0488050000"><ele>172</ele><time>2016-09-30T12:07:13Z</time></trkpt>
<trkpt lat="53.0202660000" lon="-4.0487990000"><ele>172</ele><time>2016-09-30T12:07:14Z</time></trkpt>
<trkpt lat="53.0202660000" lon="-4.0487920000"><ele>172</ele><time>2016-09-30T12:07:15Z</time></trkpt>
<trkpt lat="53.0202660000" lon="-4.0487850000"><ele>172</ele><time>2016-09-30T12:07:16Z</time></trkpt>
<trkpt lat="53.0202650000" lon="-4.0487780000"><ele>172</ele><time>2016-09-30T12:07:17Z</time></trkpt>
<trkpt lat="53.0202650000" lon="-4.0487700000"><ele>171</ele><time>2016-09-30T12:07:18Z</time></trkpt>
<trkpt lat="53.0202640000" lon="-4.0487630000"><ele>171</ele><time>2016-09-30T12:07:19Z</time></trkpt>
<trkpt lat="53.0202640000" lon="-4.0487560000"><ele>171</ele><time>2016-09-30T12:07:20Z</time></trkpt>
<trkpt lat="53.0202630000" lon="-4.0487490000"><ele>171</ele><time>2016-09-30T12:07:21Z</time></trkpt>
<trkpt lat="53.0202630000" lon="-4.0487420000"><ele>171</ele><time>2016-09-30T12:07:22Z</time></trkpt>
<trkpt lat="53.0202630000" lon="-4.0486850000"><ele>171</ele><time>2016-09-30T12:07:29Z</time></trkpt>
<trkpt lat="53.0202710000" lon="-4.0485110000"><ele>171</ele><time>2016-09-30T12:07:31Z</time></trkpt>
<trkpt lat="53.0202770000" lon="-4.0484850000"><ele>173</ele><time>2016-09-30T12:07:55Z</time></trkpt>
<trkpt lat="53.0202770000" lon="-4.0484840000"><ele>173</ele><time>2016-09-30T12:07:56Z</time></trkpt>
<trkpt lat="53.0202770000" lon="-4.0484810000"><ele>173</ele><time>2016-09-30T12:07:57Z</time></trkpt>
<trkpt lat="53.0202770000" lon="-4.0484770000"><ele>173</ele><time>2016-09-30T12:07:58Z</time></trkpt>
<trkpt lat="53.0202780000" lon="-4.0484730000"><ele>173</ele><time>2016-09-30T12:07:59Z</time></trkpt>
<trkpt lat="53.0202780000" lon="-4.0484690000"><ele>173</ele><time>2016-09-30T12:08:00Z</time></trkpt>
<trkpt lat="53.0202770000" lon="-4.0484640000"><ele>173</ele><time>2016-09-30T12:08:01Z</time></trkpt>
<trkpt lat="53.0202770000" lon="-4.0484580000"><ele>173</ele><time>2016-09-30T12:08:02Z</time></trkpt>
<trkpt lat="53.0202760000" lon="-4.0484120000"><ele>173</ele><time>2016-09-30T12:08:09Z</time></trkpt>
<trkpt lat="53.0202740000" lon="-4.0483670000"><ele>173</ele><time>2016-09-30T12:08:14Z</time></trkpt>
<trkpt lat="53.0202640000" lon="-4.0481400000"><ele>173</ele><time>2016-09-30T12:08:16Z</time></trkpt>
<trkpt lat="53.0202590000" lon="-4.0480910000"><ele>173</ele><time>2016-09-30T12:08:19Z</time></trkpt>
<trkpt lat="53.0202550000" lon="-4.0480550000"><ele>173</ele><time>2016-09-30T12:08:21Z</time></trkpt>
<trkpt lat="53.0202540000" lon="-4.0480400000"><ele>173</ele><time>2016-09-30T12:08:22Z</time></trkpt>
<trkpt lat="53.0202540000" lon="-4.0480400000"><ele>173</ele><time>2016-09-30T12:08:23Z</time></trkpt>
<trkpt lat="53.0202540000" lon="-4.0480390000"><ele>173</ele><time>2016-09-30T12:08:24Z</time></trkpt>
<trkpt lat="53.0202540000" lon="-4.0480390000"><ele>173</ele><time>2016-09-30T12:08:25Z</time></trkpt>
<trkpt lat="53.0202540000" lon="-4.0480380000"><ele>173</ele><time>2016-09-30T12:08:26Z</time></trkpt>
<trkpt lat="53.0202550000" lon="-4.0480370000"><ele>173</ele><time>2016-09-30T12:08:27Z</time></trkpt>
<trkpt lat="53.0202550000" lon="-4.0480350000"><ele>173</ele><time>2016-09-30T12:08:28Z</time></trkpt>
<trkpt lat="53.0202550000" lon="-4.0480320000"><ele>173</ele><time>2016-09-30T12:08:29Z</time></trkpt>
<trkpt lat="53.0202550000" lon="-4.0480290000"><ele>173</ele><time>2016-09-30T12:08:30Z</time></trkpt>
<trkpt lat="53.0202560000" lon="-4.0480250000"><ele>173</ele><time>2016-09-30T12:08:31Z</time></trkpt>
<trkpt lat="53.0202560000" lon="-4.0480200000"><ele>173</ele><time>2016-09-30T12:08:32Z</time></trkpt>
<trkpt lat="53.0202570000" lon="-4.0480140000"><ele>173</ele><time>2016-09-30T12:08:33Z</time></trkpt>
<trkpt lat="53.0202580000" lon="-4.0480070000"><ele>173</ele><time>2016-09-30T12:08:34Z</time></trkpt>
<trkpt lat="53.0202590000" lon="-4.0479990000"><ele>173</ele><time>2016-09-30T12:08:35Z</time></trkpt>
<trkpt lat="53.0202590000" lon="-4.0479910000"><ele>173</ele><time>2016-09-30T12:08:36Z</time></trkpt>
<trkpt lat="53.0202600000" lon="-4.0479830000"><ele>173</ele><time>2016-09-30T12:08:37Z</time></trkpt>
<trkpt lat="53.0202610000" lon="-4.0479730000"><ele>173</ele><time>2016-09-30T12:08:38Z</time></trkpt>
<trkpt lat="53.0202610000" lon="-4.0479640000"><ele>173</ele><time>2016-09-30T12:08:39Z</time></trkpt>
<trkpt lat="53.0202620000" lon="-4.0479540000"><ele>173</ele><time>2016-09-30T12:08:40Z</time></trkpt>
<trkpt lat="53.0202630000" lon="-4.0479440000"><ele>173</ele><time>2016-09-30T12:08:41Z</time></trkpt>
<trkpt lat="53.0202640000" lon="-4.0479340000"><ele>173</ele><time>2016-09-30T12:08:42Z</time></trkpt>
<trkpt lat="53.0202650000" lon="-4.0479240000"><ele>173</ele><time>2016-09-30T12:08:43Z</time></trkpt>
<trkpt lat="53.0202660000" lon="-4.0479150000"><ele>173</ele><time>2016-09-30T12:08:44Z</time></trkpt>
<trkpt lat="53.0202660000" lon="-4.0479050000"><ele>173</ele><time>2016-09-30T12:08:45Z</time></trkpt>
<trkpt lat="53.0202670000" lon="-4.0478950000"><ele>173</ele><time>2016-09-30T12:08:46Z</time></trkpt>
<trkpt lat="53.0202680000" lon="-4.0478840000"><ele>173</ele><time>2016-09-30T12:08:47Z</time></trkpt>
<trkpt lat="53.0202690000" lon="-4.0478730000"><ele>173</ele><time>2016-09-30T12:08:48Z</time></trkpt>
<trkpt lat="53.0202700000" lon="-4.0478610000"><ele>173</ele><time>2016-09-30T12:08:49Z</time></trkpt>
<trkpt lat="53.0202710000" lon="-4.0478480000"><ele>173</ele><time>2016-09-30T12:08:50Z</time></trkpt>
<trkpt lat="53.0202710000" lon="-4.0478360000"><ele>173</ele><time>2016-09-30T12:08:51Z</time></trkpt>
<trkpt lat="53.0202720000" lon="-4.0478220000"><ele>173</ele><time>2016-09-30T12:08:52Z</time></trkpt>
<trkpt lat="53.0202720000" lon="-4.0478090000"><ele>173</ele><time>2016-09-30T12:08:53Z</time></trkpt>
<trkpt lat="53.0202730000" lon="-4.0477950000"><ele>173</ele><time>2016-09-30T12:08:54Z</time></trkpt>
<trkpt lat="53.0202740000" lon="-4.0477800000"><ele>173</ele><time>2016-09-30T12:08:55Z</time></trkpt>
<trkpt lat="53.0202750000" lon="-4.0477650000"><ele>173</ele><time>2016-09-30T12:08:56Z</time></trkpt>
<trkpt lat="53.0202760000" lon="-4.0477500000"><ele>173</ele><time>2016-09-30T12:08:57Z</time></trkpt>
<trkpt lat="53.0202780000" lon="-4.0477360000"><ele>173</ele><time>2016-09-30T12:08:58Z</time></trkpt>
<trkpt lat="53.0202790000" lon="-4.0477210000"><ele>173</ele><time>2016-09-30T12:08:59Z</time></trkpt>
<trkpt lat="53.0202810000" lon="-4.0477070000"><ele>173</ele><time>2016-09-30T12:09:00Z</time></trkpt>
<trkpt lat="53.0202830000" lon="-4.0476920000"><ele>173</ele><time>2016-09-30T12:09:01Z</time></trkpt>
<trkpt lat="53.0202850000" lon="-4.0476770000"><ele>173</ele><time>2016-09-30T12:09:02Z</time></trkpt>
<trkpt lat="53.0202870000" lon="-4.0476620000"><ele>173</ele><time>2016-09-30T12:09:03Z</time></trkpt>
<trkpt lat="53.0203160000" lon="-4.0474350000"><ele>173</ele><time>2016-09-30T12:09:04Z</time></trkpt>
<trkpt lat="53.0203200000" lon="-4.0474150000"><ele>173</ele><time>2016-09-30T12:09:05Z</time></trkpt>
<trkpt lat="53.0203230000" lon="-4.0473940000"><ele>173</ele><time>2016-09-30T12:09:06Z</time></trkpt>
<trkpt lat="53.0203260000" lon="-4.0473790000"><ele>173</ele><time>2016-09-30T12:09:07Z</time></trkpt>
<trkpt lat="53.0203260000" lon="-4.0473790000"><ele>173</ele><time>2016-09-30T12:09:08Z</time></trkpt>
<trkpt lat="53.0203260000" lon="-4.0473790000"><ele>173</ele><time>2016-09-30T12:09:09Z</time></trkpt>
<trkpt lat="53.0203260000" lon="-4.0473780000"><ele>173</ele><time>2016-09-30T12:09:10Z</time></trkpt>
<trkpt lat="53.0203260000" lon="-4.0473780000"><ele>173</ele><time>2016-09-30T12:09:11Z</time></trkpt>
<trkpt lat="53.0203270000" lon="-4.0473780000"><ele>173</ele><time>2016-09-30T12:09:12Z</time></trkpt>
<trkpt lat="53.0203270000" lon="-4.0473770000"><ele>173</ele><time>2016-09-30T12:09:13Z</time></trkpt>
<trkpt lat="53.0203280000" lon="-4.0473760000"><ele>174</ele><time>2016-09-30T12:09:14Z</time></trkpt>
<trkpt lat="53.0203280000" lon="-4.0473750000"><ele>174</ele><time>2016-09-30T12:09:15Z</time></trkpt>
<trkpt lat="53.0203290000" lon="-4.0473730000"><ele>174</ele><time>2016-09-30T12:09:16Z</time></trkpt>
<trkpt lat="53.0203300000" lon="-4.0473710000"><ele>174</ele><time>2016-09-30T12:09:17Z</time></trkpt>
<trkpt lat="53.0203310000" lon="-4.0473690000"><ele>174</ele><time>2016-09-30T12:09:18Z</time></trkpt>
<trkpt lat="53.0203330000" lon="-4.0473650000"><ele>174</ele><time>2016-09-30T12:09:19Z</time></trkpt>
<trkpt lat="53.0203340000" lon="-4.0473610000"><ele>174</ele><time>2016-09-30T12:09:20Z</time></trkpt>
<trkpt lat="53.0203360000" lon="-4.0473560000"><ele>174</ele><time>2016-09-30T12:09:21Z</time></trkpt>
<trkpt lat="53.0203370000" lon="-4.0473510000"><ele>174</ele><time>2016-09-30T12:09:22Z</time></trkpt>
<trkpt lat="53.0203380000" lon="-4.0473450000"><ele>174</ele><time>2016-09-30T12:09:23Z</time></trkpt>
<trkpt lat="53.0203380000" lon="-4.0473380000"><ele>174</ele><time>2016-09-30T12:09:24Z</time></trkpt>
<trkpt lat="53.0203390000" lon="-4.0473310000"><ele>174</ele><time>2016-09-30T12:09:25Z</time></trkpt>
<trkpt lat="53.0203390000" lon="-4.0473230000"><ele>174</ele><time>2016-09-30T12:09:26Z</time></trkpt>
<trkpt lat="53.0203390000" lon="-4.0473140000"><ele>174</ele><time>2016-09-30T12:09:27Z</time></trkpt>
<trkpt lat="53.0203390000" lon="-4.0473040000"><ele>174</ele><time>2016-09-30T12:09:28Z</time></trkpt>
<trkpt lat="53.0203390000" lon="-4.0472950000"><ele>173</ele><time>2016-09-30T12:09:29Z</time></trkpt>
<trkpt lat="53.0203390000" lon="-4.0472850000"><ele>173</ele><time>2016-09-30T12:09:30Z</time></trkpt>
<trkpt lat="53.0203400000" lon="-4.0472740000"><ele>173</ele><time>2016-09-30T12:09:31Z</time></trkpt>
<trkpt lat="53.0203400000" lon="-4.0472630000"><ele>173</ele><time>2016-09-30T12:09:32Z</time></trkpt>
<trkpt lat="53.0203410000" lon="-4.0472520000"><ele>173</ele><time>2016-09-30T12:09:33Z</time></trkpt>
<trkpt lat="53.0203420000" lon="-4.0472400000"><ele>173</ele><time>2016-09-30T12:09:34Z</time></trkpt>
<trkpt lat="53.0203700000" lon="-4.0470160000"><ele>173</ele><time>2016-09-30T12:09:35Z</time></trkpt>
<trkpt lat="53.0203760000" lon="-4.0470000000"><ele>173</ele><time>2016-09-30T12:09:36Z</time></trkpt>
<trkpt lat="53.0203800000" lon="-4.0469830000"><ele>173</ele><time>2016-09-30T12:09:37Z</time></trkpt>
<trkpt lat="53.0203830000" lon="-4.0469610000"><ele>173</ele><time>2016-09-30T12:09:38Z</time></trkpt>
<trkpt lat="53.0203890000" lon="-4.0469450000"><ele>173</ele><time>2016-09-30T12:09:39Z</time></trkpt>
<trkpt lat="53.0203970000" lon="-4.0469340000"><ele>173</ele><time>2016-09-30T12:09:40Z</time></trkpt>
<trkpt lat="53.0204040000" lon="-4.0469240000"><ele>173</ele><time>2016-09-30T12:09:41Z</time></trkpt>
<trkpt lat="53.0204040000" lon="-4.0469240000"><ele>173</ele><time>2016-09-30T12:09:42Z</time></trkpt>
<trkpt lat="53.0204040000" lon="-4.0469240000"><ele>173</ele><time>2016-09-30T12:09:43Z</time></trkpt>
<trkpt lat="53.0204040000" lon="-4.0469240000"><ele>173</ele><time>2016-09-30T12:09:44Z</time></trkpt>
<trkpt lat="53.0204040000" lon="-4.0469230000"><ele>173</ele><time>2016-09-30T12:09:45Z</time></trkpt>
<trkpt lat="53.0204040000" lon="-4.0469230000"><ele>173</ele><time>2016-09-30T12:09:46Z</time></trkpt>
<trkpt lat="53.0204040000" lon="-4.0469220000"><ele>173</ele><time>2016-09-30T12:09:47Z</time></trkpt>
<trkpt lat="53.0204030000" lon="-4.0469210000"><ele>173</ele><time>2016-09-30T12:09:48Z</time></trkpt>
<trkpt lat="53.0204030000" lon="-4.0469190000"><ele>173</ele><time>2016-09-30T12:09:49Z</time></trkpt>
<trkpt lat="53.0204020000" lon="-4.0469160000"><ele>173</ele><time>2016-09-30T12:09:50Z</time></trkpt>
<trkpt lat="53.0204020000" lon="-4.0469130000"><ele>173</ele><time>2016-09-30T12:09:51Z</time></trkpt>
<trkpt lat="53.0204010000" lon="-4.0469100000"><ele>173</ele><time>2016-09-30T12:09:52Z</time></trkpt>
<trkpt lat="53.0204010000" lon="-4.0469060000"><ele>172</ele><time>2016-09-30T12:09:53Z</time></trkpt>
<trkpt lat="53.0204000000" lon="-4.0469020000"><ele>172</ele><time>2016-09-30T12:09:54Z</time></trkpt>
<trkpt lat="53.0204000000" lon="-4.0468970000"><ele>172</ele><time>2016-09-30T12:09:55Z</time></trkpt>
<trkpt lat="53.0203990000" lon="-4.0468920000"><ele>172</ele><time>2016-09-30T12:09:56Z</time></trkpt>
<trkpt lat="53.0203990000" lon="-4.0468860000"><ele>172</ele><time>2016-09-30T12:09:57Z</time></trkpt>
<trkpt lat="53.0203990000" lon="-4.0468800000"><ele>172</ele><time>2016-09-30T12:09:58Z</time></trkpt>
<trkpt lat="53.0204000000" lon="-4.0468740000"><ele>172</ele><time>2016-09-30T12:09:59Z</time></trkpt>
<trkpt lat="53.0204010000" lon="-4.0468670000"><ele>172</ele><time>2016-09-30T12:10:00Z</time></trkpt>
<trkpt lat="53.0204030000" lon="-4.0468600000"><ele>172</ele><time>2016-09-30T12:10:01Z</time></trkpt>
<trkpt lat="53.0204040000" lon="-4.0468540000"><ele>172</ele><time>2016-09-30T12:10:02Z</time></trkpt>
<trkpt lat="53.0204060000" lon="-4.0468470000"><ele>172</ele><time>2016-09-30T12:10:03Z</time></trkpt>
<trkpt lat="53.0204090000" lon="-4.0468400000"><ele>172</ele><time>2016-09-30T12:10:04Z</time></trkpt>
<trkpt lat="53.0204110000" lon="-4.0468330000"><ele>172</ele><time>2016-09-30T12:10:05Z</time></trkpt>
<trkpt lat="53.0204140000" lon="-4.0468260000"><ele>172</ele><time>2016-09-30T12:10:06Z</time></trkpt>
<trkpt lat="53.0204160000" lon="-4.0468180000"><ele>172</ele><time>2016-09-30T12:10:07Z</time></trkpt>
<trkpt lat="53.0204190000" lon="-4.0468100000"><ele>172</ele><time>2016-09-30T12:10:08Z</time></trkpt>
<trkpt lat="53.0204210000" lon="-4.0468020000"><ele>172</ele><time>2016-09-30T12:10:09Z</time></trkpt>
<trkpt lat="53.0204240000" lon="-4.0467930000"><ele>172</ele><time>2016-09-30T12:10:10Z</time></trkpt>
<trkpt lat="53.0204260000" lon="-4.0467830000"><ele>171</ele><time>2016-09-30T12:10:11Z</time></trkpt>
<trkpt lat="53.0204290000" lon="-4.0467730000"><ele>171</ele><time>2016-09-30T12:10:12Z</time></trkpt>
<trkpt lat="53.0204320000" lon="-4.0467630000"><ele>171</ele><time>2016-09-30T12:10:13Z</time></trkpt>
<trkpt lat="53.0204350000" lon="-4.0467520000"><ele>171</ele><time>2016-09-30T12:10:14Z</time></trkpt>
<trkpt lat="53.0204380000" lon="-4.0467410000"><ele>171</ele><time>2016-09-30T12:10:15Z</time></trkpt>
<trkpt lat="53.0204410000" lon="-4.0467300000"><ele>171</ele><time>2016-09-30T12:10:16Z</time></trkpt>
<trkpt lat="53.0204440000" lon="-4.0467200000"><ele>171</ele><time>2016-09-30T12:10:17Z</time></trkpt>
<trkpt lat="53.0204470000" lon="-4.0467090000"><ele>171</ele><time>2016-09-30T12:10:18Z</time></trkpt>
<trkpt lat="53.0204500000" lon="-4.0466990000"><ele>171</ele><time>2016-09-30T12:10:19Z</time></trkpt>
<trkpt lat="53.0204530000" lon="-4.0466890000"><ele>171</ele><time>2016-09-30T12:10:20Z</time></trkpt>
<trkpt lat="53.0204560000" lon="-4.0466790000"><ele>171</ele><time>2016-09-30T12:10:21Z</time></trkpt>
<trkpt lat="53.0204600000" lon="-4.0466700000"><ele>171</ele><time>2016-09-30T12:10:22Z</time></trkpt>
<trkpt lat="53.0204630000" lon="-4.0466600000"><ele>171</ele><time>2016-09-30T12:10:23Z</time></trkpt>
<trkpt lat="53.0204730000" lon="-4.0466310000"><ele>172</ele><time>2016-09-30T12:10:26Z</time></trkpt>
<trkpt lat="53.0204760000" lon="-4.0466200000"><ele>172</ele><time>2016-09-30T12:10:27Z</time></trkpt>
<trkpt lat="53.0205350000" lon="-4.0464330000"><ele>172</ele><time>2016-09-30T12:10:28Z</time></trkpt>
<trkpt lat="53.0205390000" lon="-4.0464200000"><ele>172</ele><time>2016-09-30T12:10:29Z</time></trkpt>
<trkpt lat="53.0205410000" lon="-4.0464120000"><ele>172</ele><time>2016-09-30T12:10:30Z</time></trkpt>
<trkpt lat="53.0205530000" lon="-4.0463830000"><ele>172</ele><time>2016-09-30T12:10:43Z</time></trkpt>
<trkpt lat="53.0205590000" lon="-4.0463710000"><ele>173</ele><time>2016-09-30T12:10:45Z</time></trkpt>
<trkpt lat="53.0205630000" lon="-4.0463640000"><ele>173</ele><time>2016-09-30T12:10:46Z</time></trkpt>
<trkpt lat="53.0205660000" lon="-4.0463570000"><ele>173</ele><time>2016-09-30T12:10:47Z</time></trkpt>
<trkpt lat="53.0205700000" lon="-4.0463490000"><ele>173</ele><time>2016-09-30T12:10:48Z</time></trkpt>
<trkpt lat="53.0205740000" lon="-4.0463410000"><ele>173</ele><time>2016-09-30T12:10:49Z</time></trkpt>
<trkpt lat="53.0205790000" lon="-4.0463330000"><ele>173</ele><time>2016-09-30T12:10:50Z</time></trkpt>
<trkpt lat="53.0205830000" lon="-4.0463240000"><ele>173</ele><time>2016-09-30T12:10:51Z</time></trkpt>
<trkpt lat="53.0205880000" lon="-4.0463150000"><ele>173</ele><time>2016-09-30T12:10:52Z</time></trkpt>
<trkpt lat="53.0205930000" lon="-4.0463050000"><ele>174</ele><time>2016-09-30T12:10:53Z</time></trkpt>
<trkpt lat="53.0205980000" lon="-4.0462950000"><ele>174</ele><time>2016-09-30T12:10:54Z</time></trkpt>
<trkpt lat="53.0206040000" lon="-4.0462850000"><ele>174</ele><time>2016-09-30T12:10:55Z</time></trkpt>
<trkpt lat="53.0206090000" lon="-4.0462750000"><ele>174</ele><time>2016-09-30T12:10:56Z</time></trkpt>
<trkpt lat="53.0206150000" lon="-4.0462650000"><ele>174</ele><time>2016-09-30T12:10:57Z</time></trkpt>
<trkpt lat="53.0206210000" lon="-4.0462540000"><ele>174</ele><time>2016-09-30T12:10:58Z</time></trkpt>
<trkpt lat="53.0206330000" lon="-4.0462310000"><ele>174</ele><time>2016-09-30T12:11:00Z</time></trkpt>
<trkpt lat="53.0206390000" lon="-4.0462200000"><ele>174</ele><time>2016-09-30T12:11:01Z</time></trkpt>
<trkpt lat="53.0207600000" lon="-4.0460040000"><ele>174</ele><time>2016-09-30T12:11:02Z</time></trkpt>
<trkpt lat="53.0207680000" lon="-4.0459920000"><ele>174</ele><time>2016-09-30T12:11:03Z</time></trkpt>
<trkpt lat="53.0207770000" lon="-4.0459780000"><ele>174</ele><time>2016-09-30T12:11:04Z</time></trkpt>
<trkpt lat="53.0207860000" lon="-4.0459650000"><ele>174</ele><time>2016-09-30T12:11:05Z</time></trkpt>
<trkpt lat="53.0207930000" lon="-4.0459530000"><ele>175</ele><time>2016-09-30T12:11:06Z</time></trkpt>
<trkpt lat="53.0207980000" lon="-4.0459380000"><ele>175</ele><time>2016-09-30T12:11:07Z</time></trkpt>
<trkpt lat="53.0208020000" lon="-4.0459210000"><ele>175</ele><time>2016-09-30T12:11:08Z</time></trkpt>
<trkpt lat="53.0208020000" lon="-4.0459210000"><ele>175</ele><time>2016-09-30T12:11:09Z</time></trkpt>
<trkpt lat="53.0208020000" lon="-4.0459200000"><ele>175</ele><time>2016-09-30T12:11:10Z</time></trkpt>
<trkpt lat="53.0208020000" lon="-4.0459200000"><ele>175</ele><time>2016-09-30T12:11:11Z</time></trkpt>
<trkpt lat="53.0208030000" lon="-4.0459180000"><ele>175</ele><time>2016-09-30T12:11:12Z</time></trkpt>
<trkpt lat="53.0208030000" lon="-4.0459170000"><ele>175</ele><time>2016-09-30T12:11:13Z</time></trkpt>
<trkpt lat="53.0208030000" lon="-4.0459150000"><ele>175</ele><time>2016-09-30T12:11:14Z</time></trkpt>
<trkpt lat="53.0208040000" lon="-4.0459120000"><ele>175</ele><time>2016-09-30T12:11:15Z</time></trkpt>
<trkpt lat="53.0208050000" lon="-4.0459090000"><ele>175</ele><time>2016-09-30T12:11:16Z</time></trkpt>
<trkpt lat="53.0208060000" lon="-4.0459050000"><ele>175</ele><time>2016-09-30T12:11:17Z</time></trkpt>
<trkpt lat="53.0208070000" lon="-4.0459000000"><ele>175</ele><time>2016-09-30T12:11:18Z</time></trkpt>
<trkpt lat="53.0208090000" lon="-4.0458950000"><ele>175</ele><time>2016-09-30T12:11:19Z</time></trkpt>
<trkpt lat="53.0208110000" lon="-4.0458890000"><ele>175</ele><time>2016-09-30T12:11:20Z</time></trkpt>
<trkpt lat="53.0208700000" lon="-4.0457180000"><ele>175</ele><time>2016-09-30T12:11:21Z</time></trkpt>
<trkpt lat="53.0208770000" lon="-4.0457010000"><ele>175</ele><time>2016-09-30T12:11:22Z</time></trkpt>
<trkpt lat="53.0208840000" lon="-4.0456870000"><ele>175</ele><time>2016-09-30T12:11:23Z</time></trkpt>
<trkpt lat="53.0208910000" lon="-4.0456720000"><ele>175</ele><time>2016-09-30T12:11:24Z</time></trkpt>
<trkpt lat="53.0209000000" lon="-4.0456590000"><ele>175</ele><time>2016-09-30T12:11:25Z</time></trkpt>
<trkpt lat="53.0209070000" lon="-4.0456460000"><ele>175</ele><time>2016-09-30T12:11:26Z</time></trkpt>
<trkpt lat="53.0209140000" lon="-4.0456310000"><ele>175</ele><time>2016-09-30T12:11:27Z</time></trkpt>
<trkpt lat="53.0209140000" lon="-4.0456310000"><ele>175</ele><time>2016-09-30T12:11:28Z</time></trkpt>
<trkpt lat="53.0209140000" lon="-4.0456310000"><ele>175</ele><time>2016-09-30T12:11:29Z</time></trkpt>
<trkpt lat="53.0209140000" lon="-4.0456300000"><ele>175</ele><time>2016-09-30T12:11:30Z</time></trkpt>
<trkpt lat="53.0209150000" lon="-4.0456290000"><ele>175</ele><time>2016-09-30T12:11:31Z</time></trkpt>
<trkpt lat="53.0209150000" lon="-4.0456270000"><ele>175</ele><time>2016-09-30T12:11:32Z</time></trkpt>
<trkpt lat="53.0209160000" lon="-4.0456250000"><ele>176</ele><time>2016-09-30T12:11:33Z</time></trkpt>
<trkpt lat="53.0209170000" lon="-4.0456220000"><ele>176</ele><time>2016-09-30T12:11:34Z</time></trkpt>
<trkpt lat="53.0209180000" lon="-4.0456180000"><ele>176</ele><time>2016-09-30T12:11:35Z</time></trkpt>
<trkpt lat="53.0209200000" lon="-4.0456140000"><ele>176</ele><time>2016-09-30T12:11:36Z</time></trkpt>
<trkpt lat="53.0209220000" lon="-4.0456090000"><ele>176</ele><time>2016-09-30T12:11:37Z</time></trkpt>
<trkpt lat="53.0209230000" lon="-4.0456030000"><ele>176</ele><time>2016-09-30T12:11:38Z</time></trkpt>
<trkpt lat="53.0209250000" lon="-4.0455970000"><ele>176</ele><time>2016-09-30T12:11:39Z</time></trkpt>
<trkpt lat="53.0209270000" lon="-4.0455900000"><ele>176</ele><time>2016-09-30T12:11:40Z</time></trkpt>
<trkpt lat="53.0209300000" lon="-4.0455820000"><ele>176</ele><time>2016-09-30T12:11:41Z</time></trkpt>
<trkpt lat="53.0209320000" lon="-4.0455740000"><ele>176</ele><time>2016-09-30T12:11:42Z</time></trkpt>
<trkpt lat="53.0209350000" lon="-4.0455650000"><ele>176</ele><time>2016-09-30T12:11:43Z</time></trkpt>
<trkpt lat="53.0209380000" lon="-4.0455550000"><ele>176</ele><time>2016-09-30T12:11:44Z</time></trkpt>
<trkpt lat="53.0209410000" lon="-4.0455450000"><ele>176</ele><time>2016-09-30T12:11:45Z</time></trkpt>
<trkpt lat="53.0209440000" lon="-4.0455340000"><ele>176</ele><time>2016-09-30T12:11:46Z</time></trkpt>
<trkpt lat="53.0209470000" lon="-4.0455240000"><ele>176</ele><time>2016-09-30T12:11:47Z</time></trkpt>
<trkpt lat="53.0209510000" lon="-4.0455130000"><ele>176</ele><time>2016-09-30T12:11:48Z</time></trkpt>
<trkpt lat="53.0209550000" lon="-4.0455010000"><ele>176</ele><time>2016-09-30T12:11:49Z</time></trkpt>
<trkpt lat="53.0209590000" lon="-4.0454900000"><ele>176</ele><time>2016-09-30T12:11:50Z</time></trkpt>
<trkpt lat="53.0209630000" lon="-4.0454770000"><ele>176</ele><time>2016-09-30T12:11:51Z</time></trkpt>
<trkpt lat="53.0209670000" lon="-4.0454650000"><ele>176</ele><time>2016-09-30T12:11:52Z</time></trkpt>
<trkpt lat="53.0209710000" lon="-4.0454520000"><ele>176</ele><time>2016-09-30T12:11:53Z</time></trkpt>
<trkpt lat="53.0209750000" lon="-4.0454390000"><ele>176</ele><time>2016-09-30T12:11:54Z</time></trkpt>
<trkpt lat="53.0209790000" lon="-4.0454270000"><ele>177</ele><time>2016-09-30T12:11:55Z</time></trkpt>
<trkpt lat="53.0210520000" lon="-4.0452000000"><ele>177</ele><time>2016-09-30T12:11:56Z</time></trkpt>
<trkpt lat="53.0210550000" lon="-4.0451810000"><ele>177</ele><time>2016-09-30T12:11:57Z</time></trkpt>
<trkpt lat="53.0210600000" lon="-4.0451640000"><ele>177</ele><time>2016-09-30T12:11:58Z</time></trkpt>
<trkpt lat="53.0210650000" lon="-4.0451490000"><ele>177</ele><time>2016-09-30T12:11:59Z</time></trkpt>
<trkpt lat="53.0210690000" lon="-4.0451320000"><ele>177</ele><time>2016-09-30T12:12:00Z</time></trkpt>
<trkpt lat="53.0210720000" lon="-4.0451150000"><ele>178</ele><time>2016-09-30T12:12:01Z</time></trkpt>
<trkpt lat="53.0210740000" lon="-4.0451000000"><ele>178</ele><time>2016-09-30T12:12:02Z</time></trkpt>
<trkpt lat="53.0210760000" lon="-4.0450860000"><ele>178</ele><time>2016-09-30T12:12:03Z</time></trkpt>
<trkpt lat="53.0210760000" lon="-4.0450860000"><ele>178</ele><time>2016-09-30T12:12:05Z</time></trkpt>
<trkpt lat="53.0210760000" lon="-4.0450850000"><ele>178</ele><time>2016-09-30T12:12:06Z</time></trkpt>
<trkpt lat="53.0210760000" lon="-4.0450840000"><ele>178</ele><time>2016-09-30T12:12:07Z</time></trkpt>
<trkpt lat="53.0210770000" lon="-4.0450830000"><ele>178</ele><time>2016-09-30T12:12:08Z</time></trkpt>
<trkpt lat="53.0210770000" lon="-4.0450810000"><ele>179</ele><time>2016-09-30T12:12:09Z</time></trkpt>
<trkpt lat="53.0210780000" lon="-4.0450790000"><ele>179</ele><time>2016-09-30T12:12:10Z</time></trkpt>
<trkpt lat="53.0210790000" lon="-4.0450760000"><ele>179</ele><time>2016-09-30T12:12:11Z</time></trkpt>
<trkpt lat="53.0210790000" lon="-4.0450730000"><ele>179</ele><time>2016-09-30T12:12:12Z</time></trkpt>
<trkpt lat="53.0210800000" lon="-4.0450690000"><ele>179</ele><time>2016-09-30T12:12:13Z</time></trkpt>
<trkpt lat="53.0210810000" lon="-4.0450650000"><ele>179</ele><time>2016-09-30T12:12:14Z</time></trkpt>
<trkpt lat="53.0210820000" lon="-4.0450610000"><ele>179</ele><time>2016-09-30T12:12:15Z</time></trkpt>
<trkpt lat="53.0210830000" lon="-4.0450560000"><ele>179</ele><time>2016-09-30T12:12:16Z</time></trkpt>
<trkpt lat="53.0210850000" lon="-4.0450500000"><ele>179</ele><time>2016-09-30T12:12:17Z</time></trkpt>
<trkpt lat="53.0210860000" lon="-4.0450440000"><ele>180</ele><time>2016-09-30T12:12:18Z</time></trkpt>
<trkpt lat="53.0210880000" lon="-4.0450370000"><ele>180</ele><time>2016-09-30T12:12:19Z</time></trkpt>
<trkpt lat="53.0210890000" lon="-4.0450300000"><ele>180</ele><time>2016-09-30T12:12:20Z</time></trkpt>
<trkpt lat="53.0210910000" lon="-4.0450230000"><ele>180</ele><time>2016-09-30T12:12:21Z</time></trkpt>
<trkpt lat="53.0210930000" lon="-4.0450160000"><ele>180</ele><time>2016-09-30T12:12:22Z</time></trkpt>
<trkpt lat="53.0210960000" lon="-4.0450080000"><ele>180</ele><time>2016-09-30T12:12:23Z</time></trkpt>
<trkpt lat="53.0210980000" lon="-4.0450000000"><ele>180</ele><time>2016-09-30T12:12:24Z</time></trkpt>
<trkpt lat="53.0211000000" lon="-4.0449910000"><ele>180</ele><time>2016-09-30T12:12:25Z</time></trkpt>
<trkpt lat="53.0211020000" lon="-4.0449810000"><ele>180</ele><time>2016-09-30T12:12:26Z</time></trkpt>
<trkpt lat="53.0211040000" lon="-4.0449710000"><ele>180</ele><time>2016-09-30T12:12:27Z</time></trkpt>
<trkpt lat="53.0211060000" lon="-4.0449600000"><ele>180</ele><time>2016-09-30T12:12:28Z</time></trkpt>
<trkpt lat="53.0211080000" lon="-4.0449500000"><ele>180</ele><time>2016-09-30T12:12:29Z</time></trkpt>
<trkpt lat="53.0211100000" lon="-4.0449380000"><ele>180</ele><time>2016-09-30T12:12:30Z</time></trkpt>
<trkpt lat="53.0211120000" lon="-4.0449260000"><ele>180</ele><time>2016-09-30T12:12:31Z</time></trkpt>
<trkpt lat="53.0211140000" lon="-4.0449140000"><ele>180</ele><time>2016-09-30T12:12:32Z</time></trkpt>
<trkpt lat="53.0211160000" lon="-4.0449010000"><ele>180</ele><time>2016-09-30T12:12:33Z</time></trkpt>
<trkpt lat="53.0211180000" lon="-4.0448890000"><ele>180</ele><time>2016-09-30T12:12:34Z</time></trkpt>
<trkpt lat="53.0211210000" lon="-4.0448760000"><ele>180</ele><time>2016-09-30T12:12:35Z</time></trkpt>
<trkpt lat="53.0211230000" lon="-4.0448620000"><ele>180</ele><time>2016-09-30T12:12:36Z</time></trkpt>
<trkpt lat="53.0211250000" lon="-4.0448490000"><ele>180</ele><time>2016-09-30T12:12:37Z</time></trkpt>
<trkpt lat="53.0211270000" lon="-4.0448350000"><ele>180</ele><time>2016-09-30T12:12:38Z</time></trkpt>
<trkpt lat="53.0211290000" lon="-4.0448210000"><ele>180</ele><time>2016-09-30T12:12:39Z</time></trkpt>
<trkpt lat="53.0211310000" lon="-4.0448070000"><ele>180</ele><time>2016-09-30T12:12:40Z</time></trkpt>
<trkpt lat="53.0211340000" lon="-4.0447930000"><ele>180</ele><time>2016-09-30T12:12:41Z</time></trkpt>
<trkpt lat="53.0211360000" lon="-4.0447780000"><ele>180</ele><time>2016-09-30T12:12:43Z</time></trkpt>
<trkpt lat="53.0211380000" lon="-4.0447630000"><ele>180</ele></trkpt>
<trkpt lat="53.0211400000" lon="-4.0447480000"><ele>180</ele><time>2016-09-30T12:12:44Z</time></trkpt>
<trkpt lat="53.0211720000" lon="-4.0444890000"><ele>180</ele><time>2016-09-30T12:12:45Z</time></trkpt>
<trkpt lat="53.0211670000" lon="-4.0444700000"><ele>180</ele><time>2016-09-30T12:12:46Z</time></trkpt>
<trkpt lat="53.0211660000" lon="-4.0444590000"><ele>180</ele><time>2016-09-30T12:12:47Z</time></trkpt>
<trkpt lat="53.0211610000" lon="-4.0444490000"><ele>180</ele><time>2016-09-30T12:12:48Z</time></trkpt>
<trkpt lat="53.0211610000" lon="-4.0444490000"><ele>180</ele><time>2016-09-30T12:12:49Z</time></trkpt>
<trkpt lat="53.0211610000" lon="-4.0444490000"><ele>181</ele><time>2016-09-30T12:12:50Z</time></trkpt>
<trkpt lat="53.0211610000" lon="-4.0444480000"><ele>181</ele><time>2016-09-30T12:12:51Z</time></trkpt>
<trkpt lat="53.0211600000" lon="-4.0444480000"><ele>181</ele><time>2016-09-30T12:12:52Z</time></trkpt>
<trkpt lat="53.0211600000" lon="-4.0444460000"><ele>181</ele><time>2016-09-30T12:12:53Z</time></trkpt>
<trkpt lat="53.0211590000" lon="-4.0444450000"><ele>181</ele><time>2016-09-30T12:12:54Z</time></trkpt>
<trkpt lat="53.0211590000" lon="-4.0444430000"><ele>181</ele><time>2016-09-30T12:12:55Z</time></trkpt>
<trkpt lat="53.0211580000" lon="-4.0444410000"><ele>182</ele><time>2016-09-30T12:12:56Z</time></trkpt>
<trkpt lat="53.0211580000" lon="-4.0444390000"><ele>182</ele><time>2016-09-30T12:12:57Z</time></trkpt>
<trkpt lat="53.0211570000" lon="-4.0444370000"><ele>182</ele><time>2016-09-30T12:12:58Z</time></trkpt>
<trkpt lat="53.0211560000" lon="-4.0444340000"><ele>182</ele><time>2016-09-30T12:12:59Z</time></trkpt>
<trkpt lat="53.0211550000" lon="-4.0444310000"><ele>183</ele><time>2016-09-30T12:13:00Z</time></trkpt>
<trkpt lat="53.0211540000" lon="-4.0444280000"><ele>183</ele><time>2016-09-30T12:13:01Z</time></trkpt>
<trkpt lat="53.0211540000" lon="-4.0444240000"><ele>183</ele><time>2016-09-30T12:13:02Z</time></trkpt>
<trkpt lat="53.0211470000" lon="-4.0443240000"><ele>183</ele><time>2016-09-30T12:13:03Z</time></trkpt>
<trkpt lat="53.0211550000" lon="-4.0443120000"><ele>183</ele><time>2016-09-30T12:13:04Z</time></trkpt>
<trkpt lat="53.0211600000" lon="-4.0443000000"><ele>184</ele><time>2016-09-30T12:13:05Z</time></trkpt>
<trkpt lat="53.0211660000" lon="-4.0442840000"><ele>184</ele><time>2016-09-30T12:13:06Z</time></trkpt>
<trkpt lat="53.0211700000" lon="-4.0442690000"><ele>184</ele><time>2016-09-30T12:13:07Z</time></trkpt>
<trkpt lat="53.0211700000" lon="-4.0442690000"><ele>184</ele><time>2016-09-30T12:13:08Z</time></trkpt>
<trkpt lat="53.0211700000" lon="-4.0442690000"><ele>185</ele><time>2016-09-30T12:13:09Z</time></trkpt>
<trkpt lat="53.0211700000" lon="-4.0442680000"><ele>185</ele><time>2016-09-30T12:13:10Z</time></trkpt>
<trkpt lat="53.0211690000" lon="-4.0442670000"><ele>185</ele><time>2016-09-30T12:13:11Z</time></trkpt>
<trkpt lat="53.0211690000" lon="-4.0442660000"><ele>185</ele><time>2016-09-30T12:13:12Z</time></trkpt>
<trkpt lat="53.0211690000" lon="-4.0442640000"><ele>186</ele><time>2016-09-30T12:13:13Z</time></trkpt>
<trkpt lat="53.0211690000" lon="-4.0442610000"><ele>186</ele><time>2016-09-30T12:13:14Z</time></trkpt>
<trkpt lat="53.0211690000" lon="-4.0442590000"><ele>186</ele><time>2016-09-30T12:13:15Z</time></trkpt>
<trkpt lat="53.0211680000" lon="-4.0442550000"><ele>186</ele><time>2016-09-30T12:13:16Z</time></trkpt>
<trkpt lat="53.0211680000" lon="-4.0442520000"><ele>186</ele><time>2016-09-30T12:13:17Z</time></trkpt>
<trkpt lat="53.0211670000" lon="-4.0442480000"><ele>187</ele><time>2016-09-30T12:13:18Z</time></trkpt>
<trkpt lat="53.0211670000" lon="-4.0442440000"><ele>187</ele><time>2016-09-30T12:13:19Z</time></trkpt>
<trkpt lat="53.0211660000" lon="-4.0442400000"><ele>187</ele><time>2016-09-30T12:13:20Z</time></trkpt>
<trkpt lat="53.0211650000" lon="-4.0442350000"><ele>187</ele><time>2016-09-30T12:13:21Z</time></trkpt>
<trkpt lat="53.0211640000" lon="-4.0442300000"><ele>187</ele><time>2016-09-30T12:13:22Z</time></trkpt>
<trkpt lat="53.0211630000" lon="-4.0442240000"><ele>187</ele><time>2016-09-30T12:13:23Z</time></trkpt>
<trkpt lat="53.0211620000" lon="-4.0442180000"><ele>187</ele><time>2016-09-30T12:13:24Z</time></trkpt>
<trkpt lat="53.0211600000" lon="-4.0442120000"><ele>187</ele><time>2016-09-30T12:13:25Z</time></trkpt>
<trkpt lat="53.0211590000" lon="-4.0442040000"><ele>187</ele><time>2016-09-30T12:13:26Z</time></trkpt>
<trkpt lat="53.0211580000" lon="-4.0441970000"><ele>187</ele><time>2016-09-30T12:13:27Z</time></trkpt>
<trkpt lat="53.0211560000" lon="-4.0441880000"><ele>187</ele><time>2016-09-30T12:13:28Z</time></trkpt>
<trkpt lat="53.0211540000" lon="-4.0441790000"><ele>187</ele><time>2016-09-30T12:13:29Z</time></trkpt>
<trkpt lat="53.0211530000" lon="-4.0441700000"><ele>187</ele><time>2016-09-30T12:13:30Z</time></trkpt>
<trkpt lat="53.0211510000" lon="-4.0441620000"><ele>187</ele><time>2016-09-30T12:13:31Z</time></trkpt>
<trkpt lat="53.0211410000" lon="-4.0441270000"><ele>187</ele><time>2016-09-30T12:13:35Z</time></trkpt>
<trkpt lat="53.0211280000" lon="-4.0440770000"><ele>187</ele><time>2016-09-30T12:13:40Z</time></trkpt>
<trkpt lat="53.0210910000" lon="-4.0438730000"><ele>187</ele><time>2016-09-30T12:13:41Z</time></trkpt>
<trkpt lat="53.0210970000" lon="-4.0438310000"><ele>188</ele><time>2016-09-30T12:13:44Z</time></trkpt>
<trkpt lat="53.0210950000" lon="-4.0437940000"><ele>189</ele><time>2016-09-30T12:13:57Z</time></trkpt>
<trkpt lat="53.0210940000" lon="-4.0437910000"><ele>189</ele><time>2016-09-30T12:13:58Z</time></trkpt>
<trkpt lat="53.0210930000" lon="-4.0437870000"><ele>189</ele><time>2016-09-30T12:13:59Z</time></trkpt>
<trkpt lat="53.0210910000" lon="-4.0437840000"><ele>189</ele><time>2016-09-30T12:14:00Z</time></trkpt>
<trkpt lat="53.0210710000" lon="-4.0437650000"><ele>189</ele><time>2016-09-30T12:14:09Z</time></trkpt>
<trkpt lat="53.0210640000" lon="-4.0437600000"><ele>189</ele><time>2016-09-30T12:14:11Z</time></trkpt>
<trkpt lat="53.0210600000" lon="-4.0437590000"><ele>189</ele><time>2016-09-30T12:14:12Z</time></trkpt>
<trkpt lat="53.0210560000" lon="-4.0437570000"><ele>189</ele><time>2016-09-30T12:14:13Z</time></trkpt>
<trkpt lat="53.0210530000" lon="-4.0437550000"><ele>189</ele><time>2016-09-30T12:14:14Z</time></trkpt>
<trkpt lat="53.0210490000" lon="-4.0437520000"><ele>189</ele><time>2016-09-30T12:14:15Z</time></trkpt>
<trkpt lat="53.0210450000" lon="-4.0437490000"><ele>188</ele><time>2016-09-30T12:14:16Z</time></trkpt>
<trkpt lat="53.0210420000" lon="-4.0437460000"><ele>188</ele><time>2016-09-30T12:14:17Z</time></trkpt>
<trkpt lat="53.0210390000" lon="-4.0437430000"><ele>188</ele><time>2016-09-30T12:14:18Z</time></trkpt>
<trkpt lat="53.0210360000" lon="-4.0437400000"><ele>188</ele><time>2016-09-30T12:14:19Z</time></trkpt>
<trkpt lat="53.0210330000" lon="-4.0437370000"><ele>188</ele><time>2016-09-30T12:14:20Z</time></trkpt>
<trkpt lat="53.0210290000" lon="-4.0437340000"><ele>188</ele><time>2016-09-30T12:14:21Z</time></trkpt>
<trkpt lat="53.0210250000" lon="-4.0437310000"><ele>188</ele><time>2016-09-30T12:14:22Z</time></trkpt>
<trkpt lat="53.0210220000" lon="-4.0437280000"><ele>188</ele><time>2016-09-30T12:14:23Z</time></trkpt>
<trkpt lat="53.0210180000" lon="-4.0437240000"><ele>188</ele><time>2016-09-30T12:14:24Z</time></trkpt>
<trkpt lat="53.0210140000" lon="-4.0437210000"><ele>187</ele><time>2016-09-30T12:14:25Z</time></trkpt>
<trkpt lat="53.0210110000" lon="-4.0437170000"><ele>187</ele><time>2016-09-30T12:14:26Z</time></trkpt>
<trkpt lat="53.0210070000" lon="-4.0437130000"><ele>187</ele><time>2016-09-30T12:14:27Z</time></trkpt>
<trkpt lat="53.0210040000" lon="-4.0437080000"><ele>187</ele><time>2016-09-30T12:14:28Z</time></trkpt>
<trkpt lat="53.0210000000" lon="-4.0437030000"><ele>187</ele><time>2016-09-30T12:14:29Z</time></trkpt>
<trkpt lat="53.0209970000" lon="-4.0436980000"><ele>187</ele><time>2016-09-30T12:14:30Z</time></trkpt>
<trkpt lat="53.0209930000" lon="-4.0436920000"><ele>187</ele><time>2016-09-30T12:14:31Z</time></trkpt>
<trkpt lat="53.0209900000" lon="-4.0436860000"><ele>186</ele><time>2016-09-30T12:14:32Z</time></trkpt>
<trkpt lat="53.0209860000" lon="-4.0436790000"><ele>186</ele><time>2016-09-30T12:14:33Z</time></trkpt>
<trkpt lat="53.0209830000" lon="-4.0436710000"><ele>186</ele><time>2016-09-30T12:14:34Z</time></trkpt>
<trkpt lat="53.0209790000" lon="-4.0436630000"><ele>186</ele><time>2016-09-30T12:14:35Z</time></trkpt>
<trkpt lat="53.0209760000" lon="-4.0436550000"><ele>186</ele><time>2016-09-30T12:14:36Z</time></trkpt>
<trkpt lat="53.0209720000" lon="-4.0436460000"><ele>185</ele><time>2016-09-30T12:14:37Z</time></trkpt>
<trkpt lat="53.0209690000" lon="-4.0436360000"><ele>185</ele><time>2016-09-30T12:14:38Z</time></trkpt>
<trkpt lat="53.0209650000" lon="-4.0436260000"><ele>185</ele><time>2016-09-30T12:14:39Z</time></trkpt>
<trkpt lat="53.0209620000" lon="-4.0436150000"><ele>185</ele><time>2016-09-30T12:14:40Z</time></trkpt>
<trkpt lat="53.0209580000" lon="-4.0436030000"><ele>184</ele><time>2016-09-30T12:14:41Z</time></trkpt>
<trkpt lat="53.0209550000" lon="-4.0435910000"><ele>184</ele><time>2016-09-30T12:14:42Z</time></trkpt>
<trkpt lat="53.0209520000" lon="-4.0435780000"><ele>184</ele><time>2016-09-30T12:14:43Z</time></trkpt>
<trkpt lat="53.0209120000" lon="-4.0433730000"><ele>184</ele><time>2016-09-30T12:14:44Z</time></trkpt>
<trkpt lat="53.0209140000" lon="-4.0433520000"><ele>184</ele><time>2016-09-30T12:14:45Z</time></trkpt>
<trkpt lat="53.0209140000" lon="-4.0433320000"><ele>183</ele><time>2016-09-30T12:14:46Z</time></trkpt>
<trkpt lat="53.0209170000" lon="-4.0433150000"><ele>183</ele><time>2016-09-30T12:14:47Z</time></trkpt>
<trkpt lat="53.0209170000" lon="-4.0433150000"><ele>183</ele><time>2016-09-30T12:14:48Z</time></trkpt>
<trkpt lat="53.0209170000" lon="-4.0433140000"><ele>183</ele><time>2016-09-30T12:14:49Z</time></trkpt>
<trkpt lat="53.0209180000" lon="-4.0433140000"><ele>183</ele><time>2016-09-30T12:14:50Z</time></trkpt>
<trkpt lat="53.0209180000" lon="-4.0433130000"><ele>183</ele><time>2016-09-30T12:14:51Z</time></trkpt>
<trkpt lat="53.0209190000" lon="-4.0433110000"><ele>183</ele><time>2016-09-30T12:14:52Z</time></trkpt>
<trkpt lat="53.0209200000" lon="-4.0433090000"><ele>183</ele><time>2016-09-30T12:14:53Z</time></trkpt>
<trkpt lat="53.0209210000" lon="-4.0433070000"><ele>183</ele><time>2016-09-30T12:14:54Z</time></trkpt>
<trkpt lat="53.0209220000" lon="-4.0433040000"><ele>183</ele><time>2016-09-30T12:14:55Z</time></trkpt>
<trkpt lat="53.0209240000" lon="-4.0433000000"><ele>183</ele><time>2016-09-30T12:14:56Z</time></trkpt>
<trkpt lat="53.0209250000" lon="-4.0432940000"><ele>183</ele><time>2016-09-30T12:14:57Z</time></trkpt>
<trkpt lat="53.0209270000" lon="-4.0432880000"><ele>183</ele><time>2016-09-30T12:14:58Z</time></trkpt>
<trkpt lat="53.0209270000" lon="-4.0432820000"><ele>183</ele><time>2016-09-30T12:14:59Z</time></trkpt>
<trkpt lat="53.0209280000" lon="-4.0432750000"><ele>183</ele><time>2016-09-30T12:15:00Z</time></trkpt>
<trkpt lat="53.0209280000" lon="-4.0432680000"><ele>183</ele><time>2016-09-30T12:15:01Z</time></trkpt>
<trkpt lat="53.0209290000" lon="-4.0432590000"><ele>183</ele><time>2016-09-30T12:15:02Z</time></trkpt>
<trkpt lat="53.0209290000" lon="-4.0432500000"><ele>183</ele><time>2016-09-30T12:15:03Z</time></trkpt>
<trkpt lat="53.0209290000" lon="-4.0432400000"><ele>183</ele><time>2016-09-30T12:15:04Z</time></trkpt>
<trkpt lat="53.0209310000" lon="-4.0430510000"><ele>183</ele><time>2016-09-30T12:15:05Z</time></trkpt>
<trkpt lat="53.0209190000" lon="-4.0430290000"><ele>183</ele><time>2016-09-30T12:15:07Z</time></trkpt>
<trkpt lat="53.0209190000" lon="-4.0430290000"><ele>183</ele><time>2016-09-30T12:15:08Z</time></trkpt>
<trkpt lat="53.0209190000" lon="-4.0430290000"><ele>183</ele><time>2016-09-30T12:15:09Z</time></trkpt>
<trkpt lat="53.0209180000" lon="-4.0430280000"><ele>182</ele><time>2016-09-30T12:15:10Z</time></trkpt>
<trkpt lat="53.0209180000" lon="-4.0430270000"><ele>182</ele><time>2016-09-30T12:15:11Z</time></trkpt>
<trkpt lat="53.0209170000" lon="-4.0430260000"><ele>182</ele><time>2016-09-30T12:15:12Z</time></trkpt>
<trkpt lat="53.0209160000" lon="-4.0430250000"><ele>182</ele><time>2016-09-30T12:15:13Z</time></trkpt>
<trkpt lat="53.0209140000" lon="-4.0430230000"><ele>182</ele><time>2016-09-30T12:15:14Z</time></trkpt>
<trkpt lat="53.0209120000" lon="-4.0430200000"><ele>182</ele><time>2016-09-30T12:15:15Z</time></trkpt>
<trkpt lat="53.0209100000" lon="-4.0430180000"><ele>182</ele><time>2016-09-30T12:15:16Z</time></trkpt>
<trkpt lat="53.0209070000" lon="-4.0430150000"><ele>182</ele><time>2016-09-30T12:15:17Z</time></trkpt>
<trkpt lat="53.0209040000" lon="-4.0430110000"><ele>182</ele><time>2016-09-30T12:15:18Z</time></trkpt>
<trkpt lat="53.0209000000" lon="-4.0430070000"><ele>182</ele><time>2016-09-30T12:15:19Z</time></trkpt>
<trkpt lat="53.0208970000" lon="-4.0430030000"><ele>182</ele><time>2016-09-30T12:15:20Z</time></trkpt>
<trkpt lat="53.0208930000" lon="-4.0429970000"><ele>182</ele><time>2016-09-30T12:15:21Z</time></trkpt>
<trkpt lat="53.0208900000" lon="-4.0429910000"><ele>182</ele><time>2016-09-30T12:15:22Z</time></trkpt>
<trkpt lat="53.0208860000" lon="-4.0429850000"><ele>182</ele><time>2016-09-30T12:15:23Z</time></trkpt>
<trkpt lat="53.0208840000" lon="-4.0429770000"><ele>182</ele><time>2016-09-30T12:15:24Z</time></trkpt>
<trkpt lat="53.0208810000" lon="-4.0429700000"><ele>182</ele><time>2016-09-30T12:15:25Z</time></trkpt>
<trkpt lat="53.0208790000" lon="-4.0429610000"><ele>182</ele><time>2016-09-30T12:15:26Z</time></trkpt>
<trkpt lat="53.0208770000" lon="-4.0429510000"><ele>182</ele><time>2016-09-30T12:15:27Z</time></trkpt>
<trkpt lat="53.0208750000" lon="-4.0429410000"><ele>182</ele><time>2016-09-30T12:15:28Z</time></trkpt>
<trkpt lat="53.0208740000" lon="-4.0429300000"><ele>182</ele><time>2016-09-30T12:15:29Z</time></trkpt>
<trkpt lat="53.0208720000" lon="-4.0429190000"><ele>182</ele><time>2016-09-30T12:15:30Z</time></trkpt>
<trkpt lat="53.0208710000" lon="-4.0429080000"><ele>182</ele><time>2016-09-30T12:15:31Z</time></trkpt>
<trkpt lat="53.0208700000" lon="-4.0428970000"><ele>182</ele><time>2016-09-30T12:15:32Z</time></trkpt>
<trkpt lat="53.0208690000" lon="-4.0428850000"><ele>182</ele><time>2016-09-30T12:15:33Z</time></trkpt>
<trkpt lat="53.0208680000" lon="-4.0428750000"><ele>182</ele><time>2016-09-30T12:15:34Z</time></trkpt>
<trkpt lat="53.0208670000" lon="-4.0428650000"><ele>182</ele><time>2016-09-30T12:15:35Z</time></trkpt>
<trkpt lat="53.0208670000" lon="-4.0428550000"><ele>182</ele><time>2016-09-30T12:15:36Z</time></trkpt>
<trkpt lat="53.0208660000" lon="-4.0428460000"><ele>182</ele><time>2016-09-30T12:15:37Z</time></trkpt>
<trkpt lat="53.0208660000" lon="-4.0428360000"><ele>182</ele><time>2016-09-30T12:15:38Z</time></trkpt>
<trkpt lat="53.0208660000" lon="-4.0428260000"><ele>182</ele><time>2016-09-30T12:15:39Z</time></trkpt>
<trkpt lat="53.0208660000" lon="-4.0428160000"><ele>182</ele><time>2016-09-30T12:15:40Z</time></trkpt>
<trkpt lat="53.0208660000" lon="-4.0428070000"><ele>182</ele><time>2016-09-30T12:15:41Z</time></trkpt>
<trkpt lat="53.0208660000" lon="-4.0427980000"><ele>182</ele><time>2016-09-30T12:15:42Z</time></trkpt>
<trkpt lat="53.0208650000" lon="-4.0427900000"><ele>182</ele><time>2016-09-30T12:15:43Z</time></trkpt>
<trkpt lat="53.0208650000" lon="-4.0427810000"><ele>182</ele><time>2016-09-30T12:15:44Z</time></trkpt>
<trkpt lat="53.0208650000" lon="-4.0427730000"><ele>182</ele><time>2016-09-30T12:15:45Z</time></trkpt>
<trkpt lat="53.0208660000" lon="-4.0427640000"><ele>182</ele><time>2016-09-30T12:15:46Z</time></trkpt>
<trkpt lat="53.0208660000" lon="-4.0427540000"><ele>182</ele><time>2016-09-30T12:15:47Z</time></trkpt>
<trkpt lat="53.0208680000" lon="-4.0427450000"><ele>182</ele><time>2016-09-30T12:15:48Z</time></trkpt>
<trkpt lat="53.0208690000" lon="-4.0427350000"><ele>182</ele><time>2016-09-30T12:15:49Z</time></trkpt>
<trkpt lat="53.0208700000" lon="-4.0427250000"><ele>181</ele><time>2016-09-30T12:15:50Z</time></trkpt>
<trkpt lat="53.0208710000" lon="-4.0427140000"><ele>181</ele><time>2016-09-30T12:15:51Z</time></trkpt>
<trkpt lat="53.0208730000" lon="-4.0427030000"><ele>181</ele><time>2016-09-30T12:15:52Z</time></trkpt>
<trkpt lat="53.0208750000" lon="-4.0426920000"><ele>181</ele><time>2016-09-30T12:15:53Z</time></trkpt>
<trkpt lat="53.0208770000" lon="-4.0426820000"><ele>181</ele><time>2016-09-30T12:15:54Z</time></trkpt>
<trkpt lat="53.0208790000" lon="-4.0426720000"><ele>181</ele><time>2016-09-30T12:15:55Z</time></trkpt>
<trkpt lat="53.0208810000" lon="-4.0426620000"><ele>181</ele><time>2016-09-30T12:15:56Z</time></trkpt>
<trkpt lat="53.0208830000" lon="-4.0426520000"><ele>181</ele><time>2016-09-30T12:15:57Z</time></trkpt>
<trkpt lat="53.0208860000" lon="-4.0426420000"><ele>181</ele><time>2016-09-30T12:15:58Z</time></trkpt>
<trkpt lat="53.0208880000" lon="-4.0426320000"><ele>181</ele><time>2016-09-30T12:15:59Z</time></trkpt>
<trkpt lat="53.0208900000" lon="-4.0426210000"><ele>181</ele><time>2016-09-30T12:16:00Z</time></trkpt>
<trkpt lat="53.0208920000" lon="-4.0426110000"><ele>181</ele><time>2016-09-30T12:16:01Z</time></trkpt>
<trkpt lat="53.0208950000" lon="-4.0426000000"><ele>181</ele><time>2016-09-30T12:16:02Z</time></trkpt>
<trkpt lat="53.0208960000" lon="-4.0425900000"><ele>181</ele><time>2016-09-30T12:16:03Z</time></trkpt>
<trkpt lat="53.0208980000" lon="-4.0425790000"><ele>181</ele><time>2016-09-30T12:16:04Z</time></trkpt>
<trkpt lat="53.0209000000" lon="-4.0425690000"><ele>180</ele><time>2016-09-30T12:16:05Z</time></trkpt>
<trkpt lat="53.0209020000" lon="-4.0425580000"><ele>180</ele><time>2016-09-30T12:16:06Z</time></trkpt>
<trkpt lat="53.0209120000" lon="-4.0425070000"><ele>180</ele><time>2016-09-30T12:16:11Z</time></trkpt>
<trkpt lat="53.0209510000" lon="-4.0423110000"><ele>180</ele><time>2016-09-30T12:16:13Z</time></trkpt>
<trkpt lat="53.0209520000" lon="-4.0423010000"><ele>180</ele><time>2016-09-30T12:16:14Z</time></trkpt>
<trkpt lat="53.0209550000" lon="-4.0422840000"><ele>180</ele><time>2016-09-30T12:16:15Z</time></trkpt>
<trkpt lat="53.0209550000" lon="-4.0422840000"><ele>180</ele><time>2016-09-30T12:16:16Z</time></trkpt>
<trkpt lat="53.0209550000" lon="-4.0422840000"><ele>180</ele><time>2016-09-30T12:16:17Z</time></trkpt>
<trkpt lat="53.0209550000" lon="-4.0422830000"><ele>180</ele><time>2016-09-30T12:16:18Z</time></trkpt>
<trkpt lat="53.0209550000" lon="-4.0422820000"><ele>181</ele><time>2016-09-30T12:16:19Z</time></trkpt>
<trkpt lat="53.0209550000" lon="-4.0422810000"><ele>181</ele><time>2016-09-30T12:16:20Z</time></trkpt>
<trkpt lat="53.0209550000" lon="-4.0422790000"><ele>181</ele><time>2016-09-30T12:16:21Z</time></trkpt>
<trkpt lat="53.0209550000" lon="-4.0422760000"><ele>181</ele><time>2016-09-30T12:16:22Z</time></trkpt>
<trkpt lat="53.0209550000" lon="-4.0422740000"><ele>181</ele><time>2016-09-30T12:16:23Z</time></trkpt>
<trkpt lat="53.0209550000" lon="-4.0422700000"><ele>181</ele><time>2016-09-30T12:16:24Z</time></trkpt>
<trkpt lat="53.0209550000" lon="-4.0422670000"><ele>182</ele><time>2016-09-30T12:16:25Z</time></trkpt>
<trkpt lat="53.0209540000" lon="-4.0422630000"><ele>182</ele><time>2016-09-30T12:16:26Z</time></trkpt>
<trkpt lat="53.0209530000" lon="-4.0422590000"><ele>182</ele><time>2016-09-30T12:16:27Z</time></trkpt>
<trkpt lat="53.0209520000" lon="-4.0422540000"><ele>182</ele><time>2016-09-30T12:16:28Z</time></trkpt>
<trkpt lat="53.0209500000" lon="-4.0422500000"><ele>182</ele><time>2016-09-30T12:16:29Z</time></trkpt>
<trkpt lat="53.0209480000" lon="-4.0422450000"><ele>182</ele><time>2016-09-30T12:16:30Z</time></trkpt>
<trkpt lat="53.0209470000" lon="-4.0422400000"><ele>183</ele><time>2016-09-30T12:16:31Z</time></trkpt>
<trkpt lat="53.0209450000" lon="-4.0422360000"><ele>183</ele><time>2016-09-30T12:16:32Z</time></trkpt>
<trkpt lat="53.0209430000" lon="-4.0422310000"><ele>183</ele><time>2016-09-30T12:16:33Z</time></trkpt>
<trkpt lat="53.0209420000" lon="-4.0422270000"><ele>183</ele><time>2016-09-30T12:16:34Z</time></trkpt>
<trkpt lat="53.0209400000" lon="-4.0422220000"><ele>183</ele><time>2016-09-30T12:16:35Z</time></trkpt>
<trkpt lat="53.0209390000" lon="-4.0422180000"><ele>183</ele><time>2016-09-30T12:16:36Z</time></trkpt>
<trkpt lat="53.0209380000" lon="-4.0422150000"><ele>183</ele><time>2016-09-30T12:16:37Z</time></trkpt>
<trkpt lat="53.0209370000" lon="-4.0422110000"><ele>183</ele><time>2016-09-30T12:16:38Z</time></trkpt>
<trkpt lat="53.0209360000" lon="-4.0422080000"><ele>183</ele><time>2016-09-30T12:16:39Z</time></trkpt>
<trkpt lat="53.0209350000" lon="-4.0422060000"><ele>183</ele><time>2016-09-30T12:16:40Z</time></trkpt>
<trkpt lat="53.0209340000" lon="-4.0422030000"><ele>183</ele><time>2016-09-30T12:16:41Z</time></trkpt>
<trkpt lat="53.0209330000" lon="-4.0422010000"><ele>183</ele><time>2016-09-30T12:16:42Z</time></trkpt>
<trkpt lat="53.0209320000" lon="-4.0421990000"><ele>183</ele><time>2016-09-30T12:16:43Z</time></trkpt>
<trkpt lat="53.0209310000" lon="-4.0421960000"><ele>183</ele><time>2016-09-30T12:16:44Z</time></trkpt>
<trkpt lat="53.0209310000" lon="-4.0421940000"><ele>184</ele><time>2016-09-30T12:16:45Z</time></trkpt>
<trkpt lat="53.0209300000" lon="-4.0421920000"><ele>184</ele><time>2016-09-30T12:16:46Z</time></trkpt>
<trkpt lat="53.0209300000" lon="-4.0421900000"><ele>184</ele><time>2016-09-30T12:16:47Z</time></trkpt>
<trkpt lat="53.0209290000" lon="-4.0421880000"><ele>184</ele><time>2016-09-30T12:16:48Z</time></trkpt>
<trkpt lat="53.0209290000" lon="-4.0421860000"><ele>184</ele><time>2016-09-30T12:16:49Z</time></trkpt>
<trkpt lat="53.0209270000" lon="-4.0421840000"><ele>184</ele><time>2016-09-30T12:16:50Z</time></trkpt>
<trkpt lat="53.0209260000" lon="-4.0421810000"><ele>184</ele><time>2016-09-30T12:16:51Z</time></trkpt>
<trkpt lat="53.0209240000" lon="-4.0421780000"><ele>184</ele><time>2016-09-30T12:16:52Z</time></trkpt>
<trkpt lat="53.0209210000" lon="-4.0421750000"><ele>184</ele><time>2016-09-30T12:16:53Z</time></trkpt>
<trkpt lat="53.0209180000" lon="-4.0421710000"><ele>184</ele><time>2016-09-30T12:16:54Z</time></trkpt>
<trkpt lat="53.0209150000" lon="-4.0421670000"><ele>184</ele><time>2016-09-30T12:16:55Z</time></trkpt>
<trkpt lat="53.0209110000" lon="-4.0421620000"><ele>184</ele><time>2016-09-30T12:16:56Z</time></trkpt>
<trkpt lat="53.0209070000" lon="-4.0421580000"><ele>184</ele><time>2016-09-30T12:16:57Z</time></trkpt>
<trkpt lat="53.0209030000" lon="-4.0421530000"><ele>184</ele><time>2016-09-30T12:16:58Z</time></trkpt>
<trkpt lat="53.0208990000" lon="-4.0421480000"><ele>184</ele><time>2016-09-30T12:16:59Z</time></trkpt>
<trkpt lat="53.0208940000" lon="-4.0421430000"><ele>184</ele><time>2016-09-30T12:17:00Z</time></trkpt>
<trkpt lat="53.0208890000" lon="-4.0421380000"><ele>184</ele><time>2016-09-30T12:17:01Z</time></trkpt>
<trkpt lat="53.0208840000" lon="-4.0421340000"><ele>184</ele><time>2016-09-30T12:17:02Z</time></trkpt>
<trkpt lat="53.0208790000" lon="-4.0421290000"><ele>184</ele><time>2016-09-30T12:17:03Z</time></trkpt>
<trkpt lat="53.0208730000" lon="-4.0421250000"><ele>184</ele><time>2016-09-30T12:17:04Z</time></trkpt>
<trkpt lat="53.0208680000" lon="-4.0421200000"><ele>184</ele><time>2016-09-30T12:17:05Z</time></trkpt>
<trkpt lat="53.0208620000" lon="-4.0421160000"><ele>185</ele><time>2016-09-30T12:17:06Z</time></trkpt>
<trkpt lat="53.0208570000" lon="-4.0421110000"><ele>185</ele><time>2016-09-30T12:17:07Z</time></trkpt>
<trkpt lat="53.0208510000" lon="-4.0421070000"><ele>185</ele><time>2016-09-30T12:17:08Z</time></trkpt>
<trkpt lat="53.0208450000" lon="-4.0421030000"><ele>185</ele><time>2016-09-30T12:17:09Z</time></trkpt>
<trkpt lat="53.0208390000" lon="-4.0420990000"><ele>185</ele><time>2016-09-30T12:17:10Z</time></trkpt>
<trkpt lat="53.0208320000" lon="-4.0420950000"><ele>185</ele><time>2016-09-30T12:17:11Z</time></trkpt>
<trkpt lat="53.0208260000" lon="-4.0420900000"><ele>185</ele><time>2016-09-30T12:17:12Z</time></trkpt>
<trkpt lat="53.0208190000" lon="-4.0420870000"><ele>185</ele><time>2016-09-30T12:17:13Z</time></trkpt>
<trkpt lat="53.0208130000" lon="-4.0420830000"><ele>185</ele><time>2016-09-30T12:17:14Z</time></trkpt>
<trkpt lat="53.0208060000" lon="-4.0420790000"><ele>185</ele><time>2016-09-30T12:17:15Z</time></trkpt>
<trkpt lat="53.0208000000" lon="-4.0420750000"><ele>185</ele><time>2016-09-30T12:17:16Z</time></trkpt>
<trkpt lat="53.0207940000" lon="-4.0420700000"><ele>185</ele><time>2016-09-30T12:17:17Z</time></trkpt>
<trkpt lat="53.0207880000" lon="-4.0420660000"><ele>185</ele><time>2016-09-30T12:17:18Z</time></trkpt>
<trkpt lat="53.0207820000" lon="-4.0420610000"><ele>185</ele><time>2016-09-30T12:17:19Z</time></trkpt>
<trkpt lat="53.0207770000" lon="-4.0420560000"><ele>185</ele><time>2016-09-30T12:17:20Z</time></trkpt>
<trkpt lat="53.0207720000" lon="-4.0420500000"><ele>185</ele><time>2016-09-30T12:17:21Z</time></trkpt>
<trkpt lat="53.0207670000" lon="-4.0420430000"><ele>185</ele><time>2016-09-30T12:17:22Z</time></trkpt>
<trkpt lat="53.0207620000" lon="-4.0420360000"><ele>185</ele><time>2016-09-30T12:17:23Z</time></trkpt>
<trkpt lat="53.0207570000" lon="-4.0420300000"><ele>185</ele><time>2016-09-30T12:17:24Z</time></trkpt>
<trkpt lat="53.0207530000" lon="-4.0420230000"><ele>185</ele><time>2016-09-30T12:17:25Z</time></trkpt>
<trkpt lat="53.0207490000" lon="-4.0420160000"><ele>185</ele><time>2016-09-30T12:17:26Z</time></trkpt>
<trkpt lat="53.0207450000" lon="-4.0420080000"><ele>185</ele><time>2016-09-30T12:17:27Z</time></trkpt>
<trkpt lat="53.0207410000" lon="-4.0420010000"><ele>185</ele><time>2016-09-30T12:17:28Z</time></trkpt>
<trkpt lat="53.0207360000" lon="-4.0419930000"><ele>185</ele><time>2016-09-30T12:17:29Z</time></trkpt>
<trkpt lat="53.0207330000" lon="-4.0419860000"><ele>185</ele><time>2016-09-30T12:17:30Z</time></trkpt>
<trkpt lat="53.0207290000" lon="-4.0419780000"><ele>185</ele><time>2016-09-30T12:17:31Z</time></trkpt>
<trkpt lat="53.0207240000" lon="-4.0419700000"><ele>185</ele><time>2016-09-30T12:17:32Z</time></trkpt>
<trkpt lat="53.0207210000" lon="-4.0419620000"><ele>185</ele><time>2016-09-30T12:17:33Z</time></trkpt>
<trkpt lat="53.0207170000" lon="-4.0419530000"><ele>185</ele><time>2016-09-30T12:17:34Z</time></trkpt>
<trkpt lat="53.0207130000" lon="-4.0419450000"><ele>185</ele><time>2016-09-30T12:17:35Z</time></trkpt>
<trkpt lat="53.0207100000" lon="-4.0419370000"><ele>185</ele><time>2016-09-30T12:17:36Z</time></trkpt>
<trkpt lat="53.0207070000" lon="-4.0419280000"><ele>185</ele><time>2016-09-30T12:17:37Z</time></trkpt>
<trkpt lat="53.0207040000" lon="-4.0419190000"><ele>185</ele><time>2016-09-30T12:17:38Z</time></trkpt>
<trkpt lat="53.0207010000" lon="-4.0419100000"><ele>185</ele><time>2016-09-30T12:17:39Z</time></trkpt>
<trkpt lat="53.0206990000" lon="-4.0419020000"><ele>185</ele><time>2016-09-30T12:17:40Z</time></trkpt>
<trkpt lat="53.0206960000" lon="-4.0418930000"><ele>185</ele><time>2016-09-30T12:17:41Z</time></trkpt>
<trkpt lat="53.0206940000" lon="-4.0418850000"><ele>185</ele><time>2016-09-30T12:17:42Z</time></trkpt>
<trkpt lat="53.0206910000" lon="-4.0418760000"><ele>185</ele><time>2016-09-30T12:17:43Z</time></trkpt>
<trkpt lat="53.0206890000" lon="-4.0418680000"><ele>185</ele><time>2016-09-30T12:17:44Z</time></trkpt>
<trkpt lat="53.0206870000" lon="-4.0418590000"><ele>185</ele><time>2016-09-30T12:17:45Z</time></trkpt>
<trkpt lat="53.0206840000" lon="-4.0418500000"><ele>185</ele><time>2016-09-30T12:17:46Z</time></trkpt>
<trkpt lat="53.0206810000" lon="-4.0418420000"><ele>185</ele><time>2016-09-30T12:17:47Z</time></trkpt>
<trkpt lat="53.0206780000" lon="-4.0418350000"><ele>185</ele><time>2016-09-30T12:17:48Z</time></trkpt>
<trkpt lat="53.0206750000" lon="-4.0418270000"><ele>185</ele><time>2016-09-30T12:17:49Z</time></trkpt>
<trkpt lat="53.0206730000" lon="-4.0418200000"><ele>185</ele><time>2016-09-30T12:17:50Z</time></trkpt>
<trkpt lat="53.0206710000" lon="-4.0418130000"><ele>185</ele><time>2016-09-30T12:17:51Z</time></trkpt>
<trkpt lat="53.0206700000" lon="-4.0418060000"><ele>185</ele><time>2016-09-30T12:17:52Z</time></trkpt>
<trkpt lat="53.0206690000" lon="-4.0417980000"><ele>185</ele><time>2016-09-30T12:17:53Z</time></trkpt>
<trkpt lat="53.0206680000" lon="-4.0417900000"><ele>185</ele><time>2016-09-30T12:17:54Z</time></trkpt>
<trkpt lat="53.0206670000" lon="-4.0417820000"><ele>185</ele><time>2016-09-30T12:17:55Z</time></trkpt>
<trkpt lat="53.0206660000" lon="-4.0417740000"><ele>185</ele><time>2016-09-30T12:17:56Z</time></trkpt>
<trkpt lat="53.0206640000" lon="-4.0417650000"><ele>185</ele><time>2016-09-30T12:17:57Z</time></trkpt>
<trkpt lat="53.0206630000" lon="-4.0417560000"><ele>186</ele><time>2016-09-30T12:17:58Z</time></trkpt>
<trkpt lat="53.0206620000" lon="-4.0417470000"><ele>186</ele><time>2016-09-30T12:17:59Z</time></trkpt>
<trkpt lat="53.0206610000" lon="-4.0417390000"><ele>186</ele><time>2016-09-30T12:18:00Z</time></trkpt>
<trkpt lat="53.0206600000" lon="-4.0417310000"><ele>186</ele><time>2016-09-30T12:18:01Z</time></trkpt>
<trkpt lat="53.0206590000" lon="-4.0417240000"><ele>186</ele><time>2016-09-30T12:18:02Z</time></trkpt>
<trkpt lat="53.0206580000" lon="-4.0417170000"><ele>186</ele><time>2016-09-30T12:18:03Z</time></trkpt>
<trkpt lat="53.0206580000" lon="-4.0417110000"><ele>186</ele><time>2016-09-30T12:18:04Z</time></trkpt>
<trkpt lat="53.0206570000" lon="-4.0417040000"><ele>187</ele><time>2016-09-30T12:18:05Z</time></trkpt>
<trkpt lat="53.0206570000" lon="-4.0416980000"><ele>187</ele><time>2016-09-30T12:18:06Z</time></trkpt>
<trkpt lat="53.0206560000" lon="-4.0416920000"><ele>187</ele><time>2016-09-30T12:18:07Z</time></trkpt>
<trkpt lat="53.0206550000" lon="-4.0416860000"><ele>187</ele><time>2016-09-30T12:18:08Z</time></trkpt>
<trkpt lat="53.0206550000" lon="-4.0416810000"><ele>187</ele><time>2016-09-30T12:18:09Z</time></trkpt>
<trkpt lat="53.0206540000" lon="-4.0416750000"><ele>188</ele><time>2016-09-30T12:18:10Z</time></trkpt>
<trkpt lat="53.0206530000" lon="-4.0416690000"><ele>188</ele><time>2016-09-30T12:18:11Z</time></trkpt>
<trkpt lat="53.0206520000" lon="-4.0416640000"><ele>188</ele><time>2016-09-30T12:18:12Z</time></trkpt>
<trkpt lat="53.0206510000" lon="-4.0416590000"><ele>188</ele><time>2016-09-30T12:18:13Z</time></trkpt>
<trkpt lat="53.0206510000" lon="-4.0416550000"><ele>188</ele><time>2016-09-30T12:18:14Z</time></trkpt>
<trkpt lat="53.0206500000" lon="-4.0416510000"><ele>188</ele><time>2016-09-30T12:18:15Z</time></trkpt>
<trkpt lat="53.0206500000" lon="-4.0416480000"><ele>189</ele><time>2016-09-30T12:18:16Z</time></trkpt>
<trkpt lat="53.0206490000" lon="-4.0416450000"><ele>189</ele><time>2016-09-30T12:18:17Z</time></trkpt>
<trkpt lat="53.0206490000" lon="-4.0416420000"><ele>189</ele><time>2016-09-30T12:18:18Z</time></trkpt>
<trkpt lat="53.0206480000" lon="-4.0416390000"><ele>189</ele><time>2016-09-30T12:18:19Z</time></trkpt>
<trkpt lat="53.0206480000" lon="-4.0416360000"><ele>189</ele><time>2016-09-30T12:18:20Z</time></trkpt>
<trkpt lat="53.0206470000" lon="-4.0416330000"><ele>189</ele><time>2016-09-30T12:18:21Z</time></trkpt>
<trkpt lat="53.0206460000" lon="-4.0416310000"><ele>189</ele><time>2016-09-30T12:18:22Z</time></trkpt>
<trkpt lat="53.0206450000" lon="-4.0416280000"><ele>189</ele><time>2016-09-30T12:18:23Z</time></trkpt>
<trkpt lat="53.0206440000" lon="-4.0416260000"><ele>189</ele><time>2016-09-30T12:18:24Z</time></trkpt>
<trkpt lat="53.0206430000" lon="-4.0416240000"><ele>189</ele><time>2016-09-30T12:18:25Z</time></trkpt>
<trkpt lat="53.0206430000" lon="-4.0416220000"><ele>189</ele><time>2016-09-30T12:18:26Z</time></trkpt>
<trkpt lat="53.0206420000" lon="-4.0416200000"><ele>189</ele><time>2016-09-30T12:18:27Z</time></trkpt>
<trkpt lat="53.0206410000" lon="-4.0416180000"><ele>189</ele><time>2016-09-30T12:18:28Z</time></trkpt>
<trkpt lat="53.0206410000" lon="-4.0416160000"><ele>189</ele><time>2016-09-30T12:18:29Z</time></trkpt>
<trkpt lat="53.0206400000" lon="-4.0416150000"><ele>189</ele><time>2016-09-30T12:18:30Z</time></trkpt>
<trkpt lat="53.0206400000" lon="-4.0416140000"><ele>189</ele><time>2016-09-30T12:18:31Z</time></trkpt>
<trkpt lat="53.0206400000" lon="-4.0416130000"><ele>188</ele><time>2016-09-30T12:18:32Z</time></trkpt>
<trkpt lat="53.0206390000" lon="-4.0416130000"><ele>188</ele><time>2016-09-30T12:18:33Z</time></trkpt>
<trkpt lat="53.0206390000" lon="-4.0416120000"><ele>188</ele><time>2016-09-30T12:18:34Z</time></trkpt>
<trkpt lat="53.0206380000" lon="-4.0416120000"><ele>188</ele><time>2016-09-30T12:18:35Z</time></trkpt>
<trkpt lat="53.0206380000" lon="-4.0416120000"><ele>188</ele><time>2016-09-30T12:18:36Z</time></trkpt>
<trkpt lat="53.0206370000" lon="-4.0416120000"><ele>188</ele><time>2016-09-30T12:18:37Z</time></trkpt>
<trkpt lat="53.0206370000" lon="-4.0416120000"><ele>188</ele><time>2016-09-30T12:18:38Z</time></trkpt>
<trkpt lat="53.0206360000" lon="-4.0416120000"><ele>188</ele><time>2016-09-30T12:18:39Z</time></trkpt>
<trkpt lat="53.0206360000" lon="-4.0416130000"><ele>188</ele><time>2016-09-30T12:18:40Z</time></trkpt>
<trkpt lat="53.0206350000" lon="-4.0416130000"><ele>188</ele><time>2016-09-30T12:18:41Z</time></trkpt>
<trkpt lat="53.0206350000" lon="-4.0416130000"><ele>188</ele><time>2016-09-30T12:18:42Z</time></trkpt>
<trkpt lat="53.0206350000" lon="-4.0416130000"><ele>188</ele><time>2016-09-30T12:18:43Z</time></trkpt>
<trkpt lat="53.0206350000" lon="-4.0416130000"><ele>188</ele><time>2016-09-30T12:18:44Z</time></trkpt>
<trkpt lat="53.0206340000" lon="-4.0416130000"><ele>188</ele><time>2016-09-30T12:18:45Z</time></trkpt>
<trkpt lat="53.0206340000" lon="-4.0416130000"><ele>188</ele><time>2016-09-30T12:18:46Z</time></trkpt>
<trkpt lat="53.0206340000" lon="-4.0416130000"><ele>188</ele><time>2016-09-30T12:18:47Z</time></trkpt>
<trkpt lat="53.0206340000" lon="-4.0416140000"><ele>188</ele><time>2016-09-30T12:18:48Z</time></trkpt>
<trkpt lat="53.0206340000" lon="-4.0416140000"><ele>188</ele><time>2016-09-30T12:18:49Z</time></trkpt>
<trkpt lat="53.0206340000" lon="-4.0416140000"><ele>188</ele><time>2016-09-30T12:18:50Z</time></trkpt>
<trkpt lat="53.0206340000" lon="-4.0416140000"><ele>188</ele><time>2016-09-30T12:18:51Z</time></trkpt>
<trkpt lat="53.0206340000" lon="-4.0416140000"><ele>188</ele><time>2016-09-30T12:18:52Z</time></trkpt>
<trkpt lat="53.0206340000" lon="-4.0416140000"><ele>188</ele><time>2016-09-30T12:18:53Z</time></trkpt>
<trkpt lat="53.0206340000" lon="-4.0416140000"><ele>189</ele><time>2016-09-30T12:18:54Z</time></trkpt>
<trkpt lat="53.0206340000" lon="-4.0416140000"><ele>189</ele><time>2016-09-30T12:18:55Z</time></trkpt>
<trkpt lat="53.0206350000" lon="-4.0416140000"><ele>189</ele><time>2016-09-30T12:18:56Z</time></trkpt>
<trkpt lat="53.0206350000" lon="-4.0416140000"><ele>189</ele><time>2016-09-30T12:18:57Z</time></trkpt>
<trkpt lat="53.0206350000" lon="-4.0416140000"><ele>189</ele><time>2016-09-30T12:18:58Z</time></trkpt>
<trkpt lat="53.0206350000" lon="-4.0416130000"><ele>189</ele><time>2016-09-30T12:18:59Z</time></trkpt>
<trkpt lat="53.0206350000" lon="-4.0416130000"><ele>189</ele><time>2016-09-30T12:19:00Z</time></trkpt>
<trkpt lat="53.0206350000" lon="-4.0416130000"><ele>189</ele><time>2016-09-30T12:19:01Z</time></trkpt>
<trkpt lat="53.0206350000" lon="-4.0416130000"><ele>189</ele><time>2016-09-30T12:19:02Z</time></trkpt>
<trkpt lat="53.0206350000" lon="-4.0416120000"><ele>189</ele><time>2016-09-30T12:19:03Z</time></trkpt>
<trkpt lat="53.0206340000" lon="-4.0416120000"><ele>189</ele><time>2016-09-30T12:19:04Z</time></trkpt>
<trkpt lat="53.0206340000" lon="-4.0416110000"><ele>189</ele><time>2016-09-30T12:19:05Z</time></trkpt>
<trkpt lat="53.0206340000" lon="-4.0416110000"><ele>189</ele><time>2016-09-30T12:19:06Z</time></trkpt>
<trkpt lat="53.0206340000" lon="-4.0416110000"><ele>189</ele><time>2016-09-30T12:19:07Z</time></trkpt>
<trkpt lat="53.0206370000" lon="-4.0416140000"><ele>189</ele><time>2016-09-30T12:19:23Z</time></trkpt>
<trkpt lat="53.0206370000" lon="-4.0416140000"><ele>189</ele><time>2016-09-30T12:19:24Z</time></trkpt>
<trkpt lat="53.0206370000" lon="-4.0416140000"><ele>188</ele><time>2016-09-30T12:19:27Z</time></trkpt>
<trkpt lat="53.0206370000" lon="-4.0416140000"><ele>188</ele><time>2016-09-30T12:19:28Z</time></trkpt>
<trkpt lat="53.0206370000" lon="-4.0416140000"><ele>188</ele><time>2016-09-30T12:19:30Z</time></trkpt>
<trkpt lat="53.0206370000" lon="-4.0416140000"><ele>188</ele><time>2016-09-30T12:19:31Z</time></trkpt>
<trkpt lat="53.0206370000" lon="-4.0416140000"><ele>188</ele><time>2016-09-30T12:19:32Z</time></trkpt>
<trkpt lat="53.0206380000" lon="-4.0416140000"><ele>188</ele><time>2016-09-30T12:19:33Z</time></trkpt>
<trkpt lat="53.0206370000" lon="-4.0416140000"><ele>188</ele><time>2016-09-30T12:19:34Z</time></trkpt>
<trkpt lat="53.0206370000" lon="-4.0416120000"><ele>188</ele><time>2016-09-30T12:19:35Z</time></trkpt>
<trkpt lat="53.0206370000" lon="-4.0416100000"><ele>188</ele><time>2016-09-30T12:19:36Z</time></trkpt>
<trkpt lat="53.0206370000" lon="-4.0416080000"><ele>188</ele><time>2016-09-30T12:19:37Z</time></trkpt>
<trkpt lat="53.0206360000" lon="-4.0416040000"><ele>188</ele><time>2016-09-30T12:19:38Z</time></trkpt>
<trkpt lat="53.0206360000" lon="-4.0416000000"><ele>188</ele><time>2016-09-30T12:19:39Z</time></trkpt>
<trkpt lat="53.0206350000" lon="-4.0415950000"><ele>188</ele><time>2016-09-30T12:19:40Z</time></trkpt>
<trkpt lat="53.0206340000" lon="-4.0415890000"><ele>188</ele><time>2016-09-30T12:19:41Z</time></trkpt>
<trkpt lat="53.0206330000" lon="-4.0415830000"><ele>188</ele><time>2016-09-30T12:19:42Z</time></trkpt>
<trkpt lat="53.0206330000" lon="-4.0415760000"><ele>188</ele><time>2016-09-30T12:19:43Z</time></trkpt>
<trkpt lat="53.0206320000" lon="-4.0415680000"><ele>188</ele><time>2016-09-30T12:19:44Z</time></trkpt>
<trkpt lat="53.0206300000" lon="-4.0415600000"><ele>189</ele><time>2016-09-30T12:19:45Z</time></trkpt>
<trkpt lat="53.0206290000" lon="-4.0415510000"><ele>189</ele><time>2016-09-30T12:19:46Z</time></trkpt>
<trkpt lat="53.0206280000" lon="-4.0415410000"><ele>189</ele><time>2016-09-30T12:19:47Z</time></trkpt>
<trkpt lat="53.0206260000" lon="-4.0415310000"><ele>189</ele><time>2016-09-30T12:19:48Z</time></trkpt>
<trkpt lat="53.0206240000" lon="-4.0415200000"><ele>189</ele><time>2016-09-30T12:19:49Z</time></trkpt>
<trkpt lat="53.0206230000" lon="-4.0415090000"><ele>189</ele><time>2016-09-30T12:19:50Z</time></trkpt>
<trkpt lat="53.0206210000" lon="-4.0414980000"><ele>189</ele><time>2016-09-30T12:19:51Z</time></trkpt>
<trkpt lat="53.0206190000" lon="-4.0414880000"><ele>189</ele><time>2016-09-30T12:19:52Z</time></trkpt>
<trkpt lat="53.0206180000" lon="-4.0414770000"><ele>189</ele><time>2016-09-30T12:19:53Z</time></trkpt>
<trkpt lat="53.0206160000" lon="-4.0414660000"><ele>189</ele><time>2016-09-30T12:19:54Z</time></trkpt>
<trkpt lat="53.0206140000" lon="-4.0414560000"><ele>189</ele><time>2016-09-30T12:19:55Z</time></trkpt>
<trkpt lat="53.0206130000" lon="-4.0414460000"><ele>189</ele><time>2016-09-30T12:19:56Z</time></trkpt>
<trkpt lat="53.0205780000" lon="-4.0412330000"><ele>189</ele><time>2016-09-30T12:19:58Z</time></trkpt>
<trkpt lat="53.0205720000" lon="-4.0411890000"><ele>189</ele><time>2016-09-30T12:20:00Z</time></trkpt>
<trkpt lat="53.0205660000" lon="-4.0411510000"><ele>189</ele><time>2016-09-30T12:20:02Z</time></trkpt>
<trkpt lat="53.0205530000" lon="-4.0410570000"><ele>188</ele><time>2016-09-30T12:20:07Z</time></trkpt>
<trkpt lat="53.0205500000" lon="-4.0410410000"><ele>188</ele><time>2016-09-30T12:20:08Z</time></trkpt>
<trkpt lat="53.0205500000" lon="-4.0410260000"><ele>188</ele><time>2016-09-30T12:20:09Z</time></trkpt>
<trkpt lat="53.0205480000" lon="-4.0410090000"><ele>188</ele><time>2016-09-30T12:20:10Z</time></trkpt>
<trkpt lat="53.0205480000" lon="-4.0410090000"><ele>188</ele><time>2016-09-30T12:20:11Z</time></trkpt>
<trkpt lat="53.0205480000" lon="-4.0410080000"><ele>188</ele><time>2016-09-30T12:20:12Z</time></trkpt>
<trkpt lat="53.0205480000" lon="-4.0410080000"><ele>188</ele><time>2016-09-30T12:20:13Z</time></trkpt>
<trkpt lat="53.0205480000" lon="-4.0410060000"><ele>188</ele><time>2016-09-30T12:20:14Z</time></trkpt>
<trkpt lat="53.0205480000" lon="-4.0410050000"><ele>188</ele><time>2016-09-30T12:20:15Z</time></trkpt>
<trkpt lat="53.0205480000" lon="-4.0410020000"><ele>188</ele><time>2016-09-30T12:20:16Z</time></trkpt>
<trkpt lat="53.0205420000" lon="-4.0408670000"><ele>188</ele><time>2016-09-30T12:20:17Z</time></trkpt>
<trkpt lat="53.0205390000" lon="-4.0408480000"><ele>188</ele><time>2016-09-30T12:20:18Z</time></trkpt>
<trkpt lat="53.0205360000" lon="-4.0408270000"><ele>188</ele><time>2016-09-30T12:20:19Z</time></trkpt>
<trkpt lat="53.0205310000" lon="-4.0408060000"><ele>188</ele><time>2016-09-30T12:20:20Z</time></trkpt>
<trkpt lat="53.0205270000" lon="-4.0407890000"><ele>188</ele><time>2016-09-30T12:20:21Z</time></trkpt>
<trkpt lat="53.0205220000" lon="-4.0407660000"><ele>188</ele><time>2016-09-30T12:20:22Z</time></trkpt>
<trkpt lat="53.0205180000" lon="-4.0407440000"><ele>188</ele><time>2016-09-30T12:20:23Z</time></trkpt>
<trkpt lat="53.0205160000" lon="-4.0407270000"><ele>188</ele><time>2016-09-30T12:20:24Z</time></trkpt>
<trkpt lat="53.0205150000" lon="-4.0407120000"><ele>188</ele><time>2016-09-30T12:20:25Z</time></trkpt>
<trkpt lat="53.0205150000" lon="-4.0406960000"><ele>188</ele><time>2016-09-30T12:20:26Z</time></trkpt>
<trkpt lat="53.0205150000" lon="-4.0406960000"><ele>188</ele><time>2016-09-30T12:20:28Z</time></trkpt>
<trkpt lat="53.0205150000" lon="-4.0406950000"><ele>188</ele><time>2016-09-30T12:20:29Z</time></trkpt>
<trkpt lat="53.0205150000" lon="-4.0406950000"><ele>188</ele><time>2016-09-30T12:20:30Z</time></trkpt>
<trkpt lat="53.0205150000" lon="-4.0406940000"><ele>188</ele><time>2016-09-30T12:20:31Z</time></trkpt>
<trkpt lat="53.0205150000" lon="-4.0406920000"><ele>188</ele><time>2016-09-30T12:20:32Z</time></trkpt>
<trkpt lat="53.0205140000" lon="-4.0406900000"><ele>188</ele><time>2016-09-30T12:20:33Z</time></trkpt>
<trkpt lat="53.0205140000" lon="-4.0406880000"><ele>188</ele><time>2016-09-30T12:20:34Z</time></trkpt>
<trkpt lat="53.0205130000" lon="-4.0406850000"><ele>188</ele><time>2016-09-30T12:20:35Z</time></trkpt>
<trkpt lat="53.0205130000" lon="-4.0406810000"><ele>188</ele><time>2016-09-30T12:20:36Z</time></trkpt>
<trkpt lat="53.0205120000" lon="-4.0406770000"><ele>188</ele><time>2016-09-30T12:20:37Z</time></trkpt>
<trkpt lat="53.0205110000" lon="-4.0406720000"><ele>188</ele><time>2016-09-30T12:20:38Z</time></trkpt>
<trkpt lat="53.0205100000" lon="-4.0406670000"><ele>187</ele><time>2016-09-30T12:20:39Z</time></trkpt>
<trkpt lat="53.0205090000" lon="-4.0406600000"><ele>187</ele><time>2016-09-30T12:20:40Z</time></trkpt>
<trkpt lat="53.0205070000" lon="-4.0406530000"><ele>187</ele><time>2016-09-30T12:20:41Z</time></trkpt>
<trkpt lat="53.0205060000" lon="-4.0406450000"><ele>187</ele><time>2016-09-30T12:20:42Z</time></trkpt>
<trkpt lat="53.0205040000" lon="-4.0406370000"><ele>187</ele><time>2016-09-30T12:20:43Z</time></trkpt>
<trkpt lat="53.0205020000" lon="-4.0406280000"><ele>186</ele><time>2016-09-30T12:20:44Z</time></trkpt>
<trkpt lat="53.0205000000" lon="-4.0406180000"><ele>186</ele><time>2016-09-30T12:20:45Z</time></trkpt>
<trkpt lat="53.0204980000" lon="-4.0406080000"><ele>186</ele><time>2016-09-30T12:20:46Z</time></trkpt>
<trkpt lat="53.0204960000" lon="-4.0405970000"><ele>186</ele><time>2016-09-30T12:20:47Z</time></trkpt>
<trkpt lat="53.0204940000" lon="-4.0405870000"><ele>186</ele><time>2016-09-30T12:20:48Z</time></trkpt>
<trkpt lat="53.0204930000" lon="-4.0405760000"><ele>186</ele><time>2016-09-30T12:20:49Z</time></trkpt>
<trkpt lat="53.0204930000" lon="-4.0405650000"><ele>185</ele><time>2016-09-30T12:20:50Z</time></trkpt>
<trkpt lat="53.0204930000" lon="-4.0405540000"><ele>185</ele><time>2016-09-30T12:20:51Z</time></trkpt>
<trkpt lat="53.0204940000" lon="-4.0405430000"><ele>185</ele><time>2016-09-30T12:20:52Z</time></trkpt>
<trkpt lat="53.0204950000" lon="-4.0405320000"><ele>185</ele><time>2016-09-30T12:20:53Z</time></trkpt>
<trkpt lat="53.0204960000" lon="-4.0405210000"><ele>185</ele><time>2016-09-30T12:20:54Z</time></trkpt>
<trkpt lat="53.0204970000" lon="-4.0405110000"><ele>185</ele><time>2016-09-30T12:20:55Z</time></trkpt>
<trkpt lat="53.0204990000" lon="-4.0405020000"><ele>185</ele><time>2016-09-30T12:20:56Z</time></trkpt>
<trkpt lat="53.0205000000" lon="-4.0404920000"><ele>184</ele><time>2016-09-30T12:20:57Z</time></trkpt>
<trkpt lat="53.0205020000" lon="-4.0404830000"><ele>184</ele><time>2016-09-30T12:20:58Z</time></trkpt>
<trkpt lat="53.0205040000" lon="-4.0404730000"><ele>184</ele><time>2016-09-30T12:20:59Z</time></trkpt>
<trkpt lat="53.0205070000" lon="-4.0404630000"><ele>184</ele><time>2016-09-30T12:21:00Z</time></trkpt>
<trkpt lat="53.0205090000" lon="-4.0404530000"><ele>184</ele><time>2016-09-30T12:21:01Z</time></trkpt>
<trkpt lat="53.0205120000" lon="-4.0404440000"><ele>183</ele><time>2016-09-30T12:21:02Z</time></trkpt>
<trkpt lat="53.0205160000" lon="-4.0404330000"><ele>183</ele><time>2016-09-30T12:21:03Z</time></trkpt>
<trkpt lat="53.0205190000" lon="-4.0404230000"><ele>183</ele><time>2016-09-30T12:21:04Z</time></trkpt>
<trkpt lat="53.0205220000" lon="-4.0404120000"><ele>182</ele><time>2016-09-30T12:21:05Z</time></trkpt>
<trkpt lat="53.0205260000" lon="-4.0404010000"><ele>182</ele><time>2016-09-30T12:21:06Z</time></trkpt>
<trkpt lat="53.0205300000" lon="-4.0403900000"><ele>182</ele><time>2016-09-30T12:21:07Z</time></trkpt>
<trkpt lat="53.0205340000" lon="-4.0403780000"><ele>182</ele><time>2016-09-30T12:21:08Z</time></trkpt>
<trkpt lat="53.0205380000" lon="-4.0403660000"><ele>181</ele><time>2016-09-30T12:21:09Z</time></trkpt>
<trkpt lat="53.0205420000" lon="-4.0403530000"><ele>181</ele><time>2016-09-30T12:21:10Z</time></trkpt>
<trkpt lat="53.0205460000" lon="-4.0403410000"><ele>181</ele><time>2016-09-30T12:21:11Z</time></trkpt>
<trkpt lat="53.0205500000" lon="-4.0403280000"><ele>181</ele><time>2016-09-30T12:21:12Z</time></trkpt>
<trkpt lat="53.0205540000" lon="-4.0403150000"><ele>181</ele><time>2016-09-30T12:21:13Z</time></trkpt>
<trkpt lat="53.0205580000" lon="-4.0403020000"><ele>180</ele><time>2016-09-30T12:21:14Z</time></trkpt>
<trkpt lat="53.0205630000" lon="-4.0402890000"><ele>180</ele><time>2016-09-30T12:21:15Z</time></trkpt>
<trkpt lat="53.0205680000" lon="-4.0402760000"><ele>180</ele><time>2016-09-30T12:21:16Z</time></trkpt>
<trkpt lat="53.0205730000" lon="-4.0402630000"><ele>180</ele><time>2016-09-30T12:21:17Z</time></trkpt>
<trkpt lat="53.0205780000" lon="-4.0402500000"><ele>180</ele><time>2016-09-30T12:21:18Z</time></trkpt>
<trkpt lat="53.0205830000" lon="-4.0402360000"><ele>180</ele><time>2016-09-30T12:21:19Z</time></trkpt>
<trkpt lat="53.0206760000" lon="-4.0399930000"><ele>180</ele><time>2016-09-30T12:21:20Z</time></trkpt>
<trkpt lat="53.0206830000" lon="-4.0399810000"><ele>180</ele><time>2016-09-30T12:21:21Z</time></trkpt>
<trkpt lat="53.0206880000" lon="-4.0399680000"><ele>180</ele><time>2016-09-30T12:21:22Z</time></trkpt>
<trkpt lat="53.0206970000" lon="-4.0399560000"><ele>179</ele><time>2016-09-30T12:21:23Z</time></trkpt>
<trkpt lat="53.0207070000" lon="-4.0399410000"><ele>179</ele><time>2016-09-30T12:21:24Z</time></trkpt>
<trkpt lat="53.0207160000" lon="-4.0399280000"><ele>179</ele><time>2016-09-30T12:21:25Z</time></trkpt>
<trkpt lat="53.0207240000" lon="-4.0399170000"><ele>179</ele><time>2016-09-30T12:21:26Z</time></trkpt>
<trkpt lat="53.0207320000" lon="-4.0399050000"><ele>179</ele><time>2016-09-30T12:21:27Z</time></trkpt>
<trkpt lat="53.0207390000" lon="-4.0398880000"><ele>179</ele><time>2016-09-30T12:21:28Z</time></trkpt>
<trkpt lat="53.0207470000" lon="-4.0398710000"><ele>178</ele><time>2016-09-30T12:21:30Z</time></trkpt>
<trkpt lat="53.0207470000" lon="-4.0398710000"><ele>178</ele><time>2016-09-30T12:21:31Z</time></trkpt>
<trkpt lat="53.0207480000" lon="-4.0398700000"><ele>178</ele><time>2016-09-30T12:21:32Z</time></trkpt>
<trkpt lat="53.0207480000" lon="-4.0398690000"><ele>178</ele><time>2016-09-30T12:21:33Z</time></trkpt>
<trkpt lat="53.0207490000" lon="-4.0398680000"><ele>178</ele><time>2016-09-30T12:21:34Z</time></trkpt>
<trkpt lat="53.0207490000" lon="-4.0398660000"><ele>178</ele><time>2016-09-30T12:21:35Z</time></trkpt>
<trkpt lat="53.0207500000" lon="-4.0398630000"><ele>178</ele><time>2016-09-30T12:21:36Z</time></trkpt>
<trkpt lat="53.0207520000" lon="-4.0398590000"><ele>178</ele><time>2016-09-30T12:21:37Z</time></trkpt>
<trkpt lat="53.0207530000" lon="-4.0398550000"><ele>177</ele><time>2016-09-30T12:21:38Z</time></trkpt>
<trkpt lat="53.0207550000" lon="-4.0398510000"><ele>177</ele><time>2016-09-30T12:21:39Z</time></trkpt>
<trkpt lat="53.0207570000" lon="-4.0398450000"><ele>177</ele><time>2016-09-30T12:21:40Z</time></trkpt>
<trkpt lat="53.0207590000" lon="-4.0398390000"><ele>177</ele><time>2016-09-30T12:21:41Z</time></trkpt>
<trkpt lat="53.0207620000" lon="-4.0398320000"><ele>177</ele><time>2016-09-30T12:21:42Z</time></trkpt>
<trkpt lat="53.0207640000" lon="-4.0398240000"><ele>177</ele><time>2016-09-30T12:21:43Z</time></trkpt>
<trkpt lat="53.0207660000" lon="-4.0398160000"><ele>177</ele><time>2016-09-30T12:21:44Z</time></trkpt>
<trkpt lat="53.0207690000" lon="-4.0398070000"><ele>177</ele><time>2016-09-30T12:21:45Z</time></trkpt>
<trkpt lat="53.0207710000" lon="-4.0397980000"><ele>176</ele><time>2016-09-30T12:21:46Z</time></trkpt>
<trkpt lat="53.0207740000" lon="-4.0397890000"><ele>176</ele><time>2016-09-30T12:21:47Z</time></trkpt>
<trkpt lat="53.0207770000" lon="-4.0397800000"><ele>176</ele><time>2016-09-30T12:21:48Z</time></trkpt>
<trkpt lat="53.0207800000" lon="-4.0397710000"><ele>176</ele><time>2016-09-30T12:21:49Z</time></trkpt>
<trkpt lat="53.0207830000" lon="-4.0397620000"><ele>176</ele><time>2016-09-30T12:21:50Z</time></trkpt>
<trkpt lat="53.0207860000" lon="-4.0397540000"><ele>176</ele><time>2016-09-30T12:21:51Z</time></trkpt>
<trkpt lat="53.0207880000" lon="-4.0397460000"><ele>176</ele><time>2016-09-30T12:21:52Z</time></trkpt>
<trkpt lat="53.0207900000" lon="-4.0397390000"><ele>176</ele><time>2016-09-30T12:21:53Z</time></trkpt>
<trkpt lat="53.0207910000" lon="-4.0397310000"><ele>176</ele><time>2016-09-30T12:21:54Z</time></trkpt>
<trkpt lat="53.0207910000" lon="-4.0397250000"><ele>176</ele><time>2016-09-30T12:21:55Z</time></trkpt>
<trkpt lat="53.0207910000" lon="-4.0397180000"><ele>176</ele><time>2016-09-30T12:21:56Z</time></trkpt>
<trkpt lat="53.0207910000" lon="-4.0397110000"><ele>176</ele><time>2016-09-30T12:21:57Z</time></trkpt>
<trkpt lat="53.0207910000" lon="-4.0397040000"><ele>176</ele><time>2016-09-30T12:21:58Z</time></trkpt>
<trkpt lat="53.0207900000" lon="-4.0396970000"><ele>176</ele><time>2016-09-30T12:21:59Z</time></trkpt>
<trkpt lat="53.0207900000" lon="-4.0396900000"><ele>176</ele><time>2016-09-30T12:22:00Z</time></trkpt>
<trkpt lat="53.0207900000" lon="-4.0396830000"><ele>176</ele><time>2016-09-30T12:22:01Z</time></trkpt>
<trkpt lat="53.0207900000" lon="-4.0396750000"><ele>176</ele><time>2016-09-30T12:22:02Z</time></trkpt>
<trkpt lat="53.0207910000" lon="-4.0396670000"><ele>176</ele><time>2016-09-30T12:22:03Z</time></trkpt>
<trkpt lat="53.0207920000" lon="-4.0396600000"><ele>176</ele><time>2016-09-30T12:22:04Z</time></trkpt>
<trkpt lat="53.0207930000" lon="-4.0396520000"><ele>176</ele><time>2016-09-30T12:22:05Z</time></trkpt>
<trkpt lat="53.0207950000" lon="-4.0396440000"><ele>176</ele><time>2016-09-30T12:22:06Z</time></trkpt>
<trkpt lat="53.0207960000" lon="-4.0396370000"><ele>176</ele><time>2016-09-30T12:22:07Z</time></trkpt>
<trkpt lat="53.0207980000" lon="-4.0396310000"><ele>176</ele><time>2016-09-30T12:22:08Z</time></trkpt>
<trkpt lat="53.0207990000" lon="-4.0396240000"><ele>176</ele><time>2016-09-30T12:22:09Z</time></trkpt>
<trkpt lat="53.0208000000" lon="-4.0396190000"><ele>176</ele><time>2016-09-30T12:22:10Z</time></trkpt>
<trkpt lat="53.0208020000" lon="-4.0396130000"><ele>176</ele><time>2016-09-30T12:22:11Z</time></trkpt>
<trkpt lat="53.0208030000" lon="-4.0396070000"><ele>176</ele><time>2016-09-30T12:22:12Z</time></trkpt>
<trkpt lat="53.0208050000" lon="-4.0396010000"><ele>176</ele><time>2016-09-30T12:22:13Z</time></trkpt>
<trkpt lat="53.0208060000" lon="-4.0395950000"><ele>176</ele><time>2016-09-30T12:22:14Z</time></trkpt>
<trkpt lat="53.0208090000" lon="-4.0395890000"><ele>176</ele><time>2016-09-30T12:22:15Z</time></trkpt>
<trkpt lat="53.0208110000" lon="-4.0395820000"><ele>176</ele><time>2016-09-30T12:22:16Z</time></trkpt>
<trkpt lat="53.0208140000" lon="-4.0395760000"><ele>176</ele><time>2016-09-30T12:22:17Z</time></trkpt>
<trkpt lat="53.0208170000" lon="-4.0395690000"><ele>176</ele><time>2016-09-30T12:22:18Z</time></trkpt>
<trkpt lat="53.0208200000" lon="-4.0395630000"><ele>176</ele><time>2016-09-30T12:22:19Z</time></trkpt>
<trkpt lat="53.0209170000" lon="-4.0394010000"><ele>176</ele><time>2016-09-30T12:22:22Z</time></trkpt>
<trkpt lat="53.0209330000" lon="-4.0393770000"><ele>176</ele><time>2016-09-30T12:22:24Z</time></trkpt>
<trkpt lat="53.0209450000" lon="-4.0393390000"><ele>176</ele><time>2016-09-30T12:22:26Z</time></trkpt>
<trkpt lat="53.0209550000" lon="-4.0393080000"><ele>176</ele><time>2016-09-30T12:22:34Z</time></trkpt>
<trkpt lat="53.0209570000" lon="-4.0393040000"><ele>176</ele><time>2016-09-30T12:22:36Z</time></trkpt>
<trkpt lat="53.0209570000" lon="-4.0393010000"><ele>176</ele><time>2016-09-30T12:22:37Z</time></trkpt>
<trkpt lat="53.0209590000" lon="-4.0392980000"><ele>176</ele><time>2016-09-30T12:22:38Z</time></trkpt>
<trkpt lat="53.0209600000" lon="-4.0392930000"><ele>176</ele><time>2016-09-30T12:22:39Z</time></trkpt>
<trkpt lat="53.0209610000" lon="-4.0392880000"><ele>176</ele><time>2016-09-30T12:22:40Z</time></trkpt>
<trkpt lat="53.0209630000" lon="-4.0392830000"><ele>176</ele><time>2016-09-30T12:22:41Z</time></trkpt>
<trkpt lat="53.0209650000" lon="-4.0392770000"><ele>176</ele><time>2016-09-30T12:22:42Z</time></trkpt>
<trkpt lat="53.0210190000" lon="-4.0390880000"><ele>176</ele><time>2016-09-30T12:22:43Z</time></trkpt>
<trkpt lat="53.0210240000" lon="-4.0390760000"><ele>175</ele><time>2016-09-30T12:22:44Z</time></trkpt>
<trkpt lat="53.0210310000" lon="-4.0390590000"><ele>175</ele><time>2016-09-30T12:22:45Z</time></trkpt>
<trkpt lat="53.0210310000" lon="-4.0390580000"><ele>175</ele><time>2016-09-30T12:22:46Z</time></trkpt>
<trkpt lat="53.0210310000" lon="-4.0390580000"><ele>175</ele><time>2016-09-30T12:22:47Z</time></trkpt>
<trkpt lat="53.0210310000" lon="-4.0390580000"><ele>175</ele><time>2016-09-30T12:22:48Z</time></trkpt>
<trkpt lat="53.0210310000" lon="-4.0390570000"><ele>175</ele><time>2016-09-30T12:22:49Z</time></trkpt>
<trkpt lat="53.0210320000" lon="-4.0390560000"><ele>175</ele><time>2016-09-30T12:22:50Z</time></trkpt>
<trkpt lat="53.0210330000" lon="-4.0390560000"><ele>175</ele><time>2016-09-30T12:22:51Z</time></trkpt>
<trkpt lat="53.0210340000" lon="-4.0390540000"><ele>175</ele><time>2016-09-30T12:22:52Z</time></trkpt>
<trkpt lat="53.0210350000" lon="-4.0390530000"><ele>175</ele><time>2016-09-30T12:22:53Z</time></trkpt>
<trkpt lat="53.0211160000" lon="-4.0389690000"><ele>175</ele><time>2016-09-30T12:22:54Z</time></trkpt>
<trkpt lat="53.0211210000" lon="-4.0389570000"><ele>175</ele><time>2016-09-30T12:22:55Z</time></trkpt>
<trkpt lat="53.0211250000" lon="-4.0389440000"><ele>175</ele><time>2016-09-30T12:22:56Z</time></trkpt>
<trkpt lat="53.0211250000" lon="-4.0389440000"><ele>175</ele><time>2016-09-30T12:22:57Z</time></trkpt>
<trkpt lat="53.0211250000" lon="-4.0389440000"><ele>175</ele><time>2016-09-30T12:22:58Z</time></trkpt>
<trkpt lat="53.0211250000" lon="-4.0389430000"><ele>175</ele><time>2016-09-30T12:22:59Z</time></trkpt>
<trkpt lat="53.0211250000" lon="-4.0389430000"><ele>175</ele><time>2016-09-30T12:23:00Z</time></trkpt>
<trkpt lat="53.0211250000" lon="-4.0389420000"><ele>175</ele><time>2016-09-30T12:23:01Z</time></trkpt>
<trkpt lat="53.0211250000" lon="-4.0389400000"><ele>175</ele><time>2016-09-30T12:23:02Z</time></trkpt>
<trkpt lat="53.0211250000" lon="-4.0389390000"><ele>175</ele><time>2016-09-30T12:23:03Z</time></trkpt>
<trkpt lat="53.0211250000" lon="-4.0389370000"><ele>175</ele><time>2016-09-30T12:23:04Z</time></trkpt>
<trkpt lat="53.0211250000" lon="-4.0389350000"><ele>175</ele><time>2016-09-30T12:23:05Z</time></trkpt>
<trkpt lat="53.0211390000" lon="-4.0388340000"><ele>175</ele><time>2016-09-30T12:23:06Z</time></trkpt>
<trkpt lat="53.0211430000" lon="-4.0388230000"><ele>175</ele><time>2016-09-30T12:23:07Z</time></trkpt>
<trkpt lat="53.0211470000" lon="-4.0388040000"><ele>175</ele><time>2016-09-30T12:23:08Z</time></trkpt>
<trkpt lat="53.0211520000" lon="-4.0387870000"><ele>175</ele><time>2016-09-30T12:23:09Z</time></trkpt>
<trkpt lat="53.0211560000" lon="-4.0387740000"><ele>175</ele><time>2016-09-30T12:23:10Z</time></trkpt>
<trkpt lat="53.0211560000" lon="-4.0387740000"><ele>176</ele><time>2016-09-30T12:23:11Z</time></trkpt>
<trkpt lat="53.0211560000" lon="-4.0387730000"><ele>176</ele><time>2016-09-30T12:23:12Z</time></trkpt>
<trkpt lat="53.0211560000" lon="-4.0387730000"><ele>176</ele><time>2016-09-30T12:23:13Z</time></trkpt>
<trkpt lat="53.0211570000" lon="-4.0387720000"><ele>176</ele><time>2016-09-30T12:23:14Z</time></trkpt>
<trkpt lat="53.0211570000" lon="-4.0387700000"><ele>176</ele><time>2016-09-30T12:23:15Z</time></trkpt>
<trkpt lat="53.0211570000" lon="-4.0387690000"><ele>176</ele><time>2016-09-30T12:23:16Z</time></trkpt>
<trkpt lat="53.0211720000" lon="-4.0386620000"><ele>176</ele><time>2016-09-30T12:23:17Z</time></trkpt>
<trkpt lat="53.0211790000" lon="-4.0386500000"><ele>176</ele><time>2016-09-30T12:23:18Z</time></trkpt>
<trkpt lat="53.0211860000" lon="-4.0386370000"><ele>176</ele><time>2016-09-30T12:23:19Z</time></trkpt>
<trkpt lat="53.0211890000" lon="-4.0386230000"><ele>176</ele><time>2016-09-30T12:23:20Z</time></trkpt>
<trkpt lat="53.0211830000" lon="-4.0386030000"><ele>176</ele><time>2016-09-30T12:23:21Z</time></trkpt>
<trkpt lat="53.0211740000" lon="-4.0385830000"><ele>176</ele><time>2016-09-30T12:23:22Z</time></trkpt>
<trkpt lat="53.0211690000" lon="-4.0385680000"><ele>176</ele><time>2016-09-30T12:23:23Z</time></trkpt>
<trkpt lat="53.0211670000" lon="-4.0385520000"><ele>176</ele><time>2016-09-30T12:23:24Z</time></trkpt>
<trkpt lat="53.0211670000" lon="-4.0385520000"><ele>176</ele><time>2016-09-30T12:23:25Z</time></trkpt>
<trkpt lat="53.0211670000" lon="-4.0385520000"><ele>176</ele><time>2016-09-30T12:23:26Z</time></trkpt>
<trkpt lat="53.0211670000" lon="-4.0385510000"><ele>176</ele><time>2016-09-30T12:23:27Z</time></trkpt>
<trkpt lat="53.0211670000" lon="-4.0385510000"><ele>176</ele><time>2016-09-30T12:23:28Z</time></trkpt>
<trkpt lat="53.0211670000" lon="-4.0385500000"><ele>176</ele><time>2016-09-30T12:23:29Z</time></trkpt>
<trkpt lat="53.0211680000" lon="-4.0385480000"><ele>176</ele><time>2016-09-30T12:23:30Z</time></trkpt>
<trkpt lat="53.0211680000" lon="-4.0385460000"><ele>176</ele><time>2016-09-30T12:23:31Z</time></trkpt>
<trkpt lat="53.0211690000" lon="-4.0385440000"><ele>176</ele><time>2016-09-30T12:23:32Z</time></trkpt>
<trkpt lat="53.0211690000" lon="-4.0385410000"><ele>176</ele><time>2016-09-30T12:23:33Z</time></trkpt>
<trkpt lat="53.0211700000" lon="-4.0385370000"><ele>176</ele><time>2016-09-30T12:23:34Z</time></trkpt>
<trkpt lat="53.0211700000" lon="-4.0385330000"><ele>176</ele><time>2016-09-30T12:23:35Z</time></trkpt>
<trkpt lat="53.0211710000" lon="-4.0385280000"><ele>176</ele><time>2016-09-30T12:23:36Z</time></trkpt>
<trkpt lat="53.0211710000" lon="-4.0385220000"><ele>176</ele><time>2016-09-30T12:23:37Z</time></trkpt>
<trkpt lat="53.0211710000" lon="-4.0385170000"><ele>176</ele><time>2016-09-30T12:23:38Z</time></trkpt>
<trkpt lat="53.0211700000" lon="-4.0385100000"><ele>176</ele><time>2016-09-30T12:23:39Z</time></trkpt>
<trkpt lat="53.0211700000" lon="-4.0385040000"><ele>176</ele><time>2016-09-30T12:23:40Z</time></trkpt>
<trkpt lat="53.0211690000" lon="-4.0384970000"><ele>177</ele><time>2016-09-30T12:23:41Z</time></trkpt>
<trkpt lat="53.0211680000" lon="-4.0384890000"><ele>177</ele><time>2016-09-30T12:23:42Z</time></trkpt>
<trkpt lat="53.0211660000" lon="-4.0384820000"><ele>177</ele><time>2016-09-30T12:23:43Z</time></trkpt>
<trkpt lat="53.0211650000" lon="-4.0384740000"><ele>177</ele><time>2016-09-30T12:23:44Z</time></trkpt>
<trkpt lat="53.0211640000" lon="-4.0384660000"><ele>177</ele><time>2016-09-30T12:23:45Z</time></trkpt>
<trkpt lat="53.0211630000" lon="-4.0384570000"><ele>177</ele><time>2016-09-30T12:23:46Z</time></trkpt>
<trkpt lat="53.0211620000" lon="-4.0384480000"><ele>177</ele><time>2016-09-30T12:23:47Z</time></trkpt>
<trkpt lat="53.0211380000" lon="-4.0382450000"><ele>177</ele><time>2016-09-30T12:23:48Z</time></trkpt>
<trkpt lat="53.0211370000" lon="-4.0382270000"><ele>177</ele><time>2016-09-30T12:23:49Z</time></trkpt>
<trkpt lat="53.0211330000" lon="-4.0382090000"><ele>177</ele><time>2016-09-30T12:23:50Z</time></trkpt>
<trkpt lat="53.0211330000" lon="-4.0382090000"><ele>177</ele><time>2016-09-30T12:23:51Z</time></trkpt>
<trkpt lat="53.0211330000" lon="-4.0382090000"><ele>177</ele><time>2016-09-30T12:23:52Z</time></trkpt>
<trkpt lat="53.0211330000" lon="-4.0382080000"><ele>178</ele><time>2016-09-30T12:23:53Z</time></trkpt>
<trkpt lat="53.0211330000" lon="-4.0382070000"><ele>178</ele><time>2016-09-30T12:23:54Z</time></trkpt>
<trkpt lat="53.0211330000" lon="-4.0382060000"><ele>178</ele><time>2016-09-30T12:23:55Z</time></trkpt>
<trkpt lat="53.0211330000" lon="-4.0382040000"><ele>178</ele><time>2016-09-30T12:23:56Z</time></trkpt>
<trkpt lat="53.0211320000" lon="-4.0382020000"><ele>178</ele><time>2016-09-30T12:23:57Z</time></trkpt>
<trkpt lat="53.0211320000" lon="-4.0381990000"><ele>178</ele><time>2016-09-30T12:23:58Z</time></trkpt>
<trkpt lat="53.0211310000" lon="-4.0381950000"><ele>178</ele><time>2016-09-30T12:23:59Z</time></trkpt>
<trkpt lat="53.0211300000" lon="-4.0381910000"><ele>178</ele><time>2016-09-30T12:24:00Z</time></trkpt>
<trkpt lat="53.0211300000" lon="-4.0381860000"><ele>178</ele><time>2016-09-30T12:24:01Z</time></trkpt>
<trkpt lat="53.0211290000" lon="-4.0381810000"><ele>178</ele><time>2016-09-30T12:24:02Z</time></trkpt>
<trkpt lat="53.0211280000" lon="-4.0381760000"><ele>178</ele><time>2016-09-30T12:24:03Z</time></trkpt>
<trkpt lat="53.0211270000" lon="-4.0381700000"><ele>179</ele><time>2016-09-30T12:24:04Z</time></trkpt>
<trkpt lat="53.0211020000" lon="-4.0379610000"><ele>179</ele><time>2016-09-30T12:24:05Z</time></trkpt>
<trkpt lat="53.0211010000" lon="-4.0379430000"><ele>179</ele><time>2016-09-30T12:24:06Z</time></trkpt>
<trkpt lat="53.0210990000" lon="-4.0379240000"><ele>179</ele><time>2016-09-30T12:24:07Z</time></trkpt>
<trkpt lat="53.0210990000" lon="-4.0379240000"><ele>179</ele><time>2016-09-30T12:24:08Z</time></trkpt>
<trkpt lat="53.0210990000" lon="-4.0379240000"><ele>179</ele><time>2016-09-30T12:24:09Z</time></trkpt>
<trkpt lat="53.0210990000" lon="-4.0379230000"><ele>179</ele><time>2016-09-30T12:24:10Z</time></trkpt>
<trkpt lat="53.0210990000" lon="-4.0379220000"><ele>180</ele><time>2016-09-30T12:24:11Z</time></trkpt>
<trkpt lat="53.0210990000" lon="-4.0379210000"><ele>180</ele><time>2016-09-30T12:24:12Z</time></trkpt>
<trkpt lat="53.0210990000" lon="-4.0379190000"><ele>180</ele><time>2016-09-30T12:24:13Z</time></trkpt>
<trkpt lat="53.0210990000" lon="-4.0379170000"><ele>180</ele><time>2016-09-30T12:24:14Z</time></trkpt>
<trkpt lat="53.0210990000" lon="-4.0379150000"><ele>180</ele><time>2016-09-30T12:24:15Z</time></trkpt>
<trkpt lat="53.0211000000" lon="-4.0379110000"><ele>180</ele><time>2016-09-30T12:24:16Z</time></trkpt>
<trkpt lat="53.0211000000" lon="-4.0379070000"><ele>180</ele><time>2016-09-30T12:24:17Z</time></trkpt>
<trkpt lat="53.0211000000" lon="-4.0379030000"><ele>180</ele><time>2016-09-30T12:24:18Z</time></trkpt>
<trkpt lat="53.0211000000" lon="-4.0378980000"><ele>180</ele><time>2016-09-30T12:24:19Z</time></trkpt>
<trkpt lat="53.0211000000" lon="-4.0378920000"><ele>180</ele><time>2016-09-30T12:24:20Z</time></trkpt>
<trkpt lat="53.0211000000" lon="-4.0378850000"><ele>180</ele><time>2016-09-30T12:24:21Z</time></trkpt>
<trkpt lat="53.0211000000" lon="-4.0378780000"><ele>180</ele><time>2016-09-30T12:24:22Z</time></trkpt>
<trkpt lat="53.0211000000" lon="-4.0378700000"><ele>180</ele><time>2016-09-30T12:24:23Z</time></trkpt>
<trkpt lat="53.0210990000" lon="-4.0378620000"><ele>180</ele><time>2016-09-30T12:24:24Z</time></trkpt>
<trkpt lat="53.0210980000" lon="-4.0378530000"><ele>180</ele><time>2016-09-30T12:24:25Z</time></trkpt>
<trkpt lat="53.0210630000" lon="-4.0376400000"><ele>181</ele><time>2016-09-30T12:24:26Z</time></trkpt>
<trkpt lat="53.0210530000" lon="-4.0376330000"><ele>181</ele><time>2016-09-30T12:24:27Z</time></trkpt>
<trkpt lat="53.0210450000" lon="-4.0376250000"><ele>181</ele><time>2016-09-30T12:24:28Z</time></trkpt>
<trkpt lat="53.0210400000" lon="-4.0376250000"><ele>181</ele><time>2016-09-30T12:24:29Z</time></trkpt>
<trkpt lat="53.0210400000" lon="-4.0376250000"><ele>181</ele><time>2016-09-30T12:24:32Z</time></trkpt>
<trkpt lat="53.0210390000" lon="-4.0376250000"><ele>182</ele><time>2016-09-30T12:24:33Z</time></trkpt>
<trkpt lat="53.0210390000" lon="-4.0376240000"><ele>182</ele><time>2016-09-30T12:24:34Z</time></trkpt>
<trkpt lat="53.0210380000" lon="-4.0376240000"><ele>182</ele><time>2016-09-30T12:24:35Z</time></trkpt>
<trkpt lat="53.0210370000" lon="-4.0376240000"><ele>182</ele><time>2016-09-30T12:24:36Z</time></trkpt>
<trkpt lat="53.0210360000" lon="-4.0376240000"><ele>182</ele><time>2016-09-30T12:24:37Z</time></trkpt>
<trkpt lat="53.0210350000" lon="-4.0376230000"><ele>182</ele><time>2016-09-30T12:24:38Z</time></trkpt>
<trkpt lat="53.0210340000" lon="-4.0376230000"><ele>182</ele><time>2016-09-30T12:24:39Z</time></trkpt>
<trkpt lat="53.0210330000" lon="-4.0376220000"><ele>183</ele><time>2016-09-30T12:24:40Z</time></trkpt>
<trkpt lat="53.0210270000" lon="-4.0376200000"><ele>183</ele><time>2016-09-30T12:24:44Z</time></trkpt>
<trkpt lat="53.0210250000" lon="-4.0376200000"><ele>183</ele><time>2016-09-30T12:24:45Z</time></trkpt>
<trkpt lat="53.0210240000" lon="-4.0376190000"><ele>183</ele><time>2016-09-30T12:24:46Z</time></trkpt>
<trkpt lat="53.0210220000" lon="-4.0376180000"><ele>183</ele><time>2016-09-30T12:24:47Z</time></trkpt>
<trkpt lat="53.0210210000" lon="-4.0376180000"><ele>183</ele><time>2016-09-30T12:24:48Z</time></trkpt>
<trkpt lat="53.0210150000" lon="-4.0376150000"><ele>184</ele><time>2016-09-30T12:24:52Z</time></trkpt>
<trkpt lat="53.0210140000" lon="-4.0376150000"><ele>184</ele><time>2016-09-30T12:24:53Z</time></trkpt>
<trkpt lat="53.0210120000" lon="-4.0376140000"><ele>184</ele><time>2016-09-30T12:24:54Z</time></trkpt>
<trkpt lat="53.0210110000" lon="-4.0376130000"><ele>184</ele><time>2016-09-30T12:24:55Z</time></trkpt>
<trkpt lat="53.0210100000" lon="-4.0376130000"><ele>184</ele><time>2016-09-30T12:24:56Z</time></trkpt>
<trkpt lat="53.0210090000" lon="-4.0376130000"><ele>184</ele><time>2016-09-30T12:24:57Z</time></trkpt>
<trkpt lat="53.0210050000" lon="-4.0376110000"><ele>185</ele><time>2016-09-30T12:25:01Z</time></trkpt>
<trkpt lat="53.0210050000" lon="-4.0376110000"><ele>185</ele><time>2016-09-30T12:25:02Z</time></trkpt>
<trkpt lat="53.0210040000" lon="-4.0376100000"><ele>185</ele><time>2016-09-30T12:25:03Z</time></trkpt>
<trkpt lat="53.0210040000" lon="-4.0376100000"><ele>185</ele><time>2016-09-30T12:25:04Z</time></trkpt>
<trkpt lat="53.0210030000" lon="-4.0376090000"><ele>185</ele><time>2016-09-30T12:25:05Z</time></trkpt>
<trkpt lat="53.0210030000" lon="-4.0376080000"><ele>185</ele><time>2016-09-30T12:25:06Z</time></trkpt>
<trkpt lat="53.0210020000" lon="-4.0376080000"><ele>185</ele><time>2016-09-30T12:25:07Z</time></trkpt>
<trkpt lat="53.0210020000" lon="-4.0376070000"><ele>185</ele><time>2016-09-30T12:25:08Z</time></trkpt>
<trkpt lat="53.0210020000" lon="-4.0376060000"><ele>185</ele><time>2016-09-30T12:25:09Z</time></trkpt>
<trkpt lat="53.0210020000" lon="-4.0376050000"><ele>184</ele><time>2016-09-30T12:25:10Z</time></trkpt>
<trkpt lat="53.0210020000" lon="-4.0376030000"><ele>184</ele><time>2016-09-30T12:25:11Z</time></trkpt>
<trkpt lat="53.0210030000" lon="-4.0376020000"><ele>184</ele><time>2016-09-30T12:25:12Z</time></trkpt>
<trkpt lat="53.0210030000" lon="-4.0376000000"><ele>184</ele><time>2016-09-30T12:25:13Z</time></trkpt>
<trkpt lat="53.0210040000" lon="-4.0375980000"><ele>184</ele><time>2016-09-30T12:25:14Z</time></trkpt>
<trkpt lat="53.0210040000" lon="-4.0375970000"><ele>184</ele><time>2016-09-30T12:25:15Z</time></trkpt>
<trkpt lat="53.0210050000" lon="-4.0375960000"><ele>184</ele><time>2016-09-30T12:25:16Z</time></trkpt>
<trkpt lat="53.0210050000" lon="-4.0375950000"><ele>184</ele><time>2016-09-30T12:25:17Z</time></trkpt>
<trkpt lat="53.0210050000" lon="-4.0375930000"><ele>184</ele><time>2016-09-30T12:25:18Z</time></trkpt>
<trkpt lat="53.0210050000" lon="-4.0375920000"><ele>184</ele><time>2016-09-30T12:25:19Z</time></trkpt>
<trkpt lat="53.0210050000" lon="-4.0375920000"><ele>184</ele><time>2016-09-30T12:25:20Z</time></trkpt>
<trkpt lat="53.0210050000" lon="-4.0375910000"><ele>184</ele><time>2016-09-30T12:25:21Z</time></trkpt>
<trkpt lat="53.0210050000" lon="-4.0375910000"><ele>184</ele><time>2016-09-30T12:25:22Z</time></trkpt>
<trkpt lat="53.0210050000" lon="-4.0375900000"><ele>183</ele><time>2016-09-30T12:25:23Z</time></trkpt>
<trkpt lat="53.0210040000" lon="-4.0375900000"><ele>183</ele><time>2016-09-30T12:25:24Z</time></trkpt>
<trkpt lat="53.0210030000" lon="-4.0375890000"><ele>183</ele><time>2016-09-30T12:25:25Z</time></trkpt>
<trkpt lat="53.0209770000" lon="-4.0375550000"><ele>183</ele><time>2016-09-30T12:25:26Z</time></trkpt>
<trkpt lat="53.0209720000" lon="-4.0375390000"><ele>183</ele><time>2016-09-30T12:25:27Z</time></trkpt>
<trkpt lat="53.0209670000" lon="-4.0375190000"><ele>183</ele><time>2016-09-30T12:25:28Z</time></trkpt>
<trkpt lat="53.0209640000" lon="-4.0375020000"><ele>183</ele><time>2016-09-30T12:25:29Z</time></trkpt>
<trkpt lat="53.0209610000" lon="-4.0374840000"><ele>183</ele><time>2016-09-30T12:25:30Z</time></trkpt>
<trkpt lat="53.0209610000" lon="-4.0374840000"><ele>183</ele><time>2016-09-30T12:25:31Z</time></trkpt>
<trkpt lat="53.0209530000" lon="-4.0374400000"><ele>183</ele><time>2016-09-30T12:25:32Z</time></trkpt>
<trkpt lat="53.0209500000" lon="-4.0374180000"><ele>182</ele><time>2016-09-30T12:25:33Z</time></trkpt>
<trkpt lat="53.0209460000" lon="-4.0373980000"><ele>182</ele><time>2016-09-30T12:25:34Z</time></trkpt>
<trkpt lat="53.0209430000" lon="-4.0373780000"><ele>182</ele><time>2016-09-30T12:25:35Z</time></trkpt>
<trkpt lat="53.0209420000" lon="-4.0373570000"><ele>182</ele><time>2016-09-30T12:25:36Z</time></trkpt>
<trkpt lat="53.0209400000" lon="-4.0373360000"><ele>182</ele><time>2016-09-30T12:25:37Z</time></trkpt>
<trkpt lat="53.0209360000" lon="-4.0373160000"><ele>182</ele><time>2016-09-30T12:25:38Z</time></trkpt>
<trkpt lat="53.0209300000" lon="-4.0372970000"><ele>182</ele><time>2016-09-30T12:25:39Z</time></trkpt>
<trkpt lat="53.0209250000" lon="-4.0372760000"><ele>182</ele><time>2016-09-30T12:25:40Z</time></trkpt>
<trkpt lat="53.0209210000" lon="-4.0372600000"><ele>182</ele><time>2016-09-30T12:25:41Z</time></trkpt>
<trkpt lat="53.0209190000" lon="-4.0372420000"><ele>182</ele><time>2016-09-30T12:25:42Z</time></trkpt>
<trkpt lat="53.0209190000" lon="-4.0372240000"><ele>181</ele><time>2016-09-30T12:25:43Z</time></trkpt>
<trkpt lat="53.0209180000" lon="-4.0372080000"><ele>181</ele><time>2016-09-30T12:25:44Z</time></trkpt>
<trkpt lat="53.0209170000" lon="-4.0371870000"><ele>181</ele><time>2016-09-30T12:25:45Z</time></trkpt>
<trkpt lat="53.0209150000" lon="-4.0371660000"><ele>181</ele><time>2016-09-30T12:25:46Z</time></trkpt>
<trkpt lat="53.0209130000" lon="-4.0371530000"><ele>181</ele><time>2016-09-30T12:25:47Z</time></trkpt>
<trkpt lat="53.0209110000" lon="-4.0371370000"><ele>181</ele><time>2016-09-30T12:25:48Z</time></trkpt>
<trkpt lat="53.0209110000" lon="-4.0371370000"><ele>181</ele><time>2016-09-30T12:25:49Z</time></trkpt>
<trkpt lat="53.0209110000" lon="-4.0371370000"><ele>181</ele><time>2016-09-30T12:25:50Z</time></trkpt>
<trkpt lat="53.0209110000" lon="-4.0371360000"><ele>181</ele><time>2016-09-30T12:25:51Z</time></trkpt>
<trkpt lat="53.0209110000" lon="-4.0371350000"><ele>181</ele><time>2016-09-30T12:25:52Z</time></trkpt>
<trkpt lat="53.0209110000" lon="-4.0371340000"><ele>181</ele><time>2016-09-30T12:25:53Z</time></trkpt>
<trkpt lat="53.0209110000" lon="-4.0371320000"><ele>181</ele><time>2016-09-30T12:25:54Z</time></trkpt>
<trkpt lat="53.0209110000" lon="-4.0371290000"><ele>180</ele><time>2016-09-30T12:25:55Z</time></trkpt>
<trkpt lat="53.0209110000" lon="-4.0371260000"><ele>180</ele><time>2016-09-30T12:25:56Z</time></trkpt>
<trkpt lat="53.0209120000" lon="-4.0371220000"><ele>180</ele><time>2016-09-30T12:25:57Z</time></trkpt>
<trkpt lat="53.0209130000" lon="-4.0371120000"><ele>180</ele><time>2016-09-30T12:25:59Z</time></trkpt>
<trkpt lat="53.0209130000" lon="-4.0371060000"><ele>180</ele><time>2016-09-30T12:26:00Z</time></trkpt>
<trkpt lat="53.0209140000" lon="-4.0370990000"><ele>180</ele><time>2016-09-30T12:26:01Z</time></trkpt>
<trkpt lat="53.0209140000" lon="-4.0370910000"><ele>180</ele><time>2016-09-30T12:26:02Z</time></trkpt>
<trkpt lat="53.0209150000" lon="-4.0370830000"><ele>180</ele><time>2016-09-30T12:26:03Z</time></trkpt>
<trkpt lat="53.0209150000" lon="-4.0370740000"><ele>180</ele><time>2016-09-30T12:26:04Z</time></trkpt>
<trkpt lat="53.0209150000" lon="-4.0370640000"><ele>180</ele><time>2016-09-30T12:26:05Z</time></trkpt>
<trkpt lat="53.0209160000" lon="-4.0370540000"><ele>180</ele><time>2016-09-30T12:26:06Z</time></trkpt>
<trkpt lat="53.0209170000" lon="-4.0370430000"><ele>180</ele><time>2016-09-30T12:26:07Z</time></trkpt>
<trkpt lat="53.0209180000" lon="-4.0370330000"><ele>180</ele><time>2016-09-30T12:26:08Z</time></trkpt>
<trkpt lat="53.0209180000" lon="-4.0370240000"><ele>180</ele><time>2016-09-30T12:26:09Z</time></trkpt>
<trkpt lat="53.0209190000" lon="-4.0370150000"><ele>180</ele><time>2016-09-30T12:26:10Z</time></trkpt>
<trkpt lat="53.0209210000" lon="-4.0370050000"><ele>180</ele><time>2016-09-30T12:26:11Z</time></trkpt>
<trkpt lat="53.0209220000" lon="-4.0369960000"><ele>180</ele><time>2016-09-30T12:26:12Z</time></trkpt>
<trkpt lat="53.0209230000" lon="-4.0369860000"><ele>180</ele><time>2016-09-30T12:26:13Z</time></trkpt>
<trkpt lat="53.0209240000" lon="-4.0369750000"><ele>180</ele><time>2016-09-30T12:26:14Z</time></trkpt>
<trkpt lat="53.0209240000" lon="-4.0369640000"><ele>180</ele><time>2016-09-30T12:26:15Z</time></trkpt>
<trkpt lat="53.0209250000" lon="-4.0369530000"><ele>180</ele><time>2016-09-30T12:26:16Z</time></trkpt>
<trkpt lat="53.0209260000" lon="-4.0369410000"><ele>180</ele><time>2016-09-30T12:26:17Z</time></trkpt>
<trkpt lat="53.0209270000" lon="-4.0369300000"><ele>180</ele><time>2016-09-30T12:26:18Z</time></trkpt>
<trkpt lat="53.0209280000" lon="-4.0369180000"><ele>180</ele><time>2016-09-30T12:26:19Z</time></trkpt>
<trkpt lat="53.0209280000" lon="-4.0369060000"><ele>180</ele><time>2016-09-30T12:26:20Z</time></trkpt>
<trkpt lat="53.0209290000" lon="-4.0368950000"><ele>180</ele><time>2016-09-30T12:26:21Z</time></trkpt>
<trkpt lat="53.0209290000" lon="-4.0368830000"><ele>180</ele><time>2016-09-30T12:26:22Z</time></trkpt>
<trkpt lat="53.0209300000" lon="-4.0368700000"><ele>180</ele><time>2016-09-30T12:26:23Z</time></trkpt>
<trkpt lat="53.0209300000" lon="-4.0368580000"><ele>180</ele><time>2016-09-30T12:26:24Z</time></trkpt>
<trkpt lat="53.0209300000" lon="-4.0368460000"><ele>180</ele><time>2016-09-30T12:26:25Z</time></trkpt>
<trkpt lat="53.0209290000" lon="-4.0368330000"><ele>180</ele><time>2016-09-30T12:26:26Z</time></trkpt>
<trkpt lat="53.0209280000" lon="-4.0368200000"><ele>180</ele><time>2016-09-30T12:26:27Z</time></trkpt>
<trkpt lat="53.0209270000" lon="-4.0368060000"><ele>180</ele><time>2016-09-30T12:26:28Z</time></trkpt>
<trkpt lat="53.0209270000" lon="-4.0367930000"><ele>180</ele><time>2016-09-30T12:26:29Z</time></trkpt>
<trkpt lat="53.0209260000" lon="-4.0367800000"><ele>180</ele><time>2016-09-30T12:26:30Z</time></trkpt>
<trkpt lat="53.0209260000" lon="-4.0367670000"><ele>180</ele><time>2016-09-30T12:26:31Z</time></trkpt>
<trkpt lat="53.0209260000" lon="-4.0367540000"><ele>180</ele><time>2016-09-30T12:26:32Z</time></trkpt>
<trkpt lat="53.0209270000" lon="-4.0367420000"><ele>180</ele><time>2016-09-30T12:26:33Z</time></trkpt>
<trkpt lat="53.0209270000" lon="-4.0367310000"><ele>180</ele><time>2016-09-30T12:26:34Z</time></trkpt>
<trkpt lat="53.0209270000" lon="-4.0367200000"><ele>180</ele><time>2016-09-30T12:26:35Z</time></trkpt>
<trkpt lat="53.0209260000" lon="-4.0367100000"><ele>180</ele><time>2016-09-30T12:26:36Z</time></trkpt>
<trkpt lat="53.0209250000" lon="-4.0367000000"><ele>180</ele><time>2016-09-30T12:26:37Z</time></trkpt>
<trkpt lat="53.0209240000" lon="-4.0366910000"><ele>180</ele><time>2016-09-30T12:26:38Z</time></trkpt>
<trkpt lat="53.0209230000" lon="-4.0366820000"><ele>180</ele><time>2016-09-30T12:26:39Z</time></trkpt>
<trkpt lat="53.0209210000" lon="-4.0366730000"><ele>181</ele><time>2016-09-30T12:26:40Z</time></trkpt>
<trkpt lat="53.0209200000" lon="-4.0366650000"><ele>181</ele><time>2016-09-30T12:26:41Z</time></trkpt>
<trkpt lat="53.0209180000" lon="-4.0366580000"><ele>181</ele><time>2016-09-30T12:26:42Z</time></trkpt>
<trkpt lat="53.0209170000" lon="-4.0366500000"><ele>181</ele><time>2016-09-30T12:26:43Z</time></trkpt>
<trkpt lat="53.0209150000" lon="-4.0366430000"><ele>181</ele><time>2016-09-30T12:26:44Z</time></trkpt>
<trkpt lat="53.0209140000" lon="-4.0366370000"><ele>181</ele><time>2016-09-30T12:26:45Z</time></trkpt>
<trkpt lat="53.0209130000" lon="-4.0366310000"><ele>181</ele><time>2016-09-30T12:26:46Z</time></trkpt>
<trkpt lat="53.0209110000" lon="-4.0366250000"><ele>181</ele><time>2016-09-30T12:26:47Z</time></trkpt>
<trkpt lat="53.0209100000" lon="-4.0366190000"><ele>182</ele><time>2016-09-30T12:26:48Z</time></trkpt>
<trkpt lat="53.0209090000" lon="-4.0366140000"><ele>182</ele><time>2016-09-30T12:26:49Z</time></trkpt>
<trkpt lat="53.0209080000" lon="-4.0366090000"><ele>182</ele><time>2016-09-30T12:26:50Z</time></trkpt>
<trkpt lat="53.0209070000" lon="-4.0366040000"><ele>182</ele><time>2016-09-30T12:26:51Z</time></trkpt>
<trkpt lat="53.0209060000" lon="-4.0366000000"><ele>182</ele><time>2016-09-30T12:26:52Z</time></trkpt>
<trkpt lat="53.0209060000" lon="-4.0365960000"><ele>182</ele><time>2016-09-30T12:26:53Z</time></trkpt>
<trkpt lat="53.0209050000" lon="-4.0365920000"><ele>182</ele><time>2016-09-30T12:26:54Z</time></trkpt>
<trkpt lat="53.0209050000" lon="-4.0365880000"><ele>182</ele><time>2016-09-30T12:26:55Z</time></trkpt>
<trkpt lat="53.0209040000" lon="-4.0365850000"><ele>182</ele><time>2016-09-30T12:26:56Z</time></trkpt>
<trkpt lat="53.0209030000" lon="-4.0365820000"><ele>183</ele><time>2016-09-30T12:26:57Z</time></trkpt>
<trkpt lat="53.0209030000" lon="-4.0365790000"><ele>183</ele><time>2016-09-30T12:26:58Z</time></trkpt>
<trkpt lat="53.0209020000" lon="-4.0365760000"><ele>183</ele><time>2016-09-30T12:26:59Z</time></trkpt>
<trkpt lat="53.0209020000" lon="-4.0365740000"><ele>183</ele><time>2016-09-30T12:27:00Z</time></trkpt>
<trkpt lat="53.0209010000" lon="-4.0365710000"><ele>183</ele><time>2016-09-30T12:27:01Z</time></trkpt>
<trkpt lat="53.0209010000" lon="-4.0365690000"><ele>183</ele><time>2016-09-30T12:27:02Z</time></trkpt>
<trkpt lat="53.0209010000" lon="-4.0365670000"><ele>183</ele><time>2016-09-30T12:27:03Z</time></trkpt>
<trkpt lat="53.0209020000" lon="-4.0365640000"><ele>183</ele><time>2016-09-30T12:27:04Z</time></trkpt>
<trkpt lat="53.0209030000" lon="-4.0365620000"><ele>183</ele><time>2016-09-30T12:27:05Z</time></trkpt>
<trkpt lat="53.0209030000" lon="-4.0365600000"><ele>182</ele><time>2016-09-30T12:27:06Z</time></trkpt>
<trkpt lat="53.0209040000" lon="-4.0365580000"><ele>182</ele><time>2016-09-30T12:27:07Z</time></trkpt>
<trkpt lat="53.0209050000" lon="-4.0365570000"><ele>182</ele><time>2016-09-30T12:27:08Z</time></trkpt>
<trkpt lat="53.0209050000" lon="-4.0365550000"><ele>182</ele><time>2016-09-30T12:27:09Z</time></trkpt>
<trkpt lat="53.0209060000" lon="-4.0365540000"><ele>182</ele><time>2016-09-30T12:27:10Z</time></trkpt>
<trkpt lat="53.0209060000" lon="-4.0365530000"><ele>182</ele><time>2016-09-30T12:27:11Z</time></trkpt>
<trkpt lat="53.0209070000" lon="-4.0365530000"><ele>182</ele><time>2016-09-30T12:27:12Z</time></trkpt>
<trkpt lat="53.0209070000" lon="-4.0365530000"><ele>182</ele><time>2016-09-30T12:27:13Z</time></trkpt>
<trkpt lat="53.0210160000" lon="-4.0365310000"><ele>181</ele><time>2016-09-30T12:27:29Z</time></trkpt>
<trkpt lat="53.0209970000" lon="-4.0365280000"><ele>182</ele><time>2016-09-30T12:27:56Z</time></trkpt>
<trkpt lat="53.0209930000" lon="-4.0365280000"><ele>182</ele><time>2016-09-30T12:27:57Z</time></trkpt>
<trkpt lat="53.0209000000" lon="-4.0365260000"><ele>182</ele><time>2016-09-30T12:27:58Z</time></trkpt>
<trkpt lat="53.0208970000" lon="-4.0365320000"><ele>182</ele><time>2016-09-30T12:27:59Z</time></trkpt>
<trkpt lat="53.0208980000" lon="-4.0365400000"><ele>182</ele><time>2016-09-30T12:28:00Z</time></trkpt>
<trkpt lat="53.0208980000" lon="-4.0365400000"><ele>182</ele><time>2016-09-30T12:28:02Z</time></trkpt>
<trkpt lat="53.0208980000" lon="-4.0365400000"><ele>182</ele><time>2016-09-30T12:28:03Z</time></trkpt>
<trkpt lat="53.0208980000" lon="-4.0365410000"><ele>182</ele><time>2016-09-30T12:28:04Z</time></trkpt>
<trkpt lat="53.0208980000" lon="-4.0365410000"><ele>182</ele><time>2016-09-30T12:28:05Z</time></trkpt>
<trkpt lat="53.0208980000" lon="-4.0365420000"><ele>182</ele><time>2016-09-30T12:28:06Z</time></trkpt>
<trkpt lat="53.0208980000" lon="-4.0365430000"><ele>181</ele><time>2016-09-30T12:28:07Z</time></trkpt>
<trkpt lat="53.0208990000" lon="-4.0365440000"><ele>181</ele><time>2016-09-30T12:28:08Z</time></trkpt>
<trkpt lat="53.0208990000" lon="-4.0365440000"><ele>181</ele><time>2016-09-30T12:28:09Z</time></trkpt>
<trkpt lat="53.0208990000" lon="-4.0365450000"><ele>181</ele><time>2016-09-30T12:28:10Z</time></trkpt>
<trkpt lat="53.0208990000" lon="-4.0365460000"><ele>181</ele><time>2016-09-30T12:28:11Z</time></trkpt>
<trkpt lat="53.0208990000" lon="-4.0365460000"><ele>181</ele><time>2016-09-30T12:28:12Z</time></trkpt>
<trkpt lat="53.0208990000" lon="-4.0365470000"><ele>180</ele><time>2016-09-30T12:28:14Z</time></trkpt>
<trkpt lat="53.0208980000" lon="-4.0365480000"><ele>180</ele><time>2016-09-30T12:28:15Z</time></trkpt>
<trkpt lat="53.0208980000" lon="-4.0365480000"><ele>180</ele><time>2016-09-30T12:28:16Z</time></trkpt>
<trkpt lat="53.0208980000" lon="-4.0365490000"><ele>180</ele><time>2016-09-30T12:28:17Z</time></trkpt>
<trkpt lat="53.0208980000" lon="-4.0365490000"><ele>180</ele><time>2016-09-30T12:28:18Z</time></trkpt>
<trkpt lat="53.0208980000" lon="-4.0365500000"><ele>180</ele><time>2016-09-30T12:28:19Z</time></trkpt>
<trkpt lat="53.0208980000" lon="-4.0365500000"><ele>180</ele><time>2016-09-30T12:28:20Z</time></trkpt>
<trkpt lat="53.0208980000" lon="-4.0365510000"><ele>179</ele><time>2016-09-30T12:28:21Z</time></trkpt>
<trkpt lat="53.0208980000" lon="-4.0365510000"><ele>179</ele><time>2016-09-30T12:28:22Z</time></trkpt>
<trkpt lat="53.0208980000" lon="-4.0365510000"><ele>179</ele><time>2016-09-30T12:28:24Z</time></trkpt>
<trkpt lat="53.0208970000" lon="-4.0365510000"><ele>179</ele><time>2016-09-30T12:28:25Z</time></trkpt>
<trkpt lat="53.0208970000" lon="-4.0365510000"><ele>179</ele><time>2016-09-30T12:28:26Z</time></trkpt>
<trkpt lat="53.0208970000" lon="-4.0365510000"><ele>179</ele><time>2016-09-30T12:28:27Z</time></trkpt>
<trkpt lat="53.0208970000" lon="-4.0365510000"><ele>179</ele><time>2016-09-30T12:28:28Z</time></trkpt>
<trkpt lat="53.0208970000" lon="-4.0365510000"><ele>179</ele><time>2016-09-30T12:28:29Z</time></trkpt>
<trkpt lat="53.0208960000" lon="-4.0365510000"><ele>179</ele><time>2016-09-30T12:28:30Z</time></trkpt>
<trkpt lat="53.0208960000" lon="-4.0365520000"><ele>179</ele><time>2016-09-30T12:28:31Z</time></trkpt>
<trkpt lat="53.0208950000" lon="-4.0365520000"><ele>179</ele><time>2016-09-30T12:28:32Z</time></trkpt>
<trkpt lat="53.0208940000" lon="-4.0365520000"><ele>179</ele><time>2016-09-30T12:28:33Z</time></trkpt>
<trkpt lat="53.0208940000" lon="-4.0365520000"><ele>179</ele><time>2016-09-30T12:28:34Z</time></trkpt>
<trkpt lat="53.0208930000" lon="-4.0365530000"><ele>179</ele><time>2016-09-30T12:28:35Z</time></trkpt>
<trkpt lat="53.0208920000" lon="-4.0365540000"><ele>179</ele><time>2016-09-30T12:28:36Z</time></trkpt>
<trkpt lat="53.0208910000" lon="-4.0365550000"><ele>179</ele><time>2016-09-30T12:28:37Z</time></trkpt>
<trkpt lat="53.0208910000" lon="-4.0365550000"><ele>179</ele><time>2016-09-30T12:28:38Z</time></trkpt>
<trkpt lat="53.0208910000" lon="-4.0365550000"><ele>179</ele><time>2016-09-30T12:28:39Z</time></trkpt>
<trkpt lat="53.0208910000" lon="-4.0365550000"><ele>179</ele><time>2016-09-30T12:28:40Z</time></trkpt>
<trkpt lat="53.0208910000" lon="-4.0365550000"><ele>180</ele><time>2016-09-30T12:28:42Z</time></trkpt>
<trkpt lat="53.0208910000" lon="-4.0365550000"><ele>180</ele><time>2016-09-30T12:28:43Z</time></trkpt>
<trkpt lat="53.0208910000" lon="-4.0365550000"><ele>180</ele><time>2016-09-30T12:28:47Z</time></trkpt>
<trkpt lat="53.0208910000" lon="-4.0365550000"><ele>180</ele><time>2016-09-30T12:28:49Z</time></trkpt>
<trkpt lat="53.0208890000" lon="-4.0365550000"><ele>181</ele><time>2016-09-30T12:28:55Z</time></trkpt>
<trkpt lat="53.0208890000" lon="-4.0365550000"><ele>181</ele><time>2016-09-30T12:28:56Z</time></trkpt>
<trkpt lat="53.0208900000" lon="-4.0365560000"><ele>181</ele><time>2016-09-30T12:28:57Z</time></trkpt>
<trkpt lat="53.0208900000" lon="-4.0365560000"><ele>181</ele><time>2016-09-30T12:28:58Z</time></trkpt>
<trkpt lat="53.0208900000" lon="-4.0365560000"><ele>181</ele><time>2016-09-30T12:28:59Z</time></trkpt>
<trkpt lat="53.0208900000" lon="-4.0365560000"><ele>181</ele><time>2016-09-30T12:29:00Z</time></trkpt>
<trkpt lat="53.0208900000" lon="-4.0365560000"><ele>181</ele><time>2016-09-30T12:29:01Z</time></trkpt>
<trkpt lat="53.0208900000" lon="-4.0365570000"><ele>181</ele><time>2016-09-30T12:29:02Z</time></trkpt>
<trkpt lat="53.0208910000" lon="-4.0365570000"><ele>181</ele><time>2016-09-30T12:29:03Z</time></trkpt>
<trkpt lat="53.0208910000" lon="-4.0365580000"><ele>181</ele><time>2016-09-30T12:29:04Z</time></trkpt>
<trkpt lat="53.0208930000" lon="-4.0365580000"><ele>181</ele><time>2016-09-30T12:29:05Z</time></trkpt>
<trkpt lat="53.0208940000" lon="-4.0365590000"><ele>182</ele><time>2016-09-30T12:29:06Z</time></trkpt>
<trkpt lat="53.0208950000" lon="-4.0365590000"><ele>182</ele><time>2016-09-30T12:29:07Z</time></trkpt>
<trkpt lat="53.0208960000" lon="-4.0365590000"><ele>182</ele><time>2016-09-30T12:29:08Z</time></trkpt>
<trkpt lat="53.0208970000" lon="-4.0365590000"><ele>182</ele><time>2016-09-30T12:29:09Z</time></trkpt>
<trkpt lat="53.0208980000" lon="-4.0365590000"><ele>182</ele><time>2016-09-30T12:29:10Z</time></trkpt>
<trkpt lat="53.0208990000" lon="-4.0365590000"><ele>182</ele><time>2016-09-30T12:29:11Z</time></trkpt>
<trkpt lat="53.0209000000" lon="-4.0365600000"><ele>182</ele><time>2016-09-30T12:29:12Z</time></trkpt>
<trkpt lat="53.0209020000" lon="-4.0365600000"><ele>182</ele><time>2016-09-30T12:29:13Z</time></trkpt>
<trkpt lat="53.0209030000" lon="-4.0365600000"><ele>182</ele><time>2016-09-30T12:29:14Z</time></trkpt>
<trkpt lat="53.0209040000" lon="-4.0365600000"><ele>182</ele><time>2016-09-30T12:29:15Z</time></trkpt>
<trkpt lat="53.0209050000" lon="-4.0365600000"><ele>182</ele><time>2016-09-30T12:29:16Z</time></trkpt>
<trkpt lat="53.0209050000" lon="-4.0365590000"><ele>182</ele><time>2016-09-30T12:29:17Z</time></trkpt>
<trkpt lat="53.0209060000" lon="-4.0365590000"><ele>182</ele><time>2016-09-30T12:29:18Z</time></trkpt>
<trkpt lat="53.0209060000" lon="-4.0365590000"><ele>182</ele><time>2016-09-30T12:29:19Z</time></trkpt>
<trkpt lat="53.0209060000" lon="-4.0365580000"><ele>181</ele><time>2016-09-30T12:29:20Z</time></trkpt>
<trkpt lat="53.0209060000" lon="-4.0365580000"><ele>181</ele><time>2016-09-30T12:29:21Z</time></trkpt>
<trkpt lat="53.0209060000" lon="-4.0365570000"><ele>181</ele><time>2016-09-30T12:29:22Z</time></trkpt>
<trkpt lat="53.0209070000" lon="-4.0365570000"><ele>181</ele><time>2016-09-30T12:29:23Z</time></trkpt>
<trkpt lat="53.0209070000" lon="-4.0365560000"><ele>181</ele><time>2016-09-30T12:29:24Z</time></trkpt>
<trkpt lat="53.0209070000" lon="-4.0365550000"><ele>181</ele><time>2016-09-30T12:29:25Z</time></trkpt>
<trkpt lat="53.0209060000" lon="-4.0365550000"><ele>181</ele><time>2016-09-30T12:29:26Z</time></trkpt>
<trkpt lat="53.0209050000" lon="-4.0365550000"><ele>180</ele><time>2016-09-30T12:29:27Z</time></trkpt>
<trkpt lat="53.0209040000" lon="-4.0365550000"><ele>180</ele><time>2016-09-30T12:29:28Z</time></trkpt>
<trkpt lat="53.0209020000" lon="-4.0365550000"><ele>180</ele><time>2016-09-30T12:29:29Z</time></trkpt>
<trkpt lat="53.0208990000" lon="-4.0365560000"><ele>180</ele><time>2016-09-30T12:29:30Z</time></trkpt>
<trkpt lat="53.0208950000" lon="-4.0365560000"><ele>180</ele><time>2016-09-30T12:29:31Z</time></trkpt>
<trkpt lat="53.0208920000" lon="-4.0365570000"><ele>180</ele><time>2016-09-30T12:29:32Z</time></trkpt>
<trkpt lat="53.0208890000" lon="-4.0365580000"><ele>180</ele><time>2016-09-30T12:29:33Z</time></trkpt>
<trkpt lat="53.0208850000" lon="-4.0365600000"><ele>180</ele><time>2016-09-30T12:29:34Z</time></trkpt>
<trkpt lat="53.0208800000" lon="-4.0365610000"><ele>180</ele><time>2016-09-30T12:29:35Z</time></trkpt>
<trkpt lat="53.0208750000" lon="-4.0365630000"><ele>180</ele><time>2016-09-30T12:29:36Z</time></trkpt>
<trkpt lat="53.0208700000" lon="-4.0365640000"><ele>180</ele><time>2016-09-30T12:29:37Z</time></trkpt>
<trkpt lat="53.0208640000" lon="-4.0365660000"><ele>180</ele><time>2016-09-30T12:29:38Z</time></trkpt>
<trkpt lat="53.0208570000" lon="-4.0365680000"><ele>180</ele><time>2016-09-30T12:29:39Z</time></trkpt>
<trkpt lat="53.0208510000" lon="-4.0365700000"><ele>180</ele><time>2016-09-30T12:29:40Z</time></trkpt>
<trkpt lat="53.0208440000" lon="-4.0365730000"><ele>180</ele><time>2016-09-30T12:29:41Z</time></trkpt>
<trkpt lat="53.0208370000" lon="-4.0365760000"><ele>180</ele><time>2016-09-30T12:29:42Z</time></trkpt>
<trkpt lat="53.0208300000" lon="-4.0365800000"><ele>180</ele><time>2016-09-30T12:29:43Z</time></trkpt>
<trkpt lat="53.0208230000" lon="-4.0365840000"><ele>180</ele><time>2016-09-30T12:29:44Z</time></trkpt>
<trkpt lat="53.0208150000" lon="-4.0365880000"><ele>180</ele><time>2016-09-30T12:29:45Z</time></trkpt>
<trkpt lat="53.0208070000" lon="-4.0365910000"><ele>180</ele><time>2016-09-30T12:29:46Z</time></trkpt>
<trkpt lat="53.0207990000" lon="-4.0365960000"><ele>180</ele><time>2016-09-30T12:29:47Z</time></trkpt>
<trkpt lat="53.0207910000" lon="-4.0366000000"><ele>180</ele><time>2016-09-30T12:29:48Z</time></trkpt>
<trkpt lat="53.0207830000" lon="-4.0366050000"><ele>180</ele><time>2016-09-30T12:29:49Z</time></trkpt>
<trkpt lat="53.0207750000" lon="-4.0366100000"><ele>180</ele><time>2016-09-30T12:29:50Z</time></trkpt>
<trkpt lat="53.0207670000" lon="-4.0366160000"><ele>180</ele><time>2016-09-30T12:29:51Z</time></trkpt>
<trkpt lat="53.0207590000" lon="-4.0366220000"><ele>180</ele><time>2016-09-30T12:29:52Z</time></trkpt>
<trkpt lat="53.0207520000" lon="-4.0366280000"><ele>180</ele><time>2016-09-30T12:29:53Z</time></trkpt>
<trkpt lat="53.0207440000" lon="-4.0366340000"><ele>180</ele><time>2016-09-30T12:29:54Z</time></trkpt>
<trkpt lat="53.0207360000" lon="-4.0366400000"><ele>180</ele><time>2016-09-30T12:29:55Z</time></trkpt>
<trkpt lat="53.0207280000" lon="-4.0366470000"><ele>180</ele><time>2016-09-30T12:29:56Z</time></trkpt>
<trkpt lat="53.0207200000" lon="-4.0366530000"><ele>180</ele><time>2016-09-30T12:29:57Z</time></trkpt>
<trkpt lat="53.0207120000" lon="-4.0366600000"><ele>180</ele><time>2016-09-30T12:29:58Z</time></trkpt>
<trkpt lat="53.0207030000" lon="-4.0366680000"><ele>180</ele><time>2016-09-30T12:29:59Z</time></trkpt>
<trkpt lat="53.0205750000" lon="-4.0367800000"><ele>180</ele><time>2016-09-30T12:30:00Z</time></trkpt>
<trkpt lat="53.0205650000" lon="-4.0367880000"><ele>180</ele><time>2016-09-30T12:30:01Z</time></trkpt>
<trkpt lat="53.0205550000" lon="-4.0367960000"><ele>180</ele><time>2016-09-30T12:30:02Z</time></trkpt>
<trkpt lat="53.0205550000" lon="-4.0367960000"><ele>180</ele><time>2016-09-30T12:30:03Z</time></trkpt>
<trkpt lat="53.0205550000" lon="-4.0367960000"><ele>180</ele><time>2016-09-30T12:30:04Z</time></trkpt>
<trkpt lat="53.0205540000" lon="-4.0367960000"><ele>180</ele><time>2016-09-30T12:30:05Z</time></trkpt>
<trkpt lat="53.0205530000" lon="-4.0367970000"><ele>180</ele><time>2016-09-30T12:30:06Z</time></trkpt>
<trkpt lat="53.0205500000" lon="-4.0367990000"><ele>179</ele><time>2016-09-30T12:30:08Z</time></trkpt>
<trkpt lat="53.0205480000" lon="-4.0368000000"><ele>179</ele><time>2016-09-30T12:30:09Z</time></trkpt>
<trkpt lat="53.0205450000" lon="-4.0368020000"><ele>179</ele><time>2016-09-30T12:30:10Z</time></trkpt>
<trkpt lat="53.0205410000" lon="-4.0368040000"><ele>179</ele><time>2016-09-30T12:30:11Z</time></trkpt>
<trkpt lat="53.0205370000" lon="-4.0368070000"><ele>179</ele><time>2016-09-30T12:30:12Z</time></trkpt>
<trkpt lat="53.0205320000" lon="-4.0368100000"><ele>179</ele><time>2016-09-30T12:30:13Z</time></trkpt>
<trkpt lat="53.0204170000" lon="-4.0368730000"><ele>179</ele><time>2016-09-30T12:30:14Z</time></trkpt>
<trkpt lat="53.0204030000" lon="-4.0368740000"><ele>179</ele><time>2016-09-30T12:30:15Z</time></trkpt>
<trkpt lat="53.0203910000" lon="-4.0368760000"><ele>179</ele><time>2016-09-30T12:30:16Z</time></trkpt>
<trkpt lat="53.0203780000" lon="-4.0368790000"><ele>179</ele><time>2016-09-30T12:30:17Z</time></trkpt>
<trkpt lat="53.0203640000" lon="-4.0368830000"><ele>179</ele><time>2016-09-30T12:30:18Z</time></trkpt>
<trkpt lat="53.0203550000" lon="-4.0368850000"><ele>179</ele><time>2016-09-30T12:30:19Z</time></trkpt>
<trkpt lat="53.0203420000" lon="-4.0368880000"><ele>179</ele><time>2016-09-30T12:30:20Z</time></trkpt>
<trkpt lat="53.0203420000" lon="-4.0368880000"><ele>179</ele><time>2016-09-30T12:30:21Z</time></trkpt>
<trkpt lat="53.0203420000" lon="-4.0368880000"><ele>179</ele><time>2016-09-30T12:30:22Z</time></trkpt>
<trkpt lat="53.0203040000" lon="-4.0368910000"><ele>179</ele><time>2016-09-30T12:30:23Z</time></trkpt>
<trkpt lat="53.0202920000" lon="-4.0368890000"><ele>179</ele><time>2016-09-30T12:30:24Z</time></trkpt>
<trkpt lat="53.0202790000" lon="-4.0368880000"><ele>179</ele><time>2016-09-30T12:30:25Z</time></trkpt>
<trkpt lat="53.0202660000" lon="-4.0368870000"><ele>179</ele><time>2016-09-30T12:30:26Z</time></trkpt>
<trkpt lat="53.0202540000" lon="-4.0368880000"><ele>179</ele><time>2016-09-30T12:30:27Z</time></trkpt>
<trkpt lat="53.0202430000" lon="-4.0368880000"><ele>179</ele><time>2016-09-30T12:30:28Z</time></trkpt>
<trkpt lat="53.0202330000" lon="-4.0368860000"><ele>179</ele><time>2016-09-30T12:30:29Z</time></trkpt>
<trkpt lat="53.0202220000" lon="-4.0368850000"><ele>179</ele><time>2016-09-30T12:30:30Z</time></trkpt>
<trkpt lat="53.0202100000" lon="-4.0368830000"><ele>179</ele><time>2016-09-30T12:30:31Z</time></trkpt>
<trkpt lat="53.0202100000" lon="-4.0368830000"><ele>179</ele><time>2016-09-30T12:30:32Z</time></trkpt>
<trkpt lat="53.0202100000" lon="-4.0368830000"><ele>179</ele><time>2016-09-30T12:30:33Z</time></trkpt>
<trkpt lat="53.0201710000" lon="-4.0368710000"><ele>179</ele><time>2016-09-30T12:30:34Z</time></trkpt>
<trkpt lat="53.0201580000" lon="-4.0368690000"><ele>179</ele><time>2016-09-30T12:30:35Z</time></trkpt>
<trkpt lat="53.0201460000" lon="-4.0368680000"><ele>179</ele><time>2016-09-30T12:30:36Z</time></trkpt>
<trkpt lat="53.0201340000" lon="-4.0368680000"><ele>179</ele><time>2016-09-30T12:30:37Z</time></trkpt>
<trkpt lat="53.0201210000" lon="-4.0368660000"><ele>179</ele><time>2016-09-30T12:30:38Z</time></trkpt>
<trkpt lat="53.0201080000" lon="-4.0368630000"><ele>179</ele><time>2016-09-30T12:30:39Z</time></trkpt>
<trkpt lat="53.0200950000" lon="-4.0368580000"><ele>179</ele><time>2016-09-30T12:30:40Z</time></trkpt>
<trkpt lat="53.0200850000" lon="-4.0368540000"><ele>179</ele><time>2016-09-30T12:30:41Z</time></trkpt>
<trkpt lat="53.0200740000" lon="-4.0368520000"><ele>179</ele><time>2016-09-30T12:30:42Z</time></trkpt>
<trkpt lat="53.0200600000" lon="-4.0368500000"><ele>179</ele><time>2016-09-30T12:30:43Z</time></trkpt>
<trkpt lat="53.0200450000" lon="-4.0368510000"><ele>178</ele><time>2016-09-30T12:30:44Z</time></trkpt>
<trkpt lat="53.0200330000" lon="-4.0368570000"><ele>178</ele><time>2016-09-30T12:30:45Z</time></trkpt>
<trkpt lat="53.0200210000" lon="-4.0368640000"><ele>178</ele><time>2016-09-30T12:30:46Z</time></trkpt>
<trkpt lat="53.0200070000" lon="-4.0368680000"><ele>178</ele><time>2016-09-30T12:30:47Z</time></trkpt>
<trkpt lat="53.0199930000" lon="-4.0368730000"><ele>178</ele><time>2016-09-30T12:30:48Z</time></trkpt>
<trkpt lat="53.0199810000" lon="-4.0368780000"><ele>178</ele><time>2016-09-30T12:30:49Z</time></trkpt>
<trkpt lat="53.0199700000" lon="-4.0368840000"><ele>178</ele><time>2016-09-30T12:30:50Z</time></trkpt>
<trkpt lat="53.0199580000" lon="-4.0368930000"><ele>177</ele><time>2016-09-30T12:30:51Z</time></trkpt>
<trkpt lat="53.0199440000" lon="-4.0369020000"><ele>177</ele><time>2016-09-30T12:30:52Z</time></trkpt>
<trkpt lat="53.0199320000" lon="-4.0369120000"><ele>177</ele><time>2016-09-30T12:30:53Z</time></trkpt>
<trkpt lat="53.0199200000" lon="-4.0369190000"><ele>177</ele><time>2016-09-30T12:30:54Z</time></trkpt>
<trkpt lat="53.0199080000" lon="-4.0369270000"><ele>177</ele><time>2016-09-30T12:30:55Z</time></trkpt>
<trkpt lat="53.0198960000" lon="-4.0369360000"><ele>177</ele><time>2016-09-30T12:30:56Z</time></trkpt>
<trkpt lat="53.0198850000" lon="-4.0369470000"><ele>176</ele><time>2016-09-30T12:30:57Z</time></trkpt>
<trkpt lat="53.0198730000" lon="-4.0369580000"><ele>176</ele><time>2016-09-30T12:30:58Z</time></trkpt>
<trkpt lat="53.0198630000" lon="-4.0369750000"><ele>176</ele><time>2016-09-30T12:30:59Z</time></trkpt>
<trkpt lat="53.0198540000" lon="-4.0369950000"><ele>176</ele><time>2016-09-30T12:31:00Z</time></trkpt>
<trkpt lat="53.0198460000" lon="-4.0370150000"><ele>176</ele><time>2016-09-30T12:31:01Z</time></trkpt>
<trkpt lat="53.0198360000" lon="-4.0370330000"><ele>176</ele><time>2016-09-30T12:31:02Z</time></trkpt>
<trkpt lat="53.0198260000" lon="-4.0370510000"><ele>176</ele><time>2016-09-30T12:31:03Z</time></trkpt>
<trkpt lat="53.0198170000" lon="-4.0370680000"><ele>176</ele><time>2016-09-30T12:31:04Z</time></trkpt>
<trkpt lat="53.0198110000" lon="-4.0370830000"><ele>175</ele><time>2016-09-30T12:31:05Z</time></trkpt>
<trkpt lat="53.0198010000" lon="-4.0371000000"><ele>175</ele><time>2016-09-30T12:31:06Z</time></trkpt>
<trkpt lat="53.0197850000" lon="-4.0371310000"><ele>175</ele><time>2016-09-30T12:31:08Z</time></trkpt>
<trkpt lat="53.0197760000" lon="-4.0371490000"><ele>175</ele><time>2016-09-30T12:31:09Z</time></trkpt>
<trkpt lat="53.0197690000" lon="-4.0371680000"><ele>175</ele><time>2016-09-30T12:31:10Z</time></trkpt>
<trkpt lat="53.0197600000" lon="-4.0371870000"><ele>175</ele><time>2016-09-30T12:31:11Z</time></trkpt>
<trkpt lat="53.0197490000" lon="-4.0372040000"><ele>175</ele><time>2016-09-30T12:31:12Z</time></trkpt>
<trkpt lat="53.0197380000" lon="-4.0372210000"><ele>175</ele><time>2016-09-30T12:31:13Z</time></trkpt>
<trkpt lat="53.0197260000" lon="-4.0372360000"><ele>175</ele><time>2016-09-30T12:31:14Z</time></trkpt>
<trkpt lat="53.0197190000" lon="-4.0372480000"><ele>175</ele><time>2016-09-30T12:31:15Z</time></trkpt>
<trkpt lat="53.0197110000" lon="-4.0372620000"><ele>175</ele><time>2016-09-30T12:31:16Z</time></trkpt>
<trkpt lat="53.0197040000" lon="-4.0372780000"><ele>175</ele><time>2016-09-30T12:31:17Z</time></trkpt>
<trkpt lat="53.0196960000" lon="-4.0372940000"><ele>175</ele><time>2016-09-30T12:31:18Z</time></trkpt>
<trkpt lat="53.0196880000" lon="-4.0373090000"><ele>175</ele><time>2016-09-30T12:31:19Z</time></trkpt>
<trkpt lat="53.0196800000" lon="-4.0373260000"><ele>175</ele><time>2016-09-30T12:31:20Z</time></trkpt>
<trkpt lat="53.0196710000" lon="-4.0373410000"><ele>175</ele><time>2016-09-30T12:31:21Z</time></trkpt>
<trkpt lat="53.0196600000" lon="-4.0373540000"><ele>174</ele><time>2016-09-30T12:31:22Z</time></trkpt>
<trkpt lat="53.0196490000" lon="-4.0373670000"><ele>174</ele><time>2016-09-30T12:31:23Z</time></trkpt>
<trkpt lat="53.0196380000" lon="-4.0373810000"><ele>174</ele><time>2016-09-30T12:31:24Z</time></trkpt>
<trkpt lat="53.0196270000" lon="-4.0373950000"><ele>174</ele><time>2016-09-30T12:31:25Z</time></trkpt>
<trkpt lat="53.0196160000" lon="-4.0374060000"><ele>174</ele><time>2016-09-30T12:31:26Z</time></trkpt>
<trkpt lat="53.0196050000" lon="-4.0374170000"><ele>174</ele><time>2016-09-30T12:31:27Z</time></trkpt>
<trkpt lat="53.0195930000" lon="-4.0374230000"><ele>174</ele><time>2016-09-30T12:31:28Z</time></trkpt>
<trkpt lat="53.0195800000" lon="-4.0374300000"><ele>174</ele><time>2016-09-30T12:31:29Z</time></trkpt>
<trkpt lat="53.0195690000" lon="-4.0374400000"><ele>173</ele><time>2016-09-30T12:31:30Z</time></trkpt>
<trkpt lat="53.0195580000" lon="-4.0374500000"><ele>173</ele><time>2016-09-30T12:31:31Z</time></trkpt>
<trkpt lat="53.0195460000" lon="-4.0374600000"><ele>173</ele><time>2016-09-30T12:31:32Z</time></trkpt>
<trkpt lat="53.0195330000" lon="-4.0374710000"><ele>173</ele><time>2016-09-30T12:31:33Z</time></trkpt>
<trkpt lat="53.0195200000" lon="-4.0374800000"><ele>173</ele><time>2016-09-30T12:31:34Z</time></trkpt>
<trkpt lat="53.0195090000" lon="-4.0374890000"><ele>173</ele><time>2016-09-30T12:31:35Z</time></trkpt>
<trkpt lat="53.0194970000" lon="-4.0374950000"><ele>173</ele><time>2016-09-30T12:31:36Z</time></trkpt>
<trkpt lat="53.0194850000" lon="-4.0375030000"><ele>173</ele><time>2016-09-30T12:31:37Z</time></trkpt>
<trkpt lat="53.0194730000" lon="-4.0375100000"><ele>173</ele><time>2016-09-30T12:31:38Z</time></trkpt>
<trkpt lat="53.0194610000" lon="-4.0375160000"><ele>172</ele><time>2016-09-30T12:31:39Z</time></trkpt>
<trkpt lat="53.0194490000" lon="-4.0375210000"><ele>172</ele><time>2016-09-30T12:31:40Z</time></trkpt>
<trkpt lat="53.0194360000" lon="-4.0375260000"><ele>172</ele><time>2016-09-30T12:31:41Z</time></trkpt>
<trkpt lat="53.0194240000" lon="-4.0375350000"><ele>172</ele><time>2016-09-30T12:31:42Z</time></trkpt>
<trkpt lat="53.0194120000" lon="-4.0375430000"><ele>172</ele><time>2016-09-30T12:31:43Z</time></trkpt>
<trkpt lat="53.0194010000" lon="-4.0375500000"><ele>172</ele><time>2016-09-30T12:31:44Z</time></trkpt>
<trkpt lat="53.0193900000" lon="-4.0375560000"><ele>172</ele><time>2016-09-30T12:31:45Z</time></trkpt>
<trkpt lat="53.0193900000" lon="-4.0375560000"><ele>172</ele><time>2016-09-30T12:31:46Z</time></trkpt>
<trkpt lat="53.0193900000" lon="-4.0375560000"><ele>172</ele><time>2016-09-30T12:31:47Z</time></trkpt>
<trkpt lat="53.0193890000" lon="-4.0375570000"><ele>171</ele><time>2016-09-30T12:31:48Z</time></trkpt>
<trkpt lat="53.0193880000" lon="-4.0375570000"><ele>171</ele><time>2016-09-30T12:31:49Z</time></trkpt>
<trkpt lat="53.0193870000" lon="-4.0375580000"><ele>171</ele><time>2016-09-30T12:31:50Z</time></trkpt>
<trkpt lat="53.0193850000" lon="-4.0375590000"><ele>171</ele><time>2016-09-30T12:31:51Z</time></trkpt>
<trkpt lat="53.0193820000" lon="-4.0375600000"><ele>171</ele><time>2016-09-30T12:31:52Z</time></trkpt>
<trkpt lat="53.0192910000" lon="-4.0376030000"><ele>171</ele><time>2016-09-30T12:31:53Z</time></trkpt>
<trkpt lat="53.0192780000" lon="-4.0376090000"><ele>171</ele><time>2016-09-30T12:31:54Z</time></trkpt>
<trkpt lat="53.0192650000" lon="-4.0376160000"><ele>171</ele><time>2016-09-30T12:31:55Z</time></trkpt>
<trkpt lat="53.0192530000" lon="-4.0376240000"><ele>171</ele><time>2016-09-30T12:31:56Z</time></trkpt>
<trkpt lat="53.0192410000" lon="-4.0376290000"><ele>171</ele><time>2016-09-30T12:31:57Z</time></trkpt>
<trkpt lat="53.0192260000" lon="-4.0376340000"><ele>171</ele><time>2016-09-30T12:31:58Z</time></trkpt>
<trkpt lat="53.0192110000" lon="-4.0376380000"><ele>171</ele><time>2016-09-30T12:31:59Z</time></trkpt>
<trkpt lat="53.0191980000" lon="-4.0376440000"><ele>170</ele><time>2016-09-30T12:32:00Z</time></trkpt>
<trkpt lat="53.0191850000" lon="-4.0376500000"><ele>170</ele><time>2016-09-30T12:32:01Z</time></trkpt>
<trkpt lat="53.0191740000" lon="-4.0376580000"><ele>170</ele><time>2016-09-30T12:32:02Z</time></trkpt>
<trkpt lat="53.0191620000" lon="-4.0376670000"><ele>170</ele><time>2016-09-30T12:32:03Z</time></trkpt>
<trkpt lat="53.0191490000" lon="-4.0376750000"><ele>170</ele><time>2016-09-30T12:32:04Z</time></trkpt>
<trkpt lat="53.0191370000" lon="-4.0376810000"><ele>170</ele><time>2016-09-30T12:32:05Z</time></trkpt>
<trkpt lat="53.0191250000" lon="-4.0376860000"><ele>170</ele><time>2016-09-30T12:32:06Z</time></trkpt>
<trkpt lat="53.0190990000" lon="-4.0376990000"><ele>170</ele><time>2016-09-30T12:32:08Z</time></trkpt>
<trkpt lat="53.0190870000" lon="-4.0377060000"><ele>170</ele><time>2016-09-30T12:32:09Z</time></trkpt>
<trkpt lat="53.0190740000" lon="-4.0377100000"><ele>169</ele><time>2016-09-30T12:32:10Z</time></trkpt>
<trkpt lat="53.0190610000" lon="-4.0377140000"><ele>169</ele><time>2016-09-30T12:32:11Z</time></trkpt>
<trkpt lat="53.0190480000" lon="-4.0377180000"><ele>169</ele><time>2016-09-30T12:32:12Z</time></trkpt>
<trkpt lat="53.0190360000" lon="-4.0377220000"><ele>169</ele><time>2016-09-30T12:32:13Z</time></trkpt>
<trkpt lat="53.0190250000" lon="-4.0377270000"><ele>169</ele><time>2016-09-30T12:32:14Z</time></trkpt>
<trkpt lat="53.0190140000" lon="-4.0377310000"><ele>169</ele><time>2016-09-30T12:32:15Z</time></trkpt>
<trkpt lat="53.0190010000" lon="-4.0377380000"><ele>169</ele><time>2016-09-30T12:32:16Z</time></trkpt>
<trkpt lat="53.0189880000" lon="-4.0377440000"><ele>168</ele><time>2016-09-30T12:32:17Z</time></trkpt>
<trkpt lat="53.0189740000" lon="-4.0377490000"><ele>168</ele><time>2016-09-30T12:32:18Z</time></trkpt>
<trkpt lat="53.0189580000" lon="-4.0377540000"><ele>168</ele><time>2016-09-30T12:32:19Z</time></trkpt>
<trkpt lat="53.0189430000" lon="-4.0377580000"><ele>168</ele><time>2016-09-30T12:32:20Z</time></trkpt>
<trkpt lat="53.0189280000" lon="-4.0377630000"><ele>168</ele><time>2016-09-30T12:32:21Z</time></trkpt>
<trkpt lat="53.0189160000" lon="-4.0377680000"><ele>168</ele><time>2016-09-30T12:32:22Z</time></trkpt>
<trkpt lat="53.0189030000" lon="-4.0377760000"><ele>168</ele><time>2016-09-30T12:32:23Z</time></trkpt>
<trkpt lat="53.0188900000" lon="-4.0377830000"><ele>167</ele><time>2016-09-30T12:32:24Z</time></trkpt>
<trkpt lat="53.0188760000" lon="-4.0377880000"><ele>167</ele><time>2016-09-30T12:32:25Z</time></trkpt>
<trkpt lat="53.0188630000" lon="-4.0377920000"><ele>167</ele><time>2016-09-30T12:32:26Z</time></trkpt>
<trkpt lat="53.0188510000" lon="-4.0377990000"><ele>167</ele><time>2016-09-30T12:32:27Z</time></trkpt>
<trkpt lat="53.0188360000" lon="-4.0378050000"><ele>167</ele><time>2016-09-30T12:32:28Z</time></trkpt>
<trkpt lat="53.0188200000" lon="-4.0378090000"><ele>167</ele><time>2016-09-30T12:32:29Z</time></trkpt>
<trkpt lat="53.0188070000" lon="-4.0378160000"><ele>167</ele><time>2016-09-30T12:32:30Z</time></trkpt>
<trkpt lat="53.0187960000" lon="-4.0378220000"><ele>167</ele><time>2016-09-30T12:32:31Z</time></trkpt>
<trkpt lat="53.0187830000" lon="-4.0378260000"><ele>167</ele><time>2016-09-30T12:32:32Z</time></trkpt>
<trkpt lat="53.0187700000" lon="-4.0378320000"><ele>167</ele><time>2016-09-30T12:32:33Z</time></trkpt>
<trkpt lat="53.0187580000" lon="-4.0378390000"><ele>166</ele><time>2016-09-30T12:32:34Z</time></trkpt>
<trkpt lat="53.0187440000" lon="-4.0378460000"><ele>166</ele><time>2016-09-30T12:32:35Z</time></trkpt>
<trkpt lat="53.0187300000" lon="-4.0378520000"><ele>166</ele><time>2016-09-30T12:32:36Z</time></trkpt>
<trkpt lat="53.0187150000" lon="-4.0378580000"><ele>166</ele><time>2016-09-30T12:32:37Z</time></trkpt>
<trkpt lat="53.0187020000" lon="-4.0378630000"><ele>166</ele><time>2016-09-30T12:32:38Z</time></trkpt>
<trkpt lat="53.0186890000" lon="-4.0378680000"><ele>166</ele><time>2016-09-30T12:32:39Z</time></trkpt>
<trkpt lat="53.0186760000" lon="-4.0378740000"><ele>166</ele><time>2016-09-30T12:32:40Z</time></trkpt>
<trkpt lat="53.0186660000" lon="-4.0378790000"><ele>166</ele><time>2016-09-30T12:32:41Z</time></trkpt>
<trkpt lat="53.0186540000" lon="-4.0378830000"><ele>166</ele><time>2016-09-30T12:32:42Z</time></trkpt>
<trkpt lat="53.0186390000" lon="-4.0378870000"><ele>166</ele><time>2016-09-30T12:32:43Z</time></trkpt>
<trkpt lat="53.0186250000" lon="-4.0378930000"><ele>166</ele><time>2016-09-30T12:32:44Z</time></trkpt>
<trkpt lat="53.0186110000" lon="-4.0378980000"><ele>166</ele><time>2016-09-30T12:32:45Z</time></trkpt>
<trkpt lat="53.0185980000" lon="-4.0379010000"><ele>166</ele><time>2016-09-30T12:32:46Z</time></trkpt>
<trkpt lat="53.0185860000" lon="-4.0379010000"><ele>166</ele><time>2016-09-30T12:32:47Z</time></trkpt>
<trkpt lat="53.0185710000" lon="-4.0378990000"><ele>166</ele><time>2016-09-30T12:32:48Z</time></trkpt>
<trkpt lat="53.0185580000" lon="-4.0379030000"><ele>166</ele><time>2016-09-30T12:32:49Z</time></trkpt>
<trkpt lat="53.0185430000" lon="-4.0379070000"><ele>166</ele><time>2016-09-30T12:32:50Z</time></trkpt>
<trkpt lat="53.0185290000" lon="-4.0379120000"><ele>166</ele><time>2016-09-30T12:32:51Z</time></trkpt>
<trkpt lat="53.0185140000" lon="-4.0379140000"><ele>166</ele><time>2016-09-30T12:32:52Z</time></trkpt>
<trkpt lat="53.0185010000" lon="-4.0379170000"><ele>166</ele><time>2016-09-30T12:32:53Z</time></trkpt>
<trkpt lat="53.0184900000" lon="-4.0379190000"><ele>166</ele><time>2016-09-30T12:32:54Z</time></trkpt>
<trkpt lat="53.0184790000" lon="-4.0379190000"><ele>166</ele><time>2016-09-30T12:32:55Z</time></trkpt>
<trkpt lat="53.0184680000" lon="-4.0379230000"><ele>166</ele><time>2016-09-30T12:32:56Z</time></trkpt>
<trkpt lat="53.0184680000" lon="-4.0379230000"><ele>166</ele><time>2016-09-30T12:32:57Z</time></trkpt>
<trkpt lat="53.0184420000" lon="-4.0379300000"><ele>166</ele><time>2016-09-30T12:32:58Z</time></trkpt>
<trkpt lat="53.0184310000" lon="-4.0379320000"><ele>166</ele><time>2016-09-30T12:32:59Z</time></trkpt>
<trkpt lat="53.0184170000" lon="-4.0379330000"><ele>166</ele><time>2016-09-30T12:33:00Z</time></trkpt>
<trkpt lat="53.0184070000" lon="-4.0379400000"><ele>166</ele><time>2016-09-30T12:33:01Z</time></trkpt>
<trkpt lat="53.0183960000" lon="-4.0379480000"><ele>166</ele><time>2016-09-30T12:33:02Z</time></trkpt>
<trkpt lat="53.0183960000" lon="-4.0379480000"><ele>166</ele><time>2016-09-30T12:33:03Z</time></trkpt>
<trkpt lat="53.0183960000" lon="-4.0379480000"><ele>166</ele><time>2016-09-30T12:33:04Z</time></trkpt>
<trkpt lat="53.0183950000" lon="-4.0379480000"><ele>166</ele><time>2016-09-30T12:33:05Z</time></trkpt>
<trkpt lat="53.0183450000" lon="-4.0379660000"><ele>166</ele><time>2016-09-30T12:33:06Z</time></trkpt>
<trkpt lat="53.0183160000" lon="-4.0379840000"><ele>166</ele><time>2016-09-30T12:33:08Z</time></trkpt>
<trkpt lat="53.0183030000" lon="-4.0379980000"><ele>166</ele><time>2016-09-30T12:33:09Z</time></trkpt>
<trkpt lat="53.0182870000" lon="-4.0380090000"><ele>166</ele><time>2016-09-30T12:33:10Z</time></trkpt>
<trkpt lat="53.0182730000" lon="-4.0380160000"><ele>166</ele><time>2016-09-30T12:33:11Z</time></trkpt>
<trkpt lat="53.0182590000" lon="-4.0380230000"><ele>166</ele><time>2016-09-30T12:33:12Z</time></trkpt>
<trkpt lat="53.0182470000" lon="-4.0380280000"><ele>166</ele><time>2016-09-30T12:33:13Z</time></trkpt>
<trkpt lat="53.0182330000" lon="-4.0380370000"><ele>166</ele><time>2016-09-30T12:33:14Z</time></trkpt>
<trkpt lat="53.0182180000" lon="-4.0380480000"><ele>166</ele><time>2016-09-30T12:33:15Z</time></trkpt>
<trkpt lat="53.0182030000" lon="-4.0380560000"><ele>166</ele><time>2016-09-30T12:33:16Z</time></trkpt>
<trkpt lat="53.0181870000" lon="-4.0380680000"><ele>166</ele><time>2016-09-30T12:33:17Z</time></trkpt>
<trkpt lat="53.0181720000" lon="-4.0380770000"><ele>166</ele><time>2016-09-30T12:33:18Z</time></trkpt>
<trkpt lat="53.0181590000" lon="-4.0380850000"><ele>166</ele><time>2016-09-30T12:33:19Z</time></trkpt>
<trkpt lat="53.0181480000" lon="-4.0380930000"><ele>166</ele><time>2016-09-30T12:33:20Z</time></trkpt>
<trkpt lat="53.0181360000" lon="-4.0381030000"><ele>166</ele><time>2016-09-30T12:33:21Z</time></trkpt>
<trkpt lat="53.0181230000" lon="-4.0381120000"><ele>165</ele><time>2016-09-30T12:33:22Z</time></trkpt>
<trkpt lat="53.0181110000" lon="-4.0381200000"><ele>165</ele><time>2016-09-30T12:33:23Z</time></trkpt>
<trkpt lat="53.0181000000" lon="-4.0381300000"><ele>165</ele><time>2016-09-30T12:33:24Z</time></trkpt>
<trkpt lat="53.0180870000" lon="-4.0381390000"><ele>165</ele><time>2016-09-30T12:33:25Z</time></trkpt>
<trkpt lat="53.0180740000" lon="-4.0381480000"><ele>165</ele><time>2016-09-30T12:33:26Z</time></trkpt>
<trkpt lat="53.0180620000" lon="-4.0381560000"><ele>165</ele><time>2016-09-30T12:33:27Z</time></trkpt>
<trkpt lat="53.0180490000" lon="-4.0381640000"><ele>165</ele><time>2016-09-30T12:33:28Z</time></trkpt>
<trkpt lat="53.0180380000" lon="-4.0381700000"><ele>165</ele><time>2016-09-30T12:33:29Z</time></trkpt>
<trkpt lat="53.0180250000" lon="-4.0381820000"><ele>165</ele><time>2016-09-30T12:33:30Z</time></trkpt>
<trkpt lat="53.0180130000" lon="-4.0381940000"><ele>165</ele><time>2016-09-30T12:33:31Z</time></trkpt>
<trkpt lat="53.0180000000" lon="-4.0382040000"><ele>165</ele><time>2016-09-30T12:33:32Z</time></trkpt>
<trkpt lat="53.0179890000" lon="-4.0382150000"><ele>165</ele><time>2016-09-30T12:33:33Z</time></trkpt>
<trkpt lat="53.0179780000" lon="-4.0382220000"><ele>165</ele><time>2016-09-30T12:33:34Z</time></trkpt>
<trkpt lat="53.0179680000" lon="-4.0382270000"><ele>165</ele><time>2016-09-30T12:33:35Z</time></trkpt>
<trkpt lat="53.0179580000" lon="-4.0382330000"><ele>165</ele><time>2016-09-30T12:33:36Z</time></trkpt>
<trkpt lat="53.0179450000" lon="-4.0382400000"><ele>165</ele><time>2016-09-30T12:33:37Z</time></trkpt>
<trkpt lat="53.0179320000" lon="-4.0382500000"><ele>165</ele><time>2016-09-30T12:33:38Z</time></trkpt>
<trkpt lat="53.0179220000" lon="-4.0382610000"><ele>165</ele><time>2016-09-30T12:33:39Z</time></trkpt>
<trkpt lat="53.0179120000" lon="-4.0382710000"><ele>164</ele><time>2016-09-30T12:33:40Z</time></trkpt>
<trkpt lat="53.0179030000" lon="-4.0382800000"><ele>164</ele><time>2016-09-30T12:33:41Z</time></trkpt>
<trkpt lat="53.0178940000" lon="-4.0382880000"><ele>164</ele><time>2016-09-30T12:33:42Z</time></trkpt>
<trkpt lat="53.0178820000" lon="-4.0382960000"><ele>164</ele><time>2016-09-30T12:33:43Z</time></trkpt>
<trkpt lat="53.0178680000" lon="-4.0383030000"><ele>164</ele><time>2016-09-30T12:33:44Z</time></trkpt>
<trkpt lat="53.0178540000" lon="-4.0383090000"><ele>164</ele><time>2016-09-30T12:33:45Z</time></trkpt>
<trkpt lat="53.0178420000" lon="-4.0383170000"><ele>163</ele><time>2016-09-30T12:33:46Z</time></trkpt>
<trkpt lat="53.0178290000" lon="-4.0383260000"><ele>163</ele><time>2016-09-30T12:33:47Z</time></trkpt>
<trkpt lat="53.0178160000" lon="-4.0383340000"><ele>163</ele><time>2016-09-30T12:33:48Z</time></trkpt>
<trkpt lat="53.0178030000" lon="-4.0383410000"><ele>163</ele><time>2016-09-30T12:33:49Z</time></trkpt>
<trkpt lat="53.0177900000" lon="-4.0383490000"><ele>163</ele><time>2016-09-30T12:33:50Z</time></trkpt>
<trkpt lat="53.0177760000" lon="-4.0383580000"><ele>163</ele><time>2016-09-30T12:33:51Z</time></trkpt>
<trkpt lat="53.0177640000" lon="-4.0383690000"><ele>163</ele><time>2016-09-30T12:33:52Z</time></trkpt>
<trkpt lat="53.0177530000" lon="-4.0383790000"><ele>163</ele><time>2016-09-30T12:33:53Z</time></trkpt>
<trkpt lat="53.0177410000" lon="-4.0383910000"><ele>163</ele><time>2016-09-30T12:33:54Z</time></trkpt>
<trkpt lat="53.0177300000" lon="-4.0384030000"><ele>163</ele><time>2016-09-30T12:33:55Z</time></trkpt>
<trkpt lat="53.0177200000" lon="-4.0384130000"><ele>163</ele><time>2016-09-30T12:33:56Z</time></trkpt>
<trkpt lat="53.0177080000" lon="-4.0384240000"><ele>163</ele><time>2016-09-30T12:33:57Z</time></trkpt>
<trkpt lat="53.0176960000" lon="-4.0384350000"><ele>163</ele><time>2016-09-30T12:33:58Z</time></trkpt>
<trkpt lat="53.0176840000" lon="-4.0384460000"><ele>163</ele><time>2016-09-30T12:33:59Z</time></trkpt>
<trkpt lat="53.0176730000" lon="-4.0384590000"><ele>163</ele><time>2016-09-30T12:34:00Z</time></trkpt>
<trkpt lat="53.0176600000" lon="-4.0384700000"><ele>163</ele><time>2016-09-30T12:34:01Z</time></trkpt>
<trkpt lat="53.0176460000" lon="-4.0384790000"><ele>163</ele><time>2016-09-30T12:34:02Z</time></trkpt>
<trkpt lat="53.0176330000" lon="-4.0384900000"><ele>163</ele><time>2016-09-30T12:34:03Z</time></trkpt>
<trkpt lat="53.0176220000" lon="-4.0385020000"><ele>163</ele><time>2016-09-30T12:34:04Z</time></trkpt>
<trkpt lat="53.0176100000" lon="-4.0385150000"><ele>163</ele><time>2016-09-30T12:34:05Z</time></trkpt>
<trkpt lat="53.0175970000" lon="-4.0385240000"><ele>163</ele><time>2016-09-30T12:34:06Z</time></trkpt>
<trkpt lat="53.0175740000" lon="-4.0385400000"><ele>163</ele><time>2016-09-30T12:34:08Z</time></trkpt>
<trkpt lat="53.0175660000" lon="-4.0385480000"><ele>163</ele><time>2016-09-30T12:34:09Z</time></trkpt>
<trkpt lat="53.0175560000" lon="-4.0385610000"><ele>163</ele><time>2016-09-30T12:34:10Z</time></trkpt>
<trkpt lat="53.0175450000" lon="-4.0385730000"><ele>163</ele><time>2016-09-30T12:34:11Z</time></trkpt>
<trkpt lat="53.0175360000" lon="-4.0385860000"><ele>163</ele><time>2016-09-30T12:34:12Z</time></trkpt>
<trkpt lat="53.0175280000" lon="-4.0385990000"><ele>163</ele><time>2016-09-30T12:34:13Z</time></trkpt>
<trkpt lat="53.0175190000" lon="-4.0386110000"><ele>163</ele><time>2016-09-30T12:34:14Z</time></trkpt>
<trkpt lat="53.0175100000" lon="-4.0386210000"><ele>163</ele><time>2016-09-30T12:34:15Z</time></trkpt>
<trkpt lat="53.0174990000" lon="-4.0386330000"><ele>163</ele><time>2016-09-30T12:34:16Z</time></trkpt>
<trkpt lat="53.0174860000" lon="-4.0386440000"><ele>162</ele><time>2016-09-30T12:34:17Z</time></trkpt>
<trkpt lat="53.0174750000" lon="-4.0386510000"><ele>162</ele><time>2016-09-30T12:34:18Z</time></trkpt>
<trkpt lat="53.0174670000" lon="-4.0386580000"><ele>162</ele><time>2016-09-30T12:34:19Z</time></trkpt>
<trkpt lat="53.0174670000" lon="-4.0386580000"><ele>162</ele><time>2016-09-30T12:34:20Z</time></trkpt>
<trkpt lat="53.0174670000" lon="-4.0386590000"><ele>162</ele><time>2016-09-30T12:34:21Z</time></trkpt>
<trkpt lat="53.0174660000" lon="-4.0386590000"><ele>162</ele><time>2016-09-30T12:34:22Z</time></trkpt>
<trkpt lat="53.0174650000" lon="-4.0386600000"><ele>161</ele><time>2016-09-30T12:34:23Z</time></trkpt>
<trkpt lat="53.0174640000" lon="-4.0386610000"><ele>161</ele><time>2016-09-30T12:34:24Z</time></trkpt>
<trkpt lat="53.0174630000" lon="-4.0386630000"><ele>161</ele><time>2016-09-30T12:34:25Z</time></trkpt>
<trkpt lat="53.0173950000" lon="-4.0387300000"><ele>161</ele><time>2016-09-30T12:34:26Z</time></trkpt>
<trkpt lat="53.0173840000" lon="-4.0387440000"><ele>161</ele><time>2016-09-30T12:34:27Z</time></trkpt>
<trkpt lat="53.0173730000" lon="-4.0387540000"><ele>161</ele><time>2016-09-30T12:34:28Z</time></trkpt>
<trkpt lat="53.0173620000" lon="-4.0387660000"><ele>160</ele><time>2016-09-30T12:34:29Z</time></trkpt>
<trkpt lat="53.0173500000" lon="-4.0387790000"><ele>160</ele><time>2016-09-30T12:34:30Z</time></trkpt>
<trkpt lat="53.0173380000" lon="-4.0387910000"><ele>160</ele><time>2016-09-30T12:34:31Z</time></trkpt>
<trkpt lat="53.0173280000" lon="-4.0388030000"><ele>160</ele><time>2016-09-30T12:34:32Z</time></trkpt>
<trkpt lat="53.0173180000" lon="-4.0388190000"><ele>160</ele><time>2016-09-30T12:34:33Z</time></trkpt>
<trkpt lat="53.0173100000" lon="-4.0388360000"><ele>160</ele><time>2016-09-30T12:34:34Z</time></trkpt>
<trkpt lat="53.0173000000" lon="-4.0388500000"><ele>160</ele><time>2016-09-30T12:34:35Z</time></trkpt>
<trkpt lat="53.0172910000" lon="-4.0388630000"><ele>159</ele><time>2016-09-30T12:34:36Z</time></trkpt>
<trkpt lat="53.0172820000" lon="-4.0388750000"><ele>159</ele><time>2016-09-30T12:34:37Z</time></trkpt>
<trkpt lat="53.0172730000" lon="-4.0388890000"><ele>159</ele><time>2016-09-30T12:34:38Z</time></trkpt>
<trkpt lat="53.0172630000" lon="-4.0389000000"><ele>159</ele><time>2016-09-30T12:34:39Z</time></trkpt>
<trkpt lat="53.0172520000" lon="-4.0389130000"><ele>159</ele><time>2016-09-30T12:34:40Z</time></trkpt>
<trkpt lat="53.0172410000" lon="-4.0389270000"><ele>159</ele><time>2016-09-30T12:34:41Z</time></trkpt>
<trkpt lat="53.0172320000" lon="-4.0389420000"><ele>159</ele><time>2016-09-30T12:34:42Z</time></trkpt>
<trkpt lat="53.0172210000" lon="-4.0389560000"><ele>159</ele><time>2016-09-30T12:34:43Z</time></trkpt>
<trkpt lat="53.0172110000" lon="-4.0389710000"><ele>159</ele><time>2016-09-30T12:34:44Z</time></trkpt>
<trkpt lat="53.0172000000" lon="-4.0389850000"><ele>158</ele><time>2016-09-30T12:34:45Z</time></trkpt>
<trkpt lat="53.0171890000" lon="-4.0390000000"><ele>158</ele><time>2016-09-30T12:34:46Z</time></trkpt>
<trkpt lat="53.0171780000" lon="-4.0390130000"><ele>158</ele><time>2016-09-30T12:34:47Z</time></trkpt>
<trkpt lat="53.0171690000" lon="-4.0390250000"><ele>158</ele><time>2016-09-30T12:34:48Z</time></trkpt>
<trkpt lat="53.0171580000" lon="-4.0390380000"><ele>158</ele><time>2016-09-30T12:34:49Z</time></trkpt>
<trkpt lat="53.0171480000" lon="-4.0390490000"><ele>158</ele><time>2016-09-30T12:34:50Z</time></trkpt>
<trkpt lat="53.0171380000" lon="-4.0390620000"><ele>158</ele><time>2016-09-30T12:34:51Z</time></trkpt>
<trkpt lat="53.0171290000" lon="-4.0390780000"><ele>158</ele><time>2016-09-30T12:34:52Z</time></trkpt>
<trkpt lat="53.0171200000" lon="-4.0390910000"><ele>158</ele><time>2016-09-30T12:34:53Z</time></trkpt>
<trkpt lat="53.0171100000" lon="-4.0391050000"><ele>158</ele><time>2016-09-30T12:34:54Z</time></trkpt>
<trkpt lat="53.0170990000" lon="-4.0391230000"><ele>158</ele><time>2016-09-30T12:34:55Z</time></trkpt>
<trkpt lat="53.0170880000" lon="-4.0391380000"><ele>158</ele><time>2016-09-30T12:34:56Z</time></trkpt>
<trkpt lat="53.0170750000" lon="-4.0391520000"><ele>158</ele><time>2016-09-30T12:34:57Z</time></trkpt>
<trkpt lat="53.0170650000" lon="-4.0391650000"><ele>158</ele><time>2016-09-30T12:34:58Z</time></trkpt>
<trkpt lat="53.0170550000" lon="-4.0391820000"><ele>158</ele><time>2016-09-30T12:34:59Z</time></trkpt>
<trkpt lat="53.0170460000" lon="-4.0392000000"><ele>158</ele><time>2016-09-30T12:35:00Z</time></trkpt>
<trkpt lat="53.0170390000" lon="-4.0392180000"><ele>157</ele><time>2016-09-30T12:35:01Z</time></trkpt>
<trkpt lat="53.0170290000" lon="-4.0392310000"><ele>157</ele><time>2016-09-30T12:35:02Z</time></trkpt>
<trkpt lat="53.0170170000" lon="-4.0392460000"><ele>157</ele><time>2016-09-30T12:35:03Z</time></trkpt>
<trkpt lat="53.0170010000" lon="-4.0392660000"><ele>157</ele><time>2016-09-30T12:35:04Z</time></trkpt>
<trkpt lat="53.0169880000" lon="-4.0392860000"><ele>157</ele><time>2016-09-30T12:35:05Z</time></trkpt>
<trkpt lat="53.0169780000" lon="-4.0393000000"><ele>157</ele><time>2016-09-30T12:35:06Z</time></trkpt>
<trkpt lat="53.0169520000" lon="-4.0393180000"><ele>157</ele><time>2016-09-30T12:35:08Z</time></trkpt>
<trkpt lat="53.0169380000" lon="-4.0393250000"><ele>156</ele><time>2016-09-30T12:35:09Z</time></trkpt>
<trkpt lat="53.0169240000" lon="-4.0393310000"><ele>156</ele><time>2016-09-30T12:35:10Z</time></trkpt>
<trkpt lat="53.0169120000" lon="-4.0393350000"><ele>156</ele><time>2016-09-30T12:35:11Z</time></trkpt>
<trkpt lat="53.0168990000" lon="-4.0393380000"><ele>156</ele><time>2016-09-30T12:35:12Z</time></trkpt>
<trkpt lat="53.0168850000" lon="-4.0393410000"><ele>156</ele><time>2016-09-30T12:35:13Z</time></trkpt>
<trkpt lat="53.0168730000" lon="-4.0393420000"><ele>156</ele><time>2016-09-30T12:35:14Z</time></trkpt>
<trkpt lat="53.0168610000" lon="-4.0393460000"><ele>156</ele><time>2016-09-30T12:35:15Z</time></trkpt>
<trkpt lat="53.0168490000" lon="-4.0393490000"><ele>156</ele><time>2016-09-30T12:35:16Z</time></trkpt>
<trkpt lat="53.0168370000" lon="-4.0393510000"><ele>156</ele><time>2016-09-30T12:35:17Z</time></trkpt>
<trkpt lat="53.0168240000" lon="-4.0393560000"><ele>156</ele><time>2016-09-30T12:35:18Z</time></trkpt>
<trkpt lat="53.0168120000" lon="-4.0393610000"><ele>156</ele><time>2016-09-30T12:35:19Z</time></trkpt>
<trkpt lat="53.0167980000" lon="-4.0393630000"><ele>156</ele><time>2016-09-30T12:35:20Z</time></trkpt>
<trkpt lat="53.0167830000" lon="-4.0393650000"><ele>156</ele><time>2016-09-30T12:35:21Z</time></trkpt>
<trkpt lat="53.0167720000" lon="-4.0393690000"><ele>156</ele><time>2016-09-30T12:35:22Z</time></trkpt>
<trkpt lat="53.0167590000" lon="-4.0393720000"><ele>156</ele><time>2016-09-30T12:35:23Z</time></trkpt>
<trkpt lat="53.0167460000" lon="-4.0393780000"><ele>156</ele><time>2016-09-30T12:35:24Z</time></trkpt>
<trkpt lat="53.0167310000" lon="-4.0393830000"><ele>156</ele><time>2016-09-30T12:35:25Z</time></trkpt>
<trkpt lat="53.0167190000" lon="-4.0393880000"><ele>155</ele><time>2016-09-30T12:35:26Z</time></trkpt>
<trkpt lat="53.0167060000" lon="-4.0393920000"><ele>155</ele><time>2016-09-30T12:35:27Z</time></trkpt>
<trkpt lat="53.0166910000" lon="-4.0393930000"><ele>155</ele><time>2016-09-30T12:35:28Z</time></trkpt>
<trkpt lat="53.0166780000" lon="-4.0393940000"><ele>155</ele><time>2016-09-30T12:35:29Z</time></trkpt>
<trkpt lat="53.0166650000" lon="-4.0393920000"><ele>155</ele><time>2016-09-30T12:35:30Z</time></trkpt>
<trkpt lat="53.0166530000" lon="-4.0393960000"><ele>155</ele><time>2016-09-30T12:35:31Z</time></trkpt>
<trkpt lat="53.0166420000" lon="-4.0394020000"><ele>155</ele><time>2016-09-30T12:35:32Z</time></trkpt>
<trkpt lat="53.0166270000" lon="-4.0394040000"><ele>155</ele><time>2016-09-30T12:35:33Z</time></trkpt>
<trkpt lat="53.0166120000" lon="-4.0394120000"><ele>155</ele><time>2016-09-30T12:35:34Z</time></trkpt>
<trkpt lat="53.0165950000" lon="-4.0394210000"><ele>155</ele><time>2016-09-30T12:35:35Z</time></trkpt>
<trkpt lat="53.0165790000" lon="-4.0394230000"><ele>155</ele><time>2016-09-30T12:35:36Z</time></trkpt>
<trkpt lat="53.0165650000" lon="-4.0394290000"><ele>155</ele><time>2016-09-30T12:35:37Z</time></trkpt>
<trkpt lat="53.0165560000" lon="-4.0394380000"><ele>155</ele><time>2016-09-30T12:35:38Z</time></trkpt>
<trkpt lat="53.0165450000" lon="-4.0394440000"><ele>155</ele><time>2016-09-30T12:35:39Z</time></trkpt>
<trkpt lat="53.0165300000" lon="-4.0394520000"><ele>155</ele><time>2016-09-30T12:35:40Z</time></trkpt>
<trkpt lat="53.0165160000" lon="-4.0394560000"><ele>155</ele><time>2016-09-30T12:35:41Z</time></trkpt>
<trkpt lat="53.0165040000" lon="-4.0394600000"><ele>155</ele><time>2016-09-30T12:35:42Z</time></trkpt>
<trkpt lat="53.0164930000" lon="-4.0394620000"><ele>155</ele><time>2016-09-30T12:35:43Z</time></trkpt>
<trkpt lat="53.0164930000" lon="-4.0394620000"><ele>156</ele><time>2016-09-30T12:35:44Z</time></trkpt>
<trkpt lat="53.0164930000" lon="-4.0394620000"><ele>156</ele><time>2016-09-30T12:35:45Z</time></trkpt>
<trkpt lat="53.0164920000" lon="-4.0394620000"><ele>156</ele><time>2016-09-30T12:35:46Z</time></trkpt>
<trkpt lat="53.0164910000" lon="-4.0394630000"><ele>156</ele><time>2016-09-30T12:35:47Z</time></trkpt>
<trkpt lat="53.0164900000" lon="-4.0394640000"><ele>156</ele><time>2016-09-30T12:35:48Z</time></trkpt>
<trkpt lat="53.0164880000" lon="-4.0394650000"><ele>156</ele><time>2016-09-30T12:35:49Z</time></trkpt>
<trkpt lat="53.0164850000" lon="-4.0394660000"><ele>156</ele><time>2016-09-30T12:35:50Z</time></trkpt>
<trkpt lat="53.0164820000" lon="-4.0394680000"><ele>156</ele><time>2016-09-30T12:35:51Z</time></trkpt>
<trkpt lat="53.0164780000" lon="-4.0394700000"><ele>156</ele><time>2016-09-30T12:35:52Z</time></trkpt>
<trkpt lat="53.0164730000" lon="-4.0394730000"><ele>156</ele><time>2016-09-30T12:35:53Z</time></trkpt>
<trkpt lat="53.0164680000" lon="-4.0394760000"><ele>156</ele><time>2016-09-30T12:35:54Z</time></trkpt>
<trkpt lat="53.0164620000" lon="-4.0394790000"><ele>156</ele><time>2016-09-30T12:35:55Z</time></trkpt>
<trkpt lat="53.0164560000" lon="-4.0394820000"><ele>156</ele><time>2016-09-30T12:35:56Z</time></trkpt>
<trkpt lat="53.0163180000" lon="-4.0395580000"><ele>156</ele><time>2016-09-30T12:35:57Z</time></trkpt>
<trkpt lat="53.0163040000" lon="-4.0395660000"><ele>156</ele><time>2016-09-30T12:35:58Z</time></trkpt>
<trkpt lat="53.0162930000" lon="-4.0395740000"><ele>156</ele><time>2016-09-30T12:35:59Z</time></trkpt>
<trkpt lat="53.0162820000" lon="-4.0395820000"><ele>156</ele><time>2016-09-30T12:36:00Z</time></trkpt>
<trkpt lat="53.0162720000" lon="-4.0395900000"><ele>156</ele><time>2016-09-30T12:36:01Z</time></trkpt>
<trkpt lat="53.0162600000" lon="-4.0395960000"><ele>156</ele><time>2016-09-30T12:36:02Z</time></trkpt>
<trkpt lat="53.0162500000" lon="-4.0396040000"><ele>156</ele><time>2016-09-30T12:36:03Z</time></trkpt>
<trkpt lat="53.0162380000" lon="-4.0396170000"><ele>156</ele><time>2016-09-30T12:36:04Z</time></trkpt>
<trkpt lat="53.0162240000" lon="-4.0396300000"><ele>156</ele><time>2016-09-30T12:36:05Z</time></trkpt>
<trkpt lat="53.0162120000" lon="-4.0396420000"><ele>156</ele><time>2016-09-30T12:36:06Z</time></trkpt>
<trkpt lat="53.0161880000" lon="-4.0396680000"><ele>156</ele><time>2016-09-30T12:36:08Z</time></trkpt>
<trkpt lat="53.0161750000" lon="-4.0396810000"><ele>156</ele><time>2016-09-30T12:36:09Z</time></trkpt>
<trkpt lat="53.0161630000" lon="-4.0396920000"><ele>156</ele><time>2016-09-30T12:36:10Z</time></trkpt>
<trkpt lat="53.0161520000" lon="-4.0397040000"><ele>156</ele><time>2016-09-30T12:36:11Z</time></trkpt>
<trkpt lat="53.0161410000" lon="-4.0397160000"><ele>156</ele><time>2016-09-30T12:36:12Z</time></trkpt>
<trkpt lat="53.0161320000" lon="-4.0397280000"><ele>156</ele><time>2016-09-30T12:36:13Z</time></trkpt>
<trkpt lat="53.0161230000" lon="-4.0397410000"><ele>156</ele><time>2016-09-30T12:36:14Z</time></trkpt>
<trkpt lat="53.0161120000" lon="-4.0397540000"><ele>156</ele><time>2016-09-30T12:36:15Z</time></trkpt>
<trkpt lat="53.0161020000" lon="-4.0397680000"><ele>156</ele><time>2016-09-30T12:36:16Z</time></trkpt>
<trkpt lat="53.0160920000" lon="-4.0397790000"><ele>156</ele><time>2016-09-30T12:36:17Z</time></trkpt>
<trkpt lat="53.0160830000" lon="-4.0397880000"><ele>156</ele><time>2016-09-30T12:36:18Z</time></trkpt>
<trkpt lat="53.0160830000" lon="-4.0397880000"><ele>156</ele><time>2016-09-30T12:36:19Z</time></trkpt>
<trkpt lat="53.0160830000" lon="-4.0397890000"><ele>156</ele><time>2016-09-30T12:36:20Z</time></trkpt>
<trkpt lat="53.0160610000" lon="-4.0398380000"><ele>156</ele><time>2016-09-30T12:36:21Z</time></trkpt>
<trkpt lat="53.0160520000" lon="-4.0398560000"><ele>156</ele><time>2016-09-30T12:36:22Z</time></trkpt>
<trkpt lat="53.0160420000" lon="-4.0398710000"><ele>156</ele><time>2016-09-30T12:36:23Z</time></trkpt>
<trkpt lat="53.0160320000" lon="-4.0398820000"><ele>156</ele><time>2016-09-30T12:36:24Z</time></trkpt>
<trkpt lat="53.0160230000" lon="-4.0398960000"><ele>156</ele><time>2016-09-30T12:36:25Z</time></trkpt>
<trkpt lat="53.0160140000" lon="-4.0399130000"><ele>155</ele><time>2016-09-30T12:36:26Z</time></trkpt>
<trkpt lat="53.0160030000" lon="-4.0399300000"><ele>155</ele><time>2016-09-30T12:36:27Z</time></trkpt>
<trkpt lat="53.0159930000" lon="-4.0399440000"><ele>155</ele><time>2016-09-30T12:36:28Z</time></trkpt>
<trkpt lat="53.0159840000" lon="-4.0399590000"><ele>155</ele><time>2016-09-30T12:36:29Z</time></trkpt>
<trkpt lat="53.0159760000" lon="-4.0399740000"><ele>155</ele><time>2016-09-30T12:36:30Z</time></trkpt>
<trkpt lat="53.0159650000" lon="-4.0399910000"><ele>155</ele><time>2016-09-30T12:36:31Z</time></trkpt>
<trkpt lat="53.0159550000" lon="-4.0400060000"><ele>155</ele><time>2016-09-30T12:36:32Z</time></trkpt>
<trkpt lat="53.0159450000" lon="-4.0400220000"><ele>155</ele><time>2016-09-30T12:36:33Z</time></trkpt>
<trkpt lat="53.0159440000" lon="-4.0400410000"><ele>155</ele><time>2016-09-30T12:36:34Z</time></trkpt>
<trkpt lat="53.0159440000" lon="-4.0400610000"><ele>155</ele><time>2016-09-30T12:36:35Z</time></trkpt>
<trkpt lat="53.0159400000" lon="-4.0400840000"><ele>155</ele><time>2016-09-30T12:36:36Z</time></trkpt>
<trkpt lat="53.0159290000" lon="-4.0401010000"><ele>155</ele><time>2016-09-30T12:36:37Z</time></trkpt>
<trkpt lat="53.0159140000" lon="-4.0401070000"><ele>155</ele><time>2016-09-30T12:36:38Z</time></trkpt>
<trkpt lat="53.0159000000" lon="-4.0401130000"><ele>155</ele><time>2016-09-30T12:36:39Z</time></trkpt>
<trkpt lat="53.0158860000" lon="-4.0401230000"><ele>155</ele><time>2016-09-30T12:36:40Z</time></trkpt>
<trkpt lat="53.0158720000" lon="-4.0401340000"><ele>154</ele><time>2016-09-30T12:36:41Z</time></trkpt>
<trkpt lat="53.0158620000" lon="-4.0401460000"><ele>154</ele><time>2016-09-30T12:36:42Z</time></trkpt>
<trkpt lat="53.0158510000" lon="-4.0401570000"><ele>154</ele><time>2016-09-30T12:36:43Z</time></trkpt>
<trkpt lat="53.0158390000" lon="-4.0401690000"><ele>154</ele><time>2016-09-30T12:36:44Z</time></trkpt>
<trkpt lat="53.0158280000" lon="-4.0401800000"><ele>154</ele><time>2016-09-30T12:36:45Z</time></trkpt>
<trkpt lat="53.0158190000" lon="-4.0401880000"><ele>154</ele><time>2016-09-30T12:36:46Z</time></trkpt>
<trkpt lat="53.0158100000" lon="-4.0402000000"><ele>154</ele><time>2016-09-30T12:36:47Z</time></trkpt>
<trkpt lat="53.0158010000" lon="-4.0402140000"><ele>154</ele><time>2016-09-30T12:36:48Z</time></trkpt>
<trkpt lat="53.0157920000" lon="-4.0402250000"><ele>154</ele><time>2016-09-30T12:36:49Z</time></trkpt>
<trkpt lat="53.0157830000" lon="-4.0402380000"><ele>154</ele><time>2016-09-30T12:36:50Z</time></trkpt>
<trkpt lat="53.0157720000" lon="-4.0402530000"><ele>154</ele><time>2016-09-30T12:36:51Z</time></trkpt>
<trkpt lat="53.0157590000" lon="-4.0402690000"><ele>154</ele><time>2016-09-30T12:36:52Z</time></trkpt>
<trkpt lat="53.0157450000" lon="-4.0402830000"><ele>154</ele><time>2016-09-30T12:36:53Z</time></trkpt>
<trkpt lat="53.0157340000" lon="-4.0402960000"><ele>154</ele><time>2016-09-30T12:36:54Z</time></trkpt>
<trkpt lat="53.0157220000" lon="-4.0403150000"><ele>154</ele><time>2016-09-30T12:36:55Z</time></trkpt>
<trkpt lat="53.0157110000" lon="-4.0403330000"><ele>154</ele><time>2016-09-30T12:36:56Z</time></trkpt>
<trkpt lat="53.0156980000" lon="-4.0403480000"><ele>154</ele><time>2016-09-30T12:36:57Z</time></trkpt>
<trkpt lat="53.0156870000" lon="-4.0403620000"><ele>154</ele><time>2016-09-30T12:36:58Z</time></trkpt>
<trkpt lat="53.0156760000" lon="-4.0403770000"><ele>154</ele><time>2016-09-30T12:36:59Z</time></trkpt>
<trkpt lat="53.0156660000" lon="-4.0403930000"><ele>154</ele><time>2016-09-30T12:37:00Z</time></trkpt>
<trkpt lat="53.0156540000" lon="-4.0404080000"><ele>154</ele><time>2016-09-30T12:37:01Z</time></trkpt>
<trkpt lat="53.0156420000" lon="-4.0404220000"><ele>154</ele><time>2016-09-30T12:37:02Z</time></trkpt>
<trkpt lat="53.0156310000" lon="-4.0404340000"><ele>154</ele><time>2016-09-30T12:37:03Z</time></trkpt>
<trkpt lat="53.0156190000" lon="-4.0404440000"><ele>154</ele><time>2016-09-30T12:37:04Z</time></trkpt>
<trkpt lat="53.0156040000" lon="-4.0404520000"><ele>154</ele><time>2016-09-30T12:37:05Z</time></trkpt>
<trkpt lat="53.0155920000" lon="-4.0404650000"><ele>154</ele><time>2016-09-30T12:37:06Z</time></trkpt>
<trkpt lat="53.0155730000" lon="-4.0404970000"><ele>154</ele><time>2016-09-30T12:37:08Z</time></trkpt>
<trkpt lat="53.0155660000" lon="-4.0405110000"><ele>154</ele><time>2016-09-30T12:37:09Z</time></trkpt>
<trkpt lat="53.0155570000" lon="-4.0405220000"><ele>154</ele><time>2016-09-30T12:37:10Z</time></trkpt>
<trkpt lat="53.0155460000" lon="-4.0405330000"><ele>154</ele><time>2016-09-30T12:37:11Z</time></trkpt>
<trkpt lat="53.0155360000" lon="-4.0405410000"><ele>154</ele><time>2016-09-30T12:37:12Z</time></trkpt>
<trkpt lat="53.0155240000" lon="-4.0405520000"><ele>154</ele><time>2016-09-30T12:37:13Z</time></trkpt>
<trkpt lat="53.0155120000" lon="-4.0405650000"><ele>154</ele><time>2016-09-30T12:37:14Z</time></trkpt>
<trkpt lat="53.0154990000" lon="-4.0405810000"><ele>154</ele><time>2016-09-30T12:37:15Z</time></trkpt>
<trkpt lat="53.0154890000" lon="-4.0405990000"><ele>154</ele><time>2016-09-30T12:37:16Z</time></trkpt>
<trkpt lat="53.0154840000" lon="-4.0406160000"><ele>154</ele><time>2016-09-30T12:37:17Z</time></trkpt>
<trkpt lat="53.0154740000" lon="-4.0406290000"><ele>154</ele><time>2016-09-30T12:37:18Z</time></trkpt>
<trkpt lat="53.0154630000" lon="-4.0406430000"><ele>154</ele><time>2016-09-30T12:37:19Z</time></trkpt>
<trkpt lat="53.0154540000" lon="-4.0406610000"><ele>154</ele><time>2016-09-30T12:37:20Z</time></trkpt>
<trkpt lat="53.0154470000" lon="-4.0406750000"><ele>154</ele><time>2016-09-30T12:37:21Z</time></trkpt>
<trkpt lat="53.0154390000" lon="-4.0406900000"><ele>154</ele><time>2016-09-30T12:37:22Z</time></trkpt>
<trkpt lat="53.0154290000" lon="-4.0407060000"><ele>154</ele><time>2016-09-30T12:37:23Z</time></trkpt>
<trkpt lat="53.0154230000" lon="-4.0407230000"><ele>154</ele><time>2016-09-30T12:37:24Z</time></trkpt>
<trkpt lat="53.0154150000" lon="-4.0407440000"><ele>154</ele><time>2016-09-30T12:37:25Z</time></trkpt>
<trkpt lat="53.0154060000" lon="-4.0407630000"><ele>154</ele><time>2016-09-30T12:37:26Z</time></trkpt>
<trkpt lat="53.0153970000" lon="-4.0407770000"><ele>154</ele><time>2016-09-30T12:37:27Z</time></trkpt>
<trkpt lat="53.0153900000" lon="-4.0407940000"><ele>154</ele><time>2016-09-30T12:37:28Z</time></trkpt>
<trkpt lat="53.0153830000" lon="-4.0408090000"><ele>154</ele><time>2016-09-30T12:37:29Z</time></trkpt>
<trkpt lat="53.0153750000" lon="-4.0408230000"><ele>154</ele><time>2016-09-30T12:37:30Z</time></trkpt>
<trkpt lat="53.0153680000" lon="-4.0408390000"><ele>154</ele><time>2016-09-30T12:37:31Z</time></trkpt>
<trkpt lat="53.0153600000" lon="-4.0408520000"><ele>154</ele><time>2016-09-30T12:37:32Z</time></trkpt>
<trkpt lat="53.0153510000" lon="-4.0408710000"><ele>154</ele><time>2016-09-30T12:37:33Z</time></trkpt>
<trkpt lat="53.0153420000" lon="-4.0408860000"><ele>154</ele><time>2016-09-30T12:37:34Z</time></trkpt>
<trkpt lat="53.0153330000" lon="-4.0409000000"><ele>154</ele><time>2016-09-30T12:37:35Z</time></trkpt>
<trkpt lat="53.0153250000" lon="-4.0409150000"><ele>153</ele><time>2016-09-30T12:37:36Z</time></trkpt>
<trkpt lat="53.0153140000" lon="-4.0409300000"><ele>153</ele><time>2016-09-30T12:37:37Z</time></trkpt>
<trkpt lat="53.0153020000" lon="-4.0409450000"><ele>153</ele><time>2016-09-30T12:37:38Z</time></trkpt>
<trkpt lat="53.0152920000" lon="-4.0409580000"><ele>153</ele><time>2016-09-30T12:37:39Z</time></trkpt>
<trkpt lat="53.0152800000" lon="-4.0409730000"><ele>153</ele><time>2016-09-30T12:37:40Z</time></trkpt>
<trkpt lat="53.0152680000" lon="-4.0409880000"><ele>153</ele><time>2016-09-30T12:37:41Z</time></trkpt>
<trkpt lat="53.0152580000" lon="-4.0410040000"><ele>153</ele><time>2016-09-30T12:37:42Z</time></trkpt>
<trkpt lat="53.0152470000" lon="-4.0410170000"><ele>153</ele><time>2016-09-30T12:37:43Z</time></trkpt>
<trkpt lat="53.0152360000" lon="-4.0410310000"><ele>153</ele><time>2016-09-30T12:37:44Z</time></trkpt>
<trkpt lat="53.0152250000" lon="-4.0410460000"><ele>153</ele><time>2016-09-30T12:37:45Z</time></trkpt>
<trkpt lat="53.0152150000" lon="-4.0410580000"><ele>153</ele><time>2016-09-30T12:37:46Z</time></trkpt>
<trkpt lat="53.0152030000" lon="-4.0410690000"><ele>153</ele><time>2016-09-30T12:37:47Z</time></trkpt>
<trkpt lat="53.0151890000" lon="-4.0410770000"><ele>153</ele><time>2016-09-30T12:37:48Z</time></trkpt>
<trkpt lat="53.0151750000" lon="-4.0410850000"><ele>153</ele><time>2016-09-30T12:37:49Z</time></trkpt>
<trkpt lat="53.0151620000" lon="-4.0410950000"><ele>153</ele><time>2016-09-30T12:37:50Z</time></trkpt>
<trkpt lat="53.0151540000" lon="-4.0411050000"><ele>154</ele><time>2016-09-30T12:37:51Z</time></trkpt>
<trkpt lat="53.0151450000" lon="-4.0411100000"><ele>154</ele><time>2016-09-30T12:37:52Z</time></trkpt>
<trkpt lat="53.0151350000" lon="-4.0411180000"><ele>154</ele><time>2016-09-30T12:37:53Z</time></trkpt>
<trkpt lat="53.0151220000" lon="-4.0411240000"><ele>154</ele><time>2016-09-30T12:37:54Z</time></trkpt>
<trkpt lat="53.0151080000" lon="-4.0411310000"><ele>154</ele><time>2016-09-30T12:37:55Z</time></trkpt>
<trkpt lat="53.0150940000" lon="-4.0411400000"><ele>154</ele><time>2016-09-30T12:37:56Z</time></trkpt>
<trkpt lat="53.0150810000" lon="-4.0411520000"><ele>155</ele><time>2016-09-30T12:37:57Z</time></trkpt>
<trkpt lat="53.0150650000" lon="-4.0411610000"><ele>155</ele><time>2016-09-30T12:37:58Z</time></trkpt>
<trkpt lat="53.0150500000" lon="-4.0411680000"><ele>155</ele><time>2016-09-30T12:37:59Z</time></trkpt>
<trkpt lat="53.0150340000" lon="-4.0411710000"><ele>155</ele><time>2016-09-30T12:38:00Z</time></trkpt>
<trkpt lat="53.0150210000" lon="-4.0411820000"><ele>155</ele><time>2016-09-30T12:38:01Z</time></trkpt>
<trkpt lat="53.0150100000" lon="-4.0411960000"><ele>156</ele><time>2016-09-30T12:38:02Z</time></trkpt>
<trkpt lat="53.0149990000" lon="-4.0412030000"><ele>156</ele><time>2016-09-30T12:38:03Z</time></trkpt>
<trkpt lat="53.0149880000" lon="-4.0412110000"><ele>156</ele><time>2016-09-30T12:38:04Z</time></trkpt>
<trkpt lat="53.0149780000" lon="-4.0412170000"><ele>156</ele><time>2016-09-30T12:38:05Z</time></trkpt>
<trkpt lat="53.0149670000" lon="-4.0412230000"><ele>156</ele><time>2016-09-30T12:38:06Z</time></trkpt>
<trkpt lat="53.0149390000" lon="-4.0412370000"><ele>157</ele><time>2016-09-30T12:38:08Z</time></trkpt>
<trkpt lat="53.0149270000" lon="-4.0412450000"><ele>157</ele><time>2016-09-30T12:38:09Z</time></trkpt>
<trkpt lat="53.0149160000" lon="-4.0412520000"><ele>157</ele><time>2016-09-30T12:38:10Z</time></trkpt>
<trkpt lat="53.0149020000" lon="-4.0412570000"><ele>157</ele><time>2016-09-30T12:38:11Z</time></trkpt>
<trkpt lat="53.0148890000" lon="-4.0412630000"><ele>157</ele><time>2016-09-30T12:38:12Z</time></trkpt>
<trkpt lat="53.0148780000" lon="-4.0412710000"><ele>158</ele><time>2016-09-30T12:38:13Z</time></trkpt>
<trkpt lat="53.0148650000" lon="-4.0412780000"><ele>158</ele><time>2016-09-30T12:38:14Z</time></trkpt>
<trkpt lat="53.0148540000" lon="-4.0412880000"><ele>158</ele><time>2016-09-30T12:38:15Z</time></trkpt>
<trkpt lat="53.0148410000" lon="-4.0412940000"><ele>158</ele><time>2016-09-30T12:38:16Z</time></trkpt>
<trkpt lat="53.0148280000" lon="-4.0413020000"><ele>158</ele><time>2016-09-30T12:38:17Z</time></trkpt>
<trkpt lat="53.0148160000" lon="-4.0413080000"><ele>159</ele><time>2016-09-30T12:38:18Z</time></trkpt>
<trkpt lat="53.0148040000" lon="-4.0413150000"><ele>159</ele><time>2016-09-30T12:38:19Z</time></trkpt>
<trkpt lat="53.0147920000" lon="-4.0413230000"><ele>159</ele><time>2016-09-30T12:38:20Z</time></trkpt>
<trkpt lat="53.0147800000" lon="-4.0413320000"><ele>159</ele><time>2016-09-30T12:38:21Z</time></trkpt>
<trkpt lat="53.0147700000" lon="-4.0413400000"><ele>159</ele><time>2016-09-30T12:38:22Z</time></trkpt>
<trkpt lat="53.0147560000" lon="-4.0413500000"><ele>160</ele><time>2016-09-30T12:38:23Z</time></trkpt>
<trkpt lat="53.0147440000" lon="-4.0413590000"><ele>160</ele><time>2016-09-30T12:38:24Z</time></trkpt>
<trkpt lat="53.0147350000" lon="-4.0413670000"><ele>160</ele><time>2016-09-30T12:38:25Z</time></trkpt>
<trkpt lat="53.0147350000" lon="-4.0413670000"><ele>160</ele><time>2016-09-30T12:38:26Z</time></trkpt>
<trkpt lat="53.0147350000" lon="-4.0413670000"><ele>160</ele><time>2016-09-30T12:38:27Z</time></trkpt>
<trkpt lat="53.0147350000" lon="-4.0413670000"><ele>160</ele><time>2016-09-30T12:38:28Z</time></trkpt>
<trkpt lat="53.0147340000" lon="-4.0413680000"><ele>160</ele><time>2016-09-30T12:38:29Z</time></trkpt>
<trkpt lat="53.0147330000" lon="-4.0413690000"><ele>160</ele><time>2016-09-30T12:38:30Z</time></trkpt>
<trkpt lat="53.0147310000" lon="-4.0413710000"><ele>159</ele><time>2016-09-30T12:38:31Z</time></trkpt>
<trkpt lat="53.0147290000" lon="-4.0413730000"><ele>159</ele><time>2016-09-30T12:38:32Z</time></trkpt>
<trkpt lat="53.0147260000" lon="-4.0413750000"><ele>159</ele><time>2016-09-30T12:38:33Z</time></trkpt>
<trkpt lat="53.0147230000" lon="-4.0413780000"><ele>159</ele><time>2016-09-30T12:38:34Z</time></trkpt>
<trkpt lat="53.0147190000" lon="-4.0413820000"><ele>159</ele><time>2016-09-30T12:38:35Z</time></trkpt>
<trkpt lat="53.0147150000" lon="-4.0413860000"><ele>159</ele><time>2016-09-30T12:38:36Z</time></trkpt>
<trkpt lat="53.0147100000" lon="-4.0413910000"><ele>159</ele><time>2016-09-30T12:38:37Z</time></trkpt>
<trkpt lat="53.0147050000" lon="-4.0413960000"><ele>158</ele><time>2016-09-30T12:38:38Z</time></trkpt>
<trkpt lat="53.0146990000" lon="-4.0414020000"><ele>158</ele><time>2016-09-30T12:38:39Z</time></trkpt>
<trkpt lat="53.0146920000" lon="-4.0414090000"><ele>158</ele><time>2016-09-30T12:38:40Z</time></trkpt>
<trkpt lat="53.0146860000" lon="-4.0414160000"><ele>158</ele><time>2016-09-30T12:38:41Z</time></trkpt>
<trkpt lat="53.0146780000" lon="-4.0414230000"><ele>158</ele><time>2016-09-30T12:38:42Z</time></trkpt>
<trkpt lat="53.0146700000" lon="-4.0414300000"><ele>158</ele><time>2016-09-30T12:38:43Z</time></trkpt>
<trkpt lat="53.0146610000" lon="-4.0414370000"><ele>158</ele><time>2016-09-30T12:38:44Z</time></trkpt>
<trkpt lat="53.0146520000" lon="-4.0414450000"><ele>157</ele><time>2016-09-30T12:38:45Z</time></trkpt>
<trkpt lat="53.0144730000" lon="-4.0415840000"><ele>157</ele><time>2016-09-30T12:38:46Z</time></trkpt>
<trkpt lat="53.0144590000" lon="-4.0415890000"><ele>157</ele><time>2016-09-30T12:38:47Z</time></trkpt>
<trkpt lat="53.0144440000" lon="-4.0415930000"><ele>157</ele><time>2016-09-30T12:38:48Z</time></trkpt>
<trkpt lat="53.0144280000" lon="-4.0416010000"><ele>157</ele><time>2016-09-30T12:38:49Z</time></trkpt>
<trkpt lat="53.0144130000" lon="-4.0416060000"><ele>157</ele><time>2016-09-30T12:38:50Z</time></trkpt>
<trkpt lat="53.0143950000" lon="-4.0416080000"><ele>157</ele><time>2016-09-30T12:38:51Z</time></trkpt>
<trkpt lat="53.0143790000" lon="-4.0416150000"><ele>157</ele><time>2016-09-30T12:38:52Z</time></trkpt>
<trkpt lat="53.0143660000" lon="-4.0416210000"><ele>157</ele><time>2016-09-30T12:38:53Z</time></trkpt>
<trkpt lat="53.0143540000" lon="-4.0416240000"><ele>158</ele><time>2016-09-30T12:38:54Z</time></trkpt>
<trkpt lat="53.0143410000" lon="-4.0416260000"><ele>158</ele><time>2016-09-30T12:38:55Z</time></trkpt>
<trkpt lat="53.0143320000" lon="-4.0416320000"><ele>158</ele><time>2016-09-30T12:38:56Z</time></trkpt>
<trkpt lat="53.0143320000" lon="-4.0416320000"><ele>158</ele><time>2016-09-30T12:38:57Z</time></trkpt>
<trkpt lat="53.0143320000" lon="-4.0416320000"><ele>158</ele><time>2016-09-30T12:38:58Z</time></trkpt>
<trkpt lat="53.0143310000" lon="-4.0416320000"><ele>158</ele><time>2016-09-30T12:38:59Z</time></trkpt>
<trkpt lat="53.0143310000" lon="-4.0416320000"><ele>158</ele><time>2016-09-30T12:39:00Z</time></trkpt>
<trkpt lat="53.0143290000" lon="-4.0416330000"><ele>158</ele><time>2016-09-30T12:39:01Z</time></trkpt>
<trkpt lat="53.0143280000" lon="-4.0416330000"><ele>158</ele><time>2016-09-30T12:39:02Z</time></trkpt>
<trkpt lat="53.0143250000" lon="-4.0416340000"><ele>158</ele><time>2016-09-30T12:39:03Z</time></trkpt>
<trkpt lat="53.0143230000" lon="-4.0416350000"><ele>158</ele><time>2016-09-30T12:39:04Z</time></trkpt>
<trkpt lat="53.0143190000" lon="-4.0416370000"><ele>158</ele><time>2016-09-30T12:39:05Z</time></trkpt>
<trkpt lat="53.0143150000" lon="-4.0416380000"><ele>158</ele><time>2016-09-30T12:39:06Z</time></trkpt>
<trkpt lat="53.0143060000" lon="-4.0416420000"><ele>158</ele><time>2016-09-30T12:39:08Z</time></trkpt>
<trkpt lat="53.0143000000" lon="-4.0416450000"><ele>158</ele><time>2016-09-30T12:39:09Z</time></trkpt>
<trkpt lat="53.0142930000" lon="-4.0416480000"><ele>158</ele><time>2016-09-30T12:39:10Z</time></trkpt>
<trkpt lat="53.0142860000" lon="-4.0416520000"><ele>158</ele><time>2016-09-30T12:39:11Z</time></trkpt>
<trkpt lat="53.0142790000" lon="-4.0416550000"><ele>158</ele><time>2016-09-30T12:39:12Z</time></trkpt>
<trkpt lat="53.0142700000" lon="-4.0416590000"><ele>158</ele><time>2016-09-30T12:39:13Z</time></trkpt>
<trkpt lat="53.0140990000" lon="-4.0417430000"><ele>158</ele><time>2016-09-30T12:39:14Z</time></trkpt>
<trkpt lat="53.0140860000" lon="-4.0417460000"><ele>158</ele><time>2016-09-30T12:39:15Z</time></trkpt>
<trkpt lat="53.0140700000" lon="-4.0417460000"><ele>158</ele><time>2016-09-30T12:39:16Z</time></trkpt>
<trkpt lat="53.0140550000" lon="-4.0417470000"><ele>158</ele><time>2016-09-30T12:39:17Z</time></trkpt>
<trkpt lat="53.0140390000" lon="-4.0417480000"><ele>158</ele><time>2016-09-30T12:39:18Z</time></trkpt>
<trkpt lat="53.0140220000" lon="-4.0417530000"><ele>158</ele><time>2016-09-30T12:39:19Z</time></trkpt>
<trkpt lat="53.0140100000" lon="-4.0417560000"><ele>158</ele><time>2016-09-30T12:39:20Z</time></trkpt>
<trkpt lat="53.0139980000" lon="-4.0417610000"><ele>158</ele><time>2016-09-30T12:39:21Z</time></trkpt>
<trkpt lat="53.0139840000" lon="-4.0417660000"><ele>158</ele><time>2016-09-30T12:39:22Z</time></trkpt>
<trkpt lat="53.0139720000" lon="-4.0417700000"><ele>158</ele><time>2016-09-30T12:39:23Z</time></trkpt>
<trkpt lat="53.0139600000" lon="-4.0417730000"><ele>158</ele><time>2016-09-30T12:39:24Z</time></trkpt>
<trkpt lat="53.0139460000" lon="-4.0417780000"><ele>158</ele><time>2016-09-30T12:39:25Z</time></trkpt>
<trkpt lat="53.0139340000" lon="-4.0417840000"><ele>158</ele><time>2016-09-30T12:39:26Z</time></trkpt>
<trkpt lat="53.0139220000" lon="-4.0417870000"><ele>157</ele><time>2016-09-30T12:39:27Z</time></trkpt>
<trkpt lat="53.0139070000" lon="-4.0417880000"><ele>157</ele><time>2016-09-30T12:39:28Z</time></trkpt>
<trkpt lat="53.0138950000" lon="-4.0417940000"><ele>157</ele><time>2016-09-30T12:39:29Z</time></trkpt>
<trkpt lat="53.0138840000" lon="-4.0418040000"><ele>157</ele><time>2016-09-30T12:39:30Z</time></trkpt>
<trkpt lat="53.0138730000" lon="-4.0418140000"><ele>157</ele><time>2016-09-30T12:39:31Z</time></trkpt>
<trkpt lat="53.0138600000" lon="-4.0418240000"><ele>157</ele><time>2016-09-30T12:39:32Z</time></trkpt>
<trkpt lat="53.0138480000" lon="-4.0418340000"><ele>157</ele><time>2016-09-30T12:39:33Z</time></trkpt>
<trkpt lat="53.0138360000" lon="-4.0418420000"><ele>157</ele><time>2016-09-30T12:39:34Z</time></trkpt>
<trkpt lat="53.0138230000" lon="-4.0418490000"><ele>157</ele><time>2016-09-30T12:39:35Z</time></trkpt>
<trkpt lat="53.0138120000" lon="-4.0418560000"><ele>157</ele><time>2016-09-30T12:39:36Z</time></trkpt>
<trkpt lat="53.0138000000" lon="-4.0418630000"><ele>156</ele><time>2016-09-30T12:39:37Z</time></trkpt>
<trkpt lat="53.0137890000" lon="-4.0418710000"><ele>156</ele><time>2016-09-30T12:39:38Z</time></trkpt>
<trkpt lat="53.0137780000" lon="-4.0418790000"><ele>156</ele><time>2016-09-30T12:39:39Z</time></trkpt>
<trkpt lat="53.0137680000" lon="-4.0418840000"><ele>156</ele><time>2016-09-30T12:39:40Z</time></trkpt>
<trkpt lat="53.0137580000" lon="-4.0418880000"><ele>155</ele><time>2016-09-30T12:39:41Z</time></trkpt>
<trkpt lat="53.0137450000" lon="-4.0418970000"><ele>155</ele><time>2016-09-30T12:39:42Z</time></trkpt>
<trkpt lat="53.0137330000" lon="-4.0419070000"><ele>155</ele><time>2016-09-30T12:39:43Z</time></trkpt>
<trkpt lat="53.0137210000" lon="-4.0419150000"><ele>155</ele><time>2016-09-30T12:39:44Z</time></trkpt>
<trkpt lat="53.0137100000" lon="-4.0419250000"><ele>155</ele><time>2016-09-30T12:39:45Z</time></trkpt>
<trkpt lat="53.0136990000" lon="-4.0419330000"><ele>154</ele><time>2016-09-30T12:39:46Z</time></trkpt>
<trkpt lat="53.0136860000" lon="-4.0419390000"><ele>154</ele><time>2016-09-30T12:39:47Z</time></trkpt>
<trkpt lat="53.0136730000" lon="-4.0419440000"><ele>154</ele><time>2016-09-30T12:39:48Z</time></trkpt>
<trkpt lat="53.0136600000" lon="-4.0419510000"><ele>154</ele><time>2016-09-30T12:39:49Z</time></trkpt>
<trkpt lat="53.0136480000" lon="-4.0419550000"><ele>154</ele><time>2016-09-30T12:39:50Z</time></trkpt>
<trkpt lat="53.0136350000" lon="-4.0419640000"><ele>154</ele><time>2016-09-30T12:39:51Z</time></trkpt>
<trkpt lat="53.0136210000" lon="-4.0419730000"><ele>153</ele><time>2016-09-30T12:39:52Z</time></trkpt>
<trkpt lat="53.0136080000" lon="-4.0419810000"><ele>153</ele><time>2016-09-30T12:39:53Z</time></trkpt>
<trkpt lat="53.0135950000" lon="-4.0419860000"><ele>153</ele><time>2016-09-30T12:39:54Z</time></trkpt>
<trkpt lat="53.0135830000" lon="-4.0419910000"><ele>153</ele><time>2016-09-30T12:39:55Z</time></trkpt>
<trkpt lat="53.0135720000" lon="-4.0419950000"><ele>153</ele><time>2016-09-30T12:39:56Z</time></trkpt>
<trkpt lat="53.0135600000" lon="-4.0420000000"><ele>153</ele><time>2016-09-30T12:39:57Z</time></trkpt>
<trkpt lat="53.0135490000" lon="-4.0420090000"><ele>152</ele><time>2016-09-30T12:39:58Z</time></trkpt>
<trkpt lat="53.0135390000" lon="-4.0420150000"><ele>152</ele><time>2016-09-30T12:39:59Z</time></trkpt>
<trkpt lat="53.0135250000" lon="-4.0420160000"><ele>152</ele><time>2016-09-30T12:40:00Z</time></trkpt>
<trkpt lat="53.0135130000" lon="-4.0420210000"><ele>152</ele><time>2016-09-30T12:40:01Z</time></trkpt>
<trkpt lat="53.0135020000" lon="-4.0420300000"><ele>152</ele><time>2016-09-30T12:40:02Z</time></trkpt>
<trkpt lat="53.0134890000" lon="-4.0420360000"><ele>152</ele><time>2016-09-30T12:40:03Z</time></trkpt>
<trkpt lat="53.0134770000" lon="-4.0420430000"><ele>152</ele><time>2016-09-30T12:40:04Z</time></trkpt>
<trkpt lat="53.0134650000" lon="-4.0420490000"><ele>152</ele><time>2016-09-30T12:40:05Z</time></trkpt>
<trkpt lat="53.0134530000" lon="-4.0420610000"><ele>151</ele><time>2016-09-30T12:40:06Z</time></trkpt>
<trkpt lat="53.0134320000" lon="-4.0420760000"><ele>151</ele><time>2016-09-30T12:40:08Z</time></trkpt>
<trkpt lat="53.0134220000" lon="-4.0420830000"><ele>151</ele><time>2016-09-30T12:40:09Z</time></trkpt>
<trkpt lat="53.0134100000" lon="-4.0420930000"><ele>151</ele><time>2016-09-30T12:40:10Z</time></trkpt>
<trkpt lat="53.0133980000" lon="-4.0421070000"><ele>151</ele><time>2016-09-30T12:40:11Z</time></trkpt>
<trkpt lat="53.0133890000" lon="-4.0421220000"><ele>151</ele><time>2016-09-30T12:40:12Z</time></trkpt>
<trkpt lat="53.0133780000" lon="-4.0421380000"><ele>151</ele><time>2016-09-30T12:40:13Z</time></trkpt>
<trkpt lat="53.0133650000" lon="-4.0421530000"><ele>151</ele><time>2016-09-30T12:40:14Z</time></trkpt>
<trkpt lat="53.0133520000" lon="-4.0421650000"><ele>151</ele><time>2016-09-30T12:40:15Z</time></trkpt>
<trkpt lat="53.0133410000" lon="-4.0421730000"><ele>151</ele><time>2016-09-30T12:40:16Z</time></trkpt>
<trkpt lat="53.0133310000" lon="-4.0421830000"><ele>151</ele><time>2016-09-30T12:40:17Z</time></trkpt>
<trkpt lat="53.0133200000" lon="-4.0421990000"><ele>151</ele><time>2016-09-30T12:40:18Z</time></trkpt>
<trkpt lat="53.0133090000" lon="-4.0422120000"><ele>150</ele><time>2016-09-30T12:40:19Z</time></trkpt>
<trkpt lat="53.0132990000" lon="-4.0422210000"><ele>150</ele><time>2016-09-30T12:40:20Z</time></trkpt>
<trkpt lat="53.0132860000" lon="-4.0422290000"><ele>150</ele><time>2016-09-30T12:40:21Z</time></trkpt>
<trkpt lat="53.0132750000" lon="-4.0422410000"><ele>150</ele><time>2016-09-30T12:40:22Z</time></trkpt>
<trkpt lat="53.0132660000" lon="-4.0422530000"><ele>150</ele><time>2016-09-30T12:40:23Z</time></trkpt>
<trkpt lat="53.0132560000" lon="-4.0422650000"><ele>150</ele><time>2016-09-30T12:40:24Z</time></trkpt>
<trkpt lat="53.0132470000" lon="-4.0422760000"><ele>150</ele><time>2016-09-30T12:40:25Z</time></trkpt>
<trkpt lat="53.0132360000" lon="-4.0422860000"><ele>150</ele><time>2016-09-30T12:40:26Z</time></trkpt>
<trkpt lat="53.0132270000" lon="-4.0422970000"><ele>150</ele><time>2016-09-30T12:40:27Z</time></trkpt>
<trkpt lat="53.0132170000" lon="-4.0423100000"><ele>150</ele><time>2016-09-30T12:40:28Z</time></trkpt>
<trkpt lat="53.0132050000" lon="-4.0423200000"><ele>150</ele><time>2016-09-30T12:40:29Z</time></trkpt>
<trkpt lat="53.0131940000" lon="-4.0423220000"><ele>149</ele><time>2016-09-30T12:40:30Z</time></trkpt>
<trkpt lat="53.0131840000" lon="-4.0423220000"><ele>149</ele><time>2016-09-30T12:40:31Z</time></trkpt>
<trkpt lat="53.0131840000" lon="-4.0423220000"><ele>149</ele><time>2016-09-30T12:40:32Z</time></trkpt>
<trkpt lat="53.0131840000" lon="-4.0423220000"><ele>149</ele><time>2016-09-30T12:40:33Z</time></trkpt>
<trkpt lat="53.0131470000" lon="-4.0423590000"><ele>149</ele><time>2016-09-30T12:40:34Z</time></trkpt>
<trkpt lat="53.0131350000" lon="-4.0423730000"><ele>149</ele><time>2016-09-30T12:40:35Z</time></trkpt>
<trkpt lat="53.0131270000" lon="-4.0423850000"><ele>149</ele><time>2016-09-30T12:40:36Z</time></trkpt>
<trkpt lat="53.0131140000" lon="-4.0424010000"><ele>149</ele><time>2016-09-30T12:40:37Z</time></trkpt>
<trkpt lat="53.0131030000" lon="-4.0424190000"><ele>148</ele><time>2016-09-30T12:40:38Z</time></trkpt>
<trkpt lat="53.0130900000" lon="-4.0424310000"><ele>148</ele><time>2016-09-30T12:40:39Z</time></trkpt>
<trkpt lat="53.0130780000" lon="-4.0424430000"><ele>148</ele><time>2016-09-30T12:40:40Z</time></trkpt>
<trkpt lat="53.0130670000" lon="-4.0424550000"><ele>148</ele><time>2016-09-30T12:40:41Z</time></trkpt>
<trkpt lat="53.0130550000" lon="-4.0424640000"><ele>148</ele><time>2016-09-30T12:40:42Z</time></trkpt>
<trkpt lat="53.0130410000" lon="-4.0424790000"><ele>148</ele><time>2016-09-30T12:40:43Z</time></trkpt>
<trkpt lat="53.0130300000" lon="-4.0424930000"><ele>148</ele><time>2016-09-30T12:40:44Z</time></trkpt>
<trkpt lat="53.0130200000" lon="-4.0425060000"><ele>148</ele><time>2016-09-30T12:40:45Z</time></trkpt>
<trkpt lat="53.0130060000" lon="-4.0425220000"><ele>148</ele><time>2016-09-30T12:40:46Z</time></trkpt>
<trkpt lat="53.0129940000" lon="-4.0425350000"><ele>148</ele><time>2016-09-30T12:40:47Z</time></trkpt>
<trkpt lat="53.0129830000" lon="-4.0425460000"><ele>148</ele><time>2016-09-30T12:40:48Z</time></trkpt>
<trkpt lat="53.0129730000" lon="-4.0425560000"><ele>148</ele><time>2016-09-30T12:40:49Z</time></trkpt>
<trkpt lat="53.0129650000" lon="-4.0425690000"><ele>148</ele><time>2016-09-30T12:40:50Z</time></trkpt>
<trkpt lat="53.0129570000" lon="-4.0425820000"><ele>148</ele><time>2016-09-30T12:40:51Z</time></trkpt>
<trkpt lat="53.0129570000" lon="-4.0425820000"><ele>148</ele><time>2016-09-30T12:40:52Z</time></trkpt>
<trkpt lat="53.0129570000" lon="-4.0425820000"><ele>148</ele><time>2016-09-30T12:40:53Z</time></trkpt>
<trkpt lat="53.0129560000" lon="-4.0425830000"><ele>148</ele><time>2016-09-30T12:40:54Z</time></trkpt>
<trkpt lat="53.0129560000" lon="-4.0425830000"><ele>148</ele><time>2016-09-30T12:40:55Z</time></trkpt>
<trkpt lat="53.0129540000" lon="-4.0425840000"><ele>148</ele><time>2016-09-30T12:40:56Z</time></trkpt>
<trkpt lat="53.0129530000" lon="-4.0425840000"><ele>148</ele><time>2016-09-30T12:40:57Z</time></trkpt>
<trkpt lat="53.0129510000" lon="-4.0425860000"><ele>148</ele><time>2016-09-30T12:40:58Z</time></trkpt>
<trkpt lat="53.0129490000" lon="-4.0425870000"><ele>148</ele><time>2016-09-30T12:40:59Z</time></trkpt>
<trkpt lat="53.0129460000" lon="-4.0425890000"><ele>148</ele><time>2016-09-30T12:41:00Z</time></trkpt>
<trkpt lat="53.0129430000" lon="-4.0425910000"><ele>148</ele><time>2016-09-30T12:41:01Z</time></trkpt>
<trkpt lat="53.0129390000" lon="-4.0425940000"><ele>148</ele><time>2016-09-30T12:41:02Z</time></trkpt>
<trkpt lat="53.0129350000" lon="-4.0425980000"><ele>148</ele><time>2016-09-30T12:41:03Z</time></trkpt>
<trkpt lat="53.0129310000" lon="-4.0426010000"><ele>148</ele><time>2016-09-30T12:41:04Z</time></trkpt>
<trkpt lat="53.0129260000" lon="-4.0426050000"><ele>149</ele><time>2016-09-30T12:41:05Z</time></trkpt>
<trkpt lat="53.0129210000" lon="-4.0426100000"><ele>149</ele><time>2016-09-30T12:41:06Z</time></trkpt>
<trkpt lat="53.0129090000" lon="-4.0426200000"><ele>149</ele><time>2016-09-30T12:41:08Z</time></trkpt>
<trkpt lat="53.0129030000" lon="-4.0426260000"><ele>149</ele><time>2016-09-30T12:41:09Z</time></trkpt>
<trkpt lat="53.0128950000" lon="-4.0426330000"><ele>149</ele><time>2016-09-30T12:41:10Z</time></trkpt>
<trkpt lat="53.0128870000" lon="-4.0426400000"><ele>149</ele><time>2016-09-30T12:41:11Z</time></trkpt>
<trkpt lat="53.0128780000" lon="-4.0426480000"><ele>149</ele><time>2016-09-30T12:41:12Z</time></trkpt>
<trkpt lat="53.0128690000" lon="-4.0426570000"><ele>149</ele><time>2016-09-30T12:41:13Z</time></trkpt>
<trkpt lat="53.0128600000" lon="-4.0426650000"><ele>149</ele><time>2016-09-30T12:41:14Z</time></trkpt>
<trkpt lat="53.0126810000" lon="-4.0428410000"><ele>149</ele><time>2016-09-30T12:41:15Z</time></trkpt>
<trkpt lat="53.0126690000" lon="-4.0428500000"><ele>149</ele><time>2016-09-30T12:41:16Z</time></trkpt>
<trkpt lat="53.0126550000" lon="-4.0428590000"><ele>149</ele><time>2016-09-30T12:41:17Z</time></trkpt>
<trkpt lat="53.0126440000" lon="-4.0428750000"><ele>149</ele><time>2016-09-30T12:41:18Z</time></trkpt>
<trkpt lat="53.0126320000" lon="-4.0428900000"><ele>149</ele><time>2016-09-30T12:41:19Z</time></trkpt>
<trkpt lat="53.0126200000" lon="-4.0429060000"><ele>150</ele><time>2016-09-30T12:41:20Z</time></trkpt>
<trkpt lat="53.0126080000" lon="-4.0429170000"><ele>150</ele><time>2016-09-30T12:41:21Z</time></trkpt>
<trkpt lat="53.0125970000" lon="-4.0429300000"><ele>150</ele><time>2016-09-30T12:41:22Z</time></trkpt>
<trkpt lat="53.0125850000" lon="-4.0429440000"><ele>150</ele><time>2016-09-30T12:41:23Z</time></trkpt>
<trkpt lat="53.0125730000" lon="-4.0429560000"><ele>150</ele><time>2016-09-30T12:41:24Z</time></trkpt>
<trkpt lat="53.0125590000" lon="-4.0429620000"><ele>150</ele><time>2016-09-30T12:41:25Z</time></trkpt>
<trkpt lat="53.0125450000" lon="-4.0429740000"><ele>151</ele><time>2016-09-30T12:41:26Z</time></trkpt>
<trkpt lat="53.0125310000" lon="-4.0429810000"><ele>151</ele><time>2016-09-30T12:41:27Z</time></trkpt>
<trkpt lat="53.0125180000" lon="-4.0429860000"><ele>151</ele><time>2016-09-30T12:41:28Z</time></trkpt>
<trkpt lat="53.0125050000" lon="-4.0429970000"><ele>152</ele><time>2016-09-30T12:41:29Z</time></trkpt>
<trkpt lat="53.0124950000" lon="-4.0430110000"><ele>152</ele><time>2016-09-30T12:41:30Z</time></trkpt>
<trkpt lat="53.0124810000" lon="-4.0430230000"><ele>152</ele><time>2016-09-30T12:41:31Z</time></trkpt>
<trkpt lat="53.0124700000" lon="-4.0430340000"><ele>152</ele><time>2016-09-30T12:41:32Z</time></trkpt>
<trkpt lat="53.0124600000" lon="-4.0430470000"><ele>153</ele><time>2016-09-30T12:41:33Z</time></trkpt>
<trkpt lat="53.0124500000" lon="-4.0430600000"><ele>153</ele><time>2016-09-30T12:41:34Z</time></trkpt>
<trkpt lat="53.0124400000" lon="-4.0430710000"><ele>153</ele><time>2016-09-30T12:41:35Z</time></trkpt>
<trkpt lat="53.0124290000" lon="-4.0430830000"><ele>153</ele><time>2016-09-30T12:41:36Z</time></trkpt>
<trkpt lat="53.0124190000" lon="-4.0430960000"><ele>153</ele><time>2016-09-30T12:41:37Z</time></trkpt>
<trkpt lat="53.0124100000" lon="-4.0431060000"><ele>153</ele><time>2016-09-30T12:41:38Z</time></trkpt>
<trkpt lat="53.0124020000" lon="-4.0431200000"><ele>153</ele><time>2016-09-30T12:41:39Z</time></trkpt>
<trkpt lat="53.0123940000" lon="-4.0431340000"><ele>153</ele><time>2016-09-30T12:41:40Z</time></trkpt>
<trkpt lat="53.0123850000" lon="-4.0431440000"><ele>153</ele><time>2016-09-30T12:41:41Z</time></trkpt>
<trkpt lat="53.0123750000" lon="-4.0431580000"><ele>153</ele><time>2016-09-30T12:41:42Z</time></trkpt>
<trkpt lat="53.0123680000" lon="-4.0431720000"><ele>152</ele><time>2016-09-30T12:41:43Z</time></trkpt>
<trkpt lat="53.0123630000" lon="-4.0431890000"><ele>152</ele><time>2016-09-30T12:41:44Z</time></trkpt>
<trkpt lat="53.0123630000" lon="-4.0431890000"><ele>152</ele><time>2016-09-30T12:41:45Z</time></trkpt>
<trkpt lat="53.0123630000" lon="-4.0431890000"><ele>152</ele><time>2016-09-30T12:41:46Z</time></trkpt>
<trkpt lat="53.0123620000" lon="-4.0431900000"><ele>152</ele><time>2016-09-30T12:41:47Z</time></trkpt>
<trkpt lat="53.0123620000" lon="-4.0431910000"><ele>152</ele><time>2016-09-30T12:41:48Z</time></trkpt>
<trkpt lat="53.0123610000" lon="-4.0431930000"><ele>151</ele><time>2016-09-30T12:41:49Z</time></trkpt>
<trkpt lat="53.0123600000" lon="-4.0431960000"><ele>151</ele><time>2016-09-30T12:41:50Z</time></trkpt>
<trkpt lat="53.0123580000" lon="-4.0431990000"><ele>151</ele><time>2016-09-30T12:41:51Z</time></trkpt>
<trkpt lat="53.0123560000" lon="-4.0432030000"><ele>151</ele><time>2016-09-30T12:41:52Z</time></trkpt>
<trkpt lat="53.0123530000" lon="-4.0432070000"><ele>151</ele><time>2016-09-30T12:41:53Z</time></trkpt>
<trkpt lat="53.0123500000" lon="-4.0432120000"><ele>151</ele><time>2016-09-30T12:41:54Z</time></trkpt>
<trkpt lat="53.0123470000" lon="-4.0432180000"><ele>150</ele><time>2016-09-30T12:41:55Z</time></trkpt>
<trkpt lat="53.0123430000" lon="-4.0432240000"><ele>150</ele><time>2016-09-30T12:41:56Z</time></trkpt>
<trkpt lat="53.0123380000" lon="-4.0432310000"><ele>150</ele><time>2016-09-30T12:41:57Z</time></trkpt>
<trkpt lat="53.0123330000" lon="-4.0432380000"><ele>150</ele><time>2016-09-30T12:41:58Z</time></trkpt>
<trkpt lat="53.0123280000" lon="-4.0432450000"><ele>150</ele><time>2016-09-30T12:41:59Z</time></trkpt>
<trkpt lat="53.0123220000" lon="-4.0432530000"><ele>149</ele><time>2016-09-30T12:42:00Z</time></trkpt>
<trkpt lat="53.0123150000" lon="-4.0432610000"><ele>149</ele><time>2016-09-30T12:42:01Z</time></trkpt>
<trkpt lat="53.0123080000" lon="-4.0432700000"><ele>149</ele><time>2016-09-30T12:42:02Z</time></trkpt>
<trkpt lat="53.0123000000" lon="-4.0432790000"><ele>149</ele><time>2016-09-30T12:42:03Z</time></trkpt>
<trkpt lat="53.0122930000" lon="-4.0432870000"><ele>149</ele><time>2016-09-30T12:42:04Z</time></trkpt>
<trkpt lat="53.0121490000" lon="-4.0434440000"><ele>149</ele><time>2016-09-30T12:42:05Z</time></trkpt>
<trkpt lat="53.0121360000" lon="-4.0434530000"><ele>148</ele><time>2016-09-30T12:42:06Z</time></trkpt>
<trkpt lat="53.0121120000" lon="-4.0434790000"><ele>148</ele><time>2016-09-30T12:42:08Z</time></trkpt>
<trkpt lat="53.0121010000" lon="-4.0434880000"><ele>148</ele><time>2016-09-30T12:42:09Z</time></trkpt>
<trkpt lat="53.0120890000" lon="-4.0434990000"><ele>148</ele><time>2016-09-30T12:42:10Z</time></trkpt>
<trkpt lat="53.0120760000" lon="-4.0435090000"><ele>148</ele><time>2016-09-30T12:42:11Z</time></trkpt>
<trkpt lat="53.0120630000" lon="-4.0435240000"><ele>148</ele><time>2016-09-30T12:42:12Z</time></trkpt>
<trkpt lat="53.0120520000" lon="-4.0435440000"><ele>148</ele><time>2016-09-30T12:42:13Z</time></trkpt>
<trkpt lat="53.0120400000" lon="-4.0435620000"><ele>148</ele><time>2016-09-30T12:42:14Z</time></trkpt>
<trkpt lat="53.0120280000" lon="-4.0435780000"><ele>147</ele><time>2016-09-30T12:42:15Z</time></trkpt>
<trkpt lat="53.0120170000" lon="-4.0435910000"><ele>147</ele><time>2016-09-30T12:42:16Z</time></trkpt>
<trkpt lat="53.0120050000" lon="-4.0436020000"><ele>147</ele><time>2016-09-30T12:42:17Z</time></trkpt>
<trkpt lat="53.0119930000" lon="-4.0436120000"><ele>147</ele><time>2016-09-30T12:42:18Z</time></trkpt>
<trkpt lat="53.0119800000" lon="-4.0436240000"><ele>147</ele><time>2016-09-30T12:42:19Z</time></trkpt>
<trkpt lat="53.0119690000" lon="-4.0436340000"><ele>147</ele><time>2016-09-30T12:42:20Z</time></trkpt>
<trkpt lat="53.0119560000" lon="-4.0436450000"><ele>147</ele><time>2016-09-30T12:42:21Z</time></trkpt>
<trkpt lat="53.0119420000" lon="-4.0436520000"><ele>147</ele><time>2016-09-30T12:42:22Z</time></trkpt>
<trkpt lat="53.0119290000" lon="-4.0436610000"><ele>147</ele><time>2016-09-30T12:42:23Z</time></trkpt>
<trkpt lat="53.0119180000" lon="-4.0436730000"><ele>147</ele><time>2016-09-30T12:42:24Z</time></trkpt>
<trkpt lat="53.0119060000" lon="-4.0436860000"><ele>147</ele><time>2016-09-30T12:42:25Z</time></trkpt>
<trkpt lat="53.0118920000" lon="-4.0436950000"><ele>147</ele><time>2016-09-30T12:42:26Z</time></trkpt>
<trkpt lat="53.0118800000" lon="-4.0437020000"><ele>147</ele><time>2016-09-30T12:42:27Z</time></trkpt>
<trkpt lat="53.0118690000" lon="-4.0437120000"><ele>147</ele><time>2016-09-30T12:42:28Z</time></trkpt>
<trkpt lat="53.0118570000" lon="-4.0437260000"><ele>147</ele><time>2016-09-30T12:42:29Z</time></trkpt>
<trkpt lat="53.0118460000" lon="-4.0437400000"><ele>147</ele><time>2016-09-30T12:42:30Z</time></trkpt>
<trkpt lat="53.0118340000" lon="-4.0437480000"><ele>146</ele><time>2016-09-30T12:42:31Z</time></trkpt>
<trkpt lat="53.0118230000" lon="-4.0437570000"><ele>146</ele><time>2016-09-30T12:42:32Z</time></trkpt>
<trkpt lat="53.0118100000" lon="-4.0437670000"><ele>146</ele><time>2016-09-30T12:42:33Z</time></trkpt>
<trkpt lat="53.0117970000" lon="-4.0437780000"><ele>146</ele><time>2016-09-30T12:42:34Z</time></trkpt>
<trkpt lat="53.0117850000" lon="-4.0437880000"><ele>146</ele><time>2016-09-30T12:42:35Z</time></trkpt>
<trkpt lat="53.0117740000" lon="-4.0437980000"><ele>146</ele><time>2016-09-30T12:42:36Z</time></trkpt>
<trkpt lat="53.0117630000" lon="-4.0438100000"><ele>145</ele><time>2016-09-30T12:42:37Z</time></trkpt>
<trkpt lat="53.0117520000" lon="-4.0438200000"><ele>145</ele><time>2016-09-30T12:42:38Z</time></trkpt>
<trkpt lat="53.0117400000" lon="-4.0438310000"><ele>145</ele><time>2016-09-30T12:42:39Z</time></trkpt>
<trkpt lat="53.0117290000" lon="-4.0438420000"><ele>145</ele><time>2016-09-30T12:42:40Z</time></trkpt>
<trkpt lat="53.0117160000" lon="-4.0438480000"><ele>145</ele><time>2016-09-30T12:42:41Z</time></trkpt>
<trkpt lat="53.0117030000" lon="-4.0438550000"><ele>145</ele><time>2016-09-30T12:42:42Z</time></trkpt>
<trkpt lat="53.0116930000" lon="-4.0438650000"><ele>144</ele><time>2016-09-30T12:42:43Z</time></trkpt>
<trkpt lat="53.0116820000" lon="-4.0438780000"><ele>144</ele><time>2016-09-30T12:42:44Z</time></trkpt>
<trkpt lat="53.0116700000" lon="-4.0438910000"><ele>144</ele><time>2016-09-30T12:42:45Z</time></trkpt>
<trkpt lat="53.0116580000" lon="-4.0438990000"><ele>144</ele><time>2016-09-30T12:42:46Z</time></trkpt>
<trkpt lat="53.0116460000" lon="-4.0439050000"><ele>143</ele><time>2016-09-30T12:42:47Z</time></trkpt>
<trkpt lat="53.0116370000" lon="-4.0439130000"><ele>143</ele><time>2016-09-30T12:42:48Z</time></trkpt>
<trkpt lat="53.0116280000" lon="-4.0439240000"><ele>143</ele><time>2016-09-30T12:42:49Z</time></trkpt>
<trkpt lat="53.0116280000" lon="-4.0439240000"><ele>143</ele><time>2016-09-30T12:42:50Z</time></trkpt>
<trkpt lat="53.0116280000" lon="-4.0439240000"><ele>142</ele><time>2016-09-30T12:42:51Z</time></trkpt>
<trkpt lat="53.0116280000" lon="-4.0439240000"><ele>142</ele><time>2016-09-30T12:42:52Z</time></trkpt>
<trkpt lat="53.0116270000" lon="-4.0439250000"><ele>142</ele><time>2016-09-30T12:42:53Z</time></trkpt>
<trkpt lat="53.0116260000" lon="-4.0439260000"><ele>142</ele><time>2016-09-30T12:42:54Z</time></trkpt>
<trkpt lat="53.0115590000" lon="-4.0439830000"><ele>142</ele><time>2016-09-30T12:42:55Z</time></trkpt>
<trkpt lat="53.0115480000" lon="-4.0439900000"><ele>142</ele><time>2016-09-30T12:42:56Z</time></trkpt>
<trkpt lat="53.0115370000" lon="-4.0439990000"><ele>141</ele><time>2016-09-30T12:42:57Z</time></trkpt>
<trkpt lat="53.0115250000" lon="-4.0440030000"><ele>141</ele><time>2016-09-30T12:42:58Z</time></trkpt>
<trkpt lat="53.0115130000" lon="-4.0440090000"><ele>141</ele><time>2016-09-30T12:42:59Z</time></trkpt>
<trkpt lat="53.0115020000" lon="-4.0440180000"><ele>141</ele><time>2016-09-30T12:43:00Z</time></trkpt>
<trkpt lat="53.0114900000" lon="-4.0440290000"><ele>140</ele><time>2016-09-30T12:43:01Z</time></trkpt>
<trkpt lat="53.0114780000" lon="-4.0440410000"><ele>140</ele><time>2016-09-30T12:43:02Z</time></trkpt>
<trkpt lat="53.0114670000" lon="-4.0440510000"><ele>140</ele><time>2016-09-30T12:43:03Z</time></trkpt>
<trkpt lat="53.0114550000" lon="-4.0440600000"><ele>140</ele><time>2016-09-30T12:43:04Z</time></trkpt>
<trkpt lat="53.0114420000" lon="-4.0440720000"><ele>140</ele><time>2016-09-30T12:43:05Z</time></trkpt>
<trkpt lat="53.0114300000" lon="-4.0440850000"><ele>139</ele><time>2016-09-30T12:43:06Z</time></trkpt>
<trkpt lat="53.0114090000" lon="-4.0441060000"><ele>139</ele><time>2016-09-30T12:43:08Z</time></trkpt>
<trkpt lat="53.0113980000" lon="-4.0441150000"><ele>139</ele><time>2016-09-30T12:43:09Z</time></trkpt>
<trkpt lat="53.0113850000" lon="-4.0441240000"><ele>139</ele><time>2016-09-30T12:43:10Z</time></trkpt>
<trkpt lat="53.0113710000" lon="-4.0441340000"><ele>139</ele><time>2016-09-30T12:43:11Z</time></trkpt>
<trkpt lat="53.0113590000" lon="-4.0441450000"><ele>139</ele><time>2016-09-30T12:43:12Z</time></trkpt>
<trkpt lat="53.0113470000" lon="-4.0441570000"><ele>138</ele><time>2016-09-30T12:43:13Z</time></trkpt>
<trkpt lat="53.0113340000" lon="-4.0441690000"><ele>138</ele><time>2016-09-30T12:43:14Z</time></trkpt>
<trkpt lat="53.0113230000" lon="-4.0441830000"><ele>138</ele><time>2016-09-30T12:43:15Z</time></trkpt>
<trkpt lat="53.0113110000" lon="-4.0441970000"><ele>138</ele><time>2016-09-30T12:43:16Z</time></trkpt>
<trkpt lat="53.0112990000" lon="-4.0442090000"><ele>138</ele><time>2016-09-30T12:43:17Z</time></trkpt>
<trkpt lat="53.0112860000" lon="-4.0442190000"><ele>138</ele><time>2016-09-30T12:43:18Z</time></trkpt>
<trkpt lat="53.0112740000" lon="-4.0442300000"><ele>138</ele><time>2016-09-30T12:43:19Z</time></trkpt>
<trkpt lat="53.0112640000" lon="-4.0442450000"><ele>138</ele><time>2016-09-30T12:43:20Z</time></trkpt>
<trkpt lat="53.0112530000" lon="-4.0442590000"><ele>139</ele><time>2016-09-30T12:43:21Z</time></trkpt>
<trkpt lat="53.0112410000" lon="-4.0442700000"><ele>139</ele><time>2016-09-30T12:43:22Z</time></trkpt>
<trkpt lat="53.0112310000" lon="-4.0442820000"><ele>139</ele><time>2016-09-30T12:43:23Z</time></trkpt>
<trkpt lat="53.0112200000" lon="-4.0443010000"><ele>139</ele><time>2016-09-30T12:43:24Z</time></trkpt>
<trkpt lat="53.0112100000" lon="-4.0443160000"><ele>139</ele><time>2016-09-30T12:43:25Z</time></trkpt>
<trkpt lat="53.0111980000" lon="-4.0443290000"><ele>139</ele><time>2016-09-30T12:43:26Z</time></trkpt>
<trkpt lat="53.0111870000" lon="-4.0443400000"><ele>139</ele><time>2016-09-30T12:43:27Z</time></trkpt>
<trkpt lat="53.0111770000" lon="-4.0443530000"><ele>139</ele><time>2016-09-30T12:43:28Z</time></trkpt>
<trkpt lat="53.0111670000" lon="-4.0443660000"><ele>138</ele><time>2016-09-30T12:43:29Z</time></trkpt>
<trkpt lat="53.0111580000" lon="-4.0443750000"><ele>138</ele><time>2016-09-30T12:43:30Z</time></trkpt>
<trkpt lat="53.0111490000" lon="-4.0443900000"><ele>138</ele><time>2016-09-30T12:43:31Z</time></trkpt>
<trkpt lat="53.0111390000" lon="-4.0444050000"><ele>138</ele><time>2016-09-30T12:43:32Z</time></trkpt>
<trkpt lat="53.0111280000" lon="-4.0444220000"><ele>138</ele><time>2016-09-30T12:43:33Z</time></trkpt>
<trkpt lat="53.0111180000" lon="-4.0444380000"><ele>138</ele><time>2016-09-30T12:43:34Z</time></trkpt>
<trkpt lat="53.0111080000" lon="-4.0444540000"><ele>138</ele><time>2016-09-30T12:43:35Z</time></trkpt>
<trkpt lat="53.0110980000" lon="-4.0444680000"><ele>138</ele><time>2016-09-30T12:43:36Z</time></trkpt>
<trkpt lat="53.0110880000" lon="-4.0444880000"><ele>138</ele><time>2016-09-30T12:43:37Z</time></trkpt>
<trkpt lat="53.0110790000" lon="-4.0445070000"><ele>138</ele><time>2016-09-30T12:43:38Z</time></trkpt>
<trkpt lat="53.0110730000" lon="-4.0445250000"><ele>138</ele><time>2016-09-30T12:43:39Z</time></trkpt>
<trkpt lat="53.0110650000" lon="-4.0445380000"><ele>138</ele><time>2016-09-30T12:43:40Z</time></trkpt>
<trkpt lat="53.0110490000" lon="-4.0445700000"><ele>137</ele><time>2016-09-30T12:43:54Z</time></trkpt>
<trkpt lat="53.0110490000" lon="-4.0447130000"><ele>137</ele><time>2016-09-30T12:44:03Z</time></trkpt>
<trkpt lat="53.0110180000" lon="-4.0448180000"><ele>136</ele><time>2016-09-30T12:44:06Z</time></trkpt>
<trkpt lat="53.0110100000" lon="-4.0448700000"><ele>136</ele><time>2016-09-30T12:44:10Z</time></trkpt>
<trkpt lat="53.0110070000" lon="-4.0449310000"><ele>136</ele><time>2016-09-30T12:44:12Z</time></trkpt>
<trkpt lat="53.0110020000" lon="-4.0449680000"><ele>136</ele><time>2016-09-30T12:44:17Z</time></trkpt>
<trkpt lat="53.0109990000" lon="-4.0449910000"><ele>135</ele><time>2016-09-30T12:44:25Z</time></trkpt>
<trkpt lat="53.0109980000" lon="-4.0449970000"><ele>135</ele><time>2016-09-30T12:44:26Z</time></trkpt>
<trkpt lat="53.0109970000" lon="-4.0450040000"><ele>134</ele><time>2016-09-30T12:44:27Z</time></trkpt>
<trkpt lat="53.0109960000" lon="-4.0450120000"><ele>134</ele><time>2016-09-30T12:44:28Z</time></trkpt>
<trkpt lat="53.0109950000" lon="-4.0450200000"><ele>134</ele><time>2016-09-30T12:44:29Z</time></trkpt>
<trkpt lat="53.0109940000" lon="-4.0450290000"><ele>134</ele><time>2016-09-30T12:44:30Z</time></trkpt>
<trkpt lat="53.0109930000" lon="-4.0450390000"><ele>134</ele><time>2016-09-30T12:44:31Z</time></trkpt>
<trkpt lat="53.0109920000" lon="-4.0450500000"><ele>134</ele><time>2016-09-30T12:44:32Z</time></trkpt>
<trkpt lat="53.0109910000" lon="-4.0450620000"><ele>134</ele><time>2016-09-30T12:44:33Z</time></trkpt>
<trkpt lat="53.0109900000" lon="-4.0450740000"><ele>134</ele><time>2016-09-30T12:44:34Z</time></trkpt>
<trkpt lat="53.0109890000" lon="-4.0450860000"><ele>134</ele><time>2016-09-30T12:44:35Z</time></trkpt>
<trkpt lat="53.0109880000" lon="-4.0450990000"><ele>134</ele><time>2016-09-30T12:44:36Z</time></trkpt>
<trkpt lat="53.0109870000" lon="-4.0451120000"><ele>134</ele><time>2016-09-30T12:44:37Z</time></trkpt>
<trkpt lat="53.0109860000" lon="-4.0451260000"><ele>134</ele><time>2016-09-30T12:44:38Z</time></trkpt>
<trkpt lat="53.0109840000" lon="-4.0451400000"><ele>134</ele><time>2016-09-30T12:44:39Z</time></trkpt>
<trkpt lat="53.0109830000" lon="-4.0451540000"><ele>134</ele><time>2016-09-30T12:44:40Z</time></trkpt>
<trkpt lat="53.0109820000" lon="-4.0451690000"><ele>134</ele><time>2016-09-30T12:44:41Z</time></trkpt>
<trkpt lat="53.0109810000" lon="-4.0451830000"><ele>134</ele><time>2016-09-30T12:44:42Z</time></trkpt>
<trkpt lat="53.0109790000" lon="-4.0451990000"><ele>134</ele><time>2016-09-30T12:44:43Z</time></trkpt>
<trkpt lat="53.0109770000" lon="-4.0452150000"><ele>134</ele><time>2016-09-30T12:44:44Z</time></trkpt>
<trkpt lat="53.0109390000" lon="-4.0455270000"><ele>134</ele><time>2016-09-30T12:44:45Z</time></trkpt>
<trkpt lat="53.0109350000" lon="-4.0455440000"><ele>133</ele><time>2016-09-30T12:44:46Z</time></trkpt>
<trkpt lat="53.0109280000" lon="-4.0455670000"><ele>133</ele><time>2016-09-30T12:44:47Z</time></trkpt>
<trkpt lat="53.0109220000" lon="-4.0455930000"><ele>133</ele><time>2016-09-30T12:44:48Z</time></trkpt>
<trkpt lat="53.0109180000" lon="-4.0456120000"><ele>133</ele><time>2016-09-30T12:44:49Z</time></trkpt>
<trkpt lat="53.0109110000" lon="-4.0456280000"><ele>133</ele><time>2016-09-30T12:44:50Z</time></trkpt>
<trkpt lat="53.0109040000" lon="-4.0456420000"><ele>133</ele><time>2016-09-30T12:44:51Z</time></trkpt>
<trkpt lat="53.0108960000" lon="-4.0456560000"><ele>133</ele><time>2016-09-30T12:44:52Z</time></trkpt>
<trkpt lat="53.0108910000" lon="-4.0456740000"><ele>133</ele><time>2016-09-30T12:44:53Z</time></trkpt>
<trkpt lat="53.0108850000" lon="-4.0456950000"><ele>133</ele><time>2016-09-30T12:44:54Z</time></trkpt>
<trkpt lat="53.0108790000" lon="-4.0457220000"><ele>133</ele><time>2016-09-30T12:44:55Z</time></trkpt>
<trkpt lat="53.0108770000" lon="-4.0457430000"><ele>133</ele><time>2016-09-30T12:44:56Z</time></trkpt>
<trkpt lat="53.0108740000" lon="-4.0457680000"><ele>133</ele><time>2016-09-30T12:44:57Z</time></trkpt>
<trkpt lat="53.0108730000" lon="-4.0457920000"><ele>133</ele><time>2016-09-30T12:44:58Z</time></trkpt>
<trkpt lat="53.0108720000" lon="-4.0458130000"><ele>133</ele><time>2016-09-30T12:44:59Z</time></trkpt>
<trkpt lat="53.0108730000" lon="-4.0458320000"><ele>133</ele><time>2016-09-30T12:45:00Z</time></trkpt>
<trkpt lat="53.0108760000" lon="-4.0458490000"><ele>133</ele><time>2016-09-30T12:45:01Z</time></trkpt>
<trkpt lat="53.0108760000" lon="-4.0458490000"><ele>133</ele><time>2016-09-30T12:45:02Z</time></trkpt>
<trkpt lat="53.0108760000" lon="-4.0458490000"><ele>133</ele><time>2016-09-30T12:45:03Z</time></trkpt>
<trkpt lat="53.0108760000" lon="-4.0458500000"><ele>133</ele><time>2016-09-30T12:45:04Z</time></trkpt>
<trkpt lat="53.0108760000" lon="-4.0458510000"><ele>133</ele><time>2016-09-30T12:45:05Z</time></trkpt>
<trkpt lat="53.0108760000" lon="-4.0458520000"><ele>133</ele><time>2016-09-30T12:45:06Z</time></trkpt>
<trkpt lat="53.0108750000" lon="-4.0458530000"><ele>133</ele><time>2016-09-30T12:45:07Z</time></trkpt>
<trkpt lat="53.0108750000" lon="-4.0458540000"><ele>133</ele><time>2016-09-30T12:45:08Z</time></trkpt>
<trkpt lat="53.0108740000" lon="-4.0458560000"><ele>133</ele><time>2016-09-30T12:45:09Z</time></trkpt>
<trkpt lat="53.0108730000" lon="-4.0458580000"><ele>133</ele><time>2016-09-30T12:45:10Z</time></trkpt>
<trkpt lat="53.0108720000" lon="-4.0458600000"><ele>133</ele><time>2016-09-30T12:45:11Z</time></trkpt>
<trkpt lat="53.0108710000" lon="-4.0458630000"><ele>133</ele><time>2016-09-30T12:45:12Z</time></trkpt>
<trkpt lat="53.0108690000" lon="-4.0458660000"><ele>133</ele><time>2016-09-30T12:45:13Z</time></trkpt>
<trkpt lat="53.0108670000" lon="-4.0458690000"><ele>133</ele><time>2016-09-30T12:45:14Z</time></trkpt>
<trkpt lat="53.0108650000" lon="-4.0458710000"><ele>132</ele><time>2016-09-30T12:45:15Z</time></trkpt>
<trkpt lat="53.0108620000" lon="-4.0458740000"><ele>132</ele><time>2016-09-30T12:45:16Z</time></trkpt>
<trkpt lat="53.0108580000" lon="-4.0458780000"><ele>132</ele><time>2016-09-30T12:45:17Z</time></trkpt>
<trkpt lat="53.0108550000" lon="-4.0458820000"><ele>132</ele><time>2016-09-30T12:45:18Z</time></trkpt>
<trkpt lat="53.0108500000" lon="-4.0458860000"><ele>132</ele><time>2016-09-30T12:45:19Z</time></trkpt>
<trkpt lat="53.0108460000" lon="-4.0458900000"><ele>132</ele><time>2016-09-30T12:45:20Z</time></trkpt>
<trkpt lat="53.0108410000" lon="-4.0458950000"><ele>132</ele><time>2016-09-30T12:45:21Z</time></trkpt>
<trkpt lat="53.0108360000" lon="-4.0459010000"><ele>132</ele><time>2016-09-30T12:45:22Z</time></trkpt>
<trkpt lat="53.0108300000" lon="-4.0459070000"><ele>132</ele><time>2016-09-30T12:45:23Z</time></trkpt>
<trkpt lat="53.0108240000" lon="-4.0459140000"><ele>132</ele><time>2016-09-30T12:45:24Z</time></trkpt>
<trkpt lat="53.0108170000" lon="-4.0459210000"><ele>131</ele><time>2016-09-30T12:45:25Z</time></trkpt>
<trkpt lat="53.0108110000" lon="-4.0459280000"><ele>131</ele><time>2016-09-30T12:45:26Z</time></trkpt>
<trkpt lat="53.0108040000" lon="-4.0459360000"><ele>131</ele><time>2016-09-30T12:45:27Z</time></trkpt>
<trkpt lat="53.0107980000" lon="-4.0459440000"><ele>131</ele><time>2016-09-30T12:45:28Z</time></trkpt>
<trkpt lat="53.0107910000" lon="-4.0459530000"><ele>131</ele><time>2016-09-30T12:45:29Z</time></trkpt>
<trkpt lat="53.0107850000" lon="-4.0459620000"><ele>131</ele><time>2016-09-30T12:45:30Z</time></trkpt>
<trkpt lat="53.0107790000" lon="-4.0459710000"><ele>131</ele><time>2016-09-30T12:45:31Z</time></trkpt>
<trkpt lat="53.0107730000" lon="-4.0459810000"><ele>131</ele><time>2016-09-30T12:45:32Z</time></trkpt>
<trkpt lat="53.0107670000" lon="-4.0459910000"><ele>131</ele><time>2016-09-30T12:45:33Z</time></trkpt>
<trkpt lat="53.0107600000" lon="-4.0460010000"><ele>131</ele><time>2016-09-30T12:45:34Z</time></trkpt>
<trkpt lat="53.0107540000" lon="-4.0460120000"><ele>131</ele><time>2016-09-30T12:45:35Z</time></trkpt>
<trkpt lat="53.0107480000" lon="-4.0460230000"><ele>131</ele><time>2016-09-30T12:45:36Z</time></trkpt>
<trkpt lat="53.0107420000" lon="-4.0460330000"><ele>131</ele><time>2016-09-30T12:45:37Z</time></trkpt>
<trkpt lat="53.0107360000" lon="-4.0460430000"><ele>131</ele><time>2016-09-30T12:45:38Z</time></trkpt>
<trkpt lat="53.0107300000" lon="-4.0460520000"><ele>131</ele><time>2016-09-30T12:45:39Z</time></trkpt>
<trkpt lat="53.0107250000" lon="-4.0460610000"><ele>131</ele><time>2016-09-30T12:45:40Z</time></trkpt>
<trkpt lat="53.0107200000" lon="-4.0460710000"><ele>131</ele><time>2016-09-30T12:45:41Z</time></trkpt>
<trkpt lat="53.0107150000" lon="-4.0460800000"><ele>131</ele><time>2016-09-30T12:45:42Z</time></trkpt>
<trkpt lat="53.0107100000" lon="-4.0460900000"><ele>130</ele><time>2016-09-30T12:45:43Z</time></trkpt>
<trkpt lat="53.0107050000" lon="-4.0461010000"><ele>130</ele><time>2016-09-30T12:45:44Z</time></trkpt>
<trkpt lat="53.0107000000" lon="-4.0461130000"><ele>130</ele><time>2016-09-30T12:45:45Z</time></trkpt>
<trkpt lat="53.0106950000" lon="-4.0461240000"><ele>130</ele><time>2016-09-30T12:45:46Z</time></trkpt>
<trkpt lat="53.0106900000" lon="-4.0461360000"><ele>130</ele><time>2016-09-30T12:45:47Z</time></trkpt>
<trkpt lat="53.0106850000" lon="-4.0461490000"><ele>130</ele><time>2016-09-30T12:45:48Z</time></trkpt>
<trkpt lat="53.0106800000" lon="-4.0461610000"><ele>130</ele><time>2016-09-30T12:45:49Z</time></trkpt>
<trkpt lat="53.0106750000" lon="-4.0461740000"><ele>130</ele><time>2016-09-30T12:45:50Z</time></trkpt>
<trkpt lat="53.0106700000" lon="-4.0461870000"><ele>130</ele><time>2016-09-30T12:45:51Z</time></trkpt>
<trkpt lat="53.0106650000" lon="-4.0462000000"><ele>130</ele><time>2016-09-30T12:45:52Z</time></trkpt>
<trkpt lat="53.0106600000" lon="-4.0462140000"><ele>129</ele><time>2016-09-30T12:45:53Z</time></trkpt>
<trkpt lat="53.0105770000" lon="-4.0464590000"><ele>129</ele><time>2016-09-30T12:45:54Z</time></trkpt>
<trkpt lat="53.0105750000" lon="-4.0464750000"><ele>129</ele><time>2016-09-30T12:45:55Z</time></trkpt>
<trkpt lat="53.0105710000" lon="-4.0464920000"><ele>129</ele><time>2016-09-30T12:45:56Z</time></trkpt>
<trkpt lat="53.0105670000" lon="-4.0465110000"><ele>129</ele><time>2016-09-30T12:45:57Z</time></trkpt>
<trkpt lat="53.0105660000" lon="-4.0465310000"><ele>129</ele><time>2016-09-30T12:45:58Z</time></trkpt>
<trkpt lat="53.0105710000" lon="-4.0465520000"><ele>129</ele><time>2016-09-30T12:45:59Z</time></trkpt>
<trkpt lat="53.0105760000" lon="-4.0465710000"><ele>129</ele><time>2016-09-30T12:46:00Z</time></trkpt>
<trkpt lat="53.0105830000" lon="-4.0465940000"><ele>129</ele><time>2016-09-30T12:46:01Z</time></trkpt>
<trkpt lat="53.0105870000" lon="-4.0466150000"><ele>129</ele><time>2016-09-30T12:46:02Z</time></trkpt>
<trkpt lat="53.0105920000" lon="-4.0466360000"><ele>129</ele><time>2016-09-30T12:46:03Z</time></trkpt>
<trkpt lat="53.0105980000" lon="-4.0466600000"><ele>129</ele><time>2016-09-30T12:46:04Z</time></trkpt>
<trkpt lat="53.0106000000" lon="-4.0466780000"><ele>130</ele><time>2016-09-30T12:46:05Z</time></trkpt>
<trkpt lat="53.0106030000" lon="-4.0466910000"><ele>130</ele><time>2016-09-30T12:46:06Z</time></trkpt>
<trkpt lat="53.0106090000" lon="-4.0467030000"><ele>130</ele><time>2016-09-30T12:46:07Z</time></trkpt>
<trkpt lat="53.0106090000" lon="-4.0467030000"><ele>130</ele><time>2016-09-30T12:46:08Z</time></trkpt>
<trkpt lat="53.0106090000" lon="-4.0467030000"><ele>130</ele><time>2016-09-30T12:46:09Z</time></trkpt>
<trkpt lat="53.0106090000" lon="-4.0467040000"><ele>130</ele><time>2016-09-30T12:46:10Z</time></trkpt>
<trkpt lat="53.0106100000" lon="-4.0467050000"><ele>131</ele><time>2016-09-30T12:46:11Z</time></trkpt>
<trkpt lat="53.0106100000" lon="-4.0467060000"><ele>131</ele><time>2016-09-30T12:46:12Z</time></trkpt>
<trkpt lat="53.0106110000" lon="-4.0467080000"><ele>131</ele><time>2016-09-30T12:46:13Z</time></trkpt>
<trkpt lat="53.0106120000" lon="-4.0467100000"><ele>131</ele><time>2016-09-30T12:46:14Z</time></trkpt>
<trkpt lat="53.0106140000" lon="-4.0467120000"><ele>131</ele><time>2016-09-30T12:46:15Z</time></trkpt>
<trkpt lat="53.0106150000" lon="-4.0467150000"><ele>131</ele><time>2016-09-30T12:46:16Z</time></trkpt>
<trkpt lat="53.0106310000" lon="-4.0467420000"><ele>131</ele><time>2016-09-30T12:46:22Z</time></trkpt>
<trkpt lat="53.0106340000" lon="-4.0467480000"><ele>131</ele><time>2016-09-30T12:46:23Z</time></trkpt>
<trkpt lat="53.0106380000" lon="-4.0467540000"><ele>131</ele><time>2016-09-30T12:46:24Z</time></trkpt>
<trkpt lat="53.0106420000" lon="-4.0467610000"><ele>131</ele><time>2016-09-30T12:46:25Z</time></trkpt>
<trkpt lat="53.0106450000" lon="-4.0467690000"><ele>131</ele><time>2016-09-30T12:46:26Z</time></trkpt>
<trkpt lat="53.0106490000" lon="-4.0467770000"><ele>131</ele><time>2016-09-30T12:46:27Z</time></trkpt>
<trkpt lat="53.0106530000" lon="-4.0467850000"><ele>131</ele><time>2016-09-30T12:46:28Z</time></trkpt>
<trkpt lat="53.0106570000" lon="-4.0467940000"><ele>131</ele><time>2016-09-30T12:46:29Z</time></trkpt>
<trkpt lat="53.0106600000" lon="-4.0468020000"><ele>131</ele><time>2016-09-30T12:46:30Z</time></trkpt>
<trkpt lat="53.0106640000" lon="-4.0468110000"><ele>131</ele><time>2016-09-30T12:46:31Z</time></trkpt>
<trkpt lat="53.0106670000" lon="-4.0468200000"><ele>131</ele><time>2016-09-30T12:46:32Z</time></trkpt>
<trkpt lat="53.0106710000" lon="-4.0468290000"><ele>131</ele><time>2016-09-30T12:46:33Z</time></trkpt>
<trkpt lat="53.0106740000" lon="-4.0468390000"><ele>131</ele><time>2016-09-30T12:46:34Z</time></trkpt>
<trkpt lat="53.0106780000" lon="-4.0468480000"><ele>131</ele><time>2016-09-30T12:46:35Z</time></trkpt>
<trkpt lat="53.0106810000" lon="-4.0468580000"><ele>131</ele><time>2016-09-30T12:46:36Z</time></trkpt>
<trkpt lat="53.0106840000" lon="-4.0468670000"><ele>131</ele><time>2016-09-30T12:46:37Z</time></trkpt>
<trkpt lat="53.0106870000" lon="-4.0468770000"><ele>131</ele><time>2016-09-30T12:46:38Z</time></trkpt>
<trkpt lat="53.0106910000" lon="-4.0468870000"><ele>131</ele><time>2016-09-30T12:46:39Z</time></trkpt>
<trkpt lat="53.0106940000" lon="-4.0468970000"><ele>131</ele><time>2016-09-30T12:46:40Z</time></trkpt>
<trkpt lat="53.0106980000" lon="-4.0469060000"><ele>131</ele><time>2016-09-30T12:46:41Z</time></trkpt>
<trkpt lat="53.0107020000" lon="-4.0469170000"><ele>131</ele><time>2016-09-30T12:46:42Z</time></trkpt>
<trkpt lat="53.0107060000" lon="-4.0469270000"><ele>131</ele><time>2016-09-30T12:46:43Z</time></trkpt>
<trkpt lat="53.0107190000" lon="-4.0469610000"><ele>130</ele><time>2016-09-30T12:46:46Z</time></trkpt>
<trkpt lat="53.0108150000" lon="-4.0472060000"><ele>130</ele><time>2016-09-30T12:46:48Z</time></trkpt>
<trkpt lat="53.0108300000" lon="-4.0472470000"><ele>130</ele><time>2016-09-30T12:46:53Z</time></trkpt>
<trkpt lat="53.0108480000" lon="-4.0472810000"><ele>130</ele><time>2016-09-30T12:46:54Z</time></trkpt>
<trkpt lat="53.0108680000" lon="-4.0473180000"><ele>128</ele><time>2016-09-30T12:47:09Z</time></trkpt>
<trkpt lat="53.0109230000" lon="-4.0474840000"><ele>128</ele><time>2016-09-30T12:47:12Z</time></trkpt>
<trkpt lat="53.0109490000" lon="-4.0475050000"><ele>128</ele><time>2016-09-30T12:47:14Z</time></trkpt>
<trkpt lat="53.0109680000" lon="-4.0475790000"><ele>128</ele><time>2016-09-30T12:47:32Z</time></trkpt>
<trkpt lat="53.0110240000" lon="-4.0478000000"><ele>128</ele><time>2016-09-30T12:47:35Z</time></trkpt>
<trkpt lat="53.0110150000" lon="-4.0478510000"><ele>128</ele><time>2016-09-30T12:47:39Z</time></trkpt>
<trkpt lat="53.0109870000" lon="-4.0479410000"><ele>131</ele><time>2016-09-30T12:47:55Z</time></trkpt>
<trkpt lat="53.0109380000" lon="-4.0480810000"><ele>131</ele><time>2016-09-30T12:47:56Z</time></trkpt>
<trkpt lat="53.0109310000" lon="-4.0480870000"><ele>131</ele><time>2016-09-30T12:47:57Z</time></trkpt>
<trkpt lat="53.0109230000" lon="-4.0480900000"><ele>131</ele><time>2016-09-30T12:47:58Z</time></trkpt>
<trkpt lat="53.0109230000" lon="-4.0480900000"><ele>131</ele><time>2016-09-30T12:48:00Z</time></trkpt>
<trkpt lat="53.0109230000" lon="-4.0480900000"><ele>131</ele><time>2016-09-30T12:48:01Z</time></trkpt>
<trkpt lat="53.0109220000" lon="-4.0480900000"><ele>131</ele><time>2016-09-30T12:48:02Z</time></trkpt>
<trkpt lat="53.0109210000" lon="-4.0480910000"><ele>131</ele><time>2016-09-30T12:48:03Z</time></trkpt>
<trkpt lat="53.0109200000" lon="-4.0480910000"><ele>131</ele><time>2016-09-30T12:48:04Z</time></trkpt>
<trkpt lat="53.0109190000" lon="-4.0480920000"><ele>131</ele><time>2016-09-30T12:48:05Z</time></trkpt>
<trkpt lat="53.0109170000" lon="-4.0480940000"><ele>132</ele><time>2016-09-30T12:48:06Z</time></trkpt>
<trkpt lat="53.0109150000" lon="-4.0480950000"><ele>132</ele><time>2016-09-30T12:48:07Z</time></trkpt>
<trkpt lat="53.0109130000" lon="-4.0480970000"><ele>132</ele><time>2016-09-30T12:48:08Z</time></trkpt>
<trkpt lat="53.0109100000" lon="-4.0481000000"><ele>132</ele><time>2016-09-30T12:48:09Z</time></trkpt>
<trkpt lat="53.0109060000" lon="-4.0481030000"><ele>132</ele><time>2016-09-30T12:48:10Z</time></trkpt>
<trkpt lat="53.0109030000" lon="-4.0481060000"><ele>132</ele><time>2016-09-30T12:48:11Z</time></trkpt>
<trkpt lat="53.0108580000" lon="-4.0481620000"><ele>131</ele><time>2016-09-30T12:48:21Z</time></trkpt>
<trkpt lat="53.0107310000" lon="-4.0483860000"><ele>130</ele><time>2016-09-30T12:48:26Z</time></trkpt>
<trkpt lat="53.0107000000" lon="-4.0484220000"><ele>129</ele><time>2016-09-30T12:48:27Z</time></trkpt>
<trkpt lat="53.0106760000" lon="-4.0484730000"><ele>128</ele><time>2016-09-30T12:48:31Z</time></trkpt>
<trkpt lat="53.0106760000" lon="-4.0484730000"><ele>128</ele><time>2016-09-30T12:48:32Z</time></trkpt>
<trkpt lat="53.0106490000" lon="-4.0485240000"><ele>128</ele><time>2016-09-30T12:48:33Z</time></trkpt>
<trkpt lat="53.0106390000" lon="-4.0485370000"><ele>128</ele><time>2016-09-30T12:48:34Z</time></trkpt>
<trkpt lat="53.0106310000" lon="-4.0485550000"><ele>127</ele><time>2016-09-30T12:48:35Z</time></trkpt>
<trkpt lat="53.0106260000" lon="-4.0485720000"><ele>127</ele><time>2016-09-30T12:48:36Z</time></trkpt>
<trkpt lat="53.0106190000" lon="-4.0485870000"><ele>127</ele><time>2016-09-30T12:48:38Z</time></trkpt>
<trkpt lat="53.0106190000" lon="-4.0485870000"><ele>127</ele></trkpt>
<trkpt lat="53.0106190000" lon="-4.0485870000"><ele>127</ele><time>2016-09-30T12:48:39Z</time></trkpt>
<trkpt lat="53.0106180000" lon="-4.0485880000"><ele>126</ele><time>2016-09-30T12:48:40Z</time></trkpt>
<trkpt lat="53.0106180000" lon="-4.0485890000"><ele>126</ele><time>2016-09-30T12:48:41Z</time></trkpt>
<trkpt lat="53.0106180000" lon="-4.0485910000"><ele>126</ele><time>2016-09-30T12:48:42Z</time></trkpt>
<trkpt lat="53.0106170000" lon="-4.0485930000"><ele>126</ele><time>2016-09-30T12:48:43Z</time></trkpt>
<trkpt lat="53.0106160000" lon="-4.0485960000"><ele>126</ele><time>2016-09-30T12:48:44Z</time></trkpt>
<trkpt lat="53.0106150000" lon="-4.0485990000"><ele>126</ele><time>2016-09-30T12:48:45Z</time></trkpt>
<trkpt lat="53.0106130000" lon="-4.0486040000"><ele>126</ele><time>2016-09-30T12:48:46Z</time></trkpt>
<trkpt lat="53.0106110000" lon="-4.0486090000"><ele>126</ele><time>2016-09-30T12:48:47Z</time></trkpt>
<trkpt lat="53.0106080000" lon="-4.0486140000"><ele>126</ele><time>2016-09-30T12:48:48Z</time></trkpt>
<trkpt lat="53.0106060000" lon="-4.0486200000"><ele>126</ele><time>2016-09-30T12:48:49Z</time></trkpt>
<trkpt lat="53.0106020000" lon="-4.0486270000"><ele>126</ele><time>2016-09-30T12:48:50Z</time></trkpt>
<trkpt lat="53.0105990000" lon="-4.0486340000"><ele>126</ele><time>2016-09-30T12:48:51Z</time></trkpt>
<trkpt lat="53.0105940000" lon="-4.0486410000"><ele>126</ele><time>2016-09-30T12:48:52Z</time></trkpt>
<trkpt lat="53.0105900000" lon="-4.0486480000"><ele>126</ele><time>2016-09-30T12:48:53Z</time></trkpt>
<trkpt lat="53.0105850000" lon="-4.0486560000"><ele>126</ele><time>2016-09-30T12:48:54Z</time></trkpt>
<trkpt lat="53.0105790000" lon="-4.0486630000"><ele>126</ele><time>2016-09-30T12:48:55Z</time></trkpt>
<trkpt lat="53.0105740000" lon="-4.0486710000"><ele>126</ele><time>2016-09-30T12:48:56Z</time></trkpt>
<trkpt lat="53.0105680000" lon="-4.0486800000"><ele>126</ele><time>2016-09-30T12:48:57Z</time></trkpt>
<trkpt lat="53.0105620000" lon="-4.0486890000"><ele>126</ele><time>2016-09-30T12:48:58Z</time></trkpt>
<trkpt lat="53.0105550000" lon="-4.0486980000"><ele>126</ele><time>2016-09-30T12:48:59Z</time></trkpt>
<trkpt lat="53.0105490000" lon="-4.0487070000"><ele>127</ele><time>2016-09-30T12:49:00Z</time></trkpt>
<trkpt lat="53.0105420000" lon="-4.0487170000"><ele>127</ele><time>2016-09-30T12:49:01Z</time></trkpt>
<trkpt lat="53.0103920000" lon="-4.0489220000"><ele>127</ele><time>2016-09-30T12:49:02Z</time></trkpt>
<trkpt lat="53.0103810000" lon="-4.0489440000"><ele>127</ele><time>2016-09-30T12:49:03Z</time></trkpt>
<trkpt lat="53.0103740000" lon="-4.0489640000"><ele>127</ele><time>2016-09-30T12:49:04Z</time></trkpt>
<trkpt lat="53.0103640000" lon="-4.0489790000"><ele>127</ele><time>2016-09-30T12:49:05Z</time></trkpt>
<trkpt lat="53.0103600000" lon="-4.0489990000"><ele>127</ele><time>2016-09-30T12:49:06Z</time></trkpt>
<trkpt lat="53.0103560000" lon="-4.0490200000"><ele>127</ele><time>2016-09-30T12:49:07Z</time></trkpt>
<trkpt lat="53.0103500000" lon="-4.0490390000"><ele>127</ele><time>2016-09-30T12:49:08Z</time></trkpt>
<trkpt lat="53.0103390000" lon="-4.0490590000"><ele>127</ele><time>2016-09-30T12:49:09Z</time></trkpt>
<trkpt lat="53.0103280000" lon="-4.0490820000"><ele>127</ele><time>2016-09-30T12:49:10Z</time></trkpt>
<trkpt lat="53.0103170000" lon="-4.0491000000"><ele>128</ele><time>2016-09-30T12:49:11Z</time></trkpt>
<trkpt lat="53.0103060000" lon="-4.0491120000"><ele>128</ele><time>2016-09-30T12:49:12Z</time></trkpt>
<trkpt lat="53.0102970000" lon="-4.0491290000"><ele>128</ele><time>2016-09-30T12:49:13Z</time></trkpt>
<trkpt lat="53.0102850000" lon="-4.0491440000"><ele>128</ele><time>2016-09-30T12:49:14Z</time></trkpt>
<trkpt lat="53.0102760000" lon="-4.0491530000"><ele>128</ele><time>2016-09-30T12:49:15Z</time></trkpt>
<trkpt lat="53.0102700000" lon="-4.0491580000"><ele>128</ele><time>2016-09-30T12:49:16Z</time></trkpt>
<trkpt lat="53.0102400000" lon="-4.0492070000"><ele>129</ele><time>2016-09-30T12:49:31Z</time></trkpt>
<trkpt lat="53.0101160000" lon="-4.0494140000"><ele>128</ele><time>2016-09-30T12:49:32Z</time></trkpt>
<trkpt lat="53.0101070000" lon="-4.0494260000"><ele>128</ele><time>2016-09-30T12:49:33Z</time></trkpt>
<trkpt lat="53.0100960000" lon="-4.0494410000"><ele>128</ele><time>2016-09-30T12:49:34Z</time></trkpt>
<trkpt lat="53.0100860000" lon="-4.0494540000"><ele>128</ele><time>2016-09-30T12:49:35Z</time></trkpt>
<trkpt lat="53.0100770000" lon="-4.0494660000"><ele>128</ele><time>2016-09-30T12:49:36Z</time></trkpt>
<trkpt lat="53.0100700000" lon="-4.0494810000"><ele>128</ele><time>2016-09-30T12:49:38Z</time></trkpt>
<trkpt lat="53.0100640000" lon="-4.0494960000"><ele>128</ele></trkpt>
<trkpt lat="53.0100550000" lon="-4.0495060000"><ele>128</ele><time>2016-09-30T12:49:39Z</time></trkpt>
<trkpt lat="53.0100450000" lon="-4.0495130000"><ele>128</ele><time>2016-09-30T12:49:40Z</time></trkpt>
<trkpt lat="53.0100360000" lon="-4.0495200000"><ele>127</ele><time>2016-09-30T12:49:41Z</time></trkpt>
<trkpt lat="53.0100260000" lon="-4.0495340000"><ele>127</ele><time>2016-09-30T12:49:42Z</time></trkpt>
<trkpt lat="53.0100160000" lon="-4.0495500000"><ele>127</ele><time>2016-09-30T12:49:43Z</time></trkpt>
<trkpt lat="53.0100060000" lon="-4.0495700000"><ele>127</ele><time>2016-09-30T12:49:44Z</time></trkpt>
<trkpt lat="53.0099960000" lon="-4.0495860000"><ele>127</ele><time>2016-09-30T12:49:45Z</time></trkpt>
<trkpt lat="53.0099850000" lon="-4.0496010000"><ele>127</ele><time>2016-09-30T12:49:46Z</time></trkpt>
<trkpt lat="53.0099740000" lon="-4.0496120000"><ele>127</ele><time>2016-09-30T12:49:47Z</time></trkpt>
<trkpt lat="53.0099670000" lon="-4.0496250000"><ele>127</ele><time>2016-09-30T12:49:48Z</time></trkpt>
<trkpt lat="53.0099390000" lon="-4.0496690000"><ele>126</ele><time>2016-09-30T12:50:05Z</time></trkpt>
<trkpt lat="53.0097840000" lon="-4.0498440000"><ele>125</ele><time>2016-09-30T12:50:08Z</time></trkpt>
<trkpt lat="53.0097550000" lon="-4.0498450000"><ele>124</ele><time>2016-09-30T12:50:19Z</time></trkpt>
<trkpt lat="53.0096410000" lon="-4.0498600000"><ele>124</ele><time>2016-09-30T12:50:21Z</time></trkpt>
<trkpt lat="53.0096150000" lon="-4.0498720000"><ele>124</ele><time>2016-09-30T12:50:23Z</time></trkpt>
<trkpt lat="53.0095900000" lon="-4.0498810000"><ele>123</ele><time>2016-09-30T12:50:25Z</time></trkpt>
<trkpt lat="53.0095620000" lon="-4.0498900000"><ele>123</ele><time>2016-09-30T12:50:27Z</time></trkpt>
<trkpt lat="53.0095400000" lon="-4.0499080000"><ele>123</ele><time>2016-09-30T12:50:29Z</time></trkpt>
<trkpt lat="53.0095200000" lon="-4.0499270000"><ele>123</ele><time>2016-09-30T12:50:31Z</time></trkpt>
<trkpt lat="53.0095130000" lon="-4.0499380000"><ele>123</ele><time>2016-09-30T12:50:32Z</time></trkpt>
<trkpt lat="53.0095070000" lon="-4.0499520000"><ele>123</ele><time>2016-09-30T12:50:33Z</time></trkpt>
<trkpt lat="53.0094990000" lon="-4.0499660000"><ele>123</ele><time>2016-09-30T12:50:34Z</time></trkpt>
<trkpt lat="53.0094990000" lon="-4.0499660000"><ele>122</ele><time>2016-09-30T12:50:35Z</time></trkpt>
<trkpt lat="53.0094990000" lon="-4.0499660000"><ele>122</ele><time>2016-09-30T12:50:36Z</time></trkpt>
<trkpt lat="53.0094980000" lon="-4.0499660000"><ele>122</ele><time>2016-09-30T12:50:38Z</time></trkpt>
<trkpt lat="53.0094980000" lon="-4.0499670000"><ele>122</ele></trkpt>
<trkpt lat="53.0094970000" lon="-4.0499680000"><ele>122</ele><time>2016-09-30T12:50:39Z</time></trkpt>
<trkpt lat="53.0094960000" lon="-4.0499700000"><ele>122</ele><time>2016-09-30T12:50:40Z</time></trkpt>
<trkpt lat="53.0094390000" lon="-4.0500640000"><ele>121</ele><time>2016-09-30T12:50:41Z</time></trkpt>
<trkpt lat="53.0094320000" lon="-4.0500790000"><ele>121</ele><time>2016-09-30T12:50:42Z</time></trkpt>
<trkpt lat="53.0094230000" lon="-4.0500940000"><ele>121</ele><time>2016-09-30T12:50:43Z</time></trkpt>
<trkpt lat="53.0094130000" lon="-4.0501100000"><ele>121</ele><time>2016-09-30T12:50:44Z</time></trkpt>
<trkpt lat="53.0094050000" lon="-4.0501230000"><ele>121</ele><time>2016-09-30T12:50:45Z</time></trkpt>
<trkpt lat="53.0093970000" lon="-4.0501360000"><ele>121</ele><time>2016-09-30T12:50:46Z</time></trkpt>
<trkpt lat="53.0093870000" lon="-4.0501500000"><ele>121</ele><time>2016-09-30T12:50:47Z</time></trkpt>
<trkpt lat="53.0093760000" lon="-4.0501610000"><ele>121</ele><time>2016-09-30T12:50:48Z</time></trkpt>
<trkpt lat="53.0093590000" lon="-4.0501610000"><ele>121</ele><time>2016-09-30T12:50:49Z</time></trkpt>
<trkpt lat="53.0093480000" lon="-4.0501610000"><ele>121</ele><time>2016-09-30T12:50:50Z</time></trkpt>
<trkpt lat="53.0093380000" lon="-4.0501700000"><ele>121</ele><time>2016-09-30T12:50:51Z</time></trkpt>
<trkpt lat="53.0093380000" lon="-4.0501700000"><ele>121</ele><time>2016-09-30T12:50:52Z</time></trkpt>
<trkpt lat="53.0093380000" lon="-4.0501700000"><ele>121</ele><time>2016-09-30T12:50:53Z</time></trkpt>
<trkpt lat="53.0093380000" lon="-4.0501700000"><ele>121</ele><time>2016-09-30T12:50:54Z</time></trkpt>
<trkpt lat="53.0093380000" lon="-4.0501710000"><ele>121</ele><time>2016-09-30T12:50:55Z</time></trkpt>
<trkpt lat="53.0093370000" lon="-4.0501720000"><ele>121</ele><time>2016-09-30T12:50:56Z</time></trkpt>
<trkpt lat="53.0093370000" lon="-4.0501740000"><ele>121</ele><time>2016-09-30T12:50:57Z</time></trkpt>
<trkpt lat="53.0093360000" lon="-4.0501760000"><ele>121</ele><time>2016-09-30T12:50:58Z</time></trkpt>
<trkpt lat="53.0093350000" lon="-4.0501790000"><ele>121</ele><time>2016-09-30T12:50:59Z</time></trkpt>
<trkpt lat="53.0093340000" lon="-4.0501810000"><ele>121</ele><time>2016-09-30T12:51:00Z</time></trkpt>
<trkpt lat="53.0093330000" lon="-4.0501840000"><ele>120</ele><time>2016-09-30T12:51:01Z</time></trkpt>
<trkpt lat="53.0093310000" lon="-4.0501880000"><ele>120</ele><time>2016-09-30T12:51:02Z</time></trkpt>
<trkpt lat="53.0093300000" lon="-4.0501920000"><ele>120</ele><time>2016-09-30T12:51:03Z</time></trkpt>
<trkpt lat="53.0093280000" lon="-4.0501970000"><ele>120</ele><time>2016-09-30T12:51:04Z</time></trkpt>
<trkpt lat="53.0093270000" lon="-4.0502010000"><ele>120</ele><time>2016-09-30T12:51:05Z</time></trkpt>
<trkpt lat="53.0093250000" lon="-4.0502060000"><ele>120</ele><time>2016-09-30T12:51:06Z</time></trkpt>
<trkpt lat="53.0093220000" lon="-4.0502110000"><ele>120</ele><time>2016-09-30T12:51:07Z</time></trkpt>
<trkpt lat="53.0093200000" lon="-4.0502150000"><ele>120</ele><time>2016-09-30T12:51:08Z</time></trkpt>
<trkpt lat="53.0093170000" lon="-4.0502190000"><ele>120</ele><time>2016-09-30T12:51:09Z</time></trkpt>
<trkpt lat="53.0093130000" lon="-4.0502230000"><ele>120</ele><time>2016-09-30T12:51:10Z</time></trkpt>
<trkpt lat="53.0093090000" lon="-4.0502270000"><ele>120</ele><time>2016-09-30T12:51:11Z</time></trkpt>
<trkpt lat="53.0093040000" lon="-4.0502300000"><ele>120</ele><time>2016-09-30T12:51:12Z</time></trkpt>
<trkpt lat="53.0093000000" lon="-4.0502340000"><ele>120</ele><time>2016-09-30T12:51:13Z</time></trkpt>
<trkpt lat="53.0092950000" lon="-4.0502380000"><ele>120</ele><time>2016-09-30T12:51:14Z</time></trkpt>
<trkpt lat="53.0092890000" lon="-4.0502420000"><ele>120</ele><time>2016-09-30T12:51:15Z</time></trkpt>
<trkpt lat="53.0092830000" lon="-4.0502470000"><ele>121</ele><time>2016-09-30T12:51:16Z</time></trkpt>
<trkpt lat="53.0092760000" lon="-4.0502520000"><ele>121</ele><time>2016-09-30T12:51:17Z</time></trkpt>
<trkpt lat="53.0092690000" lon="-4.0502580000"><ele>121</ele><time>2016-09-30T12:51:18Z</time></trkpt>
<trkpt lat="53.0092630000" lon="-4.0502630000"><ele>121</ele><time>2016-09-30T12:51:19Z</time></trkpt>
<trkpt lat="53.0092560000" lon="-4.0502700000"><ele>121</ele><time>2016-09-30T12:51:20Z</time></trkpt>
<trkpt lat="53.0092490000" lon="-4.0502770000"><ele>121</ele><time>2016-09-30T12:51:21Z</time></trkpt>
<trkpt lat="53.0092420000" lon="-4.0502850000"><ele>121</ele><time>2016-09-30T12:51:22Z</time></trkpt>
<trkpt lat="53.0092350000" lon="-4.0502930000"><ele>121</ele><time>2016-09-30T12:51:23Z</time></trkpt>
<trkpt lat="53.0092270000" lon="-4.0503010000"><ele>121</ele><time>2016-09-30T12:51:24Z</time></trkpt>
<trkpt lat="53.0092190000" lon="-4.0503080000"><ele>121</ele><time>2016-09-30T12:51:25Z</time></trkpt>
<trkpt lat="53.0092100000" lon="-4.0503160000"><ele>121</ele><time>2016-09-30T12:51:26Z</time></trkpt>
<trkpt lat="53.0090650000" lon="-4.0504460000"><ele>121</ele><time>2016-09-30T12:51:27Z</time></trkpt>
<trkpt lat="53.0090550000" lon="-4.0504550000"><ele>121</ele><time>2016-09-30T12:51:28Z</time></trkpt>
<trkpt lat="53.0090450000" lon="-4.0504620000"><ele>121</ele><time>2016-09-30T12:51:29Z</time></trkpt>
<trkpt lat="53.0090450000" lon="-4.0504620000"><ele>121</ele><time>2016-09-30T12:51:30Z</time></trkpt>
<trkpt lat="53.0090450000" lon="-4.0504620000"><ele>121</ele><time>2016-09-30T12:51:31Z</time></trkpt>
<trkpt lat="53.0090440000" lon="-4.0504620000"><ele>121</ele><time>2016-09-30T12:51:32Z</time></trkpt>
<trkpt lat="53.0089940000" lon="-4.0504750000"><ele>121</ele><time>2016-09-30T12:51:33Z</time></trkpt>
<trkpt lat="53.0089830000" lon="-4.0504860000"><ele>121</ele><time>2016-09-30T12:51:34Z</time></trkpt>
<trkpt lat="53.0089710000" lon="-4.0504930000"><ele>121</ele><time>2016-09-30T12:51:35Z</time></trkpt>
<trkpt lat="53.0089600000" lon="-4.0505050000"><ele>121</ele><time>2016-09-30T12:51:36Z</time></trkpt>
<trkpt lat="53.0089490000" lon="-4.0505190000"><ele>121</ele><time>2016-09-30T12:51:38Z</time></trkpt>
<trkpt lat="53.0089370000" lon="-4.0505330000"><ele>121</ele></trkpt>
<trkpt lat="53.0089280000" lon="-4.0505460000"><ele>121</ele><time>2016-09-30T12:51:39Z</time></trkpt>
<trkpt lat="53.0089180000" lon="-4.0505600000"><ele>121</ele><time>2016-09-30T12:51:40Z</time></trkpt>
<trkpt lat="53.0089080000" lon="-4.0505740000"><ele>121</ele><time>2016-09-30T12:51:41Z</time></trkpt>
<trkpt lat="53.0088990000" lon="-4.0505900000"><ele>121</ele><time>2016-09-30T12:51:42Z</time></trkpt>
<trkpt lat="53.0088900000" lon="-4.0506030000"><ele>121</ele><time>2016-09-30T12:51:43Z</time></trkpt>
<trkpt lat="53.0088790000" lon="-4.0506130000"><ele>121</ele><time>2016-09-30T12:51:44Z</time></trkpt>
<trkpt lat="53.0088710000" lon="-4.0506220000"><ele>121</ele><time>2016-09-30T12:51:45Z</time></trkpt>
<trkpt lat="53.0088710000" lon="-4.0506220000"><ele>121</ele><time>2016-09-30T12:51:46Z</time></trkpt>
<trkpt lat="53.0088710000" lon="-4.0506220000"><ele>121</ele><time>2016-09-30T12:51:47Z</time></trkpt>
<trkpt lat="53.0088710000" lon="-4.0506220000"><ele>121</ele><time>2016-09-30T12:51:48Z</time></trkpt>
<trkpt lat="53.0088700000" lon="-4.0506230000"><ele>121</ele><time>2016-09-30T12:51:49Z</time></trkpt>
<trkpt lat="53.0088690000" lon="-4.0506240000"><ele>120</ele><time>2016-09-30T12:51:50Z</time></trkpt>
<trkpt lat="53.0088680000" lon="-4.0506260000"><ele>120</ele><time>2016-09-30T12:51:51Z</time></trkpt>
<trkpt lat="53.0088660000" lon="-4.0506280000"><ele>120</ele><time>2016-09-30T12:51:52Z</time></trkpt>
<trkpt lat="53.0088640000" lon="-4.0506320000"><ele>120</ele><time>2016-09-30T12:51:53Z</time></trkpt>
<trkpt lat="53.0088620000" lon="-4.0506360000"><ele>120</ele><time>2016-09-30T12:51:54Z</time></trkpt>
<trkpt lat="53.0088590000" lon="-4.0506410000"><ele>120</ele><time>2016-09-30T12:51:55Z</time></trkpt>
<trkpt lat="53.0088560000" lon="-4.0506470000"><ele>120</ele><time>2016-09-30T12:51:56Z</time></trkpt>
<trkpt lat="53.0087680000" lon="-4.0508160000"><ele>119</ele><time>2016-09-30T12:51:57Z</time></trkpt>
<trkpt lat="53.0087580000" lon="-4.0508350000"><ele>119</ele><time>2016-09-30T12:51:58Z</time></trkpt>
<trkpt lat="53.0087470000" lon="-4.0508480000"><ele>119</ele><time>2016-09-30T12:51:59Z</time></trkpt>
<trkpt lat="53.0087350000" lon="-4.0508640000"><ele>119</ele><time>2016-09-30T12:52:00Z</time></trkpt>
<trkpt lat="53.0087260000" lon="-4.0508780000"><ele>118</ele><time>2016-09-30T12:52:01Z</time></trkpt>
<trkpt lat="53.0087160000" lon="-4.0508920000"><ele>118</ele><time>2016-09-30T12:52:02Z</time></trkpt>
<trkpt lat="53.0087060000" lon="-4.0509060000"><ele>118</ele><time>2016-09-30T12:52:03Z</time></trkpt>
<trkpt lat="53.0086960000" lon="-4.0509170000"><ele>118</ele><time>2016-09-30T12:52:04Z</time></trkpt>
<trkpt lat="53.0086870000" lon="-4.0509220000"><ele>117</ele><time>2016-09-30T12:52:05Z</time></trkpt>
<trkpt lat="53.0086780000" lon="-4.0509290000"><ele>117</ele><time>2016-09-30T12:52:06Z</time></trkpt>
<trkpt lat="53.0086710000" lon="-4.0509400000"><ele>117</ele><time>2016-09-30T12:52:07Z</time></trkpt>
<trkpt lat="53.0086610000" lon="-4.0509510000"><ele>116</ele><time>2016-09-30T12:52:08Z</time></trkpt>
<trkpt lat="53.0086500000" lon="-4.0509620000"><ele>116</ele><time>2016-09-30T12:52:09Z</time></trkpt>
<trkpt lat="53.0086400000" lon="-4.0509730000"><ele>116</ele><time>2016-09-30T12:52:10Z</time></trkpt>
<trkpt lat="53.0086280000" lon="-4.0509810000"><ele>116</ele><time>2016-09-30T12:52:11Z</time></trkpt>
<trkpt lat="53.0086160000" lon="-4.0509890000"><ele>115</ele><time>2016-09-30T12:52:12Z</time></trkpt>
<trkpt lat="53.0086050000" lon="-4.0509960000"><ele>115</ele><time>2016-09-30T12:52:13Z</time></trkpt>
<trkpt lat="53.0085930000" lon="-4.0510000000"><ele>115</ele><time>2016-09-30T12:52:14Z</time></trkpt>
<trkpt lat="53.0085810000" lon="-4.0510070000"><ele>115</ele><time>2016-09-30T12:52:15Z</time></trkpt>
<trkpt lat="53.0085700000" lon="-4.0510130000"><ele>115</ele><time>2016-09-30T12:52:16Z</time></trkpt>
<trkpt lat="53.0085590000" lon="-4.0510190000"><ele>115</ele><time>2016-09-30T12:52:17Z</time></trkpt>
<trkpt lat="53.0085470000" lon="-4.0510260000"><ele>114</ele><time>2016-09-30T12:52:18Z</time></trkpt>
<trkpt lat="53.0085350000" lon="-4.0510300000"><ele>114</ele><time>2016-09-30T12:52:19Z</time></trkpt>
<trkpt lat="53.0085250000" lon="-4.0510330000"><ele>114</ele><time>2016-09-30T12:52:20Z</time></trkpt>
<trkpt lat="53.0085150000" lon="-4.0510360000"><ele>114</ele><time>2016-09-30T12:52:21Z</time></trkpt>
<trkpt lat="53.0085080000" lon="-4.0510470000"><ele>113</ele><time>2016-09-30T12:52:22Z</time></trkpt>
<trkpt lat="53.0085080000" lon="-4.0510470000"><ele>113</ele><time>2016-09-30T12:52:23Z</time></trkpt>
<trkpt lat="53.0085080000" lon="-4.0510470000"><ele>113</ele><time>2016-09-30T12:52:24Z</time></trkpt>
<trkpt lat="53.0084810000" lon="-4.0510950000"><ele>113</ele><time>2016-09-30T12:52:25Z</time></trkpt>
<trkpt lat="53.0084720000" lon="-4.0511050000"><ele>112</ele><time>2016-09-30T12:52:26Z</time></trkpt>
<trkpt lat="53.0084650000" lon="-4.0511170000"><ele>112</ele><time>2016-09-30T12:52:27Z</time></trkpt>
<trkpt lat="53.0084570000" lon="-4.0511280000"><ele>112</ele><time>2016-09-30T12:52:28Z</time></trkpt>
<trkpt lat="53.0084570000" lon="-4.0511290000"><ele>112</ele><time>2016-09-30T12:52:29Z</time></trkpt>
<trkpt lat="53.0084570000" lon="-4.0511290000"><ele>111</ele><time>2016-09-30T12:52:30Z</time></trkpt>
<trkpt lat="53.0084570000" lon="-4.0511290000"><ele>111</ele><time>2016-09-30T12:52:31Z</time></trkpt>
<trkpt lat="53.0084570000" lon="-4.0511310000"><ele>111</ele><time>2016-09-30T12:52:32Z</time></trkpt>
<trkpt lat="53.0084560000" lon="-4.0511320000"><ele>111</ele><time>2016-09-30T12:52:33Z</time></trkpt>
<trkpt lat="53.0084140000" lon="-4.0512340000"><ele>111</ele><time>2016-09-30T12:52:34Z</time></trkpt>
<trkpt lat="53.0084060000" lon="-4.0512510000"><ele>110</ele><time>2016-09-30T12:52:35Z</time></trkpt>
<trkpt lat="53.0083970000" lon="-4.0512690000"><ele>110</ele><time>2016-09-30T12:52:36Z</time></trkpt>
<trkpt lat="53.0083910000" lon="-4.0512860000"><ele>110</ele><time>2016-09-30T12:52:38Z</time></trkpt>
<trkpt lat="53.0083870000" lon="-4.0513040000"><ele>110</ele></trkpt>
<trkpt lat="53.0083810000" lon="-4.0513250000"><ele>110</ele><time>2016-09-30T12:52:39Z</time></trkpt>
<trkpt lat="53.0083750000" lon="-4.0513470000"><ele>110</ele><time>2016-09-30T12:52:40Z</time></trkpt>
<trkpt lat="53.0083670000" lon="-4.0513700000"><ele>110</ele><time>2016-09-30T12:52:41Z</time></trkpt>
<trkpt lat="53.0083590000" lon="-4.0513930000"><ele>110</ele><time>2016-09-30T12:52:42Z</time></trkpt>
<trkpt lat="53.0083530000" lon="-4.0514150000"><ele>109</ele><time>2016-09-30T12:52:43Z</time></trkpt>
<trkpt lat="53.0083480000" lon="-4.0514340000"><ele>109</ele><time>2016-09-30T12:52:44Z</time></trkpt>
<trkpt lat="53.0083420000" lon="-4.0514560000"><ele>109</ele><time>2016-09-30T12:52:45Z</time></trkpt>
<trkpt lat="53.0083360000" lon="-4.0514790000"><ele>109</ele><time>2016-09-30T12:52:46Z</time></trkpt>
<trkpt lat="53.0083300000" lon="-4.0515010000"><ele>109</ele><time>2016-09-30T12:52:47Z</time></trkpt>
<trkpt lat="53.0083240000" lon="-4.0515260000"><ele>110</ele><time>2016-09-30T12:52:48Z</time></trkpt>
<trkpt lat="53.0083180000" lon="-4.0515480000"><ele>110</ele><time>2016-09-30T12:52:49Z</time></trkpt>
<trkpt lat="53.0083120000" lon="-4.0515690000"><ele>110</ele><time>2016-09-30T12:52:50Z</time></trkpt>
<trkpt lat="53.0083040000" lon="-4.0515850000"><ele>110</ele><time>2016-09-30T12:52:51Z</time></trkpt>
<trkpt lat="53.0082960000" lon="-4.0515990000"><ele>110</ele><time>2016-09-30T12:52:52Z</time></trkpt>
<trkpt lat="53.0082860000" lon="-4.0516150000"><ele>110</ele><time>2016-09-30T12:52:53Z</time></trkpt>
<trkpt lat="53.0082750000" lon="-4.0516280000"><ele>110</ele><time>2016-09-30T12:52:54Z</time></trkpt>
<trkpt lat="53.0082640000" lon="-4.0516440000"><ele>110</ele><time>2016-09-30T12:52:55Z</time></trkpt>
<trkpt lat="53.0082530000" lon="-4.0516610000"><ele>110</ele><time>2016-09-30T12:52:56Z</time></trkpt>
<trkpt lat="53.0082420000" lon="-4.0516770000"><ele>110</ele><time>2016-09-30T12:52:57Z</time></trkpt>
<trkpt lat="53.0082310000" lon="-4.0516930000"><ele>110</ele><time>2016-09-30T12:52:58Z</time></trkpt>
<trkpt lat="53.0082200000" lon="-4.0517100000"><ele>110</ele><time>2016-09-30T12:52:59Z</time></trkpt>
<trkpt lat="53.0082090000" lon="-4.0517260000"><ele>110</ele><time>2016-09-30T12:53:00Z</time></trkpt>
<trkpt lat="53.0081980000" lon="-4.0517410000"><ele>110</ele><time>2016-09-30T12:53:01Z</time></trkpt>
<trkpt lat="53.0081870000" lon="-4.0517570000"><ele>110</ele><time>2016-09-30T12:53:02Z</time></trkpt>
<trkpt lat="53.0081770000" lon="-4.0517710000"><ele>110</ele><time>2016-09-30T12:53:03Z</time></trkpt>
<trkpt lat="53.0081650000" lon="-4.0517850000"><ele>110</ele><time>2016-09-30T12:53:04Z</time></trkpt>
<trkpt lat="53.0081540000" lon="-4.0518020000"><ele>110</ele><time>2016-09-30T12:53:05Z</time></trkpt>
<trkpt lat="53.0081460000" lon="-4.0518180000"><ele>109</ele><time>2016-09-30T12:53:06Z</time></trkpt>
<trkpt lat="53.0081410000" lon="-4.0518350000"><ele>109</ele><time>2016-09-30T12:53:07Z</time></trkpt>
<trkpt lat="53.0081360000" lon="-4.0518530000"><ele>109</ele><time>2016-09-30T12:53:08Z</time></trkpt>
<trkpt lat="53.0081310000" lon="-4.0518730000"><ele>109</ele><time>2016-09-30T12:53:09Z</time></trkpt>
<trkpt lat="53.0081240000" lon="-4.0518890000"><ele>109</ele><time>2016-09-30T12:53:10Z</time></trkpt>
<trkpt lat="53.0081140000" lon="-4.0519030000"><ele>109</ele><time>2016-09-30T12:53:11Z</time></trkpt>
<trkpt lat="53.0081060000" lon="-4.0519100000"><ele>109</ele><time>2016-09-30T12:53:12Z</time></trkpt>
<trkpt lat="53.0080980000" lon="-4.0519210000"><ele>109</ele><time>2016-09-30T12:53:13Z</time></trkpt>
<trkpt lat="53.0080860000" lon="-4.0519300000"><ele>110</ele><time>2016-09-30T12:53:14Z</time></trkpt>
<trkpt lat="53.0080740000" lon="-4.0519340000"><ele>110</ele><time>2016-09-30T12:53:15Z</time></trkpt>
<trkpt lat="53.0080630000" lon="-4.0519370000"><ele>110</ele><time>2016-09-30T12:53:16Z</time></trkpt>
<trkpt lat="53.0080530000" lon="-4.0519420000"><ele>110</ele><time>2016-09-30T12:53:17Z</time></trkpt>
<trkpt lat="53.0080440000" lon="-4.0519490000"><ele>110</ele><time>2016-09-30T12:53:18Z</time></trkpt>
<trkpt lat="53.0080350000" lon="-4.0519500000"><ele>110</ele><time>2016-09-30T12:53:19Z</time></trkpt>
<trkpt lat="53.0080260000" lon="-4.0519500000"><ele>110</ele><time>2016-09-30T12:53:20Z</time></trkpt>
<trkpt lat="53.0080260000" lon="-4.0519500000"><ele>110</ele><time>2016-09-30T12:53:21Z</time></trkpt>
<trkpt lat="53.0080030000" lon="-4.0519560000"><ele>110</ele><time>2016-09-30T12:53:22Z</time></trkpt>
<trkpt lat="53.0079920000" lon="-4.0519560000"><ele>110</ele><time>2016-09-30T12:53:23Z</time></trkpt>
<trkpt lat="53.0079810000" lon="-4.0519550000"><ele>110</ele><time>2016-09-30T12:53:24Z</time></trkpt>
<trkpt lat="53.0079710000" lon="-4.0519560000"><ele>110</ele><time>2016-09-30T12:53:25Z</time></trkpt>
<trkpt lat="53.0079610000" lon="-4.0519600000"><ele>110</ele><time>2016-09-30T12:53:26Z</time></trkpt>
<trkpt lat="53.0079500000" lon="-4.0519630000"><ele>110</ele><time>2016-09-30T12:53:27Z</time></trkpt>
<trkpt lat="53.0079430000" lon="-4.0519640000"><ele>110</ele><time>2016-09-30T12:53:28Z</time></trkpt>
<trkpt lat="53.0079430000" lon="-4.0519640000"><ele>110</ele><time>2016-09-30T12:53:30Z</time></trkpt>
<trkpt lat="53.0079430000" lon="-4.0519640000"><ele>110</ele><time>2016-09-30T12:53:31Z</time></trkpt>
<trkpt lat="53.0079420000" lon="-4.0519640000"><ele>110</ele><time>2016-09-30T12:53:32Z</time></trkpt>
<trkpt lat="53.0079420000" lon="-4.0519640000"><ele>110</ele><time>2016-09-30T12:53:33Z</time></trkpt>
<trkpt lat="53.0079410000" lon="-4.0519640000"><ele>110</ele><time>2016-09-30T12:53:34Z</time></trkpt>
<trkpt lat="53.0079400000" lon="-4.0519640000"><ele>110</ele><time>2016-09-30T12:53:35Z</time></trkpt>
<trkpt lat="53.0079390000" lon="-4.0519640000"><ele>110</ele><time>2016-09-30T12:53:36Z</time></trkpt>
<trkpt lat="53.0079380000" lon="-4.0519640000"><ele>110</ele><time>2016-09-30T12:53:38Z</time></trkpt>
<trkpt lat="53.0079370000" lon="-4.0519650000"><ele>110</ele></trkpt>
<trkpt lat="53.0079360000" lon="-4.0519650000"><ele>110</ele><time>2016-09-30T12:53:39Z</time></trkpt>
<trkpt lat="53.0079350000" lon="-4.0519660000"><ele>110</ele><time>2016-09-30T12:53:40Z</time></trkpt>
<trkpt lat="53.0079340000" lon="-4.0519680000"><ele>110</ele><time>2016-09-30T12:53:41Z</time></trkpt>
<trkpt lat="53.0079320000" lon="-4.0519690000"><ele>110</ele><time>2016-09-30T12:53:42Z</time></trkpt>
<trkpt lat="53.0079300000" lon="-4.0519700000"><ele>110</ele><time>2016-09-30T12:53:43Z</time></trkpt>
<trkpt lat="53.0079290000" lon="-4.0519710000"><ele>110</ele><time>2016-09-30T12:53:44Z</time></trkpt>
<trkpt lat="53.0079260000" lon="-4.0519720000"><ele>110</ele><time>2016-09-30T12:53:45Z</time></trkpt>
<trkpt lat="53.0079240000" lon="-4.0519720000"><ele>110</ele><time>2016-09-30T12:53:46Z</time></trkpt>
<trkpt lat="53.0079210000" lon="-4.0519740000"><ele>109</ele><time>2016-09-30T12:53:47Z</time></trkpt>
<trkpt lat="53.0079180000" lon="-4.0519750000"><ele>109</ele><time>2016-09-30T12:53:48Z</time></trkpt>
<trkpt lat="53.0079150000" lon="-4.0519780000"><ele>109</ele><time>2016-09-30T12:53:49Z</time></trkpt>
<trkpt lat="53.0079120000" lon="-4.0519800000"><ele>109</ele><time>2016-09-30T12:53:50Z</time></trkpt>
<trkpt lat="53.0079070000" lon="-4.0519830000"><ele>109</ele><time>2016-09-30T12:53:51Z</time></trkpt>
<trkpt lat="53.0079030000" lon="-4.0519860000"><ele>109</ele><time>2016-09-30T12:53:52Z</time></trkpt>
<trkpt lat="53.0078980000" lon="-4.0519890000"><ele>109</ele><time>2016-09-30T12:53:53Z</time></trkpt>
<trkpt lat="53.0078930000" lon="-4.0519930000"><ele>109</ele><time>2016-09-30T12:53:54Z</time></trkpt>
<trkpt lat="53.0078880000" lon="-4.0519960000"><ele>109</ele><time>2016-09-30T12:53:55Z</time></trkpt>
<trkpt lat="53.0078830000" lon="-4.0520000000"><ele>109</ele><time>2016-09-30T12:53:56Z</time></trkpt>
<trkpt lat="53.0078780000" lon="-4.0520040000"><ele>109</ele><time>2016-09-30T12:53:57Z</time></trkpt>
<trkpt lat="53.0078730000" lon="-4.0520080000"><ele>109</ele><time>2016-09-30T12:53:58Z</time></trkpt>
<trkpt lat="53.0078660000" lon="-4.0520130000"><ele>109</ele><time>2016-09-30T12:53:59Z</time></trkpt>
<trkpt lat="53.0078580000" lon="-4.0520190000"><ele>109</ele><time>2016-09-30T12:54:00Z</time></trkpt>
<trkpt lat="53.0078510000" lon="-4.0520250000"><ele>109</ele><time>2016-09-30T12:54:01Z</time></trkpt>
<trkpt lat="53.0078430000" lon="-4.0520310000"><ele>109</ele><time>2016-09-30T12:54:02Z</time></trkpt>
<trkpt lat="53.0078350000" lon="-4.0520370000"><ele>109</ele><time>2016-09-30T12:54:03Z</time></trkpt>
<trkpt lat="53.0078270000" lon="-4.0520440000"><ele>109</ele><time>2016-09-30T12:54:04Z</time></trkpt>
<trkpt lat="53.0078190000" lon="-4.0520510000"><ele>109</ele><time>2016-09-30T12:54:05Z</time></trkpt>
<trkpt lat="53.0078100000" lon="-4.0520580000"><ele>109</ele><time>2016-09-30T12:54:06Z</time></trkpt>
<trkpt lat="53.0076520000" lon="-4.0521970000"><ele>109</ele><time>2016-09-30T12:54:07Z</time></trkpt>
<trkpt lat="53.0076410000" lon="-4.0522060000"><ele>109</ele><time>2016-09-30T12:54:08Z</time></trkpt>
<trkpt lat="53.0076300000" lon="-4.0522130000"><ele>109</ele><time>2016-09-30T12:54:09Z</time></trkpt>
<trkpt lat="53.0076200000" lon="-4.0522170000"><ele>109</ele><time>2016-09-30T12:54:10Z</time></trkpt>
<trkpt lat="53.0076200000" lon="-4.0522170000"><ele>109</ele><time>2016-09-30T12:54:11Z</time></trkpt>
<trkpt lat="53.0076190000" lon="-4.0522170000"><ele>109</ele><time>2016-09-30T12:54:12Z</time></trkpt>
<trkpt lat="53.0076190000" lon="-4.0522180000"><ele>109</ele><time>2016-09-30T12:54:13Z</time></trkpt>
<trkpt lat="53.0076180000" lon="-4.0522180000"><ele>109</ele><time>2016-09-30T12:54:14Z</time></trkpt>
<trkpt lat="53.0076170000" lon="-4.0522180000"><ele>109</ele><time>2016-09-30T12:54:15Z</time></trkpt>
<trkpt lat="53.0076160000" lon="-4.0522190000"><ele>109</ele><time>2016-09-30T12:54:16Z</time></trkpt>
<trkpt lat="53.0076140000" lon="-4.0522200000"><ele>109</ele><time>2016-09-30T12:54:17Z</time></trkpt>
<trkpt lat="53.0076120000" lon="-4.0522220000"><ele>109</ele><time>2016-09-30T12:54:18Z</time></trkpt>
<trkpt lat="53.0076090000" lon="-4.0522240000"><ele>109</ele><time>2016-09-30T12:54:19Z</time></trkpt>
<trkpt lat="53.0076050000" lon="-4.0522260000"><ele>109</ele><time>2016-09-30T12:54:20Z</time></trkpt>
<trkpt lat="53.0074900000" lon="-4.0523140000"><ele>109</ele><time>2016-09-30T12:54:21Z</time></trkpt>
<trkpt lat="53.0074780000" lon="-4.0523250000"><ele>109</ele><time>2016-09-30T12:54:22Z</time></trkpt>
<trkpt lat="53.0074670000" lon="-4.0523350000"><ele>109</ele><time>2016-09-30T12:54:23Z</time></trkpt>
<trkpt lat="53.0074570000" lon="-4.0523500000"><ele>109</ele><time>2016-09-30T12:54:24Z</time></trkpt>
<trkpt lat="53.0074480000" lon="-4.0523660000"><ele>109</ele><time>2016-09-30T12:54:25Z</time></trkpt>
<trkpt lat="53.0074370000" lon="-4.0523800000"><ele>109</ele><time>2016-09-30T12:54:26Z</time></trkpt>
<trkpt lat="53.0074240000" lon="-4.0523860000"><ele>109</ele><time>2016-09-30T12:54:27Z</time></trkpt>
<trkpt lat="53.0074130000" lon="-4.0523930000"><ele>109</ele><time>2016-09-30T12:54:28Z</time></trkpt>
<trkpt lat="53.0074030000" lon="-4.0524050000"><ele>110</ele><time>2016-09-30T12:54:29Z</time></trkpt>
<trkpt lat="53.0073940000" lon="-4.0524170000"><ele>110</ele><time>2016-09-30T12:54:30Z</time></trkpt>
<trkpt lat="53.0073860000" lon="-4.0524270000"><ele>110</ele><time>2016-09-30T12:54:31Z</time></trkpt>
<trkpt lat="53.0073810000" lon="-4.0524390000"><ele>110</ele><time>2016-09-30T12:54:32Z</time></trkpt>
<trkpt lat="53.0073730000" lon="-4.0524510000"><ele>110</ele><time>2016-09-30T12:54:33Z</time></trkpt>
<trkpt lat="53.0073670000" lon="-4.0524660000"><ele>110</ele><time>2016-09-30T12:54:34Z</time></trkpt>
<trkpt lat="53.0073670000" lon="-4.0524660000"><ele>110</ele><time>2016-09-30T12:54:36Z</time></trkpt>
<trkpt lat="53.0073670000" lon="-4.0524670000"><ele>110</ele><time>2016-09-30T12:54:38Z</time></trkpt>
<trkpt lat="53.0073660000" lon="-4.0524670000"><ele>110</ele></trkpt>
<trkpt lat="53.0073660000" lon="-4.0524680000"><ele>110</ele><time>2016-09-30T12:54:39Z</time></trkpt>
<trkpt lat="53.0073650000" lon="-4.0524690000"><ele>111</ele><time>2016-09-30T12:54:40Z</time></trkpt>
<trkpt lat="53.0073650000" lon="-4.0524700000"><ele>111</ele><time>2016-09-30T12:54:41Z</time></trkpt>
<trkpt lat="53.0073640000" lon="-4.0524710000"><ele>111</ele><time>2016-09-30T12:54:42Z</time></trkpt>
<trkpt lat="53.0073640000" lon="-4.0524720000"><ele>111</ele><time>2016-09-30T12:54:43Z</time></trkpt>
<trkpt lat="53.0073630000" lon="-4.0524740000"><ele>111</ele><time>2016-09-30T12:54:44Z</time></trkpt>
<trkpt lat="53.0073620000" lon="-4.0524760000"><ele>110</ele><time>2016-09-30T12:54:45Z</time></trkpt>
<trkpt lat="53.0073610000" lon="-4.0524790000"><ele>110</ele><time>2016-09-30T12:54:46Z</time></trkpt>
<trkpt lat="53.0073590000" lon="-4.0524820000"><ele>110</ele><time>2016-09-30T12:54:47Z</time></trkpt>
<trkpt lat="53.0073570000" lon="-4.0524850000"><ele>110</ele><time>2016-09-30T12:54:48Z</time></trkpt>
<trkpt lat="53.0073560000" lon="-4.0524880000"><ele>110</ele><time>2016-09-30T12:54:49Z</time></trkpt>
<trkpt lat="53.0073540000" lon="-4.0524920000"><ele>110</ele><time>2016-09-30T12:54:50Z</time></trkpt>
<trkpt lat="53.0073510000" lon="-4.0524960000"><ele>110</ele><time>2016-09-30T12:54:51Z</time></trkpt>
<trkpt lat="53.0073490000" lon="-4.0525010000"><ele>109</ele><time>2016-09-30T12:54:52Z</time></trkpt>
<trkpt lat="53.0073460000" lon="-4.0525060000"><ele>109</ele><time>2016-09-30T12:54:53Z</time></trkpt>
<trkpt lat="53.0073430000" lon="-4.0525120000"><ele>109</ele><time>2016-09-30T12:54:54Z</time></trkpt>
<trkpt lat="53.0073390000" lon="-4.0525170000"><ele>109</ele><time>2016-09-30T12:54:55Z</time></trkpt>
<trkpt lat="53.0073350000" lon="-4.0525240000"><ele>109</ele><time>2016-09-30T12:54:56Z</time></trkpt>
<trkpt lat="53.0073310000" lon="-4.0525310000"><ele>109</ele><time>2016-09-30T12:54:57Z</time></trkpt>
<trkpt lat="53.0073270000" lon="-4.0525380000"><ele>109</ele><time>2016-09-30T12:54:58Z</time></trkpt>
<trkpt lat="53.0073220000" lon="-4.0525450000"><ele>109</ele><time>2016-09-30T12:54:59Z</time></trkpt>
<trkpt lat="53.0073170000" lon="-4.0525530000"><ele>109</ele><time>2016-09-30T12:55:00Z</time></trkpt>
<trkpt lat="53.0073120000" lon="-4.0525610000"><ele>109</ele><time>2016-09-30T12:55:01Z</time></trkpt>
<trkpt lat="53.0073070000" lon="-4.0525690000"><ele>109</ele><time>2016-09-30T12:55:02Z</time></trkpt>
<trkpt lat="53.0073010000" lon="-4.0525780000"><ele>109</ele><time>2016-09-30T12:55:03Z</time></trkpt>
<trkpt lat="53.0072950000" lon="-4.0525860000"><ele>109</ele><time>2016-09-30T12:55:04Z</time></trkpt>
<trkpt lat="53.0072890000" lon="-4.0525950000"><ele>109</ele><time>2016-09-30T12:55:05Z</time></trkpt>
<trkpt lat="53.0072830000" lon="-4.0526040000"><ele>109</ele><time>2016-09-30T12:55:06Z</time></trkpt>
<trkpt lat="53.0072770000" lon="-4.0526140000"><ele>109</ele><time>2016-09-30T12:55:07Z</time></trkpt>
<trkpt lat="53.0072710000" lon="-4.0526230000"><ele>109</ele><time>2016-09-30T12:55:08Z</time></trkpt>
<trkpt lat="53.0072640000" lon="-4.0526310000"><ele>109</ele><time>2016-09-30T12:55:09Z</time></trkpt>
<trkpt lat="53.0072580000" lon="-4.0526400000"><ele>109</ele><time>2016-09-30T12:55:11Z</time></trkpt>
<trkpt lat="53.0072510000" lon="-4.0526480000"><ele>109</ele></trkpt>
<trkpt lat="53.0072440000" lon="-4.0526560000"><ele>109</ele><time>2016-09-30T12:55:12Z</time></trkpt>
<trkpt lat="53.0072380000" lon="-4.0526640000"><ele>109</ele><time>2016-09-30T12:55:13Z</time></trkpt>
<trkpt lat="53.0072300000" lon="-4.0526720000"><ele>109</ele><time>2016-09-30T12:55:14Z</time></trkpt>
<trkpt lat="53.0072230000" lon="-4.0526800000"><ele>110</ele><time>2016-09-30T12:55:15Z</time></trkpt>
<trkpt lat="53.0072150000" lon="-4.0526890000"><ele>110</ele><time>2016-09-30T12:55:16Z</time></trkpt>
<trkpt lat="53.0072070000" lon="-4.0526970000"><ele>110</ele><time>2016-09-30T12:55:17Z</time></trkpt>
<trkpt lat="53.0070580000" lon="-4.0528550000"><ele>110</ele><time>2016-09-30T12:55:18Z</time></trkpt>
<trkpt lat="53.0070440000" lon="-4.0528680000"><ele>110</ele><time>2016-09-30T12:55:19Z</time></trkpt>
<trkpt lat="53.0070340000" lon="-4.0528820000"><ele>110</ele><time>2016-09-30T12:55:20Z</time></trkpt>
<trkpt lat="53.0070240000" lon="-4.0528960000"><ele>110</ele><time>2016-09-30T12:55:21Z</time></trkpt>
<trkpt lat="53.0070150000" lon="-4.0529040000"><ele>110</ele><time>2016-09-30T12:55:22Z</time></trkpt>
<trkpt lat="53.0070040000" lon="-4.0529100000"><ele>110</ele><time>2016-09-30T12:55:23Z</time></trkpt>
<trkpt lat="53.0070040000" lon="-4.0529100000"><ele>110</ele><time>2016-09-30T12:55:24Z</time></trkpt>
<trkpt lat="53.0070030000" lon="-4.0529100000"><ele>110</ele><time>2016-09-30T12:55:25Z</time></trkpt>
<trkpt lat="53.0070030000" lon="-4.0529110000"><ele>111</ele><time>2016-09-30T12:55:26Z</time></trkpt>
<trkpt lat="53.0070020000" lon="-4.0529110000"><ele>111</ele><time>2016-09-30T12:55:27Z</time></trkpt>
<trkpt lat="53.0070010000" lon="-4.0529120000"><ele>111</ele><time>2016-09-30T12:55:28Z</time></trkpt>
<trkpt lat="53.0070000000" lon="-4.0529130000"><ele>111</ele><time>2016-09-30T12:55:29Z</time></trkpt>
<trkpt lat="53.0069980000" lon="-4.0529140000"><ele>111</ele><time>2016-09-30T12:55:30Z</time></trkpt>
<trkpt lat="53.0069960000" lon="-4.0529150000"><ele>111</ele><time>2016-09-30T12:55:31Z</time></trkpt>
<trkpt lat="53.0069930000" lon="-4.0529160000"><ele>111</ele><time>2016-09-30T12:55:32Z</time></trkpt>
<trkpt lat="53.0069900000" lon="-4.0529180000"><ele>111</ele><time>2016-09-30T12:55:33Z</time></trkpt>
<trkpt lat="53.0069860000" lon="-4.0529190000"><ele>111</ele><time>2016-09-30T12:55:34Z</time></trkpt>
<trkpt lat="53.0069810000" lon="-4.0529210000"><ele>111</ele><time>2016-09-30T12:55:35Z</time></trkpt>
<trkpt lat="53.0069770000" lon="-4.0529240000"><ele>111</ele><time>2016-09-30T12:55:36Z</time></trkpt>
<trkpt lat="53.0069710000" lon="-4.0529270000"><ele>111</ele><time>2016-09-30T12:55:38Z</time></trkpt>
<trkpt lat="53.0069660000" lon="-4.0529300000"><ele>111</ele></trkpt>
<trkpt lat="53.0069600000" lon="-4.0529340000"><ele>112</ele><time>2016-09-30T12:55:39Z</time></trkpt>
<trkpt lat="53.0069550000" lon="-4.0529380000"><ele>112</ele><time>2016-09-30T12:55:40Z</time></trkpt>
<trkpt lat="53.0069490000" lon="-4.0529430000"><ele>112</ele><time>2016-09-30T12:55:41Z</time></trkpt>
<trkpt lat="53.0069430000" lon="-4.0529490000"><ele>112</ele><time>2016-09-30T12:55:42Z</time></trkpt>
<trkpt lat="53.0069370000" lon="-4.0529540000"><ele>112</ele><time>2016-09-30T12:55:43Z</time></trkpt>
<trkpt lat="53.0069310000" lon="-4.0529610000"><ele>112</ele><time>2016-09-30T12:55:44Z</time></trkpt>
<trkpt lat="53.0069240000" lon="-4.0529680000"><ele>112</ele><time>2016-09-30T12:55:45Z</time></trkpt>
<trkpt lat="53.0069180000" lon="-4.0529750000"><ele>112</ele><time>2016-09-30T12:55:46Z</time></trkpt>
<trkpt lat="53.0069110000" lon="-4.0529830000"><ele>112</ele><time>2016-09-30T12:55:47Z</time></trkpt>
<trkpt lat="53.0069050000" lon="-4.0529920000"><ele>112</ele><time>2016-09-30T12:55:48Z</time></trkpt>
<trkpt lat="53.0068980000" lon="-4.0530010000"><ele>112</ele><time>2016-09-30T12:55:49Z</time></trkpt>
<trkpt lat="53.0068910000" lon="-4.0530110000"><ele>112</ele><time>2016-09-30T12:55:50Z</time></trkpt>
<trkpt lat="53.0068850000" lon="-4.0530220000"><ele>112</ele><time>2016-09-30T12:55:51Z</time></trkpt>
<trkpt lat="53.0068780000" lon="-4.0530320000"><ele>112</ele><time>2016-09-30T12:55:52Z</time></trkpt>
<trkpt lat="53.0068720000" lon="-4.0530440000"><ele>112</ele><time>2016-09-30T12:55:53Z</time></trkpt>
<trkpt lat="53.0067560000" lon="-4.0532600000"><ele>112</ele><time>2016-09-30T12:55:54Z</time></trkpt>
<trkpt lat="53.0067550000" lon="-4.0532780000"><ele>112</ele><time>2016-09-30T12:55:55Z</time></trkpt>
<trkpt lat="53.0067550000" lon="-4.0532960000"><ele>112</ele><time>2016-09-30T12:55:56Z</time></trkpt>
<trkpt lat="53.0067580000" lon="-4.0533080000"><ele>112</ele><time>2016-09-30T12:55:57Z</time></trkpt>
<trkpt lat="53.0067580000" lon="-4.0533080000"><ele>112</ele><time>2016-09-30T12:55:59Z</time></trkpt>
<trkpt lat="53.0067580000" lon="-4.0533090000"><ele>112</ele><time>2016-09-30T12:56:00Z</time></trkpt>
<trkpt lat="53.0067590000" lon="-4.0533090000"><ele>111</ele><time>2016-09-30T12:56:01Z</time></trkpt>
<trkpt lat="53.0067590000" lon="-4.0533100000"><ele>111</ele><time>2016-09-30T12:56:02Z</time></trkpt>
<trkpt lat="53.0067600000" lon="-4.0533120000"><ele>111</ele><time>2016-09-30T12:56:03Z</time></trkpt>
<trkpt lat="53.0067600000" lon="-4.0533130000"><ele>111</ele><time>2016-09-30T12:56:04Z</time></trkpt>
<trkpt lat="53.0067610000" lon="-4.0533160000"><ele>111</ele><time>2016-09-30T12:56:05Z</time></trkpt>
<trkpt lat="53.0067630000" lon="-4.0533180000"><ele>111</ele><time>2016-09-30T12:56:06Z</time></trkpt>
<trkpt lat="53.0067640000" lon="-4.0533210000"><ele>111</ele><time>2016-09-30T12:56:07Z</time></trkpt>
<trkpt lat="53.0067650000" lon="-4.0533250000"><ele>110</ele><time>2016-09-30T12:56:08Z</time></trkpt>
<trkpt lat="53.0067670000" lon="-4.0533300000"><ele>110</ele><time>2016-09-30T12:56:09Z</time></trkpt>
<trkpt lat="53.0067680000" lon="-4.0533350000"><ele>110</ele><time>2016-09-30T12:56:10Z</time></trkpt>
<trkpt lat="53.0067690000" lon="-4.0533410000"><ele>110</ele><time>2016-09-30T12:56:11Z</time></trkpt>
<trkpt lat="53.0067700000" lon="-4.0533480000"><ele>110</ele><time>2016-09-30T12:56:12Z</time></trkpt>
<trkpt lat="53.0067710000" lon="-4.0533550000"><ele>110</ele><time>2016-09-30T12:56:13Z</time></trkpt>
<trkpt lat="53.0067710000" lon="-4.0533630000"><ele>110</ele><time>2016-09-30T12:56:14Z</time></trkpt>
<trkpt lat="53.0067710000" lon="-4.0533720000"><ele>110</ele><time>2016-09-30T12:56:15Z</time></trkpt>
<trkpt lat="53.0067710000" lon="-4.0533800000"><ele>110</ele><time>2016-09-30T12:56:16Z</time></trkpt>
<trkpt lat="53.0067700000" lon="-4.0533900000"><ele>110</ele><time>2016-09-30T12:56:17Z</time></trkpt>
<trkpt lat="53.0067690000" lon="-4.0533990000"><ele>110</ele><time>2016-09-30T12:56:18Z</time></trkpt>
<trkpt lat="53.0067680000" lon="-4.0534090000"><ele>110</ele><time>2016-09-30T12:56:19Z</time></trkpt>
<trkpt lat="53.0067660000" lon="-4.0534180000"><ele>110</ele><time>2016-09-30T12:56:20Z</time></trkpt>
<trkpt lat="53.0067640000" lon="-4.0534290000"><ele>110</ele><time>2016-09-30T12:56:21Z</time></trkpt>
<trkpt lat="53.0067620000" lon="-4.0534400000"><ele>110</ele><time>2016-09-30T12:56:22Z</time></trkpt>
<trkpt lat="53.0067600000" lon="-4.0534510000"><ele>110</ele><time>2016-09-30T12:56:23Z</time></trkpt>
<trkpt lat="53.0067580000" lon="-4.0534620000"><ele>110</ele><time>2016-09-30T12:56:24Z</time></trkpt>
<trkpt lat="53.0067550000" lon="-4.0534740000"><ele>111</ele><time>2016-09-30T12:56:25Z</time></trkpt>
<trkpt lat="53.0067530000" lon="-4.0534860000"><ele>111</ele><time>2016-09-30T12:56:26Z</time></trkpt>
<trkpt lat="53.0067500000" lon="-4.0534980000"><ele>111</ele><time>2016-09-30T12:56:27Z</time></trkpt>
<trkpt lat="53.0067470000" lon="-4.0535100000"><ele>111</ele><time>2016-09-30T12:56:28Z</time></trkpt>
<trkpt lat="53.0067440000" lon="-4.0535220000"><ele>111</ele><time>2016-09-30T12:56:29Z</time></trkpt>
<trkpt lat="53.0067400000" lon="-4.0535340000"><ele>111</ele><time>2016-09-30T12:56:30Z</time></trkpt>
<trkpt lat="53.0067370000" lon="-4.0535470000"><ele>111</ele><time>2016-09-30T12:56:31Z</time></trkpt>
<trkpt lat="53.0067340000" lon="-4.0535590000"><ele>112</ele><time>2016-09-30T12:56:32Z</time></trkpt>
<trkpt lat="53.0067300000" lon="-4.0535710000"><ele>112</ele><time>2016-09-30T12:56:33Z</time></trkpt>
<trkpt lat="53.0067270000" lon="-4.0535840000"><ele>112</ele><time>2016-09-30T12:56:34Z</time></trkpt>
<trkpt lat="53.0067240000" lon="-4.0535970000"><ele>112</ele><time>2016-09-30T12:56:35Z</time></trkpt>
<trkpt lat="53.0067210000" lon="-4.0536100000"><ele>112</ele><time>2016-09-30T12:56:36Z</time></trkpt>
<trkpt lat="53.0067180000" lon="-4.0536230000"><ele>112</ele><time>2016-09-30T12:56:38Z</time></trkpt>
<trkpt lat="53.0067150000" lon="-4.0536360000"><ele>112</ele></trkpt>
<trkpt lat="53.0067120000" lon="-4.0536490000"><ele>112</ele><time>2016-09-30T12:56:39Z</time></trkpt>
<trkpt lat="53.0067090000" lon="-4.0536630000"><ele>112</ele><time>2016-09-30T12:56:40Z</time></trkpt>
<trkpt lat="53.0067070000" lon="-4.0536770000"><ele>112</ele><time>2016-09-30T12:56:41Z</time></trkpt>
<trkpt lat="53.0067040000" lon="-4.0536920000"><ele>112</ele><time>2016-09-30T12:56:42Z</time></trkpt>
<trkpt lat="53.0067020000" lon="-4.0537060000"><ele>112</ele><time>2016-09-30T12:56:43Z</time></trkpt>
<trkpt lat="53.0067000000" lon="-4.0537200000"><ele>112</ele><time>2016-09-30T12:56:44Z</time></trkpt>
<trkpt lat="53.0066980000" lon="-4.0537340000"><ele>112</ele><time>2016-09-30T12:56:45Z</time></trkpt>
<trkpt lat="53.0066960000" lon="-4.0537470000"><ele>112</ele><time>2016-09-30T12:56:46Z</time></trkpt>
<trkpt lat="53.0066940000" lon="-4.0537610000"><ele>112</ele><time>2016-09-30T12:56:47Z</time></trkpt>
<trkpt lat="53.0066930000" lon="-4.0537740000"><ele>112</ele><time>2016-09-30T12:56:48Z</time></trkpt>
<trkpt lat="53.0066910000" lon="-4.0537870000"><ele>112</ele><time>2016-09-30T12:56:49Z</time></trkpt>
<trkpt lat="53.0066900000" lon="-4.0538010000"><ele>112</ele><time>2016-09-30T12:56:50Z</time></trkpt>
<trkpt lat="53.0066890000" lon="-4.0538150000"><ele>112</ele><time>2016-09-30T12:56:51Z</time></trkpt>
<trkpt lat="53.0066880000" lon="-4.0538290000"><ele>112</ele><time>2016-09-30T12:56:53Z</time></trkpt>
<trkpt lat="53.0066870000" lon="-4.0538380000"><ele>112</ele></trkpt>
<trkpt lat="53.0066780000" lon="-4.0539080000"><ele>113</ele><time>2016-09-30T12:56:59Z</time></trkpt>
<trkpt lat="53.0066270000" lon="-4.0542340000"><ele>113</ele><time>2016-09-30T12:57:00Z</time></trkpt>
<trkpt lat="53.0066100000" lon="-4.0542640000"><ele>113</ele><time>2016-09-30T12:57:02Z</time></trkpt>
<trkpt lat="53.0065980000" lon="-4.0542880000"><ele>113</ele><time>2016-09-30T12:57:10Z</time></trkpt>
<trkpt lat="53.0065970000" lon="-4.0542910000"><ele>113</ele><time>2016-09-30T12:57:11Z</time></trkpt>
<trkpt lat="53.0065950000" lon="-4.0542940000"><ele>113</ele><time>2016-09-30T12:57:12Z</time></trkpt>
<trkpt lat="53.0065920000" lon="-4.0542970000"><ele>113</ele><time>2016-09-30T12:57:13Z</time></trkpt>
<trkpt lat="53.0065900000" lon="-4.0543020000"><ele>113</ele><time>2016-09-30T12:57:14Z</time></trkpt>
<trkpt lat="53.0065860000" lon="-4.0543060000"><ele>113</ele><time>2016-09-30T12:57:15Z</time></trkpt>
<trkpt lat="53.0065830000" lon="-4.0543120000"><ele>113</ele><time>2016-09-30T12:57:16Z</time></trkpt>
<trkpt lat="53.0065790000" lon="-4.0543180000"><ele>113</ele><time>2016-09-30T12:57:17Z</time></trkpt>
<trkpt lat="53.0065750000" lon="-4.0543240000"><ele>112</ele><time>2016-09-30T12:57:18Z</time></trkpt>
<trkpt lat="53.0065690000" lon="-4.0543320000"><ele>112</ele><time>2016-09-30T12:57:19Z</time></trkpt>
<trkpt lat="53.0065640000" lon="-4.0543410000"><ele>112</ele><time>2016-09-30T12:57:20Z</time></trkpt>
<trkpt lat="53.0065590000" lon="-4.0543500000"><ele>112</ele><time>2016-09-30T12:57:21Z</time></trkpt>
<trkpt lat="53.0065530000" lon="-4.0543600000"><ele>112</ele><time>2016-09-30T12:57:22Z</time></trkpt>
<trkpt lat="53.0065470000" lon="-4.0543700000"><ele>112</ele><time>2016-09-30T12:57:23Z</time></trkpt>
<trkpt lat="53.0065410000" lon="-4.0543800000"><ele>112</ele><time>2016-09-30T12:57:24Z</time></trkpt>
<trkpt lat="53.0065350000" lon="-4.0543910000"><ele>112</ele><time>2016-09-30T12:57:25Z</time></trkpt>
<trkpt lat="53.0065280000" lon="-4.0544010000"><ele>112</ele><time>2016-09-30T12:57:26Z</time></trkpt>
<trkpt lat="53.0065220000" lon="-4.0544120000"><ele>112</ele><time>2016-09-30T12:57:27Z</time></trkpt>
<trkpt lat="53.0065150000" lon="-4.0544230000"><ele>112</ele><time>2016-09-30T12:57:28Z</time></trkpt>
<trkpt lat="53.0065090000" lon="-4.0544340000"><ele>112</ele><time>2016-09-30T12:57:29Z</time></trkpt>
<trkpt lat="53.0065020000" lon="-4.0544450000"><ele>112</ele><time>2016-09-30T12:57:30Z</time></trkpt>
<trkpt lat="53.0063850000" lon="-4.0546510000"><ele>112</ele><time>2016-09-30T12:57:31Z</time></trkpt>
<trkpt lat="53.0063810000" lon="-4.0546690000"><ele>112</ele><time>2016-09-30T12:57:32Z</time></trkpt>
<trkpt lat="53.0063770000" lon="-4.0546850000"><ele>112</ele><time>2016-09-30T12:57:33Z</time></trkpt>
<trkpt lat="53.0063740000" lon="-4.0547020000"><ele>112</ele><time>2016-09-30T12:57:34Z</time></trkpt>
<trkpt lat="53.0063710000" lon="-4.0547160000"><ele>112</ele><time>2016-09-30T12:57:35Z</time></trkpt>
<trkpt lat="53.0063710000" lon="-4.0547160000"><ele>112</ele><time>2016-09-30T12:57:36Z</time></trkpt>
<trkpt lat="53.0063700000" lon="-4.0547160000"><ele>112</ele><time>2016-09-30T12:57:38Z</time></trkpt>
<trkpt lat="53.0063700000" lon="-4.0547170000"><ele>112</ele></trkpt>
<trkpt lat="53.0063700000" lon="-4.0547170000"><ele>111</ele><time>2016-09-30T12:57:39Z</time></trkpt>
<trkpt lat="53.0063690000" lon="-4.0547190000"><ele>111</ele><time>2016-09-30T12:57:40Z</time></trkpt>
<trkpt lat="53.0063680000" lon="-4.0547210000"><ele>111</ele><time>2016-09-30T12:57:41Z</time></trkpt>
<trkpt lat="53.0063670000" lon="-4.0547230000"><ele>111</ele><time>2016-09-30T12:57:42Z</time></trkpt>
<trkpt lat="53.0063660000" lon="-4.0547270000"><ele>111</ele><time>2016-09-30T12:57:43Z</time></trkpt>
<trkpt lat="53.0063650000" lon="-4.0547310000"><ele>111</ele><time>2016-09-30T12:57:44Z</time></trkpt>
<trkpt lat="53.0063630000" lon="-4.0547350000"><ele>111</ele><time>2016-09-30T12:57:45Z</time></trkpt>
<trkpt lat="53.0063620000" lon="-4.0547410000"><ele>110</ele><time>2016-09-30T12:57:46Z</time></trkpt>
<trkpt lat="53.0063600000" lon="-4.0547470000"><ele>110</ele><time>2016-09-30T12:57:47Z</time></trkpt>
<trkpt lat="53.0063570000" lon="-4.0547540000"><ele>110</ele><time>2016-09-30T12:57:48Z</time></trkpt>
<trkpt lat="53.0063550000" lon="-4.0547620000"><ele>110</ele><time>2016-09-30T12:57:49Z</time></trkpt>
<trkpt lat="53.0063520000" lon="-4.0547700000"><ele>110</ele><time>2016-09-30T12:57:50Z</time></trkpt>
<trkpt lat="53.0063500000" lon="-4.0547780000"><ele>110</ele><time>2016-09-30T12:57:51Z</time></trkpt>
<trkpt lat="53.0063470000" lon="-4.0547880000"><ele>110</ele><time>2016-09-30T12:57:52Z</time></trkpt>
<trkpt lat="53.0063440000" lon="-4.0547980000"><ele>110</ele><time>2016-09-30T12:57:53Z</time></trkpt>
<trkpt lat="53.0063410000" lon="-4.0548090000"><ele>109</ele><time>2016-09-30T12:57:54Z</time></trkpt>
<trkpt lat="53.0063380000" lon="-4.0548200000"><ele>109</ele><time>2016-09-30T12:57:55Z</time></trkpt>
<trkpt lat="53.0063360000" lon="-4.0548320000"><ele>109</ele><time>2016-09-30T12:57:56Z</time></trkpt>
<trkpt lat="53.0063330000" lon="-4.0548440000"><ele>109</ele><time>2016-09-30T12:57:57Z</time></trkpt>
<trkpt lat="53.0063300000" lon="-4.0548580000"><ele>109</ele><time>2016-09-30T12:57:58Z</time></trkpt>
<trkpt lat="53.0063280000" lon="-4.0548720000"><ele>109</ele><time>2016-09-30T12:57:59Z</time></trkpt>
<trkpt lat="53.0063260000" lon="-4.0548870000"><ele>109</ele><time>2016-09-30T12:58:00Z</time></trkpt>
<trkpt lat="53.0063240000" lon="-4.0549020000"><ele>108</ele><time>2016-09-30T12:58:01Z</time></trkpt>
<trkpt lat="53.0062840000" lon="-4.0551890000"><ele>108</ele><time>2016-09-30T12:58:02Z</time></trkpt>
<trkpt lat="53.0062820000" lon="-4.0552100000"><ele>108</ele><time>2016-09-30T12:58:03Z</time></trkpt>
<trkpt lat="53.0062800000" lon="-4.0552260000"><ele>108</ele><time>2016-09-30T12:58:04Z</time></trkpt>
<trkpt lat="53.0062800000" lon="-4.0552260000"><ele>108</ele><time>2016-09-30T12:58:05Z</time></trkpt>
<trkpt lat="53.0062800000" lon="-4.0552260000"><ele>108</ele><time>2016-09-30T12:58:06Z</time></trkpt>
<trkpt lat="53.0062790000" lon="-4.0552270000"><ele>107</ele><time>2016-09-30T12:58:07Z</time></trkpt>
<trkpt lat="53.0062790000" lon="-4.0552280000"><ele>107</ele><time>2016-09-30T12:58:08Z</time></trkpt>
<trkpt lat="53.0062790000" lon="-4.0552300000"><ele>107</ele><time>2016-09-30T12:58:09Z</time></trkpt>
<trkpt lat="53.0062780000" lon="-4.0552330000"><ele>107</ele><time>2016-09-30T12:58:10Z</time></trkpt>
<trkpt lat="53.0062770000" lon="-4.0552360000"><ele>107</ele><time>2016-09-30T12:58:11Z</time></trkpt>
<trkpt lat="53.0062760000" lon="-4.0552400000"><ele>107</ele><time>2016-09-30T12:58:12Z</time></trkpt>
<trkpt lat="53.0062750000" lon="-4.0552440000"><ele>107</ele><time>2016-09-30T12:58:13Z</time></trkpt>
<trkpt lat="53.0062740000" lon="-4.0552500000"><ele>107</ele><time>2016-09-30T12:58:14Z</time></trkpt>
<trkpt lat="53.0062720000" lon="-4.0552560000"><ele>107</ele><time>2016-09-30T12:58:15Z</time></trkpt>
<trkpt lat="53.0062700000" lon="-4.0552620000"><ele>107</ele><time>2016-09-30T12:58:16Z</time></trkpt>
<trkpt lat="53.0062670000" lon="-4.0552690000"><ele>107</ele><time>2016-09-30T12:58:17Z</time></trkpt>
<trkpt lat="53.0062650000" lon="-4.0552760000"><ele>107</ele><time>2016-09-30T12:58:18Z</time></trkpt>
<trkpt lat="53.0062620000" lon="-4.0552840000"><ele>107</ele><time>2016-09-30T12:58:19Z</time></trkpt>
<trkpt lat="53.0062580000" lon="-4.0552920000"><ele>107</ele><time>2016-09-30T12:58:20Z</time></trkpt>
<trkpt lat="53.0062540000" lon="-4.0553010000"><ele>107</ele><time>2016-09-30T12:58:21Z</time></trkpt>
<trkpt lat="53.0062500000" lon="-4.0553110000"><ele>108</ele><time>2016-09-30T12:58:22Z</time></trkpt>
<trkpt lat="53.0062450000" lon="-4.0553210000"><ele>108</ele><time>2016-09-30T12:58:23Z</time></trkpt>
<trkpt lat="53.0062400000" lon="-4.0553310000"><ele>108</ele><time>2016-09-30T12:58:24Z</time></trkpt>
<trkpt lat="53.0062340000" lon="-4.0553410000"><ele>108</ele><time>2016-09-30T12:58:25Z</time></trkpt>
<trkpt lat="53.0062280000" lon="-4.0553520000"><ele>108</ele><time>2016-09-30T12:58:26Z</time></trkpt>
<trkpt lat="53.0062220000" lon="-4.0553630000"><ele>109</ele><time>2016-09-30T12:58:27Z</time></trkpt>
<trkpt lat="53.0062160000" lon="-4.0553750000"><ele>109</ele><time>2016-09-30T12:58:28Z</time></trkpt>
<trkpt lat="53.0062100000" lon="-4.0553860000"><ele>109</ele><time>2016-09-30T12:58:29Z</time></trkpt>
<trkpt lat="53.0062030000" lon="-4.0553980000"><ele>109</ele><time>2016-09-30T12:58:30Z</time></trkpt>
<trkpt lat="53.0060810000" lon="-4.0556180000"><ele>109</ele><time>2016-09-30T12:58:31Z</time></trkpt>
<trkpt lat="53.0060750000" lon="-4.0556310000"><ele>109</ele><time>2016-09-30T12:58:32Z</time></trkpt>
<trkpt lat="53.0060680000" lon="-4.0556430000"><ele>109</ele><time>2016-09-30T12:58:33Z</time></trkpt>
<trkpt lat="53.0060590000" lon="-4.0556520000"><ele>109</ele><time>2016-09-30T12:58:34Z</time></trkpt>
<trkpt lat="53.0060590000" lon="-4.0556520000"><ele>109</ele><time>2016-09-30T12:58:35Z</time></trkpt>
<trkpt lat="53.0060590000" lon="-4.0556530000"><ele>109</ele><time>2016-09-30T12:58:36Z</time></trkpt>
<trkpt lat="53.0060590000" lon="-4.0556530000"><ele>109</ele><time>2016-09-30T12:58:38Z</time></trkpt>
<trkpt lat="53.0060580000" lon="-4.0556530000"><ele>109</ele></trkpt>
<trkpt lat="53.0060570000" lon="-4.0556540000"><ele>109</ele><time>2016-09-30T12:58:39Z</time></trkpt>
<trkpt lat="53.0060560000" lon="-4.0556550000"><ele>109</ele><time>2016-09-30T12:58:40Z</time></trkpt>
<trkpt lat="53.0060540000" lon="-4.0556570000"><ele>109</ele><time>2016-09-30T12:58:41Z</time></trkpt>
<trkpt lat="53.0060520000" lon="-4.0556580000"><ele>110</ele><time>2016-09-30T12:58:42Z</time></trkpt>
<trkpt lat="53.0060490000" lon="-4.0556610000"><ele>110</ele><time>2016-09-30T12:58:43Z</time></trkpt>
<trkpt lat="53.0060450000" lon="-4.0556630000"><ele>110</ele><time>2016-09-30T12:58:44Z</time></trkpt>
<trkpt lat="53.0060410000" lon="-4.0556660000"><ele>110</ele><time>2016-09-30T12:58:45Z</time></trkpt>
<trkpt lat="53.0060330000" lon="-4.0556720000"><ele>110</ele><time>2016-09-30T12:58:47Z</time></trkpt>
<trkpt lat="53.0060290000" lon="-4.0556740000"><ele>110</ele><time>2016-09-30T12:58:48Z</time></trkpt>
<trkpt lat="53.0060270000" lon="-4.0556760000"><ele>111</ele><time>2016-09-30T12:58:49Z</time></trkpt>
<trkpt lat="53.0060000000" lon="-4.0556990000"><ele>111</ele><time>2016-09-30T12:58:54Z</time></trkpt>
<trkpt lat="53.0058670000" lon="-4.0558060000"><ele>111</ele><time>2016-09-30T12:58:57Z</time></trkpt>
<trkpt lat="53.0058260000" lon="-4.0558120000"><ele>111</ele><time>2016-09-30T12:59:02Z</time></trkpt>
<trkpt lat="53.0057960000" lon="-4.0558240000"><ele>111</ele><time>2016-09-30T12:59:03Z</time></trkpt>
<trkpt lat="53.0057820000" lon="-4.0558260000"><ele>111</ele><time>2016-09-30T12:59:04Z</time></trkpt>
<trkpt lat="53.0057700000" lon="-4.0558320000"><ele>111</ele><time>2016-09-30T12:59:05Z</time></trkpt>
<trkpt lat="53.0057600000" lon="-4.0558470000"><ele>111</ele><time>2016-09-30T12:59:06Z</time></trkpt>
<trkpt lat="53.0057470000" lon="-4.0558550000"><ele>111</ele><time>2016-09-30T12:59:07Z</time></trkpt>
<trkpt lat="53.0057390000" lon="-4.0558620000"><ele>111</ele><time>2016-09-30T12:59:08Z</time></trkpt>
<trkpt lat="53.0057280000" lon="-4.0558660000"><ele>111</ele><time>2016-09-30T12:59:09Z</time></trkpt>
<trkpt lat="53.0057280000" lon="-4.0558660000"><ele>111</ele><time>2016-09-30T12:59:10Z</time></trkpt>
<trkpt lat="53.0057280000" lon="-4.0558660000"><ele>111</ele><time>2016-09-30T12:59:11Z</time></trkpt>
<trkpt lat="53.0057270000" lon="-4.0558660000"><ele>111</ele><time>2016-09-30T12:59:12Z</time></trkpt>
<trkpt lat="53.0057270000" lon="-4.0558650000"><ele>111</ele><time>2016-09-30T12:59:13Z</time></trkpt>
<trkpt lat="53.0057250000" lon="-4.0558650000"><ele>112</ele><time>2016-09-30T12:59:14Z</time></trkpt>
<trkpt lat="53.0057240000" lon="-4.0558650000"><ele>112</ele><time>2016-09-30T12:59:15Z</time></trkpt>
<trkpt lat="53.0057210000" lon="-4.0558650000"><ele>112</ele><time>2016-09-30T12:59:16Z</time></trkpt>
<trkpt lat="53.0057190000" lon="-4.0558650000"><ele>112</ele><time>2016-09-30T12:59:17Z</time></trkpt>
<trkpt lat="53.0057160000" lon="-4.0558660000"><ele>112</ele><time>2016-09-30T12:59:18Z</time></trkpt>
<trkpt lat="53.0057120000" lon="-4.0558660000"><ele>112</ele><time>2016-09-30T12:59:19Z</time></trkpt>
<trkpt lat="53.0057080000" lon="-4.0558670000"><ele>111</ele><time>2016-09-30T12:59:20Z</time></trkpt>
<trkpt lat="53.0057040000" lon="-4.0558680000"><ele>111</ele><time>2016-09-30T12:59:21Z</time></trkpt>
<trkpt lat="53.0056990000" lon="-4.0558700000"><ele>111</ele><time>2016-09-30T12:59:22Z</time></trkpt>
<trkpt lat="53.0056940000" lon="-4.0558710000"><ele>111</ele><time>2016-09-30T12:59:23Z</time></trkpt>
<trkpt lat="53.0056890000" lon="-4.0558730000"><ele>111</ele><time>2016-09-30T12:59:24Z</time></trkpt>
<trkpt lat="53.0056830000" lon="-4.0558750000"><ele>111</ele><time>2016-09-30T12:59:25Z</time></trkpt>
<trkpt lat="53.0056770000" lon="-4.0558760000"><ele>111</ele><time>2016-09-30T12:59:26Z</time></trkpt>
<trkpt lat="53.0056710000" lon="-4.0558790000"><ele>111</ele><time>2016-09-30T12:59:27Z</time></trkpt>
<trkpt lat="53.0056650000" lon="-4.0558810000"><ele>111</ele><time>2016-09-30T12:59:28Z</time></trkpt>
<trkpt lat="53.0056580000" lon="-4.0558840000"><ele>111</ele><time>2016-09-30T12:59:29Z</time></trkpt>
<trkpt lat="53.0056520000" lon="-4.0558880000"><ele>111</ele><time>2016-09-30T12:59:30Z</time></trkpt>
<trkpt lat="53.0056450000" lon="-4.0558910000"><ele>111</ele><time>2016-09-30T12:59:31Z</time></trkpt>
<trkpt lat="53.0056380000" lon="-4.0558940000"><ele>111</ele><time>2016-09-30T12:59:32Z</time></trkpt>
<trkpt lat="53.0056320000" lon="-4.0558960000"><ele>111</ele><time>2016-09-30T12:59:33Z</time></trkpt>
<trkpt lat="53.0056250000" lon="-4.0558990000"><ele>111</ele><time>2016-09-30T12:59:34Z</time></trkpt>
<trkpt lat="53.0056180000" lon="-4.0559020000"><ele>111</ele><time>2016-09-30T12:59:35Z</time></trkpt>
<trkpt lat="53.0056110000" lon="-4.0559050000"><ele>111</ele><time>2016-09-30T12:59:36Z</time></trkpt>
<trkpt lat="53.0056050000" lon="-4.0559070000"><ele>111</ele><time>2016-09-30T12:59:38Z</time></trkpt>
<trkpt lat="53.0055980000" lon="-4.0559100000"><ele>111</ele></trkpt>
<trkpt lat="53.0055920000" lon="-4.0559130000"><ele>111</ele><time>2016-09-30T12:59:39Z</time></trkpt>
<trkpt lat="53.0055860000" lon="-4.0559160000"><ele>111</ele><time>2016-09-30T12:59:40Z</time></trkpt>
<trkpt lat="53.0055800000" lon="-4.0559180000"><ele>111</ele><time>2016-09-30T12:59:41Z</time></trkpt>
<trkpt lat="53.0055750000" lon="-4.0559200000"><ele>111</ele><time>2016-09-30T12:59:42Z</time></trkpt>
<trkpt lat="53.0055680000" lon="-4.0559220000"><ele>112</ele><time>2016-09-30T12:59:43Z</time></trkpt>
<trkpt lat="53.0055610000" lon="-4.0559250000"><ele>112</ele><time>2016-09-30T12:59:44Z</time></trkpt>
<trkpt lat="53.0055540000" lon="-4.0559270000"><ele>112</ele><time>2016-09-30T12:59:45Z</time></trkpt>
<trkpt lat="53.0055470000" lon="-4.0559290000"><ele>112</ele><time>2016-09-30T12:59:46Z</time></trkpt>
<trkpt lat="53.0055390000" lon="-4.0559310000"><ele>112</ele><time>2016-09-30T12:59:47Z</time></trkpt>
<trkpt lat="53.0055310000" lon="-4.0559330000"><ele>112</ele><time>2016-09-30T12:59:48Z</time></trkpt>
<trkpt lat="53.0055230000" lon="-4.0559360000"><ele>112</ele><time>2016-09-30T12:59:49Z</time></trkpt>
<trkpt lat="53.0055150000" lon="-4.0559380000"><ele>112</ele><time>2016-09-30T12:59:50Z</time></trkpt>
<trkpt lat="53.0055070000" lon="-4.0559410000"><ele>113</ele><time>2016-09-30T12:59:51Z</time></trkpt>
<trkpt lat="53.0054990000" lon="-4.0559450000"><ele>113</ele><time>2016-09-30T12:59:52Z</time></trkpt>
<trkpt lat="53.0054910000" lon="-4.0559490000"><ele>113</ele><time>2016-09-30T12:59:53Z</time></trkpt>
<trkpt lat="53.0054830000" lon="-4.0559530000"><ele>113</ele><time>2016-09-30T12:59:54Z</time></trkpt>
<trkpt lat="53.0054760000" lon="-4.0559580000"><ele>113</ele><time>2016-09-30T12:59:55Z</time></trkpt>
<trkpt lat="53.0054680000" lon="-4.0559620000"><ele>113</ele><time>2016-09-30T12:59:56Z</time></trkpt>
<trkpt lat="53.0054600000" lon="-4.0559670000"><ele>113</ele><time>2016-09-30T12:59:57Z</time></trkpt>
<trkpt lat="53.0054520000" lon="-4.0559720000"><ele>113</ele><time>2016-09-30T12:59:58Z</time></trkpt>
<trkpt lat="53.0054440000" lon="-4.0559770000"><ele>113</ele><time>2016-09-30T12:59:59Z</time></trkpt>
<trkpt lat="53.0054350000" lon="-4.0559820000"><ele>113</ele><time>2016-09-30T13:00:00Z</time></trkpt>
<trkpt lat="53.0054280000" lon="-4.0559870000"><ele>113</ele><time>2016-09-30T13:00:01Z</time></trkpt>
<trkpt lat="53.0054200000" lon="-4.0559930000"><ele>113</ele><time>2016-09-30T13:00:02Z</time></trkpt>
<trkpt lat="53.0054130000" lon="-4.0559980000"><ele>113</ele><time>2016-09-30T13:00:03Z</time></trkpt>
<trkpt lat="53.0054060000" lon="-4.0560030000"><ele>113</ele><time>2016-09-30T13:00:04Z</time></trkpt>
<trkpt lat="53.0054000000" lon="-4.0560080000"><ele>113</ele><time>2016-09-30T13:00:05Z</time></trkpt>
<trkpt lat="53.0053940000" lon="-4.0560120000"><ele>113</ele><time>2016-09-30T13:00:06Z</time></trkpt>
<trkpt lat="53.0053880000" lon="-4.0560160000"><ele>113</ele><time>2016-09-30T13:00:07Z</time></trkpt>
<trkpt lat="53.0053830000" lon="-4.0560200000"><ele>113</ele><time>2016-09-30T13:00:08Z</time></trkpt>
<trkpt lat="53.0053780000" lon="-4.0560240000"><ele>112</ele><time>2016-09-30T13:00:09Z</time></trkpt>
<trkpt lat="53.0053730000" lon="-4.0560270000"><ele>112</ele><time>2016-09-30T13:00:10Z</time></trkpt>
<trkpt lat="53.0053680000" lon="-4.0560300000"><ele>112</ele><time>2016-09-30T13:00:11Z</time></trkpt>
<trkpt lat="53.0053650000" lon="-4.0560320000"><ele>112</ele><time>2016-09-30T13:00:12Z</time></trkpt>
<trkpt lat="53.0053620000" lon="-4.0560340000"><ele>112</ele><time>2016-09-30T13:00:13Z</time></trkpt>
<trkpt lat="53.0053590000" lon="-4.0560350000"><ele>111</ele><time>2016-09-30T13:00:14Z</time></trkpt>
<trkpt lat="53.0053570000" lon="-4.0560360000"><ele>111</ele><time>2016-09-30T13:00:15Z</time></trkpt>
<trkpt lat="53.0053560000" lon="-4.0560370000"><ele>111</ele><time>2016-09-30T13:00:16Z</time></trkpt>
<trkpt lat="53.0053540000" lon="-4.0560370000"><ele>111</ele><time>2016-09-30T13:00:17Z</time></trkpt>
<trkpt lat="53.0053530000" lon="-4.0560370000"><ele>111</ele><time>2016-09-30T13:00:18Z</time></trkpt>
<trkpt lat="53.0053520000" lon="-4.0560360000"><ele>111</ele><time>2016-09-30T13:00:19Z</time></trkpt>
<trkpt lat="53.0053500000" lon="-4.0560350000"><ele>111</ele><time>2016-09-30T13:00:20Z</time></trkpt>
<trkpt lat="53.0053490000" lon="-4.0560320000"><ele>111</ele><time>2016-09-30T13:00:21Z</time></trkpt>
<trkpt lat="53.0053480000" lon="-4.0560300000"><ele>112</ele><time>2016-09-30T13:00:22Z</time></trkpt>
<trkpt lat="53.0053470000" lon="-4.0560270000"><ele>112</ele><time>2016-09-30T13:00:23Z</time></trkpt>
<trkpt lat="53.0053460000" lon="-4.0560240000"><ele>112</ele><time>2016-09-30T13:00:24Z</time></trkpt>
<trkpt lat="53.0053440000" lon="-4.0560210000"><ele>112</ele><time>2016-09-30T13:00:25Z</time></trkpt>
<trkpt lat="53.0053420000" lon="-4.0560170000"><ele>112</ele><time>2016-09-30T13:00:26Z</time></trkpt>
<trkpt lat="53.0053400000" lon="-4.0560130000"><ele>112</ele><time>2016-09-30T13:00:27Z</time></trkpt>
<trkpt lat="53.0053390000" lon="-4.0560090000"><ele>112</ele><time>2016-09-30T13:00:28Z</time></trkpt>
<trkpt lat="53.0053370000" lon="-4.0560050000"><ele>112</ele><time>2016-09-30T13:00:29Z</time></trkpt>
<trkpt lat="53.0053340000" lon="-4.0560000000"><ele>112</ele><time>2016-09-30T13:00:30Z</time></trkpt>
<trkpt lat="53.0053320000" lon="-4.0559950000"><ele>112</ele><time>2016-09-30T13:00:31Z</time></trkpt>
<trkpt lat="53.0053300000" lon="-4.0559900000"><ele>112</ele><time>2016-09-30T13:00:32Z</time></trkpt>
<trkpt lat="53.0053270000" lon="-4.0559840000"><ele>112</ele><time>2016-09-30T13:00:33Z</time></trkpt>
<trkpt lat="53.0053240000" lon="-4.0559790000"><ele>112</ele><time>2016-09-30T13:00:34Z</time></trkpt>
<trkpt lat="53.0053220000" lon="-4.0559740000"><ele>112</ele><time>2016-09-30T13:00:35Z</time></trkpt>
<trkpt lat="53.0053190000" lon="-4.0559690000"><ele>112</ele><time>2016-09-30T13:00:36Z</time></trkpt>
<trkpt lat="53.0053160000" lon="-4.0559640000"><ele>112</ele><time>2016-09-30T13:00:38Z</time></trkpt>
<trkpt lat="53.0053100000" lon="-4.0559540000"><ele>112</ele><time>2016-09-30T13:00:39Z</time></trkpt>
<trkpt lat="53.0052750000" lon="-4.0559360000"><ele>111</ele><time>2016-09-30T13:01:37Z</time></trkpt>
<trkpt lat="53.0052390000" lon="-4.0559950000"><ele>111</ele><time>2016-09-30T13:01:38Z</time></trkpt>
<trkpt lat="53.0052350000" lon="-4.0560340000"><ele>109</ele><time>2016-09-30T13:01:45Z</time></trkpt>
<trkpt lat="53.0052250000" lon="-4.0560590000"><ele>108</ele><time>2016-09-30T13:01:52Z</time></trkpt>
<trkpt lat="53.0052220000" lon="-4.0560640000"><ele>108</ele><time>2016-09-30T13:01:53Z</time></trkpt>
<trkpt lat="53.0051430000" lon="-4.0562150000"><ele>108</ele><time>2016-09-30T13:01:54Z</time></trkpt>
<trkpt lat="53.0051390000" lon="-4.0562240000"><ele>108</ele><time>2016-09-30T13:01:55Z</time></trkpt>
<trkpt lat="53.0051310000" lon="-4.0562360000"><ele>108</ele><time>2016-09-30T13:01:56Z</time></trkpt>
<trkpt lat="53.0051310000" lon="-4.0562360000"><ele>108</ele><time>2016-09-30T13:01:57Z</time></trkpt>
<trkpt lat="53.0051310000" lon="-4.0562360000"><ele>108</ele><time>2016-09-30T13:01:58Z</time></trkpt>
<trkpt lat="53.0051300000" lon="-4.0562370000"><ele>108</ele><time>2016-09-30T13:01:59Z</time></trkpt>
<trkpt lat="53.0051300000" lon="-4.0562370000"><ele>108</ele><time>2016-09-30T13:02:00Z</time></trkpt>
<trkpt lat="53.0051290000" lon="-4.0562380000"><ele>108</ele><time>2016-09-30T13:02:01Z</time></trkpt>
<trkpt lat="53.0051280000" lon="-4.0562400000"><ele>108</ele><time>2016-09-30T13:02:02Z</time></trkpt>
<trkpt lat="53.0051260000" lon="-4.0562420000"><ele>108</ele><time>2016-09-30T13:02:03Z</time></trkpt>
<trkpt lat="53.0051250000" lon="-4.0562430000"><ele>108</ele><time>2016-09-30T13:02:04Z</time></trkpt>
<trkpt lat="53.0051230000" lon="-4.0562460000"><ele>108</ele><time>2016-09-30T13:02:05Z</time></trkpt>
<trkpt lat="53.0051200000" lon="-4.0562490000"><ele>108</ele><time>2016-09-30T13:02:06Z</time></trkpt>
<trkpt lat="53.0051170000" lon="-4.0562530000"><ele>108</ele><time>2016-09-30T13:02:07Z</time></trkpt>
<trkpt lat="53.0051140000" lon="-4.0562580000"><ele>108</ele><time>2016-09-30T13:02:08Z</time></trkpt>
<trkpt lat="53.0051110000" lon="-4.0562630000"><ele>108</ele><time>2016-09-30T13:02:09Z</time></trkpt>
<trkpt lat="53.0051070000" lon="-4.0562690000"><ele>108</ele><time>2016-09-30T13:02:10Z</time></trkpt>
<trkpt lat="53.0051020000" lon="-4.0562760000"><ele>107</ele><time>2016-09-30T13:02:11Z</time></trkpt>
<trkpt lat="53.0050980000" lon="-4.0562830000"><ele>107</ele><time>2016-09-30T13:02:12Z</time></trkpt>
<trkpt lat="53.0050930000" lon="-4.0562900000"><ele>107</ele><time>2016-09-30T13:02:13Z</time></trkpt>
<trkpt lat="53.0050880000" lon="-4.0562980000"><ele>107</ele><time>2016-09-30T13:02:14Z</time></trkpt>
<trkpt lat="53.0050830000" lon="-4.0563070000"><ele>107</ele><time>2016-09-30T13:02:15Z</time></trkpt>
<trkpt lat="53.0050770000" lon="-4.0563150000"><ele>107</ele><time>2016-09-30T13:02:16Z</time></trkpt>
<trkpt lat="53.0050710000" lon="-4.0563240000"><ele>107</ele><time>2016-09-30T13:02:17Z</time></trkpt>
<trkpt lat="53.0050650000" lon="-4.0563330000"><ele>107</ele><time>2016-09-30T13:02:18Z</time></trkpt>
<trkpt lat="53.0050590000" lon="-4.0563430000"><ele>107</ele><time>2016-09-30T13:02:19Z</time></trkpt>
<trkpt lat="53.0050530000" lon="-4.0563530000"><ele>107</ele><time>2016-09-30T13:02:20Z</time></trkpt>
<trkpt lat="53.0050460000" lon="-4.0563640000"><ele>107</ele><time>2016-09-30T13:02:21Z</time></trkpt>
<trkpt lat="53.0050400000" lon="-4.0563750000"><ele>107</ele><time>2016-09-30T13:02:22Z</time></trkpt>
<trkpt lat="53.0050330000" lon="-4.0563860000"><ele>107</ele><time>2016-09-30T13:02:23Z</time></trkpt>
<trkpt lat="53.0050260000" lon="-4.0563970000"><ele>107</ele><time>2016-09-30T13:02:24Z</time></trkpt>
<trkpt lat="53.0050200000" lon="-4.0564090000"><ele>108</ele><time>2016-09-30T13:02:25Z</time></trkpt>
<trkpt lat="53.0048960000" lon="-4.0566200000"><ele>108</ele><time>2016-09-30T13:02:26Z</time></trkpt>
<trkpt lat="53.0048880000" lon="-4.0566280000"><ele>108</ele><time>2016-09-30T13:02:27Z</time></trkpt>
<trkpt lat="53.0048800000" lon="-4.0566370000"><ele>108</ele><time>2016-09-30T13:02:28Z</time></trkpt>
<trkpt lat="53.0048700000" lon="-4.0566460000"><ele>108</ele><time>2016-09-30T13:02:29Z</time></trkpt>
<trkpt lat="53.0048700000" lon="-4.0566460000"><ele>108</ele><time>2016-09-30T13:02:30Z</time></trkpt>
<trkpt lat="53.0048700000" lon="-4.0566460000"><ele>108</ele><time>2016-09-30T13:02:31Z</time></trkpt>
<trkpt lat="53.0048700000" lon="-4.0566460000"><ele>109</ele><time>2016-09-30T13:02:32Z</time></trkpt>
<trkpt lat="53.0048690000" lon="-4.0566470000"><ele>109</ele><time>2016-09-30T13:02:33Z</time></trkpt>
<trkpt lat="53.0048680000" lon="-4.0566470000"><ele>109</ele><time>2016-09-30T13:02:34Z</time></trkpt>
<trkpt lat="53.0048400000" lon="-4.0566570000"><ele>114</ele><time>2016-09-30T13:02:47Z</time></trkpt>
<trkpt lat="53.0047530000" lon="-4.0567060000"><ele>116</ele><time>2016-09-30T13:02:52Z</time></trkpt>
<trkpt lat="53.0047250000" lon="-4.0567610000"><ele>117</ele><time>2016-09-30T13:02:53Z</time></trkpt>
<trkpt lat="53.0047100000" lon="-4.0568100000"><ele>117</ele><time>2016-09-30T13:02:56Z</time></trkpt>
<trkpt lat="53.0046950000" lon="-4.0568380000"><ele>119</ele><time>2016-09-30T13:03:00Z</time></trkpt>
<trkpt lat="53.0046810000" lon="-4.0568660000"><ele>119</ele><time>2016-09-30T13:03:12Z</time></trkpt>
<trkpt lat="53.0046780000" lon="-4.0568720000"><ele>119</ele><time>2016-09-30T13:03:13Z</time></trkpt>
<trkpt lat="53.0046680000" lon="-4.0568890000"><ele>119</ele><time>2016-09-30T13:03:16Z</time></trkpt>
<trkpt lat="53.0046650000" lon="-4.0568960000"><ele>119</ele><time>2016-09-30T13:03:17Z</time></trkpt>
<trkpt lat="53.0046600000" lon="-4.0569030000"><ele>120</ele><time>2016-09-30T13:03:18Z</time></trkpt>
<trkpt lat="53.0046560000" lon="-4.0569110000"><ele>120</ele><time>2016-09-30T13:03:19Z</time></trkpt>
<trkpt lat="53.0046520000" lon="-4.0569190000"><ele>120</ele><time>2016-09-30T13:03:20Z</time></trkpt>
<trkpt lat="53.0046480000" lon="-4.0569270000"><ele>120</ele><time>2016-09-30T13:03:21Z</time></trkpt>
<trkpt lat="53.0046430000" lon="-4.0569360000"><ele>120</ele><time>2016-09-30T13:03:22Z</time></trkpt>
<trkpt lat="53.0046390000" lon="-4.0569450000"><ele>120</ele><time>2016-09-30T13:03:23Z</time></trkpt>
<trkpt lat="53.0046350000" lon="-4.0569550000"><ele>120</ele><time>2016-09-30T13:03:24Z</time></trkpt>
<trkpt lat="53.0046310000" lon="-4.0569650000"><ele>120</ele><time>2016-09-30T13:03:25Z</time></trkpt>
<trkpt lat="53.0046260000" lon="-4.0569760000"><ele>120</ele><time>2016-09-30T13:03:26Z</time></trkpt>
<trkpt lat="53.0046220000" lon="-4.0569860000"><ele>120</ele><time>2016-09-30T13:03:27Z</time></trkpt>
<trkpt lat="53.0046170000" lon="-4.0569960000"><ele>120</ele><time>2016-09-30T13:03:28Z</time></trkpt>
<trkpt lat="53.0046130000" lon="-4.0570060000"><ele>120</ele><time>2016-09-30T13:03:29Z</time></trkpt>
<trkpt lat="53.0046090000" lon="-4.0570150000"><ele>120</ele><time>2016-09-30T13:03:30Z</time></trkpt>
<trkpt lat="53.0046050000" lon="-4.0570260000"><ele>120</ele><time>2016-09-30T13:03:31Z</time></trkpt>
<trkpt lat="53.0045900000" lon="-4.0570600000"><ele>120</ele><time>2016-09-30T13:03:34Z</time></trkpt>
<trkpt lat="53.0045810000" lon="-4.0570830000"><ele>120</ele><time>2016-09-30T13:03:36Z</time></trkpt>
<trkpt lat="53.0045760000" lon="-4.0570950000"><ele>120</ele><time>2016-09-30T13:03:37Z</time></trkpt>
<trkpt lat="53.0045720000" lon="-4.0571070000"><ele>120</ele><time>2016-09-30T13:03:38Z</time></trkpt>
<trkpt lat="53.0045670000" lon="-4.0571190000"><ele>120</ele><time>2016-09-30T13:03:39Z</time></trkpt>
<trkpt lat="53.0045620000" lon="-4.0571310000"><ele>120</ele><time>2016-09-30T13:03:40Z</time></trkpt>
<trkpt lat="53.0045580000" lon="-4.0571420000"><ele>120</ele><time>2016-09-30T13:03:41Z</time></trkpt>
<trkpt lat="53.0045540000" lon="-4.0571540000"><ele>120</ele><time>2016-09-30T13:03:42Z</time></trkpt>
<trkpt lat="53.0045490000" lon="-4.0571650000"><ele>120</ele><time>2016-09-30T13:03:43Z</time></trkpt>
<trkpt lat="53.0045450000" lon="-4.0571770000"><ele>120</ele><time>2016-09-30T13:03:44Z</time></trkpt>
<trkpt lat="53.0045410000" lon="-4.0571880000"><ele>120</ele><time>2016-09-30T13:03:45Z</time></trkpt>
<trkpt lat="53.0045370000" lon="-4.0571990000"><ele>120</ele><time>2016-09-30T13:03:46Z</time></trkpt>
<trkpt lat="53.0045330000" lon="-4.0572090000"><ele>121</ele><time>2016-09-30T13:03:47Z</time></trkpt>
<trkpt lat="53.0045280000" lon="-4.0572190000"><ele>121</ele><time>2016-09-30T13:03:48Z</time></trkpt>
<trkpt lat="53.0045240000" lon="-4.0572290000"><ele>121</ele><time>2016-09-30T13:03:49Z</time></trkpt>
<trkpt lat="53.0045190000" lon="-4.0572380000"><ele>121</ele><time>2016-09-30T13:03:50Z</time></trkpt>
<trkpt lat="53.0045040000" lon="-4.0572650000"><ele>122</ele><time>2016-09-30T13:03:53Z</time></trkpt>
<trkpt lat="53.0043950000" lon="-4.0574080000"><ele>122</ele><time>2016-09-30T13:03:56Z</time></trkpt>
<trkpt lat="53.0043850000" lon="-4.0574250000"><ele>122</ele><time>2016-09-30T13:03:57Z</time></trkpt>
<trkpt lat="53.0043770000" lon="-4.0574320000"><ele>123</ele><time>2016-09-30T13:03:58Z</time></trkpt>
<trkpt lat="53.0043690000" lon="-4.0574400000"><ele>123</ele><time>2016-09-30T13:03:59Z</time></trkpt>
<trkpt lat="53.0043690000" lon="-4.0574400000"><ele>123</ele><time>2016-09-30T13:04:01Z</time></trkpt>
<trkpt lat="53.0043690000" lon="-4.0574400000"><ele>123</ele><time>2016-09-30T13:04:02Z</time></trkpt>
<trkpt lat="53.0043680000" lon="-4.0574410000"><ele>123</ele><time>2016-09-30T13:04:03Z</time></trkpt>
<trkpt lat="53.0043680000" lon="-4.0574420000"><ele>123</ele><time>2016-09-30T13:04:04Z</time></trkpt>
<trkpt lat="53.0043670000" lon="-4.0574430000"><ele>123</ele><time>2016-09-30T13:04:05Z</time></trkpt>
<trkpt lat="53.0043660000" lon="-4.0574460000"><ele>123</ele><time>2016-09-30T13:04:06Z</time></trkpt>
<trkpt lat="53.0043640000" lon="-4.0574480000"><ele>123</ele><time>2016-09-30T13:04:07Z</time></trkpt>
<trkpt lat="53.0043620000" lon="-4.0574510000"><ele>123</ele><time>2016-09-30T13:04:08Z</time></trkpt>
<trkpt lat="53.0043600000" lon="-4.0574550000"><ele>123</ele><time>2016-09-30T13:04:09Z</time></trkpt>
<trkpt lat="53.0043580000" lon="-4.0574580000"><ele>123</ele><time>2016-09-30T13:04:10Z</time></trkpt>
<trkpt lat="53.0043550000" lon="-4.0574630000"><ele>123</ele><time>2016-09-30T13:04:11Z</time></trkpt>
<trkpt lat="53.0043520000" lon="-4.0574680000"><ele>123</ele><time>2016-09-30T13:04:12Z</time></trkpt>
<trkpt lat="53.0043130000" lon="-4.0575210000"><ele>124</ele><time>2016-09-30T13:04:21Z</time></trkpt>
<trkpt lat="53.0041850000" lon="-4.0576910000"><ele>124</ele><time>2016-09-30T13:04:27Z</time></trkpt>
<trkpt lat="53.0041500000" lon="-4.0577560000"><ele>124</ele><time>2016-09-30T13:04:30Z</time></trkpt>
<trkpt lat="53.0041220000" lon="-4.0578010000"><ele>124</ele><time>2016-09-30T13:04:36Z</time></trkpt>
<trkpt lat="53.0040850000" lon="-4.0578430000"><ele>124</ele><time>2016-09-30T13:04:37Z</time></trkpt>
<trkpt lat="53.0040610000" lon="-4.0578680000"><ele>123</ele><time>2016-09-30T13:04:39Z</time></trkpt>
<trkpt lat="53.0040360000" lon="-4.0578760000"><ele>123</ele><time>2016-09-30T13:04:41Z</time></trkpt>
<trkpt lat="53.0039800000" lon="-4.0579240000"><ele>122</ele><time>2016-09-30T13:05:02Z</time></trkpt>
<trkpt lat="53.0038650000" lon="-4.0580270000"><ele>122</ele><time>2016-09-30T13:05:04Z</time></trkpt>
<trkpt lat="53.0038790000" lon="-4.0580410000"><ele>123</ele><time>2016-09-30T13:05:28Z</time></trkpt>
<trkpt lat="53.0038790000" lon="-4.0580430000"><ele>123</ele><time>2016-09-30T13:05:29Z</time></trkpt>
<trkpt lat="53.0038790000" lon="-4.0580450000"><ele>123</ele><time>2016-09-30T13:05:30Z</time></trkpt>
<trkpt lat="53.0038790000" lon="-4.0580460000"><ele>124</ele><time>2016-09-30T13:05:31Z</time></trkpt>
<trkpt lat="53.0038890000" lon="-4.0581430000"><ele>123</ele><time>2016-09-30T13:05:57Z</time></trkpt>
<trkpt lat="53.0038670000" lon="-4.0582700000"><ele>122</ele><time>2016-09-30T13:06:12Z</time></trkpt>
<trkpt lat="53.0038180000" lon="-4.0583010000"><ele>120</ele><time>2016-09-30T13:06:29Z</time></trkpt>
<trkpt lat="53.0037350000" lon="-4.0582940000"><ele>121</ele><time>2016-09-30T13:06:34Z</time></trkpt>
<trkpt lat="53.0036840000" lon="-4.0583120000"><ele>122</ele><time>2016-09-30T13:06:38Z</time></trkpt>
<trkpt lat="53.0036580000" lon="-4.0583280000"><ele>122</ele><time>2016-09-30T13:06:40Z</time></trkpt>
<trkpt lat="53.0036390000" lon="-4.0583320000"><ele>125</ele><time>2016-09-30T13:06:52Z</time></trkpt>
<trkpt lat="53.0035640000" lon="-4.0583640000"><ele>125</ele><time>2016-09-30T13:06:54Z</time></trkpt>
<trkpt lat="53.0035550000" lon="-4.0583720000"><ele>125</ele><time>2016-09-30T13:06:55Z</time></trkpt>
<trkpt lat="53.0035480000" lon="-4.0583840000"><ele>125</ele><time>2016-09-30T13:06:56Z</time></trkpt>
<trkpt lat="53.0035480000" lon="-4.0583840000"><ele>125</ele><time>2016-09-30T13:06:57Z</time></trkpt>
<trkpt lat="53.0035480000" lon="-4.0583840000"><ele>125</ele><time>2016-09-30T13:06:58Z</time></trkpt>
<trkpt lat="53.0035480000" lon="-4.0583850000"><ele>125</ele><time>2016-09-30T13:06:59Z</time></trkpt>
<trkpt lat="53.0035470000" lon="-4.0583850000"><ele>125</ele><time>2016-09-30T13:07:00Z</time></trkpt>
<trkpt lat="53.0035470000" lon="-4.0583860000"><ele>124</ele><time>2016-09-30T13:07:01Z</time></trkpt>
<trkpt lat="53.0035460000" lon="-4.0583870000"><ele>124</ele><time>2016-09-30T13:07:02Z</time></trkpt>
<trkpt lat="53.0035440000" lon="-4.0583880000"><ele>124</ele><time>2016-09-30T13:07:03Z</time></trkpt>
<trkpt lat="53.0035430000" lon="-4.0583880000"><ele>124</ele><time>2016-09-30T13:07:04Z</time></trkpt>
<trkpt lat="53.0035410000" lon="-4.0583880000"><ele>124</ele><time>2016-09-30T13:07:05Z</time></trkpt>
<trkpt lat="53.0035380000" lon="-4.0583880000"><ele>124</ele><time>2016-09-30T13:07:06Z</time></trkpt>
<trkpt lat="53.0035350000" lon="-4.0583860000"><ele>124</ele><time>2016-09-30T13:07:07Z</time></trkpt>
<trkpt lat="53.0035320000" lon="-4.0583850000"><ele>124</ele><time>2016-09-30T13:07:08Z</time></trkpt>
<trkpt lat="53.0035290000" lon="-4.0583820000"><ele>124</ele><time>2016-09-30T13:07:09Z</time></trkpt>
<trkpt lat="53.0035250000" lon="-4.0583790000"><ele>124</ele><time>2016-09-30T13:07:10Z</time></trkpt>
<trkpt lat="53.0035220000" lon="-4.0583760000"><ele>124</ele><time>2016-09-30T13:07:11Z</time></trkpt>
<trkpt lat="53.0035180000" lon="-4.0583720000"><ele>124</ele><time>2016-09-30T13:07:12Z</time></trkpt>
<trkpt lat="53.0035140000" lon="-4.0583690000"><ele>124</ele><time>2016-09-30T13:07:13Z</time></trkpt>
<trkpt lat="53.0035100000" lon="-4.0583650000"><ele>125</ele><time>2016-09-30T13:07:14Z</time></trkpt>
<trkpt lat="53.0035050000" lon="-4.0583610000"><ele>125</ele><time>2016-09-30T13:07:15Z</time></trkpt>
<trkpt lat="53.0035000000" lon="-4.0583570000"><ele>125</ele><time>2016-09-30T13:07:16Z</time></trkpt>
<trkpt lat="53.0034950000" lon="-4.0583540000"><ele>125</ele><time>2016-09-30T13:07:17Z</time></trkpt>
<trkpt lat="53.0034910000" lon="-4.0583510000"><ele>125</ele><time>2016-09-30T13:07:18Z</time></trkpt>
<trkpt lat="53.0034860000" lon="-4.0583480000"><ele>125</ele><time>2016-09-30T13:07:19Z</time></trkpt>
<trkpt lat="53.0034790000" lon="-4.0583440000"><ele>125</ele><time>2016-09-30T13:07:21Z</time></trkpt>
<trkpt lat="53.0034770000" lon="-4.0583420000"><ele>125</ele><time>2016-09-30T13:07:22Z</time></trkpt>
<trkpt lat="53.0034740000" lon="-4.0583420000"><ele>125</ele><time>2016-09-30T13:07:23Z</time></trkpt>
<trkpt lat="53.0034710000" lon="-4.0583420000"><ele>124</ele><time>2016-09-30T13:07:24Z</time></trkpt>
<trkpt lat="53.0034680000" lon="-4.0583420000"><ele>124</ele><time>2016-09-30T13:07:25Z</time></trkpt>
<trkpt lat="53.0034640000" lon="-4.0583420000"><ele>124</ele><time>2016-09-30T13:07:26Z</time></trkpt>
<trkpt lat="53.0034600000" lon="-4.0583430000"><ele>124</ele><time>2016-09-30T13:07:27Z</time></trkpt>
<trkpt lat="53.0034560000" lon="-4.0583430000"><ele>124</ele><time>2016-09-30T13:07:28Z</time></trkpt>
<trkpt lat="53.0034510000" lon="-4.0583440000"><ele>124</ele><time>2016-09-30T13:07:29Z</time></trkpt>
<trkpt lat="53.0034470000" lon="-4.0583440000"><ele>123</ele><time>2016-09-30T13:07:30Z</time></trkpt>
<trkpt lat="53.0034410000" lon="-4.0583440000"><ele>123</ele><time>2016-09-30T13:07:31Z</time></trkpt>
<trkpt lat="53.0034360000" lon="-4.0583450000"><ele>123</ele><time>2016-09-30T13:07:32Z</time></trkpt>
<trkpt lat="53.0034300000" lon="-4.0583450000"><ele>123</ele><time>2016-09-30T13:07:33Z</time></trkpt>
<trkpt lat="53.0034250000" lon="-4.0583460000"><ele>123</ele><time>2016-09-30T13:07:34Z</time></trkpt>
<trkpt lat="53.0034190000" lon="-4.0583460000"><ele>123</ele><time>2016-09-30T13:07:35Z</time></trkpt>
<trkpt lat="53.0034130000" lon="-4.0583480000"><ele>122</ele><time>2016-09-30T13:07:36Z</time></trkpt>
<trkpt lat="53.0034060000" lon="-4.0583490000"><ele>122</ele><time>2016-09-30T13:07:37Z</time></trkpt>
<trkpt lat="53.0034000000" lon="-4.0583510000"><ele>122</ele><time>2016-09-30T13:07:38Z</time></trkpt>
<trkpt lat="53.0033930000" lon="-4.0583530000"><ele>122</ele><time>2016-09-30T13:07:39Z</time></trkpt>
<trkpt lat="53.0033860000" lon="-4.0583550000"><ele>122</ele><time>2016-09-30T13:07:40Z</time></trkpt>
<trkpt lat="53.0033790000" lon="-4.0583570000"><ele>121</ele><time>2016-09-30T13:07:41Z</time></trkpt>
<trkpt lat="53.0033720000" lon="-4.0583600000"><ele>121</ele><time>2016-09-30T13:07:42Z</time></trkpt>
<trkpt lat="53.0033650000" lon="-4.0583620000"><ele>121</ele><time>2016-09-30T13:07:43Z</time></trkpt>
<trkpt lat="53.0033570000" lon="-4.0583650000"><ele>121</ele><time>2016-09-30T13:07:44Z</time></trkpt>
<trkpt lat="53.0033500000" lon="-4.0583670000"><ele>121</ele><time>2016-09-30T13:07:45Z</time></trkpt>
<trkpt lat="53.0033430000" lon="-4.0583700000"><ele>120</ele><time>2016-09-30T13:07:46Z</time></trkpt>
<trkpt lat="53.0033360000" lon="-4.0583720000"><ele>120</ele><time>2016-09-30T13:07:47Z</time></trkpt>
<trkpt lat="53.0033290000" lon="-4.0583750000"><ele>120</ele><time>2016-09-30T13:07:48Z</time></trkpt>
<trkpt lat="53.0033210000" lon="-4.0583780000"><ele>120</ele><time>2016-09-30T13:07:49Z</time></trkpt>
<trkpt lat="53.0033140000" lon="-4.0583810000"><ele>120</ele><time>2016-09-30T13:07:50Z</time></trkpt>
<trkpt lat="53.0033070000" lon="-4.0583840000"><ele>119</ele><time>2016-09-30T13:07:51Z</time></trkpt>
<trkpt lat="53.0033000000" lon="-4.0583880000"><ele>119</ele><time>2016-09-30T13:07:52Z</time></trkpt>
<trkpt lat="53.0032930000" lon="-4.0583930000"><ele>119</ele><time>2016-09-30T13:07:53Z</time></trkpt>
<trkpt lat="53.0032860000" lon="-4.0583980000"><ele>119</ele><time>2016-09-30T13:07:54Z</time></trkpt>
<trkpt lat="53.0032800000" lon="-4.0584030000"><ele>119</ele><time>2016-09-30T13:07:55Z</time></trkpt>
<trkpt lat="53.0032730000" lon="-4.0584070000"><ele>118</ele><time>2016-09-30T13:07:56Z</time></trkpt>
<trkpt lat="53.0032660000" lon="-4.0584120000"><ele>118</ele><time>2016-09-30T13:07:57Z</time></trkpt>
<trkpt lat="53.0032590000" lon="-4.0584170000"><ele>118</ele><time>2016-09-30T13:07:58Z</time></trkpt>
<trkpt lat="53.0032520000" lon="-4.0584230000"><ele>118</ele><time>2016-09-30T13:07:59Z</time></trkpt>
<trkpt lat="53.0032450000" lon="-4.0584280000"><ele>118</ele><time>2016-09-30T13:08:00Z</time></trkpt>
<trkpt lat="53.0032020000" lon="-4.0584640000"><ele>118</ele><time>2016-09-30T13:08:06Z</time></trkpt>
<trkpt lat="53.0030450000" lon="-4.0586180000"><ele>118</ele><time>2016-09-30T13:08:09Z</time></trkpt>
<trkpt lat="53.0030200000" lon="-4.0586840000"><ele>119</ele><time>2016-09-30T13:08:12Z</time></trkpt>
<trkpt lat="53.0029940000" lon="-4.0587020000"><ele>119</ele><time>2016-09-30T13:08:16Z</time></trkpt>
<trkpt lat="53.0029720000" lon="-4.0587260000"><ele>120</ele><time>2016-09-30T13:08:19Z</time></trkpt>
<trkpt lat="53.0029510000" lon="-4.0587470000"><ele>122</ele><time>2016-09-30T13:08:32Z</time></trkpt>
<trkpt lat="53.0029330000" lon="-4.0587560000"><ele>122</ele><time>2016-09-30T13:08:36Z</time></trkpt>
<trkpt lat="53.0029280000" lon="-4.0587590000"><ele>123</ele><time>2016-09-30T13:08:37Z</time></trkpt>
<trkpt lat="53.0029230000" lon="-4.0587610000"><ele>123</ele><time>2016-09-30T13:08:38Z</time></trkpt>
<trkpt lat="53.0029170000" lon="-4.0587620000"><ele>123</ele><time>2016-09-30T13:08:39Z</time></trkpt>
<trkpt lat="53.0029110000" lon="-4.0587640000"><ele>123</ele><time>2016-09-30T13:08:40Z</time></trkpt>
<trkpt lat="53.0029060000" lon="-4.0587650000"><ele>124</ele><time>2016-09-30T13:08:41Z</time></trkpt>
<trkpt lat="53.0029000000" lon="-4.0587680000"><ele>124</ele><time>2016-09-30T13:08:42Z</time></trkpt>
<trkpt lat="53.0028940000" lon="-4.0587710000"><ele>124</ele><time>2016-09-30T13:08:43Z</time></trkpt>
<trkpt lat="53.0028880000" lon="-4.0587740000"><ele>124</ele><time>2016-09-30T13:08:44Z</time></trkpt>
<trkpt lat="53.0028560000" lon="-4.0588030000"><ele>124</ele><time>2016-09-30T13:08:50Z</time></trkpt>
<trkpt lat="53.0027500000" lon="-4.0589180000"><ele>124</ele><time>2016-09-30T13:08:51Z</time></trkpt>
<trkpt lat="53.0027290000" lon="-4.0589390000"><ele>124</ele><time>2016-09-30T13:08:55Z</time></trkpt>
<trkpt lat="53.0027290000" lon="-4.0589390000"><ele>125</ele><time>2016-09-30T13:08:56Z</time></trkpt>
<trkpt lat="53.0027280000" lon="-4.0589390000"><ele>125</ele><time>2016-09-30T13:08:57Z</time></trkpt>
<trkpt lat="53.0027280000" lon="-4.0589390000"><ele>125</ele><time>2016-09-30T13:08:58Z</time></trkpt>
<trkpt lat="53.0027270000" lon="-4.0589400000"><ele>125</ele><time>2016-09-30T13:08:59Z</time></trkpt>
<trkpt lat="53.0027250000" lon="-4.0589400000"><ele>125</ele><time>2016-09-30T13:09:00Z</time></trkpt>
<trkpt lat="53.0027240000" lon="-4.0589420000"><ele>125</ele><time>2016-09-30T13:09:01Z</time></trkpt>
<trkpt lat="53.0027220000" lon="-4.0589430000"><ele>125</ele><time>2016-09-30T13:09:02Z</time></trkpt>
<trkpt lat="53.0027200000" lon="-4.0589450000"><ele>125</ele><time>2016-09-30T13:09:03Z</time></trkpt>
<trkpt lat="53.0027170000" lon="-4.0589470000"><ele>125</ele><time>2016-09-30T13:09:04Z</time></trkpt>
<trkpt lat="53.0027140000" lon="-4.0589500000"><ele>125</ele><time>2016-09-30T13:09:05Z</time></trkpt>
<trkpt lat="53.0027110000" lon="-4.0589530000"><ele>125</ele><time>2016-09-30T13:09:06Z</time></trkpt>
<trkpt lat="53.0027070000" lon="-4.0589570000"><ele>125</ele><time>2016-09-30T13:09:07Z</time></trkpt>
<trkpt lat="53.0027030000" lon="-4.0589610000"><ele>125</ele><time>2016-09-30T13:09:08Z</time></trkpt>
<trkpt lat="53.0026990000" lon="-4.0589650000"><ele>125</ele><time>2016-09-30T13:09:09Z</time></trkpt>
<trkpt lat="53.0026940000" lon="-4.0589700000"><ele>125</ele><time>2016-09-30T13:09:10Z</time></trkpt>
<trkpt lat="53.0026890000" lon="-4.0589750000"><ele>125</ele><time>2016-09-30T13:09:11Z</time></trkpt>
<trkpt lat="53.0026830000" lon="-4.0589800000"><ele>124</ele><time>2016-09-30T13:09:12Z</time></trkpt>
<trkpt lat="53.0026780000" lon="-4.0589860000"><ele>124</ele><time>2016-09-30T13:09:13Z</time></trkpt>
<trkpt lat="53.0026710000" lon="-4.0589920000"><ele>124</ele><time>2016-09-30T13:09:14Z</time></trkpt>
<trkpt lat="53.0026650000" lon="-4.0589980000"><ele>124</ele><time>2016-09-30T13:09:15Z</time></trkpt>
<trkpt lat="53.0026580000" lon="-4.0590050000"><ele>124</ele><time>2016-09-30T13:09:16Z</time></trkpt>
<trkpt lat="53.0026510000" lon="-4.0590110000"><ele>124</ele><time>2016-09-30T13:09:17Z</time></trkpt>
<trkpt lat="53.0026440000" lon="-4.0590180000"><ele>124</ele><time>2016-09-30T13:09:18Z</time></trkpt>
<trkpt lat="53.0026360000" lon="-4.0590240000"><ele>124</ele><time>2016-09-30T13:09:19Z</time></trkpt>
<trkpt lat="53.0026210000" lon="-4.0590390000"><ele>124</ele><time>2016-09-30T13:09:21Z</time></trkpt>
<trkpt lat="53.0024730000" lon="-4.0591720000"><ele>124</ele><time>2016-09-30T13:09:22Z</time></trkpt>
<trkpt lat="53.0024630000" lon="-4.0591790000"><ele>124</ele><time>2016-09-30T13:09:23Z</time></trkpt>
<trkpt lat="53.0024520000" lon="-4.0591880000"><ele>124</ele><time>2016-09-30T13:09:24Z</time></trkpt>
<trkpt lat="53.0024400000" lon="-4.0591940000"><ele>124</ele><time>2016-09-30T13:09:25Z</time></trkpt>
<trkpt lat="53.0024280000" lon="-4.0592020000"><ele>124</ele><time>2016-09-30T13:09:26Z</time></trkpt>
<trkpt lat="53.0024170000" lon="-4.0592060000"><ele>124</ele><time>2016-09-30T13:09:27Z</time></trkpt>
<trkpt lat="53.0024090000" lon="-4.0592120000"><ele>124</ele><time>2016-09-30T13:09:28Z</time></trkpt>
<trkpt lat="53.0024090000" lon="-4.0592120000"><ele>124</ele><time>2016-09-30T13:09:29Z</time></trkpt>
<trkpt lat="53.0024090000" lon="-4.0592120000"><ele>123</ele><time>2016-09-30T13:09:30Z</time></trkpt>
<trkpt lat="53.0024090000" lon="-4.0592120000"><ele>123</ele><time>2016-09-30T13:09:31Z</time></trkpt>
<trkpt lat="53.0024080000" lon="-4.0592130000"><ele>123</ele><time>2016-09-30T13:09:32Z</time></trkpt>
<trkpt lat="53.0024080000" lon="-4.0592140000"><ele>123</ele><time>2016-09-30T13:09:33Z</time></trkpt>
<trkpt lat="53.0024070000" lon="-4.0592150000"><ele>124</ele><time>2016-09-30T13:09:34Z</time></trkpt>
<trkpt lat="53.0024060000" lon="-4.0592160000"><ele>124</ele><time>2016-09-30T13:09:35Z</time></trkpt>
<trkpt lat="53.0024050000" lon="-4.0592180000"><ele>124</ele><time>2016-09-30T13:09:36Z</time></trkpt>
<trkpt lat="53.0024040000" lon="-4.0592190000"><ele>124</ele><time>2016-09-30T13:09:37Z</time></trkpt>
<trkpt lat="53.0024020000" lon="-4.0592220000"><ele>124</ele><time>2016-09-30T13:09:38Z</time></trkpt>
<trkpt lat="53.0024000000" lon="-4.0592240000"><ele>123</ele><time>2016-09-30T13:09:39Z</time></trkpt>
<trkpt lat="53.0023980000" lon="-4.0592260000"><ele>123</ele><time>2016-09-30T13:09:40Z</time></trkpt>
<trkpt lat="53.0023960000" lon="-4.0592290000"><ele>123</ele><time>2016-09-30T13:09:41Z</time></trkpt>
<trkpt lat="53.0023930000" lon="-4.0592320000"><ele>123</ele><time>2016-09-30T13:09:42Z</time></trkpt>
<trkpt lat="53.0023900000" lon="-4.0592350000"><ele>123</ele><time>2016-09-30T13:09:43Z</time></trkpt>
<trkpt lat="53.0023860000" lon="-4.0592380000"><ele>123</ele><time>2016-09-30T13:09:44Z</time></trkpt>
<trkpt lat="53.0023490000" lon="-4.0592610000"><ele>122</ele><time>2016-09-30T13:09:52Z</time></trkpt>
<trkpt lat="53.0022380000" lon="-4.0593110000"><ele>122</ele><time>2016-09-30T13:09:53Z</time></trkpt>
<trkpt lat="53.0022350000" lon="-4.0593090000"><ele>122</ele><time>2016-09-30T13:09:54Z</time></trkpt>
<trkpt lat="53.0022310000" lon="-4.0593090000"><ele>122</ele><time>2016-09-30T13:09:55Z</time></trkpt>
<trkpt lat="53.0022310000" lon="-4.0593090000"><ele>121</ele><time>2016-09-30T13:09:57Z</time></trkpt>
<trkpt lat="53.0022310000" lon="-4.0593090000"><ele>121</ele><time>2016-09-30T13:09:58Z</time></trkpt>
<trkpt lat="53.0022310000" lon="-4.0593100000"><ele>121</ele><time>2016-09-30T13:09:59Z</time></trkpt>
<trkpt lat="53.0022300000" lon="-4.0593110000"><ele>121</ele><time>2016-09-30T13:10:00Z</time></trkpt>
<trkpt lat="53.0022300000" lon="-4.0593120000"><ele>121</ele><time>2016-09-30T13:10:01Z</time></trkpt>
<trkpt lat="53.0022300000" lon="-4.0593130000"><ele>121</ele><time>2016-09-30T13:10:02Z</time></trkpt>
<trkpt lat="53.0022290000" lon="-4.0593140000"><ele>120</ele><time>2016-09-30T13:10:03Z</time></trkpt>
<trkpt lat="53.0022280000" lon="-4.0593150000"><ele>120</ele><time>2016-09-30T13:10:04Z</time></trkpt>
<trkpt lat="53.0022270000" lon="-4.0593160000"><ele>120</ele><time>2016-09-30T13:10:05Z</time></trkpt>
<trkpt lat="53.0022260000" lon="-4.0593160000"><ele>120</ele><time>2016-09-30T13:10:06Z</time></trkpt>
<trkpt lat="53.0022240000" lon="-4.0593170000"><ele>120</ele><time>2016-09-30T13:10:07Z</time></trkpt>
<trkpt lat="53.0022230000" lon="-4.0593180000"><ele>119</ele><time>2016-09-30T13:10:08Z</time></trkpt>
<trkpt lat="53.0022210000" lon="-4.0593200000"><ele>119</ele><time>2016-09-30T13:10:09Z</time></trkpt>
<trkpt lat="53.0022190000" lon="-4.0593220000"><ele>119</ele><time>2016-09-30T13:10:10Z</time></trkpt>
<trkpt lat="53.0022170000" lon="-4.0593240000"><ele>119</ele><time>2016-09-30T13:10:11Z</time></trkpt>
<trkpt lat="53.0022150000" lon="-4.0593270000"><ele>119</ele><time>2016-09-30T13:10:12Z</time></trkpt>
<trkpt lat="53.0021890000" lon="-4.0593510000"><ele>116</ele><time>2016-09-30T13:10:22Z</time></trkpt>
<trkpt lat="53.0020970000" lon="-4.0593890000"><ele>116</ele><time>2016-09-30T13:10:24Z</time></trkpt>
<trkpt lat="53.0020740000" lon="-4.0593590000"><ele>114</ele><time>2016-09-30T13:10:32Z</time></trkpt>
<trkpt lat="53.0019050000" lon="-4.0595660000"><ele>112</ele><time>2016-09-30T13:11:32Z</time></trkpt>
<trkpt lat="53.0018040000" lon="-4.0595910000"><ele>112</ele><time>2016-09-30T13:11:42Z</time></trkpt>
<trkpt lat="53.0017420000" lon="-4.0596700000"><ele>111</ele><time>2016-09-30T13:11:44Z</time></trkpt>
<trkpt lat="53.0016950000" lon="-4.0597180000"><ele>106</ele><time>2016-09-30T13:12:00Z</time></trkpt>
<trkpt lat="53.0015710000" lon="-4.0598080000"><ele>105</ele><time>2016-09-30T13:12:04Z</time></trkpt>
<trkpt lat="53.0015360000" lon="-4.0598300000"><ele>103</ele><time>2016-09-30T13:12:08Z</time></trkpt>
<trkpt lat="53.0015030000" lon="-4.0598370000"><ele>101</ele><time>2016-09-30T13:12:12Z</time></trkpt>
<trkpt lat="53.0014560000" lon="-4.0598790000"><ele>96</ele><time>2016-09-30T13:12:22Z</time></trkpt>
<trkpt lat="53.0013730000" lon="-4.0599560000"><ele>96</ele><time>2016-09-30T13:12:23Z</time></trkpt>
<trkpt lat="53.0013340000" lon="-4.0599730000"><ele>93</ele><time>2016-09-30T13:12:31Z</time></trkpt>
<trkpt lat="53.0012610000" lon="-4.0600150000"><ele>92</ele><time>2016-09-30T13:12:36Z</time></trkpt>
<trkpt lat="53.0012140000" lon="-4.0600480000"><ele>92</ele><time>2016-09-30T13:12:37Z</time></trkpt>
<trkpt lat="53.0011870000" lon="-4.0600520000"><ele>92</ele><time>2016-09-30T13:12:39Z</time></trkpt>
<trkpt lat="53.0011680000" lon="-4.0600570000"><ele>90</ele><time>2016-09-30T13:12:46Z</time></trkpt>
<trkpt lat="53.0011670000" lon="-4.0600580000"><ele>90</ele><time>2016-09-30T13:12:47Z</time></trkpt>
<trkpt lat="53.0011640000" lon="-4.0600590000"><ele>90</ele><time>2016-09-30T13:12:48Z</time></trkpt>
<trkpt lat="53.0011620000" lon="-4.0600610000"><ele>90</ele><time>2016-09-30T13:12:49Z</time></trkpt>
<trkpt lat="53.0011590000" lon="-4.0600620000"><ele>90</ele><time>2016-09-30T13:12:50Z</time></trkpt>
<trkpt lat="53.0011550000" lon="-4.0600630000"><ele>89</ele><time>2016-09-30T13:12:51Z</time></trkpt>
<trkpt lat="53.0011510000" lon="-4.0600650000"><ele>89</ele><time>2016-09-30T13:12:52Z</time></trkpt>
<trkpt lat="53.0011460000" lon="-4.0600660000"><ele>89</ele><time>2016-09-30T13:12:53Z</time></trkpt>
<trkpt lat="53.0011410000" lon="-4.0600680000"><ele>89</ele><time>2016-09-30T13:12:54Z</time></trkpt>
<trkpt lat="53.0011360000" lon="-4.0600700000"><ele>89</ele><time>2016-09-30T13:12:55Z</time></trkpt>
<trkpt lat="53.0011300000" lon="-4.0600720000"><ele>88</ele><time>2016-09-30T13:12:56Z</time></trkpt>
<trkpt lat="53.0011240000" lon="-4.0600750000"><ele>88</ele><time>2016-09-30T13:12:57Z</time></trkpt>
<trkpt lat="53.0011190000" lon="-4.0600770000"><ele>88</ele><time>2016-09-30T13:12:58Z</time></trkpt>
<trkpt lat="53.0011000000" lon="-4.0600890000"><ele>87</ele><time>2016-09-30T13:13:01Z</time></trkpt>
<trkpt lat="53.0009130000" lon="-4.0602150000"><ele>87</ele><time>2016-09-30T13:13:06Z</time></trkpt>
<trkpt lat="53.0008790000" lon="-4.0602670000"><ele>86</ele><time>2016-09-30T13:13:07Z</time></trkpt>
<trkpt lat="53.0008710000" lon="-4.0602780000"><ele>86</ele><time>2016-09-30T13:13:08Z</time></trkpt>
<trkpt lat="53.0008630000" lon="-4.0602860000"><ele>86</ele><time>2016-09-30T13:13:09Z</time></trkpt>
<trkpt lat="53.0008560000" lon="-4.0602960000"><ele>86</ele><time>2016-09-30T13:13:10Z</time></trkpt>
<trkpt lat="53.0008410000" lon="-4.0603080000"><ele>84</ele><time>2016-09-30T13:13:21Z</time></trkpt>
<trkpt lat="53.0008370000" lon="-4.0603110000"><ele>84</ele><time>2016-09-30T13:13:22Z</time></trkpt>
<trkpt lat="53.0008330000" lon="-4.0603150000"><ele>84</ele><time>2016-09-30T13:13:23Z</time></trkpt>
<trkpt lat="53.0008280000" lon="-4.0603190000"><ele>84</ele><time>2016-09-30T13:13:24Z</time></trkpt>
<trkpt lat="53.0008220000" lon="-4.0603230000"><ele>84</ele><time>2016-09-30T13:13:25Z</time></trkpt>
<trkpt lat="53.0008160000" lon="-4.0603290000"><ele>84</ele><time>2016-09-30T13:13:26Z</time></trkpt>
<trkpt lat="53.0008100000" lon="-4.0603340000"><ele>84</ele><time>2016-09-30T13:13:27Z</time></trkpt>
<trkpt lat="53.0008030000" lon="-4.0603400000"><ele>84</ele><time>2016-09-30T13:13:28Z</time></trkpt>
<trkpt lat="53.0007950000" lon="-4.0603460000"><ele>84</ele><time>2016-09-30T13:13:29Z</time></trkpt>
<trkpt lat="53.0007880000" lon="-4.0603520000"><ele>84</ele><time>2016-09-30T13:13:30Z</time></trkpt>
<trkpt lat="53.0007800000" lon="-4.0603590000"><ele>83</ele><time>2016-09-30T13:13:31Z</time></trkpt>
<trkpt lat="53.0007710000" lon="-4.0603650000"><ele>83</ele><time>2016-09-30T13:13:32Z</time></trkpt>
<trkpt lat="53.0007630000" lon="-4.0603720000"><ele>83</ele><time>2016-09-30T13:13:33Z</time></trkpt>
<trkpt lat="53.0005730000" lon="-4.0605190000"><ele>83</ele><time>2016-09-30T13:13:34Z</time></trkpt>
<trkpt lat="53.0005650000" lon="-4.0605280000"><ele>83</ele><time>2016-09-30T13:13:35Z</time></trkpt>
<trkpt lat="53.0005560000" lon="-4.0605360000"><ele>83</ele><time>2016-09-30T13:13:36Z</time></trkpt>
<trkpt lat="53.0005440000" lon="-4.0605390000"><ele>83</ele><time>2016-09-30T13:13:37Z</time></trkpt>
<trkpt lat="53.0005360000" lon="-4.0605420000"><ele>83</ele><time>2016-09-30T13:13:38Z</time></trkpt>
<trkpt lat="53.0005280000" lon="-4.0605470000"><ele>83</ele><time>2016-09-30T13:13:39Z</time></trkpt>
<trkpt lat="53.0005280000" lon="-4.0605470000"><ele>84</ele><time>2016-09-30T13:13:41Z</time></trkpt>
<trkpt lat="53.0005280000" lon="-4.0605480000"><ele>84</ele><time>2016-09-30T13:13:42Z</time></trkpt>
<trkpt lat="53.0005280000" lon="-4.0605480000"><ele>84</ele><time>2016-09-30T13:13:43Z</time></trkpt>
<trkpt lat="53.0005270000" lon="-4.0605480000"><ele>84</ele><time>2016-09-30T13:13:44Z</time></trkpt>
<trkpt lat="53.0005270000" lon="-4.0605480000"><ele>84</ele><time>2016-09-30T13:13:45Z</time></trkpt>
<trkpt lat="53.0005260000" lon="-4.0605490000"><ele>84</ele><time>2016-09-30T13:13:46Z</time></trkpt>
<trkpt lat="53.0005240000" lon="-4.0605500000"><ele>84</ele><time>2016-09-30T13:13:47Z</time></trkpt>
<trkpt lat="53.0005230000" lon="-4.0605510000"><ele>84</ele><time>2016-09-30T13:13:48Z</time></trkpt>
<trkpt lat="53.0005210000" lon="-4.0605530000"><ele>84</ele><time>2016-09-30T13:13:49Z</time></trkpt>
<trkpt lat="53.0005180000" lon="-4.0605550000"><ele>84</ele><time>2016-09-30T13:13:50Z</time></trkpt>
<trkpt lat="53.0005150000" lon="-4.0605570000"><ele>84</ele><time>2016-09-30T13:13:51Z</time></trkpt>
<trkpt lat="53.0005120000" lon="-4.0605600000"><ele>84</ele><time>2016-09-30T13:13:52Z</time></trkpt>
<trkpt lat="53.0005080000" lon="-4.0605630000"><ele>84</ele><time>2016-09-30T13:13:53Z</time></trkpt>
<trkpt lat="53.0005040000" lon="-4.0605670000"><ele>84</ele><time>2016-09-30T13:13:54Z</time></trkpt>
<trkpt lat="53.0005000000" lon="-4.0605710000"><ele>83</ele><time>2016-09-30T13:13:55Z</time></trkpt>
<trkpt lat="53.0004950000" lon="-4.0605750000"><ele>83</ele><time>2016-09-30T13:13:56Z</time></trkpt>
<trkpt lat="53.0004890000" lon="-4.0605800000"><ele>83</ele><time>2016-09-30T13:13:57Z</time></trkpt>
<trkpt lat="53.0004840000" lon="-4.0605840000"><ele>83</ele><time>2016-09-30T13:13:58Z</time></trkpt>
<trkpt lat="53.0004780000" lon="-4.0605900000"><ele>83</ele><time>2016-09-30T13:13:59Z</time></trkpt>
<trkpt lat="53.0004720000" lon="-4.0605950000"><ele>83</ele><time>2016-09-30T13:14:00Z</time></trkpt>
<trkpt lat="53.0004650000" lon="-4.0606000000"><ele>83</ele><time>2016-09-30T13:14:01Z</time></trkpt>
<trkpt lat="53.0004590000" lon="-4.0606060000"><ele>83</ele><time>2016-09-30T13:14:02Z</time></trkpt>
<trkpt lat="53.0004520000" lon="-4.0606120000"><ele>83</ele><time>2016-09-30T13:14:03Z</time></trkpt>
<trkpt lat="53.0004460000" lon="-4.0606190000"><ele>83</ele><time>2016-09-30T13:14:04Z</time></trkpt>
<trkpt lat="53.0004400000" lon="-4.0606270000"><ele>83</ele><time>2016-09-30T13:14:05Z</time></trkpt>
<trkpt lat="53.0004340000" lon="-4.0606350000"><ele>83</ele><time>2016-09-30T13:14:06Z</time></trkpt>
<trkpt lat="53.0004270000" lon="-4.0606430000"><ele>83</ele><time>2016-09-30T13:14:07Z</time></trkpt>
<trkpt lat="53.0004200000" lon="-4.0606510000"><ele>83</ele><time>2016-09-30T13:14:08Z</time></trkpt>
<trkpt lat="53.0004130000" lon="-4.0606580000"><ele>83</ele><time>2016-09-30T13:14:09Z</time></trkpt>
<trkpt lat="53.0004060000" lon="-4.0606660000"><ele>83</ele><time>2016-09-30T13:14:10Z</time></trkpt>
<trkpt lat="53.0003990000" lon="-4.0606740000"><ele>83</ele><time>2016-09-30T13:14:11Z</time></trkpt>
<trkpt lat="53.0003920000" lon="-4.0606810000"><ele>83</ele><time>2016-09-30T13:14:12Z</time></trkpt>
<trkpt lat="53.0003850000" lon="-4.0606880000"><ele>83</ele><time>2016-09-30T13:14:13Z</time></trkpt>
<trkpt lat="53.0003770000" lon="-4.0606960000"><ele>83</ele><time>2016-09-30T13:14:14Z</time></trkpt>
<trkpt lat="53.0003700000" lon="-4.0607040000"><ele>83</ele><time>2016-09-30T13:14:15Z</time></trkpt>
<trkpt lat="53.0003630000" lon="-4.0607120000"><ele>83</ele><time>2016-09-30T13:14:16Z</time></trkpt>
<trkpt lat="53.0003560000" lon="-4.0607200000"><ele>83</ele><time>2016-09-30T13:14:17Z</time></trkpt>
<trkpt lat="53.0003490000" lon="-4.0607290000"><ele>83</ele><time>2016-09-30T13:14:18Z</time></trkpt>
<trkpt lat="53.0003420000" lon="-4.0607360000"><ele>83</ele><time>2016-09-30T13:14:19Z</time></trkpt>
<trkpt lat="53.0003300000" lon="-4.0607500000"><ele>83</ele><time>2016-09-30T13:14:21Z</time></trkpt>
<trkpt lat="53.0002970000" lon="-4.0607850000"><ele>84</ele><time>2016-09-30T13:14:27Z</time></trkpt>
<trkpt lat="53.0001950000" lon="-4.0608820000"><ele>84</ele><time>2016-09-30T13:14:28Z</time></trkpt>
<trkpt lat="53.0001930000" lon="-4.0608800000"><ele>84</ele><time>2016-09-30T13:14:29Z</time></trkpt>
<trkpt lat="53.0001930000" lon="-4.0608790000"><ele>84</ele><time>2016-09-30T13:14:30Z</time></trkpt>
<trkpt lat="53.0001930000" lon="-4.0608780000"><ele>85</ele><time>2016-09-30T13:14:33Z</time></trkpt>
<trkpt lat="53.0001930000" lon="-4.0608780000"><ele>85</ele><time>2016-09-30T13:14:34Z</time></trkpt>
<trkpt lat="53.0001930000" lon="-4.0608780000"><ele>85</ele><time>2016-09-30T13:14:35Z</time></trkpt>
<trkpt lat="53.0001930000" lon="-4.0608780000"><ele>85</ele><time>2016-09-30T13:14:36Z</time></trkpt>
<trkpt lat="53.0001920000" lon="-4.0608780000"><ele>85</ele><time>2016-09-30T13:14:37Z</time></trkpt>
<trkpt lat="53.0001920000" lon="-4.0608780000"><ele>85</ele><time>2016-09-30T13:14:38Z</time></trkpt>
<trkpt lat="53.0001920000" lon="-4.0608780000"><ele>85</ele><time>2016-09-30T13:14:39Z</time></trkpt>
<trkpt lat="53.0001920000" lon="-4.0608780000"><ele>85</ele><time>2016-09-30T13:14:40Z</time></trkpt>
<trkpt lat="53.0001800000" lon="-4.0608640000"><ele>87</ele><time>2016-09-30T13:14:54Z</time></trkpt>
<trkpt lat="53.0001800000" lon="-4.0608640000"><ele>87</ele><time>2016-09-30T13:14:55Z</time></trkpt>
<trkpt lat="53.0001800000" lon="-4.0608640000"><ele>87</ele><time>2016-09-30T13:14:56Z</time></trkpt>
<trkpt lat="53.0001790000" lon="-4.0608650000"><ele>87</ele><time>2016-09-30T13:14:57Z</time></trkpt>
<trkpt lat="53.0001780000" lon="-4.0608670000"><ele>87</ele><time>2016-09-30T13:14:58Z</time></trkpt>
<trkpt lat="53.0001770000" lon="-4.0608690000"><ele>87</ele><time>2016-09-30T13:14:59Z</time></trkpt>
<trkpt lat="53.0001760000" lon="-4.0608710000"><ele>87</ele><time>2016-09-30T13:15:00Z</time></trkpt>
<trkpt lat="53.0001750000" lon="-4.0608740000"><ele>87</ele><time>2016-09-30T13:15:01Z</time></trkpt>
<trkpt lat="53.0001740000" lon="-4.0608780000"><ele>87</ele><time>2016-09-30T13:15:02Z</time></trkpt>
<trkpt lat="53.0001720000" lon="-4.0608820000"><ele>87</ele><time>2016-09-30T13:15:03Z</time></trkpt>
<trkpt lat="53.0001710000" lon="-4.0608870000"><ele>87</ele><time>2016-09-30T13:15:04Z</time></trkpt>
<trkpt lat="53.0001690000" lon="-4.0608920000"><ele>87</ele><time>2016-09-30T13:15:05Z</time></trkpt>
<trkpt lat="53.0001670000" lon="-4.0608990000"><ele>87</ele><time>2016-09-30T13:15:06Z</time></trkpt>
<trkpt lat="53.0001640000" lon="-4.0609060000"><ele>87</ele><time>2016-09-30T13:15:07Z</time></trkpt>
<trkpt lat="53.0001610000" lon="-4.0609130000"><ele>86</ele><time>2016-09-30T13:15:08Z</time></trkpt>
<trkpt lat="53.0001580000" lon="-4.0609210000"><ele>86</ele><time>2016-09-30T13:15:09Z</time></trkpt>
<trkpt lat="53.0001550000" lon="-4.0609290000"><ele>86</ele><time>2016-09-30T13:15:10Z</time></trkpt>
<trkpt lat="53.0001510000" lon="-4.0609370000"><ele>86</ele><time>2016-09-30T13:15:11Z</time></trkpt>
<trkpt lat="53.0001480000" lon="-4.0609450000"><ele>86</ele><time>2016-09-30T13:15:12Z</time></trkpt>
<trkpt lat="53.0001440000" lon="-4.0609540000"><ele>86</ele><time>2016-09-30T13:15:13Z</time></trkpt>
<trkpt lat="53.0001400000" lon="-4.0609630000"><ele>86</ele><time>2016-09-30T13:15:14Z</time></trkpt>
<trkpt lat="53.0001360000" lon="-4.0609720000"><ele>86</ele><time>2016-09-30T13:15:15Z</time></trkpt>
<trkpt lat="53.0001320000" lon="-4.0609810000"><ele>86</ele><time>2016-09-30T13:15:16Z</time></trkpt>
<trkpt lat="53.0001270000" lon="-4.0609910000"><ele>86</ele><time>2016-09-30T13:15:17Z</time></trkpt>
<trkpt lat="53.0000470000" lon="-4.0611810000"><ele>86</ele><time>2016-09-30T13:15:18Z</time></trkpt>
<trkpt lat="53.0000430000" lon="-4.0612050000"><ele>85</ele><time>2016-09-30T13:15:19Z</time></trkpt>
<trkpt lat="53.0000220000" lon="-4.0612590000"><ele>85</ele><time>2016-09-30T13:15:21Z</time></trkpt>
<trkpt lat="53.0000130000" lon="-4.0612770000"><ele>85</ele><time>2016-09-30T13:15:22Z</time></trkpt>
<trkpt lat="53.0000050000" lon="-4.0612960000"><ele>85</ele><time>2016-09-30T13:15:23Z</time></trkpt>
<trkpt lat="52.9999930000" lon="-4.0613130000"><ele>85</ele><time>2016-09-30T13:15:24Z</time></trkpt>
<trkpt lat="52.9999800000" lon="-4.0613340000"><ele>85</ele><time>2016-09-30T13:15:25Z</time></trkpt>
<trkpt lat="52.9999650000" lon="-4.0613530000"><ele>85</ele><time>2016-09-30T13:15:26Z</time></trkpt>
<trkpt lat="52.9999530000" lon="-4.0613660000"><ele>85</ele><time>2016-09-30T13:15:27Z</time></trkpt>
<trkpt lat="52.9999430000" lon="-4.0613770000"><ele>85</ele><time>2016-09-30T13:15:28Z</time></trkpt>
<trkpt lat="52.9999350000" lon="-4.0613860000"><ele>85</ele><time>2016-09-30T13:15:29Z</time></trkpt>
<trkpt lat="52.9999350000" lon="-4.0613860000"><ele>85</ele><time>2016-09-30T13:15:30Z</time></trkpt>
<trkpt lat="52.9999350000" lon="-4.0613860000"><ele>85</ele><time>2016-09-30T13:15:31Z</time></trkpt>
<trkpt lat="52.9999020000" lon="-4.0614130000"><ele>85</ele><time>2016-09-30T13:15:32Z</time></trkpt>
<trkpt lat="52.9998900000" lon="-4.0614180000"><ele>85</ele><time>2016-09-30T13:15:33Z</time></trkpt>
<trkpt lat="52.9998790000" lon="-4.0614260000"><ele>85</ele><time>2016-09-30T13:15:34Z</time></trkpt>
<trkpt lat="52.9998670000" lon="-4.0614340000"><ele>85</ele><time>2016-09-30T13:15:35Z</time></trkpt>
<trkpt lat="52.9998520000" lon="-4.0614440000"><ele>85</ele><time>2016-09-30T13:15:36Z</time></trkpt>
<trkpt lat="52.9998380000" lon="-4.0614540000"><ele>85</ele><time>2016-09-30T13:15:37Z</time></trkpt>
<trkpt lat="52.9998270000" lon="-4.0614600000"><ele>85</ele><time>2016-09-30T13:15:38Z</time></trkpt>
<trkpt lat="52.9998160000" lon="-4.0614670000"><ele>85</ele><time>2016-09-30T13:15:39Z</time></trkpt>
<trkpt lat="52.9998070000" lon="-4.0614760000"><ele>85</ele><time>2016-09-30T13:15:40Z</time></trkpt>
<trkpt lat="52.9997980000" lon="-4.0614850000"><ele>85</ele><time>2016-09-30T13:15:41Z</time></trkpt>
<trkpt lat="52.9997980000" lon="-4.0614850000"><ele>85</ele><time>2016-09-30T13:15:42Z</time></trkpt>
<trkpt lat="52.9997970000" lon="-4.0614850000"><ele>85</ele><time>2016-09-30T13:15:43Z</time></trkpt>
<trkpt lat="52.9997970000" lon="-4.0614850000"><ele>85</ele><time>2016-09-30T13:15:44Z</time></trkpt>
<trkpt lat="52.9997960000" lon="-4.0614850000"><ele>85</ele><time>2016-09-30T13:15:45Z</time></trkpt>
<trkpt lat="52.9997950000" lon="-4.0614860000"><ele>85</ele><time>2016-09-30T13:15:46Z</time></trkpt>
<trkpt lat="52.9997940000" lon="-4.0614870000"><ele>84</ele><time>2016-09-30T13:15:47Z</time></trkpt>
<trkpt lat="52.9997920000" lon="-4.0614880000"><ele>84</ele><time>2016-09-30T13:15:48Z</time></trkpt>
<trkpt lat="52.9997900000" lon="-4.0614890000"><ele>84</ele><time>2016-09-30T13:15:49Z</time></trkpt>
<trkpt lat="52.9997870000" lon="-4.0614910000"><ele>84</ele><time>2016-09-30T13:15:50Z</time></trkpt>
<trkpt lat="52.9997840000" lon="-4.0614930000"><ele>84</ele><time>2016-09-30T13:15:51Z</time></trkpt>
<trkpt lat="52.9997810000" lon="-4.0614950000"><ele>84</ele><time>2016-09-30T13:15:52Z</time></trkpt>
<trkpt lat="52.9997770000" lon="-4.0614980000"><ele>84</ele><time>2016-09-30T13:15:53Z</time></trkpt>
<trkpt lat="52.9997720000" lon="-4.0615010000"><ele>84</ele><time>2016-09-30T13:15:54Z</time></trkpt>
<trkpt lat="52.9997670000" lon="-4.0615050000"><ele>84</ele><time>2016-09-30T13:15:55Z</time></trkpt>
<trkpt lat="52.9997620000" lon="-4.0615090000"><ele>84</ele><time>2016-09-30T13:15:56Z</time></trkpt>
<trkpt lat="52.9997560000" lon="-4.0615140000"><ele>84</ele><time>2016-09-30T13:15:57Z</time></trkpt>
<trkpt lat="52.9997500000" lon="-4.0615190000"><ele>84</ele><time>2016-09-30T13:15:58Z</time></trkpt>
<trkpt lat="52.9997440000" lon="-4.0615240000"><ele>85</ele><time>2016-09-30T13:15:59Z</time></trkpt>
<trkpt lat="52.9997370000" lon="-4.0615300000"><ele>85</ele><time>2016-09-30T13:16:00Z</time></trkpt>
<trkpt lat="52.9997300000" lon="-4.0615370000"><ele>85</ele><time>2016-09-30T13:16:01Z</time></trkpt>
<trkpt lat="52.9997230000" lon="-4.0615440000"><ele>85</ele><time>2016-09-30T13:16:02Z</time></trkpt>
<trkpt lat="52.9997160000" lon="-4.0615520000"><ele>85</ele><time>2016-09-30T13:16:03Z</time></trkpt>
<trkpt lat="52.9997080000" lon="-4.0615600000"><ele>85</ele><time>2016-09-30T13:16:04Z</time></trkpt>
<trkpt lat="52.9997010000" lon="-4.0615690000"><ele>85</ele><time>2016-09-30T13:16:05Z</time></trkpt>
<trkpt lat="52.9996930000" lon="-4.0615790000"><ele>85</ele><time>2016-09-30T13:16:06Z</time></trkpt>
<trkpt lat="52.9996850000" lon="-4.0615890000"><ele>85</ele><time>2016-09-30T13:16:07Z</time></trkpt>
<trkpt lat="52.9996770000" lon="-4.0615990000"><ele>86</ele><time>2016-09-30T13:16:08Z</time></trkpt>
<trkpt lat="52.9995290000" lon="-4.0617950000"><ele>86</ele><time>2016-09-30T13:16:09Z</time></trkpt>
<trkpt lat="52.9995210000" lon="-4.0618090000"><ele>86</ele><time>2016-09-30T13:16:10Z</time></trkpt>
<trkpt lat="52.9995130000" lon="-4.0618220000"><ele>86</ele><time>2016-09-30T13:16:11Z</time></trkpt>
<trkpt lat="52.9995020000" lon="-4.0618320000"><ele>86</ele><time>2016-09-30T13:16:12Z</time></trkpt>
<trkpt lat="52.9994930000" lon="-4.0618400000"><ele>86</ele><time>2016-09-30T13:16:13Z</time></trkpt>
<trkpt lat="52.9994930000" lon="-4.0618400000"><ele>87</ele><time>2016-09-30T13:16:14Z</time></trkpt>
<trkpt lat="52.9994930000" lon="-4.0618410000"><ele>87</ele><time>2016-09-30T13:16:15Z</time></trkpt>
<trkpt lat="52.9994920000" lon="-4.0618410000"><ele>87</ele><time>2016-09-30T13:16:16Z</time></trkpt>
<trkpt lat="52.9994920000" lon="-4.0618420000"><ele>87</ele><time>2016-09-30T13:16:17Z</time></trkpt>
<trkpt lat="52.9994910000" lon="-4.0618430000"><ele>87</ele><time>2016-09-30T13:16:18Z</time></trkpt>
<trkpt lat="52.9994900000" lon="-4.0618450000"><ele>87</ele><time>2016-09-30T13:16:19Z</time></trkpt>
<trkpt lat="52.9994860000" lon="-4.0618500000"><ele>87</ele><time>2016-09-30T13:16:21Z</time></trkpt>
<trkpt lat="52.9994840000" lon="-4.0618530000"><ele>87</ele><time>2016-09-30T13:16:22Z</time></trkpt>
<trkpt lat="52.9994810000" lon="-4.0618560000"><ele>87</ele><time>2016-09-30T13:16:23Z</time></trkpt>
<trkpt lat="52.9994780000" lon="-4.0618600000"><ele>87</ele><time>2016-09-30T13:16:24Z</time></trkpt>
<trkpt lat="52.9994750000" lon="-4.0618650000"><ele>87</ele><time>2016-09-30T13:16:25Z</time></trkpt>
<trkpt lat="52.9994710000" lon="-4.0618700000"><ele>87</ele><time>2016-09-30T13:16:26Z</time></trkpt>
<trkpt lat="52.9994670000" lon="-4.0618750000"><ele>87</ele><time>2016-09-30T13:16:27Z</time></trkpt>
<trkpt lat="52.9993570000" lon="-4.0620200000"><ele>87</ele><time>2016-09-30T13:16:28Z</time></trkpt>
<trkpt lat="52.9993470000" lon="-4.0620320000"><ele>87</ele><time>2016-09-30T13:16:29Z</time></trkpt>
<trkpt lat="52.9993390000" lon="-4.0620430000"><ele>87</ele><time>2016-09-30T13:16:30Z</time></trkpt>
<trkpt lat="52.9993300000" lon="-4.0620580000"><ele>87</ele><time>2016-09-30T13:16:31Z</time></trkpt>
<trkpt lat="52.9993210000" lon="-4.0620740000"><ele>87</ele><time>2016-09-30T13:16:32Z</time></trkpt>
<trkpt lat="52.9993150000" lon="-4.0620890000"><ele>87</ele><time>2016-09-30T13:16:33Z</time></trkpt>
<trkpt lat="52.9993070000" lon="-4.0621050000"><ele>87</ele><time>2016-09-30T13:16:34Z</time></trkpt>
<trkpt lat="52.9992990000" lon="-4.0621220000"><ele>87</ele><time>2016-09-30T13:16:35Z</time></trkpt>
<trkpt lat="52.9992920000" lon="-4.0621400000"><ele>87</ele><time>2016-09-30T13:16:36Z</time></trkpt>
<trkpt lat="52.9992840000" lon="-4.0621590000"><ele>87</ele><time>2016-09-30T13:16:37Z</time></trkpt>
<trkpt lat="52.9992770000" lon="-4.0621760000"><ele>87</ele><time>2016-09-30T13:16:38Z</time></trkpt>
<trkpt lat="52.9992690000" lon="-4.0621950000"><ele>87</ele><time>2016-09-30T13:16:39Z</time></trkpt>
<trkpt lat="52.9992630000" lon="-4.0622120000"><ele>87</ele><time>2016-09-30T13:16:40Z</time></trkpt>
<trkpt lat="52.9992590000" lon="-4.0622310000"><ele>87</ele><time>2016-09-30T13:16:41Z</time></trkpt>
<trkpt lat="52.9992530000" lon="-4.0622510000"><ele>87</ele><time>2016-09-30T13:16:42Z</time></trkpt>
<trkpt lat="52.9992460000" lon="-4.0622700000"><ele>87</ele><time>2016-09-30T13:16:43Z</time></trkpt>
<trkpt lat="52.9992360000" lon="-4.0622900000"><ele>87</ele><time>2016-09-30T13:16:44Z</time></trkpt>
<trkpt lat="52.9992260000" lon="-4.0623070000"><ele>87</ele><time>2016-09-30T13:16:45Z</time></trkpt>
<trkpt lat="52.9992150000" lon="-4.0623240000"><ele>88</ele><time>2016-09-30T13:16:46Z</time></trkpt>
<trkpt lat="52.9992030000" lon="-4.0623430000"><ele>88</ele><time>2016-09-30T13:16:47Z</time></trkpt>
<trkpt lat="52.9991900000" lon="-4.0623610000"><ele>88</ele><time>2016-09-30T13:16:48Z</time></trkpt>
<trkpt lat="52.9991790000" lon="-4.0623760000"><ele>88</ele><time>2016-09-30T13:16:49Z</time></trkpt>
<trkpt lat="52.9991680000" lon="-4.0623920000"><ele>88</ele><time>2016-09-30T13:16:50Z</time></trkpt>
<trkpt lat="52.9991570000" lon="-4.0624050000"><ele>88</ele><time>2016-09-30T13:16:51Z</time></trkpt>
<trkpt lat="52.9991470000" lon="-4.0624160000"><ele>89</ele><time>2016-09-30T13:16:52Z</time></trkpt>
<trkpt lat="52.9991370000" lon="-4.0624300000"><ele>89</ele><time>2016-09-30T13:16:53Z</time></trkpt>
<trkpt lat="52.9991280000" lon="-4.0624400000"><ele>89</ele><time>2016-09-30T13:16:54Z</time></trkpt>
<trkpt lat="52.9991180000" lon="-4.0624480000"><ele>89</ele><time>2016-09-30T13:16:55Z</time></trkpt>
<trkpt lat="52.9991070000" lon="-4.0624570000"><ele>89</ele><time>2016-09-30T13:16:56Z</time></trkpt>
<trkpt lat="52.9990990000" lon="-4.0624650000"><ele>90</ele><time>2016-09-30T13:16:57Z</time></trkpt>
<trkpt lat="52.9990880000" lon="-4.0624750000"><ele>90</ele><time>2016-09-30T13:16:58Z</time></trkpt>
<trkpt lat="52.9990790000" lon="-4.0624880000"><ele>90</ele><time>2016-09-30T13:16:59Z</time></trkpt>
<trkpt lat="52.9990720000" lon="-4.0624960000"><ele>90</ele><time>2016-09-30T13:17:00Z</time></trkpt>
<trkpt lat="52.9990720000" lon="-4.0624960000"><ele>90</ele><time>2016-09-30T13:17:01Z</time></trkpt>
<trkpt lat="52.9990720000" lon="-4.0624960000"><ele>90</ele><time>2016-09-30T13:17:02Z</time></trkpt>
<trkpt lat="52.9990710000" lon="-4.0624970000"><ele>90</ele><time>2016-09-30T13:17:03Z</time></trkpt>
<trkpt lat="52.9990710000" lon="-4.0624980000"><ele>90</ele><time>2016-09-30T13:17:04Z</time></trkpt>
<trkpt lat="52.9990700000" lon="-4.0624980000"><ele>90</ele><time>2016-09-30T13:17:05Z</time></trkpt>
<trkpt lat="52.9990690000" lon="-4.0625000000"><ele>91</ele><time>2016-09-30T13:17:06Z</time></trkpt>
<trkpt lat="52.9990680000" lon="-4.0625010000"><ele>91</ele><time>2016-09-30T13:17:07Z</time></trkpt>
<trkpt lat="52.9990660000" lon="-4.0625030000"><ele>91</ele><time>2016-09-30T13:17:08Z</time></trkpt>
<trkpt lat="52.9990640000" lon="-4.0625050000"><ele>91</ele><time>2016-09-30T13:17:09Z</time></trkpt>
<trkpt lat="52.9990620000" lon="-4.0625080000"><ele>91</ele><time>2016-09-30T13:17:10Z</time></trkpt>
<trkpt lat="52.9990590000" lon="-4.0625120000"><ele>91</ele><time>2016-09-30T13:17:11Z</time></trkpt>
<trkpt lat="52.9990560000" lon="-4.0625160000"><ele>91</ele><time>2016-09-30T13:17:12Z</time></trkpt>
<trkpt lat="52.9990520000" lon="-4.0625200000"><ele>91</ele><time>2016-09-30T13:17:13Z</time></trkpt>
<trkpt lat="52.9990490000" lon="-4.0625260000"><ele>91</ele><time>2016-09-30T13:17:14Z</time></trkpt>
<trkpt lat="52.9990440000" lon="-4.0625320000"><ele>91</ele><time>2016-09-30T13:17:15Z</time></trkpt>
<trkpt lat="52.9990400000" lon="-4.0625390000"><ele>91</ele><time>2016-09-30T13:17:16Z</time></trkpt>
<trkpt lat="52.9990360000" lon="-4.0625470000"><ele>91</ele><time>2016-09-30T13:17:17Z</time></trkpt>
<trkpt lat="52.9990310000" lon="-4.0625560000"><ele>91</ele><time>2016-09-30T13:17:18Z</time></trkpt>
<trkpt lat="52.9990270000" lon="-4.0625660000"><ele>91</ele><time>2016-09-30T13:17:19Z</time></trkpt>
<trkpt lat="52.9990170000" lon="-4.0625880000"><ele>92</ele><time>2016-09-30T13:17:21Z</time></trkpt>
<trkpt lat="52.9990130000" lon="-4.0625990000"><ele>92</ele><time>2016-09-30T13:17:22Z</time></trkpt>
<trkpt lat="52.9990080000" lon="-4.0626110000"><ele>92</ele><time>2016-09-30T13:17:23Z</time></trkpt>
<trkpt lat="52.9990030000" lon="-4.0626230000"><ele>92</ele><time>2016-09-30T13:17:24Z</time></trkpt>
<trkpt lat="52.9989980000" lon="-4.0626360000"><ele>92</ele><time>2016-09-30T13:17:25Z</time></trkpt>
<trkpt lat="52.9989930000" lon="-4.0626490000"><ele>92</ele><time>2016-09-30T13:17:26Z</time></trkpt>
<trkpt lat="52.9988940000" lon="-4.0629000000"><ele>92</ele><time>2016-09-30T13:17:27Z</time></trkpt>
<trkpt lat="52.9988860000" lon="-4.0629120000"><ele>92</ele><time>2016-09-30T13:17:28Z</time></trkpt>
<trkpt lat="52.9988780000" lon="-4.0629280000"><ele>92</ele><time>2016-09-30T13:17:29Z</time></trkpt>
<trkpt lat="52.9988780000" lon="-4.0629280000"><ele>92</ele><time>2016-09-30T13:17:30Z</time></trkpt>
<trkpt lat="52.9988780000" lon="-4.0629280000"><ele>92</ele><time>2016-09-30T13:17:31Z</time></trkpt>
<trkpt lat="52.9988780000" lon="-4.0629290000"><ele>92</ele><time>2016-09-30T13:17:32Z</time></trkpt>
<trkpt lat="52.9988770000" lon="-4.0629300000"><ele>92</ele><time>2016-09-30T13:17:33Z</time></trkpt>
<trkpt lat="52.9988760000" lon="-4.0629320000"><ele>92</ele><time>2016-09-30T13:17:34Z</time></trkpt>
<trkpt lat="52.9988750000" lon="-4.0629340000"><ele>92</ele><time>2016-09-30T13:17:35Z</time></trkpt>
<trkpt lat="52.9988740000" lon="-4.0629370000"><ele>92</ele><time>2016-09-30T13:17:36Z</time></trkpt>
<trkpt lat="52.9988730000" lon="-4.0629410000"><ele>92</ele><time>2016-09-30T13:17:37Z</time></trkpt>
<trkpt lat="52.9988710000" lon="-4.0629450000"><ele>92</ele><time>2016-09-30T13:17:38Z</time></trkpt>
<trkpt lat="52.9988680000" lon="-4.0629520000"><ele>92</ele><time>2016-09-30T13:17:39Z</time></trkpt>
<trkpt lat="52.9988660000" lon="-4.0629570000"><ele>92</ele><time>2016-09-30T13:17:40Z</time></trkpt>
<trkpt lat="52.9988630000" lon="-4.0629640000"><ele>92</ele><time>2016-09-30T13:17:41Z</time></trkpt>
<trkpt lat="52.9988590000" lon="-4.0629730000"><ele>92</ele><time>2016-09-30T13:17:42Z</time></trkpt>
<trkpt lat="52.9988550000" lon="-4.0629820000"><ele>92</ele><time>2016-09-30T13:17:43Z</time></trkpt>
<trkpt lat="52.9988500000" lon="-4.0629920000"><ele>92</ele><time>2016-09-30T13:17:44Z</time></trkpt>
<trkpt lat="52.9988450000" lon="-4.0630010000"><ele>92</ele><time>2016-09-30T13:17:45Z</time></trkpt>
<trkpt lat="52.9988400000" lon="-4.0630090000"><ele>92</ele><time>2016-09-30T13:17:46Z</time></trkpt>
<trkpt lat="52.9988350000" lon="-4.0630180000"><ele>92</ele><time>2016-09-30T13:17:47Z</time></trkpt>
<trkpt lat="52.9987310000" lon="-4.0632090000"><ele>92</ele><time>2016-09-30T13:17:48Z</time></trkpt>
<trkpt lat="52.9987230000" lon="-4.0632220000"><ele>92</ele><time>2016-09-30T13:17:49Z</time></trkpt>
<trkpt lat="52.9987160000" lon="-4.0632330000"><ele>92</ele><time>2016-09-30T13:17:50Z</time></trkpt>
<trkpt lat="52.9987080000" lon="-4.0632420000"><ele>92</ele><time>2016-09-30T13:17:51Z</time></trkpt>
<trkpt lat="52.9987000000" lon="-4.0632530000"><ele>92</ele><time>2016-09-30T13:17:52Z</time></trkpt>
<trkpt lat="52.9986970000" lon="-4.0632660000"><ele>92</ele><time>2016-09-30T13:17:53Z</time></trkpt>
<trkpt lat="52.9986970000" lon="-4.0632670000"><ele>92</ele><time>2016-09-30T13:17:54Z</time></trkpt>
<trkpt lat="52.9986970000" lon="-4.0632670000"><ele>92</ele><time>2016-09-30T13:17:55Z</time></trkpt>
<trkpt lat="52.9986960000" lon="-4.0632680000"><ele>92</ele><time>2016-09-30T13:17:56Z</time></trkpt>
<trkpt lat="52.9986960000" lon="-4.0632690000"><ele>92</ele><time>2016-09-30T13:17:57Z</time></trkpt>
<trkpt lat="52.9986950000" lon="-4.0632700000"><ele>91</ele><time>2016-09-30T13:17:58Z</time></trkpt>
<trkpt lat="52.9986940000" lon="-4.0632720000"><ele>91</ele><time>2016-09-30T13:17:59Z</time></trkpt>
<trkpt lat="52.9986930000" lon="-4.0632740000"><ele>91</ele><time>2016-09-30T13:18:00Z</time></trkpt>
<trkpt lat="52.9986920000" lon="-4.0632770000"><ele>91</ele><time>2016-09-30T13:18:01Z</time></trkpt>
<trkpt lat="52.9986900000" lon="-4.0632800000"><ele>91</ele><time>2016-09-30T13:18:02Z</time></trkpt>
<trkpt lat="52.9986890000" lon="-4.0632840000"><ele>91</ele><time>2016-09-30T13:18:03Z</time></trkpt>
<trkpt lat="52.9986280000" lon="-4.0634040000"><ele>91</ele><time>2016-09-30T13:18:04Z</time></trkpt>
<trkpt lat="52.9986180000" lon="-4.0634170000"><ele>91</ele><time>2016-09-30T13:18:05Z</time></trkpt>
<trkpt lat="52.9986120000" lon="-4.0634350000"><ele>91</ele><time>2016-09-30T13:18:06Z</time></trkpt>
<trkpt lat="52.9986080000" lon="-4.0634560000"><ele>91</ele><time>2016-09-30T13:18:07Z</time></trkpt>
<trkpt lat="52.9986020000" lon="-4.0634820000"><ele>91</ele><time>2016-09-30T13:18:08Z</time></trkpt>
<trkpt lat="52.9985950000" lon="-4.0635020000"><ele>91</ele><time>2016-09-30T13:18:09Z</time></trkpt>
<trkpt lat="52.9985850000" lon="-4.0635200000"><ele>91</ele><time>2016-09-30T13:18:10Z</time></trkpt>
<trkpt lat="52.9985760000" lon="-4.0635360000"><ele>91</ele><time>2016-09-30T13:18:11Z</time></trkpt>
<trkpt lat="52.9985680000" lon="-4.0635530000"><ele>91</ele><time>2016-09-30T13:18:12Z</time></trkpt>
<trkpt lat="52.9985610000" lon="-4.0635720000"><ele>91</ele><time>2016-09-30T13:18:13Z</time></trkpt>
<trkpt lat="52.9985540000" lon="-4.0635860000"><ele>91</ele><time>2016-09-30T13:18:14Z</time></trkpt>
<trkpt lat="52.9985450000" lon="-4.0635960000"><ele>91</ele><time>2016-09-30T13:18:15Z</time></trkpt>
<trkpt lat="52.9985350000" lon="-4.0636090000"><ele>91</ele><time>2016-09-30T13:18:16Z</time></trkpt>
<trkpt lat="52.9985280000" lon="-4.0636270000"><ele>91</ele><time>2016-09-30T13:18:17Z</time></trkpt>
<trkpt lat="52.9985220000" lon="-4.0636420000"><ele>91</ele><time>2016-09-30T13:18:18Z</time></trkpt>
<trkpt lat="52.9985150000" lon="-4.0636560000"><ele>92</ele><time>2016-09-30T13:18:19Z</time></trkpt>
<trkpt lat="52.9985150000" lon="-4.0636570000"><ele>92</ele><time>2016-09-30T13:18:21Z</time></trkpt>
<trkpt lat="52.9985150000" lon="-4.0636570000"><ele>92</ele><time>2016-09-30T13:18:22Z</time></trkpt>
<trkpt lat="52.9985140000" lon="-4.0636580000"><ele>92</ele><time>2016-09-30T13:18:23Z</time></trkpt>
<trkpt lat="52.9985130000" lon="-4.0636600000"><ele>92</ele><time>2016-09-30T13:18:24Z</time></trkpt>
<trkpt lat="52.9985120000" lon="-4.0636620000"><ele>93</ele><time>2016-09-30T13:18:25Z</time></trkpt>
<trkpt lat="52.9985110000" lon="-4.0636650000"><ele>93</ele><time>2016-09-30T13:18:26Z</time></trkpt>
<trkpt lat="52.9985100000" lon="-4.0636680000"><ele>93</ele><time>2016-09-30T13:18:27Z</time></trkpt>
<trkpt lat="52.9985080000" lon="-4.0636730000"><ele>93</ele><time>2016-09-30T13:18:28Z</time></trkpt>
<trkpt lat="52.9985060000" lon="-4.0636780000"><ele>93</ele><time>2016-09-30T13:18:29Z</time></trkpt>
<trkpt lat="52.9985030000" lon="-4.0636840000"><ele>93</ele><time>2016-09-30T13:18:30Z</time></trkpt>
<trkpt lat="52.9985010000" lon="-4.0636910000"><ele>93</ele><time>2016-09-30T13:18:31Z</time></trkpt>
<trkpt lat="52.9984980000" lon="-4.0636980000"><ele>93</ele><time>2016-09-30T13:18:32Z</time></trkpt>
<trkpt lat="52.9984940000" lon="-4.0637050000"><ele>93</ele><time>2016-09-30T13:18:33Z</time></trkpt>
<trkpt lat="52.9984040000" lon="-4.0639140000"><ele>93</ele><time>2016-09-30T13:18:34Z</time></trkpt>
<trkpt lat="52.9983930000" lon="-4.0639310000"><ele>93</ele><time>2016-09-30T13:18:35Z</time></trkpt>
<trkpt lat="52.9983820000" lon="-4.0639470000"><ele>93</ele><time>2016-09-30T13:18:36Z</time></trkpt>
<trkpt lat="52.9983750000" lon="-4.0639610000"><ele>93</ele><time>2016-09-30T13:18:37Z</time></trkpt>
<trkpt lat="52.9983260000" lon="-4.0640550000"><ele>93</ele><time>2016-09-30T13:18:43Z</time></trkpt>
<trkpt lat="52.9982980000" lon="-4.0640980000"><ele>93</ele><time>2016-09-30T13:18:46Z</time></trkpt>
<trkpt lat="52.9982800000" lon="-4.0641320000"><ele>93</ele><time>2016-09-30T13:18:48Z</time></trkpt>
<trkpt lat="52.9982600000" lon="-4.0641800000"><ele>93</ele><time>2016-09-30T13:18:51Z</time></trkpt>
<trkpt lat="52.9982330000" lon="-4.0642570000"><ele>93</ele><time>2016-09-30T13:18:56Z</time></trkpt>
<trkpt lat="52.9982120000" lon="-4.0642960000"><ele>92</ele><time>2016-09-30T13:19:03Z</time></trkpt>
<trkpt lat="52.9981460000" lon="-4.0644010000"><ele>92</ele><time>2016-09-30T13:19:05Z</time></trkpt>
<trkpt lat="52.9981230000" lon="-4.0644590000"><ele>92</ele><time>2016-09-30T13:19:08Z</time></trkpt>
<trkpt lat="52.9981040000" lon="-4.0645200000"><ele>91</ele><time>2016-09-30T13:19:11Z</time></trkpt>
<trkpt lat="52.9980790000" lon="-4.0645770000"><ele>91</ele><time>2016-09-30T13:19:14Z</time></trkpt>
<trkpt lat="52.9980550000" lon="-4.0646060000"><ele>90</ele><time>2016-09-30T13:19:16Z</time></trkpt>
<trkpt lat="52.9980170000" lon="-4.0646630000"><ele>90</ele><time>2016-09-30T13:19:19Z</time></trkpt>
<trkpt lat="52.9979860000" lon="-4.0647070000"><ele>89</ele><time>2016-09-30T13:19:21Z</time></trkpt>
<trkpt lat="52.9979690000" lon="-4.0647470000"><ele>89</ele><time>2016-09-30T13:19:23Z</time></trkpt>
<trkpt lat="52.9979590000" lon="-4.0647750000"><ele>89</ele><time>2016-09-30T13:19:31Z</time></trkpt>
<trkpt lat="52.9979590000" lon="-4.0647790000"><ele>89</ele><time>2016-09-30T13:19:32Z</time></trkpt>
<trkpt lat="52.9979230000" lon="-4.0649300000"><ele>89</ele><time>2016-09-30T13:19:33Z</time></trkpt>
<trkpt lat="52.9979170000" lon="-4.0649470000"><ele>89</ele><time>2016-09-30T13:19:34Z</time></trkpt>
<trkpt lat="52.9979110000" lon="-4.0649600000"><ele>89</ele><time>2016-09-30T13:19:35Z</time></trkpt>
<trkpt lat="52.9979050000" lon="-4.0649780000"><ele>89</ele><time>2016-09-30T13:19:36Z</time></trkpt>
<trkpt lat="52.9978980000" lon="-4.0649960000"><ele>89</ele><time>2016-09-30T13:19:37Z</time></trkpt>
<trkpt lat="52.9978910000" lon="-4.0650120000"><ele>89</ele><time>2016-09-30T13:19:38Z</time></trkpt>
<trkpt lat="52.9978850000" lon="-4.0650280000"><ele>88</ele><time>2016-09-30T13:19:39Z</time></trkpt>
<trkpt lat="52.9978810000" lon="-4.0650480000"><ele>88</ele><time>2016-09-30T13:19:40Z</time></trkpt>
<trkpt lat="52.9978770000" lon="-4.0650700000"><ele>88</ele><time>2016-09-30T13:19:41Z</time></trkpt>
<trkpt lat="52.9978700000" lon="-4.0650940000"><ele>88</ele><time>2016-09-30T13:19:42Z</time></trkpt>
<trkpt lat="52.9978650000" lon="-4.0651160000"><ele>88</ele><time>2016-09-30T13:19:43Z</time></trkpt>
<trkpt lat="52.9978650000" lon="-4.0651390000"><ele>88</ele><time>2016-09-30T13:19:44Z</time></trkpt>
<trkpt lat="52.9978630000" lon="-4.0651590000"><ele>88</ele><time>2016-09-30T13:19:45Z</time></trkpt>
<trkpt lat="52.9978590000" lon="-4.0651780000"><ele>88</ele><time>2016-09-30T13:19:46Z</time></trkpt>
<trkpt lat="52.9978570000" lon="-4.0651940000"><ele>88</ele><time>2016-09-30T13:19:47Z</time></trkpt>
<trkpt lat="52.9978520000" lon="-4.0652130000"><ele>88</ele><time>2016-09-30T13:19:48Z</time></trkpt>
<trkpt lat="52.9978470000" lon="-4.0652340000"><ele>88</ele><time>2016-09-30T13:19:49Z</time></trkpt>
<trkpt lat="52.9978410000" lon="-4.0652520000"><ele>88</ele><time>2016-09-30T13:19:50Z</time></trkpt>
<trkpt lat="52.9978380000" lon="-4.0652740000"><ele>88</ele><time>2016-09-30T13:19:51Z</time></trkpt>
<trkpt lat="52.9978330000" lon="-4.0652960000"><ele>89</ele><time>2016-09-30T13:19:52Z</time></trkpt>
<trkpt lat="52.9978250000" lon="-4.0653160000"><ele>89</ele><time>2016-09-30T13:19:53Z</time></trkpt>
<trkpt lat="52.9978200000" lon="-4.0653350000"><ele>89</ele><time>2016-09-30T13:19:54Z</time></trkpt>
<trkpt lat="52.9978190000" lon="-4.0653530000"><ele>89</ele><time>2016-09-30T13:19:55Z</time></trkpt>
<trkpt lat="52.9978210000" lon="-4.0653780000"><ele>89</ele><time>2016-09-30T13:19:56Z</time></trkpt>
<trkpt lat="52.9978200000" lon="-4.0654010000"><ele>89</ele><time>2016-09-30T13:19:57Z</time></trkpt>
<trkpt lat="52.9978190000" lon="-4.0654220000"><ele>89</ele><time>2016-09-30T13:19:58Z</time></trkpt>
<trkpt lat="52.9978190000" lon="-4.0654440000"><ele>90</ele><time>2016-09-30T13:19:59Z</time></trkpt>
<trkpt lat="52.9978150000" lon="-4.0654630000"><ele>90</ele><time>2016-09-30T13:20:00Z</time></trkpt>
<trkpt lat="52.9978110000" lon="-4.0654820000"><ele>90</ele><time>2016-09-30T13:20:01Z</time></trkpt>
<trkpt lat="52.9978060000" lon="-4.0655020000"><ele>90</ele><time>2016-09-30T13:20:02Z</time></trkpt>
<trkpt lat="52.9978000000" lon="-4.0655230000"><ele>90</ele><time>2016-09-30T13:20:03Z</time></trkpt>
<trkpt lat="52.9977960000" lon="-4.0655410000"><ele>91</ele><time>2016-09-30T13:20:04Z</time></trkpt>
<trkpt lat="52.9977900000" lon="-4.0655620000"><ele>91</ele><time>2016-09-30T13:20:05Z</time></trkpt>
<trkpt lat="52.9977860000" lon="-4.0655830000"><ele>91</ele><time>2016-09-30T13:20:06Z</time></trkpt>
<trkpt lat="52.9977800000" lon="-4.0656030000"><ele>91</ele><time>2016-09-30T13:20:07Z</time></trkpt>
<trkpt lat="52.9977720000" lon="-4.0656210000"><ele>92</ele><time>2016-09-30T13:20:08Z</time></trkpt>
<trkpt lat="52.9977630000" lon="-4.0656390000"><ele>92</ele><time>2016-09-30T13:20:09Z</time></trkpt>
<trkpt lat="52.9977570000" lon="-4.0656550000"><ele>92</ele><time>2016-09-30T13:20:10Z</time></trkpt>
<trkpt lat="52.9977530000" lon="-4.0656740000"><ele>92</ele><time>2016-09-30T13:20:11Z</time></trkpt>
<trkpt lat="52.9977480000" lon="-4.0656930000"><ele>92</ele><time>2016-09-30T13:20:12Z</time></trkpt>
<trkpt lat="52.9977430000" lon="-4.0657120000"><ele>92</ele><time>2016-09-30T13:20:13Z</time></trkpt>
<trkpt lat="52.9977390000" lon="-4.0657310000"><ele>93</ele><time>2016-09-30T13:20:14Z</time></trkpt>
<trkpt lat="52.9977370000" lon="-4.0657500000"><ele>93</ele><time>2016-09-30T13:20:15Z</time></trkpt>
<trkpt lat="52.9977320000" lon="-4.0657690000"><ele>93</ele><time>2016-09-30T13:20:16Z</time></trkpt>
<trkpt lat="52.9977260000" lon="-4.0657880000"><ele>93</ele><time>2016-09-30T13:20:17Z</time></trkpt>
<trkpt lat="52.9977200000" lon="-4.0658080000"><ele>93</ele><time>2016-09-30T13:20:18Z</time></trkpt>
<trkpt lat="52.9977100000" lon="-4.0658220000"><ele>93</ele><time>2016-09-30T13:20:19Z</time></trkpt>
<trkpt lat="52.9977020000" lon="-4.0658360000"><ele>93</ele><time>2016-09-30T13:20:20Z</time></trkpt>
<trkpt lat="52.9976940000" lon="-4.0658520000"><ele>93</ele><time>2016-09-30T13:20:21Z</time></trkpt>
<trkpt lat="52.9976890000" lon="-4.0658690000"><ele>93</ele><time>2016-09-30T13:20:22Z</time></trkpt>
<trkpt lat="52.9976860000" lon="-4.0658890000"><ele>93</ele><time>2016-09-30T13:20:23Z</time></trkpt>
<trkpt lat="52.9976820000" lon="-4.0659060000"><ele>93</ele><time>2016-09-30T13:20:24Z</time></trkpt>
<trkpt lat="52.9976790000" lon="-4.0659260000"><ele>93</ele><time>2016-09-30T13:20:25Z</time></trkpt>
<trkpt lat="52.9976750000" lon="-4.0659440000"><ele>93</ele><time>2016-09-30T13:20:27Z</time></trkpt>
<trkpt lat="52.9976700000" lon="-4.0659630000"><ele>93</ele></trkpt>
<trkpt lat="52.9976680000" lon="-4.0659820000"><ele>93</ele><time>2016-09-30T13:20:28Z</time></trkpt>
<trkpt lat="52.9976680000" lon="-4.0660020000"><ele>93</ele><time>2016-09-30T13:20:29Z</time></trkpt>
<trkpt lat="52.9976760000" lon="-4.0660220000"><ele>93</ele><time>2016-09-30T13:20:30Z</time></trkpt>
<trkpt lat="52.9976840000" lon="-4.0660430000"><ele>93</ele><time>2016-09-30T13:20:31Z</time></trkpt>
<trkpt lat="52.9976870000" lon="-4.0660600000"><ele>93</ele><time>2016-09-30T13:20:32Z</time></trkpt>
<trkpt lat="52.9976900000" lon="-4.0660730000"><ele>93</ele><time>2016-09-30T13:20:33Z</time></trkpt>
<trkpt lat="52.9976900000" lon="-4.0660730000"><ele>93</ele><time>2016-09-30T13:20:34Z</time></trkpt>
<trkpt lat="52.9976900000" lon="-4.0660730000"><ele>93</ele><time>2016-09-30T13:20:35Z</time></trkpt>
<trkpt lat="52.9976900000" lon="-4.0660730000"><ele>93</ele><time>2016-09-30T13:20:36Z</time></trkpt>
<trkpt lat="52.9976910000" lon="-4.0660740000"><ele>93</ele><time>2016-09-30T13:20:37Z</time></trkpt>
<trkpt lat="52.9976910000" lon="-4.0660750000"><ele>92</ele><time>2016-09-30T13:20:38Z</time></trkpt>
<trkpt lat="52.9976910000" lon="-4.0660770000"><ele>92</ele><time>2016-09-30T13:20:39Z</time></trkpt>
<trkpt lat="52.9976920000" lon="-4.0660780000"><ele>92</ele><time>2016-09-30T13:20:40Z</time></trkpt>
<trkpt lat="52.9976920000" lon="-4.0660800000"><ele>92</ele><time>2016-09-30T13:20:41Z</time></trkpt>
<trkpt lat="52.9976920000" lon="-4.0660810000"><ele>92</ele><time>2016-09-30T13:20:42Z</time></trkpt>
<trkpt lat="52.9976920000" lon="-4.0660830000"><ele>92</ele><time>2016-09-30T13:20:43Z</time></trkpt>
<trkpt lat="52.9976920000" lon="-4.0660850000"><ele>92</ele><time>2016-09-30T13:20:44Z</time></trkpt>
<trkpt lat="52.9976920000" lon="-4.0660860000"><ele>92</ele><time>2016-09-30T13:20:45Z</time></trkpt>
<trkpt lat="52.9976920000" lon="-4.0660880000"><ele>92</ele><time>2016-09-30T13:20:46Z</time></trkpt>
<trkpt lat="52.9976920000" lon="-4.0660910000"><ele>92</ele><time>2016-09-30T13:20:47Z</time></trkpt>
<trkpt lat="52.9976920000" lon="-4.0660940000"><ele>92</ele><time>2016-09-30T13:20:48Z</time></trkpt>
<trkpt lat="52.9976910000" lon="-4.0660970000"><ele>92</ele><time>2016-09-30T13:20:49Z</time></trkpt>
<trkpt lat="52.9976910000" lon="-4.0661010000"><ele>92</ele><time>2016-09-30T13:20:50Z</time></trkpt>
<trkpt lat="52.9976910000" lon="-4.0661050000"><ele>92</ele><time>2016-09-30T13:20:51Z</time></trkpt>
<trkpt lat="52.9976910000" lon="-4.0661100000"><ele>92</ele><time>2016-09-30T13:20:52Z</time></trkpt>
<trkpt lat="52.9976920000" lon="-4.0661150000"><ele>92</ele><time>2016-09-30T13:20:53Z</time></trkpt>
<trkpt lat="52.9976930000" lon="-4.0661210000"><ele>92</ele><time>2016-09-30T13:20:54Z</time></trkpt>
<trkpt lat="52.9976930000" lon="-4.0661280000"><ele>92</ele><time>2016-09-30T13:20:55Z</time></trkpt>
<trkpt lat="52.9976940000" lon="-4.0661340000"><ele>92</ele><time>2016-09-30T13:20:56Z</time></trkpt>
<trkpt lat="52.9976950000" lon="-4.0661410000"><ele>92</ele><time>2016-09-30T13:20:57Z</time></trkpt>
<trkpt lat="52.9976960000" lon="-4.0661480000"><ele>92</ele><time>2016-09-30T13:20:58Z</time></trkpt>
<trkpt lat="52.9976960000" lon="-4.0661540000"><ele>92</ele><time>2016-09-30T13:20:59Z</time></trkpt>
<trkpt lat="52.9976970000" lon="-4.0661600000"><ele>92</ele><time>2016-09-30T13:21:00Z</time></trkpt>
<trkpt lat="52.9976970000" lon="-4.0661650000"><ele>92</ele><time>2016-09-30T13:21:01Z</time></trkpt>
<trkpt lat="52.9976560000" lon="-4.0660970000"><ele>92</ele><time>2016-09-30T13:21:18Z</time></trkpt>
<trkpt lat="52.9976440000" lon="-4.0660520000"><ele>92</ele><time>2016-09-30T13:21:20Z</time></trkpt>
<trkpt lat="52.9976030000" lon="-4.0659840000"><ele>89</ele><time>2016-09-30T13:21:52Z</time></trkpt>
<trkpt lat="52.9975610000" lon="-4.0659580000"><ele>87</ele><time>2016-09-30T13:22:05Z</time></trkpt>
<trkpt lat="52.9975610000" lon="-4.0659630000"><ele>87</ele><time>2016-09-30T13:22:06Z</time></trkpt>
<trkpt lat="52.9975610000" lon="-4.0659580000"><ele>87</ele><time>2016-09-30T13:22:07Z</time></trkpt>
<trkpt lat="52.9975780000" lon="-4.0659770000"><ele>90</ele><time>2016-09-30T13:23:08Z</time></trkpt>
<trkpt lat="52.9976440000" lon="-4.0661280000"><ele>90</ele><time>2016-09-30T13:23:11Z</time></trkpt>
<trkpt lat="52.9976660000" lon="-4.0661620000"><ele>89</ele><time>2016-09-30T13:23:13Z</time></trkpt>
<trkpt lat="52.9976790000" lon="-4.0662050000"><ele>89</ele><time>2016-09-30T13:23:15Z</time></trkpt>
<trkpt lat="52.9976810000" lon="-4.0662260000"><ele>88</ele><time>2016-09-30T13:23:16Z</time></trkpt>
<trkpt lat="52.9976840000" lon="-4.0662460000"><ele>88</ele><time>2016-09-30T13:23:17Z</time></trkpt>
<trkpt lat="52.9976860000" lon="-4.0662660000"><ele>88</ele><time>2016-09-30T13:23:18Z</time></trkpt>
<trkpt lat="52.9976880000" lon="-4.0662860000"><ele>88</ele><time>2016-09-30T13:23:19Z</time></trkpt>
<trkpt lat="52.9976860000" lon="-4.0663060000"><ele>88</ele><time>2016-09-30T13:23:20Z</time></trkpt>
<trkpt lat="52.9976830000" lon="-4.0663250000"><ele>88</ele><time>2016-09-30T13:23:21Z</time></trkpt>
<trkpt lat="52.9976800000" lon="-4.0663430000"><ele>87</ele><time>2016-09-30T13:23:22Z</time></trkpt>
<trkpt lat="52.9976830000" lon="-4.0663610000"><ele>87</ele><time>2016-09-30T13:23:23Z</time></trkpt>
<trkpt lat="52.9976880000" lon="-4.0663800000"><ele>87</ele><time>2016-09-30T13:23:24Z</time></trkpt>
<trkpt lat="52.9976900000" lon="-4.0664000000"><ele>87</ele><time>2016-09-30T13:23:25Z</time></trkpt>
<trkpt lat="52.9976910000" lon="-4.0664200000"><ele>87</ele><time>2016-09-30T13:23:26Z</time></trkpt>
<trkpt lat="52.9976950000" lon="-4.0664390000"><ele>87</ele><time>2016-09-30T13:23:27Z</time></trkpt>
<trkpt lat="52.9976940000" lon="-4.0664580000"><ele>87</ele><time>2016-09-30T13:23:28Z</time></trkpt>
<trkpt lat="52.9976940000" lon="-4.0664760000"><ele>87</ele><time>2016-09-30T13:23:29Z</time></trkpt>
<trkpt lat="52.9976920000" lon="-4.0664970000"><ele>87</ele><time>2016-09-30T13:23:30Z</time></trkpt>
<trkpt lat="52.9976910000" lon="-4.0665140000"><ele>87</ele><time>2016-09-30T13:23:31Z</time></trkpt>
<trkpt lat="52.9976860000" lon="-4.0665290000"><ele>87</ele><time>2016-09-30T13:23:32Z</time></trkpt>
<trkpt lat="52.9976850000" lon="-4.0665450000"><ele>87</ele><time>2016-09-30T13:23:33Z</time></trkpt>
<trkpt lat="52.9976850000" lon="-4.0665460000"><ele>87</ele><time>2016-09-30T13:23:34Z</time></trkpt>
<trkpt lat="52.9976850000" lon="-4.0665460000"><ele>87</ele><time>2016-09-30T13:23:35Z</time></trkpt>
<trkpt lat="52.9976850000" lon="-4.0665460000"><ele>87</ele><time>2016-09-30T13:23:36Z</time></trkpt>
<trkpt lat="52.9976850000" lon="-4.0665470000"><ele>87</ele><time>2016-09-30T13:23:37Z</time></trkpt>
<trkpt lat="52.9976840000" lon="-4.0665490000"><ele>87</ele><time>2016-09-30T13:23:38Z</time></trkpt>
<trkpt lat="52.9976840000" lon="-4.0665510000"><ele>87</ele><time>2016-09-30T13:23:39Z</time></trkpt>
<trkpt lat="52.9976830000" lon="-4.0665540000"><ele>87</ele><time>2016-09-30T13:23:40Z</time></trkpt>
<trkpt lat="52.9976820000" lon="-4.0665570000"><ele>87</ele><time>2016-09-30T13:23:41Z</time></trkpt>
<trkpt lat="52.9976810000" lon="-4.0665610000"><ele>88</ele><time>2016-09-30T13:23:42Z</time></trkpt>
<trkpt lat="52.9976800000" lon="-4.0665650000"><ele>88</ele><time>2016-09-30T13:23:43Z</time></trkpt>
<trkpt lat="52.9976780000" lon="-4.0665700000"><ele>88</ele><time>2016-09-30T13:23:44Z</time></trkpt>
<trkpt lat="52.9976760000" lon="-4.0665760000"><ele>88</ele><time>2016-09-30T13:23:45Z</time></trkpt>
<trkpt lat="52.9976730000" lon="-4.0665810000"><ele>88</ele><time>2016-09-30T13:23:46Z</time></trkpt>
<trkpt lat="52.9976710000" lon="-4.0665880000"><ele>88</ele><time>2016-09-30T13:23:47Z</time></trkpt>
<trkpt lat="52.9976680000" lon="-4.0665940000"><ele>88</ele><time>2016-09-30T13:23:48Z</time></trkpt>
<trkpt lat="52.9976650000" lon="-4.0666010000"><ele>88</ele><time>2016-09-30T13:23:49Z</time></trkpt>
<trkpt lat="52.9976610000" lon="-4.0666080000"><ele>89</ele><time>2016-09-30T13:23:50Z</time></trkpt>
<trkpt lat="52.9976570000" lon="-4.0666150000"><ele>89</ele><time>2016-09-30T13:23:51Z</time></trkpt>
<trkpt lat="52.9976530000" lon="-4.0666230000"><ele>89</ele><time>2016-09-30T13:23:52Z</time></trkpt>
<trkpt lat="52.9976490000" lon="-4.0666310000"><ele>89</ele><time>2016-09-30T13:23:53Z</time></trkpt>
<trkpt lat="52.9976450000" lon="-4.0666390000"><ele>89</ele><time>2016-09-30T13:23:54Z</time></trkpt>
<trkpt lat="52.9976400000" lon="-4.0666470000"><ele>89</ele><time>2016-09-30T13:23:55Z</time></trkpt>
<trkpt lat="52.9976350000" lon="-4.0666550000"><ele>89</ele><time>2016-09-30T13:23:56Z</time></trkpt>
<trkpt lat="52.9976300000" lon="-4.0666630000"><ele>90</ele><time>2016-09-30T13:23:57Z</time></trkpt>
<trkpt lat="52.9976240000" lon="-4.0666710000"><ele>90</ele><time>2016-09-30T13:23:58Z</time></trkpt>
<trkpt lat="52.9976190000" lon="-4.0666790000"><ele>90</ele><time>2016-09-30T13:23:59Z</time></trkpt>
<trkpt lat="52.9976130000" lon="-4.0666880000"><ele>90</ele><time>2016-09-30T13:24:00Z</time></trkpt>
<trkpt lat="52.9976070000" lon="-4.0666960000"><ele>91</ele><time>2016-09-30T13:24:01Z</time></trkpt>
<trkpt lat="52.9976020000" lon="-4.0667040000"><ele>91</ele><time>2016-09-30T13:24:02Z</time></trkpt>
<trkpt lat="52.9975970000" lon="-4.0667120000"><ele>91</ele><time>2016-09-30T13:24:03Z</time></trkpt>
<trkpt lat="52.9975910000" lon="-4.0667200000"><ele>92</ele><time>2016-09-30T13:24:04Z</time></trkpt>
<trkpt lat="52.9975310000" lon="-4.0668000000"><ele>95</ele><time>2016-09-30T13:24:15Z</time></trkpt>
<trkpt lat="52.9973960000" lon="-4.0668850000"><ele>96</ele><time>2016-09-30T13:24:22Z</time></trkpt>
<trkpt lat="52.9973490000" lon="-4.0669140000"><ele>97</ele><time>2016-09-30T13:24:25Z</time></trkpt>
<trkpt lat="52.9973140000" lon="-4.0669110000"><ele>97</ele><time>2016-09-30T13:24:27Z</time></trkpt>
<trkpt lat="52.9972760000" lon="-4.0669220000"><ele>99</ele><time>2016-09-30T13:24:46Z</time></trkpt>
<trkpt lat="52.9971920000" lon="-4.0670160000"><ele>98</ele><time>2016-09-30T13:24:48Z</time></trkpt>
<trkpt lat="52.9971620000" lon="-4.0670190000"><ele>98</ele><time>2016-09-30T13:24:51Z</time></trkpt>
<trkpt lat="52.9971360000" lon="-4.0670150000"><ele>97</ele><time>2016-09-30T13:24:53Z</time></trkpt>
<trkpt lat="52.9970660000" lon="-4.0670050000"><ele>101</ele><time>2016-09-30T13:25:52Z</time></trkpt>
<trkpt lat="52.9970230000" lon="-4.0670800000"><ele>105</ele><time>2016-09-30T13:26:32Z</time></trkpt>
<trkpt lat="52.9969770000" lon="-4.0670090000"><ele>105</ele><time>2016-09-30T13:26:33Z</time></trkpt>
<trkpt lat="52.9969530000" lon="-4.0670730000"><ele>109</ele><time>2016-09-30T13:27:12Z</time></trkpt>
<trkpt lat="52.9968720000" lon="-4.0672160000"><ele>109</ele><time>2016-09-30T13:27:13Z</time></trkpt>
<trkpt lat="52.9968250000" lon="-4.0672760000"><ele>109</ele><time>2016-09-30T13:27:17Z</time></trkpt>
<trkpt lat="52.9968070000" lon="-4.0673190000"><ele>108</ele><time>2016-09-30T13:27:20Z</time></trkpt>
<trkpt lat="52.9967870000" lon="-4.0673540000"><ele>104</ele><time>2016-09-30T13:27:31Z</time></trkpt>
<trkpt lat="52.9967170000" lon="-4.0674510000"><ele>104</ele><time>2016-09-30T13:27:32Z</time></trkpt>
<trkpt lat="52.9967120000" lon="-4.0675140000"><ele>103</ele><time>2016-09-30T13:27:34Z</time></trkpt>
<trkpt lat="52.9966980000" lon="-4.0675740000"><ele>102</ele><time>2016-09-30T13:27:37Z</time></trkpt>
<trkpt lat="52.9966720000" lon="-4.0676240000"><ele>100</ele><time>2016-09-30T13:27:40Z</time></trkpt>
<trkpt lat="52.9966520000" lon="-4.0676820000"><ele>99</ele><time>2016-09-30T13:27:43Z</time></trkpt>
<trkpt lat="52.9966340000" lon="-4.0677370000"><ele>98</ele><time>2016-09-30T13:27:46Z</time></trkpt>
<trkpt lat="52.9966200000" lon="-4.0677730000"><ele>95</ele><time>2016-09-30T13:27:56Z</time></trkpt>
<trkpt lat="52.9966000000" lon="-4.0678210000"><ele>96</ele><time>2016-09-30T13:28:06Z</time></trkpt>
<trkpt lat="52.9964820000" lon="-4.0679910000"><ele>96</ele><time>2016-09-30T13:28:08Z</time></trkpt>
<trkpt lat="52.9964610000" lon="-4.0680160000"><ele>97</ele><time>2016-09-30T13:28:12Z</time></trkpt>
<trkpt lat="52.9964050000" lon="-4.0682740000"><ele>99</ele><time>2016-09-30T13:28:46Z</time></trkpt>
<trkpt lat="52.9963300000" lon="-4.0686050000"><ele>99</ele><time>2016-09-30T13:29:01Z</time></trkpt>
<trkpt lat="52.9962990000" lon="-4.0688990000"><ele>100</ele><time>2016-09-30T13:29:25Z</time></trkpt>
<trkpt lat="52.9962990000" lon="-4.0691090000"><ele>99</ele><time>2016-09-30T13:29:36Z</time></trkpt>
<trkpt lat="52.9962290000" lon="-4.0693290000"><ele>105</ele><time>2016-09-30T13:30:14Z</time></trkpt>
<trkpt lat="52.9961040000" lon="-4.0694320000"><ele>105</ele><time>2016-09-30T13:30:15Z</time></trkpt>
<trkpt lat="52.9960750000" lon="-4.0694420000"><ele>106</ele><time>2016-09-30T13:30:20Z</time></trkpt>
<trkpt lat="52.9960480000" lon="-4.0694560000"><ele>107</ele><time>2016-09-30T13:30:22Z</time></trkpt>
<trkpt lat="52.9959970000" lon="-4.0695550000"><ele>111</ele><time>2016-09-30T13:30:53Z</time></trkpt>
<trkpt lat="52.9959190000" lon="-4.0696980000"><ele>111</ele><time>2016-09-30T13:30:54Z</time></trkpt>
<trkpt lat="52.9958930000" lon="-4.0697150000"><ele>111</ele><time>2016-09-30T13:30:58Z</time></trkpt>
<trkpt lat="52.9958510000" lon="-4.0697670000"><ele>113</ele><time>2016-09-30T13:31:19Z</time></trkpt>
<trkpt lat="52.9957410000" lon="-4.0699130000"><ele>114</ele><time>2016-09-30T13:31:22Z</time></trkpt>
<trkpt lat="52.9953720000" lon="-4.0697670000"><ele>115</ele><time>2016-09-30T13:33:27Z</time></trkpt>
<trkpt lat="52.9951710000" lon="-4.0717710000"><ele>116</ele><time>2016-09-30T13:34:15Z</time></trkpt>
<trkpt lat="52.9951390000" lon="-4.0719970000"><ele>120</ele><time>2016-09-30T13:34:31Z</time></trkpt>
<trkpt lat="52.9949640000" lon="-4.0721080000"><ele>123</ele><time>2016-09-30T13:35:23Z</time></trkpt>
<trkpt lat="52.9948480000" lon="-4.0722220000"><ele>121</ele><time>2016-09-30T13:35:52Z</time></trkpt>
<trkpt lat="52.9947820000" lon="-4.0722970000"><ele>119</ele><time>2016-09-30T13:36:00Z</time></trkpt>
<trkpt lat="52.9947230000" lon="-4.0723790000"><ele>118</ele><time>2016-09-30T13:36:06Z</time></trkpt>
<trkpt lat="52.9946560000" lon="-4.0724310000"><ele>117</ele><time>2016-09-30T13:36:12Z</time></trkpt>
<trkpt lat="52.9944370000" lon="-4.0724730000"><ele>116</ele><time>2016-09-30T13:36:33Z</time></trkpt>
<trkpt lat="52.9943910000" lon="-4.0724940000"><ele>114</ele><time>2016-09-30T13:36:54Z</time></trkpt>
<trkpt lat="52.9942310000" lon="-4.0725790000"><ele>114</ele><time>2016-09-30T13:36:55Z</time></trkpt>
<trkpt lat="52.9942000000" lon="-4.0726080000"><ele>111</ele><time>2016-09-30T13:37:07Z</time></trkpt>
<trkpt lat="52.9941190000" lon="-4.0727320000"><ele>111</ele><time>2016-09-30T13:37:08Z</time></trkpt>
<trkpt lat="52.9940860000" lon="-4.0727830000"><ele>111</ele><time>2016-09-30T13:37:11Z</time></trkpt>
<trkpt lat="52.9940580000" lon="-4.0728300000"><ele>111</ele><time>2016-09-30T13:37:14Z</time></trkpt>
<trkpt lat="52.9940340000" lon="-4.0728840000"><ele>111</ele><time>2016-09-30T13:37:28Z</time></trkpt>
<trkpt lat="52.9940100000" lon="-4.0730580000"><ele>111</ele><time>2016-09-30T13:37:29Z</time></trkpt>
<trkpt lat="52.9940090000" lon="-4.0731320000"><ele>108</ele><time>2016-09-30T13:37:48Z</time></trkpt>
<trkpt lat="52.9939930000" lon="-4.0734040000"><ele>108</ele><time>2016-09-30T13:37:49Z</time></trkpt>
<trkpt lat="52.9940030000" lon="-4.0734850000"><ele>109</ele><time>2016-09-30T13:38:10Z</time></trkpt>
<trkpt lat="52.9940780000" lon="-4.0736130000"><ele>109</ele><time>2016-09-30T13:38:11Z</time></trkpt>
<trkpt lat="52.9940940000" lon="-4.0736640000"><ele>108</ele><time>2016-09-30T13:38:24Z</time></trkpt>
<trkpt lat="52.9941490000" lon="-4.0738680000"><ele>108</ele><time>2016-09-30T13:38:25Z</time></trkpt>
<trkpt lat="52.9941480000" lon="-4.0739330000"><ele>108</ele><time>2016-09-30T13:38:28Z</time></trkpt>
<trkpt lat="52.9941470000" lon="-4.0739910000"><ele>107</ele><time>2016-09-30T13:38:31Z</time></trkpt>
<trkpt lat="52.9941470000" lon="-4.0740590000"><ele>107</ele><time>2016-09-30T13:38:34Z</time></trkpt>
<trkpt lat="52.9941500000" lon="-4.0741170000"><ele>107</ele><time>2016-09-30T13:38:37Z</time></trkpt>
<trkpt lat="52.9941550000" lon="-4.0741660000"><ele>107</ele><time>2016-09-30T13:38:40Z</time></trkpt>
<trkpt lat="52.9941590000" lon="-4.0742090000"><ele>107</ele><time>2016-09-30T13:38:47Z</time></trkpt>
<trkpt lat="52.9941640000" lon="-4.0743400000"><ele>107</ele><time>2016-09-30T13:38:49Z</time></trkpt>
<trkpt lat="52.9941520000" lon="-4.0743850000"><ele>107</ele><time>2016-09-30T13:38:52Z</time></trkpt>
<trkpt lat="52.9940870000" lon="-4.0745080000"><ele>107</ele><time>2016-09-30T13:39:01Z</time></trkpt>
<trkpt lat="52.9940710000" lon="-4.0745400000"><ele>107</ele><time>2016-09-30T13:39:03Z</time></trkpt>
<trkpt lat="52.9940510000" lon="-4.0745640000"><ele>107</ele><time>2016-09-30T13:39:05Z</time></trkpt>
<trkpt lat="52.9940320000" lon="-4.0745930000"><ele>107</ele><time>2016-09-30T13:39:20Z</time></trkpt>
<trkpt lat="52.9940130000" lon="-4.0746250000"><ele>107</ele><time>2016-09-30T13:39:27Z</time></trkpt>
<trkpt lat="52.9939920000" lon="-4.0746600000"><ele>107</ele><time>2016-09-30T13:39:32Z</time></trkpt>
<trkpt lat="52.9938500000" lon="-4.0749060000"><ele>107</ele><time>2016-09-30T13:40:08Z</time></trkpt>
<trkpt lat="52.9938510000" lon="-4.0749320000"><ele>107</ele><time>2016-09-30T13:40:09Z</time></trkpt>
<trkpt lat="52.9938530000" lon="-4.0749370000"><ele>107</ele><time>2016-09-30T13:40:10Z</time></trkpt>
<trkpt lat="52.9938540000" lon="-4.0749460000"><ele>107</ele><time>2016-09-30T13:40:11Z</time></trkpt>
<trkpt lat="52.9938540000" lon="-4.0749460000"><ele>106</ele><time>2016-09-30T13:40:13Z</time></trkpt>
<trkpt lat="52.9938540000" lon="-4.0749460000"><ele>106</ele><time>2016-09-30T13:40:14Z</time></trkpt>
<trkpt lat="52.9938550000" lon="-4.0749470000"><ele>106</ele><time>2016-09-30T13:40:15Z</time></trkpt>
<trkpt lat="52.9938550000" lon="-4.0749470000"><ele>106</ele><time>2016-09-30T13:40:16Z</time></trkpt>
<trkpt lat="52.9938550000" lon="-4.0749480000"><ele>106</ele><time>2016-09-30T13:40:17Z</time></trkpt>
<trkpt lat="52.9938560000" lon="-4.0749500000"><ele>106</ele><time>2016-09-30T13:40:18Z</time></trkpt>
<trkpt lat="52.9938560000" lon="-4.0749510000"><ele>106</ele><time>2016-09-30T13:40:19Z</time></trkpt>
<trkpt lat="52.9938570000" lon="-4.0749530000"><ele>106</ele><time>2016-09-30T13:40:20Z</time></trkpt>
<trkpt lat="52.9938580000" lon="-4.0749540000"><ele>106</ele><time>2016-09-30T13:40:21Z</time></trkpt>
<trkpt lat="52.9938580000" lon="-4.0749560000"><ele>106</ele><time>2016-09-30T13:40:22Z</time></trkpt>
<trkpt lat="52.9938590000" lon="-4.0749570000"><ele>106</ele><time>2016-09-30T13:40:23Z</time></trkpt>
<trkpt lat="52.9938600000" lon="-4.0749590000"><ele>106</ele><time>2016-09-30T13:40:24Z</time></trkpt>
<trkpt lat="52.9938600000" lon="-4.0749600000"><ele>105</ele><time>2016-09-30T13:40:25Z</time></trkpt>
<trkpt lat="52.9938610000" lon="-4.0749620000"><ele>105</ele><time>2016-09-30T13:40:26Z</time></trkpt>
<trkpt lat="52.9938620000" lon="-4.0749630000"><ele>105</ele><time>2016-09-30T13:40:27Z</time></trkpt>
<trkpt lat="52.9938620000" lon="-4.0749650000"><ele>105</ele><time>2016-09-30T13:40:28Z</time></trkpt>
<trkpt lat="52.9938630000" lon="-4.0749660000"><ele>105</ele><time>2016-09-30T13:40:29Z</time></trkpt>
<trkpt lat="52.9938630000" lon="-4.0749680000"><ele>105</ele><time>2016-09-30T13:40:30Z</time></trkpt>
<trkpt lat="52.9938640000" lon="-4.0749700000"><ele>105</ele><time>2016-09-30T13:40:31Z</time></trkpt>
<trkpt lat="52.9938640000" lon="-4.0749720000"><ele>105</ele><time>2016-09-30T13:40:32Z</time></trkpt>
<trkpt lat="52.9938640000" lon="-4.0749740000"><ele>105</ele><time>2016-09-30T13:40:33Z</time></trkpt>
<trkpt lat="52.9938640000" lon="-4.0749760000"><ele>105</ele><time>2016-09-30T13:40:34Z</time></trkpt>
<trkpt lat="52.9938640000" lon="-4.0749780000"><ele>106</ele><time>2016-09-30T13:40:35Z</time></trkpt>
<trkpt lat="52.9938640000" lon="-4.0749800000"><ele>106</ele><time>2016-09-30T13:40:36Z</time></trkpt>
<trkpt lat="52.9938640000" lon="-4.0749820000"><ele>106</ele><time>2016-09-30T13:40:37Z</time></trkpt>
<trkpt lat="52.9938640000" lon="-4.0749850000"><ele>106</ele><time>2016-09-30T13:40:38Z</time></trkpt>
<trkpt lat="52.9938640000" lon="-4.0749870000"><ele>106</ele><time>2016-09-30T13:40:39Z</time></trkpt>
<trkpt lat="52.9938640000" lon="-4.0749890000"><ele>106</ele><time>2016-09-30T13:40:40Z</time></trkpt>
<trkpt lat="52.9938650000" lon="-4.0749920000"><ele>106</ele><time>2016-09-30T13:40:41Z</time></trkpt>
<trkpt lat="52.9938650000" lon="-4.0749950000"><ele>106</ele><time>2016-09-30T13:40:42Z</time></trkpt>
<trkpt lat="52.9938660000" lon="-4.0749980000"><ele>106</ele><time>2016-09-30T13:40:43Z</time></trkpt>
<trkpt lat="52.9938670000" lon="-4.0750010000"><ele>106</ele><time>2016-09-30T13:40:44Z</time></trkpt>
<trkpt lat="52.9938680000" lon="-4.0750050000"><ele>106</ele><time>2016-09-30T13:40:45Z</time></trkpt>
<trkpt lat="52.9938690000" lon="-4.0750090000"><ele>106</ele><time>2016-09-30T13:40:46Z</time></trkpt>
<trkpt lat="52.9938690000" lon="-4.0750140000"><ele>106</ele><time>2016-09-30T13:40:47Z</time></trkpt>
<trkpt lat="52.9938700000" lon="-4.0750190000"><ele>106</ele><time>2016-09-30T13:40:48Z</time></trkpt>
<trkpt lat="52.9938700000" lon="-4.0750240000"><ele>106</ele><time>2016-09-30T13:40:49Z</time></trkpt>
<trkpt lat="52.9938700000" lon="-4.0750290000"><ele>106</ele><time>2016-09-30T13:40:50Z</time></trkpt>
<trkpt lat="52.9938700000" lon="-4.0750350000"><ele>106</ele><time>2016-09-30T13:40:51Z</time></trkpt>
<trkpt lat="52.9938700000" lon="-4.0750420000"><ele>106</ele><time>2016-09-30T13:40:52Z</time></trkpt>
<trkpt lat="52.9938700000" lon="-4.0750480000"><ele>106</ele><time>2016-09-30T13:40:53Z</time></trkpt>
<trkpt lat="52.9938710000" lon="-4.0750550000"><ele>106</ele><time>2016-09-30T13:40:54Z</time></trkpt>
<trkpt lat="52.9938710000" lon="-4.0750620000"><ele>106</ele><time>2016-09-30T13:40:55Z</time></trkpt>
<trkpt lat="52.9938720000" lon="-4.0750690000"><ele>105</ele><time>2016-09-30T13:40:56Z</time></trkpt>
<trkpt lat="52.9938730000" lon="-4.0750760000"><ele>105</ele><time>2016-09-30T13:40:57Z</time></trkpt>
<trkpt lat="52.9938750000" lon="-4.0750830000"><ele>105</ele><time>2016-09-30T13:40:58Z</time></trkpt>
<trkpt lat="52.9938770000" lon="-4.0750900000"><ele>105</ele><time>2016-09-30T13:40:59Z</time></trkpt>
<trkpt lat="52.9938780000" lon="-4.0750980000"><ele>105</ele><time>2016-09-30T13:41:00Z</time></trkpt>
<trkpt lat="52.9938790000" lon="-4.0751060000"><ele>105</ele><time>2016-09-30T13:41:01Z</time></trkpt>
<trkpt lat="52.9938810000" lon="-4.0751140000"><ele>105</ele><time>2016-09-30T13:41:02Z</time></trkpt>
<trkpt lat="52.9938820000" lon="-4.0751220000"><ele>105</ele><time>2016-09-30T13:41:03Z</time></trkpt>
<trkpt lat="52.9938830000" lon="-4.0751310000"><ele>105</ele><time>2016-09-30T13:41:04Z</time></trkpt>
<trkpt lat="52.9938840000" lon="-4.0751400000"><ele>105</ele><time>2016-09-30T13:41:05Z</time></trkpt>
<trkpt lat="52.9938850000" lon="-4.0751490000"><ele>105</ele><time>2016-09-30T13:41:06Z</time></trkpt>
<trkpt lat="52.9939210000" lon="-4.0753250000"><ele>105</ele><time>2016-09-30T13:41:07Z</time></trkpt>
<trkpt lat="52.9939300000" lon="-4.0753380000"><ele>105</ele><time>2016-09-30T13:41:08Z</time></trkpt>
<trkpt lat="52.9939350000" lon="-4.0753530000"><ele>105</ele><time>2016-09-30T13:41:09Z</time></trkpt>
<trkpt lat="52.9939350000" lon="-4.0753530000"><ele>105</ele><time>2016-09-30T13:41:10Z</time></trkpt>
<trkpt lat="52.9939360000" lon="-4.0753530000"><ele>105</ele><time>2016-09-30T13:41:11Z</time></trkpt>
<trkpt lat="52.9939360000" lon="-4.0753540000"><ele>105</ele><time>2016-09-30T13:41:12Z</time></trkpt>
<trkpt lat="52.9939360000" lon="-4.0753560000"><ele>105</ele><time>2016-09-30T13:41:14Z</time></trkpt>
<trkpt lat="52.9939360000" lon="-4.0753580000"><ele>105</ele><time>2016-09-30T13:41:15Z</time></trkpt>
<trkpt lat="52.9939370000" lon="-4.0753600000"><ele>105</ele><time>2016-09-30T13:41:16Z</time></trkpt>
<trkpt lat="52.9939380000" lon="-4.0753620000"><ele>104</ele><time>2016-09-30T13:41:17Z</time></trkpt>
<trkpt lat="52.9939390000" lon="-4.0753640000"><ele>104</ele><time>2016-09-30T13:41:18Z</time></trkpt>
<trkpt lat="52.9939400000" lon="-4.0753660000"><ele>104</ele><time>2016-09-30T13:41:19Z</time></trkpt>
<trkpt lat="52.9939410000" lon="-4.0753680000"><ele>104</ele><time>2016-09-30T13:41:20Z</time></trkpt>
<trkpt lat="52.9939420000" lon="-4.0753710000"><ele>104</ele><time>2016-09-30T13:41:21Z</time></trkpt>
<trkpt lat="52.9939430000" lon="-4.0753730000"><ele>104</ele><time>2016-09-30T13:41:22Z</time></trkpt>
<trkpt lat="52.9939440000" lon="-4.0753760000"><ele>104</ele><time>2016-09-30T13:41:23Z</time></trkpt>
<trkpt lat="52.9939450000" lon="-4.0753780000"><ele>104</ele><time>2016-09-30T13:41:24Z</time></trkpt>
<trkpt lat="52.9939460000" lon="-4.0753790000"><ele>104</ele><time>2016-09-30T13:41:25Z</time></trkpt>
<trkpt lat="52.9939490000" lon="-4.0753800000"><ele>104</ele><time>2016-09-30T13:41:26Z</time></trkpt>
<trkpt lat="52.9939510000" lon="-4.0753820000"><ele>103</ele><time>2016-09-30T13:41:27Z</time></trkpt>
<trkpt lat="52.9939540000" lon="-4.0753830000"><ele>103</ele><time>2016-09-30T13:41:28Z</time></trkpt>
<trkpt lat="52.9939570000" lon="-4.0753850000"><ele>103</ele><time>2016-09-30T13:41:29Z</time></trkpt>
<trkpt lat="52.9939600000" lon="-4.0753870000"><ele>103</ele><time>2016-09-30T13:41:30Z</time></trkpt>
<trkpt lat="52.9939620000" lon="-4.0753890000"><ele>103</ele><time>2016-09-30T13:41:31Z</time></trkpt>
<trkpt lat="52.9939650000" lon="-4.0753920000"><ele>103</ele><time>2016-09-30T13:41:32Z</time></trkpt>
<trkpt lat="52.9939670000" lon="-4.0753950000"><ele>103</ele><time>2016-09-30T13:41:33Z</time></trkpt>
<trkpt lat="52.9939690000" lon="-4.0753980000"><ele>103</ele><time>2016-09-30T13:41:34Z</time></trkpt>
<trkpt lat="52.9939710000" lon="-4.0754020000"><ele>102</ele><time>2016-09-30T13:41:35Z</time></trkpt>
<trkpt lat="52.9939720000" lon="-4.0754070000"><ele>102</ele><time>2016-09-30T13:41:36Z</time></trkpt>
<trkpt lat="52.9939730000" lon="-4.0754110000"><ele>102</ele><time>2016-09-30T13:41:37Z</time></trkpt>
<trkpt lat="52.9939800000" lon="-4.0755140000"><ele>102</ele><time>2016-09-30T13:41:38Z</time></trkpt>
<trkpt lat="52.9939700000" lon="-4.0755300000"><ele>102</ele><time>2016-09-30T13:41:39Z</time></trkpt>
<trkpt lat="52.9939600000" lon="-4.0755430000"><ele>101</ele><time>2016-09-30T13:41:40Z</time></trkpt>
<trkpt lat="52.9939530000" lon="-4.0755520000"><ele>101</ele><time>2016-09-30T13:41:41Z</time></trkpt>
<trkpt lat="52.9939530000" lon="-4.0755520000"><ele>101</ele><time>2016-09-30T13:41:42Z</time></trkpt>
<trkpt lat="52.9939530000" lon="-4.0755530000"><ele>101</ele><time>2016-09-30T13:41:43Z</time></trkpt>
<trkpt lat="52.9939530000" lon="-4.0755530000"><ele>100</ele><time>2016-09-30T13:41:44Z</time></trkpt>
<trkpt lat="52.9939520000" lon="-4.0755540000"><ele>100</ele><time>2016-09-30T13:41:45Z</time></trkpt>
<trkpt lat="52.9939180000" lon="-4.0756210000"><ele>100</ele><time>2016-09-30T13:41:46Z</time></trkpt>
<trkpt lat="52.9939130000" lon="-4.0756370000"><ele>100</ele><time>2016-09-30T13:41:47Z</time></trkpt>
<trkpt lat="52.9939080000" lon="-4.0756550000"><ele>100</ele><time>2016-09-30T13:41:48Z</time></trkpt>
<trkpt lat="52.9939080000" lon="-4.0756550000"><ele>99</ele><time>2016-09-30T13:41:49Z</time></trkpt>
<trkpt lat="52.9939080000" lon="-4.0756550000"><ele>99</ele><time>2016-09-30T13:41:50Z</time></trkpt>
<trkpt lat="52.9939080000" lon="-4.0756560000"><ele>99</ele><time>2016-09-30T13:41:51Z</time></trkpt>
<trkpt lat="52.9939080000" lon="-4.0756570000"><ele>99</ele><time>2016-09-30T13:41:52Z</time></trkpt>
<trkpt lat="52.9939080000" lon="-4.0756580000"><ele>99</ele><time>2016-09-30T13:41:53Z</time></trkpt>
<trkpt lat="52.9939090000" lon="-4.0756600000"><ele>98</ele><time>2016-09-30T13:41:54Z</time></trkpt>
<trkpt lat="52.9939090000" lon="-4.0756620000"><ele>98</ele><time>2016-09-30T13:41:55Z</time></trkpt>
<trkpt lat="52.9939090000" lon="-4.0756640000"><ele>98</ele><time>2016-09-30T13:41:56Z</time></trkpt>
<trkpt lat="52.9939090000" lon="-4.0756670000"><ele>98</ele><time>2016-09-30T13:41:57Z</time></trkpt>
<trkpt lat="52.9939100000" lon="-4.0756700000"><ele>98</ele><time>2016-09-30T13:41:58Z</time></trkpt>
<trkpt lat="52.9939100000" lon="-4.0756730000"><ele>98</ele><time>2016-09-30T13:41:59Z</time></trkpt>
<trkpt lat="52.9939100000" lon="-4.0756760000"><ele>98</ele><time>2016-09-30T13:42:00Z</time></trkpt>
<trkpt lat="52.9939110000" lon="-4.0756780000"><ele>98</ele><time>2016-09-30T13:42:01Z</time></trkpt>
<trkpt lat="52.9939110000" lon="-4.0756810000"><ele>98</ele><time>2016-09-30T13:42:03Z</time></trkpt>
<trkpt lat="52.9939120000" lon="-4.0756830000"><ele>98</ele></trkpt>
<trkpt lat="52.9939130000" lon="-4.0756860000"><ele>98</ele><time>2016-09-30T13:42:04Z</time></trkpt>
<trkpt lat="52.9939130000" lon="-4.0756880000"><ele>98</ele><time>2016-09-30T13:42:05Z</time></trkpt>
<trkpt lat="52.9939140000" lon="-4.0756910000"><ele>98</ele><time>2016-09-30T13:42:06Z</time></trkpt>
<trkpt lat="52.9939150000" lon="-4.0756930000"><ele>98</ele><time>2016-09-30T13:42:07Z</time></trkpt>
<trkpt lat="52.9939160000" lon="-4.0756960000"><ele>98</ele><time>2016-09-30T13:42:08Z</time></trkpt>
<trkpt lat="52.9939170000" lon="-4.0756980000"><ele>98</ele><time>2016-09-30T13:42:09Z</time></trkpt>
<trkpt lat="52.9939180000" lon="-4.0757010000"><ele>98</ele><time>2016-09-30T13:42:10Z</time></trkpt>
<trkpt lat="52.9939180000" lon="-4.0757050000"><ele>98</ele><time>2016-09-30T13:42:11Z</time></trkpt>
<trkpt lat="52.9939190000" lon="-4.0757090000"><ele>98</ele><time>2016-09-30T13:42:12Z</time></trkpt>
<trkpt lat="52.9939200000" lon="-4.0757140000"><ele>98</ele><time>2016-09-30T13:42:13Z</time></trkpt>
<trkpt lat="52.9939200000" lon="-4.0757190000"><ele>97</ele><time>2016-09-30T13:42:14Z</time></trkpt>
<trkpt lat="52.9939210000" lon="-4.0757240000"><ele>97</ele><time>2016-09-30T13:42:15Z</time></trkpt>
<trkpt lat="52.9939210000" lon="-4.0757300000"><ele>97</ele><time>2016-09-30T13:42:16Z</time></trkpt>
<trkpt lat="52.9939220000" lon="-4.0757350000"><ele>97</ele><time>2016-09-30T13:42:17Z</time></trkpt>
<trkpt lat="52.9939230000" lon="-4.0757410000"><ele>97</ele><time>2016-09-30T13:42:18Z</time></trkpt>
<trkpt lat="52.9939240000" lon="-4.0757470000"><ele>97</ele><time>2016-09-30T13:42:19Z</time></trkpt>
<trkpt lat="52.9939250000" lon="-4.0757520000"><ele>97</ele><time>2016-09-30T13:42:20Z</time></trkpt>
<trkpt lat="52.9939450000" lon="-4.0758110000"><ele>96</ele><time>2016-09-30T13:42:30Z</time></trkpt>
<trkpt lat="52.9939680000" lon="-4.0759560000"><ele>97</ele><time>2016-09-30T13:42:38Z</time></trkpt>
<trkpt lat="52.9939950000" lon="-4.0759550000"><ele>97</ele><time>2016-09-30T13:42:40Z</time></trkpt>
<trkpt lat="52.9940180000" lon="-4.0759590000"><ele>97</ele><time>2016-09-30T13:42:54Z</time></trkpt>
<trkpt lat="52.9940340000" lon="-4.0759730000"><ele>97</ele><time>2016-09-30T13:42:59Z</time></trkpt>
<trkpt lat="52.9940380000" lon="-4.0759770000"><ele>97</ele><time>2016-09-30T13:43:00Z</time></trkpt>
<trkpt lat="52.9940420000" lon="-4.0759810000"><ele>97</ele><time>2016-09-30T13:43:01Z</time></trkpt>
<trkpt lat="52.9940460000" lon="-4.0759850000"><ele>97</ele><time>2016-09-30T13:43:02Z</time></trkpt>
<trkpt lat="52.9940510000" lon="-4.0759890000"><ele>97</ele><time>2016-09-30T13:43:03Z</time></trkpt>
<trkpt lat="52.9940550000" lon="-4.0759930000"><ele>97</ele><time>2016-09-30T13:43:04Z</time></trkpt>
<trkpt lat="52.9940590000" lon="-4.0759970000"><ele>97</ele><time>2016-09-30T13:43:05Z</time></trkpt>
<trkpt lat="52.9940630000" lon="-4.0760010000"><ele>97</ele><time>2016-09-30T13:43:06Z</time></trkpt>
<trkpt lat="52.9940670000" lon="-4.0760040000"><ele>97</ele><time>2016-09-30T13:43:07Z</time></trkpt>
<trkpt lat="52.9941010000" lon="-4.0760320000"><ele>96</ele><time>2016-09-30T13:43:18Z</time></trkpt>
<trkpt lat="52.9941470000" lon="-4.0760750000"><ele>96</ele><time>2016-09-30T13:43:19Z</time></trkpt>
<trkpt lat="52.9941560000" lon="-4.0760840000"><ele>96</ele><time>2016-09-30T13:43:20Z</time></trkpt>
<trkpt lat="52.9941640000" lon="-4.0760910000"><ele>96</ele><time>2016-09-30T13:43:21Z</time></trkpt>
<trkpt lat="52.9941640000" lon="-4.0760920000"><ele>96</ele><time>2016-09-30T13:43:23Z</time></trkpt>
<trkpt lat="52.9941640000" lon="-4.0760920000"><ele>96</ele><time>2016-09-30T13:43:24Z</time></trkpt>
<trkpt lat="52.9941650000" lon="-4.0760920000"><ele>96</ele><time>2016-09-30T13:43:25Z</time></trkpt>
<trkpt lat="52.9941650000" lon="-4.0760930000"><ele>96</ele><time>2016-09-30T13:43:26Z</time></trkpt>
<trkpt lat="52.9941660000" lon="-4.0760940000"><ele>96</ele><time>2016-09-30T13:43:27Z</time></trkpt>
<trkpt lat="52.9941680000" lon="-4.0760950000"><ele>96</ele><time>2016-09-30T13:43:28Z</time></trkpt>
<trkpt lat="52.9941690000" lon="-4.0760970000"><ele>96</ele><time>2016-09-30T13:43:29Z</time></trkpt>
<trkpt lat="52.9941710000" lon="-4.0760990000"><ele>96</ele><time>2016-09-30T13:43:30Z</time></trkpt>
<trkpt lat="52.9942160000" lon="-4.0761440000"><ele>96</ele><time>2016-09-30T13:43:44Z</time></trkpt>
<trkpt lat="52.9943370000" lon="-4.0762550000"><ele>96</ele><time>2016-09-30T13:43:45Z</time></trkpt>
<trkpt lat="52.9943610000" lon="-4.0762660000"><ele>96</ele><time>2016-09-30T13:43:48Z</time></trkpt>
<trkpt lat="52.9943880000" lon="-4.0762760000"><ele>96</ele><time>2016-09-30T13:43:50Z</time></trkpt>
<trkpt lat="52.9943970000" lon="-4.0762810000"><ele>95</ele><time>2016-09-30T13:43:56Z</time></trkpt>
<trkpt lat="52.9943980000" lon="-4.0762820000"><ele>94</ele><time>2016-09-30T13:43:57Z</time></trkpt>
<trkpt lat="52.9943990000" lon="-4.0762830000"><ele>94</ele><time>2016-09-30T13:43:58Z</time></trkpt>
<trkpt lat="52.9944010000" lon="-4.0762830000"><ele>94</ele><time>2016-09-30T13:43:59Z</time></trkpt>
<trkpt lat="52.9944030000" lon="-4.0762840000"><ele>94</ele><time>2016-09-30T13:44:00Z</time></trkpt>
<trkpt lat="52.9944090000" lon="-4.0762860000"><ele>93</ele><time>2016-09-30T13:44:03Z</time></trkpt>
<trkpt lat="52.9944120000" lon="-4.0762860000"><ele>93</ele></trkpt>
<trkpt lat="52.9944160000" lon="-4.0762870000"><ele>93</ele><time>2016-09-30T13:44:04Z</time></trkpt>
<trkpt lat="52.9944200000" lon="-4.0762870000"><ele>93</ele><time>2016-09-30T13:44:05Z</time></trkpt>
<trkpt lat="52.9944250000" lon="-4.0762870000"><ele>92</ele><time>2016-09-30T13:44:06Z</time></trkpt>
<trkpt lat="52.9944290000" lon="-4.0762860000"><ele>92</ele><time>2016-09-30T13:44:07Z</time></trkpt>
<trkpt lat="52.9944340000" lon="-4.0762860000"><ele>92</ele><time>2016-09-30T13:44:08Z</time></trkpt>
<trkpt lat="52.9944560000" lon="-4.0762840000"><ele>91</ele><time>2016-09-30T13:44:12Z</time></trkpt>
<trkpt lat="52.9944810000" lon="-4.0762800000"><ele>91</ele><time>2016-09-30T13:44:16Z</time></trkpt>
<trkpt lat="52.9945090000" lon="-4.0762780000"><ele>91</ele><time>2016-09-30T13:44:20Z</time></trkpt>
<trkpt lat="52.9945400000" lon="-4.0762810000"><ele>90</ele><time>2016-09-30T13:44:24Z</time></trkpt>
<trkpt lat="52.9947100000" lon="-4.0763190000"><ele>90</ele><time>2016-09-30T13:44:25Z</time></trkpt>
<trkpt lat="52.9947370000" lon="-4.0763530000"><ele>89</ele><time>2016-09-30T13:44:28Z</time></trkpt>
<trkpt lat="52.9947640000" lon="-4.0763300000"><ele>89</ele><time>2016-09-30T13:44:31Z</time></trkpt>
<trkpt lat="52.9947820000" lon="-4.0763190000"><ele>89</ele><time>2016-09-30T13:44:33Z</time></trkpt>
<trkpt lat="52.9947990000" lon="-4.0763090000"><ele>87</ele><time>2016-09-30T13:44:43Z</time></trkpt>
<trkpt lat="52.9948850000" lon="-4.0762500000"><ele>86</ele><time>2016-09-30T13:44:45Z</time></trkpt>
<trkpt lat="52.9949010000" lon="-4.0762600000"><ele>85</ele><time>2016-09-30T13:44:53Z</time></trkpt>
<trkpt lat="52.9949020000" lon="-4.0762600000"><ele>84</ele><time>2016-09-30T13:44:54Z</time></trkpt>
<trkpt lat="52.9949020000" lon="-4.0762610000"><ele>84</ele><time>2016-09-30T13:44:55Z</time></trkpt>
<trkpt lat="52.9949020000" lon="-4.0762610000"><ele>84</ele><time>2016-09-30T13:44:56Z</time></trkpt>
<trkpt lat="52.9949020000" lon="-4.0762620000"><ele>84</ele><time>2016-09-30T13:44:57Z</time></trkpt>
<trkpt lat="52.9949020000" lon="-4.0762620000"><ele>84</ele><time>2016-09-30T13:44:58Z</time></trkpt>
<trkpt lat="52.9949030000" lon="-4.0762620000"><ele>84</ele><time>2016-09-30T13:44:59Z</time></trkpt>
<trkpt lat="52.9949030000" lon="-4.0762630000"><ele>84</ele><time>2016-09-30T13:45:00Z</time></trkpt>
<trkpt lat="52.9949030000" lon="-4.0762630000"><ele>84</ele><time>2016-09-30T13:45:01Z</time></trkpt>
<trkpt lat="52.9949040000" lon="-4.0762640000"><ele>84</ele><time>2016-09-30T13:45:02Z</time></trkpt>
<trkpt lat="52.9949040000" lon="-4.0762640000"><ele>83</ele><time>2016-09-30T13:45:03Z</time></trkpt>
<trkpt lat="52.9949040000" lon="-4.0762650000"><ele>83</ele><time>2016-09-30T13:45:04Z</time></trkpt>
<trkpt lat="52.9949040000" lon="-4.0762650000"><ele>83</ele><time>2016-09-30T13:45:05Z</time></trkpt>
<trkpt lat="52.9949040000" lon="-4.0762660000"><ele>83</ele><time>2016-09-30T13:45:06Z</time></trkpt>
<trkpt lat="52.9949040000" lon="-4.0762670000"><ele>83</ele><time>2016-09-30T13:45:07Z</time></trkpt>
<trkpt lat="52.9949040000" lon="-4.0762680000"><ele>83</ele><time>2016-09-30T13:45:08Z</time></trkpt>
<trkpt lat="52.9949040000" lon="-4.0762690000"><ele>83</ele><time>2016-09-30T13:45:09Z</time></trkpt>
<trkpt lat="52.9949040000" lon="-4.0762700000"><ele>83</ele><time>2016-09-30T13:45:10Z</time></trkpt>
<trkpt lat="52.9949050000" lon="-4.0762710000"><ele>84</ele><time>2016-09-30T13:45:11Z</time></trkpt>
<trkpt lat="52.9949050000" lon="-4.0762720000"><ele>84</ele><time>2016-09-30T13:45:12Z</time></trkpt>
<trkpt lat="52.9949050000" lon="-4.0762730000"><ele>84</ele><time>2016-09-30T13:45:13Z</time></trkpt>
<trkpt lat="52.9949050000" lon="-4.0762740000"><ele>84</ele><time>2016-09-30T13:45:14Z</time></trkpt>
<trkpt lat="52.9949050000" lon="-4.0762740000"><ele>84</ele><time>2016-09-30T13:45:15Z</time></trkpt>
<trkpt lat="52.9949050000" lon="-4.0762750000"><ele>84</ele><time>2016-09-30T13:45:16Z</time></trkpt>
<trkpt lat="52.9949050000" lon="-4.0762760000"><ele>84</ele><time>2016-09-30T13:45:17Z</time></trkpt>
<trkpt lat="52.9949060000" lon="-4.0762770000"><ele>84</ele><time>2016-09-30T13:45:18Z</time></trkpt>
<trkpt lat="52.9949060000" lon="-4.0762780000"><ele>84</ele><time>2016-09-30T13:45:19Z</time></trkpt>
<trkpt lat="52.9949060000" lon="-4.0762790000"><ele>84</ele><time>2016-09-30T13:45:20Z</time></trkpt>
<trkpt lat="52.9949060000" lon="-4.0762810000"><ele>84</ele><time>2016-09-30T13:45:21Z</time></trkpt>
<trkpt lat="52.9949060000" lon="-4.0762820000"><ele>84</ele><time>2016-09-30T13:45:22Z</time></trkpt>
<trkpt lat="52.9949060000" lon="-4.0762830000"><ele>85</ele><time>2016-09-30T13:45:23Z</time></trkpt>
<trkpt lat="52.9949060000" lon="-4.0762840000"><ele>85</ele><time>2016-09-30T13:45:24Z</time></trkpt>
<trkpt lat="52.9949070000" lon="-4.0762850000"><ele>85</ele><time>2016-09-30T13:45:25Z</time></trkpt>
<trkpt lat="52.9949070000" lon="-4.0762850000"><ele>85</ele><time>2016-09-30T13:45:26Z</time></trkpt>
<trkpt lat="52.9949070000" lon="-4.0762860000"><ele>85</ele><time>2016-09-30T13:45:27Z</time></trkpt>
<trkpt lat="52.9949070000" lon="-4.0762870000"><ele>85</ele><time>2016-09-30T13:45:28Z</time></trkpt>
<trkpt lat="52.9949070000" lon="-4.0762870000"><ele>85</ele><time>2016-09-30T13:45:29Z</time></trkpt>
<trkpt lat="52.9949070000" lon="-4.0762880000"><ele>85</ele><time>2016-09-30T13:45:30Z</time></trkpt>
<trkpt lat="52.9949070000" lon="-4.0762890000"><ele>85</ele><time>2016-09-30T13:45:31Z</time></trkpt>
<trkpt lat="52.9949070000" lon="-4.0762890000"><ele>85</ele><time>2016-09-30T13:45:32Z</time></trkpt>
<trkpt lat="52.9949070000" lon="-4.0762900000"><ele>86</ele><time>2016-09-30T13:45:33Z</time></trkpt>
<trkpt lat="52.9949070000" lon="-4.0762910000"><ele>86</ele><time>2016-09-30T13:45:34Z</time></trkpt>
<trkpt lat="52.9949070000" lon="-4.0762920000"><ele>86</ele><time>2016-09-30T13:45:35Z</time></trkpt>
<trkpt lat="52.9949070000" lon="-4.0762930000"><ele>86</ele><time>2016-09-30T13:45:36Z</time></trkpt>
<trkpt lat="52.9949070000" lon="-4.0762940000"><ele>86</ele><time>2016-09-30T13:45:37Z</time></trkpt>
<trkpt lat="52.9949070000" lon="-4.0762950000"><ele>86</ele><time>2016-09-30T13:45:38Z</time></trkpt>
<trkpt lat="52.9949060000" lon="-4.0762960000"><ele>86</ele><time>2016-09-30T13:45:39Z</time></trkpt>
<trkpt lat="52.9949060000" lon="-4.0762980000"><ele>86</ele><time>2016-09-30T13:45:40Z</time></trkpt>
<trkpt lat="52.9949060000" lon="-4.0763000000"><ele>86</ele><time>2016-09-30T13:45:41Z</time></trkpt>
<trkpt lat="52.9949050000" lon="-4.0763020000"><ele>86</ele><time>2016-09-30T13:45:42Z</time></trkpt>
<trkpt lat="52.9949050000" lon="-4.0763060000"><ele>86</ele><time>2016-09-30T13:45:43Z</time></trkpt>
<trkpt lat="52.9949040000" lon="-4.0763090000"><ele>86</ele><time>2016-09-30T13:45:44Z</time></trkpt>
<trkpt lat="52.9949030000" lon="-4.0763130000"><ele>86</ele><time>2016-09-30T13:45:45Z</time></trkpt>
<trkpt lat="52.9949020000" lon="-4.0763170000"><ele>86</ele><time>2016-09-30T13:45:46Z</time></trkpt>
<trkpt lat="52.9949010000" lon="-4.0763210000"><ele>86</ele><time>2016-09-30T13:45:47Z</time></trkpt>
<trkpt lat="52.9949000000" lon="-4.0763250000"><ele>86</ele><time>2016-09-30T13:45:48Z</time></trkpt>
<trkpt lat="52.9948990000" lon="-4.0763290000"><ele>86</ele><time>2016-09-30T13:45:49Z</time></trkpt>
<trkpt lat="52.9948980000" lon="-4.0763320000"><ele>85</ele><time>2016-09-30T13:45:50Z</time></trkpt>
<trkpt lat="52.9948960000" lon="-4.0763360000"><ele>85</ele><time>2016-09-30T13:45:51Z</time></trkpt>
<trkpt lat="52.9948950000" lon="-4.0763400000"><ele>85</ele><time>2016-09-30T13:45:52Z</time></trkpt>
<trkpt lat="52.9948940000" lon="-4.0763440000"><ele>85</ele><time>2016-09-30T13:45:53Z</time></trkpt>
<trkpt lat="52.9948930000" lon="-4.0763480000"><ele>85</ele><time>2016-09-30T13:45:54Z</time></trkpt>
<trkpt lat="52.9948920000" lon="-4.0763530000"><ele>85</ele><time>2016-09-30T13:45:55Z</time></trkpt>
<trkpt lat="52.9948900000" lon="-4.0763580000"><ele>85</ele><time>2016-09-30T13:45:56Z</time></trkpt>
<trkpt lat="52.9948890000" lon="-4.0763640000"><ele>85</ele><time>2016-09-30T13:45:57Z</time></trkpt>
<trkpt lat="52.9948880000" lon="-4.0763700000"><ele>85</ele><time>2016-09-30T13:45:58Z</time></trkpt>
<trkpt lat="52.9948860000" lon="-4.0763760000"><ele>85</ele><time>2016-09-30T13:45:59Z</time></trkpt>
<trkpt lat="52.9948840000" lon="-4.0763830000"><ele>85</ele><time>2016-09-30T13:46:00Z</time></trkpt>
<trkpt lat="52.9948830000" lon="-4.0763890000"><ele>84</ele><time>2016-09-30T13:46:01Z</time></trkpt>
<trkpt lat="52.9948810000" lon="-4.0763960000"><ele>84</ele><time>2016-09-30T13:46:02Z</time></trkpt>
<trkpt lat="52.9948790000" lon="-4.0764030000"><ele>84</ele><time>2016-09-30T13:46:03Z</time></trkpt>
<trkpt lat="52.9948770000" lon="-4.0764090000"><ele>84</ele><time>2016-09-30T13:46:04Z</time></trkpt>
<trkpt lat="52.9948760000" lon="-4.0764160000"><ele>84</ele><time>2016-09-30T13:46:05Z</time></trkpt>
<trkpt lat="52.9948740000" lon="-4.0764230000"><ele>84</ele><time>2016-09-30T13:46:06Z</time></trkpt>
<trkpt lat="52.9948720000" lon="-4.0764310000"><ele>84</ele><time>2016-09-30T13:46:07Z</time></trkpt>
<trkpt lat="52.9948700000" lon="-4.0764390000"><ele>84</ele><time>2016-09-30T13:46:08Z</time></trkpt>
<trkpt lat="52.9948680000" lon="-4.0764470000"><ele>83</ele><time>2016-09-30T13:46:09Z</time></trkpt>
<trkpt lat="52.9948660000" lon="-4.0764550000"><ele>83</ele><time>2016-09-30T13:46:10Z</time></trkpt>
<trkpt lat="52.9948640000" lon="-4.0764630000"><ele>83</ele><time>2016-09-30T13:46:11Z</time></trkpt>
<trkpt lat="52.9948620000" lon="-4.0764710000"><ele>83</ele><time>2016-09-30T13:46:12Z</time></trkpt>
<trkpt lat="52.9948600000" lon="-4.0764790000"><ele>83</ele><time>2016-09-30T13:46:13Z</time></trkpt>
<trkpt lat="52.9948570000" lon="-4.0764880000"><ele>83</ele><time>2016-09-30T13:46:14Z</time></trkpt>
<trkpt lat="52.9948550000" lon="-4.0764970000"><ele>82</ele><time>2016-09-30T13:46:15Z</time></trkpt>
<trkpt lat="52.9948460000" lon="-4.0765360000"><ele>82</ele><time>2016-09-30T13:46:19Z</time></trkpt>
<trkpt lat="52.9948360000" lon="-4.0765790000"><ele>81</ele><time>2016-09-30T13:46:23Z</time></trkpt>
<trkpt lat="52.9948280000" lon="-4.0766130000"><ele>81</ele><time>2016-09-30T13:46:26Z</time></trkpt>
<trkpt lat="52.9948210000" lon="-4.0766500000"><ele>80</ele><time>2016-09-30T13:46:29Z</time></trkpt>
<trkpt lat="52.9947650000" lon="-4.0769150000"><ele>80</ele><time>2016-09-30T13:46:31Z</time></trkpt>
<trkpt lat="52.9947490000" lon="-4.0769430000"><ele>80</ele><time>2016-09-30T13:46:33Z</time></trkpt>
<trkpt lat="52.9947330000" lon="-4.0769690000"><ele>77</ele><time>2016-09-30T13:46:47Z</time></trkpt>
<trkpt lat="52.9947130000" lon="-4.0769900000"><ele>77</ele><time>2016-09-30T13:46:54Z</time></trkpt>
<trkpt lat="52.9946950000" lon="-4.0770070000"><ele>76</ele><time>2016-09-30T13:46:58Z</time></trkpt>
<trkpt lat="52.9946770000" lon="-4.0770210000"><ele>76</ele><time>2016-09-30T13:47:01Z</time></trkpt>
<trkpt lat="52.9945370000" lon="-4.0771290000"><ele>75</ele><time>2016-09-30T13:47:03Z</time></trkpt>
<trkpt lat="52.9945180000" lon="-4.0771440000"><ele>74</ele><time>2016-09-30T13:47:15Z</time></trkpt>
<trkpt lat="52.9944990000" lon="-4.0771640000"><ele>73</ele><time>2016-09-30T13:47:21Z</time></trkpt>
<trkpt lat="52.9944860000" lon="-4.0771810000"><ele>72</ele><time>2016-09-30T13:47:24Z</time></trkpt>
<trkpt lat="52.9944800000" lon="-4.0771880000"><ele>72</ele><time>2016-09-30T13:47:25Z</time></trkpt>
<trkpt lat="52.9943510000" lon="-4.0773440000"><ele>71</ele><time>2016-09-30T13:47:26Z</time></trkpt>
<trkpt lat="52.9943440000" lon="-4.0773600000"><ele>71</ele><time>2016-09-30T13:47:27Z</time></trkpt>
<trkpt lat="52.9943380000" lon="-4.0773730000"><ele>71</ele><time>2016-09-30T13:47:28Z</time></trkpt>
<trkpt lat="52.9943260000" lon="-4.0773810000"><ele>71</ele><time>2016-09-30T13:47:29Z</time></trkpt>
<trkpt lat="52.9943130000" lon="-4.0773910000"><ele>70</ele><time>2016-09-30T13:47:30Z</time></trkpt>
<trkpt lat="52.9943010000" lon="-4.0773990000"><ele>70</ele><time>2016-09-30T13:47:31Z</time></trkpt>
<trkpt lat="52.9942900000" lon="-4.0774100000"><ele>70</ele><time>2016-09-30T13:47:32Z</time></trkpt>
<trkpt lat="52.9942800000" lon="-4.0774200000"><ele>70</ele><time>2016-09-30T13:47:33Z</time></trkpt>
<trkpt lat="52.9942700000" lon="-4.0774310000"><ele>69</ele><time>2016-09-30T13:47:34Z</time></trkpt>
<trkpt lat="52.9942590000" lon="-4.0774410000"><ele>69</ele><time>2016-09-30T13:47:35Z</time></trkpt>
<trkpt lat="52.9942500000" lon="-4.0774510000"><ele>69</ele><time>2016-09-30T13:47:36Z</time></trkpt>
<trkpt lat="52.9942410000" lon="-4.0774590000"><ele>69</ele><time>2016-09-30T13:47:37Z</time></trkpt>
<trkpt lat="52.9942410000" lon="-4.0774600000"><ele>68</ele><time>2016-09-30T13:47:39Z</time></trkpt>
<trkpt lat="52.9942410000" lon="-4.0774600000"><ele>68</ele><time>2016-09-30T13:47:40Z</time></trkpt>
<trkpt lat="52.9942410000" lon="-4.0774600000"><ele>68</ele><time>2016-09-30T13:47:41Z</time></trkpt>
<trkpt lat="52.9942400000" lon="-4.0774610000"><ele>68</ele><time>2016-09-30T13:47:42Z</time></trkpt>
<trkpt lat="52.9942400000" lon="-4.0774620000"><ele>67</ele><time>2016-09-30T13:47:43Z</time></trkpt>
<trkpt lat="52.9942390000" lon="-4.0774630000"><ele>67</ele><time>2016-09-30T13:47:44Z</time></trkpt>
<trkpt lat="52.9942380000" lon="-4.0774650000"><ele>67</ele><time>2016-09-30T13:47:45Z</time></trkpt>
<trkpt lat="52.9942370000" lon="-4.0774680000"><ele>67</ele><time>2016-09-30T13:47:46Z</time></trkpt>
<trkpt lat="52.9942360000" lon="-4.0774700000"><ele>67</ele><time>2016-09-30T13:47:47Z</time></trkpt>
<trkpt lat="52.9942350000" lon="-4.0774730000"><ele>67</ele><time>2016-09-30T13:47:48Z</time></trkpt>
<trkpt lat="52.9942340000" lon="-4.0774760000"><ele>67</ele><time>2016-09-30T13:47:49Z</time></trkpt>
<trkpt lat="52.9942320000" lon="-4.0774800000"><ele>67</ele><time>2016-09-30T13:47:50Z</time></trkpt>
<trkpt lat="52.9942310000" lon="-4.0774840000"><ele>67</ele><time>2016-09-30T13:47:51Z</time></trkpt>
<trkpt lat="52.9942280000" lon="-4.0774880000"><ele>66</ele><time>2016-09-30T13:47:52Z</time></trkpt>
<trkpt lat="52.9941650000" lon="-4.0776100000"><ele>66</ele><time>2016-09-30T13:47:53Z</time></trkpt>
<trkpt lat="52.9941580000" lon="-4.0776210000"><ele>66</ele><time>2016-09-30T13:47:54Z</time></trkpt>
<trkpt lat="52.9941490000" lon="-4.0776340000"><ele>66</ele><time>2016-09-30T13:47:55Z</time></trkpt>
<trkpt lat="52.9941410000" lon="-4.0776490000"><ele>66</ele><time>2016-09-30T13:47:56Z</time></trkpt>
<trkpt lat="52.9941340000" lon="-4.0776640000"><ele>66</ele><time>2016-09-30T13:47:57Z</time></trkpt>
<trkpt lat="52.9941260000" lon="-4.0776790000"><ele>66</ele><time>2016-09-30T13:47:58Z</time></trkpt>
<trkpt lat="52.9941180000" lon="-4.0776920000"><ele>66</ele><time>2016-09-30T13:47:59Z</time></trkpt>
<trkpt lat="52.9941110000" lon="-4.0777080000"><ele>66</ele><time>2016-09-30T13:48:00Z</time></trkpt>
<trkpt lat="52.9941040000" lon="-4.0777220000"><ele>66</ele><time>2016-09-30T13:48:01Z</time></trkpt>
<trkpt lat="52.9940970000" lon="-4.0777350000"><ele>66</ele><time>2016-09-30T13:48:02Z</time></trkpt>
<trkpt lat="52.9940970000" lon="-4.0777350000"><ele>65</ele><time>2016-09-30T13:48:04Z</time></trkpt>
<trkpt lat="52.9940970000" lon="-4.0777350000"><ele>65</ele><time>2016-09-30T13:48:05Z</time></trkpt>
<trkpt lat="52.9940960000" lon="-4.0777360000"><ele>65</ele><time>2016-09-30T13:48:06Z</time></trkpt>
<trkpt lat="52.9940960000" lon="-4.0777370000"><ele>65</ele><time>2016-09-30T13:48:07Z</time></trkpt>
<trkpt lat="52.9940950000" lon="-4.0777390000"><ele>65</ele><time>2016-09-30T13:48:08Z</time></trkpt>
<trkpt lat="52.9940950000" lon="-4.0777420000"><ele>65</ele><time>2016-09-30T13:48:09Z</time></trkpt>
<trkpt lat="52.9940940000" lon="-4.0777450000"><ele>65</ele><time>2016-09-30T13:48:10Z</time></trkpt>
<trkpt lat="52.9940930000" lon="-4.0777480000"><ele>65</ele><time>2016-09-30T13:48:11Z</time></trkpt>
<trkpt lat="52.9940920000" lon="-4.0777530000"><ele>65</ele><time>2016-09-30T13:48:12Z</time></trkpt>
<trkpt lat="52.9940910000" lon="-4.0777580000"><ele>65</ele><time>2016-09-30T13:48:13Z</time></trkpt>
<trkpt lat="52.9940890000" lon="-4.0777640000"><ele>65</ele><time>2016-09-30T13:48:14Z</time></trkpt>
<trkpt lat="52.9940870000" lon="-4.0777710000"><ele>65</ele><time>2016-09-30T13:48:15Z</time></trkpt>
<trkpt lat="52.9940860000" lon="-4.0777790000"><ele>65</ele><time>2016-09-30T13:48:16Z</time></trkpt>
<trkpt lat="52.9940840000" lon="-4.0777850000"><ele>64</ele><time>2016-09-30T13:48:17Z</time></trkpt>
<trkpt lat="52.9940820000" lon="-4.0777950000"><ele>64</ele><time>2016-09-30T13:48:18Z</time></trkpt>
<trkpt lat="52.9940800000" lon="-4.0778050000"><ele>64</ele><time>2016-09-30T13:48:19Z</time></trkpt>
<trkpt lat="52.9940770000" lon="-4.0778150000"><ele>64</ele><time>2016-09-30T13:48:20Z</time></trkpt>
<trkpt lat="52.9940740000" lon="-4.0778270000"><ele>64</ele><time>2016-09-30T13:48:21Z</time></trkpt>
<trkpt lat="52.9940710000" lon="-4.0778390000"><ele>64</ele><time>2016-09-30T13:48:22Z</time></trkpt>
<trkpt lat="52.9940680000" lon="-4.0778510000"><ele>64</ele><time>2016-09-30T13:48:23Z</time></trkpt>
<trkpt lat="52.9940650000" lon="-4.0778630000"><ele>64</ele><time>2016-09-30T13:48:24Z</time></trkpt>
<trkpt lat="52.9940610000" lon="-4.0778760000"><ele>64</ele><time>2016-09-30T13:48:25Z</time></trkpt>
<trkpt lat="52.9940570000" lon="-4.0778890000"><ele>63</ele><time>2016-09-30T13:48:26Z</time></trkpt>
<trkpt lat="52.9940530000" lon="-4.0779030000"><ele>63</ele><time>2016-09-30T13:48:27Z</time></trkpt>
<trkpt lat="52.9940490000" lon="-4.0779150000"><ele>63</ele><time>2016-09-30T13:48:28Z</time></trkpt>
<trkpt lat="52.9940410000" lon="-4.0779410000"><ele>63</ele><time>2016-09-30T13:48:30Z</time></trkpt>
<trkpt lat="52.9939510000" lon="-4.0781960000"><ele>63</ele><time>2016-09-30T13:48:31Z</time></trkpt>
<trkpt lat="52.9939460000" lon="-4.0782080000"><ele>63</ele><time>2016-09-30T13:48:32Z</time></trkpt>
<trkpt lat="52.9939380000" lon="-4.0782240000"><ele>63</ele><time>2016-09-30T13:48:33Z</time></trkpt>
<trkpt lat="52.9939320000" lon="-4.0782430000"><ele>63</ele><time>2016-09-30T13:48:34Z</time></trkpt>
<trkpt lat="52.9939260000" lon="-4.0782670000"><ele>62</ele><time>2016-09-30T13:48:35Z</time></trkpt>
<trkpt lat="52.9939220000" lon="-4.0782880000"><ele>62</ele><time>2016-09-30T13:48:36Z</time></trkpt>
<trkpt lat="52.9939160000" lon="-4.0783030000"><ele>62</ele><time>2016-09-30T13:48:37Z</time></trkpt>
<trkpt lat="52.9939080000" lon="-4.0783170000"><ele>62</ele><time>2016-09-30T13:48:38Z</time></trkpt>
<trkpt lat="52.9939020000" lon="-4.0783330000"><ele>60</ele><time>2016-09-30T13:48:48Z</time></trkpt>
<trkpt lat="52.9939000000" lon="-4.0783380000"><ele>60</ele><time>2016-09-30T13:48:49Z</time></trkpt>
<trkpt lat="52.9938970000" lon="-4.0783440000"><ele>60</ele><time>2016-09-30T13:48:50Z</time></trkpt>
<trkpt lat="52.9938940000" lon="-4.0783500000"><ele>60</ele><time>2016-09-30T13:48:51Z</time></trkpt>
<trkpt lat="52.9938910000" lon="-4.0783580000"><ele>60</ele><time>2016-09-30T13:48:52Z</time></trkpt>
<trkpt lat="52.9938870000" lon="-4.0783660000"><ele>60</ele><time>2016-09-30T13:48:53Z</time></trkpt>
<trkpt lat="52.9938830000" lon="-4.0783740000"><ele>60</ele><time>2016-09-30T13:48:54Z</time></trkpt>
<trkpt lat="52.9938790000" lon="-4.0783830000"><ele>59</ele><time>2016-09-30T13:48:55Z</time></trkpt>
<trkpt lat="52.9938750000" lon="-4.0783930000"><ele>59</ele><time>2016-09-30T13:48:56Z</time></trkpt>
<trkpt lat="52.9938700000" lon="-4.0784030000"><ele>59</ele><time>2016-09-30T13:48:57Z</time></trkpt>
<trkpt lat="52.9938660000" lon="-4.0784130000"><ele>59</ele><time>2016-09-30T13:48:58Z</time></trkpt>
<trkpt lat="52.9938510000" lon="-4.0784450000"><ele>59</ele><time>2016-09-30T13:49:01Z</time></trkpt>
<trkpt lat="52.9937300000" lon="-4.0787120000"><ele>59</ele><time>2016-09-30T13:49:03Z</time></trkpt>
<trkpt lat="52.9937170000" lon="-4.0787420000"><ele>58</ele><time>2016-09-30T13:49:05Z</time></trkpt>
<trkpt lat="52.9936890000" lon="-4.0788090000"><ele>58</ele><time>2016-09-30T13:49:09Z</time></trkpt>
<trkpt lat="52.9935510000" lon="-4.0791580000"><ele>53</ele><time>2016-09-30T13:49:30Z</time></trkpt>
<trkpt lat="52.9935210000" lon="-4.0791880000"><ele>52</ele><time>2016-09-30T13:49:32Z</time></trkpt>
<trkpt lat="52.9934880000" lon="-4.0792130000"><ele>51</ele><time>2016-09-30T13:49:35Z</time></trkpt>
<trkpt lat="52.9934540000" lon="-4.0792260000"><ele>50</ele><time>2016-09-30T13:49:36Z</time></trkpt>
<trkpt lat="52.9934250000" lon="-4.0792570000"><ele>49</ele><time>2016-09-30T13:49:38Z</time></trkpt>
<trkpt lat="52.9933970000" lon="-4.0792780000"><ele>48</ele><time>2016-09-30T13:49:40Z</time></trkpt>
<trkpt lat="52.9933310000" lon="-4.0793320000"><ele>47</ele><time>2016-09-30T13:49:45Z</time></trkpt>
<trkpt lat="52.9933080000" lon="-4.0793350000"><ele>46</ele><time>2016-09-30T13:49:47Z</time></trkpt>
<trkpt lat="52.9932070000" lon="-4.0793410000"><ele>46</ele><time>2016-09-30T13:49:54Z</time></trkpt>
<trkpt lat="52.9931760000" lon="-4.0793490000"><ele>45</ele><time>2016-09-30T13:49:56Z</time></trkpt>
<trkpt lat="52.9931590000" lon="-4.0793560000"><ele>45</ele><time>2016-09-30T13:49:57Z</time></trkpt>
<trkpt lat="52.9931440000" lon="-4.0793650000"><ele>45</ele><time>2016-09-30T13:49:58Z</time></trkpt>
<trkpt lat="52.9931290000" lon="-4.0793730000"><ele>46</ele><time>2016-09-30T13:49:59Z</time></trkpt>
<trkpt lat="52.9931140000" lon="-4.0793790000"><ele>46</ele><time>2016-09-30T13:50:00Z</time></trkpt>
<trkpt lat="52.9931000000" lon="-4.0793850000"><ele>46</ele><time>2016-09-30T13:50:01Z</time></trkpt>
<trkpt lat="52.9930870000" lon="-4.0793880000"><ele>46</ele><time>2016-09-30T13:50:02Z</time></trkpt>
<trkpt lat="52.9930720000" lon="-4.0793950000"><ele>46</ele><time>2016-09-30T13:50:03Z</time></trkpt>
<trkpt lat="52.9930600000" lon="-4.0794010000"><ele>46</ele><time>2016-09-30T13:50:04Z</time></trkpt>
<trkpt lat="52.9930560000" lon="-4.0794050000"><ele>46</ele><time>2016-09-30T13:50:05Z</time></trkpt>
<trkpt lat="52.9930560000" lon="-4.0794050000"><ele>46</ele><time>2016-09-30T13:50:07Z</time></trkpt>
<trkpt lat="52.9930360000" lon="-4.0794310000"><ele>46</ele><time>2016-09-30T13:50:08Z</time></trkpt>
<trkpt lat="52.9930200000" lon="-4.0794480000"><ele>46</ele><time>2016-09-30T13:50:09Z</time></trkpt>
<trkpt lat="52.9930080000" lon="-4.0794580000"><ele>46</ele><time>2016-09-30T13:50:10Z</time></trkpt>
<trkpt lat="52.9929970000" lon="-4.0794650000"><ele>46</ele><time>2016-09-30T13:50:11Z</time></trkpt>
<trkpt lat="52.9929870000" lon="-4.0794730000"><ele>46</ele><time>2016-09-30T13:50:12Z</time></trkpt>
<trkpt lat="52.9929870000" lon="-4.0794740000"><ele>46</ele><time>2016-09-30T13:50:13Z</time></trkpt>
<trkpt lat="52.9929870000" lon="-4.0794740000"><ele>46</ele><time>2016-09-30T13:50:14Z</time></trkpt>
<trkpt lat="52.9929870000" lon="-4.0794740000"><ele>46</ele><time>2016-09-30T13:50:15Z</time></trkpt>
<trkpt lat="52.9929380000" lon="-4.0795260000"><ele>46</ele><time>2016-09-30T13:50:16Z</time></trkpt>
<trkpt lat="52.9929280000" lon="-4.0795340000"><ele>46</ele><time>2016-09-30T13:50:17Z</time></trkpt>
<trkpt lat="52.9929190000" lon="-4.0795480000"><ele>47</ele><time>2016-09-30T13:50:18Z</time></trkpt>
<trkpt lat="52.9929100000" lon="-4.0795590000"><ele>47</ele><time>2016-09-30T13:50:19Z</time></trkpt>
<trkpt lat="52.9929000000" lon="-4.0795670000"><ele>47</ele><time>2016-09-30T13:50:20Z</time></trkpt>
<trkpt lat="52.9929000000" lon="-4.0795670000"><ele>47</ele><time>2016-09-30T13:50:21Z</time></trkpt>
<trkpt lat="52.9929000000" lon="-4.0795670000"><ele>47</ele><time>2016-09-30T13:50:22Z</time></trkpt>
<trkpt lat="52.9929000000" lon="-4.0795670000"><ele>47</ele><time>2016-09-30T13:50:23Z</time></trkpt>
<trkpt lat="52.9929000000" lon="-4.0795680000"><ele>47</ele><time>2016-09-30T13:50:24Z</time></trkpt>
<trkpt lat="52.9928990000" lon="-4.0795690000"><ele>47</ele><time>2016-09-30T13:50:25Z</time></trkpt>
<trkpt lat="52.9928980000" lon="-4.0795700000"><ele>47</ele><time>2016-09-30T13:50:26Z</time></trkpt>
<trkpt lat="52.9928970000" lon="-4.0795710000"><ele>47</ele><time>2016-09-30T13:50:27Z</time></trkpt>
<trkpt lat="52.9928970000" lon="-4.0795730000"><ele>47</ele><time>2016-09-30T13:50:28Z</time></trkpt>
<trkpt lat="52.9928960000" lon="-4.0795750000"><ele>47</ele><time>2016-09-30T13:50:29Z</time></trkpt>
<trkpt lat="52.9928950000" lon="-4.0795770000"><ele>47</ele><time>2016-09-30T13:50:30Z</time></trkpt>
<trkpt lat="52.9928930000" lon="-4.0795800000"><ele>47</ele><time>2016-09-30T13:50:31Z</time></trkpt>
<trkpt lat="52.9928910000" lon="-4.0795830000"><ele>47</ele><time>2016-09-30T13:50:32Z</time></trkpt>
<trkpt lat="52.9928870000" lon="-4.0795900000"><ele>48</ele><time>2016-09-30T13:50:34Z</time></trkpt>
<trkpt lat="52.9928850000" lon="-4.0795950000"><ele>48</ele><time>2016-09-30T13:50:35Z</time></trkpt>
<trkpt lat="52.9928820000" lon="-4.0796000000"><ele>48</ele><time>2016-09-30T13:50:36Z</time></trkpt>
<trkpt lat="52.9928800000" lon="-4.0796060000"><ele>47</ele><time>2016-09-30T13:50:37Z</time></trkpt>
<trkpt lat="52.9928780000" lon="-4.0796120000"><ele>47</ele><time>2016-09-30T13:50:38Z</time></trkpt>
<trkpt lat="52.9928760000" lon="-4.0796190000"><ele>47</ele><time>2016-09-30T13:50:39Z</time></trkpt>
<trkpt lat="52.9928740000" lon="-4.0796260000"><ele>47</ele><time>2016-09-30T13:50:40Z</time></trkpt>
<trkpt lat="52.9928720000" lon="-4.0796330000"><ele>47</ele><time>2016-09-30T13:50:41Z</time></trkpt>
<trkpt lat="52.9928700000" lon="-4.0796400000"><ele>47</ele><time>2016-09-30T13:50:42Z</time></trkpt>
<trkpt lat="52.9928680000" lon="-4.0796460000"><ele>47</ele><time>2016-09-30T13:50:43Z</time></trkpt>
<trkpt lat="52.9928660000" lon="-4.0796530000"><ele>47</ele><time>2016-09-30T13:50:44Z</time></trkpt>
<trkpt lat="52.9928640000" lon="-4.0796590000"><ele>47</ele><time>2016-09-30T13:50:45Z</time></trkpt>
<trkpt lat="52.9928620000" lon="-4.0796660000"><ele>47</ele><time>2016-09-30T13:50:46Z</time></trkpt>
<trkpt lat="52.9928600000" lon="-4.0796720000"><ele>48</ele><time>2016-09-30T13:50:47Z</time></trkpt>
<trkpt lat="52.9928580000" lon="-4.0796780000"><ele>48</ele><time>2016-09-30T13:50:48Z</time></trkpt>
<trkpt lat="52.9928560000" lon="-4.0796840000"><ele>48</ele><time>2016-09-30T13:50:49Z</time></trkpt>
<trkpt lat="52.9928550000" lon="-4.0796900000"><ele>48</ele><time>2016-09-30T13:50:50Z</time></trkpt>
<trkpt lat="52.9928500000" lon="-4.0797340000"><ele>47</ele><time>2016-09-30T13:50:56Z</time></trkpt>
<trkpt lat="52.9928110000" lon="-4.0800220000"><ele>47</ele><time>2016-09-30T13:51:00Z</time></trkpt>
<trkpt lat="52.9928000000" lon="-4.0800860000"><ele>49</ele><time>2016-09-30T13:51:10Z</time></trkpt>
<trkpt lat="52.9927720000" lon="-4.0802110000"><ele>49</ele><time>2016-09-30T13:51:11Z</time></trkpt>
<trkpt lat="52.9927640000" lon="-4.0802650000"><ele>49</ele><time>2016-09-30T13:51:14Z</time></trkpt>
<trkpt lat="52.9927500000" lon="-4.0803010000"><ele>48</ele><time>2016-09-30T13:51:25Z</time></trkpt>
<trkpt lat="52.9927020000" lon="-4.0804150000"><ele>47</ele><time>2016-09-30T13:51:27Z</time></trkpt>
<trkpt lat="52.9926800000" lon="-4.0804480000"><ele>47</ele><time>2016-09-30T13:51:29Z</time></trkpt>
<trkpt lat="52.9926580000" lon="-4.0804740000"><ele>47</ele><time>2016-09-30T13:51:40Z</time></trkpt>
<trkpt lat="52.9925630000" lon="-4.0806180000"><ele>47</ele><time>2016-09-30T13:51:42Z</time></trkpt>
<trkpt lat="52.9925450000" lon="-4.0806620000"><ele>47</ele><time>2016-09-30T13:51:44Z</time></trkpt>
<trkpt lat="52.9925270000" lon="-4.0806990000"><ele>47</ele><time>2016-09-30T13:51:46Z</time></trkpt>
<trkpt lat="52.9925130000" lon="-4.0807440000"><ele>47</ele><time>2016-09-30T13:51:48Z</time></trkpt>
<trkpt lat="52.9925050000" lon="-4.0807900000"><ele>47</ele><time>2016-09-30T13:51:50Z</time></trkpt>
<trkpt lat="52.9924990000" lon="-4.0808140000"><ele>47</ele><time>2016-09-30T13:51:56Z</time></trkpt>
<trkpt lat="52.9924800000" lon="-4.0809330000"><ele>47</ele><time>2016-09-30T13:51:57Z</time></trkpt>
<trkpt lat="52.9924720000" lon="-4.0809570000"><ele>47</ele><time>2016-09-30T13:51:58Z</time></trkpt>
<trkpt lat="52.9924680000" lon="-4.0809780000"><ele>47</ele><time>2016-09-30T13:51:59Z</time></trkpt>
<trkpt lat="52.9924700000" lon="-4.0810000000"><ele>47</ele><time>2016-09-30T13:52:00Z</time></trkpt>
<trkpt lat="52.9924670000" lon="-4.0810190000"><ele>47</ele><time>2016-09-30T13:52:01Z</time></trkpt>
<trkpt lat="52.9924630000" lon="-4.0810400000"><ele>47</ele><time>2016-09-30T13:52:02Z</time></trkpt>
<trkpt lat="52.9924560000" lon="-4.0810590000"><ele>47</ele><time>2016-09-30T13:52:03Z</time></trkpt>
<trkpt lat="52.9924510000" lon="-4.0810810000"><ele>47</ele><time>2016-09-30T13:52:04Z</time></trkpt>
<trkpt lat="52.9924480000" lon="-4.0811000000"><ele>47</ele><time>2016-09-30T13:52:05Z</time></trkpt>
<trkpt lat="52.9924430000" lon="-4.0811180000"><ele>47</ele><time>2016-09-30T13:52:06Z</time></trkpt>
<trkpt lat="52.9924380000" lon="-4.0811380000"><ele>47</ele><time>2016-09-30T13:52:07Z</time></trkpt>
<trkpt lat="52.9924360000" lon="-4.0811540000"><ele>47</ele><time>2016-09-30T13:52:08Z</time></trkpt>
<trkpt lat="52.9924360000" lon="-4.0811540000"><ele>47</ele><time>2016-09-30T13:52:09Z</time></trkpt>
<trkpt lat="52.9924320000" lon="-4.0811950000"><ele>47</ele><time>2016-09-30T13:52:10Z</time></trkpt>
<trkpt lat="52.9924290000" lon="-4.0812150000"><ele>47</ele><time>2016-09-30T13:52:11Z</time></trkpt>
<trkpt lat="52.9924260000" lon="-4.0812350000"><ele>47</ele><time>2016-09-30T13:52:12Z</time></trkpt>
<trkpt lat="52.9924210000" lon="-4.0812560000"><ele>47</ele><time>2016-09-30T13:52:13Z</time></trkpt>
<trkpt lat="52.9924190000" lon="-4.0812750000"><ele>47</ele><time>2016-09-30T13:52:14Z</time></trkpt>
<trkpt lat="52.9924180000" lon="-4.0812930000"><ele>47</ele><time>2016-09-30T13:52:15Z</time></trkpt>
<trkpt lat="52.9924180000" lon="-4.0812930000"><ele>48</ele><time>2016-09-30T13:52:16Z</time></trkpt>
<trkpt lat="52.9924170000" lon="-4.0813340000"><ele>48</ele><time>2016-09-30T13:52:17Z</time></trkpt>
<trkpt lat="52.9924120000" lon="-4.0813530000"><ele>48</ele><time>2016-09-30T13:52:18Z</time></trkpt>
<trkpt lat="52.9924070000" lon="-4.0813750000"><ele>48</ele><time>2016-09-30T13:52:19Z</time></trkpt>
<trkpt lat="52.9924030000" lon="-4.0813970000"><ele>48</ele><time>2016-09-30T13:52:20Z</time></trkpt>
<trkpt lat="52.9923970000" lon="-4.0814150000"><ele>48</ele><time>2016-09-30T13:52:21Z</time></trkpt>
<trkpt lat="52.9923920000" lon="-4.0814350000"><ele>48</ele><time>2016-09-30T13:52:22Z</time></trkpt>
<trkpt lat="52.9923870000" lon="-4.0814780000"><ele>49</ele><time>2016-09-30T13:52:25Z</time></trkpt>
<trkpt lat="52.9923870000" lon="-4.0815070000"><ele>49</ele><time>2016-09-30T13:52:32Z</time></trkpt>
<trkpt lat="52.9923720000" lon="-4.0816540000"><ele>49</ele><time>2016-09-30T13:52:33Z</time></trkpt>
<trkpt lat="52.9923730000" lon="-4.0816740000"><ele>49</ele><time>2016-09-30T13:52:35Z</time></trkpt>
<trkpt lat="52.9923670000" lon="-4.0817080000"><ele>49</ele><time>2016-09-30T13:52:45Z</time></trkpt>
<trkpt lat="52.9923330000" lon="-4.0819020000"><ele>49</ele><time>2016-09-30T13:52:47Z</time></trkpt>
<trkpt lat="52.9923290000" lon="-4.0819410000"><ele>49</ele><time>2016-09-30T13:52:49Z</time></trkpt>
<trkpt lat="52.9923290000" lon="-4.0819820000"><ele>49</ele><time>2016-09-30T13:52:51Z</time></trkpt>
<trkpt lat="52.9923280000" lon="-4.0820190000"><ele>49</ele><time>2016-09-30T13:52:53Z</time></trkpt>
<trkpt lat="52.9923260000" lon="-4.0820570000"><ele>49</ele><time>2016-09-30T13:53:04Z</time></trkpt>
<trkpt lat="52.9923180000" lon="-4.0822470000"><ele>48</ele><time>2016-09-30T13:53:05Z</time></trkpt>
<trkpt lat="52.9923240000" lon="-4.0822930000"><ele>48</ele><time>2016-09-30T13:53:07Z</time></trkpt>
<trkpt lat="52.9923180000" lon="-4.0823410000"><ele>48</ele><time>2016-09-30T13:53:09Z</time></trkpt>
<trkpt lat="52.9923130000" lon="-4.0823770000"><ele>47</ele><time>2016-09-30T13:53:11Z</time></trkpt>
<trkpt lat="52.9923150000" lon="-4.0824220000"><ele>47</ele><time>2016-09-30T13:53:13Z</time></trkpt>
<trkpt lat="52.9923160000" lon="-4.0825300000"><ele>46</ele><time>2016-09-30T13:53:18Z</time></trkpt>
<trkpt lat="52.9923140000" lon="-4.0825500000"><ele>46</ele><time>2016-09-30T13:53:19Z</time></trkpt>
<trkpt lat="52.9923150000" lon="-4.0825730000"><ele>46</ele><time>2016-09-30T13:53:20Z</time></trkpt>
<trkpt lat="52.9923200000" lon="-4.0825950000"><ele>46</ele><time>2016-09-30T13:53:21Z</time></trkpt>
<trkpt lat="52.9923240000" lon="-4.0826180000"><ele>46</ele><time>2016-09-30T13:53:22Z</time></trkpt>
<trkpt lat="52.9923220000" lon="-4.0826380000"><ele>46</ele><time>2016-09-30T13:53:23Z</time></trkpt>
<trkpt lat="52.9923190000" lon="-4.0826600000"><ele>45</ele><time>2016-09-30T13:53:24Z</time></trkpt>
<trkpt lat="52.9923170000" lon="-4.0826810000"><ele>45</ele><time>2016-09-30T13:53:25Z</time></trkpt>
<trkpt lat="52.9923170000" lon="-4.0827240000"><ele>45</ele><time>2016-09-30T13:53:27Z</time></trkpt>
<trkpt lat="52.9923060000" lon="-4.0828370000"><ele>44</ele><time>2016-09-30T13:53:32Z</time></trkpt>
<trkpt lat="52.9923050000" lon="-4.0828600000"><ele>44</ele><time>2016-09-30T13:53:33Z</time></trkpt>
<trkpt lat="52.9923080000" lon="-4.0829050000"><ele>43</ele><time>2016-09-30T13:53:35Z</time></trkpt>
<trkpt lat="52.9923040000" lon="-4.0829290000"><ele>43</ele><time>2016-09-30T13:53:36Z</time></trkpt>
<trkpt lat="52.9922990000" lon="-4.0829500000"><ele>43</ele><time>2016-09-30T13:53:37Z</time></trkpt>
<trkpt lat="52.9922980000" lon="-4.0829700000"><ele>43</ele><time>2016-09-30T13:53:38Z</time></trkpt>
<trkpt lat="52.9922970000" lon="-4.0829940000"><ele>43</ele><time>2016-09-30T13:53:39Z</time></trkpt>
<trkpt lat="52.9922960000" lon="-4.0830170000"><ele>43</ele><time>2016-09-30T13:53:40Z</time></trkpt>
<trkpt lat="52.9922990000" lon="-4.0830390000"><ele>43</ele><time>2016-09-30T13:53:41Z</time></trkpt>
<trkpt lat="52.9922950000" lon="-4.0830630000"><ele>42</ele><time>2016-09-30T13:53:42Z</time></trkpt>
<trkpt lat="52.9922910000" lon="-4.0830850000"><ele>42</ele><time>2016-09-30T13:53:43Z</time></trkpt>
<trkpt lat="52.9922900000" lon="-4.0831050000"><ele>42</ele><time>2016-09-30T13:53:44Z</time></trkpt>
<trkpt lat="52.9922890000" lon="-4.0831270000"><ele>42</ele><time>2016-09-30T13:53:45Z</time></trkpt>
<trkpt lat="52.9922850000" lon="-4.0831500000"><ele>42</ele><time>2016-09-30T13:53:46Z</time></trkpt>
<trkpt lat="52.9922830000" lon="-4.0831730000"><ele>41</ele><time>2016-09-30T13:53:47Z</time></trkpt>
<trkpt lat="52.9922810000" lon="-4.0831960000"><ele>41</ele><time>2016-09-30T13:53:48Z</time></trkpt>
<trkpt lat="52.9922760000" lon="-4.0832200000"><ele>41</ele><time>2016-09-30T13:53:49Z</time></trkpt>
<trkpt lat="52.9922710000" lon="-4.0832610000"><ele>41</ele><time>2016-09-30T13:53:51Z</time></trkpt>
<trkpt lat="52.9922690000" lon="-4.0832820000"><ele>41</ele><time>2016-09-30T13:53:52Z</time></trkpt>
<trkpt lat="52.9922680000" lon="-4.0833010000"><ele>40</ele><time>2016-09-30T13:53:53Z</time></trkpt>
<trkpt lat="52.9922700000" lon="-4.0833200000"><ele>40</ele><time>2016-09-30T13:53:54Z</time></trkpt>
<trkpt lat="52.9922690000" lon="-4.0833370000"><ele>40</ele><time>2016-09-30T13:53:55Z</time></trkpt>
<trkpt lat="52.9922690000" lon="-4.0833580000"><ele>40</ele><time>2016-09-30T13:53:56Z</time></trkpt>
<trkpt lat="52.9922690000" lon="-4.0833580000"><ele>40</ele><time>2016-09-30T13:53:57Z</time></trkpt>
<trkpt lat="52.9922690000" lon="-4.0833590000"><ele>39</ele><time>2016-09-30T13:53:58Z</time></trkpt>
<trkpt lat="52.9922690000" lon="-4.0833590000"><ele>39</ele><time>2016-09-30T13:53:59Z</time></trkpt>
<trkpt lat="52.9922700000" lon="-4.0833610000"><ele>39</ele><time>2016-09-30T13:54:00Z</time></trkpt>
<trkpt lat="52.9922800000" lon="-4.0834690000"><ele>39</ele><time>2016-09-30T13:54:01Z</time></trkpt>
<trkpt lat="52.9922810000" lon="-4.0834930000"><ele>39</ele><time>2016-09-30T13:54:02Z</time></trkpt>
<trkpt lat="52.9922810000" lon="-4.0835170000"><ele>38</ele><time>2016-09-30T13:54:03Z</time></trkpt>
<trkpt lat="52.9922810000" lon="-4.0835380000"><ele>38</ele><time>2016-09-30T13:54:04Z</time></trkpt>
<trkpt lat="52.9922820000" lon="-4.0835590000"><ele>38</ele><time>2016-09-30T13:54:05Z</time></trkpt>
<trkpt lat="52.9922860000" lon="-4.0835820000"><ele>38</ele><time>2016-09-30T13:54:06Z</time></trkpt>
<trkpt lat="52.9922890000" lon="-4.0836030000"><ele>38</ele><time>2016-09-30T13:54:07Z</time></trkpt>
<trkpt lat="52.9922910000" lon="-4.0836260000"><ele>37</ele><time>2016-09-30T13:54:08Z</time></trkpt>
<trkpt lat="52.9922940000" lon="-4.0836480000"><ele>37</ele><time>2016-09-30T13:54:09Z</time></trkpt>
<trkpt lat="52.9922980000" lon="-4.0836700000"><ele>37</ele><time>2016-09-30T13:54:10Z</time></trkpt>
<trkpt lat="52.9923000000" lon="-4.0836890000"><ele>37</ele><time>2016-09-30T13:54:11Z</time></trkpt>
<trkpt lat="52.9923010000" lon="-4.0837070000"><ele>37</ele><time>2016-09-30T13:54:12Z</time></trkpt>
<trkpt lat="52.9923040000" lon="-4.0837240000"><ele>37</ele><time>2016-09-30T13:54:13Z</time></trkpt>
<trkpt lat="52.9923060000" lon="-4.0837410000"><ele>36</ele><time>2016-09-30T13:54:14Z</time></trkpt>
<trkpt lat="52.9923100000" lon="-4.0837600000"><ele>36</ele><time>2016-09-30T13:54:15Z</time></trkpt>
<trkpt lat="52.9923100000" lon="-4.0837600000"><ele>36</ele><time>2016-09-30T13:54:16Z</time></trkpt>
<trkpt lat="52.9923100000" lon="-4.0837600000"><ele>36</ele><time>2016-09-30T13:54:17Z</time></trkpt>
<trkpt lat="52.9923100000" lon="-4.0837610000"><ele>36</ele><time>2016-09-30T13:54:18Z</time></trkpt>
<trkpt lat="52.9923100000" lon="-4.0837620000"><ele>36</ele><time>2016-09-30T13:54:19Z</time></trkpt>
<trkpt lat="52.9923110000" lon="-4.0837640000"><ele>36</ele><time>2016-09-30T13:54:20Z</time></trkpt>
<trkpt lat="52.9923320000" lon="-4.0838830000"><ele>36</ele><time>2016-09-30T13:54:21Z</time></trkpt>
<trkpt lat="52.9923350000" lon="-4.0839040000"><ele>36</ele><time>2016-09-30T13:54:22Z</time></trkpt>
<trkpt lat="52.9923380000" lon="-4.0839240000"><ele>36</ele><time>2016-09-30T13:54:23Z</time></trkpt>
<trkpt lat="52.9923410000" lon="-4.0839460000"><ele>35</ele><time>2016-09-30T13:54:24Z</time></trkpt>
<trkpt lat="52.9923440000" lon="-4.0839680000"><ele>35</ele><time>2016-09-30T13:54:25Z</time></trkpt>
<trkpt lat="52.9923460000" lon="-4.0839890000"><ele>35</ele><time>2016-09-30T13:54:26Z</time></trkpt>
<trkpt lat="52.9923490000" lon="-4.0840100000"><ele>35</ele><time>2016-09-30T13:54:27Z</time></trkpt>
<trkpt lat="52.9923510000" lon="-4.0840320000"><ele>35</ele><time>2016-09-30T13:54:28Z</time></trkpt>
<trkpt lat="52.9923540000" lon="-4.0840510000"><ele>35</ele><time>2016-09-30T13:54:29Z</time></trkpt>
<trkpt lat="52.9923550000" lon="-4.0840680000"><ele>35</ele><time>2016-09-30T13:54:30Z</time></trkpt>
<trkpt lat="52.9923590000" lon="-4.0840860000"><ele>35</ele><time>2016-09-30T13:54:31Z</time></trkpt>
<trkpt lat="52.9923620000" lon="-4.0841050000"><ele>35</ele><time>2016-09-30T13:54:32Z</time></trkpt>
<trkpt lat="52.9923680000" lon="-4.0841270000"><ele>35</ele><time>2016-09-30T13:54:33Z</time></trkpt>
<trkpt lat="52.9923780000" lon="-4.0841540000"><ele>35</ele><time>2016-09-30T13:54:35Z</time></trkpt>
<trkpt lat="52.9923780000" lon="-4.0841540000"><ele>35</ele><time>2016-09-30T13:54:36Z</time></trkpt>
<trkpt lat="52.9923780000" lon="-4.0841540000"><ele>35</ele><time>2016-09-30T13:54:37Z</time></trkpt>
<trkpt lat="52.9923780000" lon="-4.0841540000"><ele>35</ele><time>2016-09-30T13:54:38Z</time></trkpt>
<trkpt lat="52.9923790000" lon="-4.0841550000"><ele>35</ele><time>2016-09-30T13:54:39Z</time></trkpt>
<trkpt lat="52.9923790000" lon="-4.0841560000"><ele>35</ele><time>2016-09-30T13:54:40Z</time></trkpt>
<trkpt lat="52.9923800000" lon="-4.0841580000"><ele>35</ele><time>2016-09-30T13:54:41Z</time></trkpt>
<trkpt lat="52.9923810000" lon="-4.0841600000"><ele>35</ele><time>2016-09-30T13:54:42Z</time></trkpt>
<trkpt lat="52.9923820000" lon="-4.0841630000"><ele>35</ele><time>2016-09-30T13:54:43Z</time></trkpt>
<trkpt lat="52.9923830000" lon="-4.0841670000"><ele>35</ele><time>2016-09-30T13:54:44Z</time></trkpt>
<trkpt lat="52.9923860000" lon="-4.0841710000"><ele>35</ele><time>2016-09-30T13:54:45Z</time></trkpt>
<trkpt lat="52.9923880000" lon="-4.0841760000"><ele>35</ele><time>2016-09-30T13:54:46Z</time></trkpt>
<trkpt lat="52.9923920000" lon="-4.0841820000"><ele>35</ele><time>2016-09-30T13:54:47Z</time></trkpt>
<trkpt lat="52.9923960000" lon="-4.0841900000"><ele>35</ele><time>2016-09-30T13:54:48Z</time></trkpt>
<trkpt lat="52.9924000000" lon="-4.0841980000"><ele>34</ele><time>2016-09-30T13:54:49Z</time></trkpt>
<trkpt lat="52.9924050000" lon="-4.0842070000"><ele>34</ele><time>2016-09-30T13:54:50Z</time></trkpt>
<trkpt lat="52.9924100000" lon="-4.0842170000"><ele>34</ele><time>2016-09-30T13:54:51Z</time></trkpt>
<trkpt lat="52.9924280000" lon="-4.0842470000"><ele>34</ele><time>2016-09-30T13:54:54Z</time></trkpt>
<trkpt lat="52.9924340000" lon="-4.0842580000"><ele>34</ele><time>2016-09-30T13:54:55Z</time></trkpt>
<trkpt lat="52.9925750000" lon="-4.0844830000"><ele>34</ele><time>2016-09-30T13:54:56Z</time></trkpt>
<trkpt lat="52.9925830000" lon="-4.0844970000"><ele>34</ele><time>2016-09-30T13:54:57Z</time></trkpt>
<trkpt lat="52.9925910000" lon="-4.0845120000"><ele>34</ele><time>2016-09-30T13:54:58Z</time></trkpt>
<trkpt lat="52.9926010000" lon="-4.0845300000"><ele>34</ele><time>2016-09-30T13:54:59Z</time></trkpt>
<trkpt lat="52.9926080000" lon="-4.0845480000"><ele>33</ele><time>2016-09-30T13:55:00Z</time></trkpt>
<trkpt lat="52.9926160000" lon="-4.0845640000"><ele>33</ele><time>2016-09-30T13:55:01Z</time></trkpt>
<trkpt lat="52.9926240000" lon="-4.0845840000"><ele>33</ele><time>2016-09-30T13:55:02Z</time></trkpt>
<trkpt lat="52.9926330000" lon="-4.0846020000"><ele>33</ele><time>2016-09-30T13:55:03Z</time></trkpt>
<trkpt lat="52.9926400000" lon="-4.0846210000"><ele>33</ele><time>2016-09-30T13:55:04Z</time></trkpt>
<trkpt lat="52.9926470000" lon="-4.0846390000"><ele>32</ele><time>2016-09-30T13:55:05Z</time></trkpt>
<trkpt lat="52.9926520000" lon="-4.0846600000"><ele>32</ele><time>2016-09-30T13:55:06Z</time></trkpt>
<trkpt lat="52.9926600000" lon="-4.0846790000"><ele>32</ele><time>2016-09-30T13:55:07Z</time></trkpt>
<trkpt lat="52.9926680000" lon="-4.0846950000"><ele>32</ele><time>2016-09-30T13:55:08Z</time></trkpt>
<trkpt lat="52.9926820000" lon="-4.0847480000"><ele>31</ele><time>2016-09-30T13:55:11Z</time></trkpt>
<trkpt lat="52.9926940000" lon="-4.0847940000"><ele>31</ele><time>2016-09-30T13:55:14Z</time></trkpt>
<trkpt lat="52.9927040000" lon="-4.0848280000"><ele>30</ele><time>2016-09-30T13:55:18Z</time></trkpt>
<trkpt lat="52.9927190000" lon="-4.0849030000"><ele>30</ele><time>2016-09-30T13:55:21Z</time></trkpt>
<trkpt lat="52.9927340000" lon="-4.0849590000"><ele>30</ele><time>2016-09-30T13:55:23Z</time></trkpt>
<trkpt lat="52.9927640000" lon="-4.0849860000"><ele>29</ele><time>2016-09-30T13:55:25Z</time></trkpt>
<trkpt lat="52.9927840000" lon="-4.0850220000"><ele>29</ele><time>2016-09-30T13:55:27Z</time></trkpt>
<trkpt lat="52.9927980000" lon="-4.0850570000"><ele>29</ele><time>2016-09-30T13:55:29Z</time></trkpt>
<trkpt lat="52.9928130000" lon="-4.0850990000"><ele>30</ele><time>2016-09-30T13:55:31Z</time></trkpt>
<trkpt lat="52.9928300000" lon="-4.0851420000"><ele>30</ele><time>2016-09-30T13:55:33Z</time></trkpt>
<trkpt lat="52.9928530000" lon="-4.0851680000"><ele>30</ele><time>2016-09-30T13:55:35Z</time></trkpt>
<trkpt lat="52.9928710000" lon="-4.0851900000"><ele>30</ele><time>2016-09-30T13:55:45Z</time></trkpt>
<trkpt lat="52.9928880000" lon="-4.0852180000"><ele>30</ele><time>2016-09-30T13:55:50Z</time></trkpt>
<trkpt lat="52.9929050000" lon="-4.0852460000"><ele>30</ele><time>2016-09-30T13:55:53Z</time></trkpt>
<trkpt lat="52.9930560000" lon="-4.0855000000"><ele>30</ele><time>2016-09-30T13:55:55Z</time></trkpt>
<trkpt lat="52.9930660000" lon="-4.0855150000"><ele>30</ele><time>2016-09-30T13:55:56Z</time></trkpt>
<trkpt lat="52.9930760000" lon="-4.0855310000"><ele>30</ele><time>2016-09-30T13:55:57Z</time></trkpt>
<trkpt lat="52.9930840000" lon="-4.0855460000"><ele>30</ele><time>2016-09-30T13:55:58Z</time></trkpt>
<trkpt lat="52.9930940000" lon="-4.0855600000"><ele>30</ele><time>2016-09-30T13:55:59Z</time></trkpt>
<trkpt lat="52.9931030000" lon="-4.0855730000"><ele>30</ele><time>2016-09-30T13:56:00Z</time></trkpt>
<trkpt lat="52.9931120000" lon="-4.0855890000"><ele>30</ele><time>2016-09-30T13:56:01Z</time></trkpt>
<trkpt lat="52.9931210000" lon="-4.0856070000"><ele>31</ele><time>2016-09-30T13:56:02Z</time></trkpt>
<trkpt lat="52.9931310000" lon="-4.0856270000"><ele>31</ele><time>2016-09-30T13:56:03Z</time></trkpt>
<trkpt lat="52.9931400000" lon="-4.0856460000"><ele>31</ele><time>2016-09-30T13:56:04Z</time></trkpt>
<trkpt lat="52.9931490000" lon="-4.0856600000"><ele>31</ele><time>2016-09-30T13:56:05Z</time></trkpt>
<trkpt lat="52.9931610000" lon="-4.0856720000"><ele>31</ele><time>2016-09-30T13:56:06Z</time></trkpt>
<trkpt lat="52.9931720000" lon="-4.0856850000"><ele>31</ele><time>2016-09-30T13:56:07Z</time></trkpt>
<trkpt lat="52.9931830000" lon="-4.0857010000"><ele>32</ele><time>2016-09-30T13:56:08Z</time></trkpt>
<trkpt lat="52.9931940000" lon="-4.0857170000"><ele>32</ele><time>2016-09-30T13:56:09Z</time></trkpt>
<trkpt lat="52.9932050000" lon="-4.0857330000"><ele>32</ele><time>2016-09-30T13:56:10Z</time></trkpt>
<trkpt lat="52.9932150000" lon="-4.0857480000"><ele>32</ele><time>2016-09-30T13:56:11Z</time></trkpt>
<trkpt lat="52.9932260000" lon="-4.0857670000"><ele>32</ele><time>2016-09-30T13:56:12Z</time></trkpt>
<trkpt lat="52.9932370000" lon="-4.0857840000"><ele>33</ele><time>2016-09-30T13:56:13Z</time></trkpt>
<trkpt lat="52.9932480000" lon="-4.0858010000"><ele>33</ele><time>2016-09-30T13:56:14Z</time></trkpt>
<trkpt lat="52.9932600000" lon="-4.0858160000"><ele>33</ele><time>2016-09-30T13:56:15Z</time></trkpt>
<trkpt lat="52.9932710000" lon="-4.0858310000"><ele>33</ele><time>2016-09-30T13:56:16Z</time></trkpt>
<trkpt lat="52.9932810000" lon="-4.0858450000"><ele>34</ele><time>2016-09-30T13:56:17Z</time></trkpt>
<trkpt lat="52.9932920000" lon="-4.0858580000"><ele>34</ele><time>2016-09-30T13:56:18Z</time></trkpt>
<trkpt lat="52.9933020000" lon="-4.0858690000"><ele>34</ele><time>2016-09-30T13:56:19Z</time></trkpt>
<trkpt lat="52.9933120000" lon="-4.0858860000"><ele>34</ele><time>2016-09-30T13:56:20Z</time></trkpt>
<trkpt lat="52.9933230000" lon="-4.0858980000"><ele>34</ele><time>2016-09-30T13:56:21Z</time></trkpt>
<trkpt lat="52.9933340000" lon="-4.0859140000"><ele>35</ele><time>2016-09-30T13:56:22Z</time></trkpt>
<trkpt lat="52.9933420000" lon="-4.0859310000"><ele>35</ele><time>2016-09-30T13:56:23Z</time></trkpt>
<trkpt lat="52.9933500000" lon="-4.0859440000"><ele>35</ele><time>2016-09-30T13:56:24Z</time></trkpt>
<trkpt lat="52.9933570000" lon="-4.0859600000"><ele>35</ele><time>2016-09-30T13:56:25Z</time></trkpt>
<trkpt lat="52.9933660000" lon="-4.0859760000"><ele>35</ele><time>2016-09-30T13:56:26Z</time></trkpt>
<trkpt lat="52.9933730000" lon="-4.0859890000"><ele>35</ele><time>2016-09-30T13:56:27Z</time></trkpt>
<trkpt lat="52.9933820000" lon="-4.0860020000"><ele>35</ele><time>2016-09-30T13:56:28Z</time></trkpt>
<trkpt lat="52.9933920000" lon="-4.0860170000"><ele>35</ele><time>2016-09-30T13:56:29Z</time></trkpt>
<trkpt lat="52.9934000000" lon="-4.0860310000"><ele>35</ele><time>2016-09-30T13:56:30Z</time></trkpt>
<trkpt lat="52.9934080000" lon="-4.0860460000"><ele>35</ele><time>2016-09-30T13:56:31Z</time></trkpt>
<trkpt lat="52.9934150000" lon="-4.0860620000"><ele>35</ele><time>2016-09-30T13:56:32Z</time></trkpt>
<trkpt lat="52.9934220000" lon="-4.0860840000"><ele>35</ele><time>2016-09-30T13:56:33Z</time></trkpt>
<trkpt lat="52.9934260000" lon="-4.0861090000"><ele>35</ele><time>2016-09-30T13:56:34Z</time></trkpt>
<trkpt lat="52.9934310000" lon="-4.0861350000"><ele>35</ele><time>2016-09-30T13:56:35Z</time></trkpt>
<trkpt lat="52.9934370000" lon="-4.0861560000"><ele>36</ele><time>2016-09-30T13:56:39Z</time></trkpt>
<trkpt lat="52.9934720000" lon="-4.0863320000"><ele>35</ele><time>2016-09-30T13:56:45Z</time></trkpt>
<trkpt lat="52.9934810000" lon="-4.0863770000"><ele>35</ele><time>2016-09-30T13:56:47Z</time></trkpt>
<trkpt lat="52.9934930000" lon="-4.0864190000"><ele>35</ele><time>2016-09-30T13:56:50Z</time></trkpt>
<trkpt lat="52.9935000000" lon="-4.0864460000"><ele>35</ele><time>2016-09-30T13:56:55Z</time></trkpt>
<trkpt lat="52.9935000000" lon="-4.0864480000"><ele>35</ele><time>2016-09-30T13:56:56Z</time></trkpt>
<trkpt lat="52.9935000000" lon="-4.0864490000"><ele>34</ele><time>2016-09-30T13:56:57Z</time></trkpt>
<trkpt lat="52.9935330000" lon="-4.0866620000"><ele>34</ele><time>2016-09-30T13:57:00Z</time></trkpt>
<trkpt lat="52.9935370000" lon="-4.0867070000"><ele>32</ele><time>2016-09-30T13:57:09Z</time></trkpt>
<trkpt lat="52.9935820000" lon="-4.0868450000"><ele>32</ele><time>2016-09-30T13:57:10Z</time></trkpt>
<trkpt lat="52.9935910000" lon="-4.0868960000"><ele>32</ele><time>2016-09-30T13:57:13Z</time></trkpt>
<trkpt lat="52.9936160000" lon="-4.0869560000"><ele>32</ele><time>2016-09-30T13:57:16Z</time></trkpt>
<trkpt lat="52.9936280000" lon="-4.0870090000"><ele>32</ele><time>2016-09-30T13:57:18Z</time></trkpt>
<trkpt lat="52.9936420000" lon="-4.0870650000"><ele>32</ele><time>2016-09-30T13:57:20Z</time></trkpt>
<trkpt lat="52.9936620000" lon="-4.0871080000"><ele>32</ele><time>2016-09-30T13:57:22Z</time></trkpt>
<trkpt lat="52.9936770000" lon="-4.0871520000"><ele>32</ele><time>2016-09-30T13:57:24Z</time></trkpt>
<trkpt lat="52.9936900000" lon="-4.0872130000"><ele>32</ele><time>2016-09-30T13:57:27Z</time></trkpt>
<trkpt lat="52.9937110000" lon="-4.0872780000"><ele>32</ele><time>2016-09-30T13:57:30Z</time></trkpt>
<trkpt lat="52.9937300000" lon="-4.0873220000"><ele>32</ele><time>2016-09-30T13:57:32Z</time></trkpt>
<trkpt lat="52.9937600000" lon="-4.0874050000"><ele>32</ele><time>2016-09-30T13:57:36Z</time></trkpt>
<trkpt lat="52.9937710000" lon="-4.0874650000"><ele>32</ele><time>2016-09-30T13:57:39Z</time></trkpt>
<trkpt lat="52.9937860000" lon="-4.0875140000"><ele>32</ele><time>2016-09-30T13:57:44Z</time></trkpt>
<trkpt lat="52.9938020000" lon="-4.0875580000"><ele>32</ele><time>2016-09-30T13:57:45Z</time></trkpt>
<trkpt lat="52.9938180000" lon="-4.0875970000"><ele>32</ele><time>2016-09-30T13:57:47Z</time></trkpt>
<trkpt lat="52.9938320000" lon="-4.0876400000"><ele>31</ele><time>2016-09-30T13:58:01Z</time></trkpt>
<trkpt lat="52.9939120000" lon="-4.0878600000"><ele>31</ele><time>2016-09-30T13:58:03Z</time></trkpt>
<trkpt lat="52.9939300000" lon="-4.0879140000"><ele>30</ele><time>2016-09-30T13:58:06Z</time></trkpt>
<trkpt lat="52.9939450000" lon="-4.0879510000"><ele>30</ele><time>2016-09-30T13:58:08Z</time></trkpt>
<trkpt lat="52.9939550000" lon="-4.0879940000"><ele>28</ele><time>2016-09-30T13:58:16Z</time></trkpt>
<trkpt lat="52.9939900000" lon="-4.0881500000"><ele>27</ele><time>2016-09-30T13:58:18Z</time></trkpt>
<trkpt lat="52.9939990000" lon="-4.0881970000"><ele>27</ele><time>2016-09-30T13:58:20Z</time></trkpt>
<trkpt lat="52.9940030000" lon="-4.0882660000"><ele>27</ele><time>2016-09-30T13:58:23Z</time></trkpt>
<trkpt lat="52.9939910000" lon="-4.0883490000"><ele>25</ele><time>2016-09-30T13:58:41Z</time></trkpt>
<trkpt lat="52.9939330000" lon="-4.0886120000"><ele>25</ele><time>2016-09-30T13:58:42Z</time></trkpt>
<trkpt lat="52.9939210000" lon="-4.0886700000"><ele>25</ele><time>2016-09-30T13:58:45Z</time></trkpt>
<trkpt lat="52.9939130000" lon="-4.0887230000"><ele>25</ele><time>2016-09-30T13:58:47Z</time></trkpt>
<trkpt lat="52.9939020000" lon="-4.0887830000"><ele>25</ele><time>2016-09-30T13:58:51Z</time></trkpt>
<trkpt lat="52.9938820000" lon="-4.0888770000"><ele>25</ele><time>2016-09-30T13:58:53Z</time></trkpt>
<trkpt lat="52.9938710000" lon="-4.0889240000"><ele>25</ele><time>2016-09-30T13:58:55Z</time></trkpt>
<trkpt lat="52.9938580000" lon="-4.0889690000"><ele>25</ele><time>2016-09-30T13:58:57Z</time></trkpt>
<trkpt lat="52.9938220000" lon="-4.0891110000"><ele>24</ele><time>2016-09-30T13:59:04Z</time></trkpt>
<trkpt lat="52.9938140000" lon="-4.0891550000"><ele>24</ele><time>2016-09-30T13:59:06Z</time></trkpt>
<trkpt lat="52.9938080000" lon="-4.0891780000"><ele>24</ele><time>2016-09-30T13:59:09Z</time></trkpt>
<trkpt lat="52.9938080000" lon="-4.0891790000"><ele>23</ele><time>2016-09-30T13:59:10Z</time></trkpt>
<trkpt lat="52.9938070000" lon="-4.0891800000"><ele>23</ele><time>2016-09-30T13:59:11Z</time></trkpt>
<trkpt lat="52.9938070000" lon="-4.0891820000"><ele>23</ele><time>2016-09-30T13:59:12Z</time></trkpt>
<trkpt lat="52.9938060000" lon="-4.0891840000"><ele>23</ele><time>2016-09-30T13:59:13Z</time></trkpt>
<trkpt lat="52.9938060000" lon="-4.0891860000"><ele>23</ele><time>2016-09-30T13:59:14Z</time></trkpt>
<trkpt lat="52.9938050000" lon="-4.0891890000"><ele>22</ele><time>2016-09-30T13:59:15Z</time></trkpt>
<trkpt lat="52.9938040000" lon="-4.0891910000"><ele>22</ele><time>2016-09-30T13:59:16Z</time></trkpt>
<trkpt lat="52.9938020000" lon="-4.0891940000"><ele>22</ele><time>2016-09-30T13:59:17Z</time></trkpt>
<trkpt lat="52.9938010000" lon="-4.0891970000"><ele>22</ele><time>2016-09-30T13:59:18Z</time></trkpt>
<trkpt lat="52.9938000000" lon="-4.0892000000"><ele>22</ele><time>2016-09-30T13:59:19Z</time></trkpt>
<trkpt lat="52.9937980000" lon="-4.0892030000"><ele>22</ele><time>2016-09-30T13:59:20Z</time></trkpt>
<trkpt lat="52.9937970000" lon="-4.0892060000"><ele>22</ele><time>2016-09-30T13:59:21Z</time></trkpt>
<trkpt lat="52.9937950000" lon="-4.0892100000"><ele>22</ele><time>2016-09-30T13:59:22Z</time></trkpt>
<trkpt lat="52.9937940000" lon="-4.0892130000"><ele>22</ele><time>2016-09-30T13:59:23Z</time></trkpt>
<trkpt lat="52.9937920000" lon="-4.0892170000"><ele>22</ele><time>2016-09-30T13:59:24Z</time></trkpt>
<trkpt lat="52.9937910000" lon="-4.0892220000"><ele>22</ele><time>2016-09-30T13:59:25Z</time></trkpt>
<trkpt lat="52.9937900000" lon="-4.0892270000"><ele>22</ele><time>2016-09-30T13:59:26Z</time></trkpt>
<trkpt lat="52.9937890000" lon="-4.0892340000"><ele>22</ele><time>2016-09-30T13:59:27Z</time></trkpt>
<trkpt lat="52.9937880000" lon="-4.0892410000"><ele>22</ele><time>2016-09-30T13:59:28Z</time></trkpt>
<trkpt lat="52.9937870000" lon="-4.0892490000"><ele>23</ele><time>2016-09-30T13:59:29Z</time></trkpt>
<trkpt lat="52.9937860000" lon="-4.0892570000"><ele>23</ele><time>2016-09-30T13:59:30Z</time></trkpt>
<trkpt lat="52.9937850000" lon="-4.0892660000"><ele>23</ele><time>2016-09-30T13:59:31Z</time></trkpt>
<trkpt lat="52.9937850000" lon="-4.0892750000"><ele>23</ele><time>2016-09-30T13:59:32Z</time></trkpt>
<trkpt lat="52.9937840000" lon="-4.0892850000"><ele>23</ele><time>2016-09-30T13:59:33Z</time></trkpt>
<trkpt lat="52.9937840000" lon="-4.0892950000"><ele>23</ele><time>2016-09-30T13:59:34Z</time></trkpt>
<trkpt lat="52.9937850000" lon="-4.0893060000"><ele>23</ele><time>2016-09-30T13:59:35Z</time></trkpt>
<trkpt lat="52.9937850000" lon="-4.0893170000"><ele>22</ele><time>2016-09-30T13:59:36Z</time></trkpt>
<trkpt lat="52.9937860000" lon="-4.0893280000"><ele>22</ele><time>2016-09-30T13:59:37Z</time></trkpt>
<trkpt lat="52.9937870000" lon="-4.0893400000"><ele>22</ele><time>2016-09-30T13:59:38Z</time></trkpt>
<trkpt lat="52.9937890000" lon="-4.0893520000"><ele>22</ele><time>2016-09-30T13:59:39Z</time></trkpt>
<trkpt lat="52.9937910000" lon="-4.0893650000"><ele>22</ele><time>2016-09-30T13:59:40Z</time></trkpt>
<trkpt lat="52.9937940000" lon="-4.0893770000"><ele>22</ele><time>2016-09-30T13:59:41Z</time></trkpt>
<trkpt lat="52.9937970000" lon="-4.0893900000"><ele>21</ele><time>2016-09-30T13:59:42Z</time></trkpt>
<trkpt lat="52.9938000000" lon="-4.0894020000"><ele>21</ele><time>2016-09-30T13:59:43Z</time></trkpt>
<trkpt lat="52.9938030000" lon="-4.0894120000"><ele>21</ele><time>2016-09-30T13:59:44Z</time></trkpt>
<trkpt lat="52.9938080000" lon="-4.0894250000"><ele>21</ele><time>2016-09-30T13:59:45Z</time></trkpt>
<trkpt lat="52.9938130000" lon="-4.0894360000"><ele>20</ele><time>2016-09-30T13:59:46Z</time></trkpt>
<trkpt lat="52.9938180000" lon="-4.0894480000"><ele>20</ele><time>2016-09-30T13:59:47Z</time></trkpt>
<trkpt lat="52.9938240000" lon="-4.0894590000"><ele>20</ele><time>2016-09-30T13:59:48Z</time></trkpt>
<trkpt lat="52.9938300000" lon="-4.0894710000"><ele>19</ele><time>2016-09-30T13:59:49Z</time></trkpt>
<trkpt lat="52.9938360000" lon="-4.0894830000"><ele>19</ele><time>2016-09-30T13:59:50Z</time></trkpt>
<trkpt lat="52.9939530000" lon="-4.0896800000"><ele>19</ele><time>2016-09-30T13:59:51Z</time></trkpt>
<trkpt lat="52.9939660000" lon="-4.0896900000"><ele>18</ele><time>2016-09-30T13:59:52Z</time></trkpt>
<trkpt lat="52.9939770000" lon="-4.0897070000"><ele>18</ele><time>2016-09-30T13:59:53Z</time></trkpt>
<trkpt lat="52.9939870000" lon="-4.0897260000"><ele>18</ele><time>2016-09-30T13:59:54Z</time></trkpt>
<trkpt lat="52.9939960000" lon="-4.0897380000"><ele>17</ele><time>2016-09-30T13:59:55Z</time></trkpt>
<trkpt lat="52.9940050000" lon="-4.0897510000"><ele>17</ele><time>2016-09-30T13:59:56Z</time></trkpt>
<trkpt lat="52.9940140000" lon="-4.0897650000"><ele>17</ele><time>2016-09-30T13:59:57Z</time></trkpt>
<trkpt lat="52.9940210000" lon="-4.0897850000"><ele>17</ele><time>2016-09-30T13:59:58Z</time></trkpt>
<trkpt lat="52.9940300000" lon="-4.0898030000"><ele>16</ele><time>2016-09-30T13:59:59Z</time></trkpt>
<trkpt lat="52.9940500000" lon="-4.0898380000"><ele>16</ele><time>2016-09-30T14:00:01Z</time></trkpt>
<trkpt lat="52.9940600000" lon="-4.0898530000"><ele>16</ele><time>2016-09-30T14:00:02Z</time></trkpt>
<trkpt lat="52.9940700000" lon="-4.0898670000"><ele>16</ele><time>2016-09-30T14:00:03Z</time></trkpt>
<trkpt lat="52.9940780000" lon="-4.0898850000"><ele>15</ele><time>2016-09-30T14:00:04Z</time></trkpt>
<trkpt lat="52.9940860000" lon="-4.0899010000"><ele>15</ele><time>2016-09-30T14:00:05Z</time></trkpt>
<trkpt lat="52.9940930000" lon="-4.0899240000"><ele>15</ele><time>2016-09-30T14:00:06Z</time></trkpt>
<trkpt lat="52.9941000000" lon="-4.0899460000"><ele>15</ele><time>2016-09-30T14:00:07Z</time></trkpt>
<trkpt lat="52.9941090000" lon="-4.0899600000"><ele>15</ele><time>2016-09-30T14:00:08Z</time></trkpt>
<trkpt lat="52.9941180000" lon="-4.0899760000"><ele>14</ele><time>2016-09-30T14:00:09Z</time></trkpt>
<trkpt lat="52.9941250000" lon="-4.0899930000"><ele>14</ele><time>2016-09-30T14:00:10Z</time></trkpt>
<trkpt lat="52.9941320000" lon="-4.0900120000"><ele>14</ele><time>2016-09-30T14:00:11Z</time></trkpt>
<trkpt lat="52.9941370000" lon="-4.0900280000"><ele>14</ele><time>2016-09-30T14:00:12Z</time></trkpt>
<trkpt lat="52.9941450000" lon="-4.0900420000"><ele>14</ele><time>2016-09-30T14:00:13Z</time></trkpt>
<trkpt lat="52.9941450000" lon="-4.0900420000"><ele>13</ele><time>2016-09-30T14:00:14Z</time></trkpt>
<trkpt lat="52.9941450000" lon="-4.0900430000"><ele>13</ele><time>2016-09-30T14:00:15Z</time></trkpt>
<trkpt lat="52.9941450000" lon="-4.0900440000"><ele>13</ele><time>2016-09-30T14:00:16Z</time></trkpt>
<trkpt lat="52.9941450000" lon="-4.0900450000"><ele>13</ele><time>2016-09-30T14:00:17Z</time></trkpt>
<trkpt lat="52.9941450000" lon="-4.0900470000"><ele>12</ele><time>2016-09-30T14:00:18Z</time></trkpt>
<trkpt lat="52.9941460000" lon="-4.0900500000"><ele>12</ele><time>2016-09-30T14:00:19Z</time></trkpt>
<trkpt lat="52.9941460000" lon="-4.0900540000"><ele>12</ele><time>2016-09-30T14:00:20Z</time></trkpt>
<trkpt lat="52.9941470000" lon="-4.0902180000"><ele>12</ele><time>2016-09-30T14:00:21Z</time></trkpt>
<trkpt lat="52.9941470000" lon="-4.0902400000"><ele>12</ele><time>2016-09-30T14:00:22Z</time></trkpt>
<trkpt lat="52.9941500000" lon="-4.0902590000"><ele>12</ele><time>2016-09-30T14:00:23Z</time></trkpt>
<trkpt lat="52.9941560000" lon="-4.0902710000"><ele>11</ele><time>2016-09-30T14:00:24Z</time></trkpt>
<trkpt lat="52.9941560000" lon="-4.0902710000"><ele>11</ele><time>2016-09-30T14:00:25Z</time></trkpt>
<trkpt lat="52.9941560000" lon="-4.0902710000"><ele>11</ele><time>2016-09-30T14:00:26Z</time></trkpt>
<trkpt lat="52.9941560000" lon="-4.0902720000"><ele>11</ele><time>2016-09-30T14:00:27Z</time></trkpt>
<trkpt lat="52.9941560000" lon="-4.0902730000"><ele>11</ele><time>2016-09-30T14:00:28Z</time></trkpt>
<trkpt lat="52.9941570000" lon="-4.0902750000"><ele>11</ele><time>2016-09-30T14:00:29Z</time></trkpt>
<trkpt lat="52.9941630000" lon="-4.0903960000"><ele>10</ele><time>2016-09-30T14:00:30Z</time></trkpt>
<trkpt lat="52.9941620000" lon="-4.0904180000"><ele>10</ele><time>2016-09-30T14:00:31Z</time></trkpt>
<trkpt lat="52.9941620000" lon="-4.0904400000"><ele>10</ele><time>2016-09-30T14:00:32Z</time></trkpt>
<trkpt lat="52.9941610000" lon="-4.0904630000"><ele>10</ele><time>2016-09-30T14:00:33Z</time></trkpt>
<trkpt lat="52.9941590000" lon="-4.0904880000"><ele>10</ele><time>2016-09-30T14:00:34Z</time></trkpt>
<trkpt lat="52.9941560000" lon="-4.0905130000"><ele>10</ele><time>2016-09-30T14:00:35Z</time></trkpt>
<trkpt lat="52.9941520000" lon="-4.0905350000"><ele>9</ele><time>2016-09-30T14:00:36Z</time></trkpt>
<trkpt lat="52.9941450000" lon="-4.0905580000"><ele>9</ele><time>2016-09-30T14:00:37Z</time></trkpt>
<trkpt lat="52.9941400000" lon="-4.0905830000"><ele>9</ele><time>2016-09-30T14:00:38Z</time></trkpt>
<trkpt lat="52.9941350000" lon="-4.0906060000"><ele>9</ele><time>2016-09-30T14:00:39Z</time></trkpt>
<trkpt lat="52.9941230000" lon="-4.0906610000"><ele>9</ele><time>2016-09-30T14:00:42Z</time></trkpt>
<trkpt lat="52.9941230000" lon="-4.0906790000"><ele>9</ele><time>2016-09-30T14:00:43Z</time></trkpt>
<trkpt lat="52.9940970000" lon="-4.0907760000"><ele>8</ele><time>2016-09-30T14:00:48Z</time></trkpt>
<trkpt lat="52.9940910000" lon="-4.0908160000"><ele>8</ele><time>2016-09-30T14:00:50Z</time></trkpt>
<trkpt lat="52.9940900000" lon="-4.0908340000"><ele>8</ele><time>2016-09-30T14:00:51Z</time></trkpt>
<trkpt lat="52.9940900000" lon="-4.0908500000"><ele>8</ele><time>2016-09-30T14:00:52Z</time></trkpt>
<trkpt lat="52.9940890000" lon="-4.0908700000"><ele>8</ele><time>2016-09-30T14:00:53Z</time></trkpt>
<trkpt lat="52.9940880000" lon="-4.0908900000"><ele>8</ele><time>2016-09-30T14:00:54Z</time></trkpt>
<trkpt lat="52.9940820000" lon="-4.0909110000"><ele>8</ele><time>2016-09-30T14:00:55Z</time></trkpt>
<trkpt lat="52.9940790000" lon="-4.0909380000"><ele>8</ele><time>2016-09-30T14:00:56Z</time></trkpt>
<trkpt lat="52.9940800000" lon="-4.0909620000"><ele>8</ele><time>2016-09-30T14:00:57Z</time></trkpt>
<trkpt lat="52.9940800000" lon="-4.0909880000"><ele>8</ele><time>2016-09-30T14:00:58Z</time></trkpt>
<trkpt lat="52.9940800000" lon="-4.0910080000"><ele>8</ele><time>2016-09-30T14:00:59Z</time></trkpt>
<trkpt lat="52.9940830000" lon="-4.0910520000"><ele>8</ele><time>2016-09-30T14:01:01Z</time></trkpt>
<trkpt lat="52.9940910000" lon="-4.0910760000"><ele>8</ele><time>2016-09-30T14:01:02Z</time></trkpt>
<trkpt lat="52.9940990000" lon="-4.0911020000"><ele>8</ele><time>2016-09-30T14:01:03Z</time></trkpt>
<trkpt lat="52.9941030000" lon="-4.0911250000"><ele>8</ele><time>2016-09-30T14:01:04Z</time></trkpt>
<trkpt lat="52.9941050000" lon="-4.0911450000"><ele>8</ele><time>2016-09-30T14:01:05Z</time></trkpt>
<trkpt lat="52.9941100000" lon="-4.0911660000"><ele>8</ele><time>2016-09-30T14:01:06Z</time></trkpt>
<trkpt lat="52.9941140000" lon="-4.0911880000"><ele>8</ele><time>2016-09-30T14:01:07Z</time></trkpt>
<trkpt lat="52.9941190000" lon="-4.0912090000"><ele>8</ele><time>2016-09-30T14:01:08Z</time></trkpt>
<trkpt lat="52.9941250000" lon="-4.0912280000"><ele>8</ele><time>2016-09-30T14:01:09Z</time></trkpt>
<trkpt lat="52.9941350000" lon="-4.0912450000"><ele>8</ele><time>2016-09-30T14:01:10Z</time></trkpt>
<trkpt lat="52.9941410000" lon="-4.0912640000"><ele>8</ele><time>2016-09-30T14:01:11Z</time></trkpt>
<trkpt lat="52.9941480000" lon="-4.0912840000"><ele>8</ele><time>2016-09-30T14:01:12Z</time></trkpt>
<trkpt lat="52.9941540000" lon="-4.0913030000"><ele>8</ele><time>2016-09-30T14:01:13Z</time></trkpt>
<trkpt lat="52.9941610000" lon="-4.0913240000"><ele>8</ele><time>2016-09-30T14:01:14Z</time></trkpt>
<trkpt lat="52.9941660000" lon="-4.0913520000"><ele>8</ele><time>2016-09-30T14:01:15Z</time></trkpt>
<trkpt lat="52.9941720000" lon="-4.0913710000"><ele>9</ele><time>2016-09-30T14:01:16Z</time></trkpt>
<trkpt lat="52.9941810000" lon="-4.0913840000"><ele>9</ele><time>2016-09-30T14:01:17Z</time></trkpt>
<trkpt lat="52.9941880000" lon="-4.0913950000"><ele>9</ele><time>2016-09-30T14:01:18Z</time></trkpt>
<trkpt lat="52.9942080000" lon="-4.0914330000"><ele>8</ele><time>2016-09-30T14:01:32Z</time></trkpt>
<trkpt lat="52.9942910000" lon="-4.0916350000"><ele>8</ele><time>2016-09-30T14:01:36Z</time></trkpt>
<trkpt lat="52.9943050000" lon="-4.0917010000"><ele>8</ele><time>2016-09-30T14:01:38Z</time></trkpt>
<trkpt lat="52.9943230000" lon="-4.0917390000"><ele>8</ele><time>2016-09-30T14:01:40Z</time></trkpt>
<trkpt lat="52.9943410000" lon="-4.0917830000"><ele>8</ele><time>2016-09-30T14:01:42Z</time></trkpt>
<trkpt lat="52.9943590000" lon="-4.0918280000"><ele>9</ele><time>2016-09-30T14:01:44Z</time></trkpt>
<trkpt lat="52.9944330000" lon="-4.0918910000"><ele>14</ele><time>2016-09-30T14:02:39Z</time></trkpt>
<trkpt lat="52.9944650000" lon="-4.0918910000"><ele>14</ele><time>2016-09-30T14:02:46Z</time></trkpt>
<trkpt lat="52.9944970000" lon="-4.0918370000"><ele>13</ele><time>2016-09-30T14:02:47Z</time></trkpt>
<trkpt lat="52.9945180000" lon="-4.0918190000"><ele>12</ele><time>2016-09-30T14:02:53Z</time></trkpt>
<trkpt lat="52.9945810000" lon="-4.0917600000"><ele>12</ele><time>2016-09-30T14:02:55Z</time></trkpt>
<trkpt lat="52.9946110000" lon="-4.0917380000"><ele>15</ele><time>2016-09-30T14:03:12Z</time></trkpt>
<trkpt lat="52.9946960000" lon="-4.0916300000"><ele>15</ele><time>2016-09-30T14:03:13Z</time></trkpt>
<trkpt lat="52.9947150000" lon="-4.0915650000"><ele>18</ele><time>2016-09-30T14:03:35Z</time></trkpt>
<trkpt lat="52.9948070000" lon="-4.0913870000"><ele>18</ele><time>2016-09-30T14:03:38Z</time></trkpt>
<trkpt lat="52.9948470000" lon="-4.0913670000"><ele>18</ele><time>2016-09-30T14:03:45Z</time></trkpt>
<trkpt lat="52.9948770000" lon="-4.0913840000"><ele>18</ele><time>2016-09-30T14:03:47Z</time></trkpt>
<trkpt lat="52.9948840000" lon="-4.0915200000"><ele>20</ele><time>2016-09-30T14:04:23Z</time></trkpt>
<trkpt lat="52.9949190000" lon="-4.0916860000"><ele>20</ele><time>2016-09-30T14:04:26Z</time></trkpt>
<trkpt lat="52.9949370000" lon="-4.0916630000"><ele>19</ele><time>2016-09-30T14:04:34Z</time></trkpt>
<trkpt lat="52.9949660000" lon="-4.0916200000"><ele>18</ele><time>2016-09-30T14:04:36Z</time></trkpt>
<trkpt lat="52.9949890000" lon="-4.0916160000"><ele>17</ele><time>2016-09-30T14:04:45Z</time></trkpt>
<trkpt lat="52.9950390000" lon="-4.0916200000"><ele>17</ele><time>2016-09-30T14:04:48Z</time></trkpt>
<trkpt lat="52.9950640000" lon="-4.0916400000"><ele>17</ele><time>2016-09-30T14:04:52Z</time></trkpt>
<trkpt lat="52.9950780000" lon="-4.0917160000"><ele>23</ele><time>2016-09-30T14:05:10Z</time></trkpt>
<trkpt lat="52.9951100000" lon="-4.0919750000"><ele>24</ele><time>2016-09-30T14:05:13Z</time></trkpt>
<trkpt lat="52.9950820000" lon="-4.0921360000"><ele>28</ele><time>2016-09-30T14:05:24Z</time></trkpt>
<trkpt lat="52.9950860000" lon="-4.0921890000"><ele>31</ele><time>2016-09-30T14:05:33Z</time></trkpt>
<trkpt lat="52.9950450000" lon="-4.0923170000"><ele>32</ele><time>2016-09-30T14:05:36Z</time></trkpt>
<trkpt lat="52.9950310000" lon="-4.0923660000"><ele>32</ele><time>2016-09-30T14:05:38Z</time></trkpt>
<trkpt lat="52.9950260000" lon="-4.0924130000"><ele>35</ele><time>2016-09-30T14:05:49Z</time></trkpt>
<trkpt lat="52.9950230000" lon="-4.0924680000"><ele>35</ele><time>2016-09-30T14:05:58Z</time></trkpt>
<trkpt lat="52.9950260000" lon="-4.0927360000"><ele>35</ele><time>2016-09-30T14:06:01Z</time></trkpt>
<trkpt lat="52.9950190000" lon="-4.0927840000"><ele>35</ele><time>2016-09-30T14:06:03Z</time></trkpt>
<trkpt lat="52.9950070000" lon="-4.0928280000"><ele>35</ele><time>2016-09-30T14:06:14Z</time></trkpt>
<trkpt lat="52.9949620000" lon="-4.0930090000"><ele>34</ele><time>2016-09-30T14:06:15Z</time></trkpt>
<trkpt lat="52.9949470000" lon="-4.0930420000"><ele>34</ele><time>2016-09-30T14:06:19Z</time></trkpt>
<trkpt lat="52.9949330000" lon="-4.0931460000"><ele>33</ele><time>2016-09-30T14:06:39Z</time></trkpt>
<trkpt lat="52.9949070000" lon="-4.0933800000"><ele>33</ele><time>2016-09-30T14:06:40Z</time></trkpt>
<trkpt lat="52.9948890000" lon="-4.0934210000"><ele>32</ele><time>2016-09-30T14:06:42Z</time></trkpt>
<trkpt lat="52.9948800000" lon="-4.0934580000"><ele>32</ele><time>2016-09-30T14:06:47Z</time></trkpt>
<trkpt lat="52.9948490000" lon="-4.0935260000"><ele>32</ele><time>2016-09-30T14:06:51Z</time></trkpt>
<trkpt lat="52.9948410000" lon="-4.0935890000"><ele>32</ele><time>2016-09-30T14:06:52Z</time></trkpt>
<trkpt lat="52.9948350000" lon="-4.0936370000"><ele>31</ele><time>2016-09-30T14:06:54Z</time></trkpt>
<trkpt lat="52.9948300000" lon="-4.0936810000"><ele>31</ele><time>2016-09-30T14:06:56Z</time></trkpt>
<trkpt lat="52.9948290000" lon="-4.0937270000"><ele>30</ele><time>2016-09-30T14:07:10Z</time></trkpt>
<trkpt lat="52.9948000000" lon="-4.0938950000"><ele>30</ele><time>2016-09-30T14:07:12Z</time></trkpt>
<trkpt lat="52.9947970000" lon="-4.0939350000"><ele>30</ele><time>2016-09-30T14:07:15Z</time></trkpt>
<trkpt lat="52.9947970000" lon="-4.0939820000"><ele>30</ele><time>2016-09-30T14:07:28Z</time></trkpt>
<trkpt lat="52.9948000000" lon="-4.0942340000"><ele>29</ele><time>2016-09-30T14:07:31Z</time></trkpt>
<trkpt lat="52.9948000000" lon="-4.0942790000"><ele>29</ele><time>2016-09-30T14:07:43Z</time></trkpt>
<trkpt lat="52.9947970000" lon="-4.0944880000"><ele>29</ele><time>2016-09-30T14:07:45Z</time></trkpt>
<trkpt lat="52.9948110000" lon="-4.0945250000"><ele>28</ele><time>2016-09-30T14:07:47Z</time></trkpt>
<trkpt lat="52.9948180000" lon="-4.0945690000"><ele>27</ele><time>2016-09-30T14:07:59Z</time></trkpt>
<trkpt lat="52.9948350000" lon="-4.0946290000"><ele>26</ele><time>2016-09-30T14:08:07Z</time></trkpt>
<trkpt lat="52.9948940000" lon="-4.0948830000"><ele>26</ele><time>2016-09-30T14:08:08Z</time></trkpt>
<trkpt lat="52.9948950000" lon="-4.0949330000"><ele>23</ele><time>2016-09-30T14:08:19Z</time></trkpt>
<trkpt lat="52.9949760000" lon="-4.0952170000"><ele>27</ele><time>2016-09-30T14:08:52Z</time></trkpt>
<trkpt lat="52.9950530000" lon="-4.0953680000"><ele>27</ele><time>2016-09-30T14:08:53Z</time></trkpt>
<trkpt lat="52.9950890000" lon="-4.0953510000"><ele>33</ele><time>2016-09-30T14:09:14Z</time></trkpt>
<trkpt lat="52.9952300000" lon="-4.0953880000"><ele>35</ele><time>2016-09-30T14:09:25Z</time></trkpt>
<trkpt lat="52.9952840000" lon="-4.0954370000"><ele>35</ele><time>2016-09-30T14:09:27Z</time></trkpt>
<trkpt lat="52.9953070000" lon="-4.0954090000"><ele>35</ele><time>2016-09-30T14:09:29Z</time></trkpt>
<trkpt lat="52.9953430000" lon="-4.0953760000"><ele>31</ele><time>2016-09-30T14:09:47Z</time></trkpt>
<trkpt lat="52.9954820000" lon="-4.0952550000"><ele>30</ele><time>2016-09-30T14:09:52Z</time></trkpt>
<trkpt lat="52.9955140000" lon="-4.0952100000"><ele>31</ele><time>2016-09-30T14:09:58Z</time></trkpt>
<trkpt lat="52.9955480000" lon="-4.0951870000"><ele>36</ele><time>2016-09-30T14:10:11Z</time></trkpt>
<trkpt lat="52.9956070000" lon="-4.0952120000"><ele>47</ele><time>2016-09-30T14:10:24Z</time></trkpt>
<trkpt lat="52.9957070000" lon="-4.0952290000"><ele>58</ele><time>2016-09-30T14:10:46Z</time></trkpt>
<trkpt lat="52.9957540000" lon="-4.0950930000"><ele>58</ele><time>2016-09-30T14:10:47Z</time></trkpt>
<trkpt lat="52.9958330000" lon="-4.0949950000"><ele>51</ele><time>2016-09-30T14:11:22Z</time></trkpt>
<trkpt lat="52.9960240000" lon="-4.0948360000"><ele>51</ele><time>2016-09-30T14:11:24Z</time></trkpt>
<trkpt lat="52.9961000000" lon="-4.0948110000"><ele>59</ele><time>2016-09-30T14:11:56Z</time></trkpt>
<trkpt lat="52.9963560000" lon="-4.0946820000"><ele>59</ele><time>2016-09-30T14:11:57Z</time></trkpt>
<trkpt lat="52.9965690000" lon="-4.0946050000"><ele>53</ele><time>2016-09-30T14:12:27Z</time></trkpt>
<trkpt lat="52.9966510000" lon="-4.0945230000"><ele>46</ele><time>2016-09-30T14:13:05Z</time></trkpt>
<trkpt lat="52.9969360000" lon="-4.0943310000"><ele>48</ele><time>2016-09-30T14:13:18Z</time></trkpt>
<trkpt lat="52.9969840000" lon="-4.0945080000"><ele>48</ele><time>2016-09-30T14:13:19Z</time></trkpt>
<trkpt lat="52.9971600000" lon="-4.0946360000"><ele>56</ele><time>2016-09-30T14:13:31Z</time></trkpt>
<trkpt lat="52.9972830000" lon="-4.0947280000"><ele>64</ele><time>2016-09-30T14:13:38Z</time></trkpt>
<trkpt lat="52.9973900000" lon="-4.0946530000"><ele>84</ele><time>2016-09-30T14:14:24Z</time></trkpt>
<trkpt lat="52.9975510000" lon="-4.0944740000"><ele>84</ele><time>2016-09-30T14:14:25Z</time></trkpt>
<trkpt lat="52.9976430000" lon="-4.0943350000"><ele>40</ele><time>2016-09-30T14:15:34Z</time></trkpt>
<trkpt lat="52.9978470000" lon="-4.0943080000"><ele>39</ele><time>2016-09-30T14:15:35Z</time></trkpt>
<trkpt lat="52.9979860000" lon="-4.0943480000"><ele>32</ele><time>2016-09-30T14:15:46Z</time></trkpt>
<trkpt lat="52.9980660000" lon="-4.0944040000"><ele>23</ele><time>2016-09-30T14:16:30Z</time></trkpt>
<trkpt lat="52.9982440000" lon="-4.0945300000"><ele>24</ele><time>2016-09-30T14:16:35Z</time></trkpt>
<trkpt lat="52.9983350000" lon="-4.0945220000"><ele>25</ele><time>2016-09-30T14:17:12Z</time></trkpt>
<trkpt lat="52.9985130000" lon="-4.0946520000"><ele>25</ele><time>2016-09-30T14:17:13Z</time></trkpt>
<trkpt lat="52.9987110000" lon="-4.0949030000"><ele>25</ele><time>2016-09-30T14:17:44Z</time></trkpt>
<trkpt lat="52.9987910000" lon="-4.0949670000"><ele>23</ele><time>2016-09-30T14:17:51Z</time></trkpt>
<trkpt lat="52.9988330000" lon="-4.0950760000"><ele>23</ele><time>2016-09-30T14:18:26Z</time></trkpt>
<trkpt lat="52.9989470000" lon="-4.0954010000"><ele>23</ele><time>2016-09-30T14:18:27Z</time></trkpt>
<trkpt lat="52.9989810000" lon="-4.0955340000"><ele>27</ele><time>2016-09-30T14:19:03Z</time></trkpt>
<trkpt lat="52.9991210000" lon="-4.0957800000"><ele>27</ele><time>2016-09-30T14:19:04Z</time></trkpt>
<trkpt lat="52.9991990000" lon="-4.0958450000"><ele>22</ele><time>2016-09-30T14:19:43Z</time></trkpt>
<trkpt lat="52.9993960000" lon="-4.0961520000"><ele>22</ele><time>2016-09-30T14:19:44Z</time></trkpt>
<trkpt lat="52.9994230000" lon="-4.0962250000"><ele>24</ele><time>2016-09-30T14:20:02Z</time></trkpt>
<trkpt lat="52.9995150000" lon="-4.0964280000"><ele>25</ele><time>2016-09-30T14:20:03Z</time></trkpt>
<trkpt lat="52.9995490000" lon="-4.0964350000"><ele>26</ele><time>2016-09-30T14:20:09Z</time></trkpt>
<trkpt lat="52.9995860000" lon="-4.0964410000"><ele>26</ele><time>2016-09-30T14:20:10Z</time></trkpt>
<trkpt lat="52.9996190000" lon="-4.0964560000"><ele>26</ele><time>2016-09-30T14:20:13Z</time></trkpt>
<trkpt lat="52.9996530000" lon="-4.0964700000"><ele>26</ele><time>2016-09-30T14:20:16Z</time></trkpt>
<trkpt lat="52.9996900000" lon="-4.0964850000"><ele>26</ele><time>2016-09-30T14:20:19Z</time></trkpt>
<trkpt lat="52.9997120000" lon="-4.0965130000"><ele>27</ele><time>2016-09-30T14:20:23Z</time></trkpt>
<trkpt lat="52.9997340000" lon="-4.0965350000"><ele>28</ele><time>2016-09-30T14:20:37Z</time></trkpt>
<trkpt lat="52.9998410000" lon="-4.0966430000"><ele>29</ele><time>2016-09-30T14:20:39Z</time></trkpt>
<trkpt lat="52.9998580000" lon="-4.0966630000"><ele>30</ele><time>2016-09-30T14:20:45Z</time></trkpt>
<trkpt lat="52.9998750000" lon="-4.0966800000"><ele>31</ele><time>2016-09-30T14:20:54Z</time></trkpt>
<trkpt lat="52.9998820000" lon="-4.0966880000"><ele>32</ele><time>2016-09-30T14:20:56Z</time></trkpt>
<trkpt lat="52.9998860000" lon="-4.0966930000"><ele>32</ele><time>2016-09-30T14:20:57Z</time></trkpt>
<trkpt lat="52.9998910000" lon="-4.0966970000"><ele>32</ele><time>2016-09-30T14:20:58Z</time></trkpt>
<trkpt lat="52.9998950000" lon="-4.0967030000"><ele>32</ele><time>2016-09-30T14:20:59Z</time></trkpt>
<trkpt lat="52.9999010000" lon="-4.0967080000"><ele>32</ele><time>2016-09-30T14:21:01Z</time></trkpt>
<trkpt lat="52.9999050000" lon="-4.0967130000"><ele>33</ele></trkpt>
<trkpt lat="52.9999320000" lon="-4.0967460000"><ele>34</ele><time>2016-09-30T14:21:06Z</time></trkpt>
<trkpt lat="53.0000540000" lon="-4.0969040000"><ele>34</ele><time>2016-09-30T14:21:07Z</time></trkpt>
<trkpt lat="53.0000590000" lon="-4.0969170000"><ele>34</ele><time>2016-09-30T14:21:08Z</time></trkpt>
<trkpt lat="53.0000650000" lon="-4.0969220000"><ele>34</ele><time>2016-09-30T14:21:09Z</time></trkpt>
<trkpt lat="53.0000650000" lon="-4.0969220000"><ele>34</ele><time>2016-09-30T14:21:11Z</time></trkpt>
<trkpt lat="53.0000660000" lon="-4.0969220000"><ele>34</ele><time>2016-09-30T14:21:12Z</time></trkpt>
<trkpt lat="53.0000660000" lon="-4.0969230000"><ele>35</ele><time>2016-09-30T14:21:13Z</time></trkpt>
<trkpt lat="53.0000660000" lon="-4.0969240000"><ele>35</ele><time>2016-09-30T14:21:14Z</time></trkpt>
<trkpt lat="53.0000670000" lon="-4.0969240000"><ele>35</ele><time>2016-09-30T14:21:15Z</time></trkpt>
<trkpt lat="53.0000670000" lon="-4.0969250000"><ele>35</ele><time>2016-09-30T14:21:16Z</time></trkpt>
<trkpt lat="53.0000680000" lon="-4.0969270000"><ele>35</ele><time>2016-09-30T14:21:17Z</time></trkpt>
<trkpt lat="53.0000680000" lon="-4.0969280000"><ele>35</ele><time>2016-09-30T14:21:18Z</time></trkpt>
<trkpt lat="53.0000690000" lon="-4.0969290000"><ele>35</ele><time>2016-09-30T14:21:19Z</time></trkpt>
<trkpt lat="53.0000690000" lon="-4.0969310000"><ele>35</ele><time>2016-09-30T14:21:20Z</time></trkpt>
<trkpt lat="53.0000700000" lon="-4.0969330000"><ele>35</ele><time>2016-09-30T14:21:21Z</time></trkpt>
<trkpt lat="53.0000700000" lon="-4.0969350000"><ele>35</ele><time>2016-09-30T14:21:22Z</time></trkpt>
<trkpt lat="53.0000710000" lon="-4.0969370000"><ele>35</ele><time>2016-09-30T14:21:23Z</time></trkpt>
<trkpt lat="53.0000710000" lon="-4.0969380000"><ele>35</ele><time>2016-09-30T14:21:24Z</time></trkpt>
<trkpt lat="53.0000720000" lon="-4.0969400000"><ele>35</ele><time>2016-09-30T14:21:25Z</time></trkpt>
<trkpt lat="53.0000740000" lon="-4.0969500000"><ele>36</ele><time>2016-09-30T14:21:29Z</time></trkpt>
<trkpt lat="53.0000750000" lon="-4.0969530000"><ele>36</ele><time>2016-09-30T14:21:30Z</time></trkpt>
<trkpt lat="53.0000750000" lon="-4.0969560000"><ele>36</ele><time>2016-09-30T14:21:31Z</time></trkpt>
<trkpt lat="53.0000750000" lon="-4.0969590000"><ele>36</ele><time>2016-09-30T14:21:32Z</time></trkpt>
<trkpt lat="53.0000750000" lon="-4.0969630000"><ele>36</ele><time>2016-09-30T14:21:33Z</time></trkpt>
<trkpt lat="53.0000750000" lon="-4.0969660000"><ele>36</ele><time>2016-09-30T14:21:34Z</time></trkpt>
<trkpt lat="53.0000740000" lon="-4.0969690000"><ele>36</ele><time>2016-09-30T14:21:35Z</time></trkpt>
<trkpt lat="53.0000740000" lon="-4.0969720000"><ele>36</ele><time>2016-09-30T14:21:36Z</time></trkpt>
<trkpt lat="53.0000740000" lon="-4.0969740000"><ele>36</ele><time>2016-09-30T14:21:37Z</time></trkpt>
<trkpt lat="53.0000740000" lon="-4.0969770000"><ele>36</ele><time>2016-09-30T14:21:38Z</time></trkpt>
<trkpt lat="53.0000740000" lon="-4.0969790000"><ele>36</ele><time>2016-09-30T14:21:39Z</time></trkpt>
<trkpt lat="53.0000740000" lon="-4.0969810000"><ele>36</ele><time>2016-09-30T14:21:40Z</time></trkpt>
<trkpt lat="53.0000740000" lon="-4.0969820000"><ele>36</ele><time>2016-09-30T14:21:41Z</time></trkpt>
<trkpt lat="53.0000740000" lon="-4.0969840000"><ele>36</ele><time>2016-09-30T14:21:42Z</time></trkpt>
<trkpt lat="53.0000740000" lon="-4.0969860000"><ele>36</ele><time>2016-09-30T14:21:43Z</time></trkpt>
<trkpt lat="53.0000870000" lon="-4.0970150000"><ele>37</ele><time>2016-09-30T14:21:51Z</time></trkpt>
<trkpt lat="53.0001640000" lon="-4.0971380000"><ele>37</ele><time>2016-09-30T14:21:53Z</time></trkpt>
<trkpt lat="53.0001870000" lon="-4.0971640000"><ele>37</ele><time>2016-09-30T14:21:55Z</time></trkpt>
<trkpt lat="53.0002060000" lon="-4.0971950000"><ele>37</ele><time>2016-09-30T14:21:57Z</time></trkpt>
<trkpt lat="53.0002260000" lon="-4.0972300000"><ele>40</ele><time>2016-09-30T14:22:10Z</time></trkpt>
<trkpt lat="53.0002440000" lon="-4.0972570000"><ele>41</ele><time>2016-09-30T14:22:15Z</time></trkpt>
<trkpt lat="53.0003790000" lon="-4.0974770000"><ele>41</ele><time>2016-09-30T14:22:17Z</time></trkpt>
<trkpt lat="53.0003950000" lon="-4.0975110000"><ele>41</ele><time>2016-09-30T14:22:19Z</time></trkpt>
<trkpt lat="53.0004170000" lon="-4.0975520000"><ele>39</ele><time>2016-09-30T14:22:35Z</time></trkpt>
<trkpt lat="53.0005020000" lon="-4.0977320000"><ele>39</ele><time>2016-09-30T14:22:37Z</time></trkpt>
<trkpt lat="53.0005150000" lon="-4.0977860000"><ele>39</ele><time>2016-09-30T14:22:40Z</time></trkpt>
<trkpt lat="53.0005410000" lon="-4.0978200000"><ele>38</ele><time>2016-09-30T14:22:43Z</time></trkpt>
<trkpt lat="53.0005650000" lon="-4.0978620000"><ele>38</ele><time>2016-09-30T14:22:46Z</time></trkpt>
<trkpt lat="53.0005860000" lon="-4.0978960000"><ele>37</ele><time>2016-09-30T14:22:49Z</time></trkpt>
<trkpt lat="53.0006070000" lon="-4.0979160000"><ele>37</ele><time>2016-09-30T14:22:51Z</time></trkpt>
<trkpt lat="53.0006290000" lon="-4.0979360000"><ele>36</ele><time>2016-09-30T14:23:04Z</time></trkpt>
<trkpt lat="53.0007240000" lon="-4.0980490000"><ele>36</ele><time>2016-09-30T14:23:07Z</time></trkpt>
<trkpt lat="53.0007500000" lon="-4.0980790000"><ele>36</ele><time>2016-09-30T14:23:09Z</time></trkpt>
<trkpt lat="53.0007700000" lon="-4.0980940000"><ele>35</ele><time>2016-09-30T14:23:21Z</time></trkpt>
<trkpt lat="53.0008740000" lon="-4.0981610000"><ele>35</ele><time>2016-09-30T14:23:23Z</time></trkpt>
<trkpt lat="53.0008960000" lon="-4.0981720000"><ele>35</ele><time>2016-09-30T14:23:25Z</time></trkpt>
<trkpt lat="53.0009130000" lon="-4.0981830000"><ele>35</ele><time>2016-09-30T14:23:34Z</time></trkpt>
<trkpt lat="53.0009350000" lon="-4.0982010000"><ele>35</ele><time>2016-09-30T14:23:42Z</time></trkpt>
<trkpt lat="53.0009530000" lon="-4.0982140000"><ele>34</ele><time>2016-09-30T14:23:46Z</time></trkpt>
<trkpt lat="53.0009770000" lon="-4.0982300000"><ele>34</ele><time>2016-09-30T14:23:50Z</time></trkpt>
<trkpt lat="53.0009980000" lon="-4.0982440000"><ele>34</ele><time>2016-09-30T14:23:53Z</time></trkpt>
<trkpt lat="53.0010200000" lon="-4.0982590000"><ele>34</ele><time>2016-09-30T14:23:56Z</time></trkpt>
<trkpt lat="53.0010420000" lon="-4.0982750000"><ele>34</ele><time>2016-09-30T14:23:59Z</time></trkpt>
<trkpt lat="53.0012360000" lon="-4.0984270000"><ele>34</ele><time>2016-09-30T14:24:01Z</time></trkpt>
<trkpt lat="53.0012610000" lon="-4.0984410000"><ele>34</ele><time>2016-09-30T14:24:03Z</time></trkpt>
<trkpt lat="53.0012920000" lon="-4.0984750000"><ele>34</ele><time>2016-09-30T14:24:06Z</time></trkpt>
<trkpt lat="53.0013120000" lon="-4.0985000000"><ele>34</ele><time>2016-09-30T14:24:08Z</time></trkpt>
<trkpt lat="53.0013980000" lon="-4.0985730000"><ele>35</ele><time>2016-09-30T14:24:16Z</time></trkpt>
<trkpt lat="53.0014250000" lon="-4.0985950000"><ele>35</ele><time>2016-09-30T14:24:18Z</time></trkpt>
<trkpt lat="53.0014500000" lon="-4.0986220000"><ele>35</ele><time>2016-09-30T14:24:20Z</time></trkpt>
<trkpt lat="53.0014700000" lon="-4.0986480000"><ele>36</ele><time>2016-09-30T14:24:22Z</time></trkpt>
<trkpt lat="53.0014850000" lon="-4.0986650000"><ele>37</ele><time>2016-09-30T14:24:31Z</time></trkpt>
<trkpt lat="53.0015030000" lon="-4.0986680000"><ele>37</ele><time>2016-09-30T14:24:37Z</time></trkpt>
<trkpt lat="53.0015230000" lon="-4.0986710000"><ele>36</ele><time>2016-09-30T14:24:41Z</time></trkpt>
<trkpt lat="53.0015420000" lon="-4.0986750000"><ele>36</ele><time>2016-09-30T14:24:44Z</time></trkpt>
<trkpt lat="53.0015630000" lon="-4.0986790000"><ele>36</ele><time>2016-09-30T14:24:47Z</time></trkpt>
<trkpt lat="53.0015870000" lon="-4.0986840000"><ele>36</ele><time>2016-09-30T14:24:50Z</time></trkpt>
<trkpt lat="53.0016130000" lon="-4.0986910000"><ele>36</ele><time>2016-09-30T14:24:53Z</time></trkpt>
<trkpt lat="53.0018450000" lon="-4.0987580000"><ele>36</ele><time>2016-09-30T14:24:55Z</time></trkpt>
<trkpt lat="53.0018700000" lon="-4.0987720000"><ele>36</ele><time>2016-09-30T14:24:57Z</time></trkpt>
<trkpt lat="53.0019460000" lon="-4.0988190000"><ele>35</ele><time>2016-09-30T14:25:03Z</time></trkpt>
<trkpt lat="53.0019690000" lon="-4.0988350000"><ele>35</ele><time>2016-09-30T14:25:05Z</time></trkpt>
<trkpt lat="53.0019830000" lon="-4.0988430000"><ele>35</ele><time>2016-09-30T14:25:06Z</time></trkpt>
<trkpt lat="53.0019950000" lon="-4.0988520000"><ele>35</ele><time>2016-09-30T14:25:07Z</time></trkpt>
<trkpt lat="53.0020070000" lon="-4.0988620000"><ele>35</ele><time>2016-09-30T14:25:08Z</time></trkpt>
<trkpt lat="53.0020180000" lon="-4.0988710000"><ele>35</ele><time>2016-09-30T14:25:09Z</time></trkpt>
<trkpt lat="53.0020310000" lon="-4.0988780000"><ele>35</ele><time>2016-09-30T14:25:10Z</time></trkpt>
<trkpt lat="53.0020440000" lon="-4.0988840000"><ele>35</ele><time>2016-09-30T14:25:11Z</time></trkpt>
<trkpt lat="53.0020570000" lon="-4.0988910000"><ele>35</ele><time>2016-09-30T14:25:12Z</time></trkpt>
<trkpt lat="53.0020690000" lon="-4.0988980000"><ele>35</ele><time>2016-09-30T14:25:13Z</time></trkpt>
<trkpt lat="53.0020810000" lon="-4.0989050000"><ele>35</ele><time>2016-09-30T14:25:14Z</time></trkpt>
<trkpt lat="53.0020940000" lon="-4.0989120000"><ele>35</ele><time>2016-09-30T14:25:15Z</time></trkpt>
<trkpt lat="53.0021050000" lon="-4.0989170000"><ele>35</ele><time>2016-09-30T14:25:16Z</time></trkpt>
<trkpt lat="53.0021180000" lon="-4.0989240000"><ele>35</ele><time>2016-09-30T14:25:17Z</time></trkpt>
<trkpt lat="53.0021320000" lon="-4.0989290000"><ele>35</ele><time>2016-09-30T14:25:18Z</time></trkpt>
<trkpt lat="53.0021460000" lon="-4.0989320000"><ele>35</ele><time>2016-09-30T14:25:19Z</time></trkpt>
<trkpt lat="53.0021580000" lon="-4.0989370000"><ele>35</ele><time>2016-09-30T14:25:20Z</time></trkpt>
<trkpt lat="53.0021700000" lon="-4.0989430000"><ele>35</ele><time>2016-09-30T14:25:21Z</time></trkpt>
<trkpt lat="53.0021820000" lon="-4.0989460000"><ele>35</ele><time>2016-09-30T14:25:22Z</time></trkpt>
<trkpt lat="53.0021950000" lon="-4.0989490000"><ele>35</ele><time>2016-09-30T14:25:23Z</time></trkpt>
<trkpt lat="53.0022060000" lon="-4.0989520000"><ele>35</ele><time>2016-09-30T14:25:24Z</time></trkpt>
<trkpt lat="53.0022190000" lon="-4.0989570000"><ele>35</ele><time>2016-09-30T14:25:25Z</time></trkpt>
<trkpt lat="53.0022290000" lon="-4.0989630000"><ele>35</ele><time>2016-09-30T14:25:26Z</time></trkpt>
<trkpt lat="53.0022390000" lon="-4.0989680000"><ele>35</ele><time>2016-09-30T14:25:27Z</time></trkpt>
<trkpt lat="53.0022510000" lon="-4.0989710000"><ele>35</ele><time>2016-09-30T14:25:28Z</time></trkpt>
<trkpt lat="53.0022630000" lon="-4.0989750000"><ele>35</ele><time>2016-09-30T14:25:29Z</time></trkpt>
<trkpt lat="53.0022750000" lon="-4.0989800000"><ele>34</ele><time>2016-09-30T14:25:30Z</time></trkpt>
<trkpt lat="53.0022870000" lon="-4.0989870000"><ele>34</ele><time>2016-09-30T14:25:31Z</time></trkpt>
<trkpt lat="53.0022980000" lon="-4.0989940000"><ele>34</ele><time>2016-09-30T14:25:32Z</time></trkpt>
<trkpt lat="53.0023090000" lon="-4.0990000000"><ele>34</ele><time>2016-09-30T14:25:33Z</time></trkpt>
<trkpt lat="53.0023210000" lon="-4.0990040000"><ele>34</ele><time>2016-09-30T14:25:34Z</time></trkpt>
<trkpt lat="53.0023350000" lon="-4.0990060000"><ele>34</ele><time>2016-09-30T14:25:35Z</time></trkpt>
<trkpt lat="53.0023500000" lon="-4.0990110000"><ele>34</ele><time>2016-09-30T14:25:36Z</time></trkpt>
<trkpt lat="53.0023630000" lon="-4.0990160000"><ele>34</ele><time>2016-09-30T14:25:37Z</time></trkpt>
<trkpt lat="53.0023750000" lon="-4.0990200000"><ele>34</ele><time>2016-09-30T14:25:38Z</time></trkpt>
<trkpt lat="53.0023860000" lon="-4.0990260000"><ele>33</ele><time>2016-09-30T14:25:39Z</time></trkpt>
<trkpt lat="53.0023970000" lon="-4.0990300000"><ele>33</ele><time>2016-09-30T14:25:40Z</time></trkpt>
<trkpt lat="53.0024080000" lon="-4.0990350000"><ele>33</ele><time>2016-09-30T14:25:41Z</time></trkpt>
<trkpt lat="53.0024220000" lon="-4.0990420000"><ele>33</ele><time>2016-09-30T14:25:42Z</time></trkpt>
<trkpt lat="53.0024360000" lon="-4.0990490000"><ele>33</ele><time>2016-09-30T14:25:43Z</time></trkpt>
<trkpt lat="53.0024490000" lon="-4.0990550000"><ele>33</ele><time>2016-09-30T14:25:44Z</time></trkpt>
<trkpt lat="53.0024630000" lon="-4.0990610000"><ele>33</ele><time>2016-09-30T14:25:45Z</time></trkpt>
<trkpt lat="53.0024750000" lon="-4.0990660000"><ele>33</ele><time>2016-09-30T14:25:46Z</time></trkpt>
<trkpt lat="53.0024870000" lon="-4.0990710000"><ele>33</ele><time>2016-09-30T14:25:47Z</time></trkpt>
<trkpt lat="53.0024990000" lon="-4.0990760000"><ele>33</ele><time>2016-09-30T14:25:48Z</time></trkpt>
<trkpt lat="53.0025100000" lon="-4.0990820000"><ele>33</ele><time>2016-09-30T14:25:49Z</time></trkpt>
<trkpt lat="53.0025230000" lon="-4.0990870000"><ele>33</ele><time>2016-09-30T14:25:50Z</time></trkpt>
<trkpt lat="53.0025340000" lon="-4.0990920000"><ele>33</ele><time>2016-09-30T14:25:51Z</time></trkpt>
<trkpt lat="53.0025460000" lon="-4.0990960000"><ele>33</ele><time>2016-09-30T14:25:52Z</time></trkpt>
<trkpt lat="53.0025560000" lon="-4.0991000000"><ele>33</ele><time>2016-09-30T14:25:53Z</time></trkpt>
<trkpt lat="53.0025680000" lon="-4.0991030000"><ele>33</ele><time>2016-09-30T14:25:54Z</time></trkpt>
<trkpt lat="53.0025810000" lon="-4.0991060000"><ele>33</ele><time>2016-09-30T14:25:55Z</time></trkpt>
<trkpt lat="53.0025950000" lon="-4.0991100000"><ele>33</ele><time>2016-09-30T14:25:56Z</time></trkpt>
<trkpt lat="53.0026070000" lon="-4.0991140000"><ele>33</ele><time>2016-09-30T14:25:57Z</time></trkpt>
<trkpt lat="53.0026180000" lon="-4.0991170000"><ele>33</ele><time>2016-09-30T14:25:58Z</time></trkpt>
<trkpt lat="53.0026300000" lon="-4.0991210000"><ele>33</ele><time>2016-09-30T14:25:59Z</time></trkpt>
<trkpt lat="53.0026420000" lon="-4.0991220000"><ele>33</ele><time>2016-09-30T14:26:01Z</time></trkpt>
<trkpt lat="53.0026540000" lon="-4.0991230000"><ele>33</ele></trkpt>
<trkpt lat="53.0026660000" lon="-4.0991260000"><ele>33</ele><time>2016-09-30T14:26:02Z</time></trkpt>
<trkpt lat="53.0026790000" lon="-4.0991300000"><ele>33</ele><time>2016-09-30T14:26:03Z</time></trkpt>
<trkpt lat="53.0026920000" lon="-4.0991340000"><ele>33</ele><time>2016-09-30T14:26:04Z</time></trkpt>
<trkpt lat="53.0027050000" lon="-4.0991390000"><ele>33</ele><time>2016-09-30T14:26:05Z</time></trkpt>
<trkpt lat="53.0027160000" lon="-4.0991440000"><ele>33</ele><time>2016-09-30T14:26:06Z</time></trkpt>
<trkpt lat="53.0027280000" lon="-4.0991470000"><ele>33</ele><time>2016-09-30T14:26:07Z</time></trkpt>
<trkpt lat="53.0027410000" lon="-4.0991500000"><ele>33</ele><time>2016-09-30T14:26:08Z</time></trkpt>
<trkpt lat="53.0027530000" lon="-4.0991520000"><ele>33</ele><time>2016-09-30T14:26:09Z</time></trkpt>
<trkpt lat="53.0027680000" lon="-4.0991540000"><ele>33</ele><time>2016-09-30T14:26:10Z</time></trkpt>
<trkpt lat="53.0027820000" lon="-4.0991550000"><ele>33</ele><time>2016-09-30T14:26:11Z</time></trkpt>
<trkpt lat="53.0027930000" lon="-4.0991550000"><ele>33</ele><time>2016-09-30T14:26:12Z</time></trkpt>
<trkpt lat="53.0028050000" lon="-4.0991560000"><ele>33</ele><time>2016-09-30T14:26:13Z</time></trkpt>
<trkpt lat="53.0028160000" lon="-4.0991570000"><ele>33</ele><time>2016-09-30T14:26:14Z</time></trkpt>
<trkpt lat="53.0028270000" lon="-4.0991570000"><ele>33</ele><time>2016-09-30T14:26:15Z</time></trkpt>
<trkpt lat="53.0028390000" lon="-4.0991580000"><ele>33</ele><time>2016-09-30T14:26:16Z</time></trkpt>
<trkpt lat="53.0028520000" lon="-4.0991590000"><ele>33</ele><time>2016-09-30T14:26:17Z</time></trkpt>
<trkpt lat="53.0028650000" lon="-4.0991600000"><ele>33</ele><time>2016-09-30T14:26:18Z</time></trkpt>
<trkpt lat="53.0028780000" lon="-4.0991600000"><ele>33</ele><time>2016-09-30T14:26:19Z</time></trkpt>
<trkpt lat="53.0028910000" lon="-4.0991600000"><ele>33</ele><time>2016-09-30T14:26:20Z</time></trkpt>
<trkpt lat="53.0029020000" lon="-4.0991620000"><ele>33</ele><time>2016-09-30T14:26:21Z</time></trkpt>
<trkpt lat="53.0029270000" lon="-4.0991630000"><ele>32</ele><time>2016-09-30T14:26:23Z</time></trkpt>
<trkpt lat="53.0029390000" lon="-4.0991640000"><ele>32</ele><time>2016-09-30T14:26:24Z</time></trkpt>
<trkpt lat="53.0029530000" lon="-4.0991630000"><ele>32</ele><time>2016-09-30T14:26:25Z</time></trkpt>
<trkpt lat="53.0029670000" lon="-4.0991600000"><ele>32</ele><time>2016-09-30T14:26:26Z</time></trkpt>
<trkpt lat="53.0029810000" lon="-4.0991610000"><ele>32</ele><time>2016-09-30T14:26:27Z</time></trkpt>
<trkpt lat="53.0029950000" lon="-4.0991630000"><ele>32</ele><time>2016-09-30T14:26:28Z</time></trkpt>
<trkpt lat="53.0030070000" lon="-4.0991670000"><ele>32</ele><time>2016-09-30T14:26:29Z</time></trkpt>
<trkpt lat="53.0030180000" lon="-4.0991720000"><ele>32</ele><time>2016-09-30T14:26:30Z</time></trkpt>
<trkpt lat="53.0030180000" lon="-4.0991720000"><ele>32</ele><time>2016-09-30T14:26:31Z</time></trkpt>
<trkpt lat="53.0030180000" lon="-4.0991720000"><ele>32</ele><time>2016-09-30T14:26:32Z</time></trkpt>
<trkpt lat="53.0030180000" lon="-4.0991720000"><ele>32</ele><time>2016-09-30T14:26:33Z</time></trkpt>
<trkpt lat="53.0030190000" lon="-4.0991720000"><ele>32</ele><time>2016-09-30T14:26:34Z</time></trkpt>
<trkpt lat="53.0030200000" lon="-4.0991720000"><ele>32</ele><time>2016-09-30T14:26:35Z</time></trkpt>
<trkpt lat="53.0030220000" lon="-4.0991730000"><ele>32</ele><time>2016-09-30T14:26:36Z</time></trkpt>
<trkpt lat="53.0030240000" lon="-4.0991740000"><ele>32</ele><time>2016-09-30T14:26:37Z</time></trkpt>
<trkpt lat="53.0030260000" lon="-4.0991750000"><ele>32</ele><time>2016-09-30T14:26:38Z</time></trkpt>
<trkpt lat="53.0030290000" lon="-4.0991760000"><ele>32</ele><time>2016-09-30T14:26:39Z</time></trkpt>
<trkpt lat="53.0030320000" lon="-4.0991770000"><ele>32</ele><time>2016-09-30T14:26:40Z</time></trkpt>
<trkpt lat="53.0030360000" lon="-4.0991790000"><ele>32</ele><time>2016-09-30T14:26:41Z</time></trkpt>
<trkpt lat="53.0030410000" lon="-4.0991800000"><ele>31</ele><time>2016-09-30T14:26:42Z</time></trkpt>
<trkpt lat="53.0030460000" lon="-4.0991820000"><ele>31</ele><time>2016-09-30T14:26:43Z</time></trkpt>
<trkpt lat="53.0030520000" lon="-4.0991830000"><ele>31</ele><time>2016-09-30T14:26:44Z</time></trkpt>
<trkpt lat="53.0030580000" lon="-4.0991850000"><ele>31</ele><time>2016-09-30T14:26:45Z</time></trkpt>
<trkpt lat="53.0030650000" lon="-4.0991870000"><ele>31</ele><time>2016-09-30T14:26:46Z</time></trkpt>
<trkpt lat="53.0030720000" lon="-4.0991880000"><ele>31</ele><time>2016-09-30T14:26:47Z</time></trkpt>
<trkpt lat="53.0030800000" lon="-4.0991890000"><ele>31</ele><time>2016-09-30T14:26:48Z</time></trkpt>
<trkpt lat="53.0030880000" lon="-4.0991900000"><ele>31</ele><time>2016-09-30T14:26:49Z</time></trkpt>
<trkpt lat="53.0030970000" lon="-4.0991920000"><ele>31</ele><time>2016-09-30T14:26:50Z</time></trkpt>
<trkpt lat="53.0031060000" lon="-4.0991930000"><ele>31</ele><time>2016-09-30T14:26:51Z</time></trkpt>
<trkpt lat="53.0031150000" lon="-4.0991940000"><ele>31</ele><time>2016-09-30T14:26:52Z</time></trkpt>
<trkpt lat="53.0031250000" lon="-4.0991950000"><ele>31</ele><time>2016-09-30T14:26:53Z</time></trkpt>
<trkpt lat="53.0033150000" lon="-4.0992150000"><ele>31</ele><time>2016-09-30T14:26:54Z</time></trkpt>
<trkpt lat="53.0033260000" lon="-4.0992160000"><ele>31</ele><time>2016-09-30T14:26:55Z</time></trkpt>
<trkpt lat="53.0033390000" lon="-4.0992160000"><ele>31</ele><time>2016-09-30T14:26:56Z</time></trkpt>
<trkpt lat="53.0033530000" lon="-4.0992150000"><ele>31</ele><time>2016-09-30T14:26:57Z</time></trkpt>
<trkpt lat="53.0033650000" lon="-4.0992130000"><ele>31</ele><time>2016-09-30T14:26:58Z</time></trkpt>
<trkpt lat="53.0033760000" lon="-4.0992100000"><ele>31</ele><time>2016-09-30T14:26:59Z</time></trkpt>
<trkpt lat="53.0033890000" lon="-4.0992080000"><ele>31</ele><time>2016-09-30T14:27:01Z</time></trkpt>
<trkpt lat="53.0034010000" lon="-4.0992060000"><ele>31</ele></trkpt>
<trkpt lat="53.0034120000" lon="-4.0992040000"><ele>31</ele><time>2016-09-30T14:27:02Z</time></trkpt>
<trkpt lat="53.0034250000" lon="-4.0992030000"><ele>31</ele><time>2016-09-30T14:27:03Z</time></trkpt>
<trkpt lat="53.0034370000" lon="-4.0992020000"><ele>31</ele><time>2016-09-30T14:27:04Z</time></trkpt>
<trkpt lat="53.0034490000" lon="-4.0991980000"><ele>31</ele><time>2016-09-30T14:27:05Z</time></trkpt>
<trkpt lat="53.0034600000" lon="-4.0991930000"><ele>31</ele><time>2016-09-30T14:27:06Z</time></trkpt>
<trkpt lat="53.0034690000" lon="-4.0991930000"><ele>31</ele><time>2016-09-30T14:27:07Z</time></trkpt>
<trkpt lat="53.0034740000" lon="-4.0991950000"><ele>31</ele><time>2016-09-30T14:27:08Z</time></trkpt>
<trkpt lat="53.0034740000" lon="-4.0991950000"><ele>31</ele><time>2016-09-30T14:27:10Z</time></trkpt>
<trkpt lat="53.0034740000" lon="-4.0991950000"><ele>31</ele><time>2016-09-30T14:27:11Z</time></trkpt>
<trkpt lat="53.0034750000" lon="-4.0991940000"><ele>31</ele><time>2016-09-30T14:27:12Z</time></trkpt>
<trkpt lat="53.0034760000" lon="-4.0991940000"><ele>31</ele><time>2016-09-30T14:27:13Z</time></trkpt>
<trkpt lat="53.0034770000" lon="-4.0991940000"><ele>31</ele><time>2016-09-30T14:27:14Z</time></trkpt>
<trkpt lat="53.0034790000" lon="-4.0991930000"><ele>31</ele><time>2016-09-30T14:27:15Z</time></trkpt>
<trkpt lat="53.0034810000" lon="-4.0991930000"><ele>31</ele><time>2016-09-30T14:27:16Z</time></trkpt>
<trkpt lat="53.0034840000" lon="-4.0991920000"><ele>31</ele><time>2016-09-30T14:27:17Z</time></trkpt>
<trkpt lat="53.0034870000" lon="-4.0991920000"><ele>31</ele><time>2016-09-30T14:27:18Z</time></trkpt>
<trkpt lat="53.0034910000" lon="-4.0991910000"><ele>31</ele><time>2016-09-30T14:27:19Z</time></trkpt>
<trkpt lat="53.0034950000" lon="-4.0991910000"><ele>31</ele><time>2016-09-30T14:27:20Z</time></trkpt>
<trkpt lat="53.0036210000" lon="-4.0991820000"><ele>31</ele><time>2016-09-30T14:27:21Z</time></trkpt>
<trkpt lat="53.0036320000" lon="-4.0991870000"><ele>31</ele><time>2016-09-30T14:27:22Z</time></trkpt>
<trkpt lat="53.0036440000" lon="-4.0991920000"><ele>31</ele><time>2016-09-30T14:27:23Z</time></trkpt>
<trkpt lat="53.0036540000" lon="-4.0991980000"><ele>31</ele><time>2016-09-30T14:27:24Z</time></trkpt>
<trkpt lat="53.0036550000" lon="-4.0991980000"><ele>31</ele><time>2016-09-30T14:27:25Z</time></trkpt>
<trkpt lat="53.0036550000" lon="-4.0991980000"><ele>31</ele><time>2016-09-30T14:27:26Z</time></trkpt>
<trkpt lat="53.0036550000" lon="-4.0991980000"><ele>31</ele><time>2016-09-30T14:27:27Z</time></trkpt>
<trkpt lat="53.0036560000" lon="-4.0991990000"><ele>31</ele><time>2016-09-30T14:27:28Z</time></trkpt>
<trkpt lat="53.0036570000" lon="-4.0992000000"><ele>31</ele><time>2016-09-30T14:27:29Z</time></trkpt>
<trkpt lat="53.0036580000" lon="-4.0992000000"><ele>32</ele><time>2016-09-30T14:27:30Z</time></trkpt>
<trkpt lat="53.0036590000" lon="-4.0992010000"><ele>32</ele><time>2016-09-30T14:27:31Z</time></trkpt>
<trkpt lat="53.0036610000" lon="-4.0992030000"><ele>32</ele><time>2016-09-30T14:27:32Z</time></trkpt>
<trkpt lat="53.0036630000" lon="-4.0992050000"><ele>32</ele><time>2016-09-30T14:27:33Z</time></trkpt>
<trkpt lat="53.0036660000" lon="-4.0992080000"><ele>32</ele><time>2016-09-30T14:27:34Z</time></trkpt>
<trkpt lat="53.0036680000" lon="-4.0992110000"><ele>32</ele><time>2016-09-30T14:27:35Z</time></trkpt>
<trkpt lat="53.0036710000" lon="-4.0992140000"><ele>32</ele><time>2016-09-30T14:27:36Z</time></trkpt>
<trkpt lat="53.0036750000" lon="-4.0992180000"><ele>32</ele><time>2016-09-30T14:27:37Z</time></trkpt>
<trkpt lat="53.0036790000" lon="-4.0992210000"><ele>32</ele><time>2016-09-30T14:27:38Z</time></trkpt>
<trkpt lat="53.0036830000" lon="-4.0992250000"><ele>32</ele><time>2016-09-30T14:27:39Z</time></trkpt>
<trkpt lat="53.0036870000" lon="-4.0992280000"><ele>32</ele><time>2016-09-30T14:27:40Z</time></trkpt>
<trkpt lat="53.0036920000" lon="-4.0992310000"><ele>32</ele><time>2016-09-30T14:27:41Z</time></trkpt>
<trkpt lat="53.0036970000" lon="-4.0992330000"><ele>32</ele><time>2016-09-30T14:27:42Z</time></trkpt>
<trkpt lat="53.0037010000" lon="-4.0992340000"><ele>32</ele><time>2016-09-30T14:27:43Z</time></trkpt>
<trkpt lat="53.0037060000" lon="-4.0992350000"><ele>32</ele><time>2016-09-30T14:27:44Z</time></trkpt>
<trkpt lat="53.0037110000" lon="-4.0992360000"><ele>32</ele><time>2016-09-30T14:27:45Z</time></trkpt>
<trkpt lat="53.0037150000" lon="-4.0992370000"><ele>32</ele><time>2016-09-30T14:27:46Z</time></trkpt>
<trkpt lat="53.0037180000" lon="-4.0992380000"><ele>32</ele><time>2016-09-30T14:27:47Z</time></trkpt>
<trkpt lat="53.0037220000" lon="-4.0992380000"><ele>32</ele><time>2016-09-30T14:27:48Z</time></trkpt>
<trkpt lat="53.0037250000" lon="-4.0992390000"><ele>32</ele><time>2016-09-30T14:27:49Z</time></trkpt>
<trkpt lat="53.0037280000" lon="-4.0992390000"><ele>32</ele><time>2016-09-30T14:27:50Z</time></trkpt>
<trkpt lat="53.0037310000" lon="-4.0992400000"><ele>33</ele><time>2016-09-30T14:27:51Z</time></trkpt>
<trkpt lat="53.0037340000" lon="-4.0992400000"><ele>33</ele><time>2016-09-30T14:27:52Z</time></trkpt>
<trkpt lat="53.0037370000" lon="-4.0992400000"><ele>33</ele><time>2016-09-30T14:27:53Z</time></trkpt>
<trkpt lat="53.0037390000" lon="-4.0992410000"><ele>33</ele><time>2016-09-30T14:27:54Z</time></trkpt>
<trkpt lat="53.0037420000" lon="-4.0992410000"><ele>33</ele><time>2016-09-30T14:27:55Z</time></trkpt>
<trkpt lat="53.0037440000" lon="-4.0992410000"><ele>34</ele><time>2016-09-30T14:27:56Z</time></trkpt>
<trkpt lat="53.0037460000" lon="-4.0992420000"><ele>34</ele><time>2016-09-30T14:27:57Z</time></trkpt>
<trkpt lat="53.0037770000" lon="-4.0992410000"><ele>36</ele><time>2016-09-30T14:28:09Z</time></trkpt>
<trkpt lat="53.0038260000" lon="-4.0992270000"><ele>36</ele><time>2016-09-30T14:28:10Z</time></trkpt>
<trkpt lat="53.0038320000" lon="-4.0992260000"><ele>36</ele><time>2016-09-30T14:28:11Z</time></trkpt>
<trkpt lat="53.0038370000" lon="-4.0992300000"><ele>37</ele><time>2016-09-30T14:28:12Z</time></trkpt>
<trkpt lat="53.0038370000" lon="-4.0992300000"><ele>37</ele><time>2016-09-30T14:28:14Z</time></trkpt>
<trkpt lat="53.0038370000" lon="-4.0992300000"><ele>37</ele><time>2016-09-30T14:28:15Z</time></trkpt>
<trkpt lat="53.0038370000" lon="-4.0992300000"><ele>37</ele><time>2016-09-30T14:28:16Z</time></trkpt>
<trkpt lat="53.0038370000" lon="-4.0992310000"><ele>37</ele><time>2016-09-30T14:28:19Z</time></trkpt>
<trkpt lat="53.0038400000" lon="-4.0992540000"><ele>37</ele><time>2016-09-30T14:28:32Z</time></trkpt>
<trkpt lat="53.0038400000" lon="-4.0992580000"><ele>37</ele><time>2016-09-30T14:28:33Z</time></trkpt>
<trkpt lat="53.0038390000" lon="-4.0992620000"><ele>37</ele><time>2016-09-30T14:28:34Z</time></trkpt>
<trkpt lat="53.0038390000" lon="-4.0992660000"><ele>37</ele><time>2016-09-30T14:28:35Z</time></trkpt>
<trkpt lat="53.0038400000" lon="-4.0992700000"><ele>37</ele><time>2016-09-30T14:28:36Z</time></trkpt>
<trkpt lat="53.0038400000" lon="-4.0992750000"><ele>37</ele><time>2016-09-30T14:28:37Z</time></trkpt>
<trkpt lat="53.0038410000" lon="-4.0992790000"><ele>37</ele><time>2016-09-30T14:28:38Z</time></trkpt>
<trkpt lat="53.0038750000" lon="-4.0993510000"><ele>37</ele><time>2016-09-30T14:28:39Z</time></trkpt>
<trkpt lat="53.0038860000" lon="-4.0993450000"><ele>37</ele><time>2016-09-30T14:28:40Z</time></trkpt>
<trkpt lat="53.0038940000" lon="-4.0993420000"><ele>38</ele><time>2016-09-30T14:28:41Z</time></trkpt>
<trkpt lat="53.0039040000" lon="-4.0993410000"><ele>38</ele><time>2016-09-30T14:28:42Z</time></trkpt>
<trkpt lat="53.0039040000" lon="-4.0993410000"><ele>38</ele><time>2016-09-30T14:28:43Z</time></trkpt>
<trkpt lat="53.0039040000" lon="-4.0993410000"><ele>38</ele><time>2016-09-30T14:28:44Z</time></trkpt>
<trkpt lat="53.0039040000" lon="-4.0993410000"><ele>38</ele><time>2016-09-30T14:28:45Z</time></trkpt>
<trkpt lat="53.0039050000" lon="-4.0993400000"><ele>38</ele><time>2016-09-30T14:28:46Z</time></trkpt>
<trkpt lat="53.0039060000" lon="-4.0993390000"><ele>38</ele><time>2016-09-30T14:28:47Z</time></trkpt>
<trkpt lat="53.0039070000" lon="-4.0993380000"><ele>38</ele><time>2016-09-30T14:28:48Z</time></trkpt>
<trkpt lat="53.0039080000" lon="-4.0993370000"><ele>38</ele><time>2016-09-30T14:28:49Z</time></trkpt>
<trkpt lat="53.0039100000" lon="-4.0993350000"><ele>38</ele><time>2016-09-30T14:28:50Z</time></trkpt>
<trkpt lat="53.0039130000" lon="-4.0993320000"><ele>38</ele><time>2016-09-30T14:28:51Z</time></trkpt>
<trkpt lat="53.0039160000" lon="-4.0993290000"><ele>38</ele><time>2016-09-30T14:28:52Z</time></trkpt>
<trkpt lat="53.0039190000" lon="-4.0993260000"><ele>38</ele><time>2016-09-30T14:28:53Z</time></trkpt>
<trkpt lat="53.0039230000" lon="-4.0993220000"><ele>38</ele><time>2016-09-30T14:28:54Z</time></trkpt>
<trkpt lat="53.0039270000" lon="-4.0993180000"><ele>37</ele><time>2016-09-30T14:28:55Z</time></trkpt>
<trkpt lat="53.0039320000" lon="-4.0993140000"><ele>37</ele><time>2016-09-30T14:28:56Z</time></trkpt>
<trkpt lat="53.0039370000" lon="-4.0993090000"><ele>37</ele><time>2016-09-30T14:28:57Z</time></trkpt>
<trkpt lat="53.0039420000" lon="-4.0993040000"><ele>37</ele><time>2016-09-30T14:28:58Z</time></trkpt>
<trkpt lat="53.0039480000" lon="-4.0992990000"><ele>37</ele><time>2016-09-30T14:28:59Z</time></trkpt>
<trkpt lat="53.0039540000" lon="-4.0992940000"><ele>37</ele><time>2016-09-30T14:29:01Z</time></trkpt>
<trkpt lat="53.0041010000" lon="-4.0991830000"><ele>36</ele></trkpt>
<trkpt lat="53.0041100000" lon="-4.0991810000"><ele>36</ele><time>2016-09-30T14:29:02Z</time></trkpt>
<trkpt lat="53.0041200000" lon="-4.0991820000"><ele>36</ele><time>2016-09-30T14:29:03Z</time></trkpt>
<trkpt lat="53.0041280000" lon="-4.0991910000"><ele>36</ele><time>2016-09-30T14:29:04Z</time></trkpt>
<trkpt lat="53.0041280000" lon="-4.0991910000"><ele>36</ele><time>2016-09-30T14:29:06Z</time></trkpt>
<trkpt lat="53.0041280000" lon="-4.0991910000"><ele>36</ele><time>2016-09-30T14:29:07Z</time></trkpt>
<trkpt lat="53.0041290000" lon="-4.0991910000"><ele>36</ele><time>2016-09-30T14:29:08Z</time></trkpt>
<trkpt lat="53.0041750000" lon="-4.0991940000"><ele>36</ele><time>2016-09-30T14:29:09Z</time></trkpt>
<trkpt lat="53.0041880000" lon="-4.0991920000"><ele>36</ele><time>2016-09-30T14:29:10Z</time></trkpt>
<trkpt lat="53.0042000000" lon="-4.0991930000"><ele>36</ele><time>2016-09-30T14:29:11Z</time></trkpt>
<trkpt lat="53.0042090000" lon="-4.0991960000"><ele>36</ele><time>2016-09-30T14:29:12Z</time></trkpt>
<trkpt lat="53.0042170000" lon="-4.0992030000"><ele>36</ele><time>2016-09-30T14:29:13Z</time></trkpt>
<trkpt lat="53.0042170000" lon="-4.0992030000"><ele>36</ele><time>2016-09-30T14:29:14Z</time></trkpt>
<trkpt lat="53.0042170000" lon="-4.0992030000"><ele>36</ele><time>2016-09-30T14:29:15Z</time></trkpt>
<trkpt lat="53.0042180000" lon="-4.0992030000"><ele>36</ele><time>2016-09-30T14:29:16Z</time></trkpt>
<trkpt lat="53.0042180000" lon="-4.0992030000"><ele>36</ele><time>2016-09-30T14:29:17Z</time></trkpt>
<trkpt lat="53.0042190000" lon="-4.0992030000"><ele>36</ele><time>2016-09-30T14:29:18Z</time></trkpt>
<trkpt lat="53.0042200000" lon="-4.0992030000"><ele>36</ele><time>2016-09-30T14:29:19Z</time></trkpt>
<trkpt lat="53.0042220000" lon="-4.0992040000"><ele>36</ele><time>2016-09-30T14:29:20Z</time></trkpt>
<trkpt lat="53.0042230000" lon="-4.0992050000"><ele>36</ele><time>2016-09-30T14:29:21Z</time></trkpt>
<trkpt lat="53.0042250000" lon="-4.0992060000"><ele>36</ele><time>2016-09-30T14:29:22Z</time></trkpt>
<trkpt lat="53.0042270000" lon="-4.0992070000"><ele>36</ele><time>2016-09-30T14:29:23Z</time></trkpt>
<trkpt lat="53.0042460000" lon="-4.0992170000"><ele>36</ele><time>2016-09-30T14:29:28Z</time></trkpt>
<trkpt lat="53.0042570000" lon="-4.0992220000"><ele>36</ele><time>2016-09-30T14:29:30Z</time></trkpt>
<trkpt lat="53.0042630000" lon="-4.0992260000"><ele>36</ele><time>2016-09-30T14:29:31Z</time></trkpt>
<trkpt lat="53.0042690000" lon="-4.0992300000"><ele>36</ele><time>2016-09-30T14:29:32Z</time></trkpt>
<trkpt lat="53.0042760000" lon="-4.0992340000"><ele>36</ele><time>2016-09-30T14:29:33Z</time></trkpt>
<trkpt lat="53.0042830000" lon="-4.0992380000"><ele>36</ele><time>2016-09-30T14:29:34Z</time></trkpt>
<trkpt lat="53.0042910000" lon="-4.0992430000"><ele>36</ele><time>2016-09-30T14:29:35Z</time></trkpt>
<trkpt lat="53.0042980000" lon="-4.0992480000"><ele>36</ele><time>2016-09-30T14:29:36Z</time></trkpt>
<trkpt lat="53.0043070000" lon="-4.0992530000"><ele>36</ele><time>2016-09-30T14:29:37Z</time></trkpt>
<trkpt lat="53.0043150000" lon="-4.0992590000"><ele>36</ele><time>2016-09-30T14:29:38Z</time></trkpt>
<trkpt lat="53.0043240000" lon="-4.0992640000"><ele>36</ele><time>2016-09-30T14:29:39Z</time></trkpt>
<trkpt lat="53.0045070000" lon="-4.0993780000"><ele>36</ele><time>2016-09-30T14:29:40Z</time></trkpt>
<trkpt lat="53.0045150000" lon="-4.0993890000"><ele>36</ele><time>2016-09-30T14:29:41Z</time></trkpt>
<trkpt lat="53.0045220000" lon="-4.0994010000"><ele>36</ele><time>2016-09-30T14:29:42Z</time></trkpt>
<trkpt lat="53.0045220000" lon="-4.0994010000"><ele>36</ele><time>2016-09-30T14:29:43Z</time></trkpt>
<trkpt lat="53.0045230000" lon="-4.0994010000"><ele>35</ele><time>2016-09-30T14:29:44Z</time></trkpt>
<trkpt lat="53.0045230000" lon="-4.0994010000"><ele>35</ele><time>2016-09-30T14:29:45Z</time></trkpt>
<trkpt lat="53.0045230000" lon="-4.0994020000"><ele>35</ele><time>2016-09-30T14:29:46Z</time></trkpt>
<trkpt lat="53.0045240000" lon="-4.0994030000"><ele>35</ele><time>2016-09-30T14:29:47Z</time></trkpt>
<trkpt lat="53.0045680000" lon="-4.0994950000"><ele>35</ele><time>2016-09-30T14:29:48Z</time></trkpt>
<trkpt lat="53.0045740000" lon="-4.0995150000"><ele>35</ele><time>2016-09-30T14:29:49Z</time></trkpt>
<trkpt lat="53.0045800000" lon="-4.0995310000"><ele>35</ele><time>2016-09-30T14:29:50Z</time></trkpt>
<trkpt lat="53.0045870000" lon="-4.0995460000"><ele>35</ele><time>2016-09-30T14:29:51Z</time></trkpt>
<trkpt lat="53.0045910000" lon="-4.0995650000"><ele>35</ele><time>2016-09-30T14:29:52Z</time></trkpt>
<trkpt lat="53.0045950000" lon="-4.0995790000"><ele>35</ele><time>2016-09-30T14:29:53Z</time></trkpt>
<trkpt lat="53.0046030000" lon="-4.0995890000"><ele>35</ele><time>2016-09-30T14:29:54Z</time></trkpt>
<trkpt lat="53.0046030000" lon="-4.0995890000"><ele>35</ele><time>2016-09-30T14:29:55Z</time></trkpt>
<trkpt lat="53.0046030000" lon="-4.0995890000"><ele>35</ele><time>2016-09-30T14:29:56Z</time></trkpt>
<trkpt lat="53.0046030000" lon="-4.0995890000"><ele>35</ele><time>2016-09-30T14:29:57Z</time></trkpt>
<trkpt lat="53.0046040000" lon="-4.0995890000"><ele>35</ele><time>2016-09-30T14:29:58Z</time></trkpt>
<trkpt lat="53.0046050000" lon="-4.0995890000"><ele>35</ele><time>2016-09-30T14:29:59Z</time></trkpt>
<trkpt lat="53.0046060000" lon="-4.0995890000"><ele>35</ele><time>2016-09-30T14:30:01Z</time></trkpt>
<trkpt lat="53.0046870000" lon="-4.0996000000"><ele>35</ele></trkpt>
<trkpt lat="53.0047010000" lon="-4.0996040000"><ele>35</ele><time>2016-09-30T14:30:02Z</time></trkpt>
<trkpt lat="53.0047140000" lon="-4.0996050000"><ele>35</ele><time>2016-09-30T14:30:03Z</time></trkpt>
<trkpt lat="53.0047260000" lon="-4.0996060000"><ele>35</ele><time>2016-09-30T14:30:04Z</time></trkpt>
<trkpt lat="53.0047390000" lon="-4.0996100000"><ele>36</ele><time>2016-09-30T14:30:05Z</time></trkpt>
<trkpt lat="53.0047510000" lon="-4.0996150000"><ele>36</ele><time>2016-09-30T14:30:06Z</time></trkpt>
<trkpt lat="53.0047630000" lon="-4.0996230000"><ele>36</ele><time>2016-09-30T14:30:07Z</time></trkpt>
<trkpt lat="53.0047740000" lon="-4.0996350000"><ele>36</ele><time>2016-09-30T14:30:08Z</time></trkpt>
<trkpt lat="53.0047850000" lon="-4.0996470000"><ele>36</ele><time>2016-09-30T14:30:09Z</time></trkpt>
<trkpt lat="53.0047920000" lon="-4.0996600000"><ele>36</ele><time>2016-09-30T14:30:10Z</time></trkpt>
<trkpt lat="53.0047980000" lon="-4.0996780000"><ele>36</ele><time>2016-09-30T14:30:11Z</time></trkpt>
<trkpt lat="53.0048030000" lon="-4.0996930000"><ele>36</ele><time>2016-09-30T14:30:12Z</time></trkpt>
<trkpt lat="53.0048030000" lon="-4.0996930000"><ele>36</ele><time>2016-09-30T14:30:13Z</time></trkpt>
<trkpt lat="53.0048030000" lon="-4.0996940000"><ele>36</ele><time>2016-09-30T14:30:14Z</time></trkpt>
<trkpt lat="53.0048030000" lon="-4.0996940000"><ele>36</ele><time>2016-09-30T14:30:15Z</time></trkpt>
<trkpt lat="53.0048040000" lon="-4.0996950000"><ele>36</ele><time>2016-09-30T14:30:16Z</time></trkpt>
<trkpt lat="53.0048040000" lon="-4.0996970000"><ele>36</ele><time>2016-09-30T14:30:17Z</time></trkpt>
<trkpt lat="53.0048070000" lon="-4.0997060000"><ele>36</ele><time>2016-09-30T14:30:20Z</time></trkpt>
<trkpt lat="53.0048610000" lon="-4.0998750000"><ele>36</ele><time>2016-09-30T14:30:21Z</time></trkpt>
<trkpt lat="53.0048690000" lon="-4.0998940000"><ele>36</ele><time>2016-09-30T14:30:22Z</time></trkpt>
<trkpt lat="53.0048760000" lon="-4.0999110000"><ele>36</ele><time>2016-09-30T14:30:23Z</time></trkpt>
<trkpt lat="53.0048820000" lon="-4.0999290000"><ele>36</ele><time>2016-09-30T14:30:24Z</time></trkpt>
<trkpt lat="53.0048900000" lon="-4.0999450000"><ele>36</ele><time>2016-09-30T14:30:25Z</time></trkpt>
<trkpt lat="53.0048970000" lon="-4.0999600000"><ele>36</ele><time>2016-09-30T14:30:26Z</time></trkpt>
<trkpt lat="53.0049040000" lon="-4.0999750000"><ele>36</ele><time>2016-09-30T14:30:27Z</time></trkpt>
<trkpt lat="53.0049120000" lon="-4.0999900000"><ele>36</ele><time>2016-09-30T14:30:28Z</time></trkpt>
<trkpt lat="53.0049320000" lon="-4.1000180000"><ele>36</ele><time>2016-09-30T14:30:43Z</time></trkpt>
<trkpt lat="53.0049550000" lon="-4.1000180000"><ele>35</ele><time>2016-09-30T14:30:55Z</time></trkpt>
<trkpt lat="53.0050380000" lon="-4.0999850000"><ele>35</ele><time>2016-09-30T14:30:57Z</time></trkpt>
<trkpt lat="53.0050580000" lon="-4.0999880000"><ele>35</ele><time>2016-09-30T14:31:17Z</time></trkpt>
<trkpt lat="53.0050680000" lon="-4.1000220000"><ele>36</ele><time>2016-09-30T14:31:24Z</time></trkpt>
<trkpt lat="53.0051000000" lon="-4.1000450000"><ele>36</ele><time>2016-09-30T14:31:34Z</time></trkpt>
<trkpt lat="53.0052100000" lon="-4.1000520000"><ele>36</ele><time>2016-09-30T14:31:35Z</time></trkpt>
<trkpt lat="53.0052440000" lon="-4.1000400000"><ele>35</ele><time>2016-09-30T14:31:37Z</time></trkpt>
<trkpt lat="53.0052700000" lon="-4.1000430000"><ele>35</ele><time>2016-09-30T14:31:39Z</time></trkpt>
<trkpt lat="53.0053600000" lon="-4.1000190000"><ele>34</ele><time>2016-09-30T14:31:45Z</time></trkpt>
<trkpt lat="53.0053900000" lon="-4.1000070000"><ele>33</ele><time>2016-09-30T14:31:47Z</time></trkpt>
<trkpt lat="53.0054180000" lon="-4.1000040000"><ele>33</ele><time>2016-09-30T14:31:49Z</time></trkpt>
<trkpt lat="53.0054610000" lon="-4.0999850000"><ele>32</ele><time>2016-09-30T14:31:52Z</time></trkpt>
<trkpt lat="53.0054890000" lon="-4.0999800000"><ele>31</ele><time>2016-09-30T14:31:54Z</time></trkpt>
<trkpt lat="53.0055140000" lon="-4.0999790000"><ele>31</ele><time>2016-09-30T14:31:56Z</time></trkpt>
<trkpt lat="53.0055680000" lon="-4.0999680000"><ele>30</ele><time>2016-09-30T14:32:00Z</time></trkpt>
<trkpt lat="53.0055940000" lon="-4.0999550000"><ele>30</ele><time>2016-09-30T14:32:02Z</time></trkpt>
<trkpt lat="53.0056710000" lon="-4.0999380000"><ele>29</ele><time>2016-09-30T14:32:10Z</time></trkpt>
<trkpt lat="53.0056960000" lon="-4.0999350000"><ele>29</ele><time>2016-09-30T14:32:12Z</time></trkpt>
<trkpt lat="53.0057090000" lon="-4.0999310000"><ele>29</ele><time>2016-09-30T14:32:13Z</time></trkpt>
<trkpt lat="53.0057220000" lon="-4.0999300000"><ele>29</ele><time>2016-09-30T14:32:14Z</time></trkpt>
<trkpt lat="53.0057350000" lon="-4.0999300000"><ele>29</ele><time>2016-09-30T14:32:15Z</time></trkpt>
<trkpt lat="53.0057460000" lon="-4.0999280000"><ele>29</ele><time>2016-09-30T14:32:16Z</time></trkpt>
<trkpt lat="53.0057580000" lon="-4.0999230000"><ele>29</ele><time>2016-09-30T14:32:17Z</time></trkpt>
<trkpt lat="53.0057700000" lon="-4.0999180000"><ele>29</ele><time>2016-09-30T14:32:18Z</time></trkpt>
<trkpt lat="53.0057820000" lon="-4.0999140000"><ele>29</ele><time>2016-09-30T14:32:19Z</time></trkpt>
<trkpt lat="53.0057960000" lon="-4.0999130000"><ele>30</ele><time>2016-09-30T14:32:20Z</time></trkpt>
<trkpt lat="53.0058120000" lon="-4.0999080000"><ele>30</ele><time>2016-09-30T14:32:21Z</time></trkpt>
<trkpt lat="53.0058230000" lon="-4.0999040000"><ele>30</ele><time>2016-09-30T14:32:22Z</time></trkpt>
<trkpt lat="53.0058340000" lon="-4.0998980000"><ele>30</ele><time>2016-09-30T14:32:23Z</time></trkpt>
<trkpt lat="53.0058440000" lon="-4.0998960000"><ele>30</ele><time>2016-09-30T14:32:24Z</time></trkpt>
<trkpt lat="53.0058530000" lon="-4.0998940000"><ele>30</ele><time>2016-09-30T14:32:25Z</time></trkpt>
<trkpt lat="53.0058620000" lon="-4.0998920000"><ele>30</ele><time>2016-09-30T14:32:26Z</time></trkpt>
<trkpt lat="53.0058740000" lon="-4.0998880000"><ele>31</ele><time>2016-09-30T14:32:27Z</time></trkpt>
<trkpt lat="53.0058740000" lon="-4.0998880000"><ele>31</ele><time>2016-09-30T14:32:28Z</time></trkpt>
<trkpt lat="53.0058740000" lon="-4.0998880000"><ele>31</ele><time>2016-09-30T14:32:29Z</time></trkpt>
<trkpt lat="53.0058740000" lon="-4.0998880000"><ele>31</ele><time>2016-09-30T14:32:30Z</time></trkpt>
<trkpt lat="53.0058750000" lon="-4.0998870000"><ele>32</ele><time>2016-09-30T14:32:31Z</time></trkpt>
<trkpt lat="53.0058760000" lon="-4.0998870000"><ele>32</ele><time>2016-09-30T14:32:32Z</time></trkpt>
<trkpt lat="53.0058770000" lon="-4.0998870000"><ele>32</ele><time>2016-09-30T14:32:33Z</time></trkpt>
<trkpt lat="53.0058790000" lon="-4.0998860000"><ele>32</ele><time>2016-09-30T14:32:34Z</time></trkpt>
<trkpt lat="53.0058810000" lon="-4.0998860000"><ele>33</ele><time>2016-09-30T14:32:35Z</time></trkpt>
<trkpt lat="53.0058840000" lon="-4.0998850000"><ele>33</ele><time>2016-09-30T14:32:36Z</time></trkpt>
<trkpt lat="53.0058880000" lon="-4.0998830000"><ele>33</ele><time>2016-09-30T14:32:37Z</time></trkpt>
<trkpt lat="53.0058920000" lon="-4.0998820000"><ele>33</ele><time>2016-09-30T14:32:38Z</time></trkpt>
<trkpt lat="53.0060170000" lon="-4.0998300000"><ele>33</ele><time>2016-09-30T14:32:39Z</time></trkpt>
<trkpt lat="53.0060330000" lon="-4.0998210000"><ele>34</ele><time>2016-09-30T14:32:40Z</time></trkpt>
<trkpt lat="53.0060460000" lon="-4.0998170000"><ele>34</ele><time>2016-09-30T14:32:41Z</time></trkpt>
<trkpt lat="53.0060570000" lon="-4.0998170000"><ele>34</ele><time>2016-09-30T14:32:42Z</time></trkpt>
<trkpt lat="53.0060680000" lon="-4.0998110000"><ele>34</ele><time>2016-09-30T14:32:43Z</time></trkpt>
<trkpt lat="53.0060820000" lon="-4.0998030000"><ele>34</ele><time>2016-09-30T14:32:44Z</time></trkpt>
<trkpt lat="53.0060940000" lon="-4.0997990000"><ele>34</ele><time>2016-09-30T14:32:45Z</time></trkpt>
<trkpt lat="53.0061650000" lon="-4.0997520000"><ele>35</ele><time>2016-09-30T14:32:51Z</time></trkpt>
<trkpt lat="53.0061910000" lon="-4.0997340000"><ele>35</ele><time>2016-09-30T14:32:53Z</time></trkpt>
<trkpt lat="53.0062780000" lon="-4.0996860000"><ele>36</ele><time>2016-09-30T14:33:00Z</time></trkpt>
<trkpt lat="53.0063120000" lon="-4.0996710000"><ele>36</ele><time>2016-09-30T14:33:02Z</time></trkpt>
<trkpt lat="53.0063380000" lon="-4.0996730000"><ele>37</ele><time>2016-09-30T14:33:08Z</time></trkpt>
<trkpt lat="53.0064420000" lon="-4.0996560000"><ele>38</ele><time>2016-09-30T14:33:15Z</time></trkpt>
<trkpt lat="53.0064710000" lon="-4.0996400000"><ele>39</ele><time>2016-09-30T14:33:17Z</time></trkpt>
<trkpt lat="53.0064930000" lon="-4.0996200000"><ele>39</ele><time>2016-09-30T14:33:19Z</time></trkpt>
<trkpt lat="53.0065410000" lon="-4.0995970000"><ele>39</ele><time>2016-09-30T14:33:22Z</time></trkpt>
<trkpt lat="53.0065630000" lon="-4.0995790000"><ele>39</ele><time>2016-09-30T14:33:24Z</time></trkpt>
<trkpt lat="53.0065840000" lon="-4.0995690000"><ele>39</ele><time>2016-09-30T14:33:34Z</time></trkpt>
<trkpt lat="53.0067460000" lon="-4.0995150000"><ele>40</ele><time>2016-09-30T14:33:37Z</time></trkpt>
<trkpt lat="53.0067710000" lon="-4.0995110000"><ele>40</ele><time>2016-09-30T14:33:39Z</time></trkpt>
<trkpt lat="53.0067970000" lon="-4.0995130000"><ele>40</ele><time>2016-09-30T14:33:52Z</time></trkpt>
<trkpt lat="53.0069210000" lon="-4.0994700000"><ele>40</ele><time>2016-09-30T14:33:55Z</time></trkpt>
<trkpt lat="53.0069440000" lon="-4.0994510000"><ele>40</ele><time>2016-09-30T14:33:56Z</time></trkpt>
<trkpt lat="53.0069740000" lon="-4.0994360000"><ele>40</ele><time>2016-09-30T14:33:58Z</time></trkpt>
<trkpt lat="53.0070080000" lon="-4.0994270000"><ele>40</ele><time>2016-09-30T14:34:00Z</time></trkpt>
<trkpt lat="53.0070320000" lon="-4.0994210000"><ele>40</ele><time>2016-09-30T14:34:02Z</time></trkpt>
<trkpt lat="53.0070540000" lon="-4.0994240000"><ele>41</ele><time>2016-09-30T14:34:13Z</time></trkpt>
<trkpt lat="53.0071840000" lon="-4.0993760000"><ele>41</ele><time>2016-09-30T14:34:15Z</time></trkpt>
<trkpt lat="53.0072100000" lon="-4.0993610000"><ele>41</ele><time>2016-09-30T14:34:17Z</time></trkpt>
<trkpt lat="53.0072410000" lon="-4.0993360000"><ele>41</ele><time>2016-09-30T14:34:19Z</time></trkpt>
<trkpt lat="53.0072730000" lon="-4.0993150000"><ele>41</ele><time>2016-09-30T14:34:21Z</time></trkpt>
<trkpt lat="53.0073060000" lon="-4.0992910000"><ele>41</ele><time>2016-09-30T14:34:23Z</time></trkpt>
<trkpt lat="53.0073310000" lon="-4.0992750000"><ele>41</ele><time>2016-09-30T14:34:25Z</time></trkpt>
<trkpt lat="53.0073510000" lon="-4.0992620000"><ele>40</ele><time>2016-09-30T14:34:33Z</time></trkpt>
<trkpt lat="53.0074880000" lon="-4.0991950000"><ele>40</ele><time>2016-09-30T14:34:35Z</time></trkpt>
<trkpt lat="53.0075210000" lon="-4.0991930000"><ele>40</ele><time>2016-09-30T14:34:37Z</time></trkpt>
<trkpt lat="53.0075510000" lon="-4.0991930000"><ele>39</ele><time>2016-09-30T14:34:39Z</time></trkpt>
<trkpt lat="53.0075790000" lon="-4.0991980000"><ele>39</ele><time>2016-09-30T14:34:41Z</time></trkpt>
<trkpt lat="53.0075940000" lon="-4.0992000000"><ele>39</ele><time>2016-09-30T14:34:42Z</time></trkpt>
<trkpt lat="53.0076080000" lon="-4.0992000000"><ele>38</ele><time>2016-09-30T14:34:43Z</time></trkpt>
<trkpt lat="53.0076230000" lon="-4.0992000000"><ele>38</ele><time>2016-09-30T14:34:44Z</time></trkpt>
<trkpt lat="53.0076390000" lon="-4.0992020000"><ele>38</ele><time>2016-09-30T14:34:45Z</time></trkpt>
<trkpt lat="53.0076540000" lon="-4.0992040000"><ele>38</ele><time>2016-09-30T14:34:46Z</time></trkpt>
<trkpt lat="53.0076680000" lon="-4.0992060000"><ele>37</ele><time>2016-09-30T14:34:47Z</time></trkpt>
<trkpt lat="53.0076810000" lon="-4.0992080000"><ele>37</ele><time>2016-09-30T14:34:48Z</time></trkpt>
<trkpt lat="53.0076940000" lon="-4.0992140000"><ele>37</ele><time>2016-09-30T14:34:49Z</time></trkpt>
<trkpt lat="53.0077080000" lon="-4.0992170000"><ele>37</ele><time>2016-09-30T14:34:50Z</time></trkpt>
<trkpt lat="53.0077450000" lon="-4.0992210000"><ele>36</ele><time>2016-09-30T14:34:53Z</time></trkpt>
<trkpt lat="53.0077580000" lon="-4.0992210000"><ele>35</ele><time>2016-09-30T14:34:54Z</time></trkpt>
<trkpt lat="53.0077730000" lon="-4.0992250000"><ele>35</ele><time>2016-09-30T14:34:55Z</time></trkpt>
<trkpt lat="53.0077880000" lon="-4.0992280000"><ele>35</ele><time>2016-09-30T14:34:56Z</time></trkpt>
<trkpt lat="53.0078030000" lon="-4.0992310000"><ele>34</ele><time>2016-09-30T14:34:57Z</time></trkpt>
<trkpt lat="53.0078170000" lon="-4.0992330000"><ele>34</ele><time>2016-09-30T14:34:58Z</time></trkpt>
<trkpt lat="53.0078310000" lon="-4.0992340000"><ele>34</ele><time>2016-09-30T14:34:59Z</time></trkpt>
<trkpt lat="53.0078450000" lon="-4.0992360000"><ele>33</ele><time>2016-09-30T14:35:00Z</time></trkpt>
<trkpt lat="53.0078620000" lon="-4.0992420000"><ele>33</ele><time>2016-09-30T14:35:01Z</time></trkpt>
<trkpt lat="53.0078750000" lon="-4.0992460000"><ele>33</ele><time>2016-09-30T14:35:02Z</time></trkpt>
<trkpt lat="53.0078870000" lon="-4.0992520000"><ele>33</ele><time>2016-09-30T14:35:03Z</time></trkpt>
<trkpt lat="53.0078990000" lon="-4.0992600000"><ele>32</ele><time>2016-09-30T14:35:04Z</time></trkpt>
<trkpt lat="53.0079090000" lon="-4.0992660000"><ele>32</ele><time>2016-09-30T14:35:05Z</time></trkpt>
<trkpt lat="53.0079220000" lon="-4.0992730000"><ele>32</ele><time>2016-09-30T14:35:06Z</time></trkpt>
<trkpt lat="53.0079460000" lon="-4.0992800000"><ele>32</ele><time>2016-09-30T14:35:08Z</time></trkpt>
<trkpt lat="53.0079580000" lon="-4.0992870000"><ele>32</ele><time>2016-09-30T14:35:09Z</time></trkpt>
<trkpt lat="53.0079720000" lon="-4.0992940000"><ele>31</ele><time>2016-09-30T14:35:10Z</time></trkpt>
<trkpt lat="53.0079870000" lon="-4.0993020000"><ele>31</ele><time>2016-09-30T14:35:11Z</time></trkpt>
<trkpt lat="53.0079990000" lon="-4.0993100000"><ele>31</ele><time>2016-09-30T14:35:12Z</time></trkpt>
<trkpt lat="53.0080110000" lon="-4.0993160000"><ele>31</ele><time>2016-09-30T14:35:13Z</time></trkpt>
<trkpt lat="53.0080230000" lon="-4.0993240000"><ele>31</ele><time>2016-09-30T14:35:14Z</time></trkpt>
<trkpt lat="53.0080360000" lon="-4.0993320000"><ele>30</ele><time>2016-09-30T14:35:15Z</time></trkpt>
<trkpt lat="53.0080480000" lon="-4.0993420000"><ele>30</ele><time>2016-09-30T14:35:16Z</time></trkpt>
<trkpt lat="53.0080610000" lon="-4.0993540000"><ele>30</ele><time>2016-09-30T14:35:17Z</time></trkpt>
<trkpt lat="53.0080710000" lon="-4.0993670000"><ele>30</ele><time>2016-09-30T14:35:18Z</time></trkpt>
<trkpt lat="53.0080860000" lon="-4.0993770000"><ele>30</ele><time>2016-09-30T14:35:19Z</time></trkpt>
<trkpt lat="53.0081010000" lon="-4.0993870000"><ele>30</ele><time>2016-09-30T14:35:20Z</time></trkpt>
<trkpt lat="53.0081140000" lon="-4.0993970000"><ele>30</ele><time>2016-09-30T14:35:21Z</time></trkpt>
<trkpt lat="53.0081270000" lon="-4.0994100000"><ele>30</ele><time>2016-09-30T14:35:22Z</time></trkpt>
<trkpt lat="53.0081390000" lon="-4.0994190000"><ele>30</ele><time>2016-09-30T14:35:23Z</time></trkpt>
<trkpt lat="53.0081500000" lon="-4.0994300000"><ele>30</ele><time>2016-09-30T14:35:24Z</time></trkpt>
<trkpt lat="53.0081620000" lon="-4.0994410000"><ele>31</ele><time>2016-09-30T14:35:25Z</time></trkpt>
<trkpt lat="53.0081730000" lon="-4.0994550000"><ele>31</ele><time>2016-09-30T14:35:26Z</time></trkpt>
<trkpt lat="53.0081850000" lon="-4.0994700000"><ele>31</ele><time>2016-09-30T14:35:27Z</time></trkpt>
<trkpt lat="53.0081960000" lon="-4.0994840000"><ele>31</ele><time>2016-09-30T14:35:28Z</time></trkpt>
<trkpt lat="53.0082070000" lon="-4.0994970000"><ele>31</ele><time>2016-09-30T14:35:29Z</time></trkpt>
<trkpt lat="53.0082170000" lon="-4.0995090000"><ele>30</ele><time>2016-09-30T14:35:30Z</time></trkpt>
<trkpt lat="53.0082290000" lon="-4.0995200000"><ele>30</ele><time>2016-09-30T14:35:31Z</time></trkpt>
<trkpt lat="53.0082410000" lon="-4.0995330000"><ele>30</ele><time>2016-09-30T14:35:32Z</time></trkpt>
<trkpt lat="53.0082530000" lon="-4.0995440000"><ele>30</ele><time>2016-09-30T14:35:33Z</time></trkpt>
<trkpt lat="53.0082660000" lon="-4.0995530000"><ele>30</ele><time>2016-09-30T14:35:34Z</time></trkpt>
<trkpt lat="53.0082780000" lon="-4.0995610000"><ele>30</ele><time>2016-09-30T14:35:35Z</time></trkpt>
<trkpt lat="53.0082890000" lon="-4.0995700000"><ele>30</ele><time>2016-09-30T14:35:36Z</time></trkpt>
<trkpt lat="53.0082990000" lon="-4.0995810000"><ele>30</ele><time>2016-09-30T14:35:37Z</time></trkpt>
<trkpt lat="53.0083110000" lon="-4.0995930000"><ele>30</ele><time>2016-09-30T14:35:38Z</time></trkpt>
<trkpt lat="53.0083210000" lon="-4.0996060000"><ele>29</ele><time>2016-09-30T14:35:39Z</time></trkpt>
<trkpt lat="53.0083310000" lon="-4.0996170000"><ele>29</ele><time>2016-09-30T14:35:40Z</time></trkpt>
<trkpt lat="53.0083420000" lon="-4.0996270000"><ele>29</ele><time>2016-09-30T14:35:41Z</time></trkpt>
<trkpt lat="53.0083540000" lon="-4.0996390000"><ele>29</ele><time>2016-09-30T14:35:42Z</time></trkpt>
<trkpt lat="53.0083660000" lon="-4.0996500000"><ele>29</ele><time>2016-09-30T14:35:43Z</time></trkpt>
<trkpt lat="53.0083750000" lon="-4.0996590000"><ele>29</ele><time>2016-09-30T14:35:44Z</time></trkpt>
<trkpt lat="53.0083850000" lon="-4.0996700000"><ele>29</ele><time>2016-09-30T14:35:45Z</time></trkpt>
<trkpt lat="53.0083850000" lon="-4.0996700000"><ele>29</ele><time>2016-09-30T14:35:46Z</time></trkpt>
<trkpt lat="53.0083850000" lon="-4.0996700000"><ele>30</ele><time>2016-09-30T14:35:47Z</time></trkpt>
<trkpt lat="53.0083850000" lon="-4.0996710000"><ele>30</ele><time>2016-09-30T14:35:48Z</time></trkpt>
<trkpt lat="53.0084060000" lon="-4.0996890000"><ele>31</ele><time>2016-09-30T14:35:58Z</time></trkpt>
<trkpt lat="53.0084250000" lon="-4.0997080000"><ele>31</ele><time>2016-09-30T14:36:02Z</time></trkpt>
<trkpt lat="53.0084440000" lon="-4.0997270000"><ele>31</ele><time>2016-09-30T14:36:05Z</time></trkpt>
<trkpt lat="53.0086090000" lon="-4.0998920000"><ele>31</ele><time>2016-09-30T14:36:07Z</time></trkpt>
<trkpt lat="53.0086310000" lon="-4.0999130000"><ele>31</ele><time>2016-09-30T14:36:09Z</time></trkpt>
<trkpt lat="53.0087340000" lon="-4.0999560000"><ele>32</ele><time>2016-09-30T14:36:17Z</time></trkpt>
<trkpt lat="53.0087580000" lon="-4.0999660000"><ele>32</ele><time>2016-09-30T14:36:19Z</time></trkpt>
<trkpt lat="53.0087860000" lon="-4.0999750000"><ele>32</ele><time>2016-09-30T14:36:22Z</time></trkpt>
<trkpt lat="53.0088070000" lon="-4.0999760000"><ele>33</ele><time>2016-09-30T14:36:31Z</time></trkpt>
<trkpt lat="53.0088680000" lon="-4.0999990000"><ele>33</ele><time>2016-09-30T14:36:35Z</time></trkpt>
<trkpt lat="53.0088930000" lon="-4.0999910000"><ele>33</ele><time>2016-09-30T14:36:36Z</time></trkpt>
<trkpt lat="53.0089150000" lon="-4.1000000000"><ele>33</ele><time>2016-09-30T14:36:38Z</time></trkpt>
<trkpt lat="53.0090180000" lon="-4.1000220000"><ele>32</ele><time>2016-09-30T14:36:46Z</time></trkpt>
<trkpt lat="53.0090420000" lon="-4.1000290000"><ele>32</ele><time>2016-09-30T14:36:48Z</time></trkpt>
<trkpt lat="53.0090620000" lon="-4.1000310000"><ele>30</ele><time>2016-09-30T14:36:55Z</time></trkpt>
<trkpt lat="53.0090840000" lon="-4.1000350000"><ele>30</ele><time>2016-09-30T14:37:01Z</time></trkpt>
<trkpt lat="53.0090890000" lon="-4.1000360000"><ele>30</ele><time>2016-09-30T14:37:02Z</time></trkpt>
<trkpt lat="53.0090950000" lon="-4.1000370000"><ele>29</ele><time>2016-09-30T14:37:03Z</time></trkpt>
<trkpt lat="53.0092620000" lon="-4.1000610000"><ele>29</ele><time>2016-09-30T14:37:04Z</time></trkpt>
<trkpt lat="53.0092760000" lon="-4.1000610000"><ele>29</ele><time>2016-09-30T14:37:05Z</time></trkpt>
<trkpt lat="53.0092870000" lon="-4.1000560000"><ele>29</ele><time>2016-09-30T14:37:06Z</time></trkpt>
<trkpt lat="53.0093020000" lon="-4.1000550000"><ele>29</ele><time>2016-09-30T14:37:07Z</time></trkpt>
<trkpt lat="53.0093170000" lon="-4.1000580000"><ele>29</ele><time>2016-09-30T14:37:08Z</time></trkpt>
<trkpt lat="53.0093310000" lon="-4.1000600000"><ele>28</ele><time>2016-09-30T14:37:09Z</time></trkpt>
<trkpt lat="53.0093460000" lon="-4.1000630000"><ele>28</ele><time>2016-09-30T14:37:10Z</time></trkpt>
<trkpt lat="53.0093600000" lon="-4.1000680000"><ele>28</ele><time>2016-09-30T14:37:11Z</time></trkpt>
<trkpt lat="53.0093730000" lon="-4.1000690000"><ele>28</ele><time>2016-09-30T14:37:12Z</time></trkpt>
<trkpt lat="53.0093880000" lon="-4.1000720000"><ele>28</ele><time>2016-09-30T14:37:13Z</time></trkpt>
<trkpt lat="53.0094030000" lon="-4.1000730000"><ele>28</ele><time>2016-09-30T14:37:14Z</time></trkpt>
<trkpt lat="53.0094170000" lon="-4.1000720000"><ele>28</ele><time>2016-09-30T14:37:15Z</time></trkpt>
<trkpt lat="53.0094310000" lon="-4.1000720000"><ele>28</ele><time>2016-09-30T14:37:16Z</time></trkpt>
<trkpt lat="53.0094460000" lon="-4.1000730000"><ele>28</ele><time>2016-09-30T14:37:17Z</time></trkpt>
<trkpt lat="53.0094590000" lon="-4.1000740000"><ele>28</ele><time>2016-09-30T14:37:18Z</time></trkpt>
<trkpt lat="53.0094720000" lon="-4.1000750000"><ele>28</ele><time>2016-09-30T14:37:19Z</time></trkpt>
<trkpt lat="53.0094860000" lon="-4.1000770000"><ele>28</ele><time>2016-09-30T14:37:20Z</time></trkpt>
<trkpt lat="53.0094990000" lon="-4.1000770000"><ele>28</ele><time>2016-09-30T14:37:21Z</time></trkpt>
<trkpt lat="53.0095130000" lon="-4.1000790000"><ele>28</ele><time>2016-09-30T14:37:22Z</time></trkpt>
<trkpt lat="53.0095270000" lon="-4.1000870000"><ele>28</ele><time>2016-09-30T14:37:23Z</time></trkpt>
<trkpt lat="53.0095400000" lon="-4.1000890000"><ele>28</ele><time>2016-09-30T14:37:24Z</time></trkpt>
<trkpt lat="53.0095550000" lon="-4.1000940000"><ele>28</ele><time>2016-09-30T14:37:25Z</time></trkpt>
<trkpt lat="53.0095690000" lon="-4.1000950000"><ele>28</ele><time>2016-09-30T14:37:26Z</time></trkpt>
<trkpt lat="53.0095820000" lon="-4.1000940000"><ele>28</ele><time>2016-09-30T14:37:27Z</time></trkpt>
<trkpt lat="53.0095960000" lon="-4.1000960000"><ele>28</ele><time>2016-09-30T14:37:28Z</time></trkpt>
<trkpt lat="53.0096090000" lon="-4.1001000000"><ele>28</ele><time>2016-09-30T14:37:29Z</time></trkpt>
<trkpt lat="53.0096230000" lon="-4.1001050000"><ele>28</ele><time>2016-09-30T14:37:30Z</time></trkpt>
<trkpt lat="53.0096360000" lon="-4.1001060000"><ele>29</ele><time>2016-09-30T14:37:31Z</time></trkpt>
<trkpt lat="53.0096630000" lon="-4.1001140000"><ele>29</ele><time>2016-09-30T14:37:34Z</time></trkpt>
<trkpt lat="53.0096770000" lon="-4.1001180000"><ele>29</ele></trkpt>
<trkpt lat="53.0096870000" lon="-4.1001130000"><ele>29</ele><time>2016-09-30T14:37:35Z</time></trkpt>
<trkpt lat="53.0096960000" lon="-4.1001070000"><ele>29</ele><time>2016-09-30T14:37:36Z</time></trkpt>
<trkpt lat="53.0097080000" lon="-4.1001050000"><ele>29</ele><time>2016-09-30T14:37:37Z</time></trkpt>
<trkpt lat="53.0097210000" lon="-4.1001070000"><ele>29</ele><time>2016-09-30T14:37:38Z</time></trkpt>
<trkpt lat="53.0097330000" lon="-4.1001100000"><ele>29</ele><time>2016-09-30T14:37:39Z</time></trkpt>
<trkpt lat="53.0097450000" lon="-4.1001140000"><ele>29</ele><time>2016-09-30T14:37:40Z</time></trkpt>
<trkpt lat="53.0097560000" lon="-4.1001130000"><ele>29</ele><time>2016-09-30T14:37:41Z</time></trkpt>
<trkpt lat="53.0097700000" lon="-4.1001120000"><ele>29</ele><time>2016-09-30T14:37:42Z</time></trkpt>
<trkpt lat="53.0097840000" lon="-4.1001120000"><ele>29</ele><time>2016-09-30T14:37:43Z</time></trkpt>
<trkpt lat="53.0097960000" lon="-4.1001140000"><ele>29</ele><time>2016-09-30T14:37:44Z</time></trkpt>
<trkpt lat="53.0098100000" lon="-4.1001200000"><ele>29</ele><time>2016-09-30T14:37:45Z</time></trkpt>
<trkpt lat="53.0098240000" lon="-4.1001260000"><ele>29</ele><time>2016-09-30T14:37:46Z</time></trkpt>
<trkpt lat="53.0098380000" lon="-4.1001330000"><ele>29</ele><time>2016-09-30T14:37:47Z</time></trkpt>
<trkpt lat="53.0098510000" lon="-4.1001410000"><ele>29</ele><time>2016-09-30T14:37:48Z</time></trkpt>
<trkpt lat="53.0098640000" lon="-4.1001440000"><ele>29</ele><time>2016-09-30T14:37:49Z</time></trkpt>
<trkpt lat="53.0098790000" lon="-4.1001470000"><ele>29</ele><time>2016-09-30T14:37:50Z</time></trkpt>
<trkpt lat="53.0098920000" lon="-4.1001520000"><ele>29</ele><time>2016-09-30T14:37:51Z</time></trkpt>
<trkpt lat="53.0099060000" lon="-4.1001580000"><ele>29</ele><time>2016-09-30T14:37:52Z</time></trkpt>
<trkpt lat="53.0099200000" lon="-4.1001620000"><ele>29</ele><time>2016-09-30T14:37:53Z</time></trkpt>
<trkpt lat="53.0099320000" lon="-4.1001630000"><ele>29</ele><time>2016-09-30T14:37:54Z</time></trkpt>
<trkpt lat="53.0099440000" lon="-4.1001670000"><ele>29</ele><time>2016-09-30T14:37:55Z</time></trkpt>
<trkpt lat="53.0099580000" lon="-4.1001680000"><ele>29</ele><time>2016-09-30T14:37:56Z</time></trkpt>
<trkpt lat="53.0099720000" lon="-4.1001740000"><ele>29</ele><time>2016-09-30T14:37:57Z</time></trkpt>
<trkpt lat="53.0099990000" lon="-4.1001880000"><ele>29</ele><time>2016-09-30T14:37:59Z</time></trkpt>
<trkpt lat="53.0100120000" lon="-4.1001920000"><ele>30</ele><time>2016-09-30T14:38:00Z</time></trkpt>
<trkpt lat="53.0100260000" lon="-4.1001970000"><ele>30</ele><time>2016-09-30T14:38:01Z</time></trkpt>
<trkpt lat="53.0100400000" lon="-4.1002050000"><ele>30</ele><time>2016-09-30T14:38:02Z</time></trkpt>
<trkpt lat="53.0100540000" lon="-4.1002150000"><ele>30</ele><time>2016-09-30T14:38:03Z</time></trkpt>
<trkpt lat="53.0100660000" lon="-4.1002250000"><ele>30</ele><time>2016-09-30T14:38:04Z</time></trkpt>
<trkpt lat="53.0100760000" lon="-4.1002310000"><ele>30</ele><time>2016-09-30T14:38:05Z</time></trkpt>
<trkpt lat="53.0100860000" lon="-4.1002360000"><ele>30</ele><time>2016-09-30T14:38:06Z</time></trkpt>
<trkpt lat="53.0100970000" lon="-4.1002440000"><ele>30</ele><time>2016-09-30T14:38:07Z</time></trkpt>
<trkpt lat="53.0101080000" lon="-4.1002540000"><ele>30</ele><time>2016-09-30T14:38:08Z</time></trkpt>
<trkpt lat="53.0101180000" lon="-4.1002630000"><ele>30</ele><time>2016-09-30T14:38:09Z</time></trkpt>
<trkpt lat="53.0101290000" lon="-4.1002720000"><ele>30</ele><time>2016-09-30T14:38:10Z</time></trkpt>
<trkpt lat="53.0101400000" lon="-4.1002770000"><ele>30</ele><time>2016-09-30T14:38:11Z</time></trkpt>
<trkpt lat="53.0101530000" lon="-4.1002820000"><ele>31</ele><time>2016-09-30T14:38:12Z</time></trkpt>
<trkpt lat="53.0101640000" lon="-4.1002880000"><ele>31</ele><time>2016-09-30T14:38:13Z</time></trkpt>
<trkpt lat="53.0101750000" lon="-4.1002920000"><ele>31</ele><time>2016-09-30T14:38:14Z</time></trkpt>
<trkpt lat="53.0101860000" lon="-4.1002970000"><ele>31</ele><time>2016-09-30T14:38:15Z</time></trkpt>
<trkpt lat="53.0101860000" lon="-4.1002970000"><ele>31</ele><time>2016-09-30T14:38:16Z</time></trkpt>
<trkpt lat="53.0101870000" lon="-4.1002970000"><ele>31</ele><time>2016-09-30T14:38:17Z</time></trkpt>
<trkpt lat="53.0101870000" lon="-4.1002970000"><ele>31</ele><time>2016-09-30T14:38:18Z</time></trkpt>
<trkpt lat="53.0101880000" lon="-4.1002970000"><ele>31</ele><time>2016-09-30T14:38:19Z</time></trkpt>
<trkpt lat="53.0101890000" lon="-4.1002970000"><ele>31</ele><time>2016-09-30T14:38:20Z</time></trkpt>
<trkpt lat="53.0101910000" lon="-4.1002980000"><ele>31</ele><time>2016-09-30T14:38:21Z</time></trkpt>
<trkpt lat="53.0102720000" lon="-4.1003170000"><ele>31</ele><time>2016-09-30T14:38:22Z</time></trkpt>
<trkpt lat="53.0102850000" lon="-4.1003250000"><ele>32</ele><time>2016-09-30T14:38:23Z</time></trkpt>
<trkpt lat="53.0103000000" lon="-4.1003300000"><ele>32</ele><time>2016-09-30T14:38:24Z</time></trkpt>
<trkpt lat="53.0103120000" lon="-4.1003380000"><ele>32</ele><time>2016-09-30T14:38:25Z</time></trkpt>
<trkpt lat="53.0103250000" lon="-4.1003460000"><ele>32</ele><time>2016-09-30T14:38:26Z</time></trkpt>
<trkpt lat="53.0103380000" lon="-4.1003530000"><ele>32</ele><time>2016-09-30T14:38:27Z</time></trkpt>
<trkpt lat="53.0103520000" lon="-4.1003580000"><ele>32</ele><time>2016-09-30T14:38:28Z</time></trkpt>
<trkpt lat="53.0103630000" lon="-4.1003660000"><ele>32</ele><time>2016-09-30T14:38:29Z</time></trkpt>
<trkpt lat="53.0103760000" lon="-4.1003770000"><ele>32</ele><time>2016-09-30T14:38:30Z</time></trkpt>
<trkpt lat="53.0103860000" lon="-4.1003860000"><ele>32</ele><time>2016-09-30T14:38:31Z</time></trkpt>
<trkpt lat="53.0103980000" lon="-4.1003920000"><ele>32</ele><time>2016-09-30T14:38:32Z</time></trkpt>
<trkpt lat="53.0104110000" lon="-4.1004000000"><ele>32</ele><time>2016-09-30T14:38:33Z</time></trkpt>
<trkpt lat="53.0104240000" lon="-4.1004100000"><ele>32</ele><time>2016-09-30T14:38:34Z</time></trkpt>
<trkpt lat="53.0104380000" lon="-4.1004190000"><ele>32</ele><time>2016-09-30T14:38:35Z</time></trkpt>
<trkpt lat="53.0104500000" lon="-4.1004270000"><ele>32</ele><time>2016-09-30T14:38:36Z</time></trkpt>
<trkpt lat="53.0104590000" lon="-4.1004370000"><ele>32</ele><time>2016-09-30T14:38:37Z</time></trkpt>
<trkpt lat="53.0104700000" lon="-4.1004450000"><ele>32</ele><time>2016-09-30T14:38:38Z</time></trkpt>
<trkpt lat="53.0104830000" lon="-4.1004520000"><ele>32</ele><time>2016-09-30T14:38:39Z</time></trkpt>
<trkpt lat="53.0104960000" lon="-4.1004580000"><ele>32</ele><time>2016-09-30T14:38:40Z</time></trkpt>
<trkpt lat="53.0105080000" lon="-4.1004650000"><ele>32</ele><time>2016-09-30T14:38:41Z</time></trkpt>
<trkpt lat="53.0105200000" lon="-4.1004710000"><ele>31</ele><time>2016-09-30T14:38:42Z</time></trkpt>
<trkpt lat="53.0105330000" lon="-4.1004760000"><ele>31</ele><time>2016-09-30T14:38:43Z</time></trkpt>
<trkpt lat="53.0105470000" lon="-4.1004820000"><ele>31</ele><time>2016-09-30T14:38:44Z</time></trkpt>
<trkpt lat="53.0105600000" lon="-4.1004880000"><ele>31</ele><time>2016-09-30T14:38:45Z</time></trkpt>
<trkpt lat="53.0105730000" lon="-4.1004920000"><ele>31</ele><time>2016-09-30T14:38:46Z</time></trkpt>
<trkpt lat="53.0105870000" lon="-4.1004970000"><ele>31</ele><time>2016-09-30T14:38:47Z</time></trkpt>
<trkpt lat="53.0106010000" lon="-4.1005010000"><ele>31</ele><time>2016-09-30T14:38:48Z</time></trkpt>
<trkpt lat="53.0106140000" lon="-4.1005020000"><ele>31</ele><time>2016-09-30T14:38:49Z</time></trkpt>
<trkpt lat="53.0106260000" lon="-4.1005010000"><ele>31</ele><time>2016-09-30T14:38:50Z</time></trkpt>
<trkpt lat="53.0106390000" lon="-4.1005080000"><ele>31</ele><time>2016-09-30T14:38:51Z</time></trkpt>
<trkpt lat="53.0106540000" lon="-4.1005180000"><ele>32</ele><time>2016-09-30T14:38:52Z</time></trkpt>
<trkpt lat="53.0106680000" lon="-4.1005230000"><ele>32</ele><time>2016-09-30T14:38:53Z</time></trkpt>
<trkpt lat="53.0106810000" lon="-4.1005230000"><ele>32</ele><time>2016-09-30T14:38:54Z</time></trkpt>
<trkpt lat="53.0106940000" lon="-4.1005230000"><ele>32</ele><time>2016-09-30T14:38:55Z</time></trkpt>
<trkpt lat="53.0107080000" lon="-4.1005230000"><ele>32</ele><time>2016-09-30T14:38:56Z</time></trkpt>
<trkpt lat="53.0107220000" lon="-4.1005260000"><ele>32</ele><time>2016-09-30T14:38:57Z</time></trkpt>
<trkpt lat="53.0107500000" lon="-4.1005290000"><ele>32</ele><time>2016-09-30T14:38:59Z</time></trkpt>
<trkpt lat="53.0107650000" lon="-4.1005300000"><ele>32</ele><time>2016-09-30T14:39:00Z</time></trkpt>
<trkpt lat="53.0107770000" lon="-4.1005300000"><ele>32</ele><time>2016-09-30T14:39:01Z</time></trkpt>
<trkpt lat="53.0107890000" lon="-4.1005300000"><ele>32</ele><time>2016-09-30T14:39:02Z</time></trkpt>
<trkpt lat="53.0108030000" lon="-4.1005260000"><ele>32</ele><time>2016-09-30T14:39:03Z</time></trkpt>
<trkpt lat="53.0108180000" lon="-4.1005220000"><ele>32</ele><time>2016-09-30T14:39:04Z</time></trkpt>
<trkpt lat="53.0108310000" lon="-4.1005170000"><ele>33</ele><time>2016-09-30T14:39:05Z</time></trkpt>
<trkpt lat="53.0108450000" lon="-4.1005080000"><ele>33</ele><time>2016-09-30T14:39:06Z</time></trkpt>
<trkpt lat="53.0108590000" lon="-4.1005030000"><ele>33</ele><time>2016-09-30T14:39:07Z</time></trkpt>
<trkpt lat="53.0108730000" lon="-4.1004980000"><ele>33</ele><time>2016-09-30T14:39:08Z</time></trkpt>
<trkpt lat="53.0108860000" lon="-4.1004940000"><ele>33</ele><time>2016-09-30T14:39:09Z</time></trkpt>
<trkpt lat="53.0108980000" lon="-4.1004870000"><ele>33</ele><time>2016-09-30T14:39:10Z</time></trkpt>
<trkpt lat="53.0109100000" lon="-4.1004850000"><ele>33</ele><time>2016-09-30T14:39:11Z</time></trkpt>
<trkpt lat="53.0109240000" lon="-4.1004860000"><ele>34</ele><time>2016-09-30T14:39:12Z</time></trkpt>
<trkpt lat="53.0109370000" lon="-4.1004860000"><ele>34</ele><time>2016-09-30T14:39:13Z</time></trkpt>
<trkpt lat="53.0109500000" lon="-4.1004910000"><ele>34</ele><time>2016-09-30T14:39:14Z</time></trkpt>
<trkpt lat="53.0109630000" lon="-4.1004940000"><ele>34</ele><time>2016-09-30T14:39:15Z</time></trkpt>
<trkpt lat="53.0110050000" lon="-4.1005050000"><ele>35</ele><time>2016-09-30T14:39:18Z</time></trkpt>
<trkpt lat="53.0110180000" lon="-4.1005140000"><ele>35</ele><time>2016-09-30T14:39:19Z</time></trkpt>
<trkpt lat="53.0110320000" lon="-4.1005240000"><ele>35</ele><time>2016-09-30T14:39:20Z</time></trkpt>
<trkpt lat="53.0110440000" lon="-4.1005330000"><ele>35</ele><time>2016-09-30T14:39:21Z</time></trkpt>
<trkpt lat="53.0110560000" lon="-4.1005430000"><ele>35</ele><time>2016-09-30T14:39:22Z</time></trkpt>
<trkpt lat="53.0110650000" lon="-4.1005490000"><ele>35</ele><time>2016-09-30T14:39:23Z</time></trkpt>
<trkpt lat="53.0110710000" lon="-4.1005560000"><ele>36</ele><time>2016-09-30T14:39:24Z</time></trkpt>
<trkpt lat="53.0110710000" lon="-4.1005560000"><ele>36</ele><time>2016-09-30T14:39:26Z</time></trkpt>
<trkpt lat="53.0110710000" lon="-4.1005560000"><ele>36</ele><time>2016-09-30T14:39:27Z</time></trkpt>
<trkpt lat="53.0110720000" lon="-4.1005560000"><ele>36</ele><time>2016-09-30T14:39:28Z</time></trkpt>
<trkpt lat="53.0110720000" lon="-4.1005560000"><ele>36</ele><time>2016-09-30T14:39:29Z</time></trkpt>
<trkpt lat="53.0110730000" lon="-4.1005570000"><ele>36</ele><time>2016-09-30T14:39:30Z</time></trkpt>
<trkpt lat="53.0110740000" lon="-4.1005570000"><ele>36</ele><time>2016-09-30T14:39:31Z</time></trkpt>
<trkpt lat="53.0110760000" lon="-4.1005580000"><ele>36</ele><time>2016-09-30T14:39:32Z</time></trkpt>
<trkpt lat="53.0110770000" lon="-4.1005590000"><ele>36</ele><time>2016-09-30T14:39:33Z</time></trkpt>
<trkpt lat="53.0110800000" lon="-4.1005600000"><ele>36</ele><time>2016-09-30T14:39:34Z</time></trkpt>
<trkpt lat="53.0110830000" lon="-4.1005600000"><ele>35</ele><time>2016-09-30T14:39:35Z</time></trkpt>
<trkpt lat="53.0110860000" lon="-4.1005610000"><ele>35</ele><time>2016-09-30T14:39:36Z</time></trkpt>
<trkpt lat="53.0110900000" lon="-4.1005630000"><ele>35</ele><time>2016-09-30T14:39:37Z</time></trkpt>
<trkpt lat="53.0110930000" lon="-4.1005640000"><ele>35</ele><time>2016-09-30T14:39:38Z</time></trkpt>
<trkpt lat="53.0110980000" lon="-4.1005650000"><ele>35</ele><time>2016-09-30T14:39:39Z</time></trkpt>
<trkpt lat="53.0111030000" lon="-4.1005680000"><ele>35</ele><time>2016-09-30T14:39:40Z</time></trkpt>
<trkpt lat="53.0111090000" lon="-4.1005700000"><ele>34</ele><time>2016-09-30T14:39:41Z</time></trkpt>
<trkpt lat="53.0111150000" lon="-4.1005730000"><ele>34</ele><time>2016-09-30T14:39:42Z</time></trkpt>
<trkpt lat="53.0111210000" lon="-4.1005760000"><ele>34</ele><time>2016-09-30T14:39:43Z</time></trkpt>
<trkpt lat="53.0111280000" lon="-4.1005800000"><ele>34</ele><time>2016-09-30T14:39:44Z</time></trkpt>
<trkpt lat="53.0111350000" lon="-4.1005840000"><ele>34</ele><time>2016-09-30T14:39:45Z</time></trkpt>
<trkpt lat="53.0111420000" lon="-4.1005880000"><ele>34</ele><time>2016-09-30T14:39:46Z</time></trkpt>
<trkpt lat="53.0111500000" lon="-4.1005910000"><ele>34</ele><time>2016-09-30T14:39:47Z</time></trkpt>
<trkpt lat="53.0111570000" lon="-4.1005940000"><ele>34</ele><time>2016-09-30T14:39:48Z</time></trkpt>
<trkpt lat="53.0111640000" lon="-4.1005970000"><ele>35</ele><time>2016-09-30T14:39:49Z</time></trkpt>
<trkpt lat="53.0113400000" lon="-4.1006630000"><ele>35</ele><time>2016-09-30T14:39:50Z</time></trkpt>
<trkpt lat="53.0113610000" lon="-4.1006710000"><ele>35</ele><time>2016-09-30T14:39:53Z</time></trkpt>
<trkpt lat="53.0113880000" lon="-4.1006870000"><ele>37</ele><time>2016-09-30T14:40:07Z</time></trkpt>
<trkpt lat="53.0115340000" lon="-4.1007910000"><ele>37</ele><time>2016-09-30T14:40:20Z</time></trkpt>
<trkpt lat="53.0115630000" lon="-4.1009420000"><ele>37</ele><time>2016-09-30T14:40:22Z</time></trkpt>
<trkpt lat="53.0115450000" lon="-4.1010110000"><ele>39</ele><time>2016-09-30T14:40:40Z</time></trkpt>
<trkpt lat="53.0115200000" lon="-4.1011440000"><ele>39</ele><time>2016-09-30T14:40:43Z</time></trkpt>
<trkpt lat="53.0115140000" lon="-4.1011860000"><ele>40</ele><time>2016-09-30T14:40:47Z</time></trkpt>
<trkpt lat="53.0115140000" lon="-4.1011880000"><ele>39</ele><time>2016-09-30T14:40:50Z</time></trkpt>
<trkpt lat="53.0115140000" lon="-4.1011890000"><ele>39</ele><time>2016-09-30T14:40:51Z</time></trkpt>
<trkpt lat="53.0115140000" lon="-4.1011910000"><ele>39</ele><time>2016-09-30T14:40:52Z</time></trkpt>
<trkpt lat="53.0115140000" lon="-4.1011930000"><ele>39</ele><time>2016-09-30T14:40:53Z</time></trkpt>
<trkpt lat="53.0115150000" lon="-4.1011960000"><ele>39</ele><time>2016-09-30T14:40:54Z</time></trkpt>
<trkpt lat="53.0115150000" lon="-4.1012010000"><ele>38</ele><time>2016-09-30T14:40:55Z</time></trkpt>
<trkpt lat="53.0115160000" lon="-4.1012050000"><ele>38</ele><time>2016-09-30T14:40:56Z</time></trkpt>
<trkpt lat="53.0115160000" lon="-4.1012110000"><ele>38</ele><time>2016-09-30T14:40:57Z</time></trkpt>
<trkpt lat="53.0115170000" lon="-4.1012170000"><ele>38</ele><time>2016-09-30T14:40:58Z</time></trkpt>
<trkpt lat="53.0115180000" lon="-4.1012230000"><ele>38</ele><time>2016-09-30T14:40:59Z</time></trkpt>
<trkpt lat="53.0115190000" lon="-4.1012310000"><ele>37</ele><time>2016-09-30T14:41:00Z</time></trkpt>
<trkpt lat="53.0115200000" lon="-4.1012400000"><ele>37</ele><time>2016-09-30T14:41:01Z</time></trkpt>
<trkpt lat="53.0115570000" lon="-4.1014630000"><ele>37</ele><time>2016-09-30T14:41:02Z</time></trkpt>
<trkpt lat="53.0115600000" lon="-4.1014860000"><ele>37</ele><time>2016-09-30T14:41:03Z</time></trkpt>
<trkpt lat="53.0115650000" lon="-4.1015070000"><ele>37</ele><time>2016-09-30T14:41:04Z</time></trkpt>
<trkpt lat="53.0115660000" lon="-4.1015230000"><ele>37</ele><time>2016-09-30T14:41:05Z</time></trkpt>
<trkpt lat="53.0115690000" lon="-4.1015380000"><ele>37</ele><time>2016-09-30T14:41:06Z</time></trkpt>
<trkpt lat="53.0115740000" lon="-4.1015560000"><ele>37</ele><time>2016-09-30T14:41:07Z</time></trkpt>
<trkpt lat="53.0115740000" lon="-4.1015560000"><ele>37</ele><time>2016-09-30T14:41:08Z</time></trkpt>
<trkpt lat="53.0115740000" lon="-4.1015570000"><ele>37</ele><time>2016-09-30T14:41:09Z</time></trkpt>
<trkpt lat="53.0115800000" lon="-4.1015900000"><ele>38</ele><time>2016-09-30T14:41:19Z</time></trkpt>
<trkpt lat="53.0116220000" lon="-4.1018220000"><ele>39</ele><time>2016-09-30T14:41:22Z</time></trkpt>
<trkpt lat="53.0116410000" lon="-4.1018550000"><ele>40</ele><time>2016-09-30T14:41:24Z</time></trkpt>
<trkpt lat="53.0116470000" lon="-4.1018930000"><ele>41</ele><time>2016-09-30T14:41:26Z</time></trkpt>
<trkpt lat="53.0116460000" lon="-4.1019170000"><ele>42</ele><time>2016-09-30T14:41:32Z</time></trkpt>
<trkpt lat="53.0116460000" lon="-4.1019200000"><ele>42</ele><time>2016-09-30T14:41:33Z</time></trkpt>
<trkpt lat="53.0116460000" lon="-4.1019230000"><ele>42</ele><time>2016-09-30T14:41:34Z</time></trkpt>
<trkpt lat="53.0116460000" lon="-4.1019270000"><ele>42</ele><time>2016-09-30T14:41:35Z</time></trkpt>
<trkpt lat="53.0116460000" lon="-4.1019320000"><ele>42</ele><time>2016-09-30T14:41:36Z</time></trkpt>
<trkpt lat="53.0116430000" lon="-4.1021120000"><ele>42</ele><time>2016-09-30T14:41:37Z</time></trkpt>
<trkpt lat="53.0116420000" lon="-4.1021280000"><ele>42</ele><time>2016-09-30T14:41:38Z</time></trkpt>
<trkpt lat="53.0116450000" lon="-4.1021670000"><ele>42</ele><time>2016-09-30T14:41:41Z</time></trkpt>
<trkpt lat="53.0116470000" lon="-4.1021810000"><ele>42</ele></trkpt>
<trkpt lat="53.0116480000" lon="-4.1022010000"><ele>42</ele><time>2016-09-30T14:41:42Z</time></trkpt>
<trkpt lat="53.0116480000" lon="-4.1022300000"><ele>42</ele><time>2016-09-30T14:41:43Z</time></trkpt>
<trkpt lat="53.0116500000" lon="-4.1022540000"><ele>42</ele><time>2016-09-30T14:41:44Z</time></trkpt>
<trkpt lat="53.0116540000" lon="-4.1022700000"><ele>43</ele><time>2016-09-30T14:41:45Z</time></trkpt>
<trkpt lat="53.0116610000" lon="-4.1023120000"><ele>42</ele><time>2016-09-30T14:41:57Z</time></trkpt>
<trkpt lat="53.0116960000" lon="-4.1025260000"><ele>42</ele><time>2016-09-30T14:41:58Z</time></trkpt>
<trkpt lat="53.0116840000" lon="-4.1027160000"><ele>43</ele><time>2016-09-30T14:42:09Z</time></trkpt>
<trkpt lat="53.0116760000" lon="-4.1028230000"><ele>44</ele><time>2016-09-30T14:42:16Z</time></trkpt>
<trkpt lat="53.0116300000" lon="-4.1029830000"><ele>46</ele><time>2016-09-30T14:42:29Z</time></trkpt>
<trkpt lat="53.0116180000" lon="-4.1030360000"><ele>46</ele><time>2016-09-30T14:42:32Z</time></trkpt>
<trkpt lat="53.0116090000" lon="-4.1030870000"><ele>47</ele><time>2016-09-30T14:42:40Z</time></trkpt>
<trkpt lat="53.0116000000" lon="-4.1031380000"><ele>47</ele><time>2016-09-30T14:42:51Z</time></trkpt>
<trkpt lat="53.0115500000" lon="-4.1034400000"><ele>47</ele><time>2016-09-30T14:42:53Z</time></trkpt>
<trkpt lat="53.0115450000" lon="-4.1034900000"><ele>47</ele><time>2016-09-30T14:42:55Z</time></trkpt>
<trkpt lat="53.0115440000" lon="-4.1035510000"><ele>46</ele><time>2016-09-30T14:42:58Z</time></trkpt>
<trkpt lat="53.0115410000" lon="-4.1035930000"><ele>46</ele><time>2016-09-30T14:43:00Z</time></trkpt>
<trkpt lat="53.0115390000" lon="-4.1036320000"><ele>46</ele><time>2016-09-30T14:43:02Z</time></trkpt>
<trkpt lat="53.0115410000" lon="-4.1036740000"><ele>45</ele><time>2016-09-30T14:43:04Z</time></trkpt>
<trkpt lat="53.0115390000" lon="-4.1037150000"><ele>45</ele><time>2016-09-30T14:43:06Z</time></trkpt>
<trkpt lat="53.0115350000" lon="-4.1037580000"><ele>45</ele><time>2016-09-30T14:43:08Z</time></trkpt>
<trkpt lat="53.0115350000" lon="-4.1037980000"><ele>45</ele><time>2016-09-30T14:43:19Z</time></trkpt>
<trkpt lat="53.0115240000" lon="-4.1040110000"><ele>45</ele><time>2016-09-30T14:43:21Z</time></trkpt>
<trkpt lat="53.0115220000" lon="-4.1040570000"><ele>45</ele><time>2016-09-30T14:43:23Z</time></trkpt>
<trkpt lat="53.0115270000" lon="-4.1040910000"><ele>45</ele><time>2016-09-30T14:43:28Z</time></trkpt>
<trkpt lat="53.0115300000" lon="-4.1042040000"><ele>45</ele><time>2016-09-30T14:43:30Z</time></trkpt>
<trkpt lat="53.0115310000" lon="-4.1042400000"><ele>45</ele><time>2016-09-30T14:43:32Z</time></trkpt>
<trkpt lat="53.0115310000" lon="-4.1042560000"><ele>45</ele><time>2016-09-30T14:43:34Z</time></trkpt>
<trkpt lat="53.0115310000" lon="-4.1042560000"><ele>45</ele><time>2016-09-30T14:43:35Z</time></trkpt>
<trkpt lat="53.0115190000" lon="-4.1044980000"><ele>45</ele><time>2016-09-30T14:43:46Z</time></trkpt>
<trkpt lat="53.0115170000" lon="-4.1045630000"><ele>45</ele><time>2016-09-30T14:43:49Z</time></trkpt>
<trkpt lat="53.0115140000" lon="-4.1046270000"><ele>45</ele><time>2016-09-30T14:43:52Z</time></trkpt>
<trkpt lat="53.0115050000" lon="-4.1046910000"><ele>45</ele><time>2016-09-30T14:43:55Z</time></trkpt>
<trkpt lat="53.0115130000" lon="-4.1047340000"><ele>44</ele><time>2016-09-30T14:44:04Z</time></trkpt>
<trkpt lat="53.0114880000" lon="-4.1048910000"><ele>44</ele><time>2016-09-30T14:44:06Z</time></trkpt>
<trkpt lat="53.0114790000" lon="-4.1049470000"><ele>44</ele><time>2016-09-30T14:44:08Z</time></trkpt>
<trkpt lat="53.0114700000" lon="-4.1049970000"><ele>44</ele><time>2016-09-30T14:44:10Z</time></trkpt>
<trkpt lat="53.0114580000" lon="-4.1050440000"><ele>44</ele><time>2016-09-30T14:44:12Z</time></trkpt>
<trkpt lat="53.0114490000" lon="-4.1050820000"><ele>44</ele><time>2016-09-30T14:44:14Z</time></trkpt>
<trkpt lat="53.0114440000" lon="-4.1050980000"><ele>44</ele><time>2016-09-30T14:44:15Z</time></trkpt>
<trkpt lat="53.0114380000" lon="-4.1051160000"><ele>44</ele><time>2016-09-30T14:44:16Z</time></trkpt>
<trkpt lat="53.0114340000" lon="-4.1051340000"><ele>45</ele><time>2016-09-30T14:44:17Z</time></trkpt>
<trkpt lat="53.0114320000" lon="-4.1051490000"><ele>45</ele><time>2016-09-30T14:44:18Z</time></trkpt>
<trkpt lat="53.0114320000" lon="-4.1051490000"><ele>45</ele><time>2016-09-30T14:44:19Z</time></trkpt>
<trkpt lat="53.0114320000" lon="-4.1051490000"><ele>45</ele><time>2016-09-30T14:44:20Z</time></trkpt>
<trkpt lat="53.0114320000" lon="-4.1051500000"><ele>45</ele><time>2016-09-30T14:44:21Z</time></trkpt>
<trkpt lat="53.0114320000" lon="-4.1051510000"><ele>45</ele><time>2016-09-30T14:44:22Z</time></trkpt>
<trkpt lat="53.0114320000" lon="-4.1051520000"><ele>45</ele><time>2016-09-30T14:44:23Z</time></trkpt>
<trkpt lat="53.0114320000" lon="-4.1051550000"><ele>45</ele><time>2016-09-30T14:44:24Z</time></trkpt>
<trkpt lat="53.0114320000" lon="-4.1051570000"><ele>45</ele><time>2016-09-30T14:44:25Z</time></trkpt>
<trkpt lat="53.0114330000" lon="-4.1051610000"><ele>45</ele><time>2016-09-30T14:44:26Z</time></trkpt>
<trkpt lat="53.0114330000" lon="-4.1051650000"><ele>45</ele><time>2016-09-30T14:44:27Z</time></trkpt>
<trkpt lat="53.0114340000" lon="-4.1051700000"><ele>45</ele><time>2016-09-30T14:44:28Z</time></trkpt>
<trkpt lat="53.0114350000" lon="-4.1051760000"><ele>45</ele><time>2016-09-30T14:44:29Z</time></trkpt>
<trkpt lat="53.0114360000" lon="-4.1051820000"><ele>45</ele><time>2016-09-30T14:44:30Z</time></trkpt>
<trkpt lat="53.0114380000" lon="-4.1051890000"><ele>45</ele><time>2016-09-30T14:44:31Z</time></trkpt>
<trkpt lat="53.0114800000" lon="-4.1053840000"><ele>45</ele><time>2016-09-30T14:44:32Z</time></trkpt>
<trkpt lat="53.0114860000" lon="-4.1053970000"><ele>45</ele><time>2016-09-30T14:44:33Z</time></trkpt>
<trkpt lat="53.0114900000" lon="-4.1054110000"><ele>45</ele><time>2016-09-30T14:44:34Z</time></trkpt>
<trkpt lat="53.0114960000" lon="-4.1054300000"><ele>45</ele><time>2016-09-30T14:44:35Z</time></trkpt>
<trkpt lat="53.0115010000" lon="-4.1054490000"><ele>45</ele><time>2016-09-30T14:44:36Z</time></trkpt>
<trkpt lat="53.0115050000" lon="-4.1054700000"><ele>45</ele><time>2016-09-30T14:44:37Z</time></trkpt>
<trkpt lat="53.0115070000" lon="-4.1054920000"><ele>45</ele><time>2016-09-30T14:44:38Z</time></trkpt>
<trkpt lat="53.0115120000" lon="-4.1055070000"><ele>45</ele><time>2016-09-30T14:44:39Z</time></trkpt>
<trkpt lat="53.0115160000" lon="-4.1055210000"><ele>45</ele><time>2016-09-30T14:44:40Z</time></trkpt>
<trkpt lat="53.0115190000" lon="-4.1055370000"><ele>45</ele><time>2016-09-30T14:44:41Z</time></trkpt>
<trkpt lat="53.0115220000" lon="-4.1055570000"><ele>45</ele><time>2016-09-30T14:44:42Z</time></trkpt>
<trkpt lat="53.0115260000" lon="-4.1055770000"><ele>45</ele><time>2016-09-30T14:44:43Z</time></trkpt>
<trkpt lat="53.0115340000" lon="-4.1055910000"><ele>45</ele><time>2016-09-30T14:44:44Z</time></trkpt>
<trkpt lat="53.0115430000" lon="-4.1056060000"><ele>45</ele><time>2016-09-30T14:44:45Z</time></trkpt>
<trkpt lat="53.0115520000" lon="-4.1056190000"><ele>45</ele><time>2016-09-30T14:44:46Z</time></trkpt>
<trkpt lat="53.0115610000" lon="-4.1056320000"><ele>46</ele><time>2016-09-30T14:44:47Z</time></trkpt>
<trkpt lat="53.0115710000" lon="-4.1056470000"><ele>46</ele><time>2016-09-30T14:44:48Z</time></trkpt>
<trkpt lat="53.0115810000" lon="-4.1056610000"><ele>46</ele><time>2016-09-30T14:44:49Z</time></trkpt>
<trkpt lat="53.0115910000" lon="-4.1056720000"><ele>46</ele><time>2016-09-30T14:44:50Z</time></trkpt>
<trkpt lat="53.0116010000" lon="-4.1056850000"><ele>46</ele><time>2016-09-30T14:44:51Z</time></trkpt>
<trkpt lat="53.0116120000" lon="-4.1057010000"><ele>46</ele><time>2016-09-30T14:44:52Z</time></trkpt>
<trkpt lat="53.0116220000" lon="-4.1057170000"><ele>46</ele><time>2016-09-30T14:44:53Z</time></trkpt>
<trkpt lat="53.0116300000" lon="-4.1057300000"><ele>46</ele><time>2016-09-30T14:44:54Z</time></trkpt>
<trkpt lat="53.0116400000" lon="-4.1057410000"><ele>46</ele><time>2016-09-30T14:44:55Z</time></trkpt>
<trkpt lat="53.0116400000" lon="-4.1057410000"><ele>46</ele><time>2016-09-30T14:44:56Z</time></trkpt>
<trkpt lat="53.0116400000" lon="-4.1057410000"><ele>46</ele><time>2016-09-30T14:44:57Z</time></trkpt>
<trkpt lat="53.0116740000" lon="-4.1057740000"><ele>46</ele><time>2016-09-30T14:44:58Z</time></trkpt>
<trkpt lat="53.0116840000" lon="-4.1057870000"><ele>46</ele><time>2016-09-30T14:44:59Z</time></trkpt>
<trkpt lat="53.0116900000" lon="-4.1058010000"><ele>46</ele><time>2016-09-30T14:45:00Z</time></trkpt>
<trkpt lat="53.0116970000" lon="-4.1058140000"><ele>46</ele><time>2016-09-30T14:45:01Z</time></trkpt>
<trkpt lat="53.0116980000" lon="-4.1058150000"><ele>46</ele><time>2016-09-30T14:45:02Z</time></trkpt>
<trkpt lat="53.0117150000" lon="-4.1058460000"><ele>46</ele><time>2016-09-30T14:45:03Z</time></trkpt>
<trkpt lat="53.0117230000" lon="-4.1058600000"><ele>46</ele><time>2016-09-30T14:45:05Z</time></trkpt>
<trkpt lat="53.0117340000" lon="-4.1058710000"><ele>46</ele></trkpt>
<trkpt lat="53.0117430000" lon="-4.1058850000"><ele>46</ele><time>2016-09-30T14:45:06Z</time></trkpt>
<trkpt lat="53.0117510000" lon="-4.1058990000"><ele>46</ele><time>2016-09-30T14:45:07Z</time></trkpt>
<trkpt lat="53.0117600000" lon="-4.1059110000"><ele>46</ele><time>2016-09-30T14:45:08Z</time></trkpt>
<trkpt lat="53.0117600000" lon="-4.1059110000"><ele>46</ele><time>2016-09-30T14:45:09Z</time></trkpt>
<trkpt lat="53.0117600000" lon="-4.1059110000"><ele>46</ele><time>2016-09-30T14:45:10Z</time></trkpt>
<trkpt lat="53.0117610000" lon="-4.1059110000"><ele>46</ele><time>2016-09-30T14:45:11Z</time></trkpt>
<trkpt lat="53.0117610000" lon="-4.1059120000"><ele>46</ele><time>2016-09-30T14:45:12Z</time></trkpt>
<trkpt lat="53.0117620000" lon="-4.1059130000"><ele>46</ele><time>2016-09-30T14:45:13Z</time></trkpt>
<trkpt lat="53.0117630000" lon="-4.1059140000"><ele>46</ele><time>2016-09-30T14:45:14Z</time></trkpt>
<trkpt lat="53.0117640000" lon="-4.1059150000"><ele>46</ele><time>2016-09-30T14:45:15Z</time></trkpt>
<trkpt lat="53.0117640000" lon="-4.1059170000"><ele>46</ele><time>2016-09-30T14:45:16Z</time></trkpt>
<trkpt lat="53.0117650000" lon="-4.1059190000"><ele>46</ele><time>2016-09-30T14:45:17Z</time></trkpt>
<trkpt lat="53.0117660000" lon="-4.1059200000"><ele>46</ele><time>2016-09-30T14:45:18Z</time></trkpt>
</trkseg>
</trk>
</gpx>